<?xml version='1.0' encoding='UTF-8'?><gpx version="1.1" creator="JPX - https://github.com/jenetics/jpx" xmlns="http://www.topografix.com/GPX/1/1"><trk><trkseg><trkpt lat="42.6649049" lon="13.791095"><ele>368.0</ele><time>2026-04-26T05:59:01.807Z</time></trkpt><trkpt lat="42.6649381" lon="13.7911788"><ele>368.0</ele><time>2026-04-26T05:59:04.806Z</time></trkpt><trkpt lat="42.6649955" lon="13.7910849"><ele>368.0</ele><time>2026-04-26T05:59:07.807Z</time></trkpt><trkpt lat="42.6649573" lon="13.7909149"><ele>368.0</ele><time>2026-04-26T05:59:09.806Z</time></trkpt><trkpt lat="42.6649265" lon="13.7907977"><ele>368.0</ele><time>2026-04-26T05:59:10.806Z</time></trkpt><trkpt lat="42.6648977" lon="13.7906876"><ele>368.4</ele><time>2026-04-26T05:59:11.806Z</time></trkpt><trkpt lat="42.6648588" lon="13.7905746"><ele>368.79999999999995</ele><time>2026-04-26T05:59:12.806Z</time></trkpt><trkpt lat="42.6648188" lon="13.790456"><ele>369.2</ele><time>2026-04-26T05:59:13.806Z</time></trkpt><trkpt lat="42.6647779" lon="13.7903302"><ele>369.6</ele><time>2026-04-26T05:59:14.806Z</time></trkpt><trkpt lat="42.6647453" lon="13.7901935"><ele>370.0</ele><time>2026-04-26T05:59:15.806Z</time></trkpt><trkpt lat="42.6647337" lon="13.7900522"><ele>370.0</ele><time>2026-04-26T05:59:16.806Z</time></trkpt><trkpt lat="42.6647382" lon="13.7899167"><ele>370.0</ele><time>2026-04-26T05:59:17.806Z</time></trkpt><trkpt lat="42.6647567" lon="13.7897868"><ele>370.0</ele><time>2026-04-26T05:59:18.806Z</time></trkpt><trkpt lat="42.6648012" lon="13.7896487"><ele>370.0</ele><time>2026-04-26T05:59:19.806Z</time></trkpt><trkpt lat="42.6648565" lon="13.7895101"><ele>370.0</ele><time>2026-04-26T05:59:20.807Z</time></trkpt><trkpt lat="42.6649105" lon="13.7893577"><ele>369.0</ele><time>2026-04-26T05:59:21.806Z</time></trkpt><trkpt lat="42.6649705" lon="13.789203"><ele>368.0</ele><time>2026-04-26T05:59:22.805Z</time></trkpt><trkpt lat="42.6650215" lon="13.7890495"><ele>367.0</ele><time>2026-04-26T05:59:23.806Z</time></trkpt><trkpt lat="42.6650704" lon="13.7889016"><ele>366.0</ele><time>2026-04-26T05:59:24.806Z</time></trkpt><trkpt lat="42.6650932" lon="13.7887163"><ele>366.0</ele><time>2026-04-26T05:59:25.806Z</time></trkpt><trkpt lat="42.6650889" lon="13.7885268"><ele>366.0</ele><time>2026-04-26T05:59:26.806Z</time></trkpt><trkpt lat="42.6650569" lon="13.7883522"><ele>366.0</ele><time>2026-04-26T05:59:27.807Z</time></trkpt><trkpt lat="42.6650039" lon="13.7881919"><ele>366.0</ele><time>2026-04-26T05:59:28.806Z</time></trkpt><trkpt lat="42.6649442" lon="13.7880423"><ele>365.75</ele><time>2026-04-26T05:59:29.807Z</time></trkpt><trkpt lat="42.664884" lon="13.7878989"><ele>365.5</ele><time>2026-04-26T05:59:30.806Z</time></trkpt><trkpt lat="42.6648177" lon="13.7877503"><ele>365.25</ele><time>2026-04-26T05:59:31.805Z</time></trkpt><trkpt lat="42.6647543" lon="13.7876025"><ele>365.0</ele><time>2026-04-26T05:59:32.806Z</time></trkpt><trkpt lat="42.664686" lon="13.7874518"><ele>365.0</ele><time>2026-04-26T05:59:33.807Z</time></trkpt><trkpt lat="42.6646179" lon="13.7873019"><ele>365.0</ele><time>2026-04-26T05:59:34.806Z</time></trkpt><trkpt lat="42.6645507" lon="13.7871461"><ele>365.0</ele><time>2026-04-26T05:59:35.806Z</time></trkpt><trkpt lat="42.6644789" lon="13.7869789"><ele>365.0</ele><time>2026-04-26T05:59:36.807Z</time></trkpt><trkpt lat="42.664399" lon="13.7868091"><ele>366.33333333333337</ele><time>2026-04-26T05:59:37.806Z</time></trkpt><trkpt lat="42.664319" lon="13.7866272"><ele>367.6666666666667</ele><time>2026-04-26T05:59:38.807Z</time></trkpt><trkpt lat="42.6642321" lon="13.7864369"><ele>369.0</ele><time>2026-04-26T05:59:39.806Z</time></trkpt><trkpt lat="42.6641369" lon="13.78623"><ele>372.3333333333333</ele><time>2026-04-26T05:59:40.807Z</time></trkpt><trkpt lat="42.6640342" lon="13.7860041"><ele>375.66666666666663</ele><time>2026-04-26T05:59:41.805Z</time></trkpt><trkpt lat="42.6639337" lon="13.7857829"><ele>379.0</ele><time>2026-04-26T05:59:42.805Z</time></trkpt><trkpt lat="42.6638287" lon="13.7855555"><ele>379.0</ele><time>2026-04-26T05:59:43.806Z</time></trkpt><trkpt lat="42.6637377" lon="13.7853505"><ele>379.0</ele><time>2026-04-26T05:59:44.807Z</time></trkpt><trkpt lat="42.6636543" lon="13.7851626"><ele>379.0</ele><time>2026-04-26T05:59:45.807Z</time></trkpt><trkpt lat="42.6635991" lon="13.7849717"><ele>378.25</ele><time>2026-04-26T05:59:46.807Z</time></trkpt><trkpt lat="42.6635609" lon="13.7847777"><ele>377.5</ele><time>2026-04-26T05:59:47.805Z</time></trkpt><trkpt lat="42.6635242" lon="13.7845969"><ele>376.75</ele><time>2026-04-26T05:59:48.807Z</time></trkpt><trkpt lat="42.6634693" lon="13.7844157"><ele>376.0</ele><time>2026-04-26T05:59:49.806Z</time></trkpt><trkpt lat="42.6633975" lon="13.7842504"><ele>379.0</ele><time>2026-04-26T05:59:50.807Z</time></trkpt><trkpt lat="42.6633314" lon="13.784103"><ele>382.0</ele><time>2026-04-26T05:59:51.806Z</time></trkpt><trkpt lat="42.6632635" lon="13.7839516"><ele>385.0</ele><time>2026-04-26T05:59:52.807Z</time></trkpt><trkpt lat="42.6631841" lon="13.7838164"><ele>388.0</ele><time>2026-04-26T05:59:53.807Z</time></trkpt><trkpt lat="42.6631093" lon="13.783684"><ele>388.0</ele><time>2026-04-26T05:59:54.807Z</time></trkpt><trkpt lat="42.6630357" lon="13.783576"><ele>388.0</ele><time>2026-04-26T05:59:55.806Z</time></trkpt><trkpt lat="42.6629522" lon="13.783475"><ele>388.0</ele><time>2026-04-26T05:59:56.806Z</time></trkpt><trkpt lat="42.6628561" lon="13.7834"><ele>388.0</ele><time>2026-04-26T05:59:57.806Z</time></trkpt><trkpt lat="42.6627567" lon="13.7833311"><ele>388.0</ele><time>2026-04-26T05:59:58.807Z</time></trkpt><trkpt lat="42.662658" lon="13.7832521"><ele>389.0</ele><time>2026-04-26T05:59:59.806Z</time></trkpt><trkpt lat="42.6625626" lon="13.7831542"><ele>390.0</ele><time>2026-04-26T06:00:00.806Z</time></trkpt><trkpt lat="42.6624733" lon="13.7830317"><ele>391.0</ele><time>2026-04-26T06:00:01.806Z</time></trkpt><trkpt lat="42.6623932" lon="13.7828892"><ele>392.0</ele><time>2026-04-26T06:00:02.805Z</time></trkpt><trkpt lat="42.6623133" lon="13.782734"><ele>392.75</ele><time>2026-04-26T06:00:03.806Z</time></trkpt><trkpt lat="42.662241" lon="13.7825863"><ele>393.5</ele><time>2026-04-26T06:00:04.806Z</time></trkpt><trkpt lat="42.6621732" lon="13.7824507"><ele>394.25</ele><time>2026-04-26T06:00:05.806Z</time></trkpt><trkpt lat="42.6621091" lon="13.7823251"><ele>395.0</ele><time>2026-04-26T06:00:06.805Z</time></trkpt><trkpt lat="42.6620616" lon="13.7821967"><ele>395.0</ele><time>2026-04-26T06:00:07.806Z</time></trkpt><trkpt lat="42.662041" lon="13.7820533"><ele>395.0</ele><time>2026-04-26T06:00:08.806Z</time></trkpt><trkpt lat="42.6620561" lon="13.7818958"><ele>395.0</ele><time>2026-04-26T06:00:09.807Z</time></trkpt><trkpt lat="42.6621094" lon="13.7817367"><ele>395.0</ele><time>2026-04-26T06:00:10.805Z</time></trkpt><trkpt lat="42.6621822" lon="13.7815842"><ele>395.25</ele><time>2026-04-26T06:00:11.805Z</time></trkpt><trkpt lat="42.6622638" lon="13.7814244"><ele>395.5</ele><time>2026-04-26T06:00:12.806Z</time></trkpt><trkpt lat="42.662346" lon="13.781257"><ele>395.75</ele><time>2026-04-26T06:00:13.807Z</time></trkpt><trkpt lat="42.6624317" lon="13.7810804"><ele>396.0</ele><time>2026-04-26T06:00:14.806Z</time></trkpt><trkpt lat="42.6625153" lon="13.7809002"><ele>399.66666666666663</ele><time>2026-04-26T06:00:15.806Z</time></trkpt><trkpt lat="42.6625957" lon="13.7807172"><ele>403.3333333333333</ele><time>2026-04-26T06:00:16.806Z</time></trkpt><trkpt lat="42.6626748" lon="13.7805317"><ele>407.0</ele><time>2026-04-26T06:00:17.806Z</time></trkpt><trkpt lat="42.6627525" lon="13.7803515"><ele>402.3333333333333</ele><time>2026-04-26T06:00:18.806Z</time></trkpt><trkpt lat="42.6628369" lon="13.780172"><ele>397.66666666666663</ele><time>2026-04-26T06:00:19.807Z</time></trkpt><trkpt lat="42.662932" lon="13.7800055"><ele>393.0</ele><time>2026-04-26T06:00:20.807Z</time></trkpt><trkpt lat="42.6630287" lon="13.7798611"><ele>393.0</ele><time>2026-04-26T06:00:21.805Z</time></trkpt><trkpt lat="42.6631249" lon="13.7797302"><ele>393.0</ele><time>2026-04-26T06:00:22.805Z</time></trkpt><trkpt lat="42.6632146" lon="13.7796063"><ele>393.0</ele><time>2026-04-26T06:00:23.807Z</time></trkpt><trkpt lat="42.6632991" lon="13.7794946"><ele>393.0</ele><time>2026-04-26T06:00:24.807Z</time></trkpt><trkpt lat="42.6633811" lon="13.7793832"><ele>392.4</ele><time>2026-04-26T06:00:25.806Z</time></trkpt><trkpt lat="42.6634578" lon="13.7792772"><ele>391.79999999999995</ele><time>2026-04-26T06:00:26.806Z</time></trkpt><trkpt lat="42.6635305" lon="13.7791775"><ele>391.2</ele><time>2026-04-26T06:00:27.806Z</time></trkpt><trkpt lat="42.6636026" lon="13.7790866"><ele>390.6</ele><time>2026-04-26T06:00:28.807Z</time></trkpt><trkpt lat="42.6636703" lon="13.7790013"><ele>390.0</ele><time>2026-04-26T06:00:29.806Z</time></trkpt><trkpt lat="42.6637338" lon="13.7789197"><ele>390.0</ele><time>2026-04-26T06:00:30.806Z</time></trkpt><trkpt lat="42.663795" lon="13.7788419"><ele>390.0</ele><time>2026-04-26T06:00:31.806Z</time></trkpt><trkpt lat="42.6638533" lon="13.7787689"><ele>390.0</ele><time>2026-04-26T06:00:32.806Z</time></trkpt><trkpt lat="42.663907" lon="13.778698"><ele>390.0</ele><time>2026-04-26T06:00:33.806Z</time></trkpt><trkpt lat="42.6639609" lon="13.7786285"><ele>390.0</ele><time>2026-04-26T06:00:34.806Z</time></trkpt><trkpt lat="42.664016" lon="13.778553"><ele>390.0</ele><time>2026-04-26T06:00:35.806Z</time></trkpt><trkpt lat="42.6640875" lon="13.7784679"><ele>391.1666666666667</ele><time>2026-04-26T06:00:37.806Z</time></trkpt><trkpt lat="42.664157" lon="13.7783713"><ele>392.33333333333337</ele><time>2026-04-26T06:00:40.806Z</time></trkpt><trkpt lat="42.664203" lon="13.7783076"><ele>393.5</ele><time>2026-04-26T06:00:41.806Z</time></trkpt><trkpt lat="42.6642404" lon="13.778224"><ele>394.6666666666667</ele><time>2026-04-26T06:00:43.807Z</time></trkpt><trkpt lat="42.6642725" lon="13.7781388"><ele>395.83333333333337</ele><time>2026-04-26T06:04:38.806Z</time></trkpt><trkpt lat="42.6643658" lon="13.7781827"><ele>397.0</ele><time>2026-04-26T06:04:42.805Z</time></trkpt><trkpt lat="42.6644329" lon="13.7781801"><ele>396.25</ele><time>2026-04-26T06:04:43.805Z</time></trkpt><trkpt lat="42.6645472" lon="13.7781394"><ele>395.5</ele><time>2026-04-26T06:04:44.806Z</time></trkpt><trkpt lat="42.6646729" lon="13.7780764"><ele>394.75</ele><time>2026-04-26T06:04:45.806Z</time></trkpt><trkpt lat="42.6647946" lon="13.7779785"><ele>394.0</ele><time>2026-04-26T06:04:46.805Z</time></trkpt><trkpt lat="42.6649019" lon="13.777847"><ele>394.0</ele><time>2026-04-26T06:04:47.806Z</time></trkpt><trkpt lat="42.664984" lon="13.7777045"><ele>394.0</ele><time>2026-04-26T06:04:48.805Z</time></trkpt><trkpt lat="42.665053" lon="13.7775639"><ele>394.0</ele><time>2026-04-26T06:04:49.804Z</time></trkpt><trkpt lat="42.6651107" lon="13.7774293"><ele>394.0</ele><time>2026-04-26T06:04:50.805Z</time></trkpt><trkpt lat="42.6651562" lon="13.7772936"><ele>394.0</ele><time>2026-04-26T06:04:51.804Z</time></trkpt><trkpt lat="42.6652052" lon="13.7771733"><ele>394.0</ele><time>2026-04-26T06:04:52.804Z</time></trkpt><trkpt lat="42.6652667" lon="13.7770741"><ele>394.0</ele><time>2026-04-26T06:04:53.804Z</time></trkpt><trkpt lat="42.6653451" lon="13.7770096"><ele>394.0</ele><time>2026-04-26T06:04:54.804Z</time></trkpt><trkpt lat="42.6654423" lon="13.776985"><ele>394.0</ele><time>2026-04-26T06:04:55.804Z</time></trkpt><trkpt lat="42.6655584" lon="13.7769952"><ele>395.33333333333337</ele><time>2026-04-26T06:04:56.805Z</time></trkpt><trkpt lat="42.6656856" lon="13.7770344"><ele>396.66666666666663</ele><time>2026-04-26T06:04:57.805Z</time></trkpt><trkpt lat="42.6658307" lon="13.7770362"><ele>398.0</ele><time>2026-04-26T06:04:58.805Z</time></trkpt><trkpt lat="42.6660065" lon="13.7769782"><ele>400.3333333333333</ele><time>2026-04-26T06:04:59.804Z</time></trkpt><trkpt lat="42.6662017" lon="13.7768895"><ele>402.66666666666663</ele><time>2026-04-26T06:05:00.804Z</time></trkpt><trkpt lat="42.6664011" lon="13.7768001"><ele>405.0</ele><time>2026-04-26T06:05:01.805Z</time></trkpt><trkpt lat="42.6665599" lon="13.7767276"><ele>400.66666666666663</ele><time>2026-04-26T06:05:02.804Z</time></trkpt><trkpt lat="42.666709" lon="13.7766573"><ele>396.3333333333333</ele><time>2026-04-26T06:05:03.804Z</time></trkpt><trkpt lat="42.6668508" lon="13.776587"><ele>392.0</ele><time>2026-04-26T06:05:04.804Z</time></trkpt><trkpt lat="42.6669833" lon="13.7765167"><ele>392.0</ele><time>2026-04-26T06:05:05.804Z</time></trkpt><trkpt lat="42.6671011" lon="13.7764482"><ele>392.0</ele><time>2026-04-26T06:05:06.804Z</time></trkpt><trkpt lat="42.6672137" lon="13.7763836"><ele>392.0</ele><time>2026-04-26T06:05:07.805Z</time></trkpt><trkpt lat="42.6673241" lon="13.7763305"><ele>392.0</ele><time>2026-04-26T06:05:08.805Z</time></trkpt><trkpt lat="42.6674339" lon="13.776266"><ele>392.0</ele><time>2026-04-26T06:05:09.803Z</time></trkpt><trkpt lat="42.6675397" lon="13.7761566"><ele>392.0</ele><time>2026-04-26T06:05:10.804Z</time></trkpt><trkpt lat="42.6676339" lon="13.7760168"><ele>392.0</ele><time>2026-04-26T06:05:11.803Z</time></trkpt><trkpt lat="42.6677196" lon="13.7758656"><ele>392.0</ele><time>2026-04-26T06:05:12.803Z</time></trkpt><trkpt lat="42.6677867" lon="13.7756968"><ele>386.75</ele><time>2026-04-26T06:05:13.804Z</time></trkpt><trkpt lat="42.6678348" lon="13.7755233"><ele>381.5</ele><time>2026-04-26T06:05:14.803Z</time></trkpt><trkpt lat="42.6678606" lon="13.7753481"><ele>376.25</ele><time>2026-04-26T06:05:15.805Z</time></trkpt><trkpt lat="42.6678626" lon="13.7751553"><ele>371.0</ele><time>2026-04-26T06:05:16.804Z</time></trkpt><trkpt lat="42.6678417" lon="13.7749509"><ele>371.0</ele><time>2026-04-26T06:05:17.805Z</time></trkpt><trkpt lat="42.6678141" lon="13.7747473"><ele>371.0</ele><time>2026-04-26T06:05:18.805Z</time></trkpt><trkpt lat="42.6677883" lon="13.7745501"><ele>371.0</ele><time>2026-04-26T06:05:19.805Z</time></trkpt><trkpt lat="42.6677618" lon="13.7743566"><ele>371.0</ele><time>2026-04-26T06:05:20.803Z</time></trkpt><trkpt lat="42.6677318" lon="13.7741708"><ele>371.6666666666667</ele><time>2026-04-26T06:05:21.803Z</time></trkpt><trkpt lat="42.6677013" lon="13.7739867"><ele>372.3333333333333</ele><time>2026-04-26T06:05:22.804Z</time></trkpt><trkpt lat="42.6676736" lon="13.7737873"><ele>373.0</ele><time>2026-04-26T06:05:23.804Z</time></trkpt><trkpt lat="42.6676483" lon="13.7735593"><ele>370.0</ele><time>2026-04-26T06:05:24.803Z</time></trkpt><trkpt lat="42.6676231" lon="13.7733026"><ele>367.0</ele><time>2026-04-26T06:05:25.805Z</time></trkpt><trkpt lat="42.6675991" lon="13.7730289"><ele>364.0</ele><time>2026-04-26T06:05:26.803Z</time></trkpt><trkpt lat="42.6675874" lon="13.7727579"><ele>361.0</ele><time>2026-04-26T06:05:27.805Z</time></trkpt><trkpt lat="42.6675923" lon="13.7724931"><ele>358.0</ele><time>2026-04-26T06:05:28.805Z</time></trkpt><trkpt lat="42.6676137" lon="13.7722388"><ele>355.0</ele><time>2026-04-26T06:05:29.804Z</time></trkpt><trkpt lat="42.6676513" lon="13.7719798"><ele>354.3333333333333</ele><time>2026-04-26T06:05:30.803Z</time></trkpt><trkpt lat="42.6676745" lon="13.7717233"><ele>353.6666666666667</ele><time>2026-04-26T06:05:31.804Z</time></trkpt><trkpt lat="42.6676603" lon="13.7714749"><ele>353.0</ele><time>2026-04-26T06:05:32.803Z</time></trkpt><trkpt lat="42.6676239" lon="13.7712262"><ele>350.0</ele><time>2026-04-26T06:05:33.805Z</time></trkpt><trkpt lat="42.6675796" lon="13.7709866"><ele>347.0</ele><time>2026-04-26T06:05:34.804Z</time></trkpt><trkpt lat="42.6675419" lon="13.7707534"><ele>344.0</ele><time>2026-04-26T06:05:35.803Z</time></trkpt><trkpt lat="42.667504" lon="13.7705223"><ele>344.0</ele><time>2026-04-26T06:05:36.803Z</time></trkpt><trkpt lat="42.6674772" lon="13.7702945"><ele>344.0</ele><time>2026-04-26T06:05:37.804Z</time></trkpt><trkpt lat="42.6674729" lon="13.7700646"><ele>344.0</ele><time>2026-04-26T06:05:38.804Z</time></trkpt><trkpt lat="42.6674973" lon="13.7698288"><ele>342.6666666666667</ele><time>2026-04-26T06:05:39.804Z</time></trkpt><trkpt lat="42.6675408" lon="13.7696004"><ele>341.3333333333333</ele><time>2026-04-26T06:05:40.804Z</time></trkpt><trkpt lat="42.6675996" lon="13.7693732"><ele>340.0</ele><time>2026-04-26T06:05:41.805Z</time></trkpt><trkpt lat="42.6676701" lon="13.7691414"><ele>340.0</ele><time>2026-04-26T06:05:42.804Z</time></trkpt><trkpt lat="42.6677463" lon="13.7689075"><ele>340.0</ele><time>2026-04-26T06:05:43.804Z</time></trkpt><trkpt lat="42.6678169" lon="13.7686786"><ele>340.0</ele><time>2026-04-26T06:05:44.805Z</time></trkpt><trkpt lat="42.6678909" lon="13.7684539"><ele>332.0</ele><time>2026-04-26T06:05:45.804Z</time></trkpt><trkpt lat="42.6679538" lon="13.768235"><ele>324.0</ele><time>2026-04-26T06:05:46.805Z</time></trkpt><trkpt lat="42.6680196" lon="13.7680203"><ele>316.0</ele><time>2026-04-26T06:05:47.805Z</time></trkpt><trkpt lat="42.6680885" lon="13.7678025"><ele>316.0</ele><time>2026-04-26T06:05:48.805Z</time></trkpt><trkpt lat="42.6681572" lon="13.7675952"><ele>316.0</ele><time>2026-04-26T06:05:49.804Z</time></trkpt><trkpt lat="42.6682256" lon="13.7673974"><ele>316.0</ele><time>2026-04-26T06:05:50.805Z</time></trkpt><trkpt lat="42.6683085" lon="13.7672096"><ele>316.0</ele><time>2026-04-26T06:05:51.804Z</time></trkpt><trkpt lat="42.6684097" lon="13.767046"><ele>316.0</ele><time>2026-04-26T06:05:52.803Z</time></trkpt><trkpt lat="42.6685253" lon="13.7668951"><ele>316.0</ele><time>2026-04-26T06:05:53.804Z</time></trkpt><trkpt lat="42.6686557" lon="13.7667693"><ele>314.75</ele><time>2026-04-26T06:05:54.805Z</time></trkpt><trkpt lat="42.6687886" lon="13.7666606"><ele>313.5</ele><time>2026-04-26T06:05:55.805Z</time></trkpt><trkpt lat="42.6689171" lon="13.7665621"><ele>312.25</ele><time>2026-04-26T06:05:56.804Z</time></trkpt><trkpt lat="42.6690409" lon="13.7664673"><ele>311.0</ele><time>2026-04-26T06:05:57.804Z</time></trkpt><trkpt lat="42.669159" lon="13.7663817"><ele>311.0</ele><time>2026-04-26T06:05:58.805Z</time></trkpt><trkpt lat="42.6692703" lon="13.7663124"><ele>311.0</ele><time>2026-04-26T06:05:59.805Z</time></trkpt><trkpt lat="42.6693722" lon="13.7662496"><ele>311.0</ele><time>2026-04-26T06:06:00.804Z</time></trkpt><trkpt lat="42.6694579" lon="13.7661709"><ele>311.0</ele><time>2026-04-26T06:06:01.805Z</time></trkpt><trkpt lat="42.669525" lon="13.7660638"><ele>311.0</ele><time>2026-04-26T06:06:02.804Z</time></trkpt><trkpt lat="42.6695651" lon="13.7659359"><ele>311.0</ele><time>2026-04-26T06:06:03.804Z</time></trkpt><trkpt lat="42.6695743" lon="13.7657698"><ele>311.0</ele><time>2026-04-26T06:06:04.804Z</time></trkpt><trkpt lat="42.669563" lon="13.7655858"><ele>311.0</ele><time>2026-04-26T06:06:05.805Z</time></trkpt><trkpt lat="42.6695352" lon="13.7653979"><ele>311.0</ele><time>2026-04-26T06:06:06.804Z</time></trkpt><trkpt lat="42.6694994" lon="13.7652105"><ele>311.5</ele><time>2026-04-26T06:06:07.805Z</time></trkpt><trkpt lat="42.6694506" lon="13.7650353"><ele>312.0</ele><time>2026-04-26T06:06:08.803Z</time></trkpt><trkpt lat="42.6693876" lon="13.7648657"><ele>312.5</ele><time>2026-04-26T06:06:09.804Z</time></trkpt><trkpt lat="42.6693109" lon="13.7646993"><ele>313.0</ele><time>2026-04-26T06:06:10.804Z</time></trkpt><trkpt lat="42.6692269" lon="13.764536"><ele>313.0</ele><time>2026-04-26T06:06:11.804Z</time></trkpt><trkpt lat="42.6691395" lon="13.7643768"><ele>313.0</ele><time>2026-04-26T06:06:12.803Z</time></trkpt><trkpt lat="42.6690515" lon="13.7642172"><ele>313.0</ele><time>2026-04-26T06:06:13.804Z</time></trkpt><trkpt lat="42.6689643" lon="13.7640483"><ele>313.0</ele><time>2026-04-26T06:06:14.804Z</time></trkpt><trkpt lat="42.668863" lon="13.7638847"><ele>313.3333333333333</ele><time>2026-04-26T06:06:15.805Z</time></trkpt><trkpt lat="42.6687595" lon="13.7637161"><ele>313.6666666666667</ele><time>2026-04-26T06:06:16.805Z</time></trkpt><trkpt lat="42.6686529" lon="13.7635524"><ele>314.0</ele><time>2026-04-26T06:06:17.804Z</time></trkpt><trkpt lat="42.6685386" lon="13.7633984"><ele>314.0</ele><time>2026-04-26T06:06:18.804Z</time></trkpt><trkpt lat="42.6684218" lon="13.76325"><ele>314.0</ele><time>2026-04-26T06:06:19.803Z</time></trkpt><trkpt lat="42.6683032" lon="13.7631116"><ele>314.0</ele><time>2026-04-26T06:06:20.804Z</time></trkpt><trkpt lat="42.6681826" lon="13.7629755"><ele>314.0</ele><time>2026-04-26T06:06:21.804Z</time></trkpt><trkpt lat="42.6680647" lon="13.7628329"><ele>314.0</ele><time>2026-04-26T06:06:22.804Z</time></trkpt><trkpt lat="42.6679388" lon="13.7626892"><ele>314.0</ele><time>2026-04-26T06:06:23.805Z</time></trkpt><trkpt lat="42.6678104" lon="13.7625267"><ele>313.6666666666667</ele><time>2026-04-26T06:06:24.805Z</time></trkpt><trkpt lat="42.6676916" lon="13.7623413"><ele>313.3333333333333</ele><time>2026-04-26T06:06:25.804Z</time></trkpt><trkpt lat="42.6675964" lon="13.7621359"><ele>313.0</ele><time>2026-04-26T06:06:26.804Z</time></trkpt><trkpt lat="42.6675284" lon="13.7619189"><ele>312.3333333333333</ele><time>2026-04-26T06:06:27.805Z</time></trkpt><trkpt lat="42.6674781" lon="13.7617058"><ele>311.6666666666667</ele><time>2026-04-26T06:06:28.804Z</time></trkpt><trkpt lat="42.6674334" lon="13.7614916"><ele>311.0</ele><time>2026-04-26T06:06:29.804Z</time></trkpt><trkpt lat="42.6673765" lon="13.7612772"><ele>311.0</ele><time>2026-04-26T06:06:30.805Z</time></trkpt><trkpt lat="42.6672946" lon="13.7610774"><ele>311.0</ele><time>2026-04-26T06:06:31.803Z</time></trkpt><trkpt lat="42.6671833" lon="13.76089"><ele>311.0</ele><time>2026-04-26T06:06:32.803Z</time></trkpt><trkpt lat="42.6670573" lon="13.7607217"><ele>309.6666666666667</ele><time>2026-04-26T06:06:33.805Z</time></trkpt><trkpt lat="42.6669285" lon="13.7605703"><ele>308.3333333333333</ele><time>2026-04-26T06:06:34.804Z</time></trkpt><trkpt lat="42.6667987" lon="13.7604388"><ele>307.0</ele><time>2026-04-26T06:06:35.803Z</time></trkpt><trkpt lat="42.6666758" lon="13.7603219"><ele>307.0</ele><time>2026-04-26T06:06:36.804Z</time></trkpt><trkpt lat="42.666556" lon="13.7602031"><ele>307.0</ele><time>2026-04-26T06:06:37.805Z</time></trkpt><trkpt lat="42.6664509" lon="13.7600566"><ele>307.0</ele><time>2026-04-26T06:06:38.804Z</time></trkpt><trkpt lat="42.666368" lon="13.7598748"><ele>306.66666666666663</ele><time>2026-04-26T06:06:39.804Z</time></trkpt><trkpt lat="42.6663133" lon="13.7596624"><ele>306.3333333333333</ele><time>2026-04-26T06:06:40.803Z</time></trkpt><trkpt lat="42.6662714" lon="13.7594349"><ele>306.0</ele><time>2026-04-26T06:06:41.804Z</time></trkpt><trkpt lat="42.6662295" lon="13.7592053"><ele>304.75</ele><time>2026-04-26T06:06:42.805Z</time></trkpt><trkpt lat="42.6661912" lon="13.758997"><ele>303.5</ele><time>2026-04-26T06:06:43.805Z</time></trkpt><trkpt lat="42.666134" lon="13.7588146"><ele>302.25</ele><time>2026-04-26T06:06:44.805Z</time></trkpt><trkpt lat="42.6660486" lon="13.7586543"><ele>301.0</ele><time>2026-04-26T06:06:45.805Z</time></trkpt><trkpt lat="42.6659416" lon="13.75852"><ele>304.0</ele><time>2026-04-26T06:06:46.804Z</time></trkpt><trkpt lat="42.665828" lon="13.7584003"><ele>307.0</ele><time>2026-04-26T06:06:47.804Z</time></trkpt><trkpt lat="42.6657152" lon="13.758284"><ele>310.0</ele><time>2026-04-26T06:06:48.804Z</time></trkpt><trkpt lat="42.6656233" lon="13.758164"><ele>313.0</ele><time>2026-04-26T06:06:49.804Z</time></trkpt><trkpt lat="42.6655456" lon="13.7580226"><ele>313.0</ele><time>2026-04-26T06:06:50.805Z</time></trkpt><trkpt lat="42.6654915" lon="13.7578565"><ele>313.0</ele><time>2026-04-26T06:06:51.805Z</time></trkpt><trkpt lat="42.6654634" lon="13.7576642"><ele>313.0</ele><time>2026-04-26T06:06:52.805Z</time></trkpt><trkpt lat="42.6654516" lon="13.7574516"><ele>313.0</ele><time>2026-04-26T06:06:53.805Z</time></trkpt><trkpt lat="42.6654267" lon="13.7572456"><ele>314.0</ele><time>2026-04-26T06:06:54.804Z</time></trkpt><trkpt lat="42.6653877" lon="13.7570384"><ele>315.0</ele><time>2026-04-26T06:06:55.803Z</time></trkpt><trkpt lat="42.6653395" lon="13.7568493"><ele>316.0</ele><time>2026-04-26T06:06:56.804Z</time></trkpt><trkpt lat="42.6652833" lon="13.7566774"><ele>317.0</ele><time>2026-04-26T06:06:57.805Z</time></trkpt><trkpt lat="42.6652092" lon="13.7565172"><ele>317.0</ele><time>2026-04-26T06:06:58.805Z</time></trkpt><trkpt lat="42.6651102" lon="13.756381"><ele>317.0</ele><time>2026-04-26T06:06:59.805Z</time></trkpt><trkpt lat="42.6649996" lon="13.7562692"><ele>317.0</ele><time>2026-04-26T06:07:00.804Z</time></trkpt><trkpt lat="42.6648881" lon="13.7561612"><ele>317.0</ele><time>2026-04-26T06:07:01.804Z</time></trkpt><trkpt lat="42.6647857" lon="13.7560327"><ele>315.25</ele><time>2026-04-26T06:07:02.804Z</time></trkpt><trkpt lat="42.6647018" lon="13.7558663"><ele>313.5</ele><time>2026-04-26T06:07:03.804Z</time></trkpt><trkpt lat="42.6646437" lon="13.7556829"><ele>311.75</ele><time>2026-04-26T06:07:04.804Z</time></trkpt><trkpt lat="42.6646027" lon="13.7554834"><ele>310.0</ele><time>2026-04-26T06:07:05.805Z</time></trkpt><trkpt lat="42.6645774" lon="13.7552716"><ele>309.3333333333333</ele><time>2026-04-26T06:07:06.805Z</time></trkpt><trkpt lat="42.6645677" lon="13.7550586"><ele>308.6666666666667</ele><time>2026-04-26T06:07:07.804Z</time></trkpt><trkpt lat="42.6645639" lon="13.7548452"><ele>308.0</ele><time>2026-04-26T06:07:08.804Z</time></trkpt><trkpt lat="42.6645251" lon="13.7546399"><ele>308.0</ele><time>2026-04-26T06:07:09.804Z</time></trkpt><trkpt lat="42.6644573" lon="13.7544543"><ele>308.0</ele><time>2026-04-26T06:07:10.804Z</time></trkpt><trkpt lat="42.6643558" lon="13.75429"><ele>308.0</ele><time>2026-04-26T06:07:11.804Z</time></trkpt><trkpt lat="42.6642309" lon="13.7541567"><ele>313.6666666666667</ele><time>2026-04-26T06:07:12.805Z</time></trkpt><trkpt lat="42.6640965" lon="13.7540419"><ele>319.3333333333333</ele><time>2026-04-26T06:07:13.805Z</time></trkpt><trkpt lat="42.6639637" lon="13.7539369"><ele>325.0</ele><time>2026-04-26T06:07:14.803Z</time></trkpt><trkpt lat="42.66383" lon="13.7538375"><ele>325.0</ele><time>2026-04-26T06:07:15.804Z</time></trkpt><trkpt lat="42.6637008" lon="13.7537359"><ele>325.0</ele><time>2026-04-26T06:07:16.805Z</time></trkpt><trkpt lat="42.6635729" lon="13.7536345"><ele>325.0</ele><time>2026-04-26T06:07:17.804Z</time></trkpt><trkpt lat="42.6634444" lon="13.7535399"><ele>325.0</ele><time>2026-04-26T06:07:18.803Z</time></trkpt><trkpt lat="42.6633034" lon="13.7534732"><ele>322.0</ele><time>2026-04-26T06:07:19.804Z</time></trkpt><trkpt lat="42.6631519" lon="13.7534424"><ele>319.0</ele><time>2026-04-26T06:07:20.805Z</time></trkpt><trkpt lat="42.6629972" lon="13.7534323"><ele>316.0</ele><time>2026-04-26T06:07:21.804Z</time></trkpt><trkpt lat="42.6628388" lon="13.7534475"><ele>318.66666666666663</ele><time>2026-04-26T06:07:22.803Z</time></trkpt><trkpt lat="42.6626764" lon="13.7534682"><ele>321.3333333333333</ele><time>2026-04-26T06:07:23.804Z</time></trkpt><trkpt lat="42.6625094" lon="13.7534936"><ele>324.0</ele><time>2026-04-26T06:07:24.805Z</time></trkpt><trkpt lat="42.662352" lon="13.7535165"><ele>319.75</ele><time>2026-04-26T06:07:25.803Z</time></trkpt><trkpt lat="42.6622051" lon="13.7535395"><ele>315.5</ele><time>2026-04-26T06:07:26.803Z</time></trkpt><trkpt lat="42.6620629" lon="13.7535677"><ele>311.25</ele><time>2026-04-26T06:07:27.804Z</time></trkpt><trkpt lat="42.6619364" lon="13.7535748"><ele>307.0</ele><time>2026-04-26T06:07:28.804Z</time></trkpt><trkpt lat="42.6618287" lon="13.7535412"><ele>310.5</ele><time>2026-04-26T06:07:29.805Z</time></trkpt><trkpt lat="42.6617216" lon="13.7534628"><ele>314.0</ele><time>2026-04-26T06:07:30.804Z</time></trkpt><trkpt lat="42.661623" lon="13.7533296"><ele>317.5</ele><time>2026-04-26T06:07:31.804Z</time></trkpt><trkpt lat="42.6615397" lon="13.7531575"><ele>321.0</ele><time>2026-04-26T06:07:32.804Z</time></trkpt><trkpt lat="42.6614614" lon="13.7529916"><ele>321.0</ele><time>2026-04-26T06:07:33.804Z</time></trkpt><trkpt lat="42.6613943" lon="13.7528213"><ele>321.0</ele><time>2026-04-26T06:07:34.805Z</time></trkpt><trkpt lat="42.661354" lon="13.7526509"><ele>321.0</ele><time>2026-04-26T06:07:35.805Z</time></trkpt><trkpt lat="42.6613379" lon="13.7524767"><ele>321.0</ele><time>2026-04-26T06:07:36.804Z</time></trkpt><trkpt lat="42.6613473" lon="13.7523114"><ele>321.25</ele><time>2026-04-26T06:07:37.803Z</time></trkpt><trkpt lat="42.6613663" lon="13.7521567"><ele>321.5</ele><time>2026-04-26T06:07:38.804Z</time></trkpt><trkpt lat="42.6614102" lon="13.7520021"><ele>321.75</ele><time>2026-04-26T06:07:39.804Z</time></trkpt><trkpt lat="42.6614738" lon="13.7518323"><ele>322.0</ele><time>2026-04-26T06:07:40.803Z</time></trkpt><trkpt lat="42.6615346" lon="13.7516483"><ele>322.0</ele><time>2026-04-26T06:07:41.803Z</time></trkpt><trkpt lat="42.6615997" lon="13.7514585"><ele>322.0</ele><time>2026-04-26T06:07:42.803Z</time></trkpt><trkpt lat="42.6616542" lon="13.751272"><ele>322.0</ele><time>2026-04-26T06:07:43.804Z</time></trkpt><trkpt lat="42.6616883" lon="13.7510889"><ele>322.0</ele><time>2026-04-26T06:07:44.804Z</time></trkpt><trkpt lat="42.6616927" lon="13.7509139"><ele>322.0</ele><time>2026-04-26T06:07:45.803Z</time></trkpt><trkpt lat="42.6616782" lon="13.750737"><ele>322.0</ele><time>2026-04-26T06:07:46.804Z</time></trkpt><trkpt lat="42.6616492" lon="13.75056"><ele>322.0</ele><time>2026-04-26T06:07:47.804Z</time></trkpt><trkpt lat="42.6616256" lon="13.7503756"><ele>322.0</ele><time>2026-04-26T06:07:48.803Z</time></trkpt><trkpt lat="42.6616358" lon="13.7501783"><ele>322.0</ele><time>2026-04-26T06:07:49.804Z</time></trkpt><trkpt lat="42.6616718" lon="13.7499825"><ele>322.0</ele><time>2026-04-26T06:07:50.803Z</time></trkpt><trkpt lat="42.6617214" lon="13.7498054"><ele>322.0</ele><time>2026-04-26T06:07:51.803Z</time></trkpt><trkpt lat="42.6617779" lon="13.749648"><ele>322.0</ele><time>2026-04-26T06:07:52.804Z</time></trkpt><trkpt lat="42.6618187" lon="13.7495033"><ele>321.5</ele><time>2026-04-26T06:07:53.803Z</time></trkpt><trkpt lat="42.6618203" lon="13.749344"><ele>321.0</ele><time>2026-04-26T06:07:54.803Z</time></trkpt><trkpt lat="42.6617822" lon="13.7491723"><ele>320.5</ele><time>2026-04-26T06:07:55.803Z</time></trkpt><trkpt lat="42.6617167" lon="13.7489971"><ele>320.0</ele><time>2026-04-26T06:07:56.803Z</time></trkpt><trkpt lat="42.6616363" lon="13.7488165"><ele>320.0</ele><time>2026-04-26T06:07:57.804Z</time></trkpt><trkpt lat="42.6615544" lon="13.7486311"><ele>320.0</ele><time>2026-04-26T06:07:58.802Z</time></trkpt><trkpt lat="42.6614779" lon="13.7484397"><ele>320.0</ele><time>2026-04-26T06:07:59.803Z</time></trkpt><trkpt lat="42.661426" lon="13.7482203"><ele>321.6666666666667</ele><time>2026-04-26T06:08:00.804Z</time></trkpt><trkpt lat="42.6613926" lon="13.7479994"><ele>323.3333333333333</ele><time>2026-04-26T06:08:01.803Z</time></trkpt><trkpt lat="42.6613712" lon="13.7477861"><ele>325.0</ele><time>2026-04-26T06:08:02.803Z</time></trkpt><trkpt lat="42.6613389" lon="13.7475861"><ele>326.3333333333333</ele><time>2026-04-26T06:08:03.804Z</time></trkpt><trkpt lat="42.66128" lon="13.7473992"><ele>327.6666666666667</ele><time>2026-04-26T06:08:04.803Z</time></trkpt><trkpt lat="42.6611858" lon="13.74723"><ele>329.0</ele><time>2026-04-26T06:08:05.802Z</time></trkpt><trkpt lat="42.661063" lon="13.7470817"><ele>326.33333333333337</ele><time>2026-04-26T06:08:06.803Z</time></trkpt><trkpt lat="42.6609206" lon="13.7469516"><ele>323.6666666666667</ele><time>2026-04-26T06:08:07.803Z</time></trkpt><trkpt lat="42.6607734" lon="13.746821"><ele>321.0</ele><time>2026-04-26T06:08:08.803Z</time></trkpt><trkpt lat="42.6606488" lon="13.7466484"><ele>321.0</ele><time>2026-04-26T06:08:09.803Z</time></trkpt><trkpt lat="42.6605353" lon="13.7464427"><ele>321.0</ele><time>2026-04-26T06:08:10.804Z</time></trkpt><trkpt lat="42.6604445" lon="13.7462282"><ele>321.0</ele><time>2026-04-26T06:08:11.804Z</time></trkpt><trkpt lat="42.6603597" lon="13.746021"><ele>318.0</ele><time>2026-04-26T06:08:12.803Z</time></trkpt><trkpt lat="42.6602688" lon="13.7458334"><ele>315.0</ele><time>2026-04-26T06:08:13.803Z</time></trkpt><trkpt lat="42.6601837" lon="13.7456555"><ele>312.0</ele><time>2026-04-26T06:08:14.804Z</time></trkpt><trkpt lat="42.6601174" lon="13.7454804"><ele>312.0</ele><time>2026-04-26T06:08:15.803Z</time></trkpt><trkpt lat="42.6600837" lon="13.7452956"><ele>312.0</ele><time>2026-04-26T06:08:16.804Z</time></trkpt><trkpt lat="42.660086" lon="13.7451091"><ele>312.0</ele><time>2026-04-26T06:08:17.803Z</time></trkpt><trkpt lat="42.6601275" lon="13.7449265"><ele>312.0</ele><time>2026-04-26T06:08:18.804Z</time></trkpt><trkpt lat="42.6601831" lon="13.7447517"><ele>312.25</ele><time>2026-04-26T06:08:19.804Z</time></trkpt><trkpt lat="42.660225" lon="13.7445786"><ele>312.5</ele><time>2026-04-26T06:08:20.803Z</time></trkpt><trkpt lat="42.660245" lon="13.7443995"><ele>312.75</ele><time>2026-04-26T06:08:21.804Z</time></trkpt><trkpt lat="42.6602247" lon="13.7442031"><ele>313.0</ele><time>2026-04-26T06:08:22.802Z</time></trkpt><trkpt lat="42.6601625" lon="13.7440017"><ele>312.0</ele><time>2026-04-26T06:08:23.802Z</time></trkpt><trkpt lat="42.6600863" lon="13.7437958"><ele>311.0</ele><time>2026-04-26T06:08:24.803Z</time></trkpt><trkpt lat="42.660022" lon="13.7435678"><ele>310.0</ele><time>2026-04-26T06:08:25.803Z</time></trkpt><trkpt lat="42.6599616" lon="13.7433406"><ele>310.0</ele><time>2026-04-26T06:08:26.803Z</time></trkpt><trkpt lat="42.6598992" lon="13.7431305"><ele>310.0</ele><time>2026-04-26T06:08:27.804Z</time></trkpt><trkpt lat="42.6598141" lon="13.7429358"><ele>310.0</ele><time>2026-04-26T06:08:28.804Z</time></trkpt><trkpt lat="42.6596921" lon="13.7427655"><ele>309.0</ele><time>2026-04-26T06:08:29.803Z</time></trkpt><trkpt lat="42.6595517" lon="13.7426238"><ele>308.0</ele><time>2026-04-26T06:08:30.804Z</time></trkpt><trkpt lat="42.6594199" lon="13.7424851"><ele>307.0</ele><time>2026-04-26T06:08:31.802Z</time></trkpt><trkpt lat="42.6592976" lon="13.7423402"><ele>307.0</ele><time>2026-04-26T06:08:32.803Z</time></trkpt><trkpt lat="42.6591907" lon="13.7421809"><ele>307.0</ele><time>2026-04-26T06:08:33.803Z</time></trkpt><trkpt lat="42.6591113" lon="13.74201"><ele>307.0</ele><time>2026-04-26T06:08:34.802Z</time></trkpt><trkpt lat="42.6590577" lon="13.7418324"><ele>307.0</ele><time>2026-04-26T06:08:35.802Z</time></trkpt><trkpt lat="42.6590302" lon="13.74164"><ele>308.0</ele><time>2026-04-26T06:08:36.804Z</time></trkpt><trkpt lat="42.6590289" lon="13.7414352"><ele>309.0</ele><time>2026-04-26T06:08:37.803Z</time></trkpt><trkpt lat="42.6590441" lon="13.7412237"><ele>310.0</ele><time>2026-04-26T06:08:38.804Z</time></trkpt><trkpt lat="42.6590748" lon="13.7410153"><ele>310.0</ele><time>2026-04-26T06:08:39.804Z</time></trkpt><trkpt lat="42.6591324" lon="13.740807"><ele>310.0</ele><time>2026-04-26T06:08:40.803Z</time></trkpt><trkpt lat="42.659223" lon="13.7406064"><ele>310.0</ele><time>2026-04-26T06:08:41.803Z</time></trkpt><trkpt lat="42.6593415" lon="13.7404189"><ele>311.3333333333333</ele><time>2026-04-26T06:08:42.804Z</time></trkpt><trkpt lat="42.659479" lon="13.7402467"><ele>312.6666666666667</ele><time>2026-04-26T06:08:43.804Z</time></trkpt><trkpt lat="42.6596147" lon="13.7400635"><ele>314.0</ele><time>2026-04-26T06:08:44.803Z</time></trkpt><trkpt lat="42.6597439" lon="13.7398674"><ele>314.0</ele><time>2026-04-26T06:08:45.802Z</time></trkpt><trkpt lat="42.6598471" lon="13.7396442"><ele>314.0</ele><time>2026-04-26T06:08:46.804Z</time></trkpt><trkpt lat="42.6599378" lon="13.7394103"><ele>314.0</ele><time>2026-04-26T06:08:47.803Z</time></trkpt><trkpt lat="42.6600236" lon="13.739176"><ele>313.6666666666667</ele><time>2026-04-26T06:08:48.803Z</time></trkpt><trkpt lat="42.6600978" lon="13.7389526"><ele>313.3333333333333</ele><time>2026-04-26T06:08:49.803Z</time></trkpt><trkpt lat="42.6601643" lon="13.7387348"><ele>313.0</ele><time>2026-04-26T06:08:50.803Z</time></trkpt><trkpt lat="42.6602155" lon="13.7385203"><ele>313.0</ele><time>2026-04-26T06:08:51.802Z</time></trkpt><trkpt lat="42.6602332" lon="13.7383038"><ele>313.0</ele><time>2026-04-26T06:08:52.802Z</time></trkpt><trkpt lat="42.6602262" lon="13.7380935"><ele>313.0</ele><time>2026-04-26T06:08:53.803Z</time></trkpt><trkpt lat="42.6601907" lon="13.7378915"><ele>314.66666666666663</ele><time>2026-04-26T06:08:54.804Z</time></trkpt><trkpt lat="42.6601244" lon="13.7376945"><ele>316.3333333333333</ele><time>2026-04-26T06:08:55.803Z</time></trkpt><trkpt lat="42.6600265" lon="13.7375067"><ele>318.0</ele><time>2026-04-26T06:08:56.804Z</time></trkpt><trkpt lat="42.6599206" lon="13.7373298"><ele>318.0</ele><time>2026-04-26T06:08:57.802Z</time></trkpt><trkpt lat="42.6598165" lon="13.7371619"><ele>318.0</ele><time>2026-04-26T06:08:58.803Z</time></trkpt><trkpt lat="42.6597095" lon="13.7370056"><ele>318.0</ele><time>2026-04-26T06:08:59.804Z</time></trkpt><trkpt lat="42.6596023" lon="13.7368605"><ele>320.5</ele><time>2026-04-26T06:09:00.802Z</time></trkpt><trkpt lat="42.6595" lon="13.7367147"><ele>323.0</ele><time>2026-04-26T06:09:01.802Z</time></trkpt><trkpt lat="42.6594127" lon="13.7365621"><ele>325.5</ele><time>2026-04-26T06:09:02.803Z</time></trkpt><trkpt lat="42.6593458" lon="13.736392"><ele>328.0</ele><time>2026-04-26T06:09:03.804Z</time></trkpt><trkpt lat="42.6592932" lon="13.7362256"><ele>328.0</ele><time>2026-04-26T06:09:04.803Z</time></trkpt><trkpt lat="42.6592518" lon="13.736071"><ele>328.0</ele><time>2026-04-26T06:09:05.803Z</time></trkpt><trkpt lat="42.6591905" lon="13.7359308"><ele>328.0</ele><time>2026-04-26T06:09:06.803Z</time></trkpt><trkpt lat="42.6591017" lon="13.7357988"><ele>328.0</ele><time>2026-04-26T06:09:07.803Z</time></trkpt><trkpt lat="42.6589884" lon="13.7356876"><ele>326.5</ele><time>2026-04-26T06:09:08.802Z</time></trkpt><trkpt lat="42.6588853" lon="13.7355893"><ele>325.0</ele><time>2026-04-26T06:09:09.803Z</time></trkpt><trkpt lat="42.6587944" lon="13.7354782"><ele>323.5</ele><time>2026-04-26T06:09:10.802Z</time></trkpt><trkpt lat="42.6587121" lon="13.7353514"><ele>322.0</ele><time>2026-04-26T06:09:11.803Z</time></trkpt><trkpt lat="42.6586515" lon="13.735214"><ele>324.75</ele><time>2026-04-26T06:09:12.803Z</time></trkpt><trkpt lat="42.6586132" lon="13.735062"><ele>327.5</ele><time>2026-04-26T06:09:13.802Z</time></trkpt><trkpt lat="42.6585952" lon="13.7348908"><ele>330.25</ele><time>2026-04-26T06:09:14.804Z</time></trkpt><trkpt lat="42.6585942" lon="13.7347016"><ele>333.0</ele><time>2026-04-26T06:09:15.802Z</time></trkpt><trkpt lat="42.658609" lon="13.7345338"><ele>333.5</ele><time>2026-04-26T06:09:16.803Z</time></trkpt><trkpt lat="42.6586186" lon="13.7343775"><ele>334.0</ele><time>2026-04-26T06:09:17.803Z</time></trkpt><trkpt lat="42.6586188" lon="13.7342275"><ele>334.5</ele><time>2026-04-26T06:09:18.803Z</time></trkpt><trkpt lat="42.6585959" lon="13.7340884"><ele>335.0</ele><time>2026-04-26T06:09:19.803Z</time></trkpt><trkpt lat="42.6585301" lon="13.7339507"><ele>335.0</ele><time>2026-04-26T06:09:20.804Z</time></trkpt><trkpt lat="42.6584292" lon="13.733825"><ele>335.0</ele><time>2026-04-26T06:09:21.802Z</time></trkpt><trkpt lat="42.658315" lon="13.7336962"><ele>335.0</ele><time>2026-04-26T06:09:22.803Z</time></trkpt><trkpt lat="42.6581905" lon="13.733541"><ele>331.6666666666667</ele><time>2026-04-26T06:09:23.804Z</time></trkpt><trkpt lat="42.6580816" lon="13.7333706"><ele>328.3333333333333</ele><time>2026-04-26T06:09:24.803Z</time></trkpt><trkpt lat="42.6579908" lon="13.7332008"><ele>325.0</ele><time>2026-04-26T06:09:25.803Z</time></trkpt><trkpt lat="42.6578943" lon="13.7330502"><ele>325.0</ele><time>2026-04-26T06:09:26.803Z</time></trkpt><trkpt lat="42.6577953" lon="13.7329162"><ele>325.0</ele><time>2026-04-26T06:09:27.803Z</time></trkpt><trkpt lat="42.6576945" lon="13.7327952"><ele>325.0</ele><time>2026-04-26T06:09:28.803Z</time></trkpt><trkpt lat="42.6575849" lon="13.7327075"><ele>325.0</ele><time>2026-04-26T06:09:29.804Z</time></trkpt><trkpt lat="42.6574616" lon="13.7326607"><ele>326.5</ele><time>2026-04-26T06:09:30.802Z</time></trkpt><trkpt lat="42.6573361" lon="13.7326606"><ele>328.0</ele><time>2026-04-26T06:09:31.802Z</time></trkpt><trkpt lat="42.6572112" lon="13.7327151"><ele>329.5</ele><time>2026-04-26T06:09:32.803Z</time></trkpt><trkpt lat="42.6570979" lon="13.7327665"><ele>331.0</ele><time>2026-04-26T06:09:33.804Z</time></trkpt><trkpt lat="42.656981" lon="13.7327839"><ele>333.75</ele><time>2026-04-26T06:09:34.803Z</time></trkpt><trkpt lat="42.6568606" lon="13.7327704"><ele>336.5</ele><time>2026-04-26T06:09:35.803Z</time></trkpt><trkpt lat="42.6567345" lon="13.7327065"><ele>339.25</ele><time>2026-04-26T06:09:36.804Z</time></trkpt><trkpt lat="42.6566084" lon="13.7326124"><ele>342.0</ele><time>2026-04-26T06:09:37.804Z</time></trkpt><trkpt lat="42.6564786" lon="13.7325005"><ele>342.0</ele><time>2026-04-26T06:09:38.804Z</time></trkpt><trkpt lat="42.6563423" lon="13.7323806"><ele>342.0</ele><time>2026-04-26T06:09:39.804Z</time></trkpt><trkpt lat="42.6562146" lon="13.732247"><ele>342.0</ele><time>2026-04-26T06:09:40.802Z</time></trkpt><trkpt lat="42.6560904" lon="13.7320922"><ele>343.3333333333333</ele><time>2026-04-26T06:09:41.802Z</time></trkpt><trkpt lat="42.6559758" lon="13.731916"><ele>344.66666666666663</ele><time>2026-04-26T06:09:42.804Z</time></trkpt><trkpt lat="42.6558675" lon="13.7317289"><ele>346.0</ele><time>2026-04-26T06:09:43.803Z</time></trkpt><trkpt lat="42.6557541" lon="13.7315273"><ele>346.0</ele><time>2026-04-26T06:09:44.802Z</time></trkpt><trkpt lat="42.6556455" lon="13.7313159"><ele>346.0</ele><time>2026-04-26T06:09:45.804Z</time></trkpt><trkpt lat="42.6555413" lon="13.7311246"><ele>346.0</ele><time>2026-04-26T06:09:46.804Z</time></trkpt><trkpt lat="42.6554458" lon="13.7309448"><ele>344.25</ele><time>2026-04-26T06:09:47.804Z</time></trkpt><trkpt lat="42.6553622" lon="13.7307695"><ele>342.5</ele><time>2026-04-26T06:09:48.803Z</time></trkpt><trkpt lat="42.6552873" lon="13.7306055"><ele>340.75</ele><time>2026-04-26T06:09:49.803Z</time></trkpt><trkpt lat="42.655215" lon="13.7304435"><ele>339.0</ele><time>2026-04-26T06:09:50.803Z</time></trkpt><trkpt lat="42.6551511" lon="13.7302698"><ele>343.3333333333333</ele><time>2026-04-26T06:09:51.804Z</time></trkpt><trkpt lat="42.6550775" lon="13.7300895"><ele>347.66666666666663</ele><time>2026-04-26T06:09:52.803Z</time></trkpt><trkpt lat="42.6549821" lon="13.7299211"><ele>352.0</ele><time>2026-04-26T06:09:53.803Z</time></trkpt><trkpt lat="42.6548527" lon="13.7297518"><ele>352.0</ele><time>2026-04-26T06:09:54.803Z</time></trkpt><trkpt lat="42.6547056" lon="13.7296009"><ele>352.0</ele><time>2026-04-26T06:09:55.804Z</time></trkpt><trkpt lat="42.6545605" lon="13.7294742"><ele>352.0</ele><time>2026-04-26T06:09:56.803Z</time></trkpt><trkpt lat="42.6544203" lon="13.7293647"><ele>352.75</ele><time>2026-04-26T06:09:57.803Z</time></trkpt><trkpt lat="42.6542939" lon="13.7292632"><ele>353.5</ele><time>2026-04-26T06:09:58.803Z</time></trkpt><trkpt lat="42.6541739" lon="13.7291678"><ele>354.25</ele><time>2026-04-26T06:09:59.803Z</time></trkpt><trkpt lat="42.6540677" lon="13.729072"><ele>355.0</ele><time>2026-04-26T06:10:00.803Z</time></trkpt><trkpt lat="42.6539758" lon="13.7289774"><ele>355.0</ele><time>2026-04-26T06:10:01.802Z</time></trkpt><trkpt lat="42.6539024" lon="13.7288906"><ele>355.0</ele><time>2026-04-26T06:10:02.802Z</time></trkpt><trkpt lat="42.6538443" lon="13.7288059"><ele>355.0</ele><time>2026-04-26T06:10:03.803Z</time></trkpt><trkpt lat="42.6537903" lon="13.7287305"><ele>355.0</ele><time>2026-04-26T06:10:04.804Z</time></trkpt><trkpt lat="42.6537421" lon="13.7286602"><ele>355.0</ele><time>2026-04-26T06:10:05.803Z</time></trkpt><trkpt lat="42.6536934" lon="13.7285738"><ele>355.0</ele><time>2026-04-26T06:10:06.803Z</time></trkpt><trkpt lat="42.6536318" lon="13.7284543"><ele>354.0</ele><time>2026-04-26T06:10:07.804Z</time></trkpt><trkpt lat="42.6535648" lon="13.7283132"><ele>353.0</ele><time>2026-04-26T06:10:08.803Z</time></trkpt><trkpt lat="42.6534952" lon="13.7281535"><ele>352.0</ele><time>2026-04-26T06:10:09.804Z</time></trkpt><trkpt lat="42.6534256" lon="13.7279888"><ele>351.0</ele><time>2026-04-26T06:10:10.804Z</time></trkpt><trkpt lat="42.6533566" lon="13.7278321"><ele>351.75</ele><time>2026-04-26T06:10:11.804Z</time></trkpt><trkpt lat="42.6532842" lon="13.7276819"><ele>352.5</ele><time>2026-04-26T06:10:12.803Z</time></trkpt><trkpt lat="42.6532001" lon="13.7275336"><ele>353.25</ele><time>2026-04-26T06:10:13.804Z</time></trkpt><trkpt lat="42.6531041" lon="13.7273962"><ele>354.0</ele><time>2026-04-26T06:10:14.804Z</time></trkpt><trkpt lat="42.653007" lon="13.7272532"><ele>354.0</ele><time>2026-04-26T06:10:15.804Z</time></trkpt><trkpt lat="42.6529097" lon="13.7271069"><ele>354.0</ele><time>2026-04-26T06:10:16.803Z</time></trkpt><trkpt lat="42.6528176" lon="13.7269579"><ele>354.0</ele><time>2026-04-26T06:10:17.804Z</time></trkpt><trkpt lat="42.652737" lon="13.7267984"><ele>354.0</ele><time>2026-04-26T06:10:18.804Z</time></trkpt><trkpt lat="42.6526635" lon="13.7266375"><ele>352.75</ele><time>2026-04-26T06:10:19.802Z</time></trkpt><trkpt lat="42.6525993" lon="13.726468"><ele>351.5</ele><time>2026-04-26T06:10:20.803Z</time></trkpt><trkpt lat="42.6525369" lon="13.7262952"><ele>350.25</ele><time>2026-04-26T06:10:21.802Z</time></trkpt><trkpt lat="42.652476" lon="13.7261196"><ele>349.0</ele><time>2026-04-26T06:10:22.803Z</time></trkpt><trkpt lat="42.6524147" lon="13.7259455"><ele>349.0</ele><time>2026-04-26T06:10:23.803Z</time></trkpt><trkpt lat="42.6523538" lon="13.7257714"><ele>349.0</ele><time>2026-04-26T06:10:24.803Z</time></trkpt><trkpt lat="42.6522927" lon="13.7255939"><ele>349.0</ele><time>2026-04-26T06:10:25.803Z</time></trkpt><trkpt lat="42.6522278" lon="13.725415"><ele>349.0</ele><time>2026-04-26T06:10:26.803Z</time></trkpt><trkpt lat="42.6521614" lon="13.725237"><ele>347.3333333333333</ele><time>2026-04-26T06:10:27.804Z</time></trkpt><trkpt lat="42.6520902" lon="13.7250603"><ele>345.6666666666667</ele><time>2026-04-26T06:10:28.803Z</time></trkpt><trkpt lat="42.6520143" lon="13.7248824"><ele>344.0</ele><time>2026-04-26T06:10:29.803Z</time></trkpt><trkpt lat="42.6519321" lon="13.7247035"><ele>343.33333333333337</ele><time>2026-04-26T06:10:30.803Z</time></trkpt><trkpt lat="42.6518461" lon="13.7245277"><ele>342.6666666666667</ele><time>2026-04-26T06:10:31.802Z</time></trkpt><trkpt lat="42.6517625" lon="13.7243461"><ele>342.0</ele><time>2026-04-26T06:10:32.804Z</time></trkpt><trkpt lat="42.6516734" lon="13.7241624"><ele>342.0</ele><time>2026-04-26T06:10:33.803Z</time></trkpt><trkpt lat="42.6515748" lon="13.7239754"><ele>342.0</ele><time>2026-04-26T06:10:34.804Z</time></trkpt><trkpt lat="42.6514587" lon="13.7237887"><ele>342.0</ele><time>2026-04-26T06:10:35.802Z</time></trkpt><trkpt lat="42.6513115" lon="13.7236146"><ele>340.6666666666667</ele><time>2026-04-26T06:10:36.803Z</time></trkpt><trkpt lat="42.6511499" lon="13.7234556"><ele>339.33333333333337</ele><time>2026-04-26T06:10:37.802Z</time></trkpt><trkpt lat="42.6509912" lon="13.7232903"><ele>338.0</ele><time>2026-04-26T06:10:38.803Z</time></trkpt><trkpt lat="42.6508466" lon="13.7230942"><ele>337.6666666666667</ele><time>2026-04-26T06:10:39.803Z</time></trkpt><trkpt lat="42.6507261" lon="13.7228727"><ele>337.3333333333333</ele><time>2026-04-26T06:10:40.803Z</time></trkpt><trkpt lat="42.650622" lon="13.7226349"><ele>337.0</ele><time>2026-04-26T06:10:41.803Z</time></trkpt><trkpt lat="42.6505358" lon="13.7224032"><ele>337.0</ele><time>2026-04-26T06:10:42.803Z</time></trkpt><trkpt lat="42.6504554" lon="13.72217"><ele>337.0</ele><time>2026-04-26T06:10:43.802Z</time></trkpt><trkpt lat="42.6503717" lon="13.7219424"><ele>337.0</ele><time>2026-04-26T06:10:44.803Z</time></trkpt><trkpt lat="42.6502885" lon="13.7217261"><ele>338.0</ele><time>2026-04-26T06:10:45.803Z</time></trkpt><trkpt lat="42.6502049" lon="13.7215169"><ele>339.0</ele><time>2026-04-26T06:10:46.803Z</time></trkpt><trkpt lat="42.6501209" lon="13.721317"><ele>340.0</ele><time>2026-04-26T06:10:47.804Z</time></trkpt><trkpt lat="42.6500386" lon="13.7211258"><ele>339.3333333333333</ele><time>2026-04-26T06:10:48.803Z</time></trkpt><trkpt lat="42.649962" lon="13.7209414"><ele>338.6666666666667</ele><time>2026-04-26T06:10:49.803Z</time></trkpt><trkpt lat="42.6498907" lon="13.7207595"><ele>338.0</ele><time>2026-04-26T06:10:50.803Z</time></trkpt><trkpt lat="42.649828" lon="13.7205685"><ele>338.0</ele><time>2026-04-26T06:10:51.803Z</time></trkpt><trkpt lat="42.6497868" lon="13.7203765"><ele>338.0</ele><time>2026-04-26T06:10:52.803Z</time></trkpt><trkpt lat="42.6497685" lon="13.7201883"><ele>338.0</ele><time>2026-04-26T06:10:53.803Z</time></trkpt><trkpt lat="42.649769" lon="13.7199931"><ele>338.0</ele><time>2026-04-26T06:10:54.804Z</time></trkpt><trkpt lat="42.6498018" lon="13.7197938"><ele>337.0</ele><time>2026-04-26T06:10:55.802Z</time></trkpt><trkpt lat="42.6498353" lon="13.7195843"><ele>336.0</ele><time>2026-04-26T06:10:56.804Z</time></trkpt><trkpt lat="42.6498762" lon="13.7193662"><ele>335.0</ele><time>2026-04-26T06:10:57.802Z</time></trkpt><trkpt lat="42.6499234" lon="13.7191511"><ele>335.0</ele><time>2026-04-26T06:10:58.804Z</time></trkpt><trkpt lat="42.6499741" lon="13.7189437"><ele>335.0</ele><time>2026-04-26T06:10:59.803Z</time></trkpt><trkpt lat="42.6500246" lon="13.7187367"><ele>335.0</ele><time>2026-04-26T06:11:00.802Z</time></trkpt><trkpt lat="42.6500698" lon="13.7185452"><ele>337.0</ele><time>2026-04-26T06:11:01.803Z</time></trkpt><trkpt lat="42.6501107" lon="13.7183619"><ele>339.0</ele><time>2026-04-26T06:11:02.803Z</time></trkpt><trkpt lat="42.6501529" lon="13.7181841"><ele>341.0</ele><time>2026-04-26T06:11:03.803Z</time></trkpt><trkpt lat="42.6501925" lon="13.7180087"><ele>343.0</ele><time>2026-04-26T06:11:04.803Z</time></trkpt><trkpt lat="42.6502244" lon="13.7178279"><ele>343.25</ele><time>2026-04-26T06:11:05.803Z</time></trkpt><trkpt lat="42.650241" lon="13.717644"><ele>343.5</ele><time>2026-04-26T06:11:06.803Z</time></trkpt><trkpt lat="42.6502546" lon="13.7174517"><ele>343.75</ele><time>2026-04-26T06:11:07.803Z</time></trkpt><trkpt lat="42.6502681" lon="13.7172631"><ele>344.0</ele><time>2026-04-26T06:11:08.804Z</time></trkpt><trkpt lat="42.6502783" lon="13.7170751"><ele>344.5</ele><time>2026-04-26T06:11:09.804Z</time></trkpt><trkpt lat="42.6502865" lon="13.7168912"><ele>345.0</ele><time>2026-04-26T06:11:10.804Z</time></trkpt><trkpt lat="42.650294" lon="13.7167156"><ele>345.5</ele><time>2026-04-26T06:11:11.804Z</time></trkpt><trkpt lat="42.6502928" lon="13.7165509"><ele>346.0</ele><time>2026-04-26T06:11:12.802Z</time></trkpt><trkpt lat="42.6502677" lon="13.7163856"><ele>346.0</ele><time>2026-04-26T06:11:13.803Z</time></trkpt><trkpt lat="42.6502174" lon="13.7162317"><ele>346.0</ele><time>2026-04-26T06:11:14.803Z</time></trkpt><trkpt lat="42.6501471" lon="13.7160852"><ele>346.0</ele><time>2026-04-26T06:11:15.802Z</time></trkpt><trkpt lat="42.6500729" lon="13.7159346"><ele>346.0</ele><time>2026-04-26T06:11:16.803Z</time></trkpt><trkpt lat="42.6500071" lon="13.7157761"><ele>345.25</ele><time>2026-04-26T06:11:17.804Z</time></trkpt><trkpt lat="42.6499556" lon="13.7156077"><ele>344.5</ele><time>2026-04-26T06:11:18.804Z</time></trkpt><trkpt lat="42.6499249" lon="13.7154158"><ele>343.75</ele><time>2026-04-26T06:11:19.804Z</time></trkpt><trkpt lat="42.6499118" lon="13.7152117"><ele>343.0</ele><time>2026-04-26T06:11:20.802Z</time></trkpt><trkpt lat="42.6499005" lon="13.7150107"><ele>342.0</ele><time>2026-04-26T06:11:21.803Z</time></trkpt><trkpt lat="42.6498895" lon="13.7148111"><ele>341.0</ele><time>2026-04-26T06:11:22.802Z</time></trkpt><trkpt lat="42.6498505" lon="13.7146284"><ele>340.0</ele><time>2026-04-26T06:11:23.802Z</time></trkpt><trkpt lat="42.6497724" lon="13.7144594"><ele>339.0</ele><time>2026-04-26T06:11:24.804Z</time></trkpt><trkpt lat="42.6496821" lon="13.7142878"><ele>336.3333333333333</ele><time>2026-04-26T06:11:25.803Z</time></trkpt><trkpt lat="42.649592" lon="13.7141031"><ele>333.66666666666663</ele><time>2026-04-26T06:11:26.802Z</time></trkpt><trkpt lat="42.6495076" lon="13.7139106"><ele>331.0</ele><time>2026-04-26T06:11:27.804Z</time></trkpt><trkpt lat="42.6494267" lon="13.7137299"><ele>332.5</ele><time>2026-04-26T06:11:28.803Z</time></trkpt><trkpt lat="42.6493422" lon="13.7135743"><ele>334.0</ele><time>2026-04-26T06:11:29.802Z</time></trkpt><trkpt lat="42.6492238" lon="13.71345"><ele>335.5</ele><time>2026-04-26T06:11:30.802Z</time></trkpt><trkpt lat="42.6490868" lon="13.713359"><ele>337.0</ele><time>2026-04-26T06:11:31.803Z</time></trkpt><trkpt lat="42.6489498" lon="13.7132751"><ele>337.0</ele><time>2026-04-26T06:11:32.804Z</time></trkpt><trkpt lat="42.648826" lon="13.7131763"><ele>337.0</ele><time>2026-04-26T06:11:33.804Z</time></trkpt><trkpt lat="42.648711" lon="13.7130596"><ele>337.0</ele><time>2026-04-26T06:11:34.803Z</time></trkpt><trkpt lat="42.6486175" lon="13.7129112"><ele>337.0</ele><time>2026-04-26T06:11:35.804Z</time></trkpt><trkpt lat="42.6485502" lon="13.7127318"><ele>341.66666666666663</ele><time>2026-04-26T06:11:36.804Z</time></trkpt><trkpt lat="42.6485144" lon="13.7125342"><ele>346.3333333333333</ele><time>2026-04-26T06:11:37.803Z</time></trkpt><trkpt lat="42.6485144" lon="13.7123289"><ele>351.0</ele><time>2026-04-26T06:11:38.804Z</time></trkpt><trkpt lat="42.6485451" lon="13.7121083"><ele>352.0</ele><time>2026-04-26T06:11:39.804Z</time></trkpt><trkpt lat="42.648584" lon="13.7118707"><ele>353.0</ele><time>2026-04-26T06:11:40.803Z</time></trkpt><trkpt lat="42.6486236" lon="13.7116212"><ele>354.0</ele><time>2026-04-26T06:11:41.803Z</time></trkpt><trkpt lat="42.6486677" lon="13.7113641"><ele>346.0</ele><time>2026-04-26T06:11:42.803Z</time></trkpt><trkpt lat="42.6487139" lon="13.711108"><ele>338.0</ele><time>2026-04-26T06:11:43.802Z</time></trkpt><trkpt lat="42.6487635" lon="13.7108557"><ele>330.0</ele><time>2026-04-26T06:11:44.802Z</time></trkpt><trkpt lat="42.6488291" lon="13.7106141"><ele>330.0</ele><time>2026-04-26T06:11:45.802Z</time></trkpt><trkpt lat="42.6489143" lon="13.7103864"><ele>330.0</ele><time>2026-04-26T06:11:46.802Z</time></trkpt><trkpt lat="42.6490202" lon="13.7101777"><ele>330.0</ele><time>2026-04-26T06:11:47.803Z</time></trkpt><trkpt lat="42.6491463" lon="13.7099891"><ele>333.0</ele><time>2026-04-26T06:11:48.802Z</time></trkpt><trkpt lat="42.6492862" lon="13.7098148"><ele>336.0</ele><time>2026-04-26T06:11:49.802Z</time></trkpt><trkpt lat="42.6494231" lon="13.709636"><ele>339.0</ele><time>2026-04-26T06:11:50.801Z</time></trkpt><trkpt lat="42.6495503" lon="13.7094312"><ele>335.0</ele><time>2026-04-26T06:11:51.802Z</time></trkpt><trkpt lat="42.6496598" lon="13.7092055"><ele>331.0</ele><time>2026-04-26T06:11:52.803Z</time></trkpt><trkpt lat="42.6497612" lon="13.7089621"><ele>327.0</ele><time>2026-04-26T06:11:53.802Z</time></trkpt><trkpt lat="42.6498533" lon="13.7087211"><ele>328.0</ele><time>2026-04-26T06:11:54.803Z</time></trkpt><trkpt lat="42.6499387" lon="13.7084855"><ele>329.0</ele><time>2026-04-26T06:11:55.803Z</time></trkpt><trkpt lat="42.6500298" lon="13.708257"><ele>330.0</ele><time>2026-04-26T06:11:56.803Z</time></trkpt><trkpt lat="42.6501117" lon="13.7080387"><ele>330.0</ele><time>2026-04-26T06:11:57.802Z</time></trkpt><trkpt lat="42.6501833" lon="13.7078344"><ele>330.0</ele><time>2026-04-26T06:11:58.802Z</time></trkpt><trkpt lat="42.6502527" lon="13.7076162"><ele>330.0</ele><time>2026-04-26T06:11:59.802Z</time></trkpt><trkpt lat="42.6502906" lon="13.7073758"><ele>323.0</ele><time>2026-04-26T06:12:00.803Z</time></trkpt><trkpt lat="42.6503033" lon="13.7071285"><ele>316.0</ele><time>2026-04-26T06:12:01.802Z</time></trkpt><trkpt lat="42.6503047" lon="13.7068718"><ele>309.0</ele><time>2026-04-26T06:12:02.802Z</time></trkpt><trkpt lat="42.6503222" lon="13.7066073"><ele>309.0</ele><time>2026-04-26T06:12:03.803Z</time></trkpt><trkpt lat="42.6503502" lon="13.7063447"><ele>309.0</ele><time>2026-04-26T06:12:04.803Z</time></trkpt><trkpt lat="42.6503911" lon="13.7061113"><ele>309.0</ele><time>2026-04-26T06:12:05.801Z</time></trkpt><trkpt lat="42.6504251" lon="13.7058641"><ele>309.3333333333333</ele><time>2026-04-26T06:12:06.801Z</time></trkpt><trkpt lat="42.6504688" lon="13.7056318"><ele>309.66666666666663</ele><time>2026-04-26T06:12:07.803Z</time></trkpt><trkpt lat="42.6505287" lon="13.7054085"><ele>310.0</ele><time>2026-04-26T06:12:08.803Z</time></trkpt><trkpt lat="42.6505909" lon="13.7051972"><ele>311.66666666666663</ele><time>2026-04-26T06:12:09.803Z</time></trkpt><trkpt lat="42.6506592" lon="13.7049958"><ele>313.3333333333333</ele><time>2026-04-26T06:12:10.802Z</time></trkpt><trkpt lat="42.6507286" lon="13.7047988"><ele>315.0</ele><time>2026-04-26T06:12:11.802Z</time></trkpt><trkpt lat="42.6508008" lon="13.7046057"><ele>315.0</ele><time>2026-04-26T06:12:12.803Z</time></trkpt><trkpt lat="42.6508662" lon="13.7044187"><ele>315.0</ele><time>2026-04-26T06:12:13.802Z</time></trkpt><trkpt lat="42.6509255" lon="13.7042379"><ele>315.0</ele><time>2026-04-26T06:12:14.803Z</time></trkpt><trkpt lat="42.6509799" lon="13.7040673"><ele>315.0</ele><time>2026-04-26T06:12:15.802Z</time></trkpt><trkpt lat="42.6510272" lon="13.7039072"><ele>315.5</ele><time>2026-04-26T06:12:16.801Z</time></trkpt><trkpt lat="42.6510691" lon="13.70376"><ele>316.0</ele><time>2026-04-26T06:12:17.802Z</time></trkpt><trkpt lat="42.6511066" lon="13.7036318"><ele>316.5</ele><time>2026-04-26T06:12:18.802Z</time></trkpt><trkpt lat="42.6511385" lon="13.7035251"><ele>317.0</ele><time>2026-04-26T06:12:19.803Z</time></trkpt><trkpt lat="42.6511807" lon="13.703446"><ele>317.5</ele><time>2026-04-26T06:12:20.802Z</time></trkpt><trkpt lat="42.6512389" lon="13.703411"><ele>318.0</ele><time>2026-04-26T06:12:21.802Z</time></trkpt><trkpt lat="42.6513016" lon="13.7034314"><ele>314.0</ele><time>2026-04-26T06:12:22.801Z</time></trkpt><trkpt lat="42.6513598" lon="13.7035057"><ele>310.0</ele><time>2026-04-26T06:12:23.801Z</time></trkpt><trkpt lat="42.6514142" lon="13.7036304"><ele>306.0</ele><time>2026-04-26T06:12:24.802Z</time></trkpt><trkpt lat="42.6514675" lon="13.7037856"><ele>302.0</ele><time>2026-04-26T06:12:25.802Z</time></trkpt><trkpt lat="42.6515373" lon="13.7039571"><ele>302.0</ele><time>2026-04-26T06:12:26.802Z</time></trkpt><trkpt lat="42.6516288" lon="13.7041116"><ele>302.0</ele><time>2026-04-26T06:12:27.801Z</time></trkpt><trkpt lat="42.651723" lon="13.7042467"><ele>302.0</ele><time>2026-04-26T06:12:28.802Z</time></trkpt><trkpt lat="42.6518213" lon="13.7043723"><ele>302.0</ele><time>2026-04-26T06:12:29.802Z</time></trkpt><trkpt lat="42.6519169" lon="13.7044955"><ele>299.0</ele><time>2026-04-26T06:12:30.802Z</time></trkpt><trkpt lat="42.6520066" lon="13.7046201"><ele>296.0</ele><time>2026-04-26T06:12:31.802Z</time></trkpt><trkpt lat="42.6520869" lon="13.7047294"><ele>293.0</ele><time>2026-04-26T06:12:32.803Z</time></trkpt><trkpt lat="42.6521784" lon="13.7048063"><ele>290.0</ele><time>2026-04-26T06:12:33.803Z</time></trkpt><trkpt lat="42.6522775" lon="13.7048499"><ele>290.0</ele><time>2026-04-26T06:12:34.803Z</time></trkpt><trkpt lat="42.6523737" lon="13.7048524"><ele>290.0</ele><time>2026-04-26T06:12:35.801Z</time></trkpt><trkpt lat="42.6524622" lon="13.7047979"><ele>290.0</ele><time>2026-04-26T06:12:36.803Z</time></trkpt><trkpt lat="42.6525326" lon="13.7046974"><ele>290.0</ele><time>2026-04-26T06:12:37.803Z</time></trkpt><trkpt lat="42.6525744" lon="13.7045573"><ele>290.0</ele><time>2026-04-26T06:12:38.802Z</time></trkpt><trkpt lat="42.6525729" lon="13.7044"><ele>289.75</ele><time>2026-04-26T06:12:39.802Z</time></trkpt><trkpt lat="42.6525293" lon="13.7042303"><ele>289.5</ele><time>2026-04-26T06:12:40.802Z</time></trkpt><trkpt lat="42.6524563" lon="13.7040581"><ele>289.25</ele><time>2026-04-26T06:12:41.803Z</time></trkpt><trkpt lat="42.6523681" lon="13.7038855"><ele>289.0</ele><time>2026-04-26T06:12:42.802Z</time></trkpt><trkpt lat="42.6522809" lon="13.7037209"><ele>286.75</ele><time>2026-04-26T06:12:43.803Z</time></trkpt><trkpt lat="42.6521935" lon="13.7035673"><ele>284.5</ele><time>2026-04-26T06:12:44.803Z</time></trkpt><trkpt lat="42.6521074" lon="13.7034203"><ele>282.25</ele><time>2026-04-26T06:12:45.801Z</time></trkpt><trkpt lat="42.6520367" lon="13.7032671"><ele>280.0</ele><time>2026-04-26T06:12:46.801Z</time></trkpt><trkpt lat="42.6519928" lon="13.7031087"><ele>280.0</ele><time>2026-04-26T06:12:47.801Z</time></trkpt><trkpt lat="42.6519841" lon="13.7029492"><ele>280.0</ele><time>2026-04-26T06:12:48.802Z</time></trkpt><trkpt lat="42.6520049" lon="13.7028024"><ele>280.0</ele><time>2026-04-26T06:12:49.802Z</time></trkpt><trkpt lat="42.6520611" lon="13.7026682"><ele>280.0</ele><time>2026-04-26T06:12:50.803Z</time></trkpt><trkpt lat="42.6521486" lon="13.7025635"><ele>281.0</ele><time>2026-04-26T06:12:51.802Z</time></trkpt><trkpt lat="42.6522687" lon="13.7024953"><ele>282.0</ele><time>2026-04-26T06:12:52.802Z</time></trkpt><trkpt lat="42.6524095" lon="13.7024494"><ele>283.0</ele><time>2026-04-26T06:12:53.801Z</time></trkpt><trkpt lat="42.6525608" lon="13.7023959"><ele>284.0</ele><time>2026-04-26T06:12:54.802Z</time></trkpt><trkpt lat="42.6526967" lon="13.7023021"><ele>278.33333333333337</ele><time>2026-04-26T06:12:55.802Z</time></trkpt><trkpt lat="42.6528109" lon="13.7021737"><ele>272.6666666666667</ele><time>2026-04-26T06:12:56.802Z</time></trkpt><trkpt lat="42.652912" lon="13.7020056"><ele>267.0</ele><time>2026-04-26T06:12:57.802Z</time></trkpt><trkpt lat="42.6530016" lon="13.7018168"><ele>267.0</ele><time>2026-04-26T06:12:58.802Z</time></trkpt><trkpt lat="42.6530823" lon="13.7016085"><ele>267.0</ele><time>2026-04-26T06:12:59.803Z</time></trkpt><trkpt lat="42.6531638" lon="13.7014058"><ele>267.0</ele><time>2026-04-26T06:13:00.803Z</time></trkpt><trkpt lat="42.6532429" lon="13.7012041"><ele>269.3333333333333</ele><time>2026-04-26T06:13:01.803Z</time></trkpt><trkpt lat="42.653304" lon="13.7010004"><ele>271.66666666666663</ele><time>2026-04-26T06:13:02.802Z</time></trkpt><trkpt lat="42.6533721" lon="13.7007984"><ele>274.0</ele><time>2026-04-26T06:13:03.802Z</time></trkpt><trkpt lat="42.6534677" lon="13.7006127"><ele>274.0</ele><time>2026-04-26T06:13:04.801Z</time></trkpt><trkpt lat="42.6535889" lon="13.7004473"><ele>274.0</ele><time>2026-04-26T06:13:05.802Z</time></trkpt><trkpt lat="42.6537279" lon="13.7003169"><ele>274.0</ele><time>2026-04-26T06:13:06.802Z</time></trkpt><trkpt lat="42.6538646" lon="13.700189"><ele>270.0</ele><time>2026-04-26T06:13:07.802Z</time></trkpt><trkpt lat="42.6540015" lon="13.7000559"><ele>266.0</ele><time>2026-04-26T06:13:08.802Z</time></trkpt><trkpt lat="42.6541301" lon="13.6999108"><ele>262.0</ele><time>2026-04-26T06:13:09.802Z</time></trkpt><trkpt lat="42.6542444" lon="13.6997491"><ele>262.0</ele><time>2026-04-26T06:13:10.802Z</time></trkpt><trkpt lat="42.6543445" lon="13.6995633"><ele>262.0</ele><time>2026-04-26T06:13:11.803Z</time></trkpt><trkpt lat="42.6544275" lon="13.6993653"><ele>262.0</ele><time>2026-04-26T06:13:12.803Z</time></trkpt><trkpt lat="42.654499" lon="13.699162"><ele>257.3333333333333</ele><time>2026-04-26T06:13:13.802Z</time></trkpt><trkpt lat="42.6545633" lon="13.6989543"><ele>252.66666666666669</ele><time>2026-04-26T06:13:14.803Z</time></trkpt><trkpt lat="42.6546146" lon="13.6987461"><ele>248.0</ele><time>2026-04-26T06:13:15.803Z</time></trkpt><trkpt lat="42.6546554" lon="13.6985363"><ele>248.0</ele><time>2026-04-26T06:13:16.802Z</time></trkpt><trkpt lat="42.6546833" lon="13.6983261"><ele>248.0</ele><time>2026-04-26T06:13:17.803Z</time></trkpt><trkpt lat="42.6546973" lon="13.6981163"><ele>248.0</ele><time>2026-04-26T06:13:18.802Z</time></trkpt><trkpt lat="42.6546973" lon="13.6979111"><ele>248.0</ele><time>2026-04-26T06:13:19.802Z</time></trkpt><trkpt lat="42.6546898" lon="13.6977156"><ele>248.0</ele><time>2026-04-26T06:13:20.802Z</time></trkpt><trkpt lat="42.6546796" lon="13.6975199"><ele>248.0</ele><time>2026-04-26T06:13:21.802Z</time></trkpt><trkpt lat="42.6546478" lon="13.6973328"><ele>248.0</ele><time>2026-04-26T06:13:22.803Z</time></trkpt><trkpt lat="42.6545892" lon="13.6971618"><ele>248.0</ele><time>2026-04-26T06:13:23.802Z</time></trkpt><trkpt lat="42.6545221" lon="13.6970044"><ele>248.0</ele><time>2026-04-26T06:13:24.802Z</time></trkpt><trkpt lat="42.6544632" lon="13.6968559"><ele>248.0</ele><time>2026-04-26T06:13:25.803Z</time></trkpt><trkpt lat="42.6544387" lon="13.6966837"><ele>248.0</ele><time>2026-04-26T06:13:26.803Z</time></trkpt><trkpt lat="42.6544371" lon="13.6965026"><ele>247.66666666666669</ele><time>2026-04-26T06:13:27.802Z</time></trkpt><trkpt lat="42.6544649" lon="13.6963096"><ele>247.33333333333331</ele><time>2026-04-26T06:13:28.802Z</time></trkpt><trkpt lat="42.654517" lon="13.6961049"><ele>247.0</ele><time>2026-04-26T06:13:29.802Z</time></trkpt><trkpt lat="42.6545746" lon="13.6959106"><ele>247.0</ele><time>2026-04-26T06:13:30.801Z</time></trkpt><trkpt lat="42.6546249" lon="13.6957251"><ele>247.0</ele><time>2026-04-26T06:13:31.802Z</time></trkpt><trkpt lat="42.6546743" lon="13.6955479"><ele>247.0</ele><time>2026-04-26T06:13:32.801Z</time></trkpt><trkpt lat="42.6547241" lon="13.6953797"><ele>247.0</ele><time>2026-04-26T06:13:33.803Z</time></trkpt><trkpt lat="42.6547929" lon="13.6952264"><ele>246.75</ele><time>2026-04-26T06:13:34.802Z</time></trkpt><trkpt lat="42.6548833" lon="13.6950952"><ele>246.5</ele><time>2026-04-26T06:13:35.802Z</time></trkpt><trkpt lat="42.6549981" lon="13.6949935"><ele>246.25</ele><time>2026-04-26T06:13:36.803Z</time></trkpt><trkpt lat="42.6551182" lon="13.694901"><ele>246.0</ele><time>2026-04-26T06:13:37.803Z</time></trkpt><trkpt lat="42.6552506" lon="13.694816"><ele>245.75</ele><time>2026-04-26T06:13:38.803Z</time></trkpt><trkpt lat="42.6553759" lon="13.694728"><ele>245.5</ele><time>2026-04-26T06:13:39.803Z</time></trkpt><trkpt lat="42.6554914" lon="13.6946431"><ele>245.25</ele><time>2026-04-26T06:13:40.802Z</time></trkpt><trkpt lat="42.6555987" lon="13.694565"><ele>245.0</ele><time>2026-04-26T06:13:41.803Z</time></trkpt><trkpt lat="42.6557021" lon="13.6944874"><ele>245.0</ele><time>2026-04-26T06:13:42.802Z</time></trkpt><trkpt lat="42.6558007" lon="13.6944422"><ele>245.0</ele><time>2026-04-26T06:13:43.803Z</time></trkpt><trkpt lat="42.6558959" lon="13.6944308"><ele>245.0</ele><time>2026-04-26T06:13:44.802Z</time></trkpt><trkpt lat="42.6559763" lon="13.694433"><ele>245.0</ele><time>2026-04-26T06:13:45.802Z</time></trkpt><trkpt lat="42.6560717" lon="13.6943642"><ele>245.0</ele><time>2026-04-26T06:13:47.802Z</time></trkpt><trkpt lat="42.656118" lon="13.6941951"><ele>248.2</ele><time>2026-04-26T06:13:49.802Z</time></trkpt><trkpt lat="42.656166" lon="13.6941209"><ele>251.4</ele><time>2026-04-26T06:13:50.801Z</time></trkpt><trkpt lat="42.6562619" lon="13.6940303"><ele>254.60000000000002</ele><time>2026-04-26T06:13:51.803Z</time></trkpt><trkpt lat="42.6563571" lon="13.6939368"><ele>257.8</ele><time>2026-04-26T06:13:52.803Z</time></trkpt><trkpt lat="42.6564605" lon="13.6938339"><ele>261.0</ele><time>2026-04-26T06:13:53.803Z</time></trkpt><trkpt lat="42.6565678" lon="13.6937317"><ele>261.0</ele><time>2026-04-26T06:13:54.801Z</time></trkpt><trkpt lat="42.6566843" lon="13.6936213"><ele>261.0</ele><time>2026-04-26T06:13:55.803Z</time></trkpt><trkpt lat="42.6568059" lon="13.6935046"><ele>261.0</ele><time>2026-04-26T06:13:56.802Z</time></trkpt><trkpt lat="42.6569296" lon="13.693377"><ele>261.0</ele><time>2026-04-26T06:13:57.802Z</time></trkpt><trkpt lat="42.6570443" lon="13.6932437"><ele>264.75</ele><time>2026-04-26T06:13:58.801Z</time></trkpt><trkpt lat="42.6571578" lon="13.6931272"><ele>268.5</ele><time>2026-04-26T06:13:59.803Z</time></trkpt><trkpt lat="42.6572668" lon="13.69302"><ele>272.25</ele><time>2026-04-26T06:14:00.801Z</time></trkpt><trkpt lat="42.6573691" lon="13.6929228"><ele>276.0</ele><time>2026-04-26T06:14:01.802Z</time></trkpt><trkpt lat="42.6574579" lon="13.6928259"><ele>276.2</ele><time>2026-04-26T06:14:02.802Z</time></trkpt><trkpt lat="42.6575468" lon="13.6927389"><ele>276.40000000000003</ele><time>2026-04-26T06:14:03.803Z</time></trkpt><trkpt lat="42.6576364" lon="13.6926721"><ele>276.6</ele><time>2026-04-26T06:14:04.803Z</time></trkpt><trkpt lat="42.6577316" lon="13.692608"><ele>276.8</ele><time>2026-04-26T06:14:05.802Z</time></trkpt><trkpt lat="42.6578172" lon="13.6925507"><ele>277.0</ele><time>2026-04-26T06:14:06.803Z</time></trkpt><trkpt lat="42.6579049" lon="13.6924919"><ele>278.0</ele><time>2026-04-26T06:14:07.802Z</time></trkpt><trkpt lat="42.6579807" lon="13.6924397"><ele>279.0</ele><time>2026-04-26T06:14:08.803Z</time></trkpt><trkpt lat="42.6580493" lon="13.6923933"><ele>280.0</ele><time>2026-04-26T06:14:09.801Z</time></trkpt><trkpt lat="42.6581104" lon="13.6923519"><ele>281.0</ele><time>2026-04-26T06:14:10.802Z</time></trkpt><trkpt lat="42.6581864" lon="13.6922872"><ele>282.0</ele><time>2026-04-26T06:14:12.802Z</time></trkpt><trkpt lat="42.6582377" lon="13.6921589"><ele>283.0</ele><time>2026-04-26T06:14:15.801Z</time></trkpt><trkpt lat="42.6582363" lon="13.692065"><ele>283.0</ele><time>2026-04-26T06:14:16.803Z</time></trkpt><trkpt lat="42.6582267" lon="13.6919383"><ele>283.0</ele><time>2026-04-26T06:14:17.803Z</time></trkpt><trkpt lat="42.6582272" lon="13.6918052"><ele>283.0</ele><time>2026-04-26T06:14:18.802Z</time></trkpt><trkpt lat="42.6582343" lon="13.6916557"><ele>283.0</ele><time>2026-04-26T06:14:19.803Z</time></trkpt><trkpt lat="42.6582498" lon="13.6914893"><ele>283.0</ele><time>2026-04-26T06:14:20.803Z</time></trkpt><trkpt lat="42.6582741" lon="13.6913213"><ele>283.75</ele><time>2026-04-26T06:14:21.801Z</time></trkpt><trkpt lat="42.6583123" lon="13.691157"><ele>284.5</ele><time>2026-04-26T06:14:22.802Z</time></trkpt><trkpt lat="42.6583595" lon="13.6909924"><ele>285.25</ele><time>2026-04-26T06:14:23.801Z</time></trkpt><trkpt lat="42.658411" lon="13.6908047"><ele>286.0</ele><time>2026-04-26T06:14:24.803Z</time></trkpt><trkpt lat="42.658436" lon="13.6905992"><ele>287.25</ele><time>2026-04-26T06:14:25.802Z</time></trkpt><trkpt lat="42.6584456" lon="13.6904101"><ele>288.5</ele><time>2026-04-26T06:14:26.803Z</time></trkpt><trkpt lat="42.6584427" lon="13.6902249"><ele>289.75</ele><time>2026-04-26T06:14:27.801Z</time></trkpt><trkpt lat="42.6584324" lon="13.6900633"><ele>291.0</ele><time>2026-04-26T06:14:28.802Z</time></trkpt><trkpt lat="42.6584059" lon="13.6899156"><ele>292.0</ele><time>2026-04-26T06:14:29.801Z</time></trkpt><trkpt lat="42.6583591" lon="13.6897855"><ele>293.0</ele><time>2026-04-26T06:14:30.803Z</time></trkpt><trkpt lat="42.6582901" lon="13.689672"><ele>294.0</ele><time>2026-04-26T06:14:31.803Z</time></trkpt><trkpt lat="42.6581998" lon="13.6895723"><ele>295.0</ele><time>2026-04-26T06:14:32.803Z</time></trkpt><trkpt lat="42.658081" lon="13.6894803"><ele>295.5</ele><time>2026-04-26T06:14:33.803Z</time></trkpt><trkpt lat="42.657948" lon="13.6893881"><ele>296.0</ele><time>2026-04-26T06:14:34.802Z</time></trkpt><trkpt lat="42.6578285" lon="13.6892694"><ele>296.5</ele><time>2026-04-26T06:14:35.802Z</time></trkpt><trkpt lat="42.6577173" lon="13.6891339"><ele>297.0</ele><time>2026-04-26T06:14:36.802Z</time></trkpt><trkpt lat="42.6576158" lon="13.6889779"><ele>297.0</ele><time>2026-04-26T06:14:37.802Z</time></trkpt><trkpt lat="42.657529" lon="13.688805"><ele>297.0</ele><time>2026-04-26T06:14:38.801Z</time></trkpt><trkpt lat="42.6574562" lon="13.6886172"><ele>297.0</ele><time>2026-04-26T06:14:39.801Z</time></trkpt><trkpt lat="42.6573968" lon="13.6884076"><ele>297.0</ele><time>2026-04-26T06:14:40.803Z</time></trkpt><trkpt lat="42.6573528" lon="13.6881703"><ele>297.0</ele><time>2026-04-26T06:14:41.802Z</time></trkpt><trkpt lat="42.657323" lon="13.6879235"><ele>297.0</ele><time>2026-04-26T06:14:42.803Z</time></trkpt><trkpt lat="42.6573063" lon="13.6876842"><ele>297.0</ele><time>2026-04-26T06:14:43.802Z</time></trkpt><trkpt lat="42.6572895" lon="13.6874576"><ele>297.0</ele><time>2026-04-26T06:14:44.801Z</time></trkpt><trkpt lat="42.6572699" lon="13.6872434"><ele>297.0</ele><time>2026-04-26T06:14:45.802Z</time></trkpt><trkpt lat="42.6572507" lon="13.6870329"><ele>298.25</ele><time>2026-04-26T06:14:46.801Z</time></trkpt><trkpt lat="42.6572321" lon="13.6868333"><ele>299.5</ele><time>2026-04-26T06:14:47.801Z</time></trkpt><trkpt lat="42.6572076" lon="13.6866346"><ele>300.75</ele><time>2026-04-26T06:14:48.802Z</time></trkpt><trkpt lat="42.6571723" lon="13.6864431"><ele>302.0</ele><time>2026-04-26T06:14:49.802Z</time></trkpt><trkpt lat="42.6571188" lon="13.686266"><ele>302.0</ele><time>2026-04-26T06:14:50.802Z</time></trkpt><trkpt lat="42.6570615" lon="13.6860978"><ele>302.0</ele><time>2026-04-26T06:14:51.801Z</time></trkpt><trkpt lat="42.6569972" lon="13.6859448"><ele>302.0</ele><time>2026-04-26T06:14:52.802Z</time></trkpt><trkpt lat="42.6569331" lon="13.6858032"><ele>302.0</ele><time>2026-04-26T06:14:53.802Z</time></trkpt><trkpt lat="42.6568534" lon="13.6856769"><ele>300.25</ele><time>2026-04-26T06:14:54.801Z</time></trkpt><trkpt lat="42.6567552" lon="13.6855776"><ele>298.5</ele><time>2026-04-26T06:14:55.802Z</time></trkpt><trkpt lat="42.6566403" lon="13.6854999"><ele>296.75</ele><time>2026-04-26T06:14:56.801Z</time></trkpt><trkpt lat="42.6565115" lon="13.6854378"><ele>295.0</ele><time>2026-04-26T06:14:57.802Z</time></trkpt><trkpt lat="42.656384" lon="13.6853758"><ele>295.0</ele><time>2026-04-26T06:14:58.802Z</time></trkpt><trkpt lat="42.6562567" lon="13.6853141"><ele>295.0</ele><time>2026-04-26T06:14:59.803Z</time></trkpt><trkpt lat="42.6561143" lon="13.6852449"><ele>295.0</ele><time>2026-04-26T06:15:00.802Z</time></trkpt><trkpt lat="42.6559695" lon="13.6851675"><ele>295.0</ele><time>2026-04-26T06:15:01.802Z</time></trkpt><trkpt lat="42.6558285" lon="13.685094"><ele>295.0</ele><time>2026-04-26T06:15:02.802Z</time></trkpt><trkpt lat="42.6556907" lon="13.6850131"><ele>295.0</ele><time>2026-04-26T06:15:03.802Z</time></trkpt><trkpt lat="42.6555571" lon="13.6849299"><ele>295.0</ele><time>2026-04-26T06:15:04.802Z</time></trkpt><trkpt lat="42.6554167" lon="13.6848396"><ele>289.0</ele><time>2026-04-26T06:15:05.802Z</time></trkpt><trkpt lat="42.655272" lon="13.6847374"><ele>283.0</ele><time>2026-04-26T06:15:06.803Z</time></trkpt><trkpt lat="42.655134" lon="13.6846302"><ele>277.0</ele><time>2026-04-26T06:15:07.802Z</time></trkpt><trkpt lat="42.655001" lon="13.6845281"><ele>278.75</ele><time>2026-04-26T06:15:08.803Z</time></trkpt><trkpt lat="42.6548691" lon="13.6844246"><ele>280.5</ele><time>2026-04-26T06:15:09.801Z</time></trkpt><trkpt lat="42.6547352" lon="13.6843287"><ele>282.25</ele><time>2026-04-26T06:15:10.802Z</time></trkpt><trkpt lat="42.6546106" lon="13.6842357"><ele>284.0</ele><time>2026-04-26T06:15:11.802Z</time></trkpt><trkpt lat="42.654488" lon="13.6841446"><ele>281.25</ele><time>2026-04-26T06:15:12.802Z</time></trkpt><trkpt lat="42.6543739" lon="13.6840552"><ele>278.5</ele><time>2026-04-26T06:15:13.802Z</time></trkpt><trkpt lat="42.6542661" lon="13.6839695"><ele>275.75</ele><time>2026-04-26T06:15:14.802Z</time></trkpt><trkpt lat="42.6541589" lon="13.6838883"><ele>273.0</ele><time>2026-04-26T06:15:15.801Z</time></trkpt><trkpt lat="42.6540555" lon="13.6838122"><ele>273.0</ele><time>2026-04-26T06:15:16.802Z</time></trkpt><trkpt lat="42.6539492" lon="13.6837337"><ele>273.0</ele><time>2026-04-26T06:15:17.803Z</time></trkpt><trkpt lat="42.6538486" lon="13.6836649"><ele>273.0</ele><time>2026-04-26T06:15:18.803Z</time></trkpt><trkpt lat="42.6537608" lon="13.6835786"><ele>273.0</ele><time>2026-04-26T06:15:19.802Z</time></trkpt><trkpt lat="42.6536818" lon="13.6834908"><ele>273.0</ele><time>2026-04-26T06:15:20.801Z</time></trkpt><trkpt lat="42.653618" lon="13.6834019"><ele>274.4</ele><time>2026-04-26T06:15:21.801Z</time></trkpt><trkpt lat="42.6535531" lon="13.6833238"><ele>275.8</ele><time>2026-04-26T06:15:22.802Z</time></trkpt><trkpt lat="42.6534678" lon="13.6832754"><ele>277.2</ele><time>2026-04-26T06:15:23.801Z</time></trkpt><trkpt lat="42.6533561" lon="13.6832313"><ele>278.6</ele><time>2026-04-26T06:15:24.801Z</time></trkpt><trkpt lat="42.6532364" lon="13.6831611"><ele>280.0</ele><time>2026-04-26T06:15:25.803Z</time></trkpt><trkpt lat="42.653116" lon="13.6830567"><ele>280.0</ele><time>2026-04-26T06:15:26.802Z</time></trkpt><trkpt lat="42.6530068" lon="13.682946"><ele>280.0</ele><time>2026-04-26T06:15:27.803Z</time></trkpt><trkpt lat="42.6529088" lon="13.6828302"><ele>280.0</ele><time>2026-04-26T06:15:28.802Z</time></trkpt><trkpt lat="42.652819" lon="13.6827195"><ele>280.0</ele><time>2026-04-26T06:15:29.801Z</time></trkpt><trkpt lat="42.6527328" lon="13.6826166"><ele>280.4</ele><time>2026-04-26T06:15:30.802Z</time></trkpt><trkpt lat="42.6526497" lon="13.6825216"><ele>280.8</ele><time>2026-04-26T06:15:31.803Z</time></trkpt><trkpt lat="42.6525666" lon="13.6824237"><ele>281.2</ele><time>2026-04-26T06:15:32.801Z</time></trkpt><trkpt lat="42.6524816" lon="13.6823243"><ele>281.6</ele><time>2026-04-26T06:15:33.802Z</time></trkpt><trkpt lat="42.6523955" lon="13.682221"><ele>282.0</ele><time>2026-04-26T06:15:34.802Z</time></trkpt><trkpt lat="42.6523121" lon="13.6821276"><ele>282.0</ele><time>2026-04-26T06:15:35.802Z</time></trkpt><trkpt lat="42.6522424" lon="13.6820492"><ele>282.0</ele><time>2026-04-26T06:15:36.802Z</time></trkpt><trkpt lat="42.6521895" lon="13.6819879"><ele>282.0</ele><time>2026-04-26T06:15:37.802Z</time></trkpt><trkpt lat="42.6521279" lon="13.6818867"><ele>282.0</ele><time>2026-04-26T06:15:39.802Z</time></trkpt><trkpt lat="42.6521276" lon="13.6817849"><ele>282.0</ele><time>2026-04-26T06:15:42.801Z</time></trkpt><trkpt lat="42.6521576" lon="13.6817078"><ele>282.0</ele><time>2026-04-26T06:15:45.801Z</time></trkpt><trkpt lat="42.6521279" lon="13.681628"><ele>282.0</ele><time>2026-04-26T06:15:49.802Z</time></trkpt><trkpt lat="42.6520725" lon="13.6815863"><ele>282.0</ele><time>2026-04-26T06:17:26.801Z</time></trkpt><trkpt lat="42.6520151" lon="13.6816685"><ele>282.0</ele><time>2026-04-26T06:17:28.801Z</time></trkpt><trkpt lat="42.6519623" lon="13.6817222"><ele>282.0</ele><time>2026-04-26T06:17:35.801Z</time></trkpt><trkpt lat="42.6518686" lon="13.6816556"><ele>282.0</ele><time>2026-04-26T06:17:37.801Z</time></trkpt><trkpt lat="42.6518052" lon="13.6815684"><ele>282.0</ele><time>2026-04-26T06:17:38.8Z</time></trkpt><trkpt lat="42.6517262" lon="13.6814741"><ele>281.6</ele><time>2026-04-26T06:17:39.801Z</time></trkpt><trkpt lat="42.651641" lon="13.6813833"><ele>281.2</ele><time>2026-04-26T06:17:40.801Z</time></trkpt><trkpt lat="42.651554" lon="13.6812928"><ele>280.8</ele><time>2026-04-26T06:17:41.801Z</time></trkpt><trkpt lat="42.6514754" lon="13.6812094"><ele>280.4</ele><time>2026-04-26T06:17:42.802Z</time></trkpt><trkpt lat="42.6514034" lon="13.6811293"><ele>280.0</ele><time>2026-04-26T06:17:43.801Z</time></trkpt><trkpt lat="42.6513347" lon="13.6810536"><ele>280.6</ele><time>2026-04-26T06:17:44.801Z</time></trkpt><trkpt lat="42.651263" lon="13.6809763"><ele>281.2</ele><time>2026-04-26T06:17:45.802Z</time></trkpt><trkpt lat="42.6511877" lon="13.6808934"><ele>281.8</ele><time>2026-04-26T06:17:46.802Z</time></trkpt><trkpt lat="42.6511095" lon="13.6808102"><ele>282.4</ele><time>2026-04-26T06:17:47.802Z</time></trkpt><trkpt lat="42.6510381" lon="13.6807309"><ele>283.0</ele><time>2026-04-26T06:17:48.801Z</time></trkpt><trkpt lat="42.6509717" lon="13.6806589"><ele>283.0</ele><time>2026-04-26T06:17:49.801Z</time></trkpt><trkpt lat="42.6509013" lon="13.6805803"><ele>283.0</ele><time>2026-04-26T06:17:50.801Z</time></trkpt><trkpt lat="42.6508249" lon="13.6804892"><ele>283.0</ele><time>2026-04-26T06:17:51.8Z</time></trkpt><trkpt lat="42.650742" lon="13.6803933"><ele>283.0</ele><time>2026-04-26T06:17:52.801Z</time></trkpt><trkpt lat="42.6506545" lon="13.6802979"><ele>283.0</ele><time>2026-04-26T06:17:53.802Z</time></trkpt><trkpt lat="42.6505751" lon="13.6802036"><ele>283.2</ele><time>2026-04-26T06:17:54.801Z</time></trkpt><trkpt lat="42.6505007" lon="13.6801163"><ele>283.4</ele><time>2026-04-26T06:17:55.8Z</time></trkpt><trkpt lat="42.6504308" lon="13.6800345"><ele>283.59999999999997</ele><time>2026-04-26T06:17:56.8Z</time></trkpt><trkpt lat="42.6503614" lon="13.6799507"><ele>283.8</ele><time>2026-04-26T06:17:57.8Z</time></trkpt><trkpt lat="42.6502972" lon="13.6798641"><ele>284.0</ele><time>2026-04-26T06:17:58.802Z</time></trkpt><trkpt lat="42.6502339" lon="13.6797729"><ele>284.0</ele><time>2026-04-26T06:17:59.802Z</time></trkpt><trkpt lat="42.6501735" lon="13.6796825"><ele>284.0</ele><time>2026-04-26T06:18:00.801Z</time></trkpt><trkpt lat="42.6501179" lon="13.6795867"><ele>284.0</ele><time>2026-04-26T06:18:01.802Z</time></trkpt><trkpt lat="42.6500667" lon="13.6794855"><ele>284.0</ele><time>2026-04-26T06:18:02.801Z</time></trkpt><trkpt lat="42.650026" lon="13.6793915"><ele>284.0</ele><time>2026-04-26T06:18:03.801Z</time></trkpt><trkpt lat="42.6499907" lon="13.6793114"><ele>284.0</ele><time>2026-04-26T06:18:04.802Z</time></trkpt><trkpt lat="42.6499541" lon="13.6792265"><ele>285.0</ele><time>2026-04-26T06:18:05.801Z</time></trkpt><trkpt lat="42.6499164" lon="13.6791499"><ele>286.0</ele><time>2026-04-26T06:18:06.8Z</time></trkpt><trkpt lat="42.6498665" lon="13.6790709"><ele>287.0</ele><time>2026-04-26T06:18:07.801Z</time></trkpt><trkpt lat="42.6497957" lon="13.6789695"><ele>288.0</ele><time>2026-04-26T06:18:08.802Z</time></trkpt><trkpt lat="42.6497146" lon="13.678851"><ele>289.0</ele><time>2026-04-26T06:18:09.801Z</time></trkpt><trkpt lat="42.6496359" lon="13.6787175"><ele>288.0</ele><time>2026-04-26T06:18:10.801Z</time></trkpt><trkpt lat="42.649551" lon="13.6785653"><ele>287.0</ele><time>2026-04-26T06:18:11.802Z</time></trkpt><trkpt lat="42.6494604" lon="13.6783912"><ele>286.0</ele><time>2026-04-26T06:18:12.802Z</time></trkpt><trkpt lat="42.6493607" lon="13.6781981"><ele>285.0</ele><time>2026-04-26T06:18:13.802Z</time></trkpt><trkpt lat="42.649258" lon="13.6780021"><ele>284.0</ele><time>2026-04-26T06:18:14.801Z</time></trkpt><trkpt lat="42.6491499" lon="13.6777943"><ele>283.0</ele><time>2026-04-26T06:18:15.802Z</time></trkpt><trkpt lat="42.6490351" lon="13.6775755"><ele>283.0</ele><time>2026-04-26T06:18:16.801Z</time></trkpt><trkpt lat="42.6489213" lon="13.6773567"><ele>283.0</ele><time>2026-04-26T06:18:17.801Z</time></trkpt><trkpt lat="42.6488081" lon="13.677142"><ele>283.0</ele><time>2026-04-26T06:18:18.802Z</time></trkpt><trkpt lat="42.6486937" lon="13.6769255"><ele>284.0</ele><time>2026-04-26T06:18:19.802Z</time></trkpt><trkpt lat="42.648579" lon="13.6767083"><ele>285.0</ele><time>2026-04-26T06:18:20.801Z</time></trkpt><trkpt lat="42.6484666" lon="13.6764896"><ele>286.0</ele><time>2026-04-26T06:18:21.802Z</time></trkpt><trkpt lat="42.6483542" lon="13.6762712"><ele>287.66666666666663</ele><time>2026-04-26T06:18:22.801Z</time></trkpt><trkpt lat="42.6482404" lon="13.6760573"><ele>289.3333333333333</ele><time>2026-04-26T06:18:23.8Z</time></trkpt><trkpt lat="42.6481238" lon="13.675847"><ele>291.0</ele><time>2026-04-26T06:18:24.801Z</time></trkpt><trkpt lat="42.6480029" lon="13.6756468"><ele>291.0</ele><time>2026-04-26T06:18:25.802Z</time></trkpt><trkpt lat="42.6478749" lon="13.6754494"><ele>291.0</ele><time>2026-04-26T06:18:26.801Z</time></trkpt><trkpt lat="42.6477418" lon="13.6752588"><ele>291.0</ele><time>2026-04-26T06:18:27.8Z</time></trkpt><trkpt lat="42.6476062" lon="13.6750717"><ele>290.6666666666667</ele><time>2026-04-26T06:18:28.801Z</time></trkpt><trkpt lat="42.6474663" lon="13.6748942"><ele>290.33333333333337</ele><time>2026-04-26T06:18:29.802Z</time></trkpt><trkpt lat="42.6473213" lon="13.6747244"><ele>290.0</ele><time>2026-04-26T06:18:30.8Z</time></trkpt><trkpt lat="42.6471776" lon="13.6745524"><ele>290.33333333333337</ele><time>2026-04-26T06:18:31.801Z</time></trkpt><trkpt lat="42.6470346" lon="13.6743774"><ele>290.6666666666667</ele><time>2026-04-26T06:18:32.801Z</time></trkpt><trkpt lat="42.6468917" lon="13.6742084"><ele>291.0</ele><time>2026-04-26T06:18:33.801Z</time></trkpt><trkpt lat="42.6467497" lon="13.6740409"><ele>291.0</ele><time>2026-04-26T06:18:34.8Z</time></trkpt><trkpt lat="42.6466108" lon="13.6738718"><ele>291.0</ele><time>2026-04-26T06:18:35.801Z</time></trkpt><trkpt lat="42.646469" lon="13.6737098"><ele>291.0</ele><time>2026-04-26T06:18:36.801Z</time></trkpt><trkpt lat="42.6463362" lon="13.6735486"><ele>291.6666666666667</ele><time>2026-04-26T06:18:37.801Z</time></trkpt><trkpt lat="42.6462043" lon="13.673392"><ele>292.33333333333337</ele><time>2026-04-26T06:18:38.801Z</time></trkpt><trkpt lat="42.6460715" lon="13.6732347"><ele>293.0</ele><time>2026-04-26T06:18:39.8Z</time></trkpt><trkpt lat="42.6459427" lon="13.673079"><ele>293.0</ele><time>2026-04-26T06:18:40.801Z</time></trkpt><trkpt lat="42.6458213" lon="13.6729354"><ele>293.0</ele><time>2026-04-26T06:18:41.801Z</time></trkpt><trkpt lat="42.6457071" lon="13.6727984"><ele>293.0</ele><time>2026-04-26T06:18:42.801Z</time></trkpt><trkpt lat="42.6455978" lon="13.672666"><ele>294.25</ele><time>2026-04-26T06:18:43.802Z</time></trkpt><trkpt lat="42.6454927" lon="13.6725445"><ele>295.5</ele><time>2026-04-26T06:18:44.801Z</time></trkpt><trkpt lat="42.6453908" lon="13.6724242"><ele>296.75</ele><time>2026-04-26T06:18:45.801Z</time></trkpt><trkpt lat="42.6452956" lon="13.6723129"><ele>298.0</ele><time>2026-04-26T06:18:46.801Z</time></trkpt><trkpt lat="42.6452064" lon="13.6722055"><ele>298.0</ele><time>2026-04-26T06:18:47.8Z</time></trkpt><trkpt lat="42.6451201" lon="13.6721072"><ele>298.0</ele><time>2026-04-26T06:18:48.8Z</time></trkpt><trkpt lat="42.6450335" lon="13.672021"><ele>298.0</ele><time>2026-04-26T06:18:49.801Z</time></trkpt><trkpt lat="42.6449474" lon="13.6719409"><ele>298.0</ele><time>2026-04-26T06:18:50.8Z</time></trkpt><trkpt lat="42.6448617" lon="13.671845"><ele>298.0</ele><time>2026-04-26T06:18:51.801Z</time></trkpt><trkpt lat="42.6447751" lon="13.6717332"><ele>296.75</ele><time>2026-04-26T06:18:52.8Z</time></trkpt><trkpt lat="42.6446706" lon="13.6716045"><ele>295.5</ele><time>2026-04-26T06:18:53.801Z</time></trkpt><trkpt lat="42.6445586" lon="13.6714781"><ele>294.25</ele><time>2026-04-26T06:18:54.802Z</time></trkpt><trkpt lat="42.6444615" lon="13.6713527"><ele>293.0</ele><time>2026-04-26T06:18:55.802Z</time></trkpt><trkpt lat="42.6443628" lon="13.6712201"><ele>292.25</ele><time>2026-04-26T06:18:56.801Z</time></trkpt><trkpt lat="42.6442584" lon="13.6710854"><ele>291.5</ele><time>2026-04-26T06:18:57.802Z</time></trkpt><trkpt lat="42.644148" lon="13.6709507"><ele>290.75</ele><time>2026-04-26T06:18:58.801Z</time></trkpt><trkpt lat="42.6440378" lon="13.6708093"><ele>290.0</ele><time>2026-04-26T06:18:59.802Z</time></trkpt><trkpt lat="42.6439259" lon="13.6706718"><ele>290.0</ele><time>2026-04-26T06:19:00.801Z</time></trkpt><trkpt lat="42.6438113" lon="13.6705346"><ele>290.0</ele><time>2026-04-26T06:19:01.801Z</time></trkpt><trkpt lat="42.6436973" lon="13.6703986"><ele>290.0</ele><time>2026-04-26T06:19:02.802Z</time></trkpt><trkpt lat="42.6435812" lon="13.670256"><ele>291.6666666666667</ele><time>2026-04-26T06:19:03.801Z</time></trkpt><trkpt lat="42.6434533" lon="13.6701034"><ele>293.3333333333333</ele><time>2026-04-26T06:19:04.801Z</time></trkpt><trkpt lat="42.643331" lon="13.6699596"><ele>295.0</ele><time>2026-04-26T06:19:05.801Z</time></trkpt><trkpt lat="42.6432096" lon="13.6698234"><ele>295.0</ele><time>2026-04-26T06:19:06.802Z</time></trkpt><trkpt lat="42.6430946" lon="13.6696903"><ele>295.0</ele><time>2026-04-26T06:19:07.801Z</time></trkpt><trkpt lat="42.6429735" lon="13.6695599"><ele>295.0</ele><time>2026-04-26T06:19:08.8Z</time></trkpt><trkpt lat="42.6428538" lon="13.6694437"><ele>297.0</ele><time>2026-04-26T06:19:09.801Z</time></trkpt><trkpt lat="42.6427358" lon="13.6693418"><ele>299.0</ele><time>2026-04-26T06:19:10.801Z</time></trkpt><trkpt lat="42.6426157" lon="13.6692539"><ele>301.0</ele><time>2026-04-26T06:19:11.8Z</time></trkpt><trkpt lat="42.6424902" lon="13.669178"><ele>303.0</ele><time>2026-04-26T06:19:12.801Z</time></trkpt><trkpt lat="42.6423571" lon="13.6691054"><ele>303.0</ele><time>2026-04-26T06:19:13.802Z</time></trkpt><trkpt lat="42.6422177" lon="13.6690409"><ele>303.0</ele><time>2026-04-26T06:19:14.8Z</time></trkpt><trkpt lat="42.6420744" lon="13.6689803"><ele>303.0</ele><time>2026-04-26T06:19:15.802Z</time></trkpt><trkpt lat="42.6419316" lon="13.6689141"><ele>303.0</ele><time>2026-04-26T06:19:16.801Z</time></trkpt><trkpt lat="42.6417909" lon="13.6688211"><ele>299.0</ele><time>2026-04-26T06:19:17.801Z</time></trkpt><trkpt lat="42.6416581" lon="13.6687071"><ele>295.0</ele><time>2026-04-26T06:19:18.801Z</time></trkpt><trkpt lat="42.6415329" lon="13.6685823"><ele>291.0</ele><time>2026-04-26T06:19:19.8Z</time></trkpt><trkpt lat="42.6414039" lon="13.6684607"><ele>294.3333333333333</ele><time>2026-04-26T06:19:20.801Z</time></trkpt><trkpt lat="42.6412741" lon="13.6683397"><ele>297.66666666666663</ele><time>2026-04-26T06:19:21.8Z</time></trkpt><trkpt lat="42.6411467" lon="13.66822"><ele>301.0</ele><time>2026-04-26T06:19:22.8Z</time></trkpt><trkpt lat="42.6410204" lon="13.6681016"><ele>301.0</ele><time>2026-04-26T06:19:23.799Z</time></trkpt><trkpt lat="42.640892" lon="13.6679809"><ele>301.0</ele><time>2026-04-26T06:19:24.8Z</time></trkpt><trkpt lat="42.6407625" lon="13.6678658"><ele>301.0</ele><time>2026-04-26T06:19:25.799Z</time></trkpt><trkpt lat="42.6406283" lon="13.6677628"><ele>306.0</ele><time>2026-04-26T06:19:26.801Z</time></trkpt><trkpt lat="42.6404879" lon="13.6676648"><ele>311.0</ele><time>2026-04-26T06:19:27.801Z</time></trkpt><trkpt lat="42.6403451" lon="13.6675755"><ele>316.0</ele><time>2026-04-26T06:19:28.799Z</time></trkpt><trkpt lat="42.6401994" lon="13.6675029"><ele>316.0</ele><time>2026-04-26T06:19:29.799Z</time></trkpt><trkpt lat="42.6400501" lon="13.6674541"><ele>316.0</ele><time>2026-04-26T06:19:30.8Z</time></trkpt><trkpt lat="42.6398996" lon="13.6674251"><ele>316.0</ele><time>2026-04-26T06:19:31.8Z</time></trkpt><trkpt lat="42.6397505" lon="13.6673889"><ele>316.0</ele><time>2026-04-26T06:19:32.801Z</time></trkpt><trkpt lat="42.6396067" lon="13.6673259"><ele>316.0</ele><time>2026-04-26T06:19:33.801Z</time></trkpt><trkpt lat="42.6394694" lon="13.6672411"><ele>316.0</ele><time>2026-04-26T06:19:34.8Z</time></trkpt><trkpt lat="42.6393341" lon="13.6671535"><ele>315.25</ele><time>2026-04-26T06:19:35.801Z</time></trkpt><trkpt lat="42.639197" lon="13.6670711"><ele>314.5</ele><time>2026-04-26T06:19:36.8Z</time></trkpt><trkpt lat="42.6390614" lon="13.6669885"><ele>313.75</ele><time>2026-04-26T06:19:37.8Z</time></trkpt><trkpt lat="42.6389306" lon="13.6669057"><ele>313.0</ele><time>2026-04-26T06:19:38.801Z</time></trkpt><trkpt lat="42.6387992" lon="13.6668186"><ele>315.75</ele><time>2026-04-26T06:19:39.8Z</time></trkpt><trkpt lat="42.6386639" lon="13.6667317"><ele>318.5</ele><time>2026-04-26T06:19:40.8Z</time></trkpt><trkpt lat="42.6385309" lon="13.6666402"><ele>321.25</ele><time>2026-04-26T06:19:41.799Z</time></trkpt><trkpt lat="42.6383992" lon="13.6665479"><ele>324.0</ele><time>2026-04-26T06:19:42.801Z</time></trkpt><trkpt lat="42.6382662" lon="13.6664475"><ele>324.0</ele><time>2026-04-26T06:19:43.8Z</time></trkpt><trkpt lat="42.6381419" lon="13.666346"><ele>324.0</ele><time>2026-04-26T06:19:44.8Z</time></trkpt><trkpt lat="42.6380277" lon="13.6662445"><ele>324.0</ele><time>2026-04-26T06:19:45.801Z</time></trkpt><trkpt lat="42.6379203" lon="13.6661459"><ele>324.0</ele><time>2026-04-26T06:19:46.801Z</time></trkpt><trkpt lat="42.6378238" lon="13.6660398"><ele>324.25</ele><time>2026-04-26T06:19:47.801Z</time></trkpt><trkpt lat="42.6377367" lon="13.6659105"><ele>324.5</ele><time>2026-04-26T06:19:48.8Z</time></trkpt><trkpt lat="42.6376691" lon="13.6657638"><ele>324.75</ele><time>2026-04-26T06:19:49.8Z</time></trkpt><trkpt lat="42.6376113" lon="13.66562"><ele>325.0</ele><time>2026-04-26T06:19:50.8Z</time></trkpt><trkpt lat="42.637558" lon="13.665476"><ele>325.0</ele><time>2026-04-26T06:19:51.8Z</time></trkpt><trkpt lat="42.6375137" lon="13.6653401"><ele>325.0</ele><time>2026-04-26T06:19:52.8Z</time></trkpt><trkpt lat="42.6374729" lon="13.6652078"><ele>325.0</ele><time>2026-04-26T06:19:53.8Z</time></trkpt><trkpt lat="42.6374387" lon="13.6650636"><ele>325.0</ele><time>2026-04-26T06:19:54.801Z</time></trkpt><trkpt lat="42.637417" lon="13.6649091"><ele>325.0</ele><time>2026-04-26T06:19:55.801Z</time></trkpt><trkpt lat="42.6373834" lon="13.6647557"><ele>327.75</ele><time>2026-04-26T06:19:56.8Z</time></trkpt><trkpt lat="42.6373353" lon="13.6646045"><ele>330.5</ele><time>2026-04-26T06:19:57.8Z</time></trkpt><trkpt lat="42.6372762" lon="13.6644516"><ele>333.25</ele><time>2026-04-26T06:19:58.799Z</time></trkpt><trkpt lat="42.6372056" lon="13.6643122"><ele>336.0</ele><time>2026-04-26T06:19:59.799Z</time></trkpt><trkpt lat="42.6371198" lon="13.6641892"><ele>338.75</ele><time>2026-04-26T06:20:00.801Z</time></trkpt><trkpt lat="42.6370244" lon="13.6640892"><ele>341.5</ele><time>2026-04-26T06:20:01.801Z</time></trkpt><trkpt lat="42.6369261" lon="13.6640009"><ele>344.25</ele><time>2026-04-26T06:20:02.801Z</time></trkpt><trkpt lat="42.6368317" lon="13.6639251"><ele>347.0</ele><time>2026-04-26T06:20:03.8Z</time></trkpt><trkpt lat="42.6367393" lon="13.6638523"><ele>344.0</ele><time>2026-04-26T06:20:04.8Z</time></trkpt><trkpt lat="42.6366505" lon="13.6637894"><ele>341.0</ele><time>2026-04-26T06:20:05.8Z</time></trkpt><trkpt lat="42.6365726" lon="13.6637323"><ele>338.0</ele><time>2026-04-26T06:20:06.8Z</time></trkpt><trkpt lat="42.636505" lon="13.6636782"><ele>335.0</ele><time>2026-04-26T06:20:07.8Z</time></trkpt><trkpt lat="42.6364474" lon="13.6636156"><ele>332.0</ele><time>2026-04-26T06:20:08.8Z</time></trkpt><trkpt lat="42.6364" lon="13.6635434"><ele>329.0</ele><time>2026-04-26T06:20:09.801Z</time></trkpt><trkpt lat="42.6363501" lon="13.6634869"><ele>329.0</ele><time>2026-04-26T06:20:10.801Z</time></trkpt><trkpt lat="42.6362844" lon="13.663456"><ele>329.0</ele><time>2026-04-26T06:20:11.8Z</time></trkpt><trkpt lat="42.6362005" lon="13.6634252"><ele>329.0</ele><time>2026-04-26T06:20:12.799Z</time></trkpt><trkpt lat="42.636122" lon="13.6633838"><ele>329.0</ele><time>2026-04-26T06:20:13.8Z</time></trkpt><trkpt lat="42.6360367" lon="13.6633277"><ele>329.0</ele><time>2026-04-26T06:20:14.8Z</time></trkpt><trkpt lat="42.6359499" lon="13.6632617"><ele>329.0</ele><time>2026-04-26T06:20:15.8Z</time></trkpt><trkpt lat="42.6358601" lon="13.663197"><ele>328.0</ele><time>2026-04-26T06:20:16.799Z</time></trkpt><trkpt lat="42.635769" lon="13.6631317"><ele>327.0</ele><time>2026-04-26T06:20:17.799Z</time></trkpt><trkpt lat="42.6356716" lon="13.6630608"><ele>326.0</ele><time>2026-04-26T06:20:18.8Z</time></trkpt><trkpt lat="42.6355732" lon="13.6629921"><ele>325.0</ele><time>2026-04-26T06:20:19.799Z</time></trkpt><trkpt lat="42.6354777" lon="13.6629232"><ele>324.0</ele><time>2026-04-26T06:20:20.8Z</time></trkpt><trkpt lat="42.6353821" lon="13.662855"><ele>323.0</ele><time>2026-04-26T06:20:21.801Z</time></trkpt><trkpt lat="42.6352794" lon="13.6627753"><ele>322.0</ele><time>2026-04-26T06:20:22.8Z</time></trkpt><trkpt lat="42.6351631" lon="13.6626867"><ele>321.0</ele><time>2026-04-26T06:20:23.799Z</time></trkpt><trkpt lat="42.6350355" lon="13.6625944"><ele>320.0</ele><time>2026-04-26T06:20:24.799Z</time></trkpt><trkpt lat="42.6348969" lon="13.6624938"><ele>320.0</ele><time>2026-04-26T06:20:25.8Z</time></trkpt><trkpt lat="42.6347574" lon="13.6623902"><ele>320.0</ele><time>2026-04-26T06:20:26.801Z</time></trkpt><trkpt lat="42.6346181" lon="13.6622898"><ele>320.0</ele><time>2026-04-26T06:20:27.8Z</time></trkpt><trkpt lat="42.6344793" lon="13.6621908"><ele>319.25</ele><time>2026-04-26T06:20:28.801Z</time></trkpt><trkpt lat="42.6343432" lon="13.6620948"><ele>318.5</ele><time>2026-04-26T06:20:29.801Z</time></trkpt><trkpt lat="42.6342122" lon="13.6619971"><ele>317.75</ele><time>2026-04-26T06:20:30.8Z</time></trkpt><trkpt lat="42.6340859" lon="13.6619077"><ele>317.0</ele><time>2026-04-26T06:20:31.801Z</time></trkpt><trkpt lat="42.6339613" lon="13.6618145"><ele>317.0</ele><time>2026-04-26T06:20:32.801Z</time></trkpt><trkpt lat="42.6338463" lon="13.6616991"><ele>317.0</ele><time>2026-04-26T06:20:33.8Z</time></trkpt><trkpt lat="42.6337402" lon="13.6615559"><ele>317.0</ele><time>2026-04-26T06:20:34.8Z</time></trkpt><trkpt lat="42.6336508" lon="13.6613917"><ele>317.0</ele><time>2026-04-26T06:20:35.8Z</time></trkpt><trkpt lat="42.6335747" lon="13.661209"><ele>318.25</ele><time>2026-04-26T06:20:36.8Z</time></trkpt><trkpt lat="42.6335081" lon="13.6610222"><ele>319.5</ele><time>2026-04-26T06:20:37.799Z</time></trkpt><trkpt lat="42.6334434" lon="13.6608422"><ele>320.75</ele><time>2026-04-26T06:20:38.8Z</time></trkpt><trkpt lat="42.633383" lon="13.6606769"><ele>322.0</ele><time>2026-04-26T06:20:39.8Z</time></trkpt><trkpt lat="42.6333184" lon="13.6605304"><ele>322.0</ele><time>2026-04-26T06:20:40.8Z</time></trkpt><trkpt lat="42.6332394" lon="13.6604032"><ele>322.0</ele><time>2026-04-26T06:20:41.8Z</time></trkpt><trkpt lat="42.6331255" lon="13.6602872"><ele>322.0</ele><time>2026-04-26T06:20:42.801Z</time></trkpt><trkpt lat="42.6329816" lon="13.6601798"><ele>322.0</ele><time>2026-04-26T06:20:43.799Z</time></trkpt><trkpt lat="42.6328199" lon="13.6600686"><ele>323.0</ele><time>2026-04-26T06:20:44.8Z</time></trkpt><trkpt lat="42.6326572" lon="13.6599446"><ele>324.0</ele><time>2026-04-26T06:20:45.801Z</time></trkpt><trkpt lat="42.6324911" lon="13.6598196"><ele>325.0</ele><time>2026-04-26T06:20:46.8Z</time></trkpt><trkpt lat="42.6323253" lon="13.6596936"><ele>325.0</ele><time>2026-04-26T06:20:47.801Z</time></trkpt><trkpt lat="42.6321559" lon="13.6595774"><ele>325.0</ele><time>2026-04-26T06:20:48.801Z</time></trkpt><trkpt lat="42.6319825" lon="13.6594649"><ele>325.0</ele><time>2026-04-26T06:20:49.8Z</time></trkpt><trkpt lat="42.6318033" lon="13.6593417"><ele>326.0</ele><time>2026-04-26T06:20:50.799Z</time></trkpt><trkpt lat="42.6316159" lon="13.6592116"><ele>327.0</ele><time>2026-04-26T06:20:51.8Z</time></trkpt><trkpt lat="42.6314332" lon="13.6590798"><ele>328.0</ele><time>2026-04-26T06:20:52.799Z</time></trkpt><trkpt lat="42.6312589" lon="13.6589511"><ele>327.3333333333333</ele><time>2026-04-26T06:20:53.801Z</time></trkpt><trkpt lat="42.6310869" lon="13.6588276"><ele>326.6666666666667</ele><time>2026-04-26T06:20:54.8Z</time></trkpt><trkpt lat="42.6309217" lon="13.6587079"><ele>326.0</ele><time>2026-04-26T06:20:55.799Z</time></trkpt><trkpt lat="42.6307596" lon="13.6586005"><ele>326.0</ele><time>2026-04-26T06:20:56.8Z</time></trkpt><trkpt lat="42.6305972" lon="13.6585039"><ele>326.0</ele><time>2026-04-26T06:20:57.8Z</time></trkpt><trkpt lat="42.6304183" lon="13.6584489"><ele>326.0</ele><time>2026-04-26T06:20:58.8Z</time></trkpt><trkpt lat="42.6302287" lon="13.6584342"><ele>320.6666666666667</ele><time>2026-04-26T06:20:59.801Z</time></trkpt><trkpt lat="42.6300359" lon="13.6584474"><ele>315.3333333333333</ele><time>2026-04-26T06:21:00.8Z</time></trkpt><trkpt lat="42.6298434" lon="13.6584738"><ele>310.0</ele><time>2026-04-26T06:21:01.801Z</time></trkpt><trkpt lat="42.6296556" lon="13.6584889"><ele>315.3333333333333</ele><time>2026-04-26T06:21:02.801Z</time></trkpt><trkpt lat="42.6294713" lon="13.6584675"><ele>320.6666666666667</ele><time>2026-04-26T06:21:03.8Z</time></trkpt><trkpt lat="42.6292948" lon="13.658405"><ele>326.0</ele><time>2026-04-26T06:21:04.8Z</time></trkpt><trkpt lat="42.6291251" lon="13.6583062"><ele>326.0</ele><time>2026-04-26T06:21:05.799Z</time></trkpt><trkpt lat="42.6289604" lon="13.6581745"><ele>326.0</ele><time>2026-04-26T06:21:06.8Z</time></trkpt><trkpt lat="42.6288105" lon="13.6580083"><ele>326.0</ele><time>2026-04-26T06:21:07.8Z</time></trkpt><trkpt lat="42.6286727" lon="13.657812"><ele>329.6666666666667</ele><time>2026-04-26T06:21:08.799Z</time></trkpt><trkpt lat="42.6285451" lon="13.6575943"><ele>333.3333333333333</ele><time>2026-04-26T06:21:09.8Z</time></trkpt><trkpt lat="42.6284192" lon="13.6573757"><ele>337.0</ele><time>2026-04-26T06:21:10.799Z</time></trkpt><trkpt lat="42.6282928" lon="13.6571635"><ele>337.0</ele><time>2026-04-26T06:21:11.8Z</time></trkpt><trkpt lat="42.6281655" lon="13.6569575"><ele>337.0</ele><time>2026-04-26T06:21:12.801Z</time></trkpt><trkpt lat="42.6280384" lon="13.6567556"><ele>337.0</ele><time>2026-04-26T06:21:13.801Z</time></trkpt><trkpt lat="42.6279143" lon="13.656555"><ele>338.3333333333333</ele><time>2026-04-26T06:21:14.8Z</time></trkpt><trkpt lat="42.6277941" lon="13.6563573"><ele>339.6666666666667</ele><time>2026-04-26T06:21:15.801Z</time></trkpt><trkpt lat="42.6276795" lon="13.6561545"><ele>341.0</ele><time>2026-04-26T06:21:16.799Z</time></trkpt><trkpt lat="42.6275766" lon="13.6559474"><ele>341.0</ele><time>2026-04-26T06:21:17.799Z</time></trkpt><trkpt lat="42.627485" lon="13.6557278"><ele>341.0</ele><time>2026-04-26T06:21:18.799Z</time></trkpt><trkpt lat="42.627396" lon="13.6555046"><ele>341.0</ele><time>2026-04-26T06:21:19.801Z</time></trkpt><trkpt lat="42.6273183" lon="13.6552672"><ele>341.0</ele><time>2026-04-26T06:21:20.8Z</time></trkpt><trkpt lat="42.6272454" lon="13.6550311"><ele>341.0</ele><time>2026-04-26T06:21:21.8Z</time></trkpt><trkpt lat="42.6271686" lon="13.6547939"><ele>341.0</ele><time>2026-04-26T06:21:22.801Z</time></trkpt><trkpt lat="42.6270888" lon="13.6545499"><ele>341.0</ele><time>2026-04-26T06:21:23.799Z</time></trkpt><trkpt lat="42.6270036" lon="13.6543108"><ele>341.0</ele><time>2026-04-26T06:21:24.801Z</time></trkpt><trkpt lat="42.6269188" lon="13.6540719"><ele>341.0</ele><time>2026-04-26T06:21:25.799Z</time></trkpt><trkpt lat="42.6268381" lon="13.6538337"><ele>346.0</ele><time>2026-04-26T06:21:26.8Z</time></trkpt><trkpt lat="42.6267629" lon="13.6535962"><ele>351.0</ele><time>2026-04-26T06:21:27.8Z</time></trkpt><trkpt lat="42.6266922" lon="13.653365"><ele>356.0</ele><time>2026-04-26T06:21:28.8Z</time></trkpt><trkpt lat="42.6266231" lon="13.6531386"><ele>356.0</ele><time>2026-04-26T06:21:29.8Z</time></trkpt><trkpt lat="42.6265624" lon="13.6529153"><ele>356.0</ele><time>2026-04-26T06:21:30.799Z</time></trkpt><trkpt lat="42.6265105" lon="13.6526966"><ele>356.0</ele><time>2026-04-26T06:21:31.801Z</time></trkpt><trkpt lat="42.6264657" lon="13.6524765"><ele>356.0</ele><time>2026-04-26T06:21:32.801Z</time></trkpt><trkpt lat="42.6264212" lon="13.6522479"><ele>356.0</ele><time>2026-04-26T06:21:33.799Z</time></trkpt><trkpt lat="42.6263813" lon="13.6520312"><ele>356.0</ele><time>2026-04-26T06:21:34.8Z</time></trkpt><trkpt lat="42.6263377" lon="13.651833"><ele>355.5</ele><time>2026-04-26T06:21:35.8Z</time></trkpt><trkpt lat="42.6262865" lon="13.6516542"><ele>355.0</ele><time>2026-04-26T06:21:36.8Z</time></trkpt><trkpt lat="42.6262285" lon="13.6514888"><ele>354.5</ele><time>2026-04-26T06:21:37.799Z</time></trkpt><trkpt lat="42.6261661" lon="13.6513101"><ele>354.0</ele><time>2026-04-26T06:21:38.8Z</time></trkpt><trkpt lat="42.626103" lon="13.65112"><ele>358.6666666666667</ele><time>2026-04-26T06:21:39.8Z</time></trkpt><trkpt lat="42.6260375" lon="13.65093"><ele>363.33333333333337</ele><time>2026-04-26T06:21:40.799Z</time></trkpt><trkpt lat="42.6259636" lon="13.6507524"><ele>368.0</ele><time>2026-04-26T06:21:41.8Z</time></trkpt><trkpt lat="42.6258779" lon="13.6505839"><ele>368.0</ele><time>2026-04-26T06:21:42.801Z</time></trkpt><trkpt lat="42.6257703" lon="13.6504212"><ele>368.0</ele><time>2026-04-26T06:21:43.801Z</time></trkpt><trkpt lat="42.6256445" lon="13.6502755"><ele>368.0</ele><time>2026-04-26T06:21:44.801Z</time></trkpt><trkpt lat="42.6255032" lon="13.6501442"><ele>369.33333333333337</ele><time>2026-04-26T06:21:45.8Z</time></trkpt><trkpt lat="42.6253512" lon="13.6500308"><ele>370.6666666666667</ele><time>2026-04-26T06:21:46.8Z</time></trkpt><trkpt lat="42.6251974" lon="13.6499357"><ele>372.0</ele><time>2026-04-26T06:21:47.801Z</time></trkpt><trkpt lat="42.625043" lon="13.6498439"><ele>372.0</ele><time>2026-04-26T06:21:48.801Z</time></trkpt><trkpt lat="42.6248751" lon="13.6497432"><ele>372.0</ele><time>2026-04-26T06:21:49.8Z</time></trkpt><trkpt lat="42.6246937" lon="13.6496405"><ele>372.0</ele><time>2026-04-26T06:21:50.801Z</time></trkpt><trkpt lat="42.6244968" lon="13.6495194"><ele>374.0</ele><time>2026-04-26T06:21:51.8Z</time></trkpt><trkpt lat="42.6243009" lon="13.6493803"><ele>376.0</ele><time>2026-04-26T06:21:52.801Z</time></trkpt><trkpt lat="42.6241164" lon="13.6492462"><ele>378.0</ele><time>2026-04-26T06:21:53.801Z</time></trkpt><trkpt lat="42.6239354" lon="13.6491197"><ele>378.0</ele><time>2026-04-26T06:21:54.801Z</time></trkpt><trkpt lat="42.6237559" lon="13.6490008"><ele>378.0</ele><time>2026-04-26T06:21:55.8Z</time></trkpt><trkpt lat="42.6235749" lon="13.6488839"><ele>378.0</ele><time>2026-04-26T06:21:56.8Z</time></trkpt><trkpt lat="42.6233964" lon="13.6487705"><ele>381.33333333333337</ele><time>2026-04-26T06:21:57.801Z</time></trkpt><trkpt lat="42.623224" lon="13.648662"><ele>384.6666666666667</ele><time>2026-04-26T06:21:58.8Z</time></trkpt><trkpt lat="42.6230467" lon="13.6485484"><ele>388.0</ele><time>2026-04-26T06:21:59.801Z</time></trkpt><trkpt lat="42.6228755" lon="13.6484426"><ele>390.6666666666667</ele><time>2026-04-26T06:22:00.801Z</time></trkpt><trkpt lat="42.6227024" lon="13.6483329"><ele>393.33333333333337</ele><time>2026-04-26T06:22:01.8Z</time></trkpt><trkpt lat="42.6225303" lon="13.6482237"><ele>396.0</ele><time>2026-04-26T06:22:02.8Z</time></trkpt><trkpt lat="42.6190995" lon="13.6463428"><ele>396.0</ele><time>2026-04-26T06:22:19.8Z</time></trkpt><trkpt lat="42.6188792" lon="13.6463023"><ele>396.0</ele><time>2026-04-26T06:22:20.801Z</time></trkpt><trkpt lat="42.6186692" lon="13.6462546"><ele>396.0</ele><time>2026-04-26T06:22:21.801Z</time></trkpt><trkpt lat="42.6184568" lon="13.6462088"><ele>397.0</ele><time>2026-04-26T06:22:22.8Z</time></trkpt><trkpt lat="42.6182445" lon="13.6461594"><ele>398.0</ele><time>2026-04-26T06:22:23.801Z</time></trkpt><trkpt lat="42.6180292" lon="13.646105"><ele>399.0</ele><time>2026-04-26T06:22:24.799Z</time></trkpt><trkpt lat="42.6178154" lon="13.6460526"><ele>397.0</ele><time>2026-04-26T06:22:25.801Z</time></trkpt><trkpt lat="42.6176004" lon="13.6459989"><ele>395.0</ele><time>2026-04-26T06:22:26.799Z</time></trkpt><trkpt lat="42.617382" lon="13.645944"><ele>393.0</ele><time>2026-04-26T06:22:27.799Z</time></trkpt><trkpt lat="42.6171614" lon="13.6458919"><ele>386.5</ele><time>2026-04-26T06:22:28.801Z</time></trkpt><trkpt lat="42.6169381" lon="13.6458395"><ele>380.0</ele><time>2026-04-26T06:22:29.801Z</time></trkpt><trkpt lat="42.6167142" lon="13.6457835"><ele>380.0</ele><time>2026-04-26T06:22:30.801Z</time></trkpt><trkpt lat="42.6164893" lon="13.6457326"><ele>380.0</ele><time>2026-04-26T06:22:31.8Z</time></trkpt><trkpt lat="42.6162631" lon="13.6456875"><ele>377.33333333333337</ele><time>2026-04-26T06:22:32.799Z</time></trkpt><trkpt lat="42.616043" lon="13.6456596"><ele>374.6666666666667</ele><time>2026-04-26T06:22:33.801Z</time></trkpt><trkpt lat="42.6158233" lon="13.6456528"><ele>372.0</ele><time>2026-04-26T06:22:34.801Z</time></trkpt><trkpt lat="42.615601" lon="13.6456701"><ele>372.0</ele><time>2026-04-26T06:22:35.8Z</time></trkpt><trkpt lat="42.615378" lon="13.6457072"><ele>372.0</ele><time>2026-04-26T06:22:36.801Z</time></trkpt><trkpt lat="42.61516" lon="13.6457532"><ele>372.0</ele><time>2026-04-26T06:22:37.8Z</time></trkpt><trkpt lat="42.6149531" lon="13.6458056"><ele>368.3333333333333</ele><time>2026-04-26T06:22:38.8Z</time></trkpt><trkpt lat="42.6147493" lon="13.6458546"><ele>364.66666666666663</ele><time>2026-04-26T06:22:39.8Z</time></trkpt><trkpt lat="42.6145546" lon="13.6459035"><ele>361.0</ele><time>2026-04-26T06:22:40.8Z</time></trkpt><trkpt lat="42.6143638" lon="13.645948"><ele>361.0</ele><time>2026-04-26T06:22:41.8Z</time></trkpt><trkpt lat="42.6141794" lon="13.6459925"><ele>361.0</ele><time>2026-04-26T06:22:42.801Z</time></trkpt><trkpt lat="42.6140097" lon="13.6460337"><ele>361.0</ele><time>2026-04-26T06:22:43.801Z</time></trkpt><trkpt lat="42.6138461" lon="13.6460862"><ele>359.66666666666663</ele><time>2026-04-26T06:22:44.8Z</time></trkpt><trkpt lat="42.6136939" lon="13.6461519"><ele>358.3333333333333</ele><time>2026-04-26T06:22:45.799Z</time></trkpt><trkpt lat="42.6135481" lon="13.6462295"><ele>357.0</ele><time>2026-04-26T06:22:46.801Z</time></trkpt><trkpt lat="42.6134077" lon="13.6462916"><ele>357.0</ele><time>2026-04-26T06:22:47.801Z</time></trkpt><trkpt lat="42.6132772" lon="13.6463324"><ele>357.0</ele><time>2026-04-26T06:22:48.799Z</time></trkpt><trkpt lat="42.6131587" lon="13.646348"><ele>357.0</ele><time>2026-04-26T06:22:49.799Z</time></trkpt><trkpt lat="42.613056" lon="13.6463515"><ele>357.0</ele><time>2026-04-26T06:22:50.798Z</time></trkpt><trkpt lat="42.6129761" lon="13.6463665"><ele>357.0</ele><time>2026-04-26T06:22:51.798Z</time></trkpt><trkpt lat="42.6129147" lon="13.6464191"><ele>357.0</ele><time>2026-04-26T06:22:52.799Z</time></trkpt><trkpt lat="42.612869" lon="13.6465109"><ele>357.0</ele><time>2026-04-26T06:22:53.798Z</time></trkpt><trkpt lat="42.6128361" lon="13.6466533"><ele>357.0</ele><time>2026-04-26T06:22:54.799Z</time></trkpt><trkpt lat="42.6127886" lon="13.6468101"><ele>357.0</ele><time>2026-04-26T06:22:55.8Z</time></trkpt><trkpt lat="42.6127156" lon="13.6469781"><ele>356.0</ele><time>2026-04-26T06:22:56.798Z</time></trkpt><trkpt lat="42.6126094" lon="13.6471517"><ele>355.0</ele><time>2026-04-26T06:22:57.799Z</time></trkpt><trkpt lat="42.6124777" lon="13.6473352"><ele>354.0</ele><time>2026-04-26T06:22:58.799Z</time></trkpt><trkpt lat="42.6123261" lon="13.6475314"><ele>354.0</ele><time>2026-04-26T06:22:59.798Z</time></trkpt><trkpt lat="42.6121569" lon="13.6477569"><ele>354.0</ele><time>2026-04-26T06:23:00.798Z</time></trkpt><trkpt lat="42.6119857" lon="13.6479913"><ele>351.5</ele><time>2026-04-26T06:23:01.799Z</time></trkpt><trkpt lat="42.6118058" lon="13.6482325"><ele>349.0</ele><time>2026-04-26T06:23:02.799Z</time></trkpt><trkpt lat="42.6116231" lon="13.6484789"><ele>350.0</ele><time>2026-04-26T06:23:03.798Z</time></trkpt><trkpt lat="42.611438" lon="13.6487285"><ele>351.0</ele><time>2026-04-26T06:23:04.798Z</time></trkpt><trkpt lat="42.6112545" lon="13.6489765"><ele>356.5</ele><time>2026-04-26T06:23:05.799Z</time></trkpt><trkpt lat="42.6110691" lon="13.6492278"><ele>362.0</ele><time>2026-04-26T06:23:06.8Z</time></trkpt><trkpt lat="42.610885" lon="13.6494815"><ele>364.5</ele><time>2026-04-26T06:23:07.798Z</time></trkpt><trkpt lat="42.6107002" lon="13.6497338"><ele>367.0</ele><time>2026-04-26T06:23:08.799Z</time></trkpt><trkpt lat="42.6105139" lon="13.6499889"><ele>367.0</ele><time>2026-04-26T06:23:09.8Z</time></trkpt><trkpt lat="42.610334" lon="13.6502318"><ele>367.0</ele><time>2026-04-26T06:23:10.799Z</time></trkpt><trkpt lat="42.6101517" lon="13.6504768"><ele>368.0</ele><time>2026-04-26T06:23:11.8Z</time></trkpt><trkpt lat="42.6099695" lon="13.6507238"><ele>369.0</ele><time>2026-04-26T06:23:12.799Z</time></trkpt><trkpt lat="42.6097874" lon="13.6509705"><ele>365.0</ele><time>2026-04-26T06:23:13.798Z</time></trkpt><trkpt lat="42.6096024" lon="13.6512193"><ele>361.0</ele><time>2026-04-26T06:23:14.798Z</time></trkpt><trkpt lat="42.6094169" lon="13.6514704"><ele>361.0</ele><time>2026-04-26T06:23:15.799Z</time></trkpt><trkpt lat="42.6092294" lon="13.6517222"><ele>361.0</ele><time>2026-04-26T06:23:16.799Z</time></trkpt><trkpt lat="42.6090434" lon="13.6519793"><ele>354.5</ele><time>2026-04-26T06:23:17.799Z</time></trkpt><trkpt lat="42.6088591" lon="13.6522365"><ele>348.0</ele><time>2026-04-26T06:23:18.799Z</time></trkpt><trkpt lat="42.6086698" lon="13.6524967"><ele>349.0</ele><time>2026-04-26T06:23:19.8Z</time></trkpt><trkpt lat="42.6084853" lon="13.6527502"><ele>350.0</ele><time>2026-04-26T06:23:20.799Z</time></trkpt><trkpt lat="42.6083063" lon="13.6529976"><ele>350.0</ele><time>2026-04-26T06:23:21.8Z</time></trkpt><trkpt lat="42.6081261" lon="13.6532465"><ele>350.0</ele><time>2026-04-26T06:23:22.798Z</time></trkpt><trkpt lat="42.6079447" lon="13.6534969"><ele>351.0</ele><time>2026-04-26T06:23:23.798Z</time></trkpt><trkpt lat="42.6077659" lon="13.6537374"><ele>352.0</ele><time>2026-04-26T06:23:24.799Z</time></trkpt><trkpt lat="42.6075969" lon="13.6539626"><ele>352.0</ele><time>2026-04-26T06:23:25.799Z</time></trkpt><trkpt lat="42.6074367" lon="13.6541795"><ele>352.0</ele><time>2026-04-26T06:23:26.8Z</time></trkpt><trkpt lat="42.6072859" lon="13.6543898"><ele>352.0</ele><time>2026-04-26T06:23:27.8Z</time></trkpt><trkpt lat="42.6071381" lon="13.6545823"><ele>355.3333333333333</ele><time>2026-04-26T06:23:28.799Z</time></trkpt><trkpt lat="42.6069839" lon="13.6547598"><ele>358.6666666666667</ele><time>2026-04-26T06:23:29.8Z</time></trkpt><trkpt lat="42.6068193" lon="13.6549188"><ele>362.0</ele><time>2026-04-26T06:23:30.8Z</time></trkpt><trkpt lat="42.6066486" lon="13.655044"><ele>362.0</ele><time>2026-04-26T06:23:31.8Z</time></trkpt><trkpt lat="42.6064713" lon="13.6551406"><ele>362.0</ele><time>2026-04-26T06:23:32.8Z</time></trkpt><trkpt lat="42.6062882" lon="13.6552162"><ele>362.0</ele><time>2026-04-26T06:23:33.799Z</time></trkpt><trkpt lat="42.6060986" lon="13.6552671"><ele>368.33333333333337</ele><time>2026-04-26T06:23:34.8Z</time></trkpt><trkpt lat="42.6059069" lon="13.6552837"><ele>374.6666666666667</ele><time>2026-04-26T06:23:35.799Z</time></trkpt><trkpt lat="42.6057136" lon="13.6552756"><ele>381.0</ele><time>2026-04-26T06:23:36.799Z</time></trkpt><trkpt lat="42.6055228" lon="13.6552362"><ele>377.3333333333333</ele><time>2026-04-26T06:23:37.799Z</time></trkpt><trkpt lat="42.6053288" lon="13.6551725"><ele>373.66666666666663</ele><time>2026-04-26T06:23:38.798Z</time></trkpt><trkpt lat="42.6051352" lon="13.6550859"><ele>370.0</ele><time>2026-04-26T06:23:39.799Z</time></trkpt><trkpt lat="42.6049307" lon="13.6549882"><ele>370.0</ele><time>2026-04-26T06:23:40.798Z</time></trkpt><trkpt lat="42.6047206" lon="13.6548911"><ele>370.0</ele><time>2026-04-26T06:23:41.8Z</time></trkpt><trkpt lat="42.6045101" lon="13.6547909"><ele>370.0</ele><time>2026-04-26T06:23:42.799Z</time></trkpt><trkpt lat="42.6043005" lon="13.6546994"><ele>368.66666666666663</ele><time>2026-04-26T06:23:43.798Z</time></trkpt><trkpt lat="42.6040938" lon="13.6546039"><ele>367.3333333333333</ele><time>2026-04-26T06:23:44.799Z</time></trkpt><trkpt lat="42.6038894" lon="13.654506"><ele>366.0</ele><time>2026-04-26T06:23:45.799Z</time></trkpt><trkpt lat="42.603688" lon="13.6544077"><ele>368.0</ele><time>2026-04-26T06:23:46.799Z</time></trkpt><trkpt lat="42.6034864" lon="13.6543159"><ele>370.0</ele><time>2026-04-26T06:23:47.799Z</time></trkpt><trkpt lat="42.603286" lon="13.6542199"><ele>372.0</ele><time>2026-04-26T06:23:48.8Z</time></trkpt><trkpt lat="42.6030863" lon="13.6541257"><ele>372.0</ele><time>2026-04-26T06:23:49.799Z</time></trkpt><trkpt lat="42.6028882" lon="13.6540392"><ele>372.0</ele><time>2026-04-26T06:23:50.8Z</time></trkpt><trkpt lat="42.6026885" lon="13.6539708"><ele>372.0</ele><time>2026-04-26T06:23:51.8Z</time></trkpt><trkpt lat="42.6024864" lon="13.6539182"><ele>370.6666666666667</ele><time>2026-04-26T06:23:52.799Z</time></trkpt><trkpt lat="42.6022863" lon="13.6538772"><ele>369.33333333333337</ele><time>2026-04-26T06:23:53.798Z</time></trkpt><trkpt lat="42.6020829" lon="13.6538437"><ele>368.0</ele><time>2026-04-26T06:23:54.798Z</time></trkpt><trkpt lat="42.601877" lon="13.6538175"><ele>366.6666666666667</ele><time>2026-04-26T06:23:55.8Z</time></trkpt><trkpt lat="42.6016661" lon="13.6538103"><ele>365.3333333333333</ele><time>2026-04-26T06:23:56.798Z</time></trkpt><trkpt lat="42.6014548" lon="13.6538146"><ele>364.0</ele><time>2026-04-26T06:23:57.8Z</time></trkpt><trkpt lat="42.6012435" lon="13.6538352"><ele>363.0</ele><time>2026-04-26T06:23:58.8Z</time></trkpt><trkpt lat="42.6010338" lon="13.6538674"><ele>362.0</ele><time>2026-04-26T06:23:59.799Z</time></trkpt><trkpt lat="42.6008259" lon="13.6539141"><ele>361.0</ele><time>2026-04-26T06:24:00.799Z</time></trkpt><trkpt lat="42.6006284" lon="13.6539672"><ele>361.0</ele><time>2026-04-26T06:24:01.8Z</time></trkpt><trkpt lat="42.6004398" lon="13.654027"><ele>361.0</ele><time>2026-04-26T06:24:02.799Z</time></trkpt><trkpt lat="42.6002578" lon="13.6540948"><ele>361.0</ele><time>2026-04-26T06:24:03.798Z</time></trkpt><trkpt lat="42.6000805" lon="13.6541596"><ele>361.3333333333333</ele><time>2026-04-26T06:24:04.799Z</time></trkpt><trkpt lat="42.5999159" lon="13.6542187"><ele>361.6666666666667</ele><time>2026-04-26T06:24:05.799Z</time></trkpt><trkpt lat="42.5997548" lon="13.6542642"><ele>362.0</ele><time>2026-04-26T06:24:06.8Z</time></trkpt><trkpt lat="42.5995988" lon="13.6543002"><ele>361.25</ele><time>2026-04-26T06:24:07.8Z</time></trkpt><trkpt lat="42.5994516" lon="13.6543181"><ele>360.5</ele><time>2026-04-26T06:24:08.8Z</time></trkpt><trkpt lat="42.5993072" lon="13.654328"><ele>359.75</ele><time>2026-04-26T06:24:09.799Z</time></trkpt><trkpt lat="42.599165" lon="13.6543285"><ele>359.0</ele><time>2026-04-26T06:24:10.798Z</time></trkpt><trkpt lat="42.5990359" lon="13.6543187"><ele>359.0</ele><time>2026-04-26T06:24:11.798Z</time></trkpt><trkpt lat="42.598913" lon="13.6543088"><ele>359.0</ele><time>2026-04-26T06:24:12.798Z</time></trkpt><trkpt lat="42.5987815" lon="13.6542927"><ele>359.0</ele><time>2026-04-26T06:24:13.798Z</time></trkpt><trkpt lat="42.5986385" lon="13.6542637"><ele>359.0</ele><time>2026-04-26T06:24:14.8Z</time></trkpt><trkpt lat="42.5984801" lon="13.6542382"><ele>355.6666666666667</ele><time>2026-04-26T06:24:15.799Z</time></trkpt><trkpt lat="42.5983136" lon="13.6542119"><ele>352.3333333333333</ele><time>2026-04-26T06:24:16.8Z</time></trkpt><trkpt lat="42.598135" lon="13.6541792"><ele>349.0</ele><time>2026-04-26T06:24:17.8Z</time></trkpt><trkpt lat="42.5979504" lon="13.6541498"><ele>345.66666666666663</ele><time>2026-04-26T06:24:18.8Z</time></trkpt><trkpt lat="42.5977651" lon="13.654117"><ele>342.3333333333333</ele><time>2026-04-26T06:24:19.799Z</time></trkpt><trkpt lat="42.5975808" lon="13.6540873"><ele>339.0</ele><time>2026-04-26T06:24:20.799Z</time></trkpt><trkpt lat="42.5974015" lon="13.6540579"><ele>339.0</ele><time>2026-04-26T06:24:21.798Z</time></trkpt><trkpt lat="42.5972217" lon="13.6540226"><ele>339.0</ele><time>2026-04-26T06:24:22.799Z</time></trkpt><trkpt lat="42.5970435" lon="13.6539793"><ele>339.0</ele><time>2026-04-26T06:24:23.8Z</time></trkpt><trkpt lat="42.5968678" lon="13.6539304"><ele>337.6666666666667</ele><time>2026-04-26T06:24:24.8Z</time></trkpt><trkpt lat="42.5966954" lon="13.6538676"><ele>336.33333333333337</ele><time>2026-04-26T06:24:25.798Z</time></trkpt><trkpt lat="42.5965254" lon="13.6537968"><ele>335.0</ele><time>2026-04-26T06:24:26.8Z</time></trkpt><trkpt lat="42.5963569" lon="13.6537134"><ele>333.6666666666667</ele><time>2026-04-26T06:24:27.799Z</time></trkpt><trkpt lat="42.5961902" lon="13.6536171"><ele>332.3333333333333</ele><time>2026-04-26T06:24:28.8Z</time></trkpt><trkpt lat="42.5960238" lon="13.6535161"><ele>331.0</ele><time>2026-04-26T06:24:29.798Z</time></trkpt><trkpt lat="42.5958618" lon="13.6534144"><ele>331.0</ele><time>2026-04-26T06:24:30.799Z</time></trkpt><trkpt lat="42.5956996" lon="13.6533174"><ele>331.0</ele><time>2026-04-26T06:24:31.8Z</time></trkpt><trkpt lat="42.59554" lon="13.6532238"><ele>331.0</ele><time>2026-04-26T06:24:32.799Z</time></trkpt><trkpt lat="42.5953802" lon="13.6531299"><ele>328.3333333333333</ele><time>2026-04-26T06:24:33.798Z</time></trkpt><trkpt lat="42.5952216" lon="13.6530394"><ele>325.6666666666667</ele><time>2026-04-26T06:24:34.798Z</time></trkpt><trkpt lat="42.5950629" lon="13.6529414"><ele>323.0</ele><time>2026-04-26T06:24:35.799Z</time></trkpt><trkpt lat="42.5948975" lon="13.6528356"><ele>324.6666666666667</ele><time>2026-04-26T06:24:36.799Z</time></trkpt><trkpt lat="42.5947298" lon="13.6527154"><ele>326.3333333333333</ele><time>2026-04-26T06:24:37.8Z</time></trkpt><trkpt lat="42.5945672" lon="13.6525841"><ele>328.0</ele><time>2026-04-26T06:24:38.799Z</time></trkpt><trkpt lat="42.5944087" lon="13.6524454"><ele>324.66666666666663</ele><time>2026-04-26T06:24:39.799Z</time></trkpt><trkpt lat="42.5942558" lon="13.6523022"><ele>321.3333333333333</ele><time>2026-04-26T06:24:40.8Z</time></trkpt><trkpt lat="42.5941166" lon="13.6521543"><ele>318.0</ele><time>2026-04-26T06:24:41.799Z</time></trkpt><trkpt lat="42.5939903" lon="13.6520015"><ele>320.6666666666667</ele><time>2026-04-26T06:24:42.799Z</time></trkpt><trkpt lat="42.593872" lon="13.6518505"><ele>323.33333333333337</ele><time>2026-04-26T06:24:43.799Z</time></trkpt><trkpt lat="42.5937591" lon="13.6516968"><ele>326.0</ele><time>2026-04-26T06:24:44.8Z</time></trkpt><trkpt lat="42.5936444" lon="13.6515498"><ele>324.0</ele><time>2026-04-26T06:24:45.799Z</time></trkpt><trkpt lat="42.5935335" lon="13.6514066"><ele>322.0</ele><time>2026-04-26T06:24:46.8Z</time></trkpt><trkpt lat="42.5934268" lon="13.6512737"><ele>320.0</ele><time>2026-04-26T06:24:47.799Z</time></trkpt><trkpt lat="42.5933217" lon="13.6511426"><ele>318.0</ele><time>2026-04-26T06:24:48.8Z</time></trkpt><trkpt lat="42.5932249" lon="13.6510199"><ele>318.0</ele><time>2026-04-26T06:24:49.799Z</time></trkpt><trkpt lat="42.5931325" lon="13.6509082"><ele>318.0</ele><time>2026-04-26T06:24:50.8Z</time></trkpt><trkpt lat="42.5930485" lon="13.6508092"><ele>318.0</ele><time>2026-04-26T06:24:51.799Z</time></trkpt><trkpt lat="42.5929653" lon="13.6507119"><ele>318.0</ele><time>2026-04-26T06:24:52.799Z</time></trkpt><trkpt lat="42.5928904" lon="13.6506292"><ele>318.0</ele><time>2026-04-26T06:24:53.8Z</time></trkpt><trkpt lat="42.5928214" lon="13.6505567"><ele>315.5</ele><time>2026-04-26T06:24:54.799Z</time></trkpt><trkpt lat="42.5927578" lon="13.6504919"><ele>313.0</ele><time>2026-04-26T06:24:55.8Z</time></trkpt><trkpt lat="42.5926967" lon="13.650427"><ele>310.5</ele><time>2026-04-26T06:24:56.8Z</time></trkpt><trkpt lat="42.5926358" lon="13.6503569"><ele>308.0</ele><time>2026-04-26T06:24:57.799Z</time></trkpt><trkpt lat="42.5925663" lon="13.6502732"><ele>305.5</ele><time>2026-04-26T06:24:58.8Z</time></trkpt><trkpt lat="42.5924811" lon="13.6501753"><ele>303.0</ele><time>2026-04-26T06:24:59.8Z</time></trkpt><trkpt lat="42.5923927" lon="13.6500616"><ele>302.75</ele><time>2026-04-26T06:25:00.8Z</time></trkpt><trkpt lat="42.5923042" lon="13.649931"><ele>302.5</ele><time>2026-04-26T06:25:01.8Z</time></trkpt><trkpt lat="42.5922151" lon="13.6497985"><ele>302.25</ele><time>2026-04-26T06:25:02.799Z</time></trkpt><trkpt lat="42.5921075" lon="13.6496807"><ele>302.0</ele><time>2026-04-26T06:25:03.799Z</time></trkpt><trkpt lat="42.5919805" lon="13.6495803"><ele>301.0</ele><time>2026-04-26T06:25:04.799Z</time></trkpt><trkpt lat="42.5918401" lon="13.6494876"><ele>300.0</ele><time>2026-04-26T06:25:05.8Z</time></trkpt><trkpt lat="42.5916952" lon="13.6494016"><ele>299.0</ele><time>2026-04-26T06:25:06.8Z</time></trkpt><trkpt lat="42.5915419" lon="13.6493323"><ele>297.0</ele><time>2026-04-26T06:25:07.799Z</time></trkpt><trkpt lat="42.5913823" lon="13.6492779"><ele>295.0</ele><time>2026-04-26T06:25:08.799Z</time></trkpt><trkpt lat="42.591219" lon="13.649237"><ele>293.0</ele><time>2026-04-26T06:25:09.799Z</time></trkpt><trkpt lat="42.5910492" lon="13.6492135"><ele>291.33333333333337</ele><time>2026-04-26T06:25:10.799Z</time></trkpt><trkpt lat="42.5908772" lon="13.6492093"><ele>289.6666666666667</ele><time>2026-04-26T06:25:11.799Z</time></trkpt><trkpt lat="42.5907056" lon="13.6492198"><ele>288.0</ele><time>2026-04-26T06:25:12.8Z</time></trkpt><trkpt lat="42.5905284" lon="13.6492451"><ele>287.3333333333333</ele><time>2026-04-26T06:25:13.8Z</time></trkpt><trkpt lat="42.5903361" lon="13.6492991"><ele>286.66666666666663</ele><time>2026-04-26T06:25:14.799Z</time></trkpt><trkpt lat="42.590144" lon="13.6493835"><ele>286.0</ele><time>2026-04-26T06:25:15.799Z</time></trkpt><trkpt lat="42.5899545" lon="13.6495052"><ele>284.5</ele><time>2026-04-26T06:25:16.798Z</time></trkpt><trkpt lat="42.5897475" lon="13.6496723"><ele>283.0</ele><time>2026-04-26T06:25:17.799Z</time></trkpt><trkpt lat="42.5895279" lon="13.6498524"><ele>280.5</ele><time>2026-04-26T06:25:18.798Z</time></trkpt><trkpt lat="42.589303" lon="13.6500384"><ele>278.0</ele><time>2026-04-26T06:25:19.799Z</time></trkpt><trkpt lat="42.5890846" lon="13.6502188"><ele>276.5</ele><time>2026-04-26T06:25:20.799Z</time></trkpt><trkpt lat="42.5888783" lon="13.6503901"><ele>275.0</ele><time>2026-04-26T06:25:21.799Z</time></trkpt><trkpt lat="42.5886841" lon="13.6505612"><ele>275.6666666666667</ele><time>2026-04-26T06:25:22.8Z</time></trkpt><trkpt lat="42.5884995" lon="13.6507261"><ele>276.3333333333333</ele><time>2026-04-26T06:25:23.799Z</time></trkpt><trkpt lat="42.588321" lon="13.6508813"><ele>277.0</ele><time>2026-04-26T06:25:24.799Z</time></trkpt><trkpt lat="42.5881438" lon="13.6510194"><ele>275.0</ele><time>2026-04-26T06:25:25.799Z</time></trkpt><trkpt lat="42.5879627" lon="13.651126"><ele>273.0</ele><time>2026-04-26T06:25:26.8Z</time></trkpt><trkpt lat="42.5877707" lon="13.6512082"><ele>271.0</ele><time>2026-04-26T06:25:27.799Z</time></trkpt><trkpt lat="42.5875708" lon="13.6512648"><ele>271.0</ele><time>2026-04-26T06:25:28.799Z</time></trkpt><trkpt lat="42.587369" lon="13.6512911"><ele>271.0</ele><time>2026-04-26T06:25:29.8Z</time></trkpt><trkpt lat="42.5871703" lon="13.6512873"><ele>271.0</ele><time>2026-04-26T06:25:30.798Z</time></trkpt><trkpt lat="42.5869742" lon="13.6512495"><ele>272.66666666666663</ele><time>2026-04-26T06:25:31.798Z</time></trkpt><trkpt lat="42.5867839" lon="13.6511818"><ele>274.3333333333333</ele><time>2026-04-26T06:25:32.798Z</time></trkpt><trkpt lat="42.5865987" lon="13.6510897"><ele>276.0</ele><time>2026-04-26T06:25:33.8Z</time></trkpt><trkpt lat="42.5864219" lon="13.6509678"><ele>275.6666666666667</ele><time>2026-04-26T06:25:34.799Z</time></trkpt><trkpt lat="42.5862567" lon="13.6508181"><ele>275.33333333333337</ele><time>2026-04-26T06:25:35.799Z</time></trkpt><trkpt lat="42.5861053" lon="13.6506471"><ele>275.0</ele><time>2026-04-26T06:25:36.799Z</time></trkpt><trkpt lat="42.5859707" lon="13.6504576"><ele>277.33333333333337</ele><time>2026-04-26T06:25:37.799Z</time></trkpt><trkpt lat="42.5858493" lon="13.6502511"><ele>279.6666666666667</ele><time>2026-04-26T06:25:38.798Z</time></trkpt><trkpt lat="42.5857446" lon="13.650031"><ele>282.0</ele><time>2026-04-26T06:25:39.798Z</time></trkpt><trkpt lat="42.5856644" lon="13.6497939"><ele>282.0</ele><time>2026-04-26T06:25:40.798Z</time></trkpt><trkpt lat="42.585594" lon="13.6495502"><ele>282.0</ele><time>2026-04-26T06:25:41.799Z</time></trkpt><trkpt lat="42.5855446" lon="13.6492906"><ele>282.0</ele><time>2026-04-26T06:25:42.799Z</time></trkpt><trkpt lat="42.5854972" lon="13.6490208"><ele>282.6666666666667</ele><time>2026-04-26T06:25:43.798Z</time></trkpt><trkpt lat="42.5854524" lon="13.6487451"><ele>283.33333333333337</ele><time>2026-04-26T06:25:44.8Z</time></trkpt><trkpt lat="42.5854088" lon="13.6484725"><ele>284.0</ele><time>2026-04-26T06:25:45.799Z</time></trkpt><trkpt lat="42.5853635" lon="13.648202"><ele>277.33333333333337</ele><time>2026-04-26T06:25:46.8Z</time></trkpt><trkpt lat="42.5853157" lon="13.6479385"><ele>270.6666666666667</ele><time>2026-04-26T06:25:47.8Z</time></trkpt><trkpt lat="42.585269" lon="13.6476739"><ele>264.0</ele><time>2026-04-26T06:25:48.8Z</time></trkpt><trkpt lat="42.5852188" lon="13.6474116"><ele>264.0</ele><time>2026-04-26T06:25:49.799Z</time></trkpt><trkpt lat="42.5851718" lon="13.6471477"><ele>264.0</ele><time>2026-04-26T06:25:50.8Z</time></trkpt><trkpt lat="42.5851249" lon="13.6468816"><ele>264.0</ele><time>2026-04-26T06:25:51.799Z</time></trkpt><trkpt lat="42.585079" lon="13.6466193"><ele>263.6666666666667</ele><time>2026-04-26T06:25:52.799Z</time></trkpt><trkpt lat="42.5850302" lon="13.6463607"><ele>263.33333333333337</ele><time>2026-04-26T06:25:53.8Z</time></trkpt><trkpt lat="42.5849829" lon="13.6460955"><ele>263.0</ele><time>2026-04-26T06:25:54.8Z</time></trkpt><trkpt lat="42.5849359" lon="13.6458384"><ele>264.6666666666667</ele><time>2026-04-26T06:25:55.8Z</time></trkpt><trkpt lat="42.584895" lon="13.6455781"><ele>266.3333333333333</ele><time>2026-04-26T06:25:56.798Z</time></trkpt><trkpt lat="42.5848538" lon="13.6453194"><ele>268.0</ele><time>2026-04-26T06:25:57.8Z</time></trkpt><trkpt lat="42.5848061" lon="13.6450642"><ele>270.0</ele><time>2026-04-26T06:25:58.8Z</time></trkpt><trkpt lat="42.5847465" lon="13.6448078"><ele>272.0</ele><time>2026-04-26T06:25:59.8Z</time></trkpt><trkpt lat="42.5846786" lon="13.6445544"><ele>274.0</ele><time>2026-04-26T06:26:00.8Z</time></trkpt><trkpt lat="42.5846125" lon="13.6443006"><ele>276.0</ele><time>2026-04-26T06:26:01.8Z</time></trkpt><trkpt lat="42.5845426" lon="13.6440514"><ele>278.0</ele><time>2026-04-26T06:26:02.8Z</time></trkpt><trkpt lat="42.5844718" lon="13.6438025"><ele>280.0</ele><time>2026-04-26T06:26:03.8Z</time></trkpt><trkpt lat="42.5844012" lon="13.6435534"><ele>273.0</ele><time>2026-04-26T06:26:04.798Z</time></trkpt><trkpt lat="42.5843361" lon="13.6433122"><ele>266.0</ele><time>2026-04-26T06:26:05.799Z</time></trkpt><trkpt lat="42.5842781" lon="13.6430816"><ele>259.0</ele><time>2026-04-26T06:26:06.8Z</time></trkpt><trkpt lat="42.5842263" lon="13.6428574"><ele>262.0</ele><time>2026-04-26T06:26:07.8Z</time></trkpt><trkpt lat="42.5841805" lon="13.6426458"><ele>265.0</ele><time>2026-04-26T06:26:08.799Z</time></trkpt><trkpt lat="42.5841389" lon="13.6424437"><ele>268.0</ele><time>2026-04-26T06:26:09.8Z</time></trkpt><trkpt lat="42.5841059" lon="13.6422508"><ele>268.0</ele><time>2026-04-26T06:26:10.799Z</time></trkpt><trkpt lat="42.5840823" lon="13.6420693"><ele>268.0</ele><time>2026-04-26T06:26:11.799Z</time></trkpt><trkpt lat="42.5840699" lon="13.6418961"><ele>268.0</ele><time>2026-04-26T06:26:12.799Z</time></trkpt><trkpt lat="42.5840643" lon="13.64174"><ele>268.0</ele><time>2026-04-26T06:26:13.799Z</time></trkpt><trkpt lat="42.5840555" lon="13.6416036"><ele>267.75</ele><time>2026-04-26T06:26:14.8Z</time></trkpt><trkpt lat="42.5840224" lon="13.6414895"><ele>267.5</ele><time>2026-04-26T06:26:15.799Z</time></trkpt><trkpt lat="42.5839669" lon="13.6413803"><ele>267.25</ele><time>2026-04-26T06:26:16.8Z</time></trkpt><trkpt lat="42.583889" lon="13.6412428"><ele>267.0</ele><time>2026-04-26T06:26:17.8Z</time></trkpt><trkpt lat="42.5838207" lon="13.6410789"><ele>267.0</ele><time>2026-04-26T06:26:18.798Z</time></trkpt><trkpt lat="42.5837537" lon="13.6408829"><ele>267.0</ele><time>2026-04-26T06:26:19.799Z</time></trkpt><trkpt lat="42.583683" lon="13.6406698"><ele>267.0</ele><time>2026-04-26T06:26:20.8Z</time></trkpt><trkpt lat="42.5836142" lon="13.6404522"><ele>261.6666666666667</ele><time>2026-04-26T06:26:21.8Z</time></trkpt><trkpt lat="42.5835407" lon="13.6402288"><ele>256.33333333333337</ele><time>2026-04-26T06:26:22.799Z</time></trkpt><trkpt lat="42.5834705" lon="13.6400011"><ele>251.0</ele><time>2026-04-26T06:26:23.799Z</time></trkpt><trkpt lat="42.5834002" lon="13.6397767"><ele>251.0</ele><time>2026-04-26T06:26:24.8Z</time></trkpt><trkpt lat="42.5833318" lon="13.6395566"><ele>251.0</ele><time>2026-04-26T06:26:25.8Z</time></trkpt><trkpt lat="42.5832677" lon="13.639343"><ele>251.0</ele><time>2026-04-26T06:26:26.799Z</time></trkpt><trkpt lat="42.5832058" lon="13.6391374"><ele>251.25</ele><time>2026-04-26T06:26:27.799Z</time></trkpt><trkpt lat="42.583145" lon="13.638942"><ele>251.5</ele><time>2026-04-26T06:26:28.797Z</time></trkpt><trkpt lat="42.5830868" lon="13.6387562"><ele>251.75</ele><time>2026-04-26T06:26:29.798Z</time></trkpt><trkpt lat="42.5830314" lon="13.6385787"><ele>252.0</ele><time>2026-04-26T06:26:30.798Z</time></trkpt><trkpt lat="42.5829737" lon="13.6384147"><ele>251.0</ele><time>2026-04-26T06:26:31.798Z</time></trkpt><trkpt lat="42.5829219" lon="13.6382681"><ele>250.0</ele><time>2026-04-26T06:26:32.798Z</time></trkpt><trkpt lat="42.5828709" lon="13.638136"><ele>249.0</ele><time>2026-04-26T06:26:33.798Z</time></trkpt><trkpt lat="42.5828194" lon="13.6380089"><ele>248.0</ele><time>2026-04-26T06:26:34.798Z</time></trkpt><trkpt lat="42.5827658" lon="13.6378614"><ele>249.0</ele><time>2026-04-26T06:26:35.799Z</time></trkpt><trkpt lat="42.5827111" lon="13.6376968"><ele>250.0</ele><time>2026-04-26T06:26:36.798Z</time></trkpt><trkpt lat="42.5826617" lon="13.6375088"><ele>251.0</ele><time>2026-04-26T06:26:37.798Z</time></trkpt><trkpt lat="42.582614" lon="13.637302"><ele>252.0</ele><time>2026-04-26T06:26:38.797Z</time></trkpt><trkpt lat="42.5825636" lon="13.6370934"><ele>253.33333333333331</ele><time>2026-04-26T06:26:39.799Z</time></trkpt><trkpt lat="42.582502" lon="13.6368856"><ele>254.66666666666666</ele><time>2026-04-26T06:26:40.798Z</time></trkpt><trkpt lat="42.5824356" lon="13.6366866"><ele>256.0</ele><time>2026-04-26T06:26:41.799Z</time></trkpt><trkpt lat="42.5823654" lon="13.6364855"><ele>256.0</ele><time>2026-04-26T06:26:42.799Z</time></trkpt><trkpt lat="42.582295" lon="13.6362803"><ele>256.0</ele><time>2026-04-26T06:26:43.798Z</time></trkpt><trkpt lat="42.5822273" lon="13.6360782"><ele>256.0</ele><time>2026-04-26T06:26:44.798Z</time></trkpt><trkpt lat="42.5821615" lon="13.6358854"><ele>256.3333333333333</ele><time>2026-04-26T06:26:45.798Z</time></trkpt><trkpt lat="42.5820975" lon="13.6356948"><ele>256.6666666666667</ele><time>2026-04-26T06:26:46.799Z</time></trkpt><trkpt lat="42.5820399" lon="13.6355053"><ele>257.0</ele><time>2026-04-26T06:26:47.799Z</time></trkpt><trkpt lat="42.5819816" lon="13.6353193"><ele>256.0</ele><time>2026-04-26T06:26:48.798Z</time></trkpt><trkpt lat="42.5819256" lon="13.6351343"><ele>255.0</ele><time>2026-04-26T06:26:49.799Z</time></trkpt><trkpt lat="42.5818692" lon="13.6349542"><ele>254.0</ele><time>2026-04-26T06:26:50.798Z</time></trkpt><trkpt lat="42.5818153" lon="13.6347833"><ele>253.0</ele><time>2026-04-26T06:26:51.799Z</time></trkpt><trkpt lat="42.5817602" lon="13.6346173"><ele>252.75</ele><time>2026-04-26T06:26:52.799Z</time></trkpt><trkpt lat="42.5817028" lon="13.634454"><ele>252.5</ele><time>2026-04-26T06:26:53.798Z</time></trkpt><trkpt lat="42.5816473" lon="13.6342941"><ele>252.25</ele><time>2026-04-26T06:26:54.799Z</time></trkpt><trkpt lat="42.581597" lon="13.6341364"><ele>252.0</ele><time>2026-04-26T06:26:55.797Z</time></trkpt><trkpt lat="42.581551" lon="13.6339885"><ele>252.0</ele><time>2026-04-26T06:26:56.799Z</time></trkpt><trkpt lat="42.5815093" lon="13.6338532"><ele>252.0</ele><time>2026-04-26T06:26:57.799Z</time></trkpt><trkpt lat="42.5814672" lon="13.6337258"><ele>252.0</ele><time>2026-04-26T06:26:58.798Z</time></trkpt><trkpt lat="42.5814318" lon="13.6336077"><ele>252.0</ele><time>2026-04-26T06:26:59.797Z</time></trkpt><trkpt lat="42.5814022" lon="13.6334911"><ele>252.0</ele><time>2026-04-26T06:27:00.798Z</time></trkpt><trkpt lat="42.5813798" lon="13.6333631"><ele>252.8</ele><time>2026-04-26T06:27:01.799Z</time></trkpt><trkpt lat="42.5813735" lon="13.6332359"><ele>253.6</ele><time>2026-04-26T06:27:02.799Z</time></trkpt><trkpt lat="42.5813573" lon="13.6331307"><ele>254.40000000000003</ele><time>2026-04-26T06:27:03.798Z</time></trkpt><trkpt lat="42.5813187" lon="13.633032"><ele>255.20000000000002</ele><time>2026-04-26T06:27:04.799Z</time></trkpt><trkpt lat="42.5812564" lon="13.6329312"><ele>256.0</ele><time>2026-04-26T06:27:05.799Z</time></trkpt><trkpt lat="42.5811882" lon="13.6328092"><ele>253.5</ele><time>2026-04-26T06:27:06.799Z</time></trkpt><trkpt lat="42.5811273" lon="13.6326446"><ele>251.0</ele><time>2026-04-26T06:27:07.799Z</time></trkpt><trkpt lat="42.5810715" lon="13.6324744"><ele>248.5</ele><time>2026-04-26T06:27:08.798Z</time></trkpt><trkpt lat="42.5810129" lon="13.6322923"><ele>246.0</ele><time>2026-04-26T06:27:09.798Z</time></trkpt><trkpt lat="42.580953" lon="13.6320994"><ele>247.0</ele><time>2026-04-26T06:27:10.798Z</time></trkpt><trkpt lat="42.5808928" lon="13.6319069"><ele>248.0</ele><time>2026-04-26T06:27:11.799Z</time></trkpt><trkpt lat="42.5808363" lon="13.6317176"><ele>249.0</ele><time>2026-04-26T06:27:12.798Z</time></trkpt><trkpt lat="42.5807784" lon="13.6315332"><ele>249.0</ele><time>2026-04-26T06:27:13.797Z</time></trkpt><trkpt lat="42.580721" lon="13.6313582"><ele>249.0</ele><time>2026-04-26T06:27:14.798Z</time></trkpt><trkpt lat="42.5806702" lon="13.6311971"><ele>249.0</ele><time>2026-04-26T06:27:15.799Z</time></trkpt><trkpt lat="42.5806175" lon="13.6310443"><ele>249.0</ele><time>2026-04-26T06:27:16.798Z</time></trkpt><trkpt lat="42.5805576" lon="13.6308934"><ele>249.5</ele><time>2026-04-26T06:27:17.798Z</time></trkpt><trkpt lat="42.5804926" lon="13.6307332"><ele>250.0</ele><time>2026-04-26T06:27:18.799Z</time></trkpt><trkpt lat="42.5804299" lon="13.630552"><ele>250.5</ele><time>2026-04-26T06:27:19.798Z</time></trkpt><trkpt lat="42.5803728" lon="13.6303604"><ele>251.0</ele><time>2026-04-26T06:27:20.799Z</time></trkpt><trkpt lat="42.5803198" lon="13.6301599"><ele>254.0</ele><time>2026-04-26T06:27:21.799Z</time></trkpt><trkpt lat="42.5802694" lon="13.6299555"><ele>257.0</ele><time>2026-04-26T06:27:22.798Z</time></trkpt><trkpt lat="42.5802164" lon="13.6297466"><ele>260.0</ele><time>2026-04-26T06:27:23.799Z</time></trkpt><trkpt lat="42.5801571" lon="13.6295311"><ele>260.33333333333337</ele><time>2026-04-26T06:27:24.799Z</time></trkpt><trkpt lat="42.5800898" lon="13.6293036"><ele>260.6666666666667</ele><time>2026-04-26T06:27:25.799Z</time></trkpt><trkpt lat="42.5800146" lon="13.6290606"><ele>261.0</ele><time>2026-04-26T06:27:26.798Z</time></trkpt><trkpt lat="42.5799323" lon="13.6288091"><ele>262.0</ele><time>2026-04-26T06:27:27.799Z</time></trkpt><trkpt lat="42.5798491" lon="13.6285512"><ele>263.0</ele><time>2026-04-26T06:27:28.798Z</time></trkpt><trkpt lat="42.5797672" lon="13.6282906"><ele>264.0</ele><time>2026-04-26T06:27:29.798Z</time></trkpt><trkpt lat="42.5796874" lon="13.6280349"><ele>264.6666666666667</ele><time>2026-04-26T06:27:30.799Z</time></trkpt><trkpt lat="42.579607" lon="13.6277785"><ele>265.33333333333337</ele><time>2026-04-26T06:27:31.799Z</time></trkpt><trkpt lat="42.5795257" lon="13.6275274"><ele>266.0</ele><time>2026-04-26T06:27:32.798Z</time></trkpt><trkpt lat="42.5794424" lon="13.6272843"><ele>266.33333333333337</ele><time>2026-04-26T06:27:33.798Z</time></trkpt><trkpt lat="42.5793485" lon="13.6270502"><ele>266.6666666666667</ele><time>2026-04-26T06:27:34.799Z</time></trkpt><trkpt lat="42.5792464" lon="13.6268249"><ele>267.0</ele><time>2026-04-26T06:27:35.797Z</time></trkpt><trkpt lat="42.5791378" lon="13.6266205"><ele>267.0</ele><time>2026-04-26T06:27:36.798Z</time></trkpt><trkpt lat="42.5790261" lon="13.6264365"><ele>267.0</ele><time>2026-04-26T06:27:37.797Z</time></trkpt><trkpt lat="42.5789135" lon="13.6262529"><ele>267.0</ele><time>2026-04-26T06:27:38.798Z</time></trkpt><trkpt lat="42.5788105" lon="13.6260722"><ele>268.25</ele><time>2026-04-26T06:27:39.797Z</time></trkpt><trkpt lat="42.5787149" lon="13.6259023"><ele>269.5</ele><time>2026-04-26T06:27:40.799Z</time></trkpt><trkpt lat="42.5786226" lon="13.6257443"><ele>270.75</ele><time>2026-04-26T06:27:41.797Z</time></trkpt><trkpt lat="42.5785318" lon="13.6255997"><ele>272.0</ele><time>2026-04-26T06:27:42.799Z</time></trkpt><trkpt lat="42.5784309" lon="13.6254668"><ele>272.0</ele><time>2026-04-26T06:27:43.797Z</time></trkpt><trkpt lat="42.5783177" lon="13.6253637"><ele>272.0</ele><time>2026-04-26T06:27:44.798Z</time></trkpt><trkpt lat="42.5782046" lon="13.625284"><ele>272.0</ele><time>2026-04-26T06:27:45.798Z</time></trkpt><trkpt lat="42.5781035" lon="13.6252191"><ele>272.0</ele><time>2026-04-26T06:27:46.799Z</time></trkpt><trkpt lat="42.5780152" lon="13.6251496"><ele>269.8</ele><time>2026-04-26T06:27:47.799Z</time></trkpt><trkpt lat="42.5779429" lon="13.625074"><ele>267.6</ele><time>2026-04-26T06:27:48.799Z</time></trkpt><trkpt lat="42.5778954" lon="13.6249823"><ele>265.40000000000003</ele><time>2026-04-26T06:27:49.799Z</time></trkpt><trkpt lat="42.577875" lon="13.6248673"><ele>263.2</ele><time>2026-04-26T06:27:50.798Z</time></trkpt><trkpt lat="42.5778859" lon="13.6247318"><ele>261.0</ele><time>2026-04-26T06:27:51.798Z</time></trkpt><trkpt lat="42.5779251" lon="13.6245713"><ele>260.75</ele><time>2026-04-26T06:27:52.798Z</time></trkpt><trkpt lat="42.5779693" lon="13.6243965"><ele>260.5</ele><time>2026-04-26T06:27:53.799Z</time></trkpt><trkpt lat="42.5780064" lon="13.6242241"><ele>260.25</ele><time>2026-04-26T06:27:54.799Z</time></trkpt><trkpt lat="42.5780344" lon="13.6240434"><ele>260.0</ele><time>2026-04-26T06:27:55.798Z</time></trkpt><trkpt lat="42.5780467" lon="13.623857"><ele>260.0</ele><time>2026-04-26T06:27:56.798Z</time></trkpt><trkpt lat="42.5780415" lon="13.6236611"><ele>260.0</ele><time>2026-04-26T06:27:57.798Z</time></trkpt><trkpt lat="42.5780246" lon="13.6234644"><ele>260.0</ele><time>2026-04-26T06:27:58.797Z</time></trkpt><trkpt lat="42.5779967" lon="13.6232684"><ele>260.0</ele><time>2026-04-26T06:27:59.797Z</time></trkpt><trkpt lat="42.5779675" lon="13.6230627"><ele>262.0</ele><time>2026-04-26T06:28:00.798Z</time></trkpt><trkpt lat="42.5779358" lon="13.6228594"><ele>264.0</ele><time>2026-04-26T06:28:01.798Z</time></trkpt><trkpt lat="42.5779019" lon="13.6226607"><ele>266.0</ele><time>2026-04-26T06:28:02.798Z</time></trkpt><trkpt lat="42.5778688" lon="13.6224623"><ele>270.0</ele><time>2026-04-26T06:28:03.797Z</time></trkpt><trkpt lat="42.5778357" lon="13.6222683"><ele>274.0</ele><time>2026-04-26T06:28:04.799Z</time></trkpt><trkpt lat="42.5778053" lon="13.6220765"><ele>278.0</ele><time>2026-04-26T06:28:05.798Z</time></trkpt><trkpt lat="42.5777762" lon="13.6218907"><ele>282.0</ele><time>2026-04-26T06:28:06.797Z</time></trkpt><trkpt lat="42.5777516" lon="13.6217075"><ele>282.0</ele><time>2026-04-26T06:28:07.797Z</time></trkpt><trkpt lat="42.5777336" lon="13.621516"><ele>282.0</ele><time>2026-04-26T06:28:08.797Z</time></trkpt><trkpt lat="42.577727" lon="13.6213113"><ele>282.0</ele><time>2026-04-26T06:28:09.797Z</time></trkpt><trkpt lat="42.5777368" lon="13.6210965"><ele>282.6666666666667</ele><time>2026-04-26T06:28:10.799Z</time></trkpt><trkpt lat="42.5777658" lon="13.6208798"><ele>283.33333333333337</ele><time>2026-04-26T06:28:11.798Z</time></trkpt><trkpt lat="42.577817" lon="13.6206611"><ele>284.0</ele><time>2026-04-26T06:28:12.798Z</time></trkpt><trkpt lat="42.5778761" lon="13.620445"><ele>280.0</ele><time>2026-04-26T06:28:13.798Z</time></trkpt><trkpt lat="42.5779376" lon="13.6202276"><ele>276.0</ele><time>2026-04-26T06:28:14.798Z</time></trkpt><trkpt lat="42.5779975" lon="13.620014"><ele>272.0</ele><time>2026-04-26T06:28:15.798Z</time></trkpt><trkpt lat="42.5780561" lon="13.6197988"><ele>272.0</ele><time>2026-04-26T06:28:16.798Z</time></trkpt><trkpt lat="42.5781061" lon="13.6195786"><ele>272.0</ele><time>2026-04-26T06:28:17.797Z</time></trkpt><trkpt lat="42.5781379" lon="13.619352"><ele>272.0</ele><time>2026-04-26T06:28:18.797Z</time></trkpt><trkpt lat="42.5781421" lon="13.619127"><ele>273.33333333333337</ele><time>2026-04-26T06:28:19.797Z</time></trkpt><trkpt lat="42.5781332" lon="13.6189017"><ele>274.6666666666667</ele><time>2026-04-26T06:28:20.798Z</time></trkpt><trkpt lat="42.5781299" lon="13.6186729"><ele>276.0</ele><time>2026-04-26T06:28:21.798Z</time></trkpt><trkpt lat="42.5781411" lon="13.6184361"><ele>279.3333333333333</ele><time>2026-04-26T06:28:22.797Z</time></trkpt><trkpt lat="42.5781657" lon="13.6181999"><ele>282.66666666666663</ele><time>2026-04-26T06:28:23.798Z</time></trkpt><trkpt lat="42.5782035" lon="13.6179725"><ele>286.0</ele><time>2026-04-26T06:28:24.797Z</time></trkpt><trkpt lat="42.578252" lon="13.61775"><ele>287.66666666666663</ele><time>2026-04-26T06:28:25.799Z</time></trkpt><trkpt lat="42.5783091" lon="13.6175297"><ele>289.3333333333333</ele><time>2026-04-26T06:28:26.799Z</time></trkpt><trkpt lat="42.5783647" lon="13.6173163"><ele>291.0</ele><time>2026-04-26T06:28:27.799Z</time></trkpt><trkpt lat="42.5783945" lon="13.617097"><ele>292.3333333333333</ele><time>2026-04-26T06:28:28.798Z</time></trkpt><trkpt lat="42.5784036" lon="13.6168704"><ele>293.66666666666663</ele><time>2026-04-26T06:28:29.797Z</time></trkpt><trkpt lat="42.5784158" lon="13.6166408"><ele>295.0</ele><time>2026-04-26T06:28:30.798Z</time></trkpt><trkpt lat="42.5784387" lon="13.6164073"><ele>295.0</ele><time>2026-04-26T06:28:31.798Z</time></trkpt><trkpt lat="42.5784705" lon="13.6161823"><ele>295.0</ele><time>2026-04-26T06:28:32.799Z</time></trkpt><trkpt lat="42.5785125" lon="13.6159624"><ele>295.0</ele><time>2026-04-26T06:28:33.797Z</time></trkpt><trkpt lat="42.5785649" lon="13.6157504"><ele>294.66666666666663</ele><time>2026-04-26T06:28:34.797Z</time></trkpt><trkpt lat="42.5786331" lon="13.6155521"><ele>294.3333333333333</ele><time>2026-04-26T06:28:35.799Z</time></trkpt><trkpt lat="42.5787159" lon="13.6153624"><ele>294.0</ele><time>2026-04-26T06:28:36.798Z</time></trkpt><trkpt lat="42.5788055" lon="13.6151812"><ele>291.25</ele><time>2026-04-26T06:28:37.799Z</time></trkpt><trkpt lat="42.5788985" lon="13.6150142"><ele>288.5</ele><time>2026-04-26T06:28:38.798Z</time></trkpt><trkpt lat="42.578984" lon="13.6148547"><ele>285.75</ele><time>2026-04-26T06:28:39.799Z</time></trkpt><trkpt lat="42.5790637" lon="13.6147091"><ele>283.0</ele><time>2026-04-26T06:28:40.798Z</time></trkpt><trkpt lat="42.5791256" lon="13.6145688"><ele>283.75</ele><time>2026-04-26T06:28:41.799Z</time></trkpt><trkpt lat="42.5791643" lon="13.6144136"><ele>284.5</ele><time>2026-04-26T06:28:42.798Z</time></trkpt><trkpt lat="42.5791734" lon="13.614234"><ele>285.25</ele><time>2026-04-26T06:28:43.797Z</time></trkpt><trkpt lat="42.5791459" lon="13.6140543"><ele>286.0</ele><time>2026-04-26T06:28:44.797Z</time></trkpt><trkpt lat="42.5790881" lon="13.6138775"><ele>286.0</ele><time>2026-04-26T06:28:45.797Z</time></trkpt><trkpt lat="42.5790011" lon="13.6137062"><ele>286.0</ele><time>2026-04-26T06:28:46.797Z</time></trkpt><trkpt lat="42.5788949" lon="13.6135496"><ele>286.0</ele><time>2026-04-26T06:28:47.798Z</time></trkpt><trkpt lat="42.5787886" lon="13.6134029"><ele>284.25</ele><time>2026-04-26T06:28:48.797Z</time></trkpt><trkpt lat="42.5786904" lon="13.6132693"><ele>282.5</ele><time>2026-04-26T06:28:49.797Z</time></trkpt><trkpt lat="42.578601" lon="13.6131316"><ele>280.75</ele><time>2026-04-26T06:28:50.798Z</time></trkpt><trkpt lat="42.5785231" lon="13.6129768"><ele>279.0</ele><time>2026-04-26T06:28:51.798Z</time></trkpt><trkpt lat="42.5784618" lon="13.6128044"><ele>283.75</ele><time>2026-04-26T06:28:52.797Z</time></trkpt><trkpt lat="42.5784141" lon="13.6126272"><ele>288.5</ele><time>2026-04-26T06:28:53.798Z</time></trkpt><trkpt lat="42.5783738" lon="13.6124471"><ele>293.25</ele><time>2026-04-26T06:28:54.798Z</time></trkpt><trkpt lat="42.5783344" lon="13.6122693"><ele>298.0</ele><time>2026-04-26T06:28:55.798Z</time></trkpt><trkpt lat="42.5782958" lon="13.6120972"><ele>298.25</ele><time>2026-04-26T06:28:56.797Z</time></trkpt><trkpt lat="42.5782653" lon="13.611919"><ele>298.5</ele><time>2026-04-26T06:28:57.798Z</time></trkpt><trkpt lat="42.5782544" lon="13.6117328"><ele>298.75</ele><time>2026-04-26T06:28:58.798Z</time></trkpt><trkpt lat="42.5782706" lon="13.6115426"><ele>299.0</ele><time>2026-04-26T06:28:59.799Z</time></trkpt><trkpt lat="42.5783124" lon="13.6113519"><ele>299.0</ele><time>2026-04-26T06:29:00.799Z</time></trkpt><trkpt lat="42.5783764" lon="13.6111625"><ele>299.0</ele><time>2026-04-26T06:29:01.799Z</time></trkpt><trkpt lat="42.5784523" lon="13.6109789"><ele>299.0</ele><time>2026-04-26T06:29:02.799Z</time></trkpt><trkpt lat="42.5785337" lon="13.6107958"><ele>300.0</ele><time>2026-04-26T06:29:03.798Z</time></trkpt><trkpt lat="42.5786246" lon="13.610616"><ele>301.0</ele><time>2026-04-26T06:29:04.799Z</time></trkpt><trkpt lat="42.5787195" lon="13.6104398"><ele>302.0</ele><time>2026-04-26T06:29:05.798Z</time></trkpt><trkpt lat="42.5788129" lon="13.6102644"><ele>302.0</ele><time>2026-04-26T06:29:06.798Z</time></trkpt><trkpt lat="42.5789066" lon="13.6100881"><ele>302.0</ele><time>2026-04-26T06:29:07.797Z</time></trkpt><trkpt lat="42.5789987" lon="13.6099156"><ele>302.0</ele><time>2026-04-26T06:29:08.798Z</time></trkpt><trkpt lat="42.5790968" lon="13.6097503"><ele>302.0</ele><time>2026-04-26T06:29:09.798Z</time></trkpt><trkpt lat="42.5792008" lon="13.6096038"><ele>302.0</ele><time>2026-04-26T06:29:10.797Z</time></trkpt><trkpt lat="42.5793158" lon="13.6094749"><ele>302.0</ele><time>2026-04-26T06:29:11.799Z</time></trkpt><trkpt lat="42.5794396" lon="13.6093514"><ele>297.33333333333337</ele><time>2026-04-26T06:29:12.798Z</time></trkpt><trkpt lat="42.5795601" lon="13.6092097"><ele>292.6666666666667</ele><time>2026-04-26T06:29:13.798Z</time></trkpt><trkpt lat="42.5796678" lon="13.6090449"><ele>288.0</ele><time>2026-04-26T06:29:14.797Z</time></trkpt><trkpt lat="42.5797524" lon="13.6088645"><ele>288.0</ele><time>2026-04-26T06:29:15.798Z</time></trkpt><trkpt lat="42.5798177" lon="13.6086727"><ele>288.0</ele><time>2026-04-26T06:29:16.797Z</time></trkpt><trkpt lat="42.579859" lon="13.6084637"><ele>288.0</ele><time>2026-04-26T06:29:17.798Z</time></trkpt><trkpt lat="42.5798732" lon="13.6082457"><ele>290.5</ele><time>2026-04-26T06:29:18.798Z</time></trkpt><trkpt lat="42.5798659" lon="13.6080329"><ele>293.0</ele><time>2026-04-26T06:29:19.799Z</time></trkpt><trkpt lat="42.579853" lon="13.6078436"><ele>295.5</ele><time>2026-04-26T06:29:20.798Z</time></trkpt><trkpt lat="42.5798573" lon="13.6076516"><ele>298.0</ele><time>2026-04-26T06:29:21.797Z</time></trkpt><trkpt lat="42.5798899" lon="13.60746"><ele>299.5</ele><time>2026-04-26T06:29:22.798Z</time></trkpt><trkpt lat="42.5799446" lon="13.6072758"><ele>301.0</ele><time>2026-04-26T06:29:23.799Z</time></trkpt><trkpt lat="42.5800012" lon="13.6070858"><ele>302.5</ele><time>2026-04-26T06:29:24.799Z</time></trkpt><trkpt lat="42.580042" lon="13.6068867"><ele>304.0</ele><time>2026-04-26T06:29:25.798Z</time></trkpt><trkpt lat="42.5800539" lon="13.6066834"><ele>303.3333333333333</ele><time>2026-04-26T06:29:26.798Z</time></trkpt><trkpt lat="42.5800399" lon="13.6064794"><ele>302.6666666666667</ele><time>2026-04-26T06:29:27.798Z</time></trkpt><trkpt lat="42.5800052" lon="13.606278"><ele>302.0</ele><time>2026-04-26T06:29:28.798Z</time></trkpt><trkpt lat="42.5799454" lon="13.606074"><ele>302.0</ele><time>2026-04-26T06:29:29.799Z</time></trkpt><trkpt lat="42.5798796" lon="13.6058707"><ele>302.0</ele><time>2026-04-26T06:29:30.797Z</time></trkpt><trkpt lat="42.5798157" lon="13.6056622"><ele>302.0</ele><time>2026-04-26T06:29:31.798Z</time></trkpt><trkpt lat="42.5797633" lon="13.6054518"><ele>303.6666666666667</ele><time>2026-04-26T06:29:32.798Z</time></trkpt><trkpt lat="42.579715" lon="13.6052379"><ele>305.3333333333333</ele><time>2026-04-26T06:29:33.799Z</time></trkpt><trkpt lat="42.5796802" lon="13.6050187"><ele>307.0</ele><time>2026-04-26T06:29:34.799Z</time></trkpt><trkpt lat="42.5796526" lon="13.6047921"><ele>307.0</ele><time>2026-04-26T06:29:35.799Z</time></trkpt><trkpt lat="42.5796354" lon="13.6045526"><ele>307.0</ele><time>2026-04-26T06:29:36.797Z</time></trkpt><trkpt lat="42.5796257" lon="13.6043078"><ele>307.0</ele><time>2026-04-26T06:29:37.797Z</time></trkpt><trkpt lat="42.5796253" lon="13.6040563"><ele>305.3333333333333</ele><time>2026-04-26T06:29:38.796Z</time></trkpt><trkpt lat="42.5796282" lon="13.6038002"><ele>303.6666666666667</ele><time>2026-04-26T06:29:39.797Z</time></trkpt><trkpt lat="42.5796219" lon="13.6035486"><ele>302.0</ele><time>2026-04-26T06:29:40.797Z</time></trkpt><trkpt lat="42.5796027" lon="13.6032998"><ele>301.6666666666667</ele><time>2026-04-26T06:29:41.797Z</time></trkpt><trkpt lat="42.5795728" lon="13.6030564"><ele>301.3333333333333</ele><time>2026-04-26T06:29:42.798Z</time></trkpt><trkpt lat="42.5795344" lon="13.6028149"><ele>301.0</ele><time>2026-04-26T06:29:43.797Z</time></trkpt><trkpt lat="42.5794896" lon="13.6025786"><ele>305.3333333333333</ele><time>2026-04-26T06:29:44.798Z</time></trkpt><trkpt lat="42.5794326" lon="13.6023453"><ele>309.6666666666667</ele><time>2026-04-26T06:29:45.797Z</time></trkpt><trkpt lat="42.5793568" lon="13.602122"><ele>314.0</ele><time>2026-04-26T06:29:46.798Z</time></trkpt><trkpt lat="42.579262" lon="13.601907"><ele>314.0</ele><time>2026-04-26T06:29:47.798Z</time></trkpt><trkpt lat="42.5791568" lon="13.6017003"><ele>314.0</ele><time>2026-04-26T06:29:48.798Z</time></trkpt><trkpt lat="42.5790461" lon="13.6015033"><ele>314.0</ele><time>2026-04-26T06:29:49.797Z</time></trkpt><trkpt lat="42.5789332" lon="13.6013082"><ele>309.6666666666667</ele><time>2026-04-26T06:29:50.798Z</time></trkpt><trkpt lat="42.5788211" lon="13.601118"><ele>305.3333333333333</ele><time>2026-04-26T06:29:51.798Z</time></trkpt><trkpt lat="42.5787105" lon="13.6009282"><ele>301.0</ele><time>2026-04-26T06:29:52.796Z</time></trkpt><trkpt lat="42.5786035" lon="13.6007446"><ele>305.3333333333333</ele><time>2026-04-26T06:29:53.796Z</time></trkpt><trkpt lat="42.5784981" lon="13.6005573"><ele>309.6666666666667</ele><time>2026-04-26T06:29:54.796Z</time></trkpt><trkpt lat="42.5783976" lon="13.6003691"><ele>314.0</ele><time>2026-04-26T06:29:55.797Z</time></trkpt><trkpt lat="42.5783074" lon="13.6001763"><ele>314.0</ele><time>2026-04-26T06:29:56.797Z</time></trkpt><trkpt lat="42.5782367" lon="13.5999828"><ele>314.0</ele><time>2026-04-26T06:29:57.798Z</time></trkpt><trkpt lat="42.5781822" lon="13.5997776"><ele>314.0</ele><time>2026-04-26T06:29:58.797Z</time></trkpt><trkpt lat="42.578149" lon="13.5995646"><ele>312.6666666666667</ele><time>2026-04-26T06:29:59.797Z</time></trkpt><trkpt lat="42.5781294" lon="13.5993488"><ele>311.3333333333333</ele><time>2026-04-26T06:30:00.796Z</time></trkpt><trkpt lat="42.5781247" lon="13.5991332"><ele>310.0</ele><time>2026-04-26T06:30:01.796Z</time></trkpt><trkpt lat="42.5781363" lon="13.5989156"><ele>310.0</ele><time>2026-04-26T06:30:02.797Z</time></trkpt><trkpt lat="42.5781621" lon="13.5986987"><ele>310.0</ele><time>2026-04-26T06:30:03.798Z</time></trkpt><trkpt lat="42.5781991" lon="13.5984819"><ele>310.0</ele><time>2026-04-26T06:30:04.797Z</time></trkpt><trkpt lat="42.5782433" lon="13.5982558"><ele>311.0</ele><time>2026-04-26T06:30:05.797Z</time></trkpt><trkpt lat="42.5782879" lon="13.598036"><ele>312.0</ele><time>2026-04-26T06:30:06.796Z</time></trkpt><trkpt lat="42.5783299" lon="13.5978213"><ele>313.0</ele><time>2026-04-26T06:30:07.796Z</time></trkpt><trkpt lat="42.5783664" lon="13.5976194"><ele>312.75</ele><time>2026-04-26T06:30:08.797Z</time></trkpt><trkpt lat="42.5784039" lon="13.597431"><ele>312.5</ele><time>2026-04-26T06:30:09.797Z</time></trkpt><trkpt lat="42.5784224" lon="13.5972565"><ele>312.25</ele><time>2026-04-26T06:30:10.798Z</time></trkpt><trkpt lat="42.5784088" lon="13.5970911"><ele>312.0</ele><time>2026-04-26T06:30:11.798Z</time></trkpt><trkpt lat="42.5783587" lon="13.5969416"><ele>312.0</ele><time>2026-04-26T06:30:12.796Z</time></trkpt><trkpt lat="42.5782686" lon="13.5968215"><ele>312.0</ele><time>2026-04-26T06:30:13.797Z</time></trkpt><trkpt lat="42.578152" lon="13.5967302"><ele>312.0</ele><time>2026-04-26T06:30:14.797Z</time></trkpt><trkpt lat="42.5780287" lon="13.596622"><ele>312.0</ele><time>2026-04-26T06:30:15.796Z</time></trkpt><trkpt lat="42.5779173" lon="13.5964852"><ele>320.3333333333333</ele><time>2026-04-26T06:30:16.797Z</time></trkpt><trkpt lat="42.5778117" lon="13.5963402"><ele>328.66666666666663</ele><time>2026-04-26T06:30:17.798Z</time></trkpt><trkpt lat="42.5777088" lon="13.5961904"><ele>337.0</ele><time>2026-04-26T06:30:18.796Z</time></trkpt><trkpt lat="42.577612" lon="13.5960339"><ele>337.0</ele><time>2026-04-26T06:30:19.797Z</time></trkpt><trkpt lat="42.5775221" lon="13.5958692"><ele>337.0</ele><time>2026-04-26T06:30:20.798Z</time></trkpt><trkpt lat="42.577452" lon="13.5957062"><ele>337.0</ele><time>2026-04-26T06:30:21.796Z</time></trkpt><trkpt lat="42.5773847" lon="13.5955402"><ele>337.0</ele><time>2026-04-26T06:30:22.796Z</time></trkpt><trkpt lat="42.5773344" lon="13.5953666"><ele>333.25</ele><time>2026-04-26T06:30:23.798Z</time></trkpt><trkpt lat="42.5773128" lon="13.5951871"><ele>329.5</ele><time>2026-04-26T06:30:24.797Z</time></trkpt><trkpt lat="42.5773047" lon="13.5949903"><ele>325.75</ele><time>2026-04-26T06:30:25.797Z</time></trkpt><trkpt lat="42.5773024" lon="13.5947794"><ele>322.0</ele><time>2026-04-26T06:30:26.798Z</time></trkpt><trkpt lat="42.5773042" lon="13.594554"><ele>321.66666666666663</ele><time>2026-04-26T06:30:27.796Z</time></trkpt><trkpt lat="42.5773083" lon="13.594318"><ele>321.3333333333333</ele><time>2026-04-26T06:30:28.796Z</time></trkpt><trkpt lat="42.5773113" lon="13.5940821"><ele>321.0</ele><time>2026-04-26T06:30:29.796Z</time></trkpt><trkpt lat="42.5773134" lon="13.5938469"><ele>321.3333333333333</ele><time>2026-04-26T06:30:30.798Z</time></trkpt><trkpt lat="42.5773198" lon="13.5936128"><ele>321.66666666666663</ele><time>2026-04-26T06:30:31.798Z</time></trkpt><trkpt lat="42.5773266" lon="13.59338"><ele>322.0</ele><time>2026-04-26T06:30:32.798Z</time></trkpt><trkpt lat="42.5773339" lon="13.5931497"><ele>322.0</ele><time>2026-04-26T06:30:33.798Z</time></trkpt><trkpt lat="42.5773393" lon="13.5929234"><ele>322.0</ele><time>2026-04-26T06:30:34.797Z</time></trkpt><trkpt lat="42.5773395" lon="13.5927031"><ele>322.0</ele><time>2026-04-26T06:30:35.798Z</time></trkpt><trkpt lat="42.5773165" lon="13.5924863"><ele>322.3333333333333</ele><time>2026-04-26T06:30:36.798Z</time></trkpt><trkpt lat="42.5772637" lon="13.592281"><ele>322.6666666666667</ele><time>2026-04-26T06:30:37.796Z</time></trkpt><trkpt lat="42.5771819" lon="13.5920903"><ele>323.0</ele><time>2026-04-26T06:30:38.797Z</time></trkpt><trkpt lat="42.5770991" lon="13.5919181"><ele>328.25</ele><time>2026-04-26T06:30:39.797Z</time></trkpt><trkpt lat="42.5770156" lon="13.5917588"><ele>333.5</ele><time>2026-04-26T06:30:40.797Z</time></trkpt><trkpt lat="42.5769399" lon="13.5916007"><ele>338.75</ele><time>2026-04-26T06:30:41.796Z</time></trkpt><trkpt lat="42.5768657" lon="13.5914282"><ele>344.0</ele><time>2026-04-26T06:30:42.797Z</time></trkpt><trkpt lat="42.576809" lon="13.5912425"><ele>344.0</ele><time>2026-04-26T06:30:43.797Z</time></trkpt><trkpt lat="42.576778" lon="13.5910398"><ele>344.0</ele><time>2026-04-26T06:30:44.796Z</time></trkpt><trkpt lat="42.5767639" lon="13.5908322"><ele>344.0</ele><time>2026-04-26T06:30:45.798Z</time></trkpt><trkpt lat="42.5767588" lon="13.5906252"><ele>344.0</ele><time>2026-04-26T06:30:46.797Z</time></trkpt><trkpt lat="42.5767506" lon="13.59042"><ele>344.0</ele><time>2026-04-26T06:30:47.797Z</time></trkpt><trkpt lat="42.5767307" lon="13.5902132"><ele>344.0</ele><time>2026-04-26T06:30:48.797Z</time></trkpt><trkpt lat="42.5767007" lon="13.5900014"><ele>341.33333333333337</ele><time>2026-04-26T06:30:49.797Z</time></trkpt><trkpt lat="42.5766583" lon="13.5897885"><ele>338.6666666666667</ele><time>2026-04-26T06:30:50.797Z</time></trkpt><trkpt lat="42.5766002" lon="13.5895684"><ele>336.0</ele><time>2026-04-26T06:30:51.798Z</time></trkpt><trkpt lat="42.5765287" lon="13.5893477"><ele>333.3333333333333</ele><time>2026-04-26T06:30:52.797Z</time></trkpt><trkpt lat="42.5764475" lon="13.5891255"><ele>330.66666666666663</ele><time>2026-04-26T06:30:53.796Z</time></trkpt><trkpt lat="42.5763662" lon="13.5889022"><ele>328.0</ele><time>2026-04-26T06:30:54.797Z</time></trkpt><trkpt lat="42.5762794" lon="13.5886816"><ele>337.0</ele><time>2026-04-26T06:30:55.797Z</time></trkpt><trkpt lat="42.5761851" lon="13.5884692"><ele>346.0</ele><time>2026-04-26T06:30:56.798Z</time></trkpt><trkpt lat="42.5760808" lon="13.5882733"><ele>355.0</ele><time>2026-04-26T06:30:57.797Z</time></trkpt><trkpt lat="42.5759733" lon="13.5880891"><ele>355.0</ele><time>2026-04-26T06:30:58.797Z</time></trkpt><trkpt lat="42.5758716" lon="13.5878992"><ele>355.0</ele><time>2026-04-26T06:30:59.797Z</time></trkpt><trkpt lat="42.5757903" lon="13.5876911"><ele>355.0</ele><time>2026-04-26T06:31:00.798Z</time></trkpt><trkpt lat="42.5757267" lon="13.5874718"><ele>349.0</ele><time>2026-04-26T06:31:01.798Z</time></trkpt><trkpt lat="42.5756873" lon="13.5872558"><ele>343.0</ele><time>2026-04-26T06:31:02.798Z</time></trkpt><trkpt lat="42.575656" lon="13.5870424"><ele>337.0</ele><time>2026-04-26T06:31:03.796Z</time></trkpt><trkpt lat="42.5756321" lon="13.586838"><ele>335.0</ele><time>2026-04-26T06:31:04.797Z</time></trkpt><trkpt lat="42.5756135" lon="13.5866359"><ele>333.0</ele><time>2026-04-26T06:31:05.797Z</time></trkpt><trkpt lat="42.5755988" lon="13.586435"><ele>331.0</ele><time>2026-04-26T06:31:06.797Z</time></trkpt><trkpt lat="42.5755866" lon="13.5862336"><ele>329.0</ele><time>2026-04-26T06:31:07.797Z</time></trkpt><trkpt lat="42.5755743" lon="13.5860196"><ele>328.33333333333337</ele><time>2026-04-26T06:31:08.798Z</time></trkpt><trkpt lat="42.5755614" lon="13.5857992"><ele>327.6666666666667</ele><time>2026-04-26T06:31:09.798Z</time></trkpt><trkpt lat="42.5755457" lon="13.5855825"><ele>327.0</ele><time>2026-04-26T06:31:10.797Z</time></trkpt><trkpt lat="42.5755149" lon="13.5853844"><ele>326.5</ele><time>2026-04-26T06:31:11.798Z</time></trkpt><trkpt lat="42.5754664" lon="13.5851931"><ele>326.0</ele><time>2026-04-26T06:31:12.797Z</time></trkpt><trkpt lat="42.5754186" lon="13.5850111"><ele>325.5</ele><time>2026-04-26T06:31:13.797Z</time></trkpt><trkpt lat="42.5753955" lon="13.584832"><ele>325.0</ele><time>2026-04-26T06:31:14.797Z</time></trkpt><trkpt lat="42.5754026" lon="13.5846517"><ele>324.2</ele><time>2026-04-26T06:31:15.798Z</time></trkpt><trkpt lat="42.5754307" lon="13.5844942"><ele>323.4</ele><time>2026-04-26T06:31:16.796Z</time></trkpt><trkpt lat="42.5754596" lon="13.5843539"><ele>322.6</ele><time>2026-04-26T06:31:17.797Z</time></trkpt><trkpt lat="42.5754612" lon="13.5842163"><ele>321.8</ele><time>2026-04-26T06:31:18.798Z</time></trkpt><trkpt lat="42.5754193" lon="13.5840795"><ele>321.0</ele><time>2026-04-26T06:31:19.796Z</time></trkpt><trkpt lat="42.5753272" lon="13.5839425"><ele>328.25</ele><time>2026-04-26T06:31:20.798Z</time></trkpt><trkpt lat="42.5752294" lon="13.5838064"><ele>335.5</ele><time>2026-04-26T06:31:21.797Z</time></trkpt><trkpt lat="42.5751254" lon="13.5836705"><ele>342.75</ele><time>2026-04-26T06:31:22.797Z</time></trkpt><trkpt lat="42.5750284" lon="13.5835314"><ele>350.0</ele><time>2026-04-26T06:31:23.797Z</time></trkpt><trkpt lat="42.5749475" lon="13.5833803"><ele>350.0</ele><time>2026-04-26T06:31:24.797Z</time></trkpt><trkpt lat="42.5748874" lon="13.5832091"><ele>350.0</ele><time>2026-04-26T06:31:25.797Z</time></trkpt><trkpt lat="42.5748501" lon="13.5830222"><ele>350.0</ele><time>2026-04-26T06:31:26.797Z</time></trkpt><trkpt lat="42.5748384" lon="13.58283"><ele>350.0</ele><time>2026-04-26T06:31:27.796Z</time></trkpt><trkpt lat="42.5748318" lon="13.5826486"><ele>347.75</ele><time>2026-04-26T06:31:28.797Z</time></trkpt><trkpt lat="42.5748204" lon="13.5824752"><ele>345.5</ele><time>2026-04-26T06:31:29.796Z</time></trkpt><trkpt lat="42.5747717" lon="13.5823083"><ele>343.25</ele><time>2026-04-26T06:31:30.798Z</time></trkpt><trkpt lat="42.5747048" lon="13.5821548"><ele>341.0</ele><time>2026-04-26T06:31:31.797Z</time></trkpt><trkpt lat="42.5746341" lon="13.5820178"><ele>341.20000000000005</ele><time>2026-04-26T06:31:32.798Z</time></trkpt><trkpt lat="42.5745757" lon="13.5818849"><ele>341.40000000000003</ele><time>2026-04-26T06:31:33.796Z</time></trkpt><trkpt lat="42.5745303" lon="13.5817671"><ele>341.6</ele><time>2026-04-26T06:31:34.797Z</time></trkpt><trkpt lat="42.5745081" lon="13.5816466"><ele>341.8</ele><time>2026-04-26T06:31:35.797Z</time></trkpt><trkpt lat="42.5745193" lon="13.5815297"><ele>342.0</ele><time>2026-04-26T06:31:36.798Z</time></trkpt><trkpt lat="42.574566" lon="13.581421"><ele>342.0</ele><time>2026-04-26T06:31:37.796Z</time></trkpt><trkpt lat="42.5746403" lon="13.5813388"><ele>342.0</ele><time>2026-04-26T06:31:38.797Z</time></trkpt><trkpt lat="42.5747333" lon="13.5812918"><ele>342.0</ele><time>2026-04-26T06:31:39.797Z</time></trkpt><trkpt lat="42.5748319" lon="13.5812673"><ele>342.0</ele><time>2026-04-26T06:31:40.798Z</time></trkpt><trkpt lat="42.5749341" lon="13.5812331"><ele>342.0</ele><time>2026-04-26T06:31:41.797Z</time></trkpt><trkpt lat="42.5750192" lon="13.5811667"><ele>343.8</ele><time>2026-04-26T06:31:42.796Z</time></trkpt><trkpt lat="42.57509" lon="13.5810645"><ele>345.6</ele><time>2026-04-26T06:31:43.797Z</time></trkpt><trkpt lat="42.5751282" lon="13.580937"><ele>347.40000000000003</ele><time>2026-04-26T06:31:44.797Z</time></trkpt><trkpt lat="42.5751333" lon="13.5807901"><ele>349.20000000000005</ele><time>2026-04-26T06:31:45.796Z</time></trkpt><trkpt lat="42.5750916" lon="13.580665"><ele>351.0</ele><time>2026-04-26T06:31:46.798Z</time></trkpt><trkpt lat="42.5750071" lon="13.5805571"><ele>351.0</ele><time>2026-04-26T06:31:47.798Z</time></trkpt><trkpt lat="42.5748997" lon="13.5804644"><ele>351.0</ele><time>2026-04-26T06:31:48.797Z</time></trkpt><trkpt lat="42.5747898" lon="13.5803783"><ele>351.0</ele><time>2026-04-26T06:31:49.796Z</time></trkpt><trkpt lat="42.5746728" lon="13.5802984"><ele>351.0</ele><time>2026-04-26T06:31:50.797Z</time></trkpt><trkpt lat="42.5745431" lon="13.5802375"><ele>348.5</ele><time>2026-04-26T06:31:51.797Z</time></trkpt><trkpt lat="42.5744035" lon="13.5802231"><ele>346.0</ele><time>2026-04-26T06:31:52.796Z</time></trkpt><trkpt lat="42.5742652" lon="13.5802503"><ele>343.5</ele><time>2026-04-26T06:31:53.797Z</time></trkpt><trkpt lat="42.5741267" lon="13.5802914"><ele>341.0</ele><time>2026-04-26T06:31:54.796Z</time></trkpt><trkpt lat="42.5739885" lon="13.580329"><ele>341.0</ele><time>2026-04-26T06:31:55.798Z</time></trkpt><trkpt lat="42.5738432" lon="13.5803496"><ele>341.0</ele><time>2026-04-26T06:31:56.798Z</time></trkpt><trkpt lat="42.5736982" lon="13.5803512"><ele>341.0</ele><time>2026-04-26T06:31:57.796Z</time></trkpt><trkpt lat="42.5735572" lon="13.5803146"><ele>341.0</ele><time>2026-04-26T06:31:58.797Z</time></trkpt><trkpt lat="42.5734268" lon="13.5802459"><ele>343.75</ele><time>2026-04-26T06:31:59.797Z</time></trkpt><trkpt lat="42.5733014" lon="13.5801678"><ele>346.5</ele><time>2026-04-26T06:32:00.797Z</time></trkpt><trkpt lat="42.5731734" lon="13.5801083"><ele>349.25</ele><time>2026-04-26T06:32:01.796Z</time></trkpt><trkpt lat="42.5730414" lon="13.5800573"><ele>352.0</ele><time>2026-04-26T06:32:02.797Z</time></trkpt><trkpt lat="42.5729122" lon="13.5799873"><ele>356.5</ele><time>2026-04-26T06:32:03.798Z</time></trkpt><trkpt lat="42.5727908" lon="13.5798748"><ele>361.0</ele><time>2026-04-26T06:32:04.797Z</time></trkpt><trkpt lat="42.5726915" lon="13.579722"><ele>365.5</ele><time>2026-04-26T06:32:05.796Z</time></trkpt><trkpt lat="42.5726122" lon="13.579547"><ele>370.0</ele><time>2026-04-26T06:32:06.796Z</time></trkpt><trkpt lat="42.5725381" lon="13.5793685"><ele>370.0</ele><time>2026-04-26T06:32:07.798Z</time></trkpt><trkpt lat="42.5724867" lon="13.5791732"><ele>370.0</ele><time>2026-04-26T06:32:08.797Z</time></trkpt><trkpt lat="42.5724519" lon="13.578969"><ele>370.0</ele><time>2026-04-26T06:32:09.797Z</time></trkpt><trkpt lat="42.5724273" lon="13.5787589"><ele>365.0</ele><time>2026-04-26T06:32:10.797Z</time></trkpt><trkpt lat="42.5723984" lon="13.5785518"><ele>360.0</ele><time>2026-04-26T06:32:11.796Z</time></trkpt><trkpt lat="42.5723676" lon="13.5783496"><ele>355.0</ele><time>2026-04-26T06:32:12.796Z</time></trkpt><trkpt lat="42.5723336" lon="13.578154"><ele>355.0</ele><time>2026-04-26T06:32:13.796Z</time></trkpt><trkpt lat="42.572303" lon="13.5779605"><ele>355.0</ele><time>2026-04-26T06:32:14.797Z</time></trkpt><trkpt lat="42.5722699" lon="13.5777715"><ele>355.0</ele><time>2026-04-26T06:32:15.796Z</time></trkpt><trkpt lat="42.572231" lon="13.5775872"><ele>355.0</ele><time>2026-04-26T06:32:16.796Z</time></trkpt><trkpt lat="42.5721839" lon="13.5774072"><ele>353.0</ele><time>2026-04-26T06:32:17.797Z</time></trkpt><trkpt lat="42.572116" lon="13.5772376"><ele>351.0</ele><time>2026-04-26T06:32:18.797Z</time></trkpt><trkpt lat="42.5720354" lon="13.5770693"><ele>349.0</ele><time>2026-04-26T06:32:19.796Z</time></trkpt><trkpt lat="42.5719395" lon="13.5769041"><ele>347.0</ele><time>2026-04-26T06:32:20.797Z</time></trkpt><trkpt lat="42.5718385" lon="13.576745"><ele>355.33333333333337</ele><time>2026-04-26T06:32:21.798Z</time></trkpt><trkpt lat="42.5717339" lon="13.576593"><ele>363.6666666666667</ele><time>2026-04-26T06:32:22.797Z</time></trkpt><trkpt lat="42.5716151" lon="13.5764682"><ele>372.0</ele><time>2026-04-26T06:32:23.797Z</time></trkpt><trkpt lat="42.571484" lon="13.5763794"><ele>372.0</ele><time>2026-04-26T06:32:24.796Z</time></trkpt><trkpt lat="42.5713555" lon="13.5763192"><ele>372.0</ele><time>2026-04-26T06:32:25.798Z</time></trkpt><trkpt lat="42.5712321" lon="13.5762683"><ele>372.0</ele><time>2026-04-26T06:32:26.797Z</time></trkpt><trkpt lat="42.5711146" lon="13.5762127"><ele>372.0</ele><time>2026-04-26T06:32:27.797Z</time></trkpt><trkpt lat="42.5710052" lon="13.5761507"><ele>370.40000000000003</ele><time>2026-04-26T06:32:28.797Z</time></trkpt><trkpt lat="42.5709146" lon="13.5760733"><ele>368.8</ele><time>2026-04-26T06:32:29.798Z</time></trkpt><trkpt lat="42.5708413" lon="13.5759722"><ele>367.2</ele><time>2026-04-26T06:32:30.797Z</time></trkpt><trkpt lat="42.5707928" lon="13.5758405"><ele>365.6</ele><time>2026-04-26T06:32:31.796Z</time></trkpt><trkpt lat="42.5707641" lon="13.5756818"><ele>364.0</ele><time>2026-04-26T06:32:32.798Z</time></trkpt><trkpt lat="42.5707292" lon="13.5755"><ele>362.75</ele><time>2026-04-26T06:32:33.797Z</time></trkpt><trkpt lat="42.5706858" lon="13.5753146"><ele>361.5</ele><time>2026-04-26T06:32:34.797Z</time></trkpt><trkpt lat="42.5706272" lon="13.5751449"><ele>360.25</ele><time>2026-04-26T06:32:35.797Z</time></trkpt><trkpt lat="42.5705393" lon="13.5749923"><ele>359.0</ele><time>2026-04-26T06:32:36.797Z</time></trkpt><trkpt lat="42.5704155" lon="13.5748607"><ele>361.6666666666667</ele><time>2026-04-26T06:32:37.797Z</time></trkpt><trkpt lat="42.5702744" lon="13.5747566"><ele>364.3333333333333</ele><time>2026-04-26T06:32:38.797Z</time></trkpt><trkpt lat="42.5701278" lon="13.5746626"><ele>367.0</ele><time>2026-04-26T06:32:39.798Z</time></trkpt><trkpt lat="42.5699692" lon="13.5745775"><ele>364.66666666666663</ele><time>2026-04-26T06:32:40.797Z</time></trkpt><trkpt lat="42.5697992" lon="13.5745111"><ele>362.3333333333333</ele><time>2026-04-26T06:32:41.798Z</time></trkpt><trkpt lat="42.5696261" lon="13.574463"><ele>360.0</ele><time>2026-04-26T06:32:42.796Z</time></trkpt><trkpt lat="42.5694479" lon="13.5744287"><ele>360.0</ele><time>2026-04-26T06:32:43.797Z</time></trkpt><trkpt lat="42.569263" lon="13.5744173"><ele>360.0</ele><time>2026-04-26T06:32:44.796Z</time></trkpt><trkpt lat="42.5690747" lon="13.5744323"><ele>360.0</ele><time>2026-04-26T06:32:45.797Z</time></trkpt><trkpt lat="42.5689016" lon="13.5744586"><ele>360.0</ele><time>2026-04-26T06:32:46.796Z</time></trkpt><trkpt lat="42.5687389" lon="13.574488"><ele>360.0</ele><time>2026-04-26T06:32:47.797Z</time></trkpt><trkpt lat="42.568581" lon="13.5745154"><ele>360.0</ele><time>2026-04-26T06:32:48.797Z</time></trkpt><trkpt lat="42.5684207" lon="13.574549"><ele>369.33333333333337</ele><time>2026-04-26T06:32:49.797Z</time></trkpt><trkpt lat="42.5682602" lon="13.5746088"><ele>378.6666666666667</ele><time>2026-04-26T06:32:50.796Z</time></trkpt><trkpt lat="42.5680992" lon="13.5746892"><ele>388.0</ele><time>2026-04-26T06:32:51.797Z</time></trkpt><trkpt lat="42.5679318" lon="13.574773"><ele>388.0</ele><time>2026-04-26T06:32:52.797Z</time></trkpt><trkpt lat="42.567762" lon="13.5748451"><ele>388.0</ele><time>2026-04-26T06:32:53.798Z</time></trkpt><trkpt lat="42.5675928" lon="13.5748916"><ele>388.0</ele><time>2026-04-26T06:32:54.797Z</time></trkpt><trkpt lat="42.5674199" lon="13.574901"><ele>388.0</ele><time>2026-04-26T06:32:55.796Z</time></trkpt><trkpt lat="42.5672475" lon="13.5748823"><ele>388.0</ele><time>2026-04-26T06:32:56.797Z</time></trkpt><trkpt lat="42.5670769" lon="13.5748362"><ele>388.0</ele><time>2026-04-26T06:32:57.797Z</time></trkpt><trkpt lat="42.5669139" lon="13.5747767"><ele>396.0</ele><time>2026-04-26T06:32:58.798Z</time></trkpt><trkpt lat="42.5667516" lon="13.5747231"><ele>404.0</ele><time>2026-04-26T06:32:59.796Z</time></trkpt><trkpt lat="42.5665929" lon="13.5746858"><ele>412.0</ele><time>2026-04-26T06:33:00.797Z</time></trkpt><trkpt lat="42.5664398" lon="13.5746549"><ele>412.0</ele><time>2026-04-26T06:33:01.798Z</time></trkpt><trkpt lat="42.5662976" lon="13.5746314"><ele>412.0</ele><time>2026-04-26T06:33:02.797Z</time></trkpt><trkpt lat="42.5661515" lon="13.5746104"><ele>412.0</ele><time>2026-04-26T06:33:03.798Z</time></trkpt><trkpt lat="42.5660072" lon="13.5745734"><ele>412.0</ele><time>2026-04-26T06:33:04.797Z</time></trkpt><trkpt lat="42.5658698" lon="13.5745026"><ele>400.33333333333337</ele><time>2026-04-26T06:33:05.798Z</time></trkpt><trkpt lat="42.5657403" lon="13.5743969"><ele>388.6666666666667</ele><time>2026-04-26T06:33:06.797Z</time></trkpt><trkpt lat="42.565618" lon="13.5742687"><ele>377.0</ele><time>2026-04-26T06:33:07.797Z</time></trkpt><trkpt lat="42.5654958" lon="13.5741247"><ele>377.0</ele><time>2026-04-26T06:33:08.798Z</time></trkpt><trkpt lat="42.5653728" lon="13.5739749"><ele>377.0</ele><time>2026-04-26T06:33:09.797Z</time></trkpt><trkpt lat="42.5652483" lon="13.5738158"><ele>377.0</ele><time>2026-04-26T06:33:10.796Z</time></trkpt><trkpt lat="42.565126" lon="13.5736418"><ele>382.33333333333337</ele><time>2026-04-26T06:33:11.797Z</time></trkpt><trkpt lat="42.5650177" lon="13.5734674"><ele>387.6666666666667</ele><time>2026-04-26T06:33:12.797Z</time></trkpt><trkpt lat="42.5649236" lon="13.5732929"><ele>393.0</ele><time>2026-04-26T06:33:13.796Z</time></trkpt><trkpt lat="42.5648494" lon="13.5731092"><ele>393.0</ele><time>2026-04-26T06:33:14.796Z</time></trkpt><trkpt lat="42.5647959" lon="13.5729068"><ele>393.0</ele><time>2026-04-26T06:33:15.797Z</time></trkpt><trkpt lat="42.5647683" lon="13.5726913"><ele>393.0</ele><time>2026-04-26T06:33:16.797Z</time></trkpt><trkpt lat="42.5647588" lon="13.5724777"><ele>388.5</ele><time>2026-04-26T06:33:17.797Z</time></trkpt><trkpt lat="42.564765" lon="13.572276"><ele>384.0</ele><time>2026-04-26T06:33:18.797Z</time></trkpt><trkpt lat="42.5647812" lon="13.5720931"><ele>379.5</ele><time>2026-04-26T06:33:19.795Z</time></trkpt><trkpt lat="42.5647925" lon="13.5719123"><ele>375.0</ele><time>2026-04-26T06:33:20.796Z</time></trkpt><trkpt lat="42.5647766" lon="13.5717552"><ele>374.25</ele><time>2026-04-26T06:33:21.796Z</time></trkpt><trkpt lat="42.5647362" lon="13.5716132"><ele>373.5</ele><time>2026-04-26T06:33:22.797Z</time></trkpt><trkpt lat="42.5646636" lon="13.5714783"><ele>372.75</ele><time>2026-04-26T06:33:23.796Z</time></trkpt><trkpt lat="42.5645309" lon="13.5713638"><ele>372.0</ele><time>2026-04-26T06:33:24.797Z</time></trkpt><trkpt lat="42.5643989" lon="13.5712586"><ele>376.33333333333337</ele><time>2026-04-26T06:33:25.797Z</time></trkpt><trkpt lat="42.564268" lon="13.5711469"><ele>380.6666666666667</ele><time>2026-04-26T06:33:26.797Z</time></trkpt><trkpt lat="42.5641436" lon="13.5710226"><ele>385.0</ele><time>2026-04-26T06:33:27.797Z</time></trkpt><trkpt lat="42.5640355" lon="13.5708797"><ele>385.0</ele><time>2026-04-26T06:33:28.796Z</time></trkpt><trkpt lat="42.5639378" lon="13.5707229"><ele>385.0</ele><time>2026-04-26T06:33:29.796Z</time></trkpt><trkpt lat="42.563848" lon="13.5705599"><ele>385.0</ele><time>2026-04-26T06:33:30.796Z</time></trkpt><trkpt lat="42.5637699" lon="13.5703888"><ele>385.0</ele><time>2026-04-26T06:33:31.796Z</time></trkpt><trkpt lat="42.56371" lon="13.5702065"><ele>389.25</ele><time>2026-04-26T06:33:32.795Z</time></trkpt><trkpt lat="42.5636669" lon="13.5700283"><ele>393.5</ele><time>2026-04-26T06:33:33.797Z</time></trkpt><trkpt lat="42.5636527" lon="13.5698297"><ele>397.75</ele><time>2026-04-26T06:33:34.797Z</time></trkpt><trkpt lat="42.5636609" lon="13.5696248"><ele>402.0</ele><time>2026-04-26T06:33:35.796Z</time></trkpt><trkpt lat="42.5636656" lon="13.569406"><ele>402.0</ele><time>2026-04-26T06:33:36.796Z</time></trkpt><trkpt lat="42.5636323" lon="13.5691755"><ele>402.0</ele><time>2026-04-26T06:33:37.796Z</time></trkpt><trkpt lat="42.563568" lon="13.5689591"><ele>402.0</ele><time>2026-04-26T06:33:38.797Z</time></trkpt><trkpt lat="42.563502" lon="13.5687469"><ele>399.66666666666663</ele><time>2026-04-26T06:33:39.796Z</time></trkpt><trkpt lat="42.5634579" lon="13.5685258"><ele>397.3333333333333</ele><time>2026-04-26T06:33:40.796Z</time></trkpt><trkpt lat="42.5634354" lon="13.568302"><ele>395.0</ele><time>2026-04-26T06:33:41.797Z</time></trkpt><trkpt lat="42.5634272" lon="13.5680792"><ele>393.3333333333333</ele><time>2026-04-26T06:33:42.797Z</time></trkpt><trkpt lat="42.5634245" lon="13.5678587"><ele>391.66666666666663</ele><time>2026-04-26T06:33:43.796Z</time></trkpt><trkpt lat="42.5634299" lon="13.5676416"><ele>390.0</ele><time>2026-04-26T06:33:44.795Z</time></trkpt><trkpt lat="42.563435" lon="13.5674277"><ele>390.0</ele><time>2026-04-26T06:33:45.795Z</time></trkpt><trkpt lat="42.5634419" lon="13.5672095"><ele>390.0</ele><time>2026-04-26T06:33:46.796Z</time></trkpt><trkpt lat="42.5634465" lon="13.566994"><ele>390.0</ele><time>2026-04-26T06:33:47.796Z</time></trkpt><trkpt lat="42.5634611" lon="13.5667712"><ele>390.66666666666663</ele><time>2026-04-26T06:33:48.795Z</time></trkpt><trkpt lat="42.5634649" lon="13.5665622"><ele>391.3333333333333</ele><time>2026-04-26T06:33:49.795Z</time></trkpt><trkpt lat="42.5634529" lon="13.5663618"><ele>392.0</ele><time>2026-04-26T06:33:50.797Z</time></trkpt><trkpt lat="42.5634095" lon="13.5661684"><ele>390.3333333333333</ele><time>2026-04-26T06:33:51.797Z</time></trkpt><trkpt lat="42.5633349" lon="13.565985"><ele>388.66666666666663</ele><time>2026-04-26T06:33:52.796Z</time></trkpt><trkpt lat="42.5632363" lon="13.565806"><ele>387.0</ele><time>2026-04-26T06:33:53.797Z</time></trkpt><trkpt lat="42.5631194" lon="13.5656413"><ele>387.0</ele><time>2026-04-26T06:33:54.795Z</time></trkpt><trkpt lat="42.5629898" lon="13.5654935"><ele>387.0</ele><time>2026-04-26T06:33:55.796Z</time></trkpt><trkpt lat="42.5628504" lon="13.5653618"><ele>387.0</ele><time>2026-04-26T06:33:56.797Z</time></trkpt><trkpt lat="42.5627034" lon="13.5652513"><ele>387.0</ele><time>2026-04-26T06:33:57.797Z</time></trkpt><trkpt lat="42.5625499" lon="13.5651516"><ele>387.0</ele><time>2026-04-26T06:33:58.797Z</time></trkpt><trkpt lat="42.5623914" lon="13.565072"><ele>387.0</ele><time>2026-04-26T06:33:59.796Z</time></trkpt><trkpt lat="42.5622276" lon="13.5650088"><ele>387.0</ele><time>2026-04-26T06:34:00.797Z</time></trkpt><trkpt lat="42.5620637" lon="13.5649578"><ele>387.0</ele><time>2026-04-26T06:34:01.796Z</time></trkpt><trkpt lat="42.5619007" lon="13.5649077"><ele>387.0</ele><time>2026-04-26T06:34:02.795Z</time></trkpt><trkpt lat="42.5617406" lon="13.5648619"><ele>395.33333333333337</ele><time>2026-04-26T06:34:03.796Z</time></trkpt><trkpt lat="42.5615817" lon="13.5648194"><ele>403.6666666666667</ele><time>2026-04-26T06:34:04.796Z</time></trkpt><trkpt lat="42.5614265" lon="13.5647782"><ele>412.0</ele><time>2026-04-26T06:34:05.796Z</time></trkpt><trkpt lat="42.5612782" lon="13.5647225"><ele>420.5</ele><time>2026-04-26T06:34:06.797Z</time></trkpt><trkpt lat="42.5611389" lon="13.5646509"><ele>429.0</ele><time>2026-04-26T06:34:07.797Z</time></trkpt><trkpt lat="42.5591042" lon="13.5615029"><ele>429.0</ele><time>2026-04-26T06:34:24.796Z</time></trkpt><trkpt lat="42.5589828" lon="13.5612998"><ele>429.0</ele><time>2026-04-26T06:34:25.797Z</time></trkpt><trkpt lat="42.5588764" lon="13.5611201"><ele>429.0</ele><time>2026-04-26T06:34:26.797Z</time></trkpt><trkpt lat="42.5587662" lon="13.5609508"><ele>427.33333333333337</ele><time>2026-04-26T06:34:27.796Z</time></trkpt><trkpt lat="42.5586592" lon="13.5607898"><ele>425.6666666666667</ele><time>2026-04-26T06:34:28.796Z</time></trkpt><trkpt lat="42.5585472" lon="13.5606451"><ele>424.0</ele><time>2026-04-26T06:34:29.797Z</time></trkpt><trkpt lat="42.55842" lon="13.5605288"><ele>424.0</ele><time>2026-04-26T06:34:30.796Z</time></trkpt><trkpt lat="42.558281" lon="13.5604449"><ele>424.0</ele><time>2026-04-26T06:34:31.795Z</time></trkpt><trkpt lat="42.5581347" lon="13.5603919"><ele>424.0</ele><time>2026-04-26T06:34:32.797Z</time></trkpt><trkpt lat="42.5579835" lon="13.5603781"><ele>427.5</ele><time>2026-04-26T06:34:33.795Z</time></trkpt><trkpt lat="42.5578297" lon="13.5604056"><ele>431.0</ele><time>2026-04-26T06:34:34.796Z</time></trkpt><trkpt lat="42.5576863" lon="13.560461"><ele>434.5</ele><time>2026-04-26T06:34:35.796Z</time></trkpt><trkpt lat="42.5575456" lon="13.5605045"><ele>438.0</ele><time>2026-04-26T06:34:36.797Z</time></trkpt><trkpt lat="42.5573982" lon="13.5605121"><ele>438.0</ele><time>2026-04-26T06:34:37.797Z</time></trkpt><trkpt lat="42.5572512" lon="13.5604662"><ele>438.0</ele><time>2026-04-26T06:34:38.796Z</time></trkpt><trkpt lat="42.5571086" lon="13.5603893"><ele>438.0</ele><time>2026-04-26T06:34:39.796Z</time></trkpt><trkpt lat="42.5569724" lon="13.5602916"><ele>431.66666666666663</ele><time>2026-04-26T06:34:40.795Z</time></trkpt><trkpt lat="42.5568477" lon="13.5601841"><ele>425.3333333333333</ele><time>2026-04-26T06:34:41.797Z</time></trkpt><trkpt lat="42.5567226" lon="13.560076"><ele>419.0</ele><time>2026-04-26T06:34:42.795Z</time></trkpt><trkpt lat="42.5565935" lon="13.5599623"><ele>419.0</ele><time>2026-04-26T06:34:43.795Z</time></trkpt><trkpt lat="42.5564721" lon="13.5598259"><ele>419.0</ele><time>2026-04-26T06:34:44.797Z</time></trkpt><trkpt lat="42.5563553" lon="13.5596827"><ele>419.0</ele><time>2026-04-26T06:34:45.797Z</time></trkpt><trkpt lat="42.5562491" lon="13.5595364"><ele>419.25</ele><time>2026-04-26T06:34:46.796Z</time></trkpt><trkpt lat="42.5561561" lon="13.5593886"><ele>419.5</ele><time>2026-04-26T06:34:47.795Z</time></trkpt><trkpt lat="42.5560852" lon="13.5592339"><ele>419.75</ele><time>2026-04-26T06:34:48.796Z</time></trkpt><trkpt lat="42.5560091" lon="13.5590864"><ele>420.0</ele><time>2026-04-26T06:34:49.797Z</time></trkpt><trkpt lat="42.5559021" lon="13.5589688"><ele>420.0</ele><time>2026-04-26T06:34:50.795Z</time></trkpt><trkpt lat="42.555766" lon="13.5588768"><ele>420.0</ele><time>2026-04-26T06:34:51.796Z</time></trkpt><trkpt lat="42.5556143" lon="13.5588004"><ele>420.0</ele><time>2026-04-26T06:34:52.795Z</time></trkpt><trkpt lat="42.5554617" lon="13.5587318"><ele>416.0</ele><time>2026-04-26T06:34:53.796Z</time></trkpt><trkpt lat="42.5553102" lon="13.5586696"><ele>412.0</ele><time>2026-04-26T06:34:54.796Z</time></trkpt><trkpt lat="42.5551623" lon="13.5586333"><ele>408.0</ele><time>2026-04-26T06:34:55.795Z</time></trkpt><trkpt lat="42.5550103" lon="13.5586227"><ele>408.0</ele><time>2026-04-26T06:34:56.796Z</time></trkpt><trkpt lat="42.5548547" lon="13.5586085"><ele>408.0</ele><time>2026-04-26T06:34:57.797Z</time></trkpt><trkpt lat="42.5546968" lon="13.5585559"><ele>408.0</ele><time>2026-04-26T06:34:58.795Z</time></trkpt><trkpt lat="42.5545411" lon="13.5584781"><ele>413.33333333333337</ele><time>2026-04-26T06:34:59.796Z</time></trkpt><trkpt lat="42.5543871" lon="13.5583857"><ele>418.6666666666667</ele><time>2026-04-26T06:35:00.795Z</time></trkpt><trkpt lat="42.5542413" lon="13.5582842"><ele>424.0</ele><time>2026-04-26T06:35:01.796Z</time></trkpt><trkpt lat="42.5541066" lon="13.5581682"><ele>424.0</ele><time>2026-04-26T06:35:02.796Z</time></trkpt><trkpt lat="42.5539839" lon="13.5580403"><ele>424.0</ele><time>2026-04-26T06:35:03.796Z</time></trkpt><trkpt lat="42.553874" lon="13.5579113"><ele>424.0</ele><time>2026-04-26T06:35:04.796Z</time></trkpt><trkpt lat="42.5537734" lon="13.5577817"><ele>424.0</ele><time>2026-04-26T06:35:05.796Z</time></trkpt><trkpt lat="42.5536873" lon="13.5576457"><ele>423.75</ele><time>2026-04-26T06:35:06.795Z</time></trkpt><trkpt lat="42.5536113" lon="13.557509"><ele>423.5</ele><time>2026-04-26T06:35:07.797Z</time></trkpt><trkpt lat="42.5535417" lon="13.5573802"><ele>423.25</ele><time>2026-04-26T06:35:08.797Z</time></trkpt><trkpt lat="42.5534628" lon="13.5572708"><ele>423.0</ele><time>2026-04-26T06:35:09.797Z</time></trkpt><trkpt lat="42.5533705" lon="13.557201"><ele>423.0</ele><time>2026-04-26T06:35:10.795Z</time></trkpt><trkpt lat="42.5532734" lon="13.5571664"><ele>423.0</ele><time>2026-04-26T06:35:11.796Z</time></trkpt><trkpt lat="42.5531711" lon="13.5571377"><ele>423.0</ele><time>2026-04-26T06:35:12.797Z</time></trkpt><trkpt lat="42.5530822" lon="13.5570821"><ele>423.0</ele><time>2026-04-26T06:35:13.795Z</time></trkpt><trkpt lat="42.5530179" lon="13.5569959"><ele>423.0</ele><time>2026-04-26T06:35:14.797Z</time></trkpt><trkpt lat="42.5529879" lon="13.5568853"><ele>420.0</ele><time>2026-04-26T06:35:15.796Z</time></trkpt><trkpt lat="42.5529809" lon="13.5567492"><ele>417.0</ele><time>2026-04-26T06:35:16.796Z</time></trkpt><trkpt lat="42.5529984" lon="13.5565867"><ele>414.0</ele><time>2026-04-26T06:35:17.796Z</time></trkpt><trkpt lat="42.5530261" lon="13.5563928"><ele>411.0</ele><time>2026-04-26T06:35:18.796Z</time></trkpt><trkpt lat="42.5530584" lon="13.5561975"><ele>411.0</ele><time>2026-04-26T06:35:19.797Z</time></trkpt><trkpt lat="42.5530951" lon="13.5560111"><ele>411.0</ele><time>2026-04-26T06:35:20.796Z</time></trkpt><trkpt lat="42.5531324" lon="13.5558222"><ele>411.0</ele><time>2026-04-26T06:35:21.796Z</time></trkpt><trkpt lat="42.5531748" lon="13.5556353"><ele>411.0</ele><time>2026-04-26T06:35:22.796Z</time></trkpt><trkpt lat="42.5532309" lon="13.5554602"><ele>416.25</ele><time>2026-04-26T06:35:23.796Z</time></trkpt><trkpt lat="42.5532965" lon="13.5553056"><ele>421.5</ele><time>2026-04-26T06:35:24.797Z</time></trkpt><trkpt lat="42.5533732" lon="13.5551677"><ele>426.75</ele><time>2026-04-26T06:35:25.797Z</time></trkpt><trkpt lat="42.5534631" lon="13.5550273"><ele>432.0</ele><time>2026-04-26T06:35:26.795Z</time></trkpt><trkpt lat="42.5535604" lon="13.5548863"><ele>432.0</ele><time>2026-04-26T06:35:27.796Z</time></trkpt><trkpt lat="42.5536618" lon="13.5547455"><ele>432.0</ele><time>2026-04-26T06:35:28.796Z</time></trkpt><trkpt lat="42.5537713" lon="13.5546087"><ele>432.0</ele><time>2026-04-26T06:35:29.797Z</time></trkpt><trkpt lat="42.5538806" lon="13.554496"><ele>432.0</ele><time>2026-04-26T06:35:30.796Z</time></trkpt><trkpt lat="42.5539892" lon="13.5543886"><ele>429.5</ele><time>2026-04-26T06:35:31.795Z</time></trkpt><trkpt lat="42.5540793" lon="13.5542644"><ele>427.0</ele><time>2026-04-26T06:35:32.795Z</time></trkpt><trkpt lat="42.5541383" lon="13.5541026"><ele>424.5</ele><time>2026-04-26T06:35:33.797Z</time></trkpt><trkpt lat="42.5541976" lon="13.5539288"><ele>422.0</ele><time>2026-04-26T06:35:34.795Z</time></trkpt><trkpt lat="42.5542688" lon="13.5537496"><ele>419.0</ele><time>2026-04-26T06:35:35.795Z</time></trkpt><trkpt lat="42.554348" lon="13.5535907"><ele>416.0</ele><time>2026-04-26T06:35:36.796Z</time></trkpt><trkpt lat="42.5544464" lon="13.5534533"><ele>413.0</ele><time>2026-04-26T06:35:37.797Z</time></trkpt><trkpt lat="42.5545403" lon="13.553305"><ele>410.0</ele><time>2026-04-26T06:35:38.795Z</time></trkpt><trkpt lat="42.5546154" lon="13.5531278"><ele>410.0</ele><time>2026-04-26T06:35:39.796Z</time></trkpt><trkpt lat="42.5546777" lon="13.5529489"><ele>410.0</ele><time>2026-04-26T06:35:40.796Z</time></trkpt><trkpt lat="42.554723" lon="13.5527595"><ele>410.0</ele><time>2026-04-26T06:35:41.796Z</time></trkpt><trkpt lat="42.5547546" lon="13.5525813"><ele>410.0</ele><time>2026-04-26T06:35:42.796Z</time></trkpt><trkpt lat="42.5547759" lon="13.5524106"><ele>410.0</ele><time>2026-04-26T06:35:43.796Z</time></trkpt><trkpt lat="42.5547731" lon="13.5522576"><ele>410.0</ele><time>2026-04-26T06:35:44.797Z</time></trkpt><trkpt lat="42.5547231" lon="13.5521072"><ele>410.0</ele><time>2026-04-26T06:35:45.797Z</time></trkpt><trkpt lat="42.5546348" lon="13.5519813"><ele>410.0</ele><time>2026-04-26T06:35:46.795Z</time></trkpt><trkpt lat="42.5545538" lon="13.5518635"><ele>420.75</ele><time>2026-04-26T06:35:47.795Z</time></trkpt><trkpt lat="42.5544916" lon="13.5517135"><ele>431.5</ele><time>2026-04-26T06:35:48.797Z</time></trkpt><trkpt lat="42.5544467" lon="13.5515505"><ele>442.25</ele><time>2026-04-26T06:35:49.796Z</time></trkpt><trkpt lat="42.5544186" lon="13.5513725"><ele>453.0</ele><time>2026-04-26T06:35:50.795Z</time></trkpt><trkpt lat="42.554415" lon="13.5511886"><ele>453.5</ele><time>2026-04-26T06:35:51.796Z</time></trkpt><trkpt lat="42.5544193" lon="13.5510044"><ele>454.0</ele><time>2026-04-26T06:35:52.797Z</time></trkpt><trkpt lat="42.5544293" lon="13.5508145"><ele>454.5</ele><time>2026-04-26T06:35:53.796Z</time></trkpt><trkpt lat="42.5544364" lon="13.5506246"><ele>455.0</ele><time>2026-04-26T06:35:54.796Z</time></trkpt><trkpt lat="42.5544442" lon="13.5504392"><ele>454.5</ele><time>2026-04-26T06:35:55.796Z</time></trkpt><trkpt lat="42.5544561" lon="13.5502477"><ele>454.0</ele><time>2026-04-26T06:35:56.795Z</time></trkpt><trkpt lat="42.5544692" lon="13.5500562"><ele>453.5</ele><time>2026-04-26T06:35:57.796Z</time></trkpt><trkpt lat="42.5544862" lon="13.5498769"><ele>453.0</ele><time>2026-04-26T06:35:58.796Z</time></trkpt><trkpt lat="42.5545136" lon="13.5497095"><ele>451.25</ele><time>2026-04-26T06:35:59.795Z</time></trkpt><trkpt lat="42.5545484" lon="13.5495537"><ele>449.5</ele><time>2026-04-26T06:36:00.796Z</time></trkpt><trkpt lat="42.5545553" lon="13.5493876"><ele>447.75</ele><time>2026-04-26T06:36:01.796Z</time></trkpt><trkpt lat="42.5545217" lon="13.549226"><ele>446.0</ele><time>2026-04-26T06:36:02.795Z</time></trkpt><trkpt lat="42.5544708" lon="13.5490748"><ele>446.0</ele><time>2026-04-26T06:36:03.797Z</time></trkpt><trkpt lat="42.554429" lon="13.5489181"><ele>446.0</ele><time>2026-04-26T06:36:04.795Z</time></trkpt><trkpt lat="42.5543924" lon="13.5487517"><ele>446.0</ele><time>2026-04-26T06:36:05.796Z</time></trkpt><trkpt lat="42.5543418" lon="13.5486059"><ele>446.0</ele><time>2026-04-26T06:36:06.797Z</time></trkpt><trkpt lat="42.5542767" lon="13.5484705"><ele>443.0</ele><time>2026-04-26T06:36:07.797Z</time></trkpt><trkpt lat="42.5542108" lon="13.5483496"><ele>440.0</ele><time>2026-04-26T06:36:08.796Z</time></trkpt><trkpt lat="42.5541712" lon="13.5482153"><ele>437.0</ele><time>2026-04-26T06:36:09.796Z</time></trkpt><trkpt lat="42.5541657" lon="13.5480619"><ele>434.0</ele><time>2026-04-26T06:36:10.796Z</time></trkpt><trkpt lat="42.554181" lon="13.5479045"><ele>431.0</ele><time>2026-04-26T06:36:11.796Z</time></trkpt><trkpt lat="42.5542146" lon="13.547762"><ele>431.0</ele><time>2026-04-26T06:36:12.795Z</time></trkpt><trkpt lat="42.5542627" lon="13.5476355"><ele>431.0</ele><time>2026-04-26T06:36:13.796Z</time></trkpt><trkpt lat="42.5543405" lon="13.5475418"><ele>431.0</ele><time>2026-04-26T06:36:14.796Z</time></trkpt><trkpt lat="42.5544388" lon="13.547461"><ele>431.0</ele><time>2026-04-26T06:36:15.797Z</time></trkpt><trkpt lat="42.5545292" lon="13.5473286"><ele>428.0</ele><time>2026-04-26T06:36:16.796Z</time></trkpt><trkpt lat="42.5545991" lon="13.5471499"><ele>425.0</ele><time>2026-04-26T06:36:17.796Z</time></trkpt><trkpt lat="42.5546615" lon="13.5469549"><ele>422.0</ele><time>2026-04-26T06:36:18.796Z</time></trkpt><trkpt lat="42.5547231" lon="13.546759"><ele>422.0</ele><time>2026-04-26T06:36:19.797Z</time></trkpt><trkpt lat="42.5547835" lon="13.5465713"><ele>422.0</ele><time>2026-04-26T06:36:20.796Z</time></trkpt><trkpt lat="42.5548386" lon="13.546386"><ele>422.0</ele><time>2026-04-26T06:36:21.796Z</time></trkpt><trkpt lat="42.5548902" lon="13.5462107"><ele>422.0</ele><time>2026-04-26T06:36:22.797Z</time></trkpt><trkpt lat="42.5549455" lon="13.5460296"><ele>425.25</ele><time>2026-04-26T06:36:23.796Z</time></trkpt><trkpt lat="42.5550018" lon="13.5458495"><ele>428.5</ele><time>2026-04-26T06:36:24.796Z</time></trkpt><trkpt lat="42.5550593" lon="13.5456632"><ele>431.75</ele><time>2026-04-26T06:36:25.795Z</time></trkpt><trkpt lat="42.555116" lon="13.5454778"><ele>435.0</ele><time>2026-04-26T06:36:26.797Z</time></trkpt><trkpt lat="42.5551733" lon="13.5452913"><ele>432.0</ele><time>2026-04-26T06:36:27.796Z</time></trkpt><trkpt lat="42.555242" lon="13.5451054"><ele>429.0</ele><time>2026-04-26T06:36:28.796Z</time></trkpt><trkpt lat="42.555319" lon="13.5449182"><ele>426.0</ele><time>2026-04-26T06:36:29.796Z</time></trkpt><trkpt lat="42.5554027" lon="13.54474"><ele>426.0</ele><time>2026-04-26T06:36:30.796Z</time></trkpt><trkpt lat="42.5555002" lon="13.5445744"><ele>426.0</ele><time>2026-04-26T06:36:31.797Z</time></trkpt><trkpt lat="42.555617" lon="13.5444033"><ele>426.0</ele><time>2026-04-26T06:36:32.795Z</time></trkpt><trkpt lat="42.5557505" lon="13.5442405"><ele>435.66666666666663</ele><time>2026-04-26T06:36:33.796Z</time></trkpt><trkpt lat="42.5558908" lon="13.5440869"><ele>445.3333333333333</ele><time>2026-04-26T06:36:34.795Z</time></trkpt><trkpt lat="42.5560306" lon="13.5439373"><ele>455.0</ele><time>2026-04-26T06:36:35.797Z</time></trkpt><trkpt lat="42.5561673" lon="13.5437879"><ele>456.0</ele><time>2026-04-26T06:36:36.796Z</time></trkpt><trkpt lat="42.5563021" lon="13.5436474"><ele>457.0</ele><time>2026-04-26T06:36:37.797Z</time></trkpt><trkpt lat="42.5564438" lon="13.5435174"><ele>458.0</ele><time>2026-04-26T06:36:38.796Z</time></trkpt><trkpt lat="42.5566009" lon="13.5434057"><ele>458.0</ele><time>2026-04-26T06:36:39.796Z</time></trkpt><trkpt lat="42.5567686" lon="13.5433102"><ele>458.0</ele><time>2026-04-26T06:36:40.795Z</time></trkpt><trkpt lat="42.5569271" lon="13.5431871"><ele>458.0</ele><time>2026-04-26T06:36:41.795Z</time></trkpt><trkpt lat="42.5570734" lon="13.5430464"><ele>456.66666666666663</ele><time>2026-04-26T06:36:42.796Z</time></trkpt><trkpt lat="42.5572116" lon="13.542903"><ele>455.33333333333337</ele><time>2026-04-26T06:36:43.795Z</time></trkpt><trkpt lat="42.5573463" lon="13.5427621"><ele>454.0</ele><time>2026-04-26T06:36:44.797Z</time></trkpt><trkpt lat="42.5574687" lon="13.5426087"><ele>454.0</ele><time>2026-04-26T06:36:45.796Z</time></trkpt><trkpt lat="42.5575749" lon="13.5424424"><ele>454.0</ele><time>2026-04-26T06:36:46.796Z</time></trkpt><trkpt lat="42.5576899" lon="13.5422916"><ele>454.0</ele><time>2026-04-26T06:36:47.797Z</time></trkpt><trkpt lat="42.5578046" lon="13.5421564"><ele>453.6666666666667</ele><time>2026-04-26T06:36:48.796Z</time></trkpt><trkpt lat="42.557934" lon="13.5420309"><ele>453.33333333333337</ele><time>2026-04-26T06:36:49.796Z</time></trkpt><trkpt lat="42.5580653" lon="13.5419213"><ele>453.0</ele><time>2026-04-26T06:36:50.797Z</time></trkpt><trkpt lat="42.5581835" lon="13.5418136"><ele>453.0</ele><time>2026-04-26T06:36:51.796Z</time></trkpt><trkpt lat="42.5582986" lon="13.5417122"><ele>453.0</ele><time>2026-04-26T06:36:52.796Z</time></trkpt><trkpt lat="42.5584036" lon="13.5416118"><ele>453.0</ele><time>2026-04-26T06:36:53.796Z</time></trkpt><trkpt lat="42.5584949" lon="13.5414819"><ele>453.0</ele><time>2026-04-26T06:36:54.797Z</time></trkpt><trkpt lat="42.5585507" lon="13.5413129"><ele>461.66666666666663</ele><time>2026-04-26T06:36:55.796Z</time></trkpt><trkpt lat="42.5585795" lon="13.54111"><ele>470.3333333333333</ele><time>2026-04-26T06:36:56.795Z</time></trkpt><trkpt lat="42.5586211" lon="13.5409043"><ele>479.0</ele><time>2026-04-26T06:36:57.796Z</time></trkpt><trkpt lat="42.5586814" lon="13.5407071"><ele>475.25</ele><time>2026-04-26T06:36:58.797Z</time></trkpt><trkpt lat="42.5587359" lon="13.5405204"><ele>471.5</ele><time>2026-04-26T06:36:59.795Z</time></trkpt><trkpt lat="42.5587856" lon="13.5403334"><ele>467.75</ele><time>2026-04-26T06:37:00.796Z</time></trkpt><trkpt lat="42.5588377" lon="13.5401581"><ele>464.0</ele><time>2026-04-26T06:37:01.796Z</time></trkpt><trkpt lat="42.5588939" lon="13.5400079"><ele>464.0</ele><time>2026-04-26T06:37:02.796Z</time></trkpt><trkpt lat="42.558963" lon="13.5398894"><ele>464.0</ele><time>2026-04-26T06:37:03.796Z</time></trkpt><trkpt lat="42.5590609" lon="13.5398024"><ele>464.0</ele><time>2026-04-26T06:37:04.796Z</time></trkpt><trkpt lat="42.5591863" lon="13.5397492"><ele>464.0</ele><time>2026-04-26T06:37:05.795Z</time></trkpt><trkpt lat="42.5593199" lon="13.5397147"><ele>464.0</ele><time>2026-04-26T06:37:06.797Z</time></trkpt><trkpt lat="42.5594532" lon="13.5397145"><ele>464.0</ele><time>2026-04-26T06:37:07.797Z</time></trkpt><trkpt lat="42.5595753" lon="13.5397193"><ele>464.0</ele><time>2026-04-26T06:37:08.795Z</time></trkpt><trkpt lat="42.5597025" lon="13.5396865"><ele>464.0</ele><time>2026-04-26T06:37:09.795Z</time></trkpt><trkpt lat="42.5598331" lon="13.5396035"><ele>468.0</ele><time>2026-04-26T06:37:10.796Z</time></trkpt><trkpt lat="42.5599611" lon="13.5394745"><ele>472.0</ele><time>2026-04-26T06:37:11.796Z</time></trkpt><trkpt lat="42.5600799" lon="13.5393262"><ele>476.0</ele><time>2026-04-26T06:37:12.796Z</time></trkpt><trkpt lat="42.5601948" lon="13.5391615"><ele>476.0</ele><time>2026-04-26T06:37:13.797Z</time></trkpt><trkpt lat="42.5603005" lon="13.5390108"><ele>476.0</ele><time>2026-04-26T06:37:14.797Z</time></trkpt><trkpt lat="42.5604093" lon="13.5388778"><ele>476.0</ele><time>2026-04-26T06:37:15.796Z</time></trkpt><trkpt lat="42.5605249" lon="13.5387506"><ele>476.0</ele><time>2026-04-26T06:37:16.796Z</time></trkpt><trkpt lat="42.5606358" lon="13.538621"><ele>472.0</ele><time>2026-04-26T06:37:17.797Z</time></trkpt><trkpt lat="42.5607288" lon="13.5384522"><ele>468.0</ele><time>2026-04-26T06:37:18.797Z</time></trkpt><trkpt lat="42.5608002" lon="13.5382607"><ele>464.0</ele><time>2026-04-26T06:37:19.795Z</time></trkpt><trkpt lat="42.5608432" lon="13.5380545"><ele>469.3333333333333</ele><time>2026-04-26T06:37:20.797Z</time></trkpt><trkpt lat="42.5608901" lon="13.5378287"><ele>474.66666666666663</ele><time>2026-04-26T06:37:21.796Z</time></trkpt><trkpt lat="42.5609616" lon="13.537624"><ele>480.0</ele><time>2026-04-26T06:37:22.795Z</time></trkpt><trkpt lat="42.5610621" lon="13.5374349"><ele>480.0</ele><time>2026-04-26T06:37:23.796Z</time></trkpt><trkpt lat="42.5611661" lon="13.5372549"><ele>480.0</ele><time>2026-04-26T06:37:24.796Z</time></trkpt><trkpt lat="42.5612659" lon="13.5370705"><ele>480.0</ele><time>2026-04-26T06:37:25.795Z</time></trkpt><trkpt lat="42.5613594" lon="13.536885"><ele>476.33333333333337</ele><time>2026-04-26T06:37:26.796Z</time></trkpt><trkpt lat="42.5614388" lon="13.5366992"><ele>472.6666666666667</ele><time>2026-04-26T06:37:27.796Z</time></trkpt><trkpt lat="42.5615226" lon="13.5365066"><ele>469.0</ele><time>2026-04-26T06:37:28.796Z</time></trkpt><trkpt lat="42.5616293" lon="13.5363349"><ele>474.0</ele><time>2026-04-26T06:37:29.797Z</time></trkpt><trkpt lat="42.5617492" lon="13.536199"><ele>479.0</ele><time>2026-04-26T06:37:30.797Z</time></trkpt><trkpt lat="42.5618734" lon="13.5360874"><ele>484.0</ele><time>2026-04-26T06:37:31.796Z</time></trkpt><trkpt lat="42.561993" lon="13.5359668"><ele>481.75</ele><time>2026-04-26T06:37:32.796Z</time></trkpt><trkpt lat="42.5620889" lon="13.5358229"><ele>479.5</ele><time>2026-04-26T06:37:33.795Z</time></trkpt><trkpt lat="42.5621518" lon="13.5356371"><ele>477.25</ele><time>2026-04-26T06:37:34.797Z</time></trkpt><trkpt lat="42.562214" lon="13.5354592"><ele>475.0</ele><time>2026-04-26T06:37:35.795Z</time></trkpt><trkpt lat="42.5622312" lon="13.535188"><ele>475.0</ele><time>2026-04-26T06:37:36.796Z</time></trkpt><trkpt lat="42.5622661" lon="13.5349558"><ele>475.0</ele><time>2026-04-26T06:37:37.795Z</time></trkpt><trkpt lat="42.5623026" lon="13.5347162"><ele>475.0</ele><time>2026-04-26T06:37:38.797Z</time></trkpt><trkpt lat="42.5623342" lon="13.5344902"><ele>477.0</ele><time>2026-04-26T06:37:39.797Z</time></trkpt><trkpt lat="42.5623685" lon="13.5342648"><ele>479.0</ele><time>2026-04-26T06:37:40.794Z</time></trkpt><trkpt lat="42.562402" lon="13.5340397"><ele>481.0</ele><time>2026-04-26T06:37:41.795Z</time></trkpt><trkpt lat="42.5624334" lon="13.533812"><ele>482.0</ele><time>2026-04-26T06:37:42.794Z</time></trkpt><trkpt lat="42.5624634" lon="13.5335896"><ele>483.0</ele><time>2026-04-26T06:37:43.796Z</time></trkpt><trkpt lat="42.5624908" lon="13.533369"><ele>484.0</ele><time>2026-04-26T06:37:44.795Z</time></trkpt><trkpt lat="42.562523" lon="13.5331433"><ele>484.0</ele><time>2026-04-26T06:37:45.795Z</time></trkpt><trkpt lat="42.5625545" lon="13.5329214"><ele>484.0</ele><time>2026-04-26T06:37:46.794Z</time></trkpt><trkpt lat="42.562585" lon="13.532697"><ele>484.0</ele><time>2026-04-26T06:37:47.794Z</time></trkpt><trkpt lat="42.562617" lon="13.5324847"><ele>486.33333333333337</ele><time>2026-04-26T06:37:48.795Z</time></trkpt><trkpt lat="42.5626507" lon="13.5322739"><ele>488.66666666666663</ele><time>2026-04-26T06:37:49.795Z</time></trkpt><trkpt lat="42.5626892" lon="13.5320668"><ele>491.0</ele><time>2026-04-26T06:37:50.796Z</time></trkpt><trkpt lat="42.5627438" lon="13.5318518"><ele>493.3333333333333</ele><time>2026-04-26T06:37:51.796Z</time></trkpt><trkpt lat="42.562812" lon="13.5316492"><ele>495.66666666666663</ele><time>2026-04-26T06:37:52.795Z</time></trkpt><trkpt lat="42.5628814" lon="13.5314535"><ele>498.0</ele><time>2026-04-26T06:37:53.795Z</time></trkpt><trkpt lat="42.5629138" lon="13.531262"><ele>498.75</ele><time>2026-04-26T06:37:54.796Z</time></trkpt><trkpt lat="42.5629248" lon="13.5310786"><ele>499.5</ele><time>2026-04-26T06:37:55.795Z</time></trkpt><trkpt lat="42.5629058" lon="13.5308863"><ele>500.25</ele><time>2026-04-26T06:37:56.795Z</time></trkpt><trkpt lat="42.5628545" lon="13.5307067"><ele>501.0</ele><time>2026-04-26T06:37:57.795Z</time></trkpt><trkpt lat="42.562759" lon="13.5305508"><ele>501.0</ele><time>2026-04-26T06:37:58.794Z</time></trkpt><trkpt lat="42.5626358" lon="13.5304181"><ele>501.0</ele><time>2026-04-26T06:37:59.795Z</time></trkpt><trkpt lat="42.5625038" lon="13.5302851"><ele>501.0</ele><time>2026-04-26T06:38:00.796Z</time></trkpt><trkpt lat="42.5623849" lon="13.5301292"><ele>500.0</ele><time>2026-04-26T06:38:01.794Z</time></trkpt><trkpt lat="42.5622639" lon="13.5299826"><ele>499.0</ele><time>2026-04-26T06:38:02.795Z</time></trkpt><trkpt lat="42.5621266" lon="13.529853"><ele>498.0</ele><time>2026-04-26T06:38:03.796Z</time></trkpt><trkpt lat="42.5619816" lon="13.5297362"><ele>496.66666666666663</ele><time>2026-04-26T06:38:04.796Z</time></trkpt><trkpt lat="42.5618386" lon="13.529631"><ele>495.3333333333333</ele><time>2026-04-26T06:38:05.796Z</time></trkpt><trkpt lat="42.5616974" lon="13.5295252"><ele>494.0</ele><time>2026-04-26T06:38:06.794Z</time></trkpt><trkpt lat="42.56156" lon="13.5294206"><ele>494.0</ele><time>2026-04-26T06:38:07.796Z</time></trkpt><trkpt lat="42.5614172" lon="13.5293338"><ele>494.0</ele><time>2026-04-26T06:38:08.796Z</time></trkpt><trkpt lat="42.5612742" lon="13.5292564"><ele>494.0</ele><time>2026-04-26T06:38:09.796Z</time></trkpt><trkpt lat="42.5611308" lon="13.5291764"><ele>498.66666666666663</ele><time>2026-04-26T06:38:10.795Z</time></trkpt><trkpt lat="42.5609807" lon="13.5290934"><ele>503.33333333333337</ele><time>2026-04-26T06:38:11.794Z</time></trkpt><trkpt lat="42.5608305" lon="13.5289955"><ele>508.0</ele><time>2026-04-26T06:38:12.795Z</time></trkpt><trkpt lat="42.5606858" lon="13.5288784"><ele>508.0</ele><time>2026-04-26T06:38:13.796Z</time></trkpt><trkpt lat="42.5605528" lon="13.5287414"><ele>508.0</ele><time>2026-04-26T06:38:14.796Z</time></trkpt><trkpt lat="42.5604337" lon="13.5285847"><ele>508.0</ele><time>2026-04-26T06:38:15.796Z</time></trkpt><trkpt lat="42.5603328" lon="13.5284047"><ele>507.6666666666667</ele><time>2026-04-26T06:38:16.795Z</time></trkpt><trkpt lat="42.5602293" lon="13.5282137"><ele>507.33333333333337</ele><time>2026-04-26T06:38:17.796Z</time></trkpt><trkpt lat="42.5601091" lon="13.5280329"><ele>507.0</ele><time>2026-04-26T06:38:18.796Z</time></trkpt><trkpt lat="42.5599719" lon="13.5278717"><ele>507.0</ele><time>2026-04-26T06:38:19.795Z</time></trkpt><trkpt lat="42.5598261" lon="13.5277185"><ele>507.0</ele><time>2026-04-26T06:38:20.795Z</time></trkpt><trkpt lat="42.5596701" lon="13.5275827"><ele>507.0</ele><time>2026-04-26T06:38:21.796Z</time></trkpt><trkpt lat="42.5595063" lon="13.5274643"><ele>512.0</ele><time>2026-04-26T06:38:22.796Z</time></trkpt><trkpt lat="42.5593403" lon="13.5273508"><ele>517.0</ele><time>2026-04-26T06:38:23.796Z</time></trkpt><trkpt lat="42.5591841" lon="13.5272217"><ele>522.0</ele><time>2026-04-26T06:38:24.795Z</time></trkpt><trkpt lat="42.5590403" lon="13.527083"><ele>518.6666666666666</ele><time>2026-04-26T06:38:25.796Z</time></trkpt><trkpt lat="42.5589101" lon="13.5269452"><ele>515.3333333333333</ele><time>2026-04-26T06:38:26.795Z</time></trkpt><trkpt lat="42.5587995" lon="13.5267973"><ele>512.0</ele><time>2026-04-26T06:38:27.795Z</time></trkpt><trkpt lat="42.5587101" lon="13.5266396"><ele>515.25</ele><time>2026-04-26T06:38:28.795Z</time></trkpt><trkpt lat="42.5586342" lon="13.5264908"><ele>518.5</ele><time>2026-04-26T06:38:29.795Z</time></trkpt><trkpt lat="42.5585307" lon="13.5263691"><ele>521.75</ele><time>2026-04-26T06:38:30.795Z</time></trkpt><trkpt lat="42.5584017" lon="13.5262712"><ele>525.0</ele><time>2026-04-26T06:38:31.796Z</time></trkpt><trkpt lat="42.5582468" lon="13.5262428"><ele>525.0</ele><time>2026-04-26T06:38:32.794Z</time></trkpt><trkpt lat="42.5581077" lon="13.5262576"><ele>525.0</ele><time>2026-04-26T06:38:33.796Z</time></trkpt><trkpt lat="42.5579791" lon="13.5262868"><ele>525.0</ele><time>2026-04-26T06:38:34.795Z</time></trkpt><trkpt lat="42.5578574" lon="13.526285"><ele>525.0</ele><time>2026-04-26T06:38:35.796Z</time></trkpt><trkpt lat="42.5577318" lon="13.5262386"><ele>522.6666666666666</ele><time>2026-04-26T06:38:36.795Z</time></trkpt><trkpt lat="42.5576037" lon="13.5261546"><ele>520.3333333333333</ele><time>2026-04-26T06:38:37.795Z</time></trkpt><trkpt lat="42.557472" lon="13.5260445"><ele>518.0</ele><time>2026-04-26T06:38:38.796Z</time></trkpt><trkpt lat="42.5573381" lon="13.5259106"><ele>518.0</ele><time>2026-04-26T06:38:39.795Z</time></trkpt><trkpt lat="42.557202" lon="13.5257582"><ele>518.0</ele><time>2026-04-26T06:38:40.795Z</time></trkpt><trkpt lat="42.557062" lon="13.5256039"><ele>518.0</ele><time>2026-04-26T06:38:41.795Z</time></trkpt><trkpt lat="42.5569222" lon="13.5254509"><ele>519.6666666666666</ele><time>2026-04-26T06:38:42.794Z</time></trkpt><trkpt lat="42.5567913" lon="13.5253043"><ele>521.3333333333334</ele><time>2026-04-26T06:38:43.795Z</time></trkpt><trkpt lat="42.5566663" lon="13.5251692"><ele>523.0</ele><time>2026-04-26T06:38:44.794Z</time></trkpt><trkpt lat="42.556549" lon="13.5250334"><ele>523.0</ele><time>2026-04-26T06:38:45.795Z</time></trkpt><trkpt lat="42.5564441" lon="13.5248751"><ele>523.0</ele><time>2026-04-26T06:38:46.796Z</time></trkpt><trkpt lat="42.5563582" lon="13.5246886"><ele>523.0</ele><time>2026-04-26T06:38:47.796Z</time></trkpt><trkpt lat="42.5562878" lon="13.5244897"><ele>523.0</ele><time>2026-04-26T06:38:48.795Z</time></trkpt><trkpt lat="42.5562408" lon="13.5242899"><ele>523.0</ele><time>2026-04-26T06:38:49.796Z</time></trkpt><trkpt lat="42.5562263" lon="13.5240955"><ele>523.0</ele><time>2026-04-26T06:38:50.795Z</time></trkpt><trkpt lat="42.5562218" lon="13.523926"><ele>523.0</ele><time>2026-04-26T06:38:51.795Z</time></trkpt><trkpt lat="42.5561948" lon="13.5237734"><ele>524.25</ele><time>2026-04-26T06:38:52.796Z</time></trkpt><trkpt lat="42.5561105" lon="13.5236596"><ele>525.5</ele><time>2026-04-26T06:38:53.794Z</time></trkpt><trkpt lat="42.5560048" lon="13.5235659"><ele>526.75</ele><time>2026-04-26T06:38:54.794Z</time></trkpt><trkpt lat="42.5558731" lon="13.5234824"><ele>528.0</ele><time>2026-04-26T06:38:55.795Z</time></trkpt><trkpt lat="42.5557305" lon="13.5233946"><ele>528.0</ele><time>2026-04-26T06:38:56.796Z</time></trkpt><trkpt lat="42.5555915" lon="13.5233034"><ele>528.0</ele><time>2026-04-26T06:38:57.795Z</time></trkpt><trkpt lat="42.5554451" lon="13.5232441"><ele>528.0</ele><time>2026-04-26T06:38:58.795Z</time></trkpt><trkpt lat="42.5552812" lon="13.5232155"><ele>528.6666666666666</ele><time>2026-04-26T06:38:59.794Z</time></trkpt><trkpt lat="42.5551017" lon="13.5232489"><ele>529.3333333333333</ele><time>2026-04-26T06:39:00.794Z</time></trkpt><trkpt lat="42.5549096" lon="13.5232955"><ele>530.0</ele><time>2026-04-26T06:39:01.795Z</time></trkpt><trkpt lat="42.5547203" lon="13.523344"><ele>531.0</ele><time>2026-04-26T06:39:02.796Z</time></trkpt><trkpt lat="42.5545252" lon="13.5233876"><ele>532.0</ele><time>2026-04-26T06:39:03.795Z</time></trkpt><trkpt lat="42.5543355" lon="13.5234222"><ele>533.0</ele><time>2026-04-26T06:39:04.795Z</time></trkpt><trkpt lat="42.5541552" lon="13.5234434"><ele>533.0</ele><time>2026-04-26T06:39:05.795Z</time></trkpt><trkpt lat="42.5539866" lon="13.5234328"><ele>533.0</ele><time>2026-04-26T06:39:06.794Z</time></trkpt><trkpt lat="42.5538141" lon="13.5233799"><ele>533.0</ele><time>2026-04-26T06:39:07.794Z</time></trkpt><trkpt lat="42.5536401" lon="13.523292"><ele>536.3333333333333</ele><time>2026-04-26T06:39:08.795Z</time></trkpt><trkpt lat="42.5534737" lon="13.5232041"><ele>539.6666666666666</ele><time>2026-04-26T06:39:09.795Z</time></trkpt><trkpt lat="42.553317" lon="13.5231464"><ele>543.0</ele><time>2026-04-26T06:39:10.795Z</time></trkpt><trkpt lat="42.5531618" lon="13.5230857"><ele>543.0</ele><time>2026-04-26T06:39:11.796Z</time></trkpt><trkpt lat="42.5530431" lon="13.5230061"><ele>543.0</ele><time>2026-04-26T06:39:12.795Z</time></trkpt><trkpt lat="42.5529258" lon="13.5229101"><ele>543.0</ele><time>2026-04-26T06:39:13.795Z</time></trkpt><trkpt lat="42.5528591" lon="13.5227808"><ele>543.0</ele><time>2026-04-26T06:39:14.795Z</time></trkpt><trkpt lat="42.5528143" lon="13.5226283"><ele>547.3333333333334</ele><time>2026-04-26T06:39:15.796Z</time></trkpt><trkpt lat="42.5528045" lon="13.5224251"><ele>551.6666666666667</ele><time>2026-04-26T06:39:16.796Z</time></trkpt><trkpt lat="42.5528129" lon="13.5222045"><ele>556.0</ele><time>2026-04-26T06:39:17.794Z</time></trkpt><trkpt lat="42.5528315" lon="13.5219924"><ele>556.0</ele><time>2026-04-26T06:39:18.795Z</time></trkpt><trkpt lat="42.5528554" lon="13.5217948"><ele>556.0</ele><time>2026-04-26T06:39:19.796Z</time></trkpt><trkpt lat="42.552885" lon="13.521609"><ele>556.0</ele><time>2026-04-26T06:39:20.795Z</time></trkpt><trkpt lat="42.5529121" lon="13.5214526"><ele>556.0</ele><time>2026-04-26T06:39:21.796Z</time></trkpt><trkpt lat="42.552918" lon="13.5213164"><ele>551.25</ele><time>2026-04-26T06:39:22.796Z</time></trkpt><trkpt lat="42.5528758" lon="13.521191"><ele>546.5</ele><time>2026-04-26T06:39:23.794Z</time></trkpt><trkpt lat="42.5527951" lon="13.521095"><ele>541.75</ele><time>2026-04-26T06:39:24.794Z</time></trkpt><trkpt lat="42.5526843" lon="13.5210332"><ele>537.0</ele><time>2026-04-26T06:39:25.796Z</time></trkpt><trkpt lat="42.5525532" lon="13.5210096"><ele>537.0</ele><time>2026-04-26T06:39:26.796Z</time></trkpt><trkpt lat="42.5524029" lon="13.5210223"><ele>537.0</ele><time>2026-04-26T06:39:27.796Z</time></trkpt><trkpt lat="42.5522308" lon="13.5210551"><ele>537.0</ele><time>2026-04-26T06:39:28.794Z</time></trkpt><trkpt lat="42.5520557" lon="13.5210889"><ele>535.0</ele><time>2026-04-26T06:39:29.796Z</time></trkpt><trkpt lat="42.551892" lon="13.5211229"><ele>533.0</ele><time>2026-04-26T06:39:30.796Z</time></trkpt><trkpt lat="42.5517428" lon="13.5211653"><ele>531.0</ele><time>2026-04-26T06:39:31.794Z</time></trkpt><trkpt lat="42.5516118" lon="13.5212192"><ele>538.5</ele><time>2026-04-26T06:39:32.796Z</time></trkpt><trkpt lat="42.5515048" lon="13.5213149"><ele>546.0</ele><time>2026-04-26T06:39:33.796Z</time></trkpt><trkpt lat="42.5514158" lon="13.5214564"><ele>553.5</ele><time>2026-04-26T06:39:34.794Z</time></trkpt><trkpt lat="42.5513424" lon="13.5216446"><ele>561.0</ele><time>2026-04-26T06:39:35.795Z</time></trkpt><trkpt lat="42.5512574" lon="13.5218554"><ele>558.0</ele><time>2026-04-26T06:39:36.796Z</time></trkpt><trkpt lat="42.5511587" lon="13.5220554"><ele>555.0</ele><time>2026-04-26T06:39:37.796Z</time></trkpt><trkpt lat="42.551049" lon="13.5222407"><ele>552.0</ele><time>2026-04-26T06:39:38.795Z</time></trkpt><trkpt lat="42.5509557" lon="13.5224175"><ele>552.0</ele><time>2026-04-26T06:39:39.795Z</time></trkpt><trkpt lat="42.5508516" lon="13.5225732"><ele>552.0</ele><time>2026-04-26T06:39:40.796Z</time></trkpt><trkpt lat="42.5507335" lon="13.5226884"><ele>552.0</ele><time>2026-04-26T06:39:41.795Z</time></trkpt><trkpt lat="42.5505969" lon="13.5227927"><ele>554.0</ele><time>2026-04-26T06:39:42.795Z</time></trkpt><trkpt lat="42.5504596" lon="13.5229432"><ele>556.0</ele><time>2026-04-26T06:39:43.796Z</time></trkpt><trkpt lat="42.5503144" lon="13.523089"><ele>558.0</ele><time>2026-04-26T06:39:44.796Z</time></trkpt><trkpt lat="42.5501769" lon="13.5232082"><ele>558.0</ele><time>2026-04-26T06:39:45.795Z</time></trkpt><trkpt lat="42.5500287" lon="13.5232975"><ele>558.0</ele><time>2026-04-26T06:39:46.796Z</time></trkpt><trkpt lat="42.5498633" lon="13.5233438"><ele>558.0</ele><time>2026-04-26T06:39:47.795Z</time></trkpt><trkpt lat="42.5496833" lon="13.5233643"><ele>557.0</ele><time>2026-04-26T06:39:48.796Z</time></trkpt><trkpt lat="42.5495091" lon="13.5233809"><ele>556.0</ele><time>2026-04-26T06:39:49.794Z</time></trkpt><trkpt lat="42.5493404" lon="13.5234023"><ele>555.0</ele><time>2026-04-26T06:39:50.795Z</time></trkpt><trkpt lat="42.5491903" lon="13.5234425"><ele>555.0</ele><time>2026-04-26T06:39:51.796Z</time></trkpt><trkpt lat="42.5490592" lon="13.5235147"><ele>555.0</ele><time>2026-04-26T06:39:52.795Z</time></trkpt><trkpt lat="42.5489507" lon="13.5236112"><ele>555.0</ele><time>2026-04-26T06:39:53.794Z</time></trkpt><trkpt lat="42.5488469" lon="13.5236873"><ele>555.0</ele><time>2026-04-26T06:39:54.796Z</time></trkpt><trkpt lat="42.5487391" lon="13.523725"><ele>554.25</ele><time>2026-04-26T06:39:55.795Z</time></trkpt><trkpt lat="42.5486269" lon="13.5237174"><ele>553.5</ele><time>2026-04-26T06:39:56.795Z</time></trkpt><trkpt lat="42.5485111" lon="13.5236549"><ele>552.75</ele><time>2026-04-26T06:39:57.796Z</time></trkpt><trkpt lat="42.548392" lon="13.5235632"><ele>552.0</ele><time>2026-04-26T06:39:58.794Z</time></trkpt><trkpt lat="42.5482691" lon="13.5235003"><ele>552.0</ele><time>2026-04-26T06:39:59.795Z</time></trkpt><trkpt lat="42.5481364" lon="13.5234976"><ele>552.0</ele><time>2026-04-26T06:40:00.796Z</time></trkpt><trkpt lat="42.5479879" lon="13.5235473"><ele>552.0</ele><time>2026-04-26T06:40:01.795Z</time></trkpt><trkpt lat="42.5478271" lon="13.5236106"><ele>556.3333333333334</ele><time>2026-04-26T06:40:02.795Z</time></trkpt><trkpt lat="42.5476646" lon="13.5236491"><ele>560.6666666666667</ele><time>2026-04-26T06:40:03.796Z</time></trkpt><trkpt lat="42.5475035" lon="13.5236705"><ele>565.0</ele><time>2026-04-26T06:40:04.794Z</time></trkpt><trkpt lat="42.5473421" lon="13.5236469"><ele>565.0</ele><time>2026-04-26T06:40:05.796Z</time></trkpt><trkpt lat="42.5471876" lon="13.5235932"><ele>565.0</ele><time>2026-04-26T06:40:06.795Z</time></trkpt><trkpt lat="42.5470384" lon="13.523497"><ele>565.0</ele><time>2026-04-26T06:40:07.796Z</time></trkpt><trkpt lat="42.5468925" lon="13.5233921"><ele>569.25</ele><time>2026-04-26T06:40:08.795Z</time></trkpt><trkpt lat="42.5467513" lon="13.5233087"><ele>573.5</ele><time>2026-04-26T06:40:09.795Z</time></trkpt><trkpt lat="42.546616" lon="13.5232417"><ele>577.75</ele><time>2026-04-26T06:40:10.794Z</time></trkpt><trkpt lat="42.5464885" lon="13.5231856"><ele>582.0</ele><time>2026-04-26T06:40:11.794Z</time></trkpt><trkpt lat="42.5463774" lon="13.5231209"><ele>582.0</ele><time>2026-04-26T06:40:12.795Z</time></trkpt><trkpt lat="42.5462793" lon="13.5230411"><ele>582.0</ele><time>2026-04-26T06:40:13.795Z</time></trkpt><trkpt lat="42.5462038" lon="13.522936"><ele>582.0</ele><time>2026-04-26T06:40:14.796Z</time></trkpt><trkpt lat="42.5461498" lon="13.5227968"><ele>582.0</ele><time>2026-04-26T06:40:15.796Z</time></trkpt><trkpt lat="42.5461237" lon="13.522639"><ele>578.5</ele><time>2026-04-26T06:40:16.795Z</time></trkpt><trkpt lat="42.5461378" lon="13.5224673"><ele>575.0</ele><time>2026-04-26T06:40:17.795Z</time></trkpt><trkpt lat="42.5461818" lon="13.5222804"><ele>571.5</ele><time>2026-04-26T06:40:18.795Z</time></trkpt><trkpt lat="42.5462427" lon="13.5220922"><ele>568.0</ele><time>2026-04-26T06:40:19.796Z</time></trkpt><trkpt lat="42.5463091" lon="13.5218901"><ele>568.0</ele><time>2026-04-26T06:40:20.796Z</time></trkpt><trkpt lat="42.5463736" lon="13.5216823"><ele>568.0</ele><time>2026-04-26T06:40:21.795Z</time></trkpt><trkpt lat="42.546438" lon="13.5214725"><ele>568.0</ele><time>2026-04-26T06:40:22.795Z</time></trkpt><trkpt lat="42.5465057" lon="13.5212559"><ele>571.25</ele><time>2026-04-26T06:40:23.794Z</time></trkpt><trkpt lat="42.5465676" lon="13.5210617"><ele>574.5</ele><time>2026-04-26T06:40:24.796Z</time></trkpt><trkpt lat="42.5466213" lon="13.5208707"><ele>577.75</ele><time>2026-04-26T06:40:25.795Z</time></trkpt><trkpt lat="42.546668" lon="13.5206919"><ele>581.0</ele><time>2026-04-26T06:40:26.796Z</time></trkpt><trkpt lat="42.5466947" lon="13.5205228"><ele>581.25</ele><time>2026-04-26T06:40:27.795Z</time></trkpt><trkpt lat="42.5466893" lon="13.5203546"><ele>581.5</ele><time>2026-04-26T06:40:28.796Z</time></trkpt><trkpt lat="42.5466464" lon="13.5201981"><ele>581.75</ele><time>2026-04-26T06:40:29.796Z</time></trkpt><trkpt lat="42.5465795" lon="13.520059"><ele>582.0</ele><time>2026-04-26T06:40:30.794Z</time></trkpt><trkpt lat="42.5465348" lon="13.5199269"><ele>582.0</ele><time>2026-04-26T06:40:31.795Z</time></trkpt><trkpt lat="42.5465195" lon="13.5197759"><ele>582.0</ele><time>2026-04-26T06:40:32.796Z</time></trkpt><trkpt lat="42.5465367" lon="13.5196004"><ele>582.0</ele><time>2026-04-26T06:40:33.794Z</time></trkpt><trkpt lat="42.5465753" lon="13.5194155"><ele>582.0</ele><time>2026-04-26T06:40:34.794Z</time></trkpt><trkpt lat="42.5466089" lon="13.5192113"><ele>582.6666666666666</ele><time>2026-04-26T06:40:35.795Z</time></trkpt><trkpt lat="42.5466396" lon="13.5189773"><ele>583.3333333333333</ele><time>2026-04-26T06:40:36.796Z</time></trkpt><trkpt lat="42.5466821" lon="13.5187603"><ele>584.0</ele><time>2026-04-26T06:40:37.796Z</time></trkpt><trkpt lat="42.546741" lon="13.5185591"><ele>588.6666666666666</ele><time>2026-04-26T06:40:38.794Z</time></trkpt><trkpt lat="42.5468152" lon="13.5183722"><ele>593.3333333333334</ele><time>2026-04-26T06:40:39.794Z</time></trkpt><trkpt lat="42.5468912" lon="13.5181997"><ele>598.0</ele><time>2026-04-26T06:40:40.795Z</time></trkpt><trkpt lat="42.5469571" lon="13.5180185"><ele>598.0</ele><time>2026-04-26T06:40:41.794Z</time></trkpt><trkpt lat="42.5469857" lon="13.5178232"><ele>598.0</ele><time>2026-04-26T06:40:42.795Z</time></trkpt><trkpt lat="42.5469892" lon="13.5176515"><ele>598.0</ele><time>2026-04-26T06:40:43.796Z</time></trkpt><trkpt lat="42.5469636" lon="13.5174994"><ele>598.0</ele><time>2026-04-26T06:40:44.795Z</time></trkpt><trkpt lat="42.5468998" lon="13.5173698"><ele>598.0</ele><time>2026-04-26T06:40:45.794Z</time></trkpt><trkpt lat="42.5467961" lon="13.5172673"><ele>598.0</ele><time>2026-04-26T06:40:46.795Z</time></trkpt><trkpt lat="42.5466646" lon="13.517194"><ele>598.0</ele><time>2026-04-26T06:40:47.796Z</time></trkpt><trkpt lat="42.5465071" lon="13.5171216"><ele>598.0</ele><time>2026-04-26T06:40:48.795Z</time></trkpt><trkpt lat="42.5463441" lon="13.5170366"><ele>595.3333333333334</ele><time>2026-04-26T06:40:49.795Z</time></trkpt><trkpt lat="42.5461694" lon="13.5169625"><ele>592.6666666666666</ele><time>2026-04-26T06:40:50.794Z</time></trkpt><trkpt lat="42.545997" lon="13.5169069"><ele>590.0</ele><time>2026-04-26T06:40:51.796Z</time></trkpt><trkpt lat="42.5458406" lon="13.5168557"><ele>590.0</ele><time>2026-04-26T06:40:52.796Z</time></trkpt><trkpt lat="42.5456979" lon="13.5167977"><ele>590.0</ele><time>2026-04-26T06:40:53.796Z</time></trkpt><trkpt lat="42.5455766" lon="13.5167118"><ele>590.0</ele><time>2026-04-26T06:40:54.796Z</time></trkpt><trkpt lat="42.5454806" lon="13.516591"><ele>590.0</ele><time>2026-04-26T06:40:55.796Z</time></trkpt><trkpt lat="42.5454148" lon="13.5164385"><ele>597.5</ele><time>2026-04-26T06:40:56.796Z</time></trkpt><trkpt lat="42.5453546" lon="13.5162795"><ele>605.0</ele><time>2026-04-26T06:40:57.795Z</time></trkpt><trkpt lat="42.5452695" lon="13.5161466"><ele>612.5</ele><time>2026-04-26T06:40:58.796Z</time></trkpt><trkpt lat="42.5451821" lon="13.5160169"><ele>620.0</ele><time>2026-04-26T06:40:59.795Z</time></trkpt><trkpt lat="42.5451155" lon="13.5158736"><ele>620.0</ele><time>2026-04-26T06:41:00.794Z</time></trkpt><trkpt lat="42.5450816" lon="13.5157197"><ele>620.0</ele><time>2026-04-26T06:41:01.795Z</time></trkpt><trkpt lat="42.5450826" lon="13.5155396"><ele>620.0</ele><time>2026-04-26T06:41:02.795Z</time></trkpt><trkpt lat="42.5450905" lon="13.5153384"><ele>620.0</ele><time>2026-04-26T06:41:03.796Z</time></trkpt><trkpt lat="42.5451275" lon="13.5151212"><ele>619.6666666666666</ele><time>2026-04-26T06:41:04.796Z</time></trkpt><trkpt lat="42.5451816" lon="13.5148861"><ele>619.3333333333334</ele><time>2026-04-26T06:41:05.794Z</time></trkpt><trkpt lat="42.5452296" lon="13.5146604"><ele>619.0</ele><time>2026-04-26T06:41:06.795Z</time></trkpt><trkpt lat="42.5452767" lon="13.5144297"><ele>621.3333333333334</ele><time>2026-04-26T06:41:07.796Z</time></trkpt><trkpt lat="42.5453147" lon="13.5142017"><ele>623.6666666666666</ele><time>2026-04-26T06:41:08.796Z</time></trkpt><trkpt lat="42.5453258" lon="13.5139704"><ele>626.0</ele><time>2026-04-26T06:41:09.795Z</time></trkpt><trkpt lat="42.5453161" lon="13.5137307"><ele>626.6666666666666</ele><time>2026-04-26T06:41:10.796Z</time></trkpt><trkpt lat="42.5452806" lon="13.5134844"><ele>627.3333333333334</ele><time>2026-04-26T06:41:11.796Z</time></trkpt><trkpt lat="42.5452211" lon="13.5132618"><ele>628.0</ele><time>2026-04-26T06:41:12.795Z</time></trkpt><trkpt lat="42.5451513" lon="13.513061"><ele>625.5</ele><time>2026-04-26T06:41:13.795Z</time></trkpt><trkpt lat="42.5450928" lon="13.5128857"><ele>623.0</ele><time>2026-04-26T06:41:14.795Z</time></trkpt><trkpt lat="42.5450569" lon="13.5127264"><ele>620.5</ele><time>2026-04-26T06:41:15.794Z</time></trkpt><trkpt lat="42.5450472" lon="13.5125675"><ele>618.0</ele><time>2026-04-26T06:41:16.796Z</time></trkpt><trkpt lat="42.5450752" lon="13.5124068"><ele>618.0</ele><time>2026-04-26T06:41:17.795Z</time></trkpt><trkpt lat="42.5451258" lon="13.512225"><ele>618.0</ele><time>2026-04-26T06:41:18.794Z</time></trkpt><trkpt lat="42.545184" lon="13.5120377"><ele>618.0</ele><time>2026-04-26T06:41:19.795Z</time></trkpt><trkpt lat="42.5452558" lon="13.5118308"><ele>618.3333333333334</ele><time>2026-04-26T06:41:20.796Z</time></trkpt><trkpt lat="42.5453369" lon="13.5116152"><ele>618.6666666666667</ele><time>2026-04-26T06:41:21.796Z</time></trkpt><trkpt lat="42.5454093" lon="13.5114187"><ele>619.0</ele><time>2026-04-26T06:41:22.796Z</time></trkpt><trkpt lat="42.5454817" lon="13.5112365"><ele>619.0</ele><time>2026-04-26T06:41:23.795Z</time></trkpt><trkpt lat="42.5455634" lon="13.5110774"><ele>619.0</ele><time>2026-04-26T06:41:24.794Z</time></trkpt><trkpt lat="42.5456579" lon="13.5109374"><ele>619.0</ele><time>2026-04-26T06:41:25.796Z</time></trkpt><trkpt lat="42.5457721" lon="13.5108137"><ele>619.0</ele><time>2026-04-26T06:41:26.795Z</time></trkpt><trkpt lat="42.5459041" lon="13.5107067"><ele>619.0</ele><time>2026-04-26T06:41:27.796Z</time></trkpt><trkpt lat="42.546045" lon="13.510595"><ele>619.0</ele><time>2026-04-26T06:41:28.796Z</time></trkpt><trkpt lat="42.5461826" lon="13.5104893"><ele>619.0</ele><time>2026-04-26T06:41:29.794Z</time></trkpt><trkpt lat="42.5463138" lon="13.5103994"><ele>618.75</ele><time>2026-04-26T06:41:30.795Z</time></trkpt><trkpt lat="42.5464348" lon="13.510318"><ele>618.5</ele><time>2026-04-26T06:41:31.795Z</time></trkpt><trkpt lat="42.5465477" lon="13.5102361"><ele>618.25</ele><time>2026-04-26T06:41:32.796Z</time></trkpt><trkpt lat="42.5466515" lon="13.510121"><ele>618.0</ele><time>2026-04-26T06:41:33.795Z</time></trkpt><trkpt lat="42.5467411" lon="13.5099608"><ele>618.0</ele><time>2026-04-26T06:41:34.795Z</time></trkpt><trkpt lat="42.5468123" lon="13.5097688"><ele>618.0</ele><time>2026-04-26T06:41:35.795Z</time></trkpt><trkpt lat="42.5468709" lon="13.509546"><ele>618.0</ele><time>2026-04-26T06:41:36.794Z</time></trkpt><trkpt lat="42.5469198" lon="13.5093046"><ele>623.3333333333334</ele><time>2026-04-26T06:41:37.794Z</time></trkpt><trkpt lat="42.5469376" lon="13.5090335"><ele>628.6666666666667</ele><time>2026-04-26T06:41:38.795Z</time></trkpt><trkpt lat="42.5469487" lon="13.5087551"><ele>634.0</ele><time>2026-04-26T06:41:39.795Z</time></trkpt><trkpt lat="42.5469492" lon="13.5084697"><ele>636.0</ele><time>2026-04-26T06:41:40.796Z</time></trkpt><trkpt lat="42.546949" lon="13.5081894"><ele>638.0</ele><time>2026-04-26T06:41:41.795Z</time></trkpt><trkpt lat="42.5469412" lon="13.5079112"><ele>640.0</ele><time>2026-04-26T06:41:42.794Z</time></trkpt><trkpt lat="42.5469308" lon="13.5076329"><ele>638.3333333333334</ele><time>2026-04-26T06:41:43.796Z</time></trkpt><trkpt lat="42.5469171" lon="13.5073544"><ele>636.6666666666666</ele><time>2026-04-26T06:41:44.796Z</time></trkpt><trkpt lat="42.5469032" lon="13.5070783"><ele>635.0</ele><time>2026-04-26T06:41:45.795Z</time></trkpt><trkpt lat="42.546885" lon="13.5068056"><ele>635.0</ele><time>2026-04-26T06:41:46.795Z</time></trkpt><trkpt lat="42.5468632" lon="13.5065355"><ele>635.0</ele><time>2026-04-26T06:41:47.795Z</time></trkpt><trkpt lat="42.5468442" lon="13.5062663"><ele>635.0</ele><time>2026-04-26T06:41:48.795Z</time></trkpt><trkpt lat="42.5468242" lon="13.5059966"><ele>635.0</ele><time>2026-04-26T06:41:49.794Z</time></trkpt><trkpt lat="42.5468044" lon="13.5057307"><ele>635.0</ele><time>2026-04-26T06:41:50.795Z</time></trkpt><trkpt lat="42.5467818" lon="13.5054662"><ele>635.0</ele><time>2026-04-26T06:41:51.794Z</time></trkpt><trkpt lat="42.5467551" lon="13.5052052"><ele>635.0</ele><time>2026-04-26T06:41:52.795Z</time></trkpt><trkpt lat="42.5467148" lon="13.5049483"><ele>635.0</ele><time>2026-04-26T06:41:53.795Z</time></trkpt><trkpt lat="42.5466679" lon="13.5046939"><ele>635.0</ele><time>2026-04-26T06:41:54.795Z</time></trkpt><trkpt lat="42.5466202" lon="13.5044464"><ele>632.6666666666666</ele><time>2026-04-26T06:41:55.795Z</time></trkpt><trkpt lat="42.5465702" lon="13.5041986"><ele>630.3333333333334</ele><time>2026-04-26T06:41:56.795Z</time></trkpt><trkpt lat="42.5465178" lon="13.5039511"><ele>628.0</ele><time>2026-04-26T06:41:57.795Z</time></trkpt><trkpt lat="42.5464592" lon="13.503711"><ele>624.6666666666667</ele><time>2026-04-26T06:41:58.795Z</time></trkpt><trkpt lat="42.5463964" lon="13.5034838"><ele>621.3333333333334</ele><time>2026-04-26T06:41:59.796Z</time></trkpt><trkpt lat="42.5463312" lon="13.50327"><ele>618.0</ele><time>2026-04-26T06:42:00.795Z</time></trkpt><trkpt lat="42.5462531" lon="13.5030644"><ele>625.6666666666666</ele><time>2026-04-26T06:42:01.795Z</time></trkpt><trkpt lat="42.5461641" lon="13.5028746"><ele>633.3333333333333</ele><time>2026-04-26T06:42:02.795Z</time></trkpt><trkpt lat="42.5460657" lon="13.5026909"><ele>641.0</ele><time>2026-04-26T06:42:03.795Z</time></trkpt><trkpt lat="42.5459587" lon="13.5025097"><ele>641.0</ele><time>2026-04-26T06:42:04.794Z</time></trkpt><trkpt lat="42.5458442" lon="13.5023363"><ele>641.0</ele><time>2026-04-26T06:42:05.794Z</time></trkpt><trkpt lat="42.5457149" lon="13.502179"><ele>641.0</ele><time>2026-04-26T06:42:06.794Z</time></trkpt><trkpt lat="42.5455806" lon="13.5020195"><ele>645.3333333333333</ele><time>2026-04-26T06:42:07.794Z</time></trkpt><trkpt lat="42.5454524" lon="13.5018445"><ele>649.6666666666666</ele><time>2026-04-26T06:42:08.795Z</time></trkpt><trkpt lat="42.5453335" lon="13.5016509"><ele>654.0</ele><time>2026-04-26T06:42:09.795Z</time></trkpt><trkpt lat="42.545221" lon="13.5014409"><ele>649.0</ele><time>2026-04-26T06:42:10.795Z</time></trkpt><trkpt lat="42.5451142" lon="13.5012278"><ele>644.0</ele><time>2026-04-26T06:42:11.794Z</time></trkpt><trkpt lat="42.5450122" lon="13.5010337"><ele>639.0</ele><time>2026-04-26T06:42:12.795Z</time></trkpt><trkpt lat="42.5449101" lon="13.5008562"><ele>639.0</ele><time>2026-04-26T06:42:13.796Z</time></trkpt><trkpt lat="42.5448095" lon="13.5006922"><ele>639.0</ele><time>2026-04-26T06:42:14.795Z</time></trkpt><trkpt lat="42.5447164" lon="13.5005321"><ele>639.0</ele><time>2026-04-26T06:42:15.795Z</time></trkpt><trkpt lat="42.5446355" lon="13.5003515"><ele>634.0</ele><time>2026-04-26T06:42:16.795Z</time></trkpt><trkpt lat="42.5445724" lon="13.5001402"><ele>629.0</ele><time>2026-04-26T06:42:17.794Z</time></trkpt><trkpt lat="42.5445199" lon="13.4999093"><ele>624.0</ele><time>2026-04-26T06:42:18.795Z</time></trkpt><trkpt lat="42.5444765" lon="13.4996682"><ele>636.0</ele><time>2026-04-26T06:42:19.795Z</time></trkpt><trkpt lat="42.5444317" lon="13.4994383"><ele>648.0</ele><time>2026-04-26T06:42:20.795Z</time></trkpt><trkpt lat="42.5443875" lon="13.4992203"><ele>660.0</ele><time>2026-04-26T06:42:21.796Z</time></trkpt><trkpt lat="42.544352" lon="13.4990042"><ele>660.0</ele><time>2026-04-26T06:42:22.794Z</time></trkpt><trkpt lat="42.5443362" lon="13.4987913"><ele>660.0</ele><time>2026-04-26T06:42:23.795Z</time></trkpt><trkpt lat="42.5443395" lon="13.4985961"><ele>660.0</ele><time>2026-04-26T06:42:24.795Z</time></trkpt><trkpt lat="42.5443561" lon="13.4984184"><ele>660.0</ele><time>2026-04-26T06:42:25.795Z</time></trkpt><trkpt lat="42.5443845" lon="13.4982494"><ele>660.5</ele><time>2026-04-26T06:42:26.794Z</time></trkpt><trkpt lat="42.5444264" lon="13.49809"><ele>661.0</ele><time>2026-04-26T06:42:27.795Z</time></trkpt><trkpt lat="42.544487" lon="13.4979336"><ele>661.5</ele><time>2026-04-26T06:42:28.795Z</time></trkpt><trkpt lat="42.5445712" lon="13.4977843"><ele>662.0</ele><time>2026-04-26T06:42:29.795Z</time></trkpt><trkpt lat="42.5446708" lon="13.4976399"><ele>659.6666666666666</ele><time>2026-04-26T06:42:30.796Z</time></trkpt><trkpt lat="42.5447826" lon="13.4975151"><ele>657.3333333333334</ele><time>2026-04-26T06:42:31.794Z</time></trkpt><trkpt lat="42.5449093" lon="13.4974174"><ele>655.0</ele><time>2026-04-26T06:42:32.795Z</time></trkpt><trkpt lat="42.5450597" lon="13.4973395"><ele>655.0</ele><time>2026-04-26T06:42:33.795Z</time></trkpt><trkpt lat="42.5452263" lon="13.4972703"><ele>655.0</ele><time>2026-04-26T06:42:34.794Z</time></trkpt><trkpt lat="42.5454084" lon="13.49719"><ele>655.0</ele><time>2026-04-26T06:42:35.796Z</time></trkpt><trkpt lat="42.5455859" lon="13.4971041"><ele>659.0</ele><time>2026-04-26T06:42:36.795Z</time></trkpt><trkpt lat="42.5457449" lon="13.497023"><ele>663.0</ele><time>2026-04-26T06:42:37.795Z</time></trkpt><trkpt lat="42.5458965" lon="13.4969359"><ele>667.0</ele><time>2026-04-26T06:42:38.795Z</time></trkpt><trkpt lat="42.546034" lon="13.4968176"><ele>667.0</ele><time>2026-04-26T06:42:39.796Z</time></trkpt><trkpt lat="42.5461495" lon="13.4966737"><ele>667.0</ele><time>2026-04-26T06:42:40.795Z</time></trkpt><trkpt lat="42.5462401" lon="13.4965084"><ele>667.0</ele><time>2026-04-26T06:42:41.794Z</time></trkpt><trkpt lat="42.5462968" lon="13.4963094"><ele>661.0</ele><time>2026-04-26T06:42:42.794Z</time></trkpt><trkpt lat="42.5463174" lon="13.4960819"><ele>655.0</ele><time>2026-04-26T06:42:43.795Z</time></trkpt><trkpt lat="42.5463281" lon="13.4958396"><ele>649.0</ele><time>2026-04-26T06:42:44.794Z</time></trkpt><trkpt lat="42.5463593" lon="13.4955931"><ele>652.3333333333334</ele><time>2026-04-26T06:42:45.794Z</time></trkpt><trkpt lat="42.5463885" lon="13.4953569"><ele>655.6666666666666</ele><time>2026-04-26T06:42:46.793Z</time></trkpt><trkpt lat="42.546419" lon="13.4951367"><ele>659.0</ele><time>2026-04-26T06:42:47.794Z</time></trkpt><trkpt lat="42.5464634" lon="13.4949314"><ele>659.0</ele><time>2026-04-26T06:42:48.795Z</time></trkpt><trkpt lat="42.5465295" lon="13.4947416"><ele>659.0</ele><time>2026-04-26T06:42:49.793Z</time></trkpt><trkpt lat="42.5466245" lon="13.4945854"><ele>659.0</ele><time>2026-04-26T06:42:50.795Z</time></trkpt><trkpt lat="42.5467537" lon="13.4944593"><ele>660.3333333333333</ele><time>2026-04-26T06:42:51.795Z</time></trkpt><trkpt lat="42.5469054" lon="13.4943501"><ele>661.6666666666666</ele><time>2026-04-26T06:42:52.793Z</time></trkpt><trkpt lat="42.5470659" lon="13.4942375"><ele>663.0</ele><time>2026-04-26T06:42:53.794Z</time></trkpt><trkpt lat="42.5472335" lon="13.4941219"><ele>663.0</ele><time>2026-04-26T06:42:54.794Z</time></trkpt><trkpt lat="42.5473982" lon="13.4939786"><ele>663.0</ele><time>2026-04-26T06:42:55.794Z</time></trkpt><trkpt lat="42.5475494" lon="13.4938067"><ele>663.0</ele><time>2026-04-26T06:42:56.795Z</time></trkpt><trkpt lat="42.547694" lon="13.4936188"><ele>663.6666666666666</ele><time>2026-04-26T06:42:57.793Z</time></trkpt><trkpt lat="42.5478449" lon="13.4934317"><ele>664.3333333333333</ele><time>2026-04-26T06:42:58.794Z</time></trkpt><trkpt lat="42.5480035" lon="13.4932521"><ele>665.0</ele><time>2026-04-26T06:42:59.795Z</time></trkpt><trkpt lat="42.5481633" lon="13.4930679"><ele>674.3333333333333</ele><time>2026-04-26T06:43:00.794Z</time></trkpt><trkpt lat="42.5483129" lon="13.4928803"><ele>683.6666666666666</ele><time>2026-04-26T06:43:01.793Z</time></trkpt><trkpt lat="42.5484445" lon="13.4926812"><ele>693.0</ele><time>2026-04-26T06:43:02.794Z</time></trkpt><trkpt lat="42.5485702" lon="13.4924822"><ele>693.0</ele><time>2026-04-26T06:43:03.794Z</time></trkpt><trkpt lat="42.5487041" lon="13.492318"><ele>693.0</ele><time>2026-04-26T06:43:04.794Z</time></trkpt><trkpt lat="42.5488358" lon="13.4921724"><ele>693.0</ele><time>2026-04-26T06:43:05.795Z</time></trkpt><trkpt lat="42.5489583" lon="13.4920417"><ele>689.3333333333334</ele><time>2026-04-26T06:43:06.794Z</time></trkpt><trkpt lat="42.5490605" lon="13.4918707"><ele>685.6666666666667</ele><time>2026-04-26T06:43:07.794Z</time></trkpt><trkpt lat="42.5491536" lon="13.491686"><ele>682.0</ele><time>2026-04-26T06:43:08.795Z</time></trkpt><trkpt lat="42.5492405" lon="13.4914895"><ele>687.0</ele><time>2026-04-26T06:43:09.795Z</time></trkpt><trkpt lat="42.5492707" lon="13.491241"><ele>692.0</ele><time>2026-04-26T06:43:10.794Z</time></trkpt><trkpt lat="42.5493059" lon="13.4910149"><ele>697.0</ele><time>2026-04-26T06:43:11.795Z</time></trkpt><trkpt lat="42.5493263" lon="13.4907833"><ele>697.0</ele><time>2026-04-26T06:43:12.795Z</time></trkpt><trkpt lat="42.549326" lon="13.4905584"><ele>697.0</ele><time>2026-04-26T06:43:13.795Z</time></trkpt><trkpt lat="42.5493388" lon="13.49034"><ele>697.0</ele><time>2026-04-26T06:43:14.795Z</time></trkpt><trkpt lat="42.5493711" lon="13.4901205"><ele>701.3333333333334</ele><time>2026-04-26T06:43:15.794Z</time></trkpt><trkpt lat="42.5494324" lon="13.4899023"><ele>705.6666666666666</ele><time>2026-04-26T06:43:16.795Z</time></trkpt><trkpt lat="42.5495077" lon="13.489678"><ele>710.0</ele><time>2026-04-26T06:43:17.795Z</time></trkpt><trkpt lat="42.5495932" lon="13.4894524"><ele>698.6666666666666</ele><time>2026-04-26T06:43:18.795Z</time></trkpt><trkpt lat="42.5496885" lon="13.4892329"><ele>687.3333333333334</ele><time>2026-04-26T06:43:19.794Z</time></trkpt><trkpt lat="42.5497719" lon="13.4890198"><ele>676.0</ele><time>2026-04-26T06:43:20.793Z</time></trkpt><trkpt lat="42.5498422" lon="13.4888117"><ele>680.0</ele><time>2026-04-26T06:43:21.795Z</time></trkpt><trkpt lat="42.5498951" lon="13.4886105"><ele>684.0</ele><time>2026-04-26T06:43:22.795Z</time></trkpt><trkpt lat="42.5498991" lon="13.488396"><ele>688.0</ele><time>2026-04-26T06:43:23.794Z</time></trkpt><trkpt lat="42.5498874" lon="13.4881689"><ele>688.0</ele><time>2026-04-26T06:43:24.794Z</time></trkpt><trkpt lat="42.5498442" lon="13.4879386"><ele>688.0</ele><time>2026-04-26T06:43:25.794Z</time></trkpt><trkpt lat="42.5497953" lon="13.4877061"><ele>688.0</ele><time>2026-04-26T06:43:26.794Z</time></trkpt><trkpt lat="42.5497184" lon="13.4874613"><ele>686.6666666666667</ele><time>2026-04-26T06:43:27.794Z</time></trkpt><trkpt lat="42.5496074" lon="13.4872369"><ele>685.3333333333334</ele><time>2026-04-26T06:43:28.794Z</time></trkpt><trkpt lat="42.5494928" lon="13.4870106"><ele>684.0</ele><time>2026-04-26T06:43:29.793Z</time></trkpt><trkpt lat="42.5493975" lon="13.486776"><ele>689.6666666666666</ele><time>2026-04-26T06:43:30.795Z</time></trkpt><trkpt lat="42.5493133" lon="13.4865376"><ele>695.3333333333333</ele><time>2026-04-26T06:43:31.793Z</time></trkpt><trkpt lat="42.5492523" lon="13.4863108"><ele>701.0</ele><time>2026-04-26T06:43:32.794Z</time></trkpt><trkpt lat="42.5492036" lon="13.4860961"><ele>701.0</ele><time>2026-04-26T06:43:33.795Z</time></trkpt><trkpt lat="42.5491914" lon="13.4858891"><ele>701.0</ele><time>2026-04-26T06:43:34.795Z</time></trkpt><trkpt lat="42.5491668" lon="13.4856873"><ele>701.0</ele><time>2026-04-26T06:43:35.795Z</time></trkpt><trkpt lat="42.5491314" lon="13.4854776"><ele>694.3333333333333</ele><time>2026-04-26T06:43:36.794Z</time></trkpt><trkpt lat="42.5490456" lon="13.4852546"><ele>687.6666666666666</ele><time>2026-04-26T06:43:37.793Z</time></trkpt><trkpt lat="42.5489606" lon="13.4850516"><ele>681.0</ele><time>2026-04-26T06:43:38.794Z</time></trkpt><trkpt lat="42.5488881" lon="13.4848542"><ele>681.0</ele><time>2026-04-26T06:43:39.795Z</time></trkpt><trkpt lat="42.5487987" lon="13.4846689"><ele>681.0</ele><time>2026-04-26T06:43:40.795Z</time></trkpt><trkpt lat="42.5486813" lon="13.4845059"><ele>681.0</ele><time>2026-04-26T06:43:41.794Z</time></trkpt><trkpt lat="42.5485483" lon="13.4843699"><ele>687.0</ele><time>2026-04-26T06:43:42.795Z</time></trkpt><trkpt lat="42.5484126" lon="13.484257"><ele>693.0</ele><time>2026-04-26T06:43:43.794Z</time></trkpt><trkpt lat="42.5482806" lon="13.4841471"><ele>699.0</ele><time>2026-04-26T06:43:44.793Z</time></trkpt><trkpt lat="42.5481597" lon="13.484053"><ele>699.0</ele><time>2026-04-26T06:43:45.793Z</time></trkpt><trkpt lat="42.5480579" lon="13.4839563"><ele>699.0</ele><time>2026-04-26T06:43:46.793Z</time></trkpt><trkpt lat="42.5479781" lon="13.4838526"><ele>699.0</ele><time>2026-04-26T06:43:47.794Z</time></trkpt><trkpt lat="42.5479248" lon="13.4837389"><ele>699.0</ele><time>2026-04-26T06:43:48.795Z</time></trkpt><trkpt lat="42.5479137" lon="13.4836236"><ele>699.0</ele><time>2026-04-26T06:43:49.795Z</time></trkpt><trkpt lat="42.547936" lon="13.4835061"><ele>699.75</ele><time>2026-04-26T06:43:50.793Z</time></trkpt><trkpt lat="42.5479965" lon="13.4833812"><ele>700.5</ele><time>2026-04-26T06:43:51.794Z</time></trkpt><trkpt lat="42.5480772" lon="13.4832846"><ele>701.25</ele><time>2026-04-26T06:43:52.794Z</time></trkpt><trkpt lat="42.5481819" lon="13.483229"><ele>702.0</ele><time>2026-04-26T06:43:53.795Z</time></trkpt><trkpt lat="42.5483154" lon="13.4832249"><ele>702.0</ele><time>2026-04-26T06:43:54.793Z</time></trkpt><trkpt lat="42.5484733" lon="13.483267"><ele>702.0</ele><time>2026-04-26T06:43:55.794Z</time></trkpt><trkpt lat="42.548642" lon="13.4833551"><ele>702.0</ele><time>2026-04-26T06:43:56.794Z</time></trkpt><trkpt lat="42.5488091" lon="13.4834717"><ele>710.3333333333334</ele><time>2026-04-26T06:43:57.795Z</time></trkpt><trkpt lat="42.5489792" lon="13.4835813"><ele>718.6666666666667</ele><time>2026-04-26T06:43:58.794Z</time></trkpt><trkpt lat="42.549157" lon="13.4836644"><ele>727.0</ele><time>2026-04-26T06:43:59.794Z</time></trkpt><trkpt lat="42.5493254" lon="13.483721"><ele>727.0</ele><time>2026-04-26T06:44:00.793Z</time></trkpt><trkpt lat="42.5494908" lon="13.4837516"><ele>727.0</ele><time>2026-04-26T06:44:01.794Z</time></trkpt><trkpt lat="42.5496436" lon="13.4837575"><ele>727.0</ele><time>2026-04-26T06:44:02.795Z</time></trkpt><trkpt lat="42.5497852" lon="13.4837256"><ele>723.0</ele><time>2026-04-26T06:44:03.793Z</time></trkpt><trkpt lat="42.5499231" lon="13.4836399"><ele>719.0</ele><time>2026-04-26T06:44:04.793Z</time></trkpt><trkpt lat="42.5500589" lon="13.4835102"><ele>715.0</ele><time>2026-04-26T06:44:05.793Z</time></trkpt><trkpt lat="42.5501887" lon="13.4833278"><ele>715.0</ele><time>2026-04-26T06:44:06.795Z</time></trkpt><trkpt lat="42.5503232" lon="13.4831463"><ele>715.0</ele><time>2026-04-26T06:44:07.794Z</time></trkpt><trkpt lat="42.5504494" lon="13.4829699"><ele>715.0</ele><time>2026-04-26T06:44:08.794Z</time></trkpt><trkpt lat="42.5505768" lon="13.482783"><ele>710.6666666666667</ele><time>2026-04-26T06:44:09.794Z</time></trkpt><trkpt lat="42.5506963" lon="13.4826029"><ele>706.3333333333334</ele><time>2026-04-26T06:44:10.793Z</time></trkpt><trkpt lat="42.5508091" lon="13.4824206"><ele>702.0</ele><time>2026-04-26T06:44:11.793Z</time></trkpt><trkpt lat="42.5509203" lon="13.482251"><ele>702.3333333333334</ele><time>2026-04-26T06:44:12.794Z</time></trkpt><trkpt lat="42.5510416" lon="13.4820972"><ele>702.6666666666667</ele><time>2026-04-26T06:44:13.793Z</time></trkpt><trkpt lat="42.5511628" lon="13.4819462"><ele>703.0</ele><time>2026-04-26T06:44:14.794Z</time></trkpt><trkpt lat="42.5513274" lon="13.4818418"><ele>703.0</ele><time>2026-04-26T06:44:15.795Z</time></trkpt><trkpt lat="42.5514751" lon="13.4817541"><ele>703.0</ele><time>2026-04-26T06:44:16.794Z</time></trkpt><trkpt lat="42.5516063" lon="13.4816563"><ele>703.0</ele><time>2026-04-26T06:44:17.794Z</time></trkpt><trkpt lat="42.5517253" lon="13.4815584"><ele>703.0</ele><time>2026-04-26T06:44:18.794Z</time></trkpt><trkpt lat="42.551834" lon="13.4814671"><ele>703.0</ele><time>2026-04-26T06:44:19.794Z</time></trkpt><trkpt lat="42.5519279" lon="13.4813695"><ele>703.0</ele><time>2026-04-26T06:44:20.794Z</time></trkpt><trkpt lat="42.5519799" lon="13.4812307"><ele>703.0</ele><time>2026-04-26T06:44:21.793Z</time></trkpt><trkpt lat="42.5519764" lon="13.4810648"><ele>709.5</ele><time>2026-04-26T06:44:22.794Z</time></trkpt><trkpt lat="42.5519838" lon="13.4808993"><ele>716.0</ele><time>2026-04-26T06:44:23.794Z</time></trkpt><trkpt lat="42.5519821" lon="13.4807296"><ele>722.5</ele><time>2026-04-26T06:44:24.795Z</time></trkpt><trkpt lat="42.5519562" lon="13.4805128"><ele>729.0</ele><time>2026-04-26T06:44:25.794Z</time></trkpt><trkpt lat="42.551957" lon="13.4802021"><ele>733.0</ele><time>2026-04-26T06:44:26.794Z</time></trkpt><trkpt lat="42.5519806" lon="13.4799786"><ele>737.0</ele><time>2026-04-26T06:44:27.794Z</time></trkpt><trkpt lat="42.552019" lon="13.4797619"><ele>741.0</ele><time>2026-04-26T06:44:28.795Z</time></trkpt><trkpt lat="42.5520687" lon="13.4795635"><ele>733.5</ele><time>2026-04-26T06:44:29.795Z</time></trkpt><trkpt lat="42.5521265" lon="13.479384"><ele>726.0</ele><time>2026-04-26T06:44:30.794Z</time></trkpt><trkpt lat="42.5521863" lon="13.4792299"><ele>718.5</ele><time>2026-04-26T06:44:31.794Z</time></trkpt><trkpt lat="42.5522516" lon="13.4790892"><ele>711.0</ele><time>2026-04-26T06:44:32.795Z</time></trkpt><trkpt lat="42.5523256" lon="13.4789677"><ele>711.0</ele><time>2026-04-26T06:44:33.795Z</time></trkpt><trkpt lat="42.5524084" lon="13.4788761"><ele>711.0</ele><time>2026-04-26T06:44:34.795Z</time></trkpt><trkpt lat="42.5524916" lon="13.4788068"><ele>711.0</ele><time>2026-04-26T06:44:35.795Z</time></trkpt><trkpt lat="42.5525669" lon="13.4787399"><ele>711.0</ele><time>2026-04-26T06:44:36.795Z</time></trkpt><trkpt lat="42.5526323" lon="13.4786733"><ele>711.0</ele><time>2026-04-26T06:44:37.794Z</time></trkpt><trkpt lat="42.5526926" lon="13.478591"><ele>714.8</ele><time>2026-04-26T06:44:38.794Z</time></trkpt><trkpt lat="42.55275" lon="13.4784996"><ele>718.5999999999999</ele><time>2026-04-26T06:44:39.793Z</time></trkpt><trkpt lat="42.5527886" lon="13.4783941"><ele>722.4</ele><time>2026-04-26T06:44:40.795Z</time></trkpt><trkpt lat="42.5528143" lon="13.4782683"><ele>726.2</ele><time>2026-04-26T06:44:41.795Z</time></trkpt><trkpt lat="42.5528275" lon="13.4781306"><ele>730.0</ele><time>2026-04-26T06:44:42.794Z</time></trkpt><trkpt lat="42.5528219" lon="13.4779831"><ele>731.5</ele><time>2026-04-26T06:44:43.793Z</time></trkpt><trkpt lat="42.5528037" lon="13.4778271"><ele>733.0</ele><time>2026-04-26T06:44:44.793Z</time></trkpt><trkpt lat="42.5527865" lon="13.4776684"><ele>734.5</ele><time>2026-04-26T06:44:45.794Z</time></trkpt><trkpt lat="42.5527693" lon="13.4775001"><ele>736.0</ele><time>2026-04-26T06:44:46.794Z</time></trkpt><trkpt lat="42.5527645" lon="13.477317"><ele>736.0</ele><time>2026-04-26T06:44:47.793Z</time></trkpt><trkpt lat="42.5527596" lon="13.4771313"><ele>736.0</ele><time>2026-04-26T06:44:48.795Z</time></trkpt><trkpt lat="42.5527335" lon="13.4769553"><ele>736.0</ele><time>2026-04-26T06:44:49.794Z</time></trkpt><trkpt lat="42.5526871" lon="13.476793"><ele>736.0</ele><time>2026-04-26T06:44:50.794Z</time></trkpt><trkpt lat="42.552629" lon="13.4766382"><ele>735.0</ele><time>2026-04-26T06:44:51.794Z</time></trkpt><trkpt lat="42.5525612" lon="13.4764921"><ele>734.0</ele><time>2026-04-26T06:44:52.794Z</time></trkpt><trkpt lat="42.552481" lon="13.4763573"><ele>733.0</ele><time>2026-04-26T06:44:53.795Z</time></trkpt><trkpt lat="42.5523855" lon="13.4762336"><ele>732.0</ele><time>2026-04-26T06:44:54.794Z</time></trkpt><trkpt lat="42.5522855" lon="13.4761195"><ele>727.75</ele><time>2026-04-26T06:44:55.794Z</time></trkpt><trkpt lat="42.5521835" lon="13.4760054"><ele>723.5</ele><time>2026-04-26T06:44:56.794Z</time></trkpt><trkpt lat="42.5520833" lon="13.4758841"><ele>719.25</ele><time>2026-04-26T06:44:57.794Z</time></trkpt><trkpt lat="42.5519984" lon="13.4757426"><ele>715.0</ele><time>2026-04-26T06:44:58.795Z</time></trkpt><trkpt lat="42.5519227" lon="13.4755941"><ele>725.75</ele><time>2026-04-26T06:44:59.794Z</time></trkpt><trkpt lat="42.5518667" lon="13.4754461"><ele>736.5</ele><time>2026-04-26T06:45:00.794Z</time></trkpt><trkpt lat="42.5518298" lon="13.4752796"><ele>747.25</ele><time>2026-04-26T06:45:01.795Z</time></trkpt><trkpt lat="42.5518141" lon="13.4750772"><ele>758.0</ele><time>2026-04-26T06:45:02.795Z</time></trkpt><trkpt lat="42.5518124" lon="13.474834"><ele>755.6666666666666</ele><time>2026-04-26T06:45:03.794Z</time></trkpt><trkpt lat="42.5518073" lon="13.4745559"><ele>753.3333333333334</ele><time>2026-04-26T06:45:04.793Z</time></trkpt><trkpt lat="42.5517961" lon="13.4742469"><ele>751.0</ele><time>2026-04-26T06:45:05.794Z</time></trkpt><trkpt lat="42.5517939" lon="13.4739206"><ele>750.0</ele><time>2026-04-26T06:45:06.794Z</time></trkpt><trkpt lat="42.5518043" lon="13.4735994"><ele>749.0</ele><time>2026-04-26T06:45:07.795Z</time></trkpt><trkpt lat="42.5518218" lon="13.4733043"><ele>749.0</ele><time>2026-04-26T06:45:08.794Z</time></trkpt><trkpt lat="42.5518403" lon="13.4730181"><ele>749.0</ele><time>2026-04-26T06:45:09.795Z</time></trkpt><trkpt lat="42.5518523" lon="13.4727399"><ele>749.0</ele><time>2026-04-26T06:45:10.794Z</time></trkpt><trkpt lat="42.5518525" lon="13.4724664"><ele>750.3333333333333</ele><time>2026-04-26T06:45:11.794Z</time></trkpt><trkpt lat="42.551823" lon="13.4721971"><ele>751.6666666666666</ele><time>2026-04-26T06:45:12.794Z</time></trkpt><trkpt lat="42.5517797" lon="13.4719398"><ele>753.0</ele><time>2026-04-26T06:45:13.794Z</time></trkpt><trkpt lat="42.5517277" lon="13.471688"><ele>753.3333333333334</ele><time>2026-04-26T06:45:14.793Z</time></trkpt><trkpt lat="42.551654" lon="13.4714442"><ele>753.6666666666667</ele><time>2026-04-26T06:45:15.794Z</time></trkpt><trkpt lat="42.5515586" lon="13.4711984"><ele>754.0</ele><time>2026-04-26T06:45:16.795Z</time></trkpt><trkpt lat="42.5514522" lon="13.4709413"><ele>755.5</ele><time>2026-04-26T06:45:17.795Z</time></trkpt><trkpt lat="42.5513576" lon="13.4706607"><ele>757.0</ele><time>2026-04-26T06:45:18.795Z</time></trkpt><trkpt lat="42.5512563" lon="13.4703852"><ele>762.0</ele><time>2026-04-26T06:45:19.794Z</time></trkpt><trkpt lat="42.5511415" lon="13.4701021"><ele>767.0</ele><time>2026-04-26T06:45:20.795Z</time></trkpt><trkpt lat="42.5510187" lon="13.4698179"><ele>759.0</ele><time>2026-04-26T06:45:21.793Z</time></trkpt><trkpt lat="42.5508878" lon="13.469544"><ele>751.0</ele><time>2026-04-26T06:45:22.794Z</time></trkpt><trkpt lat="42.5507445" lon="13.4692859"><ele>751.0</ele><time>2026-04-26T06:45:23.795Z</time></trkpt><trkpt lat="42.5505946" lon="13.4690417"><ele>751.0</ele><time>2026-04-26T06:45:24.794Z</time></trkpt><trkpt lat="42.5504416" lon="13.4688133"><ele>754.3333333333334</ele><time>2026-04-26T06:45:25.794Z</time></trkpt><trkpt lat="42.5502861" lon="13.4686004"><ele>757.6666666666666</ele><time>2026-04-26T06:45:26.795Z</time></trkpt><trkpt lat="42.5501241" lon="13.4684059"><ele>761.0</ele><time>2026-04-26T06:45:27.794Z</time></trkpt><trkpt lat="42.5499595" lon="13.4682194"><ele>761.0</ele><time>2026-04-26T06:45:28.793Z</time></trkpt><trkpt lat="42.5497954" lon="13.4680314"><ele>761.0</ele><time>2026-04-26T06:45:29.793Z</time></trkpt><trkpt lat="42.549629" lon="13.467869"><ele>761.0</ele><time>2026-04-26T06:45:30.793Z</time></trkpt><trkpt lat="42.5494547" lon="13.4677119"><ele>763.3333333333333</ele><time>2026-04-26T06:45:31.794Z</time></trkpt><trkpt lat="42.5492685" lon="13.4675912"><ele>765.6666666666666</ele><time>2026-04-26T06:45:32.794Z</time></trkpt><trkpt lat="42.5490863" lon="13.4674711"><ele>768.0</ele><time>2026-04-26T06:45:33.795Z</time></trkpt><trkpt lat="42.5488846" lon="13.4673825"><ele>775.0</ele><time>2026-04-26T06:45:34.795Z</time></trkpt><trkpt lat="42.5486905" lon="13.467327"><ele>782.0</ele><time>2026-04-26T06:45:35.793Z</time></trkpt><trkpt lat="42.5484935" lon="13.4672323"><ele>789.0</ele><time>2026-04-26T06:45:36.795Z</time></trkpt><trkpt lat="42.5483079" lon="13.467113"><ele>788.0</ele><time>2026-04-26T06:45:37.795Z</time></trkpt><trkpt lat="42.5481107" lon="13.4669864"><ele>787.0</ele><time>2026-04-26T06:45:38.794Z</time></trkpt><trkpt lat="42.5479192" lon="13.4668227"><ele>786.0</ele><time>2026-04-26T06:45:39.795Z</time></trkpt><trkpt lat="42.5477247" lon="13.466657"><ele>786.0</ele><time>2026-04-26T06:45:40.794Z</time></trkpt><trkpt lat="42.5475296" lon="13.4664793"><ele>786.0</ele><time>2026-04-26T06:45:41.795Z</time></trkpt><trkpt lat="42.5473559" lon="13.4662815"><ele>788.0</ele><time>2026-04-26T06:45:42.794Z</time></trkpt><trkpt lat="42.5471734" lon="13.4660979"><ele>790.0</ele><time>2026-04-26T06:45:43.794Z</time></trkpt><trkpt lat="42.5469928" lon="13.4659729"><ele>792.0</ele><time>2026-04-26T06:45:44.795Z</time></trkpt><trkpt lat="42.5468567" lon="13.4658493"><ele>792.0</ele><time>2026-04-26T06:45:45.793Z</time></trkpt><trkpt lat="42.5467136" lon="13.4656722"><ele>792.0</ele><time>2026-04-26T06:45:46.795Z</time></trkpt><trkpt lat="42.5465759" lon="13.4654765"><ele>792.0</ele><time>2026-04-26T06:45:47.795Z</time></trkpt><trkpt lat="42.5464274" lon="13.4652715"><ele>793.6666666666667</ele><time>2026-04-26T06:45:48.795Z</time></trkpt><trkpt lat="42.5462677" lon="13.4650706"><ele>795.3333333333334</ele><time>2026-04-26T06:45:49.793Z</time></trkpt><trkpt lat="42.5461092" lon="13.4648681"><ele>797.0</ele><time>2026-04-26T06:45:50.794Z</time></trkpt><trkpt lat="42.5459653" lon="13.4646747"><ele>792.3333333333334</ele><time>2026-04-26T06:45:51.793Z</time></trkpt><trkpt lat="42.5458293" lon="13.4644964"><ele>787.6666666666667</ele><time>2026-04-26T06:45:52.793Z</time></trkpt><trkpt lat="42.5456994" lon="13.464328"><ele>783.0</ele><time>2026-04-26T06:45:53.794Z</time></trkpt><trkpt lat="42.5455702" lon="13.4641699"><ele>783.0</ele><time>2026-04-26T06:45:54.795Z</time></trkpt><trkpt lat="42.5454377" lon="13.4640332"><ele>783.0</ele><time>2026-04-26T06:45:55.794Z</time></trkpt><trkpt lat="42.5452965" lon="13.4639723"><ele>783.0</ele><time>2026-04-26T06:45:56.793Z</time></trkpt><trkpt lat="42.5451231" lon="13.4639211"><ele>786.0</ele><time>2026-04-26T06:45:57.794Z</time></trkpt><trkpt lat="42.5449757" lon="13.4637712"><ele>789.0</ele><time>2026-04-26T06:45:58.794Z</time></trkpt><trkpt lat="42.5448133" lon="13.4636155"><ele>792.0</ele><time>2026-04-26T06:45:59.795Z</time></trkpt><trkpt lat="42.5446491" lon="13.4634231"><ele>799.5</ele><time>2026-04-26T06:46:00.795Z</time></trkpt><trkpt lat="42.544467" lon="13.4632267"><ele>807.0</ele><time>2026-04-26T06:46:01.795Z</time></trkpt><trkpt lat="42.5442846" lon="13.4630218"><ele>802.0</ele><time>2026-04-26T06:46:02.794Z</time></trkpt><trkpt lat="42.5441024" lon="13.4628145"><ele>797.0</ele><time>2026-04-26T06:46:03.795Z</time></trkpt><trkpt lat="42.5439338" lon="13.4626203"><ele>797.0</ele><time>2026-04-26T06:46:04.794Z</time></trkpt><trkpt lat="42.5437757" lon="13.462433"><ele>797.0</ele><time>2026-04-26T06:46:05.794Z</time></trkpt><trkpt lat="42.5436239" lon="13.4622621"><ele>797.0</ele><time>2026-04-26T06:46:06.795Z</time></trkpt><trkpt lat="42.5434822" lon="13.462099"><ele>800.0</ele><time>2026-04-26T06:46:07.795Z</time></trkpt><trkpt lat="42.5433462" lon="13.4619444"><ele>803.0</ele><time>2026-04-26T06:46:08.795Z</time></trkpt><trkpt lat="42.543221" lon="13.461795"><ele>806.0</ele><time>2026-04-26T06:46:09.794Z</time></trkpt><trkpt lat="42.5431065" lon="13.4616612"><ele>806.0</ele><time>2026-04-26T06:46:10.793Z</time></trkpt><trkpt lat="42.5430027" lon="13.4615384"><ele>806.0</ele><time>2026-04-26T06:46:11.795Z</time></trkpt><trkpt lat="42.5429323" lon="13.4614528"><ele>806.0</ele><time>2026-04-26T06:46:12.795Z</time></trkpt><trkpt lat="42.5428575" lon="13.46137"><ele>806.0</ele><time>2026-04-26T06:46:13.794Z</time></trkpt><trkpt lat="42.5427976" lon="13.4612881"><ele>806.0</ele><time>2026-04-26T06:46:14.795Z</time></trkpt><trkpt lat="42.5427456" lon="13.4611922"><ele>806.25</ele><time>2026-04-26T06:46:15.793Z</time></trkpt><trkpt lat="42.5426736" lon="13.461082"><ele>806.5</ele><time>2026-04-26T06:46:16.793Z</time></trkpt><trkpt lat="42.5426081" lon="13.4609525"><ele>806.75</ele><time>2026-04-26T06:46:17.793Z</time></trkpt><trkpt lat="42.5425482" lon="13.460806"><ele>807.0</ele><time>2026-04-26T06:46:18.794Z</time></trkpt><trkpt lat="42.5425026" lon="13.4606422"><ele>807.0</ele><time>2026-04-26T06:46:19.794Z</time></trkpt><trkpt lat="42.542461" lon="13.4604746"><ele>807.0</ele><time>2026-04-26T06:46:20.794Z</time></trkpt><trkpt lat="42.5424226" lon="13.4603012"><ele>807.0</ele><time>2026-04-26T06:46:21.794Z</time></trkpt><trkpt lat="42.542382" lon="13.4601373"><ele>807.0</ele><time>2026-04-26T06:46:22.794Z</time></trkpt><trkpt lat="42.5423384" lon="13.4599629"><ele>812.5</ele><time>2026-04-26T06:46:23.794Z</time></trkpt><trkpt lat="42.5422954" lon="13.4597927"><ele>818.0</ele><time>2026-04-26T06:46:24.793Z</time></trkpt><trkpt lat="42.5422476" lon="13.4596173"><ele>823.5</ele><time>2026-04-26T06:46:25.794Z</time></trkpt><trkpt lat="42.5422024" lon="13.4594434"><ele>829.0</ele><time>2026-04-26T06:46:26.794Z</time></trkpt><trkpt lat="42.5370618" lon="13.4544891"><ele>841.6666666666666</ele><time>2026-04-26T06:47:00.794Z</time></trkpt><trkpt lat="42.5368815" lon="13.4544407"><ele>854.3333333333333</ele><time>2026-04-26T06:47:01.794Z</time></trkpt><trkpt lat="42.5367387" lon="13.4543663"><ele>867.0</ele><time>2026-04-26T06:47:02.793Z</time></trkpt><trkpt lat="42.5366238" lon="13.4542596"><ele>867.0</ele><time>2026-04-26T06:47:03.794Z</time></trkpt><trkpt lat="42.536512" lon="13.4541307"><ele>867.0</ele><time>2026-04-26T06:47:04.794Z</time></trkpt><trkpt lat="42.5364075" lon="13.4539713"><ele>867.0</ele><time>2026-04-26T06:47:05.795Z</time></trkpt><trkpt lat="42.536306" lon="13.4538126"><ele>873.3333333333333</ele><time>2026-04-26T06:47:06.794Z</time></trkpt><trkpt lat="42.5361913" lon="13.4536753"><ele>879.6666666666666</ele><time>2026-04-26T06:47:07.794Z</time></trkpt><trkpt lat="42.5360658" lon="13.4535731"><ele>886.0</ele><time>2026-04-26T06:47:08.795Z</time></trkpt><trkpt lat="42.5359218" lon="13.4535143"><ele>886.0</ele><time>2026-04-26T06:47:09.794Z</time></trkpt><trkpt lat="42.5357704" lon="13.4534787"><ele>886.0</ele><time>2026-04-26T06:47:10.795Z</time></trkpt><trkpt lat="42.5356112" lon="13.4534138"><ele>886.0</ele><time>2026-04-26T06:47:11.794Z</time></trkpt><trkpt lat="42.5354466" lon="13.4533285"><ele>880.0</ele><time>2026-04-26T06:47:12.794Z</time></trkpt><trkpt lat="42.5352851" lon="13.4532439"><ele>874.0</ele><time>2026-04-26T06:47:13.795Z</time></trkpt><trkpt lat="42.5351432" lon="13.4531434"><ele>868.0</ele><time>2026-04-26T06:47:14.795Z</time></trkpt><trkpt lat="42.5350101" lon="13.4530271"><ele>874.3333333333333</ele><time>2026-04-26T06:47:15.794Z</time></trkpt><trkpt lat="42.5348868" lon="13.4528777"><ele>880.6666666666667</ele><time>2026-04-26T06:47:16.794Z</time></trkpt><trkpt lat="42.534773" lon="13.4526923"><ele>887.0</ele><time>2026-04-26T06:47:17.793Z</time></trkpt><trkpt lat="42.534646" lon="13.452502"><ele>885.0</ele><time>2026-04-26T06:47:18.793Z</time></trkpt><trkpt lat="42.5344852" lon="13.4523449"><ele>883.0</ele><time>2026-04-26T06:47:19.794Z</time></trkpt><trkpt lat="42.5343245" lon="13.4522162"><ele>881.0</ele><time>2026-04-26T06:47:20.792Z</time></trkpt><trkpt lat="42.5341793" lon="13.4521098"><ele>881.0</ele><time>2026-04-26T06:47:21.793Z</time></trkpt><trkpt lat="42.5340533" lon="13.4520021"><ele>881.0</ele><time>2026-04-26T06:47:22.792Z</time></trkpt><trkpt lat="42.5339451" lon="13.4518824"><ele>881.0</ele><time>2026-04-26T06:47:23.793Z</time></trkpt><trkpt lat="42.5338599" lon="13.4517119"><ele>881.0</ele><time>2026-04-26T06:47:24.793Z</time></trkpt><trkpt lat="42.5337941" lon="13.4515077"><ele>880.6666666666667</ele><time>2026-04-26T06:47:25.793Z</time></trkpt><trkpt lat="42.5337411" lon="13.4512799"><ele>880.3333333333333</ele><time>2026-04-26T06:47:26.793Z</time></trkpt><trkpt lat="42.53368" lon="13.4510547"><ele>880.0</ele><time>2026-04-26T06:47:27.793Z</time></trkpt><trkpt lat="42.5335919" lon="13.4508309"><ele>880.0</ele><time>2026-04-26T06:47:28.793Z</time></trkpt><trkpt lat="42.5334796" lon="13.45063"><ele>880.0</ele><time>2026-04-26T06:47:29.792Z</time></trkpt><trkpt lat="42.5333676" lon="13.4504178"><ele>880.0</ele><time>2026-04-26T06:47:30.793Z</time></trkpt><trkpt lat="42.5332878" lon="13.4501852"><ele>886.0</ele><time>2026-04-26T06:47:31.792Z</time></trkpt><trkpt lat="42.533243" lon="13.4499539"><ele>892.0</ele><time>2026-04-26T06:47:32.793Z</time></trkpt><trkpt lat="42.5331607" lon="13.4497228"><ele>898.0</ele><time>2026-04-26T06:47:33.793Z</time></trkpt><trkpt lat="42.5330217" lon="13.4495108"><ele>894.0</ele><time>2026-04-26T06:47:34.793Z</time></trkpt><trkpt lat="42.532869" lon="13.4493064"><ele>890.0</ele><time>2026-04-26T06:47:35.793Z</time></trkpt><trkpt lat="42.5327028" lon="13.4491132"><ele>886.0</ele><time>2026-04-26T06:47:36.793Z</time></trkpt><trkpt lat="42.532523" lon="13.4489238"><ele>888.0</ele><time>2026-04-26T06:47:37.792Z</time></trkpt><trkpt lat="42.5323414" lon="13.4487744"><ele>890.0</ele><time>2026-04-26T06:47:38.793Z</time></trkpt><trkpt lat="42.5321622" lon="13.4486026"><ele>892.0</ele><time>2026-04-26T06:47:39.793Z</time></trkpt><trkpt lat="42.5319929" lon="13.4484175"><ele>892.0</ele><time>2026-04-26T06:47:40.793Z</time></trkpt><trkpt lat="42.5318196" lon="13.4482119"><ele>892.0</ele><time>2026-04-26T06:47:41.793Z</time></trkpt><trkpt lat="42.5316796" lon="13.448129"><ele>892.0</ele><time>2026-04-26T06:47:42.794Z</time></trkpt><trkpt lat="42.531514" lon="13.4479645"><ele>894.0</ele><time>2026-04-26T06:47:43.794Z</time></trkpt><trkpt lat="42.53141" lon="13.4477933"><ele>896.0</ele><time>2026-04-26T06:47:44.793Z</time></trkpt><trkpt lat="42.5312584" lon="13.4475494"><ele>898.0</ele><time>2026-04-26T06:47:45.794Z</time></trkpt><trkpt lat="42.5310449" lon="13.4475123"><ele>900.5</ele><time>2026-04-26T06:47:46.794Z</time></trkpt><trkpt lat="42.5308593" lon="13.4470581"><ele>903.0</ele><time>2026-04-26T06:47:47.794Z</time></trkpt><trkpt lat="42.5307058" lon="13.4468579"><ele>903.0</ele><time>2026-04-26T06:47:48.793Z</time></trkpt><trkpt lat="42.5305383" lon="13.4466295"><ele>903.0</ele><time>2026-04-26T06:47:49.792Z</time></trkpt><trkpt lat="42.5302904" lon="13.4464179"><ele>900.5</ele><time>2026-04-26T06:47:50.794Z</time></trkpt><trkpt lat="42.5300906" lon="13.4461525"><ele>898.0</ele><time>2026-04-26T06:47:51.793Z</time></trkpt><trkpt lat="42.529817" lon="13.4459692"><ele>898.0</ele><time>2026-04-26T06:47:52.794Z</time></trkpt><trkpt lat="42.5296344" lon="13.4457568"><ele>898.0</ele><time>2026-04-26T06:47:53.792Z</time></trkpt><trkpt lat="42.5293199" lon="13.4456115"><ele>904.0</ele><time>2026-04-26T06:47:54.793Z</time></trkpt><trkpt lat="42.5301274" lon="13.4447867"><ele>904.0</ele><time>2026-04-26T06:47:55.794Z</time></trkpt><trkpt lat="42.5299465" lon="13.4446359"><ele>904.0</ele><time>2026-04-26T06:47:56.794Z</time></trkpt><trkpt lat="42.5298021" lon="13.4444926"><ele>904.0</ele><time>2026-04-26T06:47:57.793Z</time></trkpt><trkpt lat="42.5296576" lon="13.4443964"><ele>908.6666666666666</ele><time>2026-04-26T06:47:58.793Z</time></trkpt><trkpt lat="42.5295215" lon="13.444295"><ele>913.3333333333333</ele><time>2026-04-26T06:47:59.794Z</time></trkpt><trkpt lat="42.5294025" lon="13.4441812"><ele>918.0</ele><time>2026-04-26T06:48:00.793Z</time></trkpt><trkpt lat="42.5293047" lon="13.4439965"><ele>924.3333333333333</ele><time>2026-04-26T06:48:01.793Z</time></trkpt><trkpt lat="42.5292284" lon="13.4437758"><ele>930.6666666666666</ele><time>2026-04-26T06:48:02.793Z</time></trkpt><trkpt lat="42.5291761" lon="13.4435399"><ele>937.0</ele><time>2026-04-26T06:48:03.793Z</time></trkpt><trkpt lat="42.5291097" lon="13.4433416"><ele>937.0</ele><time>2026-04-26T06:48:04.792Z</time></trkpt><trkpt lat="42.5290084" lon="13.4431555"><ele>937.0</ele><time>2026-04-26T06:48:05.792Z</time></trkpt><trkpt lat="42.5288692" lon="13.4430007"><ele>937.0</ele><time>2026-04-26T06:48:06.792Z</time></trkpt><trkpt lat="42.528707" lon="13.4428662"><ele>933.0</ele><time>2026-04-26T06:48:07.793Z</time></trkpt><trkpt lat="42.5285627" lon="13.4427255"><ele>929.0</ele><time>2026-04-26T06:48:08.794Z</time></trkpt><trkpt lat="42.5284314" lon="13.4425429"><ele>925.0</ele><time>2026-04-26T06:48:09.793Z</time></trkpt><trkpt lat="42.528323" lon="13.4423373"><ele>933.0</ele><time>2026-04-26T06:48:10.793Z</time></trkpt><trkpt lat="42.5282411" lon="13.4421228"><ele>941.0</ele><time>2026-04-26T06:48:11.794Z</time></trkpt><trkpt lat="42.5281861" lon="13.4418798"><ele>949.0</ele><time>2026-04-26T06:48:12.794Z</time></trkpt><trkpt lat="42.5281604" lon="13.4416324"><ele>949.0</ele><time>2026-04-26T06:48:13.794Z</time></trkpt><trkpt lat="42.5281435" lon="13.4414087"><ele>949.0</ele><time>2026-04-26T06:48:14.793Z</time></trkpt><trkpt lat="42.528104" lon="13.4412088"><ele>949.0</ele><time>2026-04-26T06:48:15.793Z</time></trkpt><trkpt lat="42.5280221" lon="13.4410268"><ele>942.3333333333333</ele><time>2026-04-26T06:48:16.794Z</time></trkpt><trkpt lat="42.5278859" lon="13.4408637"><ele>935.6666666666667</ele><time>2026-04-26T06:48:17.793Z</time></trkpt><trkpt lat="42.5277194" lon="13.440711"><ele>929.0</ele><time>2026-04-26T06:48:18.792Z</time></trkpt><trkpt lat="42.5275415" lon="13.4405837"><ele>929.0</ele><time>2026-04-26T06:48:19.792Z</time></trkpt><trkpt lat="42.5273671" lon="13.4405031"><ele>929.0</ele><time>2026-04-26T06:48:20.792Z</time></trkpt><trkpt lat="42.5272107" lon="13.440438"><ele>929.0</ele><time>2026-04-26T06:48:21.794Z</time></trkpt><trkpt lat="42.5270692" lon="13.4403744"><ele>932.3333333333334</ele><time>2026-04-26T06:48:22.793Z</time></trkpt><trkpt lat="42.5269489" lon="13.4402554"><ele>935.6666666666667</ele><time>2026-04-26T06:48:23.793Z</time></trkpt><trkpt lat="42.526845" lon="13.4400916"><ele>939.0</ele><time>2026-04-26T06:48:24.793Z</time></trkpt><trkpt lat="42.5267694" lon="13.439878"><ele>939.0</ele><time>2026-04-26T06:48:25.792Z</time></trkpt><trkpt lat="42.5267145" lon="13.4396594"><ele>939.0</ele><time>2026-04-26T06:48:26.792Z</time></trkpt><trkpt lat="42.5266402" lon="13.4394665"><ele>939.0</ele><time>2026-04-26T06:48:27.794Z</time></trkpt><trkpt lat="42.5265291" lon="13.4392852"><ele>939.0</ele><time>2026-04-26T06:48:28.793Z</time></trkpt><trkpt lat="42.526382" lon="13.4391274"><ele>939.0</ele><time>2026-04-26T06:48:29.794Z</time></trkpt><trkpt lat="42.5262066" lon="13.4389765"><ele>939.0</ele><time>2026-04-26T06:48:30.794Z</time></trkpt><trkpt lat="42.5260274" lon="13.4388228"><ele>951.6666666666667</ele><time>2026-04-26T06:48:31.794Z</time></trkpt><trkpt lat="42.5258445" lon="13.4386791"><ele>964.3333333333334</ele><time>2026-04-26T06:48:32.794Z</time></trkpt><trkpt lat="42.5256365" lon="13.4385676"><ele>977.0</ele><time>2026-04-26T06:48:33.792Z</time></trkpt><trkpt lat="42.5254099" lon="13.4384854"><ele>969.5</ele><time>2026-04-26T06:48:34.793Z</time></trkpt><trkpt lat="42.5251812" lon="13.4384033"><ele>962.0</ele><time>2026-04-26T06:48:35.792Z</time></trkpt><trkpt lat="42.5249637" lon="13.4383415"><ele>962.0</ele><time>2026-04-26T06:48:36.793Z</time></trkpt><trkpt lat="42.5247579" lon="13.438276"><ele>962.0</ele><time>2026-04-26T06:48:37.793Z</time></trkpt><trkpt lat="42.5246303" lon="13.4382118"><ele>962.0</ele><time>2026-04-26T06:48:38.792Z</time></trkpt><trkpt lat="42.5244714" lon="13.4381526"><ele>958.0</ele><time>2026-04-26T06:48:39.793Z</time></trkpt><trkpt lat="42.5243196" lon="13.4380979"><ele>954.0</ele><time>2026-04-26T06:48:40.793Z</time></trkpt><trkpt lat="42.5205486" lon="13.4313785"><ele>964.6666666666667</ele><time>2026-04-26T06:49:09.794Z</time></trkpt><trkpt lat="42.5204955" lon="13.4311219"><ele>975.3333333333334</ele><time>2026-04-26T06:49:10.792Z</time></trkpt><trkpt lat="42.5204245" lon="13.4308643"><ele>986.0</ele><time>2026-04-26T06:49:11.792Z</time></trkpt><trkpt lat="42.5203582" lon="13.4306027"><ele>989.0</ele><time>2026-04-26T06:49:12.793Z</time></trkpt><trkpt lat="42.5202785" lon="13.430337"><ele>992.0</ele><time>2026-04-26T06:49:13.793Z</time></trkpt><trkpt lat="42.5201948" lon="13.4300757"><ele>995.0</ele><time>2026-04-26T06:49:14.793Z</time></trkpt><trkpt lat="42.5201187" lon="13.4298182"><ele>1002.0</ele><time>2026-04-26T06:49:15.794Z</time></trkpt><trkpt lat="42.5200519" lon="13.42956"><ele>1009.0</ele><time>2026-04-26T06:49:16.793Z</time></trkpt><trkpt lat="42.5199963" lon="13.4293016"><ele>1016.0</ele><time>2026-04-26T06:49:17.794Z</time></trkpt><trkpt lat="42.5198968" lon="13.4291254"><ele>1016.0</ele><time>2026-04-26T06:49:18.793Z</time></trkpt><trkpt lat="42.5198038" lon="13.4288855"><ele>1016.0</ele><time>2026-04-26T06:49:19.793Z</time></trkpt><trkpt lat="42.5197007" lon="13.4287769"><ele>1016.0</ele><time>2026-04-26T06:49:20.794Z</time></trkpt><trkpt lat="42.5196096" lon="13.4285782"><ele>1007.3333333333334</ele><time>2026-04-26T06:49:21.794Z</time></trkpt><trkpt lat="42.5195069" lon="13.4284626"><ele>998.6666666666667</ele><time>2026-04-26T06:49:22.792Z</time></trkpt><trkpt lat="42.5193858" lon="13.4282862"><ele>990.0</ele><time>2026-04-26T06:49:23.793Z</time></trkpt><trkpt lat="42.5192875" lon="13.4280932"><ele>991.0</ele><time>2026-04-26T06:49:24.792Z</time></trkpt><trkpt lat="42.5191895" lon="13.4279197"><ele>992.0</ele><time>2026-04-26T06:49:25.793Z</time></trkpt><trkpt lat="42.5190717" lon="13.427728"><ele>993.0</ele><time>2026-04-26T06:49:26.794Z</time></trkpt><trkpt lat="42.5191078" lon="13.4274236"><ele>993.0</ele><time>2026-04-26T06:49:27.793Z</time></trkpt><trkpt lat="42.5192489" lon="13.4270182"><ele>993.0</ele><time>2026-04-26T06:49:28.794Z</time></trkpt><trkpt lat="42.5192295" lon="13.4267344"><ele>993.0</ele><time>2026-04-26T06:49:29.793Z</time></trkpt><trkpt lat="42.5191687" lon="13.4264692"><ele>993.0</ele><time>2026-04-26T06:49:30.793Z</time></trkpt><trkpt lat="42.51905" lon="13.4261443"><ele>990.5</ele><time>2026-04-26T06:49:31.793Z</time></trkpt><trkpt lat="42.5194762" lon="13.42597"><ele>988.0</ele><time>2026-04-26T06:49:32.792Z</time></trkpt><trkpt lat="42.5197808" lon="13.4259049"><ele>1000.3333333333333</ele><time>2026-04-26T06:49:33.793Z</time></trkpt><trkpt lat="42.5198273" lon="13.4256786"><ele>1012.6666666666667</ele><time>2026-04-26T06:49:34.794Z</time></trkpt><trkpt lat="42.5198251" lon="13.4254525"><ele>1025.0</ele><time>2026-04-26T06:49:35.794Z</time></trkpt><trkpt lat="42.5197792" lon="13.4252249"><ele>1025.6666666666667</ele><time>2026-04-26T06:49:36.794Z</time></trkpt><trkpt lat="42.519697" lon="13.4250253"><ele>1026.3333333333333</ele><time>2026-04-26T06:49:37.794Z</time></trkpt><trkpt lat="42.5196007" lon="13.4248465"><ele>1027.0</ele><time>2026-04-26T06:49:38.792Z</time></trkpt><trkpt lat="42.5195173" lon="13.4246936"><ele>1022.5</ele><time>2026-04-26T06:49:39.794Z</time></trkpt><trkpt lat="42.5194549" lon="13.4245542"><ele>1018.0</ele><time>2026-04-26T06:49:40.794Z</time></trkpt><trkpt lat="42.5194206" lon="13.4244098"><ele>1013.5</ele><time>2026-04-26T06:49:41.794Z</time></trkpt><trkpt lat="42.5194163" lon="13.4242524"><ele>1009.0</ele><time>2026-04-26T06:49:42.794Z</time></trkpt><trkpt lat="42.5194398" lon="13.4240583"><ele>1009.0</ele><time>2026-04-26T06:49:43.794Z</time></trkpt><trkpt lat="42.5194737" lon="13.4238434"><ele>1009.0</ele><time>2026-04-26T06:49:44.793Z</time></trkpt><trkpt lat="42.519515" lon="13.4236191"><ele>1009.0</ele><time>2026-04-26T06:49:45.792Z</time></trkpt><trkpt lat="42.5195648" lon="13.423382"><ele>1018.0</ele><time>2026-04-26T06:49:46.793Z</time></trkpt><trkpt lat="42.5196179" lon="13.4231566"><ele>1027.0</ele><time>2026-04-26T06:49:47.793Z</time></trkpt><trkpt lat="42.5196659" lon="13.4229495"><ele>1036.0</ele><time>2026-04-26T06:49:48.794Z</time></trkpt><trkpt lat="42.5197192" lon="13.4227593"><ele>1036.0</ele><time>2026-04-26T06:49:49.793Z</time></trkpt><trkpt lat="42.5197792" lon="13.4225849"><ele>1036.0</ele><time>2026-04-26T06:49:50.794Z</time></trkpt><trkpt lat="42.5198363" lon="13.4224343"><ele>1036.0</ele><time>2026-04-26T06:49:51.793Z</time></trkpt><trkpt lat="42.519881" lon="13.4222975"><ele>1036.0</ele><time>2026-04-26T06:49:52.792Z</time></trkpt><trkpt lat="42.5198872" lon="13.4221753"><ele>1037.2</ele><time>2026-04-26T06:49:53.793Z</time></trkpt><trkpt lat="42.5198517" lon="13.4220598"><ele>1038.3999999999999</ele><time>2026-04-26T06:49:54.793Z</time></trkpt><trkpt lat="42.5197818" lon="13.4219854"><ele>1039.6</ele><time>2026-04-26T06:49:55.793Z</time></trkpt><trkpt lat="42.5196916" lon="13.4219741"><ele>1040.8</ele><time>2026-04-26T06:49:56.792Z</time></trkpt><trkpt lat="42.519595" lon="13.4220317"><ele>1042.0</ele><time>2026-04-26T06:49:57.793Z</time></trkpt><trkpt lat="42.5194861" lon="13.4221469"><ele>1037.0</ele><time>2026-04-26T06:49:58.794Z</time></trkpt><trkpt lat="42.519366" lon="13.422276"><ele>1032.0</ele><time>2026-04-26T06:49:59.794Z</time></trkpt><trkpt lat="42.5192391" lon="13.4223601"><ele>1027.0</ele><time>2026-04-26T06:50:00.793Z</time></trkpt><trkpt lat="42.5191101" lon="13.4224106"><ele>1022.0</ele><time>2026-04-26T06:50:01.793Z</time></trkpt><trkpt lat="42.5189838" lon="13.4224123"><ele>1022.0</ele><time>2026-04-26T06:50:02.794Z</time></trkpt><trkpt lat="42.5188598" lon="13.4223647"><ele>1022.0</ele><time>2026-04-26T06:50:03.793Z</time></trkpt><trkpt lat="42.5187524" lon="13.4222871"><ele>1022.0</ele><time>2026-04-26T06:50:04.793Z</time></trkpt><trkpt lat="42.518674" lon="13.4221788"><ele>1022.0</ele><time>2026-04-26T06:50:05.792Z</time></trkpt><trkpt lat="42.5186249" lon="13.4220434"><ele>1022.3333333333334</ele><time>2026-04-26T06:50:06.792Z</time></trkpt><trkpt lat="42.5185934" lon="13.4218698"><ele>1022.6666666666667</ele><time>2026-04-26T06:50:07.793Z</time></trkpt><trkpt lat="42.5185393" lon="13.4216738"><ele>1023.0</ele><time>2026-04-26T06:50:08.793Z</time></trkpt><trkpt lat="42.5184555" lon="13.4214642"><ele>1031.0</ele><time>2026-04-26T06:50:09.792Z</time></trkpt><trkpt lat="42.5183703" lon="13.4212436"><ele>1039.0</ele><time>2026-04-26T06:50:10.793Z</time></trkpt><trkpt lat="42.5182881" lon="13.4209918"><ele>1047.0</ele><time>2026-04-26T06:50:11.792Z</time></trkpt><trkpt lat="42.5182117" lon="13.4207226"><ele>1054.0</ele><time>2026-04-26T06:50:12.793Z</time></trkpt><trkpt lat="42.5181497" lon="13.4204657"><ele>1061.0</ele><time>2026-04-26T06:50:13.794Z</time></trkpt><trkpt lat="42.5180916" lon="13.4202264"><ele>1068.0</ele><time>2026-04-26T06:50:14.792Z</time></trkpt><trkpt lat="42.5180285" lon="13.4200055"><ele>1068.0</ele><time>2026-04-26T06:50:15.793Z</time></trkpt><trkpt lat="42.5179353" lon="13.4197998"><ele>1068.0</ele><time>2026-04-26T06:50:16.794Z</time></trkpt><trkpt lat="42.5177883" lon="13.4196077"><ele>1068.0</ele><time>2026-04-26T06:50:17.794Z</time></trkpt><trkpt lat="42.5176187" lon="13.4194189"><ele>1060.3333333333333</ele><time>2026-04-26T06:50:18.794Z</time></trkpt><trkpt lat="42.5174285" lon="13.4192479"><ele>1052.6666666666665</ele><time>2026-04-26T06:50:19.793Z</time></trkpt><trkpt lat="42.5172371" lon="13.4191087"><ele>1045.0</ele><time>2026-04-26T06:50:20.793Z</time></trkpt><trkpt lat="42.5170485" lon="13.41898"><ele>1046.0</ele><time>2026-04-26T06:50:21.793Z</time></trkpt><trkpt lat="42.5168732" lon="13.4188374"><ele>1047.0</ele><time>2026-04-26T06:50:22.794Z</time></trkpt><trkpt lat="42.5167039" lon="13.4186732"><ele>1048.0</ele><time>2026-04-26T06:50:23.794Z</time></trkpt><trkpt lat="42.5165523" lon="13.4184755"><ele>1048.0</ele><time>2026-04-26T06:50:24.793Z</time></trkpt><trkpt lat="42.5164105" lon="13.4182593"><ele>1048.0</ele><time>2026-04-26T06:50:25.793Z</time></trkpt><trkpt lat="42.5162694" lon="13.4180238"><ele>1048.0</ele><time>2026-04-26T06:50:26.793Z</time></trkpt><trkpt lat="42.516124" lon="13.4177852"><ele>1043.6666666666665</ele><time>2026-04-26T06:50:27.794Z</time></trkpt><trkpt lat="42.5159885" lon="13.4175455"><ele>1039.3333333333333</ele><time>2026-04-26T06:50:28.793Z</time></trkpt><trkpt lat="42.5158764" lon="13.4173033"><ele>1035.0</ele><time>2026-04-26T06:50:29.793Z</time></trkpt><trkpt lat="42.5157802" lon="13.4170668"><ele>1046.0</ele><time>2026-04-26T06:50:30.792Z</time></trkpt><trkpt lat="42.515685" lon="13.4168345"><ele>1057.0</ele><time>2026-04-26T06:50:31.792Z</time></trkpt><trkpt lat="42.5155623" lon="13.4166283"><ele>1068.0</ele><time>2026-04-26T06:50:32.792Z</time></trkpt><trkpt lat="42.5154182" lon="13.4164543"><ele>1066.6666666666667</ele><time>2026-04-26T06:50:33.792Z</time></trkpt><trkpt lat="42.5152492" lon="13.4163213"><ele>1065.3333333333335</ele><time>2026-04-26T06:50:34.794Z</time></trkpt><trkpt lat="42.5150701" lon="13.4162262"><ele>1064.0</ele><time>2026-04-26T06:50:35.794Z</time></trkpt><trkpt lat="42.5149046" lon="13.4161495"><ele>1064.0</ele><time>2026-04-26T06:50:36.793Z</time></trkpt><trkpt lat="42.5147513" lon="13.4160488"><ele>1064.0</ele><time>2026-04-26T06:50:37.794Z</time></trkpt><trkpt lat="42.5146045" lon="13.4159065"><ele>1064.0</ele><time>2026-04-26T06:50:38.793Z</time></trkpt><trkpt lat="42.5144749" lon="13.415733"><ele>1059.6666666666667</ele><time>2026-04-26T06:50:39.793Z</time></trkpt><trkpt lat="42.514349" lon="13.4155264"><ele>1055.3333333333333</ele><time>2026-04-26T06:50:40.793Z</time></trkpt><trkpt lat="42.5142234" lon="13.4152993"><ele>1051.0</ele><time>2026-04-26T06:50:41.792Z</time></trkpt><trkpt lat="42.5141033" lon="13.415058"><ele>1051.0</ele><time>2026-04-26T06:50:42.792Z</time></trkpt><trkpt lat="42.5139797" lon="13.4148047"><ele>1051.0</ele><time>2026-04-26T06:50:43.792Z</time></trkpt><trkpt lat="42.5138576" lon="13.4145524"><ele>1051.0</ele><time>2026-04-26T06:50:44.792Z</time></trkpt><trkpt lat="42.5137501" lon="13.4143134"><ele>1049.0</ele><time>2026-04-26T06:50:45.793Z</time></trkpt><trkpt lat="42.5136651" lon="13.414059"><ele>1047.0</ele><time>2026-04-26T06:50:46.793Z</time></trkpt><trkpt lat="42.5136155" lon="13.413773"><ele>1045.0</ele><time>2026-04-26T06:50:47.794Z</time></trkpt><trkpt lat="42.5135813" lon="13.4134903"><ele>1045.0</ele><time>2026-04-26T06:50:48.794Z</time></trkpt><trkpt lat="42.5135405" lon="13.4132142"><ele>1045.0</ele><time>2026-04-26T06:50:49.794Z</time></trkpt><trkpt lat="42.513498" lon="13.4129631"><ele>1045.0</ele><time>2026-04-26T06:50:50.794Z</time></trkpt><trkpt lat="42.5134367" lon="13.4127335"><ele>1051.6666666666665</ele><time>2026-04-26T06:50:51.793Z</time></trkpt><trkpt lat="42.513363" lon="13.4125304"><ele>1058.3333333333333</ele><time>2026-04-26T06:50:52.793Z</time></trkpt><trkpt lat="42.513256" lon="13.4123568"><ele>1065.0</ele><time>2026-04-26T06:50:53.793Z</time></trkpt><trkpt lat="42.5131119" lon="13.4122135"><ele>1069.6666666666667</ele><time>2026-04-26T06:50:54.793Z</time></trkpt><trkpt lat="42.5129371" lon="13.4121069"><ele>1074.3333333333335</ele><time>2026-04-26T06:50:55.793Z</time></trkpt><trkpt lat="42.5127367" lon="13.4120521"><ele>1079.0</ele><time>2026-04-26T06:50:56.793Z</time></trkpt><trkpt lat="42.5125202" lon="13.4120536"><ele>1079.0</ele><time>2026-04-26T06:50:57.792Z</time></trkpt><trkpt lat="42.5123224" lon="13.4120955"><ele>1079.0</ele><time>2026-04-26T06:50:58.793Z</time></trkpt><trkpt lat="42.5121468" lon="13.4121422"><ele>1079.0</ele><time>2026-04-26T06:50:59.793Z</time></trkpt><trkpt lat="42.5119851" lon="13.4121816"><ele>1075.75</ele><time>2026-04-26T06:51:00.793Z</time></trkpt><trkpt lat="42.5118478" lon="13.4121854"><ele>1072.5</ele><time>2026-04-26T06:51:01.792Z</time></trkpt><trkpt lat="42.5117354" lon="13.412147"><ele>1069.25</ele><time>2026-04-26T06:51:02.794Z</time></trkpt><trkpt lat="42.5116559" lon="13.4120573"><ele>1066.0</ele><time>2026-04-26T06:51:03.794Z</time></trkpt><trkpt lat="42.5116028" lon="13.4119137"><ele>1066.0</ele><time>2026-04-26T06:51:04.794Z</time></trkpt><trkpt lat="42.5115532" lon="13.4117215"><ele>1066.0</ele><time>2026-04-26T06:51:05.793Z</time></trkpt><trkpt lat="42.5114778" lon="13.411518"><ele>1066.0</ele><time>2026-04-26T06:51:06.793Z</time></trkpt><trkpt lat="42.5113934" lon="13.4113458"><ele>1065.5</ele><time>2026-04-26T06:51:07.793Z</time></trkpt><trkpt lat="42.5113183" lon="13.4111784"><ele>1065.0</ele><time>2026-04-26T06:51:08.793Z</time></trkpt><trkpt lat="42.5112517" lon="13.4110104"><ele>1064.5</ele><time>2026-04-26T06:51:09.792Z</time></trkpt><trkpt lat="42.5111794" lon="13.4108585"><ele>1064.0</ele><time>2026-04-26T06:51:10.793Z</time></trkpt><trkpt lat="42.5110904" lon="13.4107229"><ele>1064.0</ele><time>2026-04-26T06:51:11.793Z</time></trkpt><trkpt lat="42.5109833" lon="13.4106178"><ele>1064.0</ele><time>2026-04-26T06:51:12.793Z</time></trkpt><trkpt lat="42.5108659" lon="13.4105285"><ele>1064.0</ele><time>2026-04-26T06:51:13.792Z</time></trkpt><trkpt lat="42.5107491" lon="13.4104555"><ele>1064.0</ele><time>2026-04-26T06:51:14.793Z</time></trkpt><trkpt lat="42.5106431" lon="13.4103939"><ele>1064.1666666666667</ele><time>2026-04-26T06:51:15.794Z</time></trkpt><trkpt lat="42.5105472" lon="13.4103407"><ele>1064.3333333333335</ele><time>2026-04-26T06:51:16.794Z</time></trkpt><trkpt lat="42.5104594" lon="13.4102856"><ele>1064.5</ele><time>2026-04-26T06:51:17.792Z</time></trkpt><trkpt lat="42.5103778" lon="13.4102337"><ele>1064.6666666666667</ele><time>2026-04-26T06:51:18.793Z</time></trkpt><trkpt lat="42.5103059" lon="13.4101857"><ele>1064.8333333333333</ele><time>2026-04-26T06:51:19.793Z</time></trkpt><trkpt lat="42.5102437" lon="13.4101453"><ele>1065.0</ele><time>2026-04-26T06:51:20.793Z</time></trkpt><trkpt lat="42.5101448" lon="13.4101342"><ele>1065.0</ele><time>2026-04-26T06:51:22.793Z</time></trkpt><trkpt lat="42.5100593" lon="13.4101338"><ele>1065.0</ele><time>2026-04-26T06:51:25.793Z</time></trkpt><trkpt lat="42.5100053" lon="13.4101779"><ele>1065.0</ele><time>2026-04-26T06:52:26.791Z</time></trkpt><trkpt lat="42.5099214" lon="13.4101593"><ele>1065.0</ele><time>2026-04-26T06:52:32.793Z</time></trkpt><trkpt lat="42.5098392" lon="13.4102355"><ele>1065.0</ele><time>2026-04-26T06:52:34.793Z</time></trkpt><trkpt lat="42.5097554" lon="13.4102744"><ele>1065.0</ele><time>2026-04-26T06:52:36.792Z</time></trkpt><trkpt lat="42.5096539" lon="13.4103129"><ele>1063.2</ele><time>2026-04-26T06:52:38.792Z</time></trkpt><trkpt lat="42.5095551" lon="13.4103729"><ele>1061.4</ele><time>2026-04-26T06:52:40.791Z</time></trkpt><trkpt lat="42.5094674" lon="13.41045"><ele>1059.6</ele><time>2026-04-26T06:52:42.792Z</time></trkpt><trkpt lat="42.5093859" lon="13.4105426"><ele>1057.8</ele><time>2026-04-26T06:52:44.792Z</time></trkpt><trkpt lat="42.5093193" lon="13.4106488"><ele>1056.0</ele><time>2026-04-26T06:52:46.792Z</time></trkpt><trkpt lat="42.5092662" lon="13.4107702"><ele>1055.6</ele><time>2026-04-26T06:52:48.792Z</time></trkpt><trkpt lat="42.5092198" lon="13.4109042"><ele>1055.1999999999998</ele><time>2026-04-26T06:52:50.793Z</time></trkpt><trkpt lat="42.5091917" lon="13.4110458"><ele>1054.8000000000002</ele><time>2026-04-26T06:52:52.792Z</time></trkpt><trkpt lat="42.5091812" lon="13.4112292"><ele>1054.4</ele><time>2026-04-26T06:52:54.793Z</time></trkpt><trkpt lat="42.5091825" lon="13.4113295"><ele>1054.0</ele><time>2026-04-26T06:52:55.792Z</time></trkpt><trkpt lat="42.5091992" lon="13.4114852"><ele>1054.857142857143</ele><time>2026-04-26T06:52:57.792Z</time></trkpt><trkpt lat="42.5092253" lon="13.4115965"><ele>1055.7142857142858</ele><time>2026-04-26T06:52:59.791Z</time></trkpt><trkpt lat="42.5092587" lon="13.4116886"><ele>1056.5714285714284</ele><time>2026-04-26T06:53:01.793Z</time></trkpt><trkpt lat="42.5092906" lon="13.4117645"><ele>1057.4285714285716</ele><time>2026-04-26T06:53:03.791Z</time></trkpt><trkpt lat="42.5093414" lon="13.4118391"><ele>1058.2857142857142</ele><time>2026-04-26T06:53:06.792Z</time></trkpt><trkpt lat="42.5092794" lon="13.4117974"><ele>1059.142857142857</ele><time>2026-04-26T06:56:07.793Z</time></trkpt><trkpt lat="42.5093076" lon="13.4118823"><ele>1060.0</ele><time>2026-04-26T06:56:42.792Z</time></trkpt><trkpt lat="42.5093802" lon="13.4118866"><ele>1060.0</ele><time>2026-04-26T06:57:08.791Z</time></trkpt><trkpt lat="42.5093068" lon="13.4118303"><ele>1060.0</ele><time>2026-04-26T07:01:55.791Z</time></trkpt><trkpt lat="42.5092874" lon="13.4117379"><ele>1060.0</ele><time>2026-04-26T07:01:56.791Z</time></trkpt><trkpt lat="42.5092556" lon="13.4116377"><ele>1060.0</ele><time>2026-04-26T07:01:57.791Z</time></trkpt><trkpt lat="42.5092307" lon="13.4114586"><ele>1060.0</ele><time>2026-04-26T07:01:59.791Z</time></trkpt><trkpt lat="42.5092159" lon="13.4113543"><ele>1060.0</ele><time>2026-04-26T07:02:00.791Z</time></trkpt><trkpt lat="42.5092069" lon="13.411249"><ele>1059.0</ele><time>2026-04-26T07:02:01.79Z</time></trkpt><trkpt lat="42.5092084" lon="13.4111551"><ele>1058.0</ele><time>2026-04-26T07:02:02.79Z</time></trkpt><trkpt lat="42.5092169" lon="13.4110617"><ele>1057.0</ele><time>2026-04-26T07:02:03.79Z</time></trkpt><trkpt lat="42.5092322" lon="13.4109372"><ele>1056.0</ele><time>2026-04-26T07:02:05.79Z</time></trkpt><trkpt lat="42.5092466" lon="13.4108342"><ele>1055.0</ele><time>2026-04-26T07:03:09.79Z</time></trkpt><trkpt lat="42.5092896" lon="13.4107078"><ele>1054.0</ele><time>2026-04-26T07:03:11.79Z</time></trkpt><trkpt lat="42.5093636" lon="13.4105777"><ele>1054.0</ele><time>2026-04-26T07:03:13.789Z</time></trkpt><trkpt lat="42.5094077" lon="13.4105139"><ele>1054.0</ele><time>2026-04-26T07:03:14.79Z</time></trkpt><trkpt lat="42.5094564" lon="13.4104558"><ele>1054.0</ele><time>2026-04-26T07:03:15.791Z</time></trkpt><trkpt lat="42.5095603" lon="13.4103607"><ele>1054.0</ele><time>2026-04-26T07:03:17.791Z</time></trkpt><trkpt lat="42.5096221" lon="13.4103225"><ele>1054.0</ele><time>2026-04-26T07:03:18.79Z</time></trkpt><trkpt lat="42.5096849" lon="13.4102912"><ele>1054.0</ele><time>2026-04-26T07:03:19.79Z</time></trkpt><trkpt lat="42.5097961" lon="13.4102482"><ele>1056.2</ele><time>2026-04-26T07:03:21.791Z</time></trkpt><trkpt lat="42.5098928" lon="13.4102025"><ele>1058.4</ele><time>2026-04-26T07:03:23.789Z</time></trkpt><trkpt lat="42.5099757" lon="13.4101134"><ele>1060.6</ele><time>2026-04-26T07:03:25.789Z</time></trkpt><trkpt lat="42.5100338" lon="13.4100324"><ele>1062.8</ele><time>2026-04-26T07:03:27.79Z</time></trkpt><trkpt lat="42.5100684" lon="13.4099106"><ele>1065.0</ele><time>2026-04-26T07:03:29.789Z</time></trkpt><trkpt lat="42.5100753" lon="13.4098171"><ele>1065.0</ele><time>2026-04-26T07:03:30.789Z</time></trkpt><trkpt lat="42.5100676" lon="13.4096759"><ele>1065.0</ele><time>2026-04-26T07:03:31.789Z</time></trkpt><trkpt lat="42.5100518" lon="13.4095155"><ele>1065.0</ele><time>2026-04-26T07:03:32.79Z</time></trkpt><trkpt lat="42.5100319" lon="13.4093353"><ele>1065.0</ele><time>2026-04-26T07:03:33.789Z</time></trkpt><trkpt lat="42.5100094" lon="13.4091473"><ele>1069.75</ele><time>2026-04-26T07:03:34.79Z</time></trkpt><trkpt lat="42.5099854" lon="13.4089738"><ele>1074.5</ele><time>2026-04-26T07:03:35.788Z</time></trkpt><trkpt lat="42.5099528" lon="13.4088036"><ele>1079.25</ele><time>2026-04-26T07:03:36.789Z</time></trkpt><trkpt lat="42.5098919" lon="13.4086432"><ele>1084.0</ele><time>2026-04-26T07:03:37.79Z</time></trkpt><trkpt lat="42.5097996" lon="13.4084859"><ele>1090.6666666666665</ele><time>2026-04-26T07:03:38.79Z</time></trkpt><trkpt lat="42.5096899" lon="13.408337"><ele>1097.3333333333333</ele><time>2026-04-26T07:03:39.789Z</time></trkpt><trkpt lat="42.5095647" lon="13.4081925"><ele>1104.0</ele><time>2026-04-26T07:03:40.788Z</time></trkpt><trkpt lat="42.5094293" lon="13.4080644"><ele>1097.3333333333333</ele><time>2026-04-26T07:03:41.789Z</time></trkpt><trkpt lat="42.5092835" lon="13.4079519"><ele>1090.6666666666665</ele><time>2026-04-26T07:03:42.789Z</time></trkpt><trkpt lat="42.5091344" lon="13.4078556"><ele>1084.0</ele><time>2026-04-26T07:03:43.789Z</time></trkpt><trkpt lat="42.5089884" lon="13.4077591"><ele>1084.0</ele><time>2026-04-26T07:03:44.79Z</time></trkpt><trkpt lat="42.5088533" lon="13.4076671"><ele>1084.0</ele><time>2026-04-26T07:03:45.788Z</time></trkpt><trkpt lat="42.5087231" lon="13.4075655"><ele>1084.0</ele><time>2026-04-26T07:03:46.789Z</time></trkpt><trkpt lat="42.508619" lon="13.4074468"><ele>1084.0</ele><time>2026-04-26T07:03:47.789Z</time></trkpt><trkpt lat="42.5085465" lon="13.4073015"><ele>1084.25</ele><time>2026-04-26T07:03:48.789Z</time></trkpt><trkpt lat="42.5084885" lon="13.4071409"><ele>1084.5</ele><time>2026-04-26T07:03:49.79Z</time></trkpt><trkpt lat="42.5084277" lon="13.4069634"><ele>1084.75</ele><time>2026-04-26T07:03:50.789Z</time></trkpt><trkpt lat="42.5083637" lon="13.4067565"><ele>1085.0</ele><time>2026-04-26T07:03:51.79Z</time></trkpt><trkpt lat="42.5083081" lon="13.4065438"><ele>1085.0</ele><time>2026-04-26T07:03:52.789Z</time></trkpt><trkpt lat="42.5082512" lon="13.406346"><ele>1085.0</ele><time>2026-04-26T07:03:53.79Z</time></trkpt><trkpt lat="42.5082205" lon="13.4061373"><ele>1085.0</ele><time>2026-04-26T07:03:54.79Z</time></trkpt><trkpt lat="42.5082219" lon="13.4059205"><ele>1088.0</ele><time>2026-04-26T07:03:55.788Z</time></trkpt><trkpt lat="42.5082488" lon="13.4057032"><ele>1091.0</ele><time>2026-04-26T07:03:56.789Z</time></trkpt><trkpt lat="42.5082564" lon="13.4054824"><ele>1094.0</ele><time>2026-04-26T07:03:57.788Z</time></trkpt><trkpt lat="42.5082245" lon="13.4052517"><ele>1098.6666666666667</ele><time>2026-04-26T07:03:58.789Z</time></trkpt><trkpt lat="42.5081521" lon="13.4050203"><ele>1103.3333333333333</ele><time>2026-04-26T07:03:59.788Z</time></trkpt><trkpt lat="42.508051" lon="13.4048112"><ele>1108.0</ele><time>2026-04-26T07:04:00.789Z</time></trkpt><trkpt lat="42.5079413" lon="13.404612"><ele>1097.0</ele><time>2026-04-26T07:04:01.789Z</time></trkpt><trkpt lat="42.5078454" lon="13.404416"><ele>1086.0</ele><time>2026-04-26T07:04:02.789Z</time></trkpt><trkpt lat="42.5077759" lon="13.4042036"><ele>1075.0</ele><time>2026-04-26T07:04:03.789Z</time></trkpt><trkpt lat="42.507732" lon="13.4039784"><ele>1079.0</ele><time>2026-04-26T07:04:04.79Z</time></trkpt><trkpt lat="42.5077014" lon="13.4037464"><ele>1083.0</ele><time>2026-04-26T07:04:05.789Z</time></trkpt><trkpt lat="42.5076859" lon="13.403533"><ele>1087.0</ele><time>2026-04-26T07:04:06.79Z</time></trkpt><trkpt lat="42.5076765" lon="13.4033321"><ele>1087.0</ele><time>2026-04-26T07:04:07.79Z</time></trkpt><trkpt lat="42.507659" lon="13.403139"><ele>1087.0</ele><time>2026-04-26T07:04:08.79Z</time></trkpt><trkpt lat="42.5076161" lon="13.4029571"><ele>1087.0</ele><time>2026-04-26T07:04:09.789Z</time></trkpt><trkpt lat="42.5075392" lon="13.4028042"><ele>1087.0</ele><time>2026-04-26T07:04:10.789Z</time></trkpt><trkpt lat="42.5074344" lon="13.4026831"><ele>1086.3333333333333</ele><time>2026-04-26T07:04:11.788Z</time></trkpt><trkpt lat="42.5073009" lon="13.4025842"><ele>1085.6666666666667</ele><time>2026-04-26T07:04:12.788Z</time></trkpt><trkpt lat="42.5071473" lon="13.4024919"><ele>1085.0</ele><time>2026-04-26T07:04:13.789Z</time></trkpt><trkpt lat="42.5069867" lon="13.4023801"><ele>1085.0</ele><time>2026-04-26T07:04:14.789Z</time></trkpt><trkpt lat="42.5068279" lon="13.4022603"><ele>1085.0</ele><time>2026-04-26T07:04:15.788Z</time></trkpt><trkpt lat="42.5066645" lon="13.4021407"><ele>1085.0</ele><time>2026-04-26T07:04:16.789Z</time></trkpt><trkpt lat="42.5065008" lon="13.4020202"><ele>1088.6666666666667</ele><time>2026-04-26T07:04:17.789Z</time></trkpt><trkpt lat="42.5063324" lon="13.4019009"><ele>1092.3333333333333</ele><time>2026-04-26T07:04:18.79Z</time></trkpt><trkpt lat="42.5061635" lon="13.4017824"><ele>1096.0</ele><time>2026-04-26T07:04:19.79Z</time></trkpt><trkpt lat="42.5059992" lon="13.4016622"><ele>1096.0</ele><time>2026-04-26T07:04:20.79Z</time></trkpt><trkpt lat="42.5058245" lon="13.4015561"><ele>1096.0</ele><time>2026-04-26T07:04:21.789Z</time></trkpt><trkpt lat="42.5056631" lon="13.4014471"><ele>1096.0</ele><time>2026-04-26T07:04:22.789Z</time></trkpt><trkpt lat="42.5055166" lon="13.4013035"><ele>1098.3333333333333</ele><time>2026-04-26T07:04:23.79Z</time></trkpt><trkpt lat="42.505357" lon="13.4011823"><ele>1100.6666666666667</ele><time>2026-04-26T07:04:24.79Z</time></trkpt><trkpt lat="42.5052001" lon="13.4010653"><ele>1103.0</ele><time>2026-04-26T07:04:25.789Z</time></trkpt><trkpt lat="42.5050465" lon="13.4009603"><ele>1103.0</ele><time>2026-04-26T07:04:26.789Z</time></trkpt><trkpt lat="42.5049041" lon="13.4008549"><ele>1103.0</ele><time>2026-04-26T07:04:27.789Z</time></trkpt><trkpt lat="42.5047762" lon="13.400747"><ele>1103.0</ele><time>2026-04-26T07:04:28.79Z</time></trkpt><trkpt lat="42.5046735" lon="13.4006214"><ele>1100.0</ele><time>2026-04-26T07:04:29.789Z</time></trkpt><trkpt lat="42.504593" lon="13.4004493"><ele>1097.0</ele><time>2026-04-26T07:04:30.789Z</time></trkpt><trkpt lat="42.5045251" lon="13.4002429"><ele>1094.0</ele><time>2026-04-26T07:04:31.789Z</time></trkpt><trkpt lat="42.5044573" lon="13.4000192"><ele>1094.0</ele><time>2026-04-26T07:04:32.789Z</time></trkpt><trkpt lat="42.5043782" lon="13.3997916"><ele>1094.0</ele><time>2026-04-26T07:04:33.789Z</time></trkpt><trkpt lat="42.5042953" lon="13.3995557"><ele>1094.0</ele><time>2026-04-26T07:04:34.79Z</time></trkpt><trkpt lat="42.5041858" lon="13.3993209"><ele>1100.6666666666667</ele><time>2026-04-26T07:04:35.788Z</time></trkpt><trkpt lat="42.5040527" lon="13.3991023"><ele>1107.3333333333333</ele><time>2026-04-26T07:04:36.788Z</time></trkpt><trkpt lat="42.5038956" lon="13.3988982"><ele>1114.0</ele><time>2026-04-26T07:04:37.789Z</time></trkpt><trkpt lat="42.5037342" lon="13.3987013"><ele>1114.0</ele><time>2026-04-26T07:04:38.789Z</time></trkpt><trkpt lat="42.5035664" lon="13.3985158"><ele>1114.0</ele><time>2026-04-26T07:04:39.789Z</time></trkpt><trkpt lat="42.5033899" lon="13.3983481"><ele>1114.0</ele><time>2026-04-26T07:04:40.79Z</time></trkpt><trkpt lat="42.5032245" lon="13.398194"><ele>1114.0</ele><time>2026-04-26T07:04:41.789Z</time></trkpt><trkpt lat="42.5030731" lon="13.3980565"><ele>1114.0</ele><time>2026-04-26T07:04:42.789Z</time></trkpt><trkpt lat="42.5029362" lon="13.3979271"><ele>1114.0</ele><time>2026-04-26T07:04:43.789Z</time></trkpt><trkpt lat="42.502814" lon="13.3977976"><ele>1112.6666666666665</ele><time>2026-04-26T07:04:44.79Z</time></trkpt><trkpt lat="42.5027121" lon="13.3976485"><ele>1111.3333333333333</ele><time>2026-04-26T07:04:45.789Z</time></trkpt><trkpt lat="42.5026284" lon="13.3974652"><ele>1110.0</ele><time>2026-04-26T07:04:46.79Z</time></trkpt><trkpt lat="42.5025667" lon="13.3972545"><ele>1112.0</ele><time>2026-04-26T07:04:47.788Z</time></trkpt><trkpt lat="42.5025249" lon="13.3970215"><ele>1114.0</ele><time>2026-04-26T07:04:48.79Z</time></trkpt><trkpt lat="42.5024943" lon="13.3967749"><ele>1116.0</ele><time>2026-04-26T07:04:49.79Z</time></trkpt><trkpt lat="42.5024773" lon="13.3965314"><ele>1120.3333333333333</ele><time>2026-04-26T07:04:50.788Z</time></trkpt><trkpt lat="42.5024622" lon="13.3962901"><ele>1124.6666666666665</ele><time>2026-04-26T07:04:51.788Z</time></trkpt><trkpt lat="42.5024308" lon="13.3960368"><ele>1129.0</ele><time>2026-04-26T07:04:52.788Z</time></trkpt><trkpt lat="42.5023838" lon="13.3957792"><ele>1129.0</ele><time>2026-04-26T07:04:53.789Z</time></trkpt><trkpt lat="42.5023244" lon="13.3955195"><ele>1129.0</ele><time>2026-04-26T07:04:54.789Z</time></trkpt><trkpt lat="42.5022444" lon="13.3952697"><ele>1129.0</ele><time>2026-04-26T07:04:55.789Z</time></trkpt><trkpt lat="42.5021539" lon="13.395026"><ele>1131.3333333333333</ele><time>2026-04-26T07:04:56.789Z</time></trkpt><trkpt lat="42.502083" lon="13.3947868"><ele>1133.6666666666667</ele><time>2026-04-26T07:04:57.789Z</time></trkpt><trkpt lat="42.5020402" lon="13.3945546"><ele>1136.0</ele><time>2026-04-26T07:04:58.788Z</time></trkpt><trkpt lat="42.501986" lon="13.3943342"><ele>1134.3333333333335</ele><time>2026-04-26T07:04:59.789Z</time></trkpt><trkpt lat="42.5018964" lon="13.3941195"><ele>1132.6666666666667</ele><time>2026-04-26T07:05:00.788Z</time></trkpt><trkpt lat="42.5017907" lon="13.3939195"><ele>1131.0</ele><time>2026-04-26T07:05:01.79Z</time></trkpt><trkpt lat="42.5016719" lon="13.3937467"><ele>1131.0</ele><time>2026-04-26T07:05:02.79Z</time></trkpt><trkpt lat="42.5015415" lon="13.3935979"><ele>1131.0</ele><time>2026-04-26T07:05:03.79Z</time></trkpt><trkpt lat="42.5013971" lon="13.3934895"><ele>1131.0</ele><time>2026-04-26T07:05:04.789Z</time></trkpt><trkpt lat="42.5012553" lon="13.3934055"><ele>1125.25</ele><time>2026-04-26T07:05:05.79Z</time></trkpt><trkpt lat="42.5011269" lon="13.3933149"><ele>1119.5</ele><time>2026-04-26T07:05:06.789Z</time></trkpt><trkpt lat="42.5010333" lon="13.3931965"><ele>1113.75</ele><time>2026-04-26T07:05:07.788Z</time></trkpt><trkpt lat="42.5009703" lon="13.3930596"><ele>1108.0</ele><time>2026-04-26T07:05:08.788Z</time></trkpt><trkpt lat="42.5009499" lon="13.3928998"><ele>1108.0</ele><time>2026-04-26T07:05:09.789Z</time></trkpt><trkpt lat="42.5009551" lon="13.3927565"><ele>1108.0</ele><time>2026-04-26T07:05:10.789Z</time></trkpt><trkpt lat="42.5009584" lon="13.3926375"><ele>1108.0</ele><time>2026-04-26T07:05:11.789Z</time></trkpt><trkpt lat="42.5009479" lon="13.3925507"><ele>1108.0</ele><time>2026-04-26T07:05:12.79Z</time></trkpt><trkpt lat="42.5009369" lon="13.3924613"><ele>1108.0</ele><time>2026-04-26T07:05:14.79Z</time></trkpt><trkpt lat="42.5009011" lon="13.3923517"><ele>1108.0</ele><time>2026-04-26T07:05:54.789Z</time></trkpt><trkpt lat="42.5008808" lon="13.3922299"><ele>1108.25</ele><time>2026-04-26T07:05:55.79Z</time></trkpt><trkpt lat="42.5008531" lon="13.392077"><ele>1108.5</ele><time>2026-04-26T07:05:56.788Z</time></trkpt><trkpt lat="42.5008129" lon="13.391908"><ele>1108.75</ele><time>2026-04-26T07:05:57.789Z</time></trkpt><trkpt lat="42.5007466" lon="13.3917425"><ele>1109.0</ele><time>2026-04-26T07:05:58.789Z</time></trkpt><trkpt lat="42.5006556" lon="13.3915926"><ele>1109.0</ele><time>2026-04-26T07:05:59.79Z</time></trkpt><trkpt lat="42.5005428" lon="13.3914668"><ele>1109.0</ele><time>2026-04-26T07:06:00.789Z</time></trkpt><trkpt lat="42.5004034" lon="13.3913517"><ele>1109.0</ele><time>2026-04-26T07:06:01.788Z</time></trkpt><trkpt lat="42.500252" lon="13.3912474"><ele>1112.0</ele><time>2026-04-26T07:06:02.788Z</time></trkpt><trkpt lat="42.5000907" lon="13.3911374"><ele>1115.0</ele><time>2026-04-26T07:06:03.788Z</time></trkpt><trkpt lat="42.4999361" lon="13.3910341"><ele>1118.0</ele><time>2026-04-26T07:06:04.79Z</time></trkpt><trkpt lat="42.4997851" lon="13.3909134"><ele>1118.0</ele><time>2026-04-26T07:06:05.789Z</time></trkpt><trkpt lat="42.4996417" lon="13.3907696"><ele>1118.0</ele><time>2026-04-26T07:06:06.79Z</time></trkpt><trkpt lat="42.4995078" lon="13.3905895"><ele>1118.0</ele><time>2026-04-26T07:06:07.789Z</time></trkpt><trkpt lat="42.4993845" lon="13.3903849"><ele>1117.3333333333335</ele><time>2026-04-26T07:06:08.79Z</time></trkpt><trkpt lat="42.4992638" lon="13.3901748"><ele>1116.6666666666667</ele><time>2026-04-26T07:06:09.789Z</time></trkpt><trkpt lat="42.4991481" lon="13.3899576"><ele>1116.0</ele><time>2026-04-26T07:06:10.789Z</time></trkpt><trkpt lat="42.4990402" lon="13.3897483"><ele>1119.6666666666667</ele><time>2026-04-26T07:06:11.79Z</time></trkpt><trkpt lat="42.4989463" lon="13.3895322"><ele>1123.3333333333335</ele><time>2026-04-26T07:06:12.79Z</time></trkpt><trkpt lat="42.4988671" lon="13.3893081"><ele>1127.0</ele><time>2026-04-26T07:06:13.789Z</time></trkpt><trkpt lat="42.498812" lon="13.3890685"><ele>1128.0</ele><time>2026-04-26T07:06:14.789Z</time></trkpt><trkpt lat="42.4987827" lon="13.3888206"><ele>1129.0</ele><time>2026-04-26T07:06:15.79Z</time></trkpt><trkpt lat="42.4987654" lon="13.3885602"><ele>1130.0</ele><time>2026-04-26T07:06:16.79Z</time></trkpt><trkpt lat="42.4987306" lon="13.3882893"><ele>1125.6666666666667</ele><time>2026-04-26T07:06:17.79Z</time></trkpt><trkpt lat="42.4986688" lon="13.3880204"><ele>1121.3333333333333</ele><time>2026-04-26T07:06:18.79Z</time></trkpt><trkpt lat="42.4985779" lon="13.3877707"><ele>1117.0</ele><time>2026-04-26T07:06:19.79Z</time></trkpt><trkpt lat="42.4984744" lon="13.3875346"><ele>1117.0</ele><time>2026-04-26T07:06:20.79Z</time></trkpt><trkpt lat="42.4983506" lon="13.3873227"><ele>1117.0</ele><time>2026-04-26T07:06:21.789Z</time></trkpt><trkpt lat="42.4982187" lon="13.3871309"><ele>1117.0</ele><time>2026-04-26T07:06:22.79Z</time></trkpt><trkpt lat="42.498084" lon="13.3869581"><ele>1116.3333333333333</ele><time>2026-04-26T07:06:23.79Z</time></trkpt><trkpt lat="42.4979426" lon="13.3867961"><ele>1115.6666666666667</ele><time>2026-04-26T07:06:24.789Z</time></trkpt><trkpt lat="42.4977994" lon="13.3866352"><ele>1115.0</ele><time>2026-04-26T07:06:25.79Z</time></trkpt><trkpt lat="42.497652" lon="13.3864808"><ele>1120.0</ele><time>2026-04-26T07:06:26.79Z</time></trkpt><trkpt lat="42.4974972" lon="13.3863291"><ele>1125.0</ele><time>2026-04-26T07:06:27.79Z</time></trkpt><trkpt lat="42.4973342" lon="13.3861781"><ele>1130.0</ele><time>2026-04-26T07:06:28.789Z</time></trkpt><trkpt lat="42.4971662" lon="13.386029"><ele>1126.3333333333335</ele><time>2026-04-26T07:06:29.788Z</time></trkpt><trkpt lat="42.4969973" lon="13.3858729"><ele>1122.6666666666667</ele><time>2026-04-26T07:06:30.79Z</time></trkpt><trkpt lat="42.4968279" lon="13.3857151"><ele>1119.0</ele><time>2026-04-26T07:06:31.79Z</time></trkpt><trkpt lat="42.4966492" lon="13.3855572"><ele>1124.0</ele><time>2026-04-26T07:06:32.79Z</time></trkpt><trkpt lat="42.4964649" lon="13.3854154"><ele>1129.0</ele><time>2026-04-26T07:06:33.789Z</time></trkpt><trkpt lat="42.4962732" lon="13.385296"><ele>1134.0</ele><time>2026-04-26T07:06:34.788Z</time></trkpt><trkpt lat="42.4960767" lon="13.385215"><ele>1134.0</ele><time>2026-04-26T07:06:35.789Z</time></trkpt><trkpt lat="42.4958769" lon="13.3851734"><ele>1134.0</ele><time>2026-04-26T07:06:36.79Z</time></trkpt><trkpt lat="42.4956826" lon="13.3851623"><ele>1134.0</ele><time>2026-04-26T07:06:37.789Z</time></trkpt><trkpt lat="42.4954989" lon="13.3851699"><ele>1133.0</ele><time>2026-04-26T07:06:38.789Z</time></trkpt><trkpt lat="42.4953271" lon="13.3851823"><ele>1132.0</ele><time>2026-04-26T07:06:39.79Z</time></trkpt><trkpt lat="42.4951658" lon="13.3851821"><ele>1131.0</ele><time>2026-04-26T07:06:40.788Z</time></trkpt><trkpt lat="42.4950174" lon="13.3851537"><ele>1131.0</ele><time>2026-04-26T07:06:41.789Z</time></trkpt><trkpt lat="42.4948915" lon="13.3850955"><ele>1131.0</ele><time>2026-04-26T07:06:42.787Z</time></trkpt><trkpt lat="42.4947884" lon="13.3850018"><ele>1131.0</ele><time>2026-04-26T07:06:43.788Z</time></trkpt><trkpt lat="42.4947123" lon="13.3848741"><ele>1131.0</ele><time>2026-04-26T07:06:44.788Z</time></trkpt><trkpt lat="42.4946612" lon="13.3847146"><ele>1134.0</ele><time>2026-04-26T07:06:45.788Z</time></trkpt><trkpt lat="42.4946311" lon="13.3845259"><ele>1137.0</ele><time>2026-04-26T07:06:46.787Z</time></trkpt><trkpt lat="42.4946299" lon="13.3843229"><ele>1140.0</ele><time>2026-04-26T07:06:47.788Z</time></trkpt><trkpt lat="42.4946621" lon="13.3841054"><ele>1140.0</ele><time>2026-04-26T07:06:48.788Z</time></trkpt><trkpt lat="42.4947097" lon="13.3838709"><ele>1140.0</ele><time>2026-04-26T07:06:49.789Z</time></trkpt><trkpt lat="42.4947576" lon="13.3836335"><ele>1140.0</ele><time>2026-04-26T07:06:50.789Z</time></trkpt><trkpt lat="42.4947987" lon="13.3833755"><ele>1140.6666666666667</ele><time>2026-04-26T07:06:51.788Z</time></trkpt><trkpt lat="42.4948251" lon="13.3831068"><ele>1141.3333333333335</ele><time>2026-04-26T07:06:52.789Z</time></trkpt><trkpt lat="42.4948394" lon="13.3828367"><ele>1142.0</ele><time>2026-04-26T07:06:53.787Z</time></trkpt><trkpt lat="42.4948311" lon="13.3825694"><ele>1142.6666666666667</ele><time>2026-04-26T07:06:54.788Z</time></trkpt><trkpt lat="42.4947977" lon="13.3823047"><ele>1143.3333333333333</ele><time>2026-04-26T07:06:55.789Z</time></trkpt><trkpt lat="42.4947356" lon="13.3820398"><ele>1144.0</ele><time>2026-04-26T07:06:56.789Z</time></trkpt><trkpt lat="42.4946515" lon="13.3817764"><ele>1141.6666666666665</ele><time>2026-04-26T07:06:57.788Z</time></trkpt><trkpt lat="42.4945551" lon="13.3815108"><ele>1139.3333333333333</ele><time>2026-04-26T07:06:58.788Z</time></trkpt><trkpt lat="42.4944503" lon="13.3812612"><ele>1137.0</ele><time>2026-04-26T07:06:59.787Z</time></trkpt><trkpt lat="42.4943347" lon="13.3810173"><ele>1137.0</ele><time>2026-04-26T07:07:00.787Z</time></trkpt><trkpt lat="42.4942221" lon="13.3807658"><ele>1137.0</ele><time>2026-04-26T07:07:01.787Z</time></trkpt><trkpt lat="42.4941129" lon="13.380492"><ele>1137.0</ele><time>2026-04-26T07:07:02.787Z</time></trkpt><trkpt lat="42.4940106" lon="13.3802094"><ele>1140.0</ele><time>2026-04-26T07:07:03.789Z</time></trkpt><trkpt lat="42.4939231" lon="13.3799255"><ele>1143.0</ele><time>2026-04-26T07:07:04.787Z</time></trkpt><trkpt lat="42.4938467" lon="13.3796337"><ele>1144.5</ele><time>2026-04-26T07:07:05.788Z</time></trkpt><trkpt lat="42.4937875" lon="13.3793329"><ele>1146.0</ele><time>2026-04-26T07:07:06.788Z</time></trkpt><trkpt lat="42.4937417" lon="13.379015"><ele>1142.0</ele><time>2026-04-26T07:07:07.787Z</time></trkpt><trkpt lat="42.4937003" lon="13.3786877"><ele>1138.0</ele><time>2026-04-26T07:07:08.789Z</time></trkpt><trkpt lat="42.4936579" lon="13.3783697"><ele>1138.0</ele><time>2026-04-26T07:07:09.788Z</time></trkpt><trkpt lat="42.4936173" lon="13.3780494"><ele>1138.0</ele><time>2026-04-26T07:07:10.787Z</time></trkpt><trkpt lat="42.4935708" lon="13.3777339"><ele>1139.0</ele><time>2026-04-26T07:07:11.788Z</time></trkpt><trkpt lat="42.4935059" lon="13.3774273"><ele>1140.0</ele><time>2026-04-26T07:07:12.788Z</time></trkpt><trkpt lat="42.4934249" lon="13.3771341"><ele>1142.0</ele><time>2026-04-26T07:07:13.788Z</time></trkpt><trkpt lat="42.4933356" lon="13.3768502"><ele>1144.0</ele><time>2026-04-26T07:07:14.789Z</time></trkpt><trkpt lat="42.4932489" lon="13.3765756"><ele>1146.0</ele><time>2026-04-26T07:07:15.787Z</time></trkpt><trkpt lat="42.4931764" lon="13.3763134"><ele>1146.6666666666667</ele><time>2026-04-26T07:07:16.788Z</time></trkpt><trkpt lat="42.4931301" lon="13.376037"><ele>1147.3333333333335</ele><time>2026-04-26T07:07:17.787Z</time></trkpt><trkpt lat="42.4931047" lon="13.3757542"><ele>1148.0</ele><time>2026-04-26T07:07:18.788Z</time></trkpt><trkpt lat="42.4930978" lon="13.3754592"><ele>1146.6666666666667</ele><time>2026-04-26T07:07:19.787Z</time></trkpt><trkpt lat="42.493094" lon="13.3751664"><ele>1145.3333333333333</ele><time>2026-04-26T07:07:20.787Z</time></trkpt><trkpt lat="42.493091" lon="13.374881"><ele>1144.0</ele><time>2026-04-26T07:07:21.788Z</time></trkpt><trkpt lat="42.4930932" lon="13.3746107"><ele>1143.6666666666665</ele><time>2026-04-26T07:07:22.787Z</time></trkpt><trkpt lat="42.4931152" lon="13.3743368"><ele>1143.3333333333333</ele><time>2026-04-26T07:07:23.788Z</time></trkpt><trkpt lat="42.493161" lon="13.3740636"><ele>1143.0</ele><time>2026-04-26T07:07:24.788Z</time></trkpt><trkpt lat="42.4932256" lon="13.373787"><ele>1142.6666666666667</ele><time>2026-04-26T07:07:25.788Z</time></trkpt><trkpt lat="42.4933051" lon="13.3735072"><ele>1142.3333333333335</ele><time>2026-04-26T07:07:26.787Z</time></trkpt><trkpt lat="42.4933904" lon="13.3732214"><ele>1142.0</ele><time>2026-04-26T07:07:27.787Z</time></trkpt><trkpt lat="42.4934799" lon="13.372936"><ele>1142.0</ele><time>2026-04-26T07:07:28.787Z</time></trkpt><trkpt lat="42.493572" lon="13.3726458"><ele>1142.0</ele><time>2026-04-26T07:07:29.788Z</time></trkpt><trkpt lat="42.4936633" lon="13.372358"><ele>1142.0</ele><time>2026-04-26T07:07:30.788Z</time></trkpt><trkpt lat="42.4937507" lon="13.3720785"><ele>1142.0</ele><time>2026-04-26T07:07:31.788Z</time></trkpt><trkpt lat="42.4938322" lon="13.3718159"><ele>1142.0</ele><time>2026-04-26T07:07:32.788Z</time></trkpt><trkpt lat="42.4939058" lon="13.3715611"><ele>1143.0</ele><time>2026-04-26T07:07:33.787Z</time></trkpt><trkpt lat="42.4939603" lon="13.3713162"><ele>1144.0</ele><time>2026-04-26T07:07:34.788Z</time></trkpt><trkpt lat="42.4939797" lon="13.3710741"><ele>1145.0</ele><time>2026-04-26T07:07:35.789Z</time></trkpt><trkpt lat="42.4939607" lon="13.3708327"><ele>1145.0</ele><time>2026-04-26T07:07:36.788Z</time></trkpt><trkpt lat="42.4939073" lon="13.3705895"><ele>1145.0</ele><time>2026-04-26T07:07:37.789Z</time></trkpt><trkpt lat="42.4938132" lon="13.3703448"><ele>1145.0</ele><time>2026-04-26T07:07:38.788Z</time></trkpt><trkpt lat="42.4936856" lon="13.3701022"><ele>1145.0</ele><time>2026-04-26T07:07:39.788Z</time></trkpt><trkpt lat="42.4935319" lon="13.369859"><ele>1145.0</ele><time>2026-04-26T07:07:40.788Z</time></trkpt><trkpt lat="42.4933676" lon="13.3696129"><ele>1145.0</ele><time>2026-04-26T07:07:41.789Z</time></trkpt><trkpt lat="42.4932002" lon="13.369368"><ele>1145.0</ele><time>2026-04-26T07:07:42.789Z</time></trkpt><trkpt lat="42.4930333" lon="13.369123"><ele>1145.0</ele><time>2026-04-26T07:07:43.788Z</time></trkpt><trkpt lat="42.4928617" lon="13.3688925"><ele>1145.0</ele><time>2026-04-26T07:07:44.788Z</time></trkpt><trkpt lat="42.4926848" lon="13.3686758"><ele>1145.0</ele><time>2026-04-26T07:07:45.789Z</time></trkpt><trkpt lat="42.4925039" lon="13.3684737"><ele>1145.0</ele><time>2026-04-26T07:07:46.789Z</time></trkpt><trkpt lat="42.4923138" lon="13.3682888"><ele>1145.0</ele><time>2026-04-26T07:07:47.787Z</time></trkpt><trkpt lat="42.4921133" lon="13.3681397"><ele>1145.0</ele><time>2026-04-26T07:07:48.788Z</time></trkpt><trkpt lat="42.4919062" lon="13.3680252"><ele>1145.0</ele><time>2026-04-26T07:07:49.788Z</time></trkpt><trkpt lat="42.4916964" lon="13.367932"><ele>1145.0</ele><time>2026-04-26T07:07:50.788Z</time></trkpt><trkpt lat="42.4914854" lon="13.3678441"><ele>1145.0</ele><time>2026-04-26T07:07:51.788Z</time></trkpt><trkpt lat="42.4912706" lon="13.3677577"><ele>1145.3333333333335</ele><time>2026-04-26T07:07:52.787Z</time></trkpt><trkpt lat="42.4910585" lon="13.3676718"><ele>1145.6666666666667</ele><time>2026-04-26T07:07:53.788Z</time></trkpt><trkpt lat="42.490849" lon="13.3675877"><ele>1146.0</ele><time>2026-04-26T07:07:54.788Z</time></trkpt><trkpt lat="42.4906355" lon="13.3675066"><ele>1146.0</ele><time>2026-04-26T07:07:55.788Z</time></trkpt><trkpt lat="42.4904323" lon="13.3674191"><ele>1146.0</ele><time>2026-04-26T07:07:56.789Z</time></trkpt><trkpt lat="42.4902339" lon="13.367323"><ele>1146.0</ele><time>2026-04-26T07:07:57.787Z</time></trkpt><trkpt lat="42.4900446" lon="13.3672118"><ele>1149.0</ele><time>2026-04-26T07:07:58.787Z</time></trkpt><trkpt lat="42.4898678" lon="13.3670814"><ele>1152.0</ele><time>2026-04-26T07:07:59.789Z</time></trkpt><trkpt lat="42.4896985" lon="13.3669333"><ele>1155.0</ele><time>2026-04-26T07:08:00.789Z</time></trkpt><trkpt lat="42.4895357" lon="13.3667691"><ele>1155.0</ele><time>2026-04-26T07:08:01.787Z</time></trkpt><trkpt lat="42.489378" lon="13.3665914"><ele>1155.0</ele><time>2026-04-26T07:08:02.788Z</time></trkpt><trkpt lat="42.4892237" lon="13.366408"><ele>1155.0</ele><time>2026-04-26T07:08:03.789Z</time></trkpt><trkpt lat="42.4890767" lon="13.3662149"><ele>1154.6666666666667</ele><time>2026-04-26T07:08:04.788Z</time></trkpt><trkpt lat="42.4889302" lon="13.3660185"><ele>1154.3333333333335</ele><time>2026-04-26T07:08:05.787Z</time></trkpt><trkpt lat="42.4887808" lon="13.3658268"><ele>1154.0</ele><time>2026-04-26T07:08:06.788Z</time></trkpt><trkpt lat="42.4886312" lon="13.3656298"><ele>1154.6666666666667</ele><time>2026-04-26T07:08:07.788Z</time></trkpt><trkpt lat="42.4884812" lon="13.3654372"><ele>1155.3333333333333</ele><time>2026-04-26T07:08:08.787Z</time></trkpt><trkpt lat="42.4883301" lon="13.3652486"><ele>1156.0</ele><time>2026-04-26T07:08:09.788Z</time></trkpt><trkpt lat="42.4881828" lon="13.3650668"><ele>1156.0</ele><time>2026-04-26T07:08:10.789Z</time></trkpt><trkpt lat="42.4880452" lon="13.3648974"><ele>1156.0</ele><time>2026-04-26T07:08:11.788Z</time></trkpt><trkpt lat="42.487916" lon="13.3647354"><ele>1156.0</ele><time>2026-04-26T07:08:12.788Z</time></trkpt><trkpt lat="42.4877821" lon="13.3645866"><ele>1156.3333333333333</ele><time>2026-04-26T07:08:13.787Z</time></trkpt><trkpt lat="42.4876312" lon="13.3644461"><ele>1156.6666666666667</ele><time>2026-04-26T07:08:14.787Z</time></trkpt><trkpt lat="42.4874707" lon="13.3643396"><ele>1157.0</ele><time>2026-04-26T07:08:15.789Z</time></trkpt><trkpt lat="42.4873154" lon="13.3642619"><ele>1157.0</ele><time>2026-04-26T07:08:16.789Z</time></trkpt><trkpt lat="42.487165" lon="13.364212"><ele>1157.0</ele><time>2026-04-26T07:08:17.788Z</time></trkpt><trkpt lat="42.487025" lon="13.364174"><ele>1157.0</ele><time>2026-04-26T07:08:18.787Z</time></trkpt><trkpt lat="42.4868961" lon="13.364152"><ele>1157.0</ele><time>2026-04-26T07:08:19.789Z</time></trkpt><trkpt lat="42.4867885" lon="13.3641389"><ele>1158.0</ele><time>2026-04-26T07:08:20.789Z</time></trkpt><trkpt lat="42.4867039" lon="13.3641053"><ele>1159.0</ele><time>2026-04-26T07:08:21.787Z</time></trkpt><trkpt lat="42.4866548" lon="13.3640378"><ele>1160.0</ele><time>2026-04-26T07:08:22.789Z</time></trkpt><trkpt lat="42.4866253" lon="13.3639353"><ele>1161.0</ele><time>2026-04-26T07:08:23.789Z</time></trkpt><trkpt lat="42.4866228" lon="13.3638073"><ele>1162.0</ele><time>2026-04-26T07:08:24.788Z</time></trkpt><trkpt lat="42.4866462" lon="13.3636694"><ele>1163.0</ele><time>2026-04-26T07:08:25.789Z</time></trkpt><trkpt lat="42.4866962" lon="13.3635086"><ele>1164.6666666666667</ele><time>2026-04-26T07:08:26.788Z</time></trkpt><trkpt lat="42.4867567" lon="13.3633243"><ele>1166.3333333333333</ele><time>2026-04-26T07:08:27.787Z</time></trkpt><trkpt lat="42.4868144" lon="13.3631298"><ele>1168.0</ele><time>2026-04-26T07:08:28.788Z</time></trkpt><trkpt lat="42.4868554" lon="13.3629078"><ele>1169.6666666666665</ele><time>2026-04-26T07:08:29.789Z</time></trkpt><trkpt lat="42.4868759" lon="13.3626674"><ele>1171.3333333333333</ele><time>2026-04-26T07:08:30.788Z</time></trkpt><trkpt lat="42.4868819" lon="13.3624117"><ele>1173.0</ele><time>2026-04-26T07:08:31.788Z</time></trkpt><trkpt lat="42.4868738" lon="13.36214"><ele>1173.6666666666667</ele><time>2026-04-26T07:08:32.789Z</time></trkpt><trkpt lat="42.4868614" lon="13.3618572"><ele>1174.3333333333335</ele><time>2026-04-26T07:08:33.788Z</time></trkpt><trkpt lat="42.4868497" lon="13.3615591"><ele>1175.0</ele><time>2026-04-26T07:08:34.787Z</time></trkpt><trkpt lat="42.4868349" lon="13.3612582"><ele>1175.0</ele><time>2026-04-26T07:08:35.788Z</time></trkpt><trkpt lat="42.4868193" lon="13.3609627"><ele>1175.0</ele><time>2026-04-26T07:08:36.788Z</time></trkpt><trkpt lat="42.4868052" lon="13.36068"><ele>1175.0</ele><time>2026-04-26T07:08:37.789Z</time></trkpt><trkpt lat="42.4867919" lon="13.3604207"><ele>1176.3333333333335</ele><time>2026-04-26T07:08:38.788Z</time></trkpt><trkpt lat="42.4867787" lon="13.3601825"><ele>1177.6666666666667</ele><time>2026-04-26T07:08:39.788Z</time></trkpt><trkpt lat="42.4867748" lon="13.3599757"><ele>1179.0</ele><time>2026-04-26T07:08:40.788Z</time></trkpt><trkpt lat="42.486798" lon="13.3597985"><ele>1179.5</ele><time>2026-04-26T07:08:41.789Z</time></trkpt><trkpt lat="42.4868436" lon="13.3596478"><ele>1180.0</ele><time>2026-04-26T07:08:42.789Z</time></trkpt><trkpt lat="42.4869253" lon="13.359518"><ele>1180.5</ele><time>2026-04-26T07:08:43.789Z</time></trkpt><trkpt lat="42.4870299" lon="13.3594292"><ele>1181.0</ele><time>2026-04-26T07:08:44.788Z</time></trkpt><trkpt lat="42.4871537" lon="13.3593765"><ele>1181.0</ele><time>2026-04-26T07:08:45.787Z</time></trkpt><trkpt lat="42.4872859" lon="13.3593703"><ele>1181.0</ele><time>2026-04-26T07:08:46.787Z</time></trkpt><trkpt lat="42.4874166" lon="13.359417"><ele>1181.0</ele><time>2026-04-26T07:08:47.788Z</time></trkpt><trkpt lat="42.4875407" lon="13.3595113"><ele>1181.0</ele><time>2026-04-26T07:08:48.788Z</time></trkpt><trkpt lat="42.4876575" lon="13.3596334"><ele>1179.75</ele><time>2026-04-26T07:08:49.787Z</time></trkpt><trkpt lat="42.4877687" lon="13.3597596"><ele>1178.5</ele><time>2026-04-26T07:08:50.787Z</time></trkpt><trkpt lat="42.4878854" lon="13.3598634"><ele>1177.25</ele><time>2026-04-26T07:08:51.787Z</time></trkpt><trkpt lat="42.4880188" lon="13.3599125"><ele>1176.0</ele><time>2026-04-26T07:08:52.788Z</time></trkpt><trkpt lat="42.4881464" lon="13.3599065"><ele>1176.0</ele><time>2026-04-26T07:08:53.788Z</time></trkpt><trkpt lat="42.4882689" lon="13.3598397"><ele>1176.0</ele><time>2026-04-26T07:08:54.789Z</time></trkpt><trkpt lat="42.4883911" lon="13.3597119"><ele>1176.0</ele><time>2026-04-26T07:08:55.789Z</time></trkpt><trkpt lat="42.4885289" lon="13.3595595"><ele>1177.0</ele><time>2026-04-26T07:08:56.789Z</time></trkpt><trkpt lat="42.4886723" lon="13.359414"><ele>1178.0</ele><time>2026-04-26T07:08:57.788Z</time></trkpt><trkpt lat="42.4888058" lon="13.3592753"><ele>1179.0</ele><time>2026-04-26T07:08:58.788Z</time></trkpt><trkpt lat="42.4889224" lon="13.3591418"><ele>1179.0</ele><time>2026-04-26T07:08:59.789Z</time></trkpt><trkpt lat="42.489027" lon="13.3590096"><ele>1179.0</ele><time>2026-04-26T07:09:00.789Z</time></trkpt><trkpt lat="42.4890971" lon="13.3588523"><ele>1179.0</ele><time>2026-04-26T07:09:01.789Z</time></trkpt><trkpt lat="42.4891365" lon="13.3586723"><ele>1179.0</ele><time>2026-04-26T07:09:02.789Z</time></trkpt><trkpt lat="42.489169" lon="13.3584855"><ele>1181.0</ele><time>2026-04-26T07:09:03.789Z</time></trkpt><trkpt lat="42.4891966" lon="13.3582792"><ele>1183.0</ele><time>2026-04-26T07:09:04.788Z</time></trkpt><trkpt lat="42.4892177" lon="13.3580701"><ele>1185.0</ele><time>2026-04-26T07:09:05.788Z</time></trkpt><trkpt lat="42.489241" lon="13.3578811"><ele>1185.6</ele><time>2026-04-26T07:09:06.788Z</time></trkpt><trkpt lat="42.4892812" lon="13.3577249"><ele>1186.2</ele><time>2026-04-26T07:09:07.789Z</time></trkpt><trkpt lat="42.4893449" lon="13.3575995"><ele>1186.8</ele><time>2026-04-26T07:09:08.787Z</time></trkpt><trkpt lat="42.489422" lon="13.3575206"><ele>1187.4</ele><time>2026-04-26T07:09:09.789Z</time></trkpt><trkpt lat="42.489514" lon="13.357492"><ele>1188.0</ele><time>2026-04-26T07:09:10.789Z</time></trkpt><trkpt lat="42.4896286" lon="13.3575082"><ele>1188.0</ele><time>2026-04-26T07:09:11.788Z</time></trkpt><trkpt lat="42.4897633" lon="13.3575604"><ele>1188.0</ele><time>2026-04-26T07:09:12.788Z</time></trkpt><trkpt lat="42.4899084" lon="13.3576303"><ele>1188.0</ele><time>2026-04-26T07:09:13.789Z</time></trkpt><trkpt lat="42.4900601" lon="13.3577207"><ele>1188.0</ele><time>2026-04-26T07:09:14.789Z</time></trkpt><trkpt lat="42.490202" lon="13.3578612"><ele>1188.0</ele><time>2026-04-26T07:09:15.788Z</time></trkpt><trkpt lat="42.4903247" lon="13.3580286"><ele>1188.0</ele><time>2026-04-26T07:09:16.788Z</time></trkpt><trkpt lat="42.4904306" lon="13.3581832"><ele>1188.75</ele><time>2026-04-26T07:09:17.788Z</time></trkpt><trkpt lat="42.4905403" lon="13.3583086"><ele>1189.5</ele><time>2026-04-26T07:09:18.787Z</time></trkpt><trkpt lat="42.490669" lon="13.3583767"><ele>1190.25</ele><time>2026-04-26T07:09:19.788Z</time></trkpt><trkpt lat="42.4908164" lon="13.3583904"><ele>1191.0</ele><time>2026-04-26T07:09:20.787Z</time></trkpt><trkpt lat="42.4909662" lon="13.3583363"><ele>1191.0</ele><time>2026-04-26T07:09:21.788Z</time></trkpt><trkpt lat="42.4911138" lon="13.3582237"><ele>1191.0</ele><time>2026-04-26T07:09:22.787Z</time></trkpt><trkpt lat="42.4912457" lon="13.3580854"><ele>1191.0</ele><time>2026-04-26T07:09:23.787Z</time></trkpt><trkpt lat="42.4913673" lon="13.3579619"><ele>1192.5</ele><time>2026-04-26T07:09:24.789Z</time></trkpt><trkpt lat="42.4914897" lon="13.3578772"><ele>1194.0</ele><time>2026-04-26T07:09:25.787Z</time></trkpt><trkpt lat="42.491618" lon="13.3578453"><ele>1195.5</ele><time>2026-04-26T07:09:26.789Z</time></trkpt><trkpt lat="42.4917491" lon="13.3578643"><ele>1197.0</ele><time>2026-04-26T07:09:27.788Z</time></trkpt><trkpt lat="42.4918671" lon="13.3579188"><ele>1197.0</ele><time>2026-04-26T07:09:28.788Z</time></trkpt><trkpt lat="42.4919581" lon="13.3580017"><ele>1197.0</ele><time>2026-04-26T07:09:29.788Z</time></trkpt><trkpt lat="42.4920109" lon="13.3581031"><ele>1197.0</ele><time>2026-04-26T07:09:30.788Z</time></trkpt><trkpt lat="42.4920219" lon="13.3582214"><ele>1197.0</ele><time>2026-04-26T07:09:31.788Z</time></trkpt><trkpt lat="42.4919999" lon="13.3583684"><ele>1197.0</ele><time>2026-04-26T07:09:32.787Z</time></trkpt><trkpt lat="42.4919637" lon="13.3585347"><ele>1195.5</ele><time>2026-04-26T07:09:33.787Z</time></trkpt><trkpt lat="42.4919399" lon="13.3586953"><ele>1194.0</ele><time>2026-04-26T07:09:34.787Z</time></trkpt><trkpt lat="42.4919442" lon="13.3588608"><ele>1192.5</ele><time>2026-04-26T07:09:35.789Z</time></trkpt><trkpt lat="42.491973" lon="13.3590309"><ele>1191.0</ele><time>2026-04-26T07:09:36.788Z</time></trkpt><trkpt lat="42.4920459" lon="13.3591978"><ele>1192.5</ele><time>2026-04-26T07:09:37.788Z</time></trkpt><trkpt lat="42.4921492" lon="13.359342"><ele>1194.0</ele><time>2026-04-26T07:09:38.787Z</time></trkpt><trkpt lat="42.4922722" lon="13.3594359"><ele>1195.5</ele><time>2026-04-26T07:09:39.788Z</time></trkpt><trkpt lat="42.4924175" lon="13.3594765"><ele>1197.0</ele><time>2026-04-26T07:09:40.789Z</time></trkpt><trkpt lat="42.4925802" lon="13.3594574"><ele>1197.0</ele><time>2026-04-26T07:09:41.789Z</time></trkpt><trkpt lat="42.4927519" lon="13.3594125"><ele>1197.0</ele><time>2026-04-26T07:09:42.788Z</time></trkpt><trkpt lat="42.4929247" lon="13.3593714"><ele>1197.0</ele><time>2026-04-26T07:09:43.788Z</time></trkpt><trkpt lat="42.4930913" lon="13.3593519"><ele>1199.6666666666667</ele><time>2026-04-26T07:09:44.788Z</time></trkpt><trkpt lat="42.493252" lon="13.3593652"><ele>1202.3333333333335</ele><time>2026-04-26T07:09:45.787Z</time></trkpt><trkpt lat="42.4934198" lon="13.359432"><ele>1205.0</ele><time>2026-04-26T07:09:46.788Z</time></trkpt><trkpt lat="42.4935852" lon="13.3595495"><ele>1205.0</ele><time>2026-04-26T07:09:47.788Z</time></trkpt><trkpt lat="42.4937349" lon="13.3596884"><ele>1205.0</ele><time>2026-04-26T07:09:48.787Z</time></trkpt><trkpt lat="42.4938847" lon="13.359816"><ele>1205.0</ele><time>2026-04-26T07:09:49.789Z</time></trkpt><trkpt lat="42.4940576" lon="13.3599132"><ele>1205.0</ele><time>2026-04-26T07:09:50.789Z</time></trkpt><trkpt lat="42.4942297" lon="13.3599554"><ele>1205.0</ele><time>2026-04-26T07:09:51.789Z</time></trkpt><trkpt lat="42.4943902" lon="13.3599691"><ele>1205.0</ele><time>2026-04-26T07:09:52.788Z</time></trkpt><trkpt lat="42.4945402" lon="13.3600011"><ele>1209.0</ele><time>2026-04-26T07:09:53.788Z</time></trkpt><trkpt lat="42.4946792" lon="13.3600754"><ele>1213.0</ele><time>2026-04-26T07:09:54.788Z</time></trkpt><trkpt lat="42.4948117" lon="13.3601948"><ele>1217.0</ele><time>2026-04-26T07:09:55.788Z</time></trkpt><trkpt lat="42.4949306" lon="13.360323"><ele>1217.0</ele><time>2026-04-26T07:09:56.788Z</time></trkpt><trkpt lat="42.49504" lon="13.3604484"><ele>1217.0</ele><time>2026-04-26T07:09:57.788Z</time></trkpt><trkpt lat="42.4951384" lon="13.3605673"><ele>1217.0</ele><time>2026-04-26T07:09:58.789Z</time></trkpt><trkpt lat="42.4952285" lon="13.3606732"><ele>1217.0</ele><time>2026-04-26T07:09:59.788Z</time></trkpt><trkpt lat="42.4953078" lon="13.3607713"><ele>1216.0</ele><time>2026-04-26T07:10:00.788Z</time></trkpt><trkpt lat="42.4953845" lon="13.3608468"><ele>1215.0</ele><time>2026-04-26T07:10:01.788Z</time></trkpt><trkpt lat="42.495469" lon="13.3608938"><ele>1214.0</ele><time>2026-04-26T07:10:02.788Z</time></trkpt><trkpt lat="42.495556" lon="13.3608892"><ele>1213.0</ele><time>2026-04-26T07:10:03.789Z</time></trkpt><trkpt lat="42.4956275" lon="13.3608352"><ele>1212.0</ele><time>2026-04-26T07:10:04.788Z</time></trkpt><trkpt lat="42.4956809" lon="13.3607295"><ele>1211.0</ele><time>2026-04-26T07:10:05.788Z</time></trkpt><trkpt lat="42.4957045" lon="13.360575"><ele>1210.0</ele><time>2026-04-26T07:10:06.788Z</time></trkpt><trkpt lat="42.4956991" lon="13.3603944"><ele>1209.0</ele><time>2026-04-26T07:10:07.788Z</time></trkpt><trkpt lat="42.4956765" lon="13.3601999"><ele>1208.0</ele><time>2026-04-26T07:10:08.787Z</time></trkpt><trkpt lat="42.4956454" lon="13.3599616"><ele>1206.6666666666667</ele><time>2026-04-26T07:10:09.787Z</time></trkpt><trkpt lat="42.4956115" lon="13.3596943"><ele>1205.3333333333333</ele><time>2026-04-26T07:10:10.788Z</time></trkpt><trkpt lat="42.4955592" lon="13.3594287"><ele>1204.0</ele><time>2026-04-26T07:10:11.788Z</time></trkpt><trkpt lat="42.4955099" lon="13.3591895"><ele>1204.0</ele><time>2026-04-26T07:10:12.787Z</time></trkpt><trkpt lat="42.495472" lon="13.3589497"><ele>1204.0</ele><time>2026-04-26T07:10:13.788Z</time></trkpt><trkpt lat="42.4954589" lon="13.3587131"><ele>1204.0</ele><time>2026-04-26T07:10:14.788Z</time></trkpt><trkpt lat="42.495472" lon="13.358493"><ele>1205.75</ele><time>2026-04-26T07:10:15.786Z</time></trkpt><trkpt lat="42.4955106" lon="13.3582957"><ele>1207.5</ele><time>2026-04-26T07:10:16.787Z</time></trkpt><trkpt lat="42.495576" lon="13.3581189"><ele>1209.25</ele><time>2026-04-26T07:10:17.787Z</time></trkpt><trkpt lat="42.4956617" lon="13.3579788"><ele>1211.0</ele><time>2026-04-26T07:10:18.787Z</time></trkpt><trkpt lat="42.4957736" lon="13.3578738"><ele>1212.0</ele><time>2026-04-26T07:10:19.787Z</time></trkpt><trkpt lat="42.4959037" lon="13.3578139"><ele>1213.0</ele><time>2026-04-26T07:10:20.787Z</time></trkpt><trkpt lat="42.4960522" lon="13.3578046"><ele>1214.0</ele><time>2026-04-26T07:10:21.786Z</time></trkpt><trkpt lat="42.4962014" lon="13.3578169"><ele>1215.0</ele><time>2026-04-26T07:10:22.786Z</time></trkpt><trkpt lat="42.4963391" lon="13.3578233"><ele>1215.0</ele><time>2026-04-26T07:10:23.786Z</time></trkpt><trkpt lat="42.4964749" lon="13.357803"><ele>1215.0</ele><time>2026-04-26T07:10:24.786Z</time></trkpt><trkpt lat="42.4965997" lon="13.3577312"><ele>1215.0</ele><time>2026-04-26T07:10:25.788Z</time></trkpt><trkpt lat="42.4967039" lon="13.3576004"><ele>1215.0</ele><time>2026-04-26T07:10:26.787Z</time></trkpt><trkpt lat="42.4967746" lon="13.3574506"><ele>1215.0</ele><time>2026-04-26T07:10:27.786Z</time></trkpt><trkpt lat="42.4968274" lon="13.3572974"><ele>1215.0</ele><time>2026-04-26T07:10:28.786Z</time></trkpt><trkpt lat="42.4968541" lon="13.3571299"><ele>1215.0</ele><time>2026-04-26T07:10:29.787Z</time></trkpt><trkpt lat="42.4968348" lon="13.356958"><ele>1215.0</ele><time>2026-04-26T07:10:30.788Z</time></trkpt><trkpt lat="42.496773" lon="13.3568078"><ele>1215.0</ele><time>2026-04-26T07:10:31.787Z</time></trkpt><trkpt lat="42.4966746" lon="13.3566898"><ele>1215.0</ele><time>2026-04-26T07:10:32.788Z</time></trkpt><trkpt lat="42.4965671" lon="13.3565948"><ele>1215.0</ele><time>2026-04-26T07:10:33.787Z</time></trkpt><trkpt lat="42.4964697" lon="13.3564979"><ele>1215.0</ele><time>2026-04-26T07:10:34.788Z</time></trkpt><trkpt lat="42.4963845" lon="13.3564032"><ele>1213.6</ele><time>2026-04-26T07:10:35.788Z</time></trkpt><trkpt lat="42.4963184" lon="13.356298"><ele>1212.2</ele><time>2026-04-26T07:10:36.786Z</time></trkpt><trkpt lat="42.4962704" lon="13.3561878"><ele>1210.8</ele><time>2026-04-26T07:10:37.786Z</time></trkpt><trkpt lat="42.4962454" lon="13.356062"><ele>1209.4</ele><time>2026-04-26T07:10:38.787Z</time></trkpt><trkpt lat="42.4962507" lon="13.3559272"><ele>1208.0</ele><time>2026-04-26T07:10:39.788Z</time></trkpt><trkpt lat="42.4962865" lon="13.3557965"><ele>1208.0</ele><time>2026-04-26T07:10:40.786Z</time></trkpt><trkpt lat="42.4963525" lon="13.355666"><ele>1208.0</ele><time>2026-04-26T07:10:41.786Z</time></trkpt><trkpt lat="42.496449" lon="13.3555252"><ele>1208.0</ele><time>2026-04-26T07:10:42.787Z</time></trkpt><trkpt lat="42.4965714" lon="13.3553732"><ele>1208.0</ele><time>2026-04-26T07:10:43.787Z</time></trkpt><trkpt lat="42.4967104" lon="13.3552224"><ele>1209.6666666666667</ele><time>2026-04-26T07:10:44.786Z</time></trkpt><trkpt lat="42.4968718" lon="13.3550745"><ele>1211.3333333333333</ele><time>2026-04-26T07:10:45.787Z</time></trkpt><trkpt lat="42.4970325" lon="13.3549198"><ele>1213.0</ele><time>2026-04-26T07:10:46.788Z</time></trkpt><trkpt lat="42.4971847" lon="13.3547621"><ele>1216.3333333333333</ele><time>2026-04-26T07:10:47.787Z</time></trkpt><trkpt lat="42.4973277" lon="13.3546043"><ele>1219.6666666666667</ele><time>2026-04-26T07:10:48.786Z</time></trkpt><trkpt lat="42.4974617" lon="13.3544609"><ele>1223.0</ele><time>2026-04-26T07:10:49.787Z</time></trkpt><trkpt lat="42.4976066" lon="13.3543396"><ele>1223.0</ele><time>2026-04-26T07:10:50.787Z</time></trkpt><trkpt lat="42.4977623" lon="13.3542534"><ele>1223.0</ele><time>2026-04-26T07:10:51.787Z</time></trkpt><trkpt lat="42.4979145" lon="13.3542098"><ele>1223.0</ele><time>2026-04-26T07:10:52.787Z</time></trkpt><trkpt lat="42.4980609" lon="13.3542089"><ele>1221.25</ele><time>2026-04-26T07:10:53.788Z</time></trkpt><trkpt lat="42.4981921" lon="13.3541992"><ele>1219.5</ele><time>2026-04-26T07:10:54.788Z</time></trkpt><trkpt lat="42.4983089" lon="13.3541484"><ele>1217.75</ele><time>2026-04-26T07:10:55.787Z</time></trkpt><trkpt lat="42.4983979" lon="13.3540584"><ele>1216.0</ele><time>2026-04-26T07:10:56.786Z</time></trkpt><trkpt lat="42.4984525" lon="13.3539323"><ele>1218.0</ele><time>2026-04-26T07:10:57.788Z</time></trkpt><trkpt lat="42.4984651" lon="13.3537829"><ele>1220.0</ele><time>2026-04-26T07:10:58.787Z</time></trkpt><trkpt lat="42.4984325" lon="13.3536206"><ele>1222.0</ele><time>2026-04-26T07:10:59.787Z</time></trkpt><trkpt lat="42.4983996" lon="13.3534634"><ele>1224.0</ele><time>2026-04-26T07:11:00.786Z</time></trkpt><trkpt lat="42.4984054" lon="13.3533134"><ele>1224.0</ele><time>2026-04-26T07:11:01.788Z</time></trkpt><trkpt lat="42.4984478" lon="13.3531586"><ele>1224.0</ele><time>2026-04-26T07:11:02.788Z</time></trkpt><trkpt lat="42.4985306" lon="13.3530175"><ele>1224.0</ele><time>2026-04-26T07:11:03.787Z</time></trkpt><trkpt lat="42.4986303" lon="13.352848"><ele>1224.0</ele><time>2026-04-26T07:11:04.787Z</time></trkpt><trkpt lat="42.4987203" lon="13.3526351"><ele>1223.3333333333333</ele><time>2026-04-26T07:11:05.787Z</time></trkpt><trkpt lat="42.4987818" lon="13.3524015"><ele>1222.6666666666665</ele><time>2026-04-26T07:11:06.787Z</time></trkpt><trkpt lat="42.4988246" lon="13.3521598"><ele>1222.0</ele><time>2026-04-26T07:11:07.788Z</time></trkpt><trkpt lat="42.4988585" lon="13.3519401"><ele>1222.0</ele><time>2026-04-26T07:11:08.787Z</time></trkpt><trkpt lat="42.4988889" lon="13.3517392"><ele>1222.0</ele><time>2026-04-26T07:11:09.788Z</time></trkpt><trkpt lat="42.498927" lon="13.3515707"><ele>1222.0</ele><time>2026-04-26T07:11:10.788Z</time></trkpt><trkpt lat="42.4989768" lon="13.3514351"><ele>1222.0</ele><time>2026-04-26T07:11:11.786Z</time></trkpt><trkpt lat="42.4990432" lon="13.3513421"><ele>1222.0</ele><time>2026-04-26T07:11:12.787Z</time></trkpt><trkpt lat="42.4991356" lon="13.3512945"><ele>1222.0</ele><time>2026-04-26T07:11:13.787Z</time></trkpt><trkpt lat="42.4992489" lon="13.3512872"><ele>1222.0</ele><time>2026-04-26T07:11:14.788Z</time></trkpt><trkpt lat="42.4993633" lon="13.3513256"><ele>1222.0</ele><time>2026-04-26T07:11:15.788Z</time></trkpt><trkpt lat="42.4994575" lon="13.3514021"><ele>1222.0</ele><time>2026-04-26T07:11:16.788Z</time></trkpt><trkpt lat="42.4995319" lon="13.3515168"><ele>1222.0</ele><time>2026-04-26T07:11:17.787Z</time></trkpt><trkpt lat="42.4995786" lon="13.3516564"><ele>1222.0</ele><time>2026-04-26T07:11:18.786Z</time></trkpt><trkpt lat="42.4996076" lon="13.3517976"><ele>1222.0</ele><time>2026-04-26T07:11:19.787Z</time></trkpt><trkpt lat="42.4996356" lon="13.3519366"><ele>1222.0</ele><time>2026-04-26T07:11:20.787Z</time></trkpt><trkpt lat="42.4996901" lon="13.3520567"><ele>1222.0</ele><time>2026-04-26T07:11:21.786Z</time></trkpt><trkpt lat="42.4997825" lon="13.3521509"><ele>1220.6666666666665</ele><time>2026-04-26T07:11:22.788Z</time></trkpt><trkpt lat="42.4999137" lon="13.3522072"><ele>1219.3333333333333</ele><time>2026-04-26T07:11:23.788Z</time></trkpt><trkpt lat="42.5000686" lon="13.3522311"><ele>1218.0</ele><time>2026-04-26T07:11:24.787Z</time></trkpt><trkpt lat="42.5002281" lon="13.3522518"><ele>1218.0</ele><time>2026-04-26T07:11:25.788Z</time></trkpt><trkpt lat="42.5004056" lon="13.3522978"><ele>1218.0</ele><time>2026-04-26T07:11:26.787Z</time></trkpt><trkpt lat="42.5005843" lon="13.352367"><ele>1218.0</ele><time>2026-04-26T07:11:27.786Z</time></trkpt><trkpt lat="42.5007682" lon="13.3524405"><ele>1220.0</ele><time>2026-04-26T07:11:28.787Z</time></trkpt><trkpt lat="42.5009459" lon="13.3525009"><ele>1222.0</ele><time>2026-04-26T07:11:29.787Z</time></trkpt><trkpt lat="42.5011049" lon="13.3525612"><ele>1224.0</ele><time>2026-04-26T07:11:30.786Z</time></trkpt><trkpt lat="42.5012463" lon="13.3526419"><ele>1226.75</ele><time>2026-04-26T07:11:31.788Z</time></trkpt><trkpt lat="42.5013644" lon="13.352743"><ele>1229.5</ele><time>2026-04-26T07:11:32.788Z</time></trkpt><trkpt lat="42.5014648" lon="13.3528767"><ele>1232.25</ele><time>2026-04-26T07:11:33.787Z</time></trkpt><trkpt lat="42.5015353" lon="13.3530319"><ele>1235.0</ele><time>2026-04-26T07:11:34.787Z</time></trkpt><trkpt lat="42.5015764" lon="13.3532218"><ele>1235.0</ele><time>2026-04-26T07:11:35.787Z</time></trkpt><trkpt lat="42.5015995" lon="13.3534205"><ele>1235.0</ele><time>2026-04-26T07:11:36.787Z</time></trkpt><trkpt lat="42.5016196" lon="13.3536096"><ele>1235.0</ele><time>2026-04-26T07:11:37.787Z</time></trkpt><trkpt lat="42.5016682" lon="13.3537859"><ele>1235.0</ele><time>2026-04-26T07:11:38.786Z</time></trkpt><trkpt lat="42.5017515" lon="13.3539386"><ele>1236.0</ele><time>2026-04-26T07:11:39.788Z</time></trkpt><trkpt lat="42.5018739" lon="13.3540745"><ele>1237.0</ele><time>2026-04-26T07:11:40.786Z</time></trkpt><trkpt lat="42.5020246" lon="13.3541817"><ele>1238.0</ele><time>2026-04-26T07:11:41.787Z</time></trkpt><trkpt lat="42.5021889" lon="13.3542541"><ele>1238.0</ele><time>2026-04-26T07:11:42.787Z</time></trkpt><trkpt lat="42.5023491" lon="13.3542844"><ele>1238.0</ele><time>2026-04-26T07:11:43.786Z</time></trkpt><trkpt lat="42.5025021" lon="13.3543024"><ele>1238.0</ele><time>2026-04-26T07:11:44.787Z</time></trkpt><trkpt lat="42.5026463" lon="13.3543367"><ele>1238.0</ele><time>2026-04-26T07:11:45.787Z</time></trkpt><trkpt lat="42.5027737" lon="13.3543873"><ele>1238.0</ele><time>2026-04-26T07:11:46.787Z</time></trkpt><trkpt lat="42.5028886" lon="13.3544631"><ele>1238.0</ele><time>2026-04-26T07:11:47.787Z</time></trkpt><trkpt lat="42.5029799" lon="13.3545705"><ele>1238.0</ele><time>2026-04-26T07:11:48.786Z</time></trkpt><trkpt lat="42.5030431" lon="13.3547065"><ele>1239.5</ele><time>2026-04-26T07:11:49.787Z</time></trkpt><trkpt lat="42.5030755" lon="13.3548688"><ele>1241.0</ele><time>2026-04-26T07:11:50.787Z</time></trkpt><trkpt lat="42.5030729" lon="13.3550346"><ele>1242.5</ele><time>2026-04-26T07:11:51.786Z</time></trkpt><trkpt lat="42.503061" lon="13.3551929"><ele>1244.0</ele><time>2026-04-26T07:11:52.787Z</time></trkpt><trkpt lat="42.5030761" lon="13.3553342"><ele>1244.0</ele><time>2026-04-26T07:11:53.786Z</time></trkpt><trkpt lat="42.5031151" lon="13.3554633"><ele>1244.0</ele><time>2026-04-26T07:11:54.787Z</time></trkpt><trkpt lat="42.5031842" lon="13.3555649"><ele>1244.0</ele><time>2026-04-26T07:11:55.786Z</time></trkpt><trkpt lat="42.503284" lon="13.355637"><ele>1244.0</ele><time>2026-04-26T07:11:56.788Z</time></trkpt><trkpt lat="42.5034094" lon="13.3556808"><ele>1244.0</ele><time>2026-04-26T07:11:57.786Z</time></trkpt><trkpt lat="42.5035527" lon="13.3557024"><ele>1241.6666666666667</ele><time>2026-04-26T07:11:58.788Z</time></trkpt><trkpt lat="42.5037036" lon="13.3557264"><ele>1239.3333333333333</ele><time>2026-04-26T07:11:59.787Z</time></trkpt><trkpt lat="42.5038586" lon="13.3557757"><ele>1237.0</ele><time>2026-04-26T07:12:00.786Z</time></trkpt><trkpt lat="42.5040128" lon="13.3558556"><ele>1241.6666666666665</ele><time>2026-04-26T07:12:01.786Z</time></trkpt><trkpt lat="42.5041662" lon="13.3559599"><ele>1246.3333333333333</ele><time>2026-04-26T07:12:02.788Z</time></trkpt><trkpt lat="42.5042999" lon="13.3560838"><ele>1251.0</ele><time>2026-04-26T07:12:03.787Z</time></trkpt><trkpt lat="42.5044076" lon="13.3562313"><ele>1251.75</ele><time>2026-04-26T07:12:04.788Z</time></trkpt><trkpt lat="42.5044915" lon="13.3563974"><ele>1252.5</ele><time>2026-04-26T07:12:05.787Z</time></trkpt><trkpt lat="42.5045589" lon="13.356577"><ele>1253.25</ele><time>2026-04-26T07:12:06.787Z</time></trkpt><trkpt lat="42.5046307" lon="13.3567255"><ele>1254.0</ele><time>2026-04-26T07:12:07.788Z</time></trkpt><trkpt lat="42.5047451" lon="13.3568405"><ele>1254.0</ele><time>2026-04-26T07:12:08.786Z</time></trkpt><trkpt lat="42.5048864" lon="13.3569235"><ele>1254.0</ele><time>2026-04-26T07:12:09.786Z</time></trkpt><trkpt lat="42.5050271" lon="13.35702"><ele>1254.0</ele><time>2026-04-26T07:12:10.787Z</time></trkpt><trkpt lat="42.5051679" lon="13.3571697"><ele>1255.6666666666667</ele><time>2026-04-26T07:12:11.786Z</time></trkpt><trkpt lat="42.5052929" lon="13.3573518"><ele>1257.3333333333335</ele><time>2026-04-26T07:12:12.786Z</time></trkpt><trkpt lat="42.5054069" lon="13.3575345"><ele>1259.0</ele><time>2026-04-26T07:12:13.787Z</time></trkpt><trkpt lat="42.5055335" lon="13.3577067"><ele>1259.0</ele><time>2026-04-26T07:12:14.788Z</time></trkpt><trkpt lat="42.5056874" lon="13.3578538"><ele>1259.0</ele><time>2026-04-26T07:12:15.787Z</time></trkpt><trkpt lat="42.5058582" lon="13.357946"><ele>1259.0</ele><time>2026-04-26T07:12:16.788Z</time></trkpt><trkpt lat="42.5060223" lon="13.3579951"><ele>1261.0</ele><time>2026-04-26T07:12:17.788Z</time></trkpt><trkpt lat="42.5061762" lon="13.3580488"><ele>1263.0</ele><time>2026-04-26T07:12:18.788Z</time></trkpt><trkpt lat="42.5063155" lon="13.358138"><ele>1265.0</ele><time>2026-04-26T07:12:19.786Z</time></trkpt><trkpt lat="42.5064434" lon="13.3582769"><ele>1265.0</ele><time>2026-04-26T07:12:20.786Z</time></trkpt><trkpt lat="42.5065713" lon="13.3584456"><ele>1265.0</ele><time>2026-04-26T07:12:21.787Z</time></trkpt><trkpt lat="42.5067028" lon="13.3586295"><ele>1265.0</ele><time>2026-04-26T07:12:22.787Z</time></trkpt><trkpt lat="42.5068318" lon="13.3588217"><ele>1270.0</ele><time>2026-04-26T07:12:23.788Z</time></trkpt><trkpt lat="42.5069401" lon="13.3590434"><ele>1275.0</ele><time>2026-04-26T07:12:24.787Z</time></trkpt><trkpt lat="42.5070266" lon="13.3592991"><ele>1280.0</ele><time>2026-04-26T07:12:25.786Z</time></trkpt><trkpt lat="42.5070909" lon="13.3595783"><ele>1276.3333333333335</ele><time>2026-04-26T07:12:26.787Z</time></trkpt><trkpt lat="42.5071676" lon="13.3598689"><ele>1272.6666666666667</ele><time>2026-04-26T07:12:27.787Z</time></trkpt><trkpt lat="42.5072533" lon="13.3601325"><ele>1269.0</ele><time>2026-04-26T07:12:28.786Z</time></trkpt><trkpt lat="42.5073384" lon="13.3603815"><ele>1265.3333333333333</ele><time>2026-04-26T07:12:29.786Z</time></trkpt><trkpt lat="42.5074158" lon="13.3606088"><ele>1261.6666666666665</ele><time>2026-04-26T07:12:30.788Z</time></trkpt><trkpt lat="42.5074841" lon="13.3607904"><ele>1258.0</ele><time>2026-04-26T07:12:31.787Z</time></trkpt><trkpt lat="42.5075659" lon="13.3609366"><ele>1258.0</ele><time>2026-04-26T07:12:32.787Z</time></trkpt><trkpt lat="42.5076715" lon="13.3610331"><ele>1258.0</ele><time>2026-04-26T07:12:33.787Z</time></trkpt><trkpt lat="42.5077996" lon="13.3610689"><ele>1258.0</ele><time>2026-04-26T07:12:34.787Z</time></trkpt><trkpt lat="42.5079405" lon="13.3610358"><ele>1258.0</ele><time>2026-04-26T07:12:35.788Z</time></trkpt><trkpt lat="42.5080937" lon="13.3609436"><ele>1260.6666666666665</ele><time>2026-04-26T07:12:36.788Z</time></trkpt><trkpt lat="42.5082481" lon="13.3608173"><ele>1263.3333333333333</ele><time>2026-04-26T07:12:37.788Z</time></trkpt><trkpt lat="42.508403" lon="13.3606858"><ele>1266.0</ele><time>2026-04-26T07:12:38.787Z</time></trkpt><trkpt lat="42.5085543" lon="13.3605595"><ele>1269.0</ele><time>2026-04-26T07:12:39.787Z</time></trkpt><trkpt lat="42.508697" lon="13.3604457"><ele>1272.0</ele><time>2026-04-26T07:12:40.787Z</time></trkpt><trkpt lat="42.5088353" lon="13.360359"><ele>1275.0</ele><time>2026-04-26T07:12:41.788Z</time></trkpt><trkpt lat="42.5089642" lon="13.3603133"><ele>1275.0</ele><time>2026-04-26T07:12:42.788Z</time></trkpt><trkpt lat="42.5090894" lon="13.3603248"><ele>1275.0</ele><time>2026-04-26T07:12:43.786Z</time></trkpt><trkpt lat="42.5092215" lon="13.3603853"><ele>1275.0</ele><time>2026-04-26T07:12:44.787Z</time></trkpt><trkpt lat="42.5093327" lon="13.3604859"><ele>1275.0</ele><time>2026-04-26T07:12:45.786Z</time></trkpt><trkpt lat="42.5094529" lon="13.3605769"><ele>1274.25</ele><time>2026-04-26T07:12:46.788Z</time></trkpt><trkpt lat="42.5095946" lon="13.3606231"><ele>1273.5</ele><time>2026-04-26T07:12:47.788Z</time></trkpt><trkpt lat="42.5097431" lon="13.3606082"><ele>1272.75</ele><time>2026-04-26T07:12:48.787Z</time></trkpt><trkpt lat="42.5098892" lon="13.3605486"><ele>1272.0</ele><time>2026-04-26T07:12:49.786Z</time></trkpt><trkpt lat="42.5100356" lon="13.3604985"><ele>1272.0</ele><time>2026-04-26T07:12:50.788Z</time></trkpt><trkpt lat="42.5101814" lon="13.3604985"><ele>1272.0</ele><time>2026-04-26T07:12:51.788Z</time></trkpt><trkpt lat="42.5103112" lon="13.3605341"><ele>1272.0</ele><time>2026-04-26T07:12:52.788Z</time></trkpt><trkpt lat="42.5104196" lon="13.3606022"><ele>1272.0</ele><time>2026-04-26T07:12:53.786Z</time></trkpt><trkpt lat="42.5105042" lon="13.3607049"><ele>1276.0</ele><time>2026-04-26T07:12:54.788Z</time></trkpt><trkpt lat="42.5105525" lon="13.3608391"><ele>1280.0</ele><time>2026-04-26T07:12:55.787Z</time></trkpt><trkpt lat="42.510561" lon="13.3610064"><ele>1284.0</ele><time>2026-04-26T07:12:56.787Z</time></trkpt><trkpt lat="42.5105564" lon="13.3611994"><ele>1288.0</ele><time>2026-04-26T07:12:57.787Z</time></trkpt><trkpt lat="42.5105866" lon="13.3614197"><ele>1288.0</ele><time>2026-04-26T07:12:58.787Z</time></trkpt><trkpt lat="42.5106474" lon="13.3616576"><ele>1288.0</ele><time>2026-04-26T07:12:59.788Z</time></trkpt><trkpt lat="42.5107165" lon="13.3618839"><ele>1288.0</ele><time>2026-04-26T07:13:00.788Z</time></trkpt><trkpt lat="42.51079" lon="13.3621036"><ele>1285.3333333333333</ele><time>2026-04-26T07:13:01.787Z</time></trkpt><trkpt lat="42.5108675" lon="13.3623059"><ele>1282.6666666666667</ele><time>2026-04-26T07:13:02.787Z</time></trkpt><trkpt lat="42.5109641" lon="13.3624634"><ele>1280.0</ele><time>2026-04-26T07:13:03.787Z</time></trkpt><trkpt lat="42.5110842" lon="13.3625622"><ele>1280.0</ele><time>2026-04-26T07:13:04.788Z</time></trkpt><trkpt lat="42.5112256" lon="13.3625995"><ele>1280.0</ele><time>2026-04-26T07:13:05.787Z</time></trkpt><trkpt lat="42.5113668" lon="13.3626106"><ele>1280.0</ele><time>2026-04-26T07:13:06.786Z</time></trkpt><trkpt lat="42.511492" lon="13.3626438"><ele>1280.0</ele><time>2026-04-26T07:13:07.788Z</time></trkpt><trkpt lat="42.5115967" lon="13.3627113"><ele>1282.0</ele><time>2026-04-26T07:13:08.787Z</time></trkpt><trkpt lat="42.5116804" lon="13.3628346"><ele>1284.0</ele><time>2026-04-26T07:13:09.788Z</time></trkpt><trkpt lat="42.5117418" lon="13.3630098"><ele>1286.0</ele><time>2026-04-26T07:13:10.787Z</time></trkpt><trkpt lat="42.5117967" lon="13.3632108"><ele>1288.0</ele><time>2026-04-26T07:13:11.788Z</time></trkpt><trkpt lat="42.5118497" lon="13.3634402"><ele>1288.0</ele><time>2026-04-26T07:13:12.788Z</time></trkpt><trkpt lat="42.5118972" lon="13.3636922"><ele>1288.0</ele><time>2026-04-26T07:13:13.787Z</time></trkpt><trkpt lat="42.5119351" lon="13.3639472"><ele>1288.0</ele><time>2026-04-26T07:13:14.788Z</time></trkpt><trkpt lat="42.5119707" lon="13.3642081"><ele>1286.3333333333333</ele><time>2026-04-26T07:13:15.788Z</time></trkpt><trkpt lat="42.5119989" lon="13.3644812"><ele>1284.6666666666667</ele><time>2026-04-26T07:13:16.787Z</time></trkpt><trkpt lat="42.5120398" lon="13.3647635"><ele>1283.0</ele><time>2026-04-26T07:13:17.787Z</time></trkpt><trkpt lat="42.5120983" lon="13.3650344"><ele>1289.6666666666667</ele><time>2026-04-26T07:13:18.786Z</time></trkpt><trkpt lat="42.5121721" lon="13.3652927"><ele>1296.3333333333333</ele><time>2026-04-26T07:13:19.786Z</time></trkpt><trkpt lat="42.512253" lon="13.365545"><ele>1303.0</ele><time>2026-04-26T07:13:20.786Z</time></trkpt><trkpt lat="42.5123363" lon="13.3657882"><ele>1303.0</ele><time>2026-04-26T07:13:21.786Z</time></trkpt><trkpt lat="42.5124174" lon="13.3660337"><ele>1303.0</ele><time>2026-04-26T07:13:22.788Z</time></trkpt><trkpt lat="42.5124979" lon="13.3662736"><ele>1303.0</ele><time>2026-04-26T07:13:23.788Z</time></trkpt><trkpt lat="42.5125715" lon="13.3665033"><ele>1301.3333333333333</ele><time>2026-04-26T07:13:24.788Z</time></trkpt><trkpt lat="42.5126433" lon="13.3667161"><ele>1299.6666666666667</ele><time>2026-04-26T07:13:25.788Z</time></trkpt><trkpt lat="42.5127192" lon="13.3669155"><ele>1298.0</ele><time>2026-04-26T07:13:26.787Z</time></trkpt><trkpt lat="42.5128043" lon="13.3671063"><ele>1297.3333333333335</ele><time>2026-04-26T07:13:27.786Z</time></trkpt><trkpt lat="42.512889" lon="13.3672917"><ele>1296.6666666666667</ele><time>2026-04-26T07:13:28.788Z</time></trkpt><trkpt lat="42.5129667" lon="13.3674776"><ele>1296.0</ele><time>2026-04-26T07:13:29.788Z</time></trkpt><trkpt lat="42.5130478" lon="13.3676573"><ele>1299.6666666666667</ele><time>2026-04-26T07:13:30.787Z</time></trkpt><trkpt lat="42.5131139" lon="13.367855"><ele>1303.3333333333335</ele><time>2026-04-26T07:13:31.787Z</time></trkpt><trkpt lat="42.5131654" lon="13.3680685"><ele>1307.0</ele><time>2026-04-26T07:13:32.787Z</time></trkpt><trkpt lat="42.513201" lon="13.368297"><ele>1307.0</ele><time>2026-04-26T07:13:33.787Z</time></trkpt><trkpt lat="42.5132338" lon="13.3685349"><ele>1307.0</ele><time>2026-04-26T07:13:34.787Z</time></trkpt><trkpt lat="42.5132708" lon="13.3687693"><ele>1307.0</ele><time>2026-04-26T07:13:35.787Z</time></trkpt><trkpt lat="42.5133071" lon="13.3689889"><ele>1308.0</ele><time>2026-04-26T07:13:36.787Z</time></trkpt><trkpt lat="42.513346" lon="13.3691905"><ele>1309.0</ele><time>2026-04-26T07:13:37.788Z</time></trkpt><trkpt lat="42.513407" lon="13.3693789"><ele>1310.0</ele><time>2026-04-26T07:13:38.787Z</time></trkpt><trkpt lat="42.5134904" lon="13.3695522"><ele>1311.3333333333335</ele><time>2026-04-26T07:13:39.787Z</time></trkpt><trkpt lat="42.5135957" lon="13.3697022"><ele>1312.6666666666667</ele><time>2026-04-26T07:13:40.787Z</time></trkpt><trkpt lat="42.5137209" lon="13.3698434"><ele>1314.0</ele><time>2026-04-26T07:13:41.787Z</time></trkpt><trkpt lat="42.5138549" lon="13.3699738"><ele>1314.0</ele><time>2026-04-26T07:13:42.787Z</time></trkpt><trkpt lat="42.5139959" lon="13.3701004"><ele>1314.0</ele><time>2026-04-26T07:13:43.788Z</time></trkpt><trkpt lat="42.5141396" lon="13.3702266"><ele>1314.0</ele><time>2026-04-26T07:13:44.786Z</time></trkpt><trkpt lat="42.5142814" lon="13.3703436"><ele>1314.0</ele><time>2026-04-26T07:13:45.788Z</time></trkpt><trkpt lat="42.5144151" lon="13.3704539"><ele>1314.0</ele><time>2026-04-26T07:13:46.787Z</time></trkpt><trkpt lat="42.514536" lon="13.3705581"><ele>1314.0</ele><time>2026-04-26T07:13:47.787Z</time></trkpt><trkpt lat="42.5146668" lon="13.3706458"><ele>1314.0</ele><time>2026-04-26T07:13:48.786Z</time></trkpt><trkpt lat="42.5148148" lon="13.3706886"><ele>1317.3333333333333</ele><time>2026-04-26T07:13:49.787Z</time></trkpt><trkpt lat="42.5149616" lon="13.3706826"><ele>1320.6666666666665</ele><time>2026-04-26T07:13:50.787Z</time></trkpt><trkpt lat="42.5151171" lon="13.3706319"><ele>1324.0</ele><time>2026-04-26T07:13:51.787Z</time></trkpt><trkpt lat="42.5152739" lon="13.3705422"><ele>1326.3333333333333</ele><time>2026-04-26T07:13:52.786Z</time></trkpt><trkpt lat="42.5154261" lon="13.3704342"><ele>1328.6666666666667</ele><time>2026-04-26T07:13:53.787Z</time></trkpt><trkpt lat="42.5155736" lon="13.3703134"><ele>1331.0</ele><time>2026-04-26T07:13:54.787Z</time></trkpt><trkpt lat="42.515721" lon="13.3701742"><ele>1331.0</ele><time>2026-04-26T07:13:55.786Z</time></trkpt><trkpt lat="42.5158475" lon="13.3700139"><ele>1331.0</ele><time>2026-04-26T07:13:56.788Z</time></trkpt><trkpt lat="42.5159611" lon="13.3698408"><ele>1331.0</ele><time>2026-04-26T07:13:57.786Z</time></trkpt><trkpt lat="42.5160837" lon="13.3696799"><ele>1330.6666666666667</ele><time>2026-04-26T07:13:58.786Z</time></trkpt><trkpt lat="42.5162147" lon="13.3695356"><ele>1330.3333333333333</ele><time>2026-04-26T07:13:59.785Z</time></trkpt><trkpt lat="42.5163551" lon="13.3694212"><ele>1330.0</ele><time>2026-04-26T07:14:00.787Z</time></trkpt><trkpt lat="42.5165078" lon="13.3693385"><ele>1330.0</ele><time>2026-04-26T07:14:01.787Z</time></trkpt><trkpt lat="42.5166604" lon="13.3692716"><ele>1330.0</ele><time>2026-04-26T07:14:02.787Z</time></trkpt><trkpt lat="42.5168225" lon="13.3692175"><ele>1330.0</ele><time>2026-04-26T07:14:03.786Z</time></trkpt><trkpt lat="42.5169968" lon="13.3691619"><ele>1332.6666666666665</ele><time>2026-04-26T07:14:04.786Z</time></trkpt><trkpt lat="42.5171778" lon="13.3691154"><ele>1335.3333333333333</ele><time>2026-04-26T07:14:05.786Z</time></trkpt><trkpt lat="42.5173606" lon="13.3690965"><ele>1338.0</ele><time>2026-04-26T07:14:06.785Z</time></trkpt><trkpt lat="42.5175345" lon="13.369102"><ele>1338.0</ele><time>2026-04-26T07:14:07.786Z</time></trkpt><trkpt lat="42.5176974" lon="13.3690857"><ele>1338.0</ele><time>2026-04-26T07:14:08.786Z</time></trkpt><trkpt lat="42.5178475" lon="13.3690516"><ele>1338.0</ele><time>2026-04-26T07:14:09.786Z</time></trkpt><trkpt lat="42.5179874" lon="13.368991"><ele>1339.0</ele><time>2026-04-26T07:14:10.786Z</time></trkpt><trkpt lat="42.5181087" lon="13.3688693"><ele>1340.0</ele><time>2026-04-26T07:14:11.786Z</time></trkpt><trkpt lat="42.5182112" lon="13.3687201"><ele>1341.0</ele><time>2026-04-26T07:14:12.786Z</time></trkpt><trkpt lat="42.5183279" lon="13.3685827"><ele>1337.3333333333333</ele><time>2026-04-26T07:14:13.786Z</time></trkpt><trkpt lat="42.5184689" lon="13.3684742"><ele>1333.6666666666665</ele><time>2026-04-26T07:14:14.786Z</time></trkpt><trkpt lat="42.5186206" lon="13.3684008"><ele>1330.0</ele><time>2026-04-26T07:14:15.786Z</time></trkpt><trkpt lat="42.5187803" lon="13.3683651"><ele>1330.0</ele><time>2026-04-26T07:14:16.785Z</time></trkpt><trkpt lat="42.5189246" lon="13.3683694"><ele>1330.0</ele><time>2026-04-26T07:14:17.786Z</time></trkpt><trkpt lat="42.5190512" lon="13.3684178"><ele>1330.0</ele><time>2026-04-26T07:14:18.786Z</time></trkpt><trkpt lat="42.5191711" lon="13.3685161"><ele>1330.0</ele><time>2026-04-26T07:14:19.786Z</time></trkpt><trkpt lat="42.5192853" lon="13.3686538"><ele>1330.0</ele><time>2026-04-26T07:14:20.786Z</time></trkpt><trkpt lat="42.519368" lon="13.3687968"><ele>1330.0</ele><time>2026-04-26T07:14:21.786Z</time></trkpt><trkpt lat="42.5194165" lon="13.3689499"><ele>1330.0</ele><time>2026-04-26T07:14:22.786Z</time></trkpt><trkpt lat="42.5194344" lon="13.3691237"><ele>1330.0</ele><time>2026-04-26T07:14:23.787Z</time></trkpt><trkpt lat="42.5194208" lon="13.3693078"><ele>1332.25</ele><time>2026-04-26T07:14:24.787Z</time></trkpt><trkpt lat="42.5193907" lon="13.3694763"><ele>1334.5</ele><time>2026-04-26T07:14:25.785Z</time></trkpt><trkpt lat="42.519385" lon="13.3696401"><ele>1336.75</ele><time>2026-04-26T07:14:26.786Z</time></trkpt><trkpt lat="42.5194213" lon="13.3698058"><ele>1339.0</ele><time>2026-04-26T07:14:27.786Z</time></trkpt><trkpt lat="42.5195018" lon="13.3699561"><ele>1336.75</ele><time>2026-04-26T07:14:28.785Z</time></trkpt><trkpt lat="42.5196121" lon="13.3700957"><ele>1334.5</ele><time>2026-04-26T07:14:29.786Z</time></trkpt><trkpt lat="42.5197174" lon="13.370241"><ele>1332.25</ele><time>2026-04-26T07:14:30.786Z</time></trkpt><trkpt lat="42.5198172" lon="13.3703852"><ele>1330.0</ele><time>2026-04-26T07:14:31.787Z</time></trkpt><trkpt lat="42.5199152" lon="13.3705205"><ele>1331.25</ele><time>2026-04-26T07:14:32.787Z</time></trkpt><trkpt lat="42.520025" lon="13.3706232"><ele>1332.5</ele><time>2026-04-26T07:14:33.786Z</time></trkpt><trkpt lat="42.5201472" lon="13.3706842"><ele>1333.75</ele><time>2026-04-26T07:14:34.786Z</time></trkpt><trkpt lat="42.5202643" lon="13.3707277"><ele>1335.0</ele><time>2026-04-26T07:14:35.787Z</time></trkpt><trkpt lat="42.5203805" lon="13.3707483"><ele>1333.4</ele><time>2026-04-26T07:14:36.787Z</time></trkpt><trkpt lat="42.5204906" lon="13.3707785"><ele>1331.8</ele><time>2026-04-26T07:14:37.786Z</time></trkpt><trkpt lat="42.5205833" lon="13.370837"><ele>1330.1999999999998</ele><time>2026-04-26T07:14:38.786Z</time></trkpt><trkpt lat="42.5206509" lon="13.37092"><ele>1328.6</ele><time>2026-04-26T07:14:39.787Z</time></trkpt><trkpt lat="42.520693" lon="13.3710181"><ele>1327.0</ele><time>2026-04-26T07:14:40.786Z</time></trkpt><trkpt lat="42.5207035" lon="13.3711222"><ele>1327.0</ele><time>2026-04-26T07:14:41.786Z</time></trkpt><trkpt lat="42.5206945" lon="13.3712295"><ele>1327.0</ele><time>2026-04-26T07:14:42.787Z</time></trkpt><trkpt lat="42.5206612" lon="13.371353"><ele>1327.0</ele><time>2026-04-26T07:14:43.785Z</time></trkpt><trkpt lat="42.5206044" lon="13.3715071"><ele>1327.0</ele><time>2026-04-26T07:14:44.786Z</time></trkpt><trkpt lat="42.5205178" lon="13.3716884"><ele>1327.0</ele><time>2026-04-26T07:14:45.787Z</time></trkpt><trkpt lat="42.5204155" lon="13.3718723"><ele>1327.0</ele><time>2026-04-26T07:14:46.786Z</time></trkpt><trkpt lat="42.5203218" lon="13.3720285"><ele>1327.0</ele><time>2026-04-26T07:14:47.786Z</time></trkpt><trkpt lat="42.5202559" lon="13.3721749"><ele>1327.0</ele><time>2026-04-26T07:14:48.786Z</time></trkpt><trkpt lat="42.5202286" lon="13.3723217"><ele>1328.5</ele><time>2026-04-26T07:14:49.786Z</time></trkpt><trkpt lat="42.5202375" lon="13.3724617"><ele>1330.0</ele><time>2026-04-26T07:14:50.786Z</time></trkpt><trkpt lat="42.520287" lon="13.3725956"><ele>1331.5</ele><time>2026-04-26T07:14:51.787Z</time></trkpt><trkpt lat="42.5203744" lon="13.3727177"><ele>1333.0</ele><time>2026-04-26T07:14:52.787Z</time></trkpt><trkpt lat="42.5204755" lon="13.3728014"><ele>1333.0</ele><time>2026-04-26T07:14:53.787Z</time></trkpt><trkpt lat="42.5205808" lon="13.3728555"><ele>1333.0</ele><time>2026-04-26T07:14:54.786Z</time></trkpt><trkpt lat="42.5206922" lon="13.3728582"><ele>1333.0</ele><time>2026-04-26T07:14:55.785Z</time></trkpt><trkpt lat="42.5208062" lon="13.3728052"><ele>1333.0</ele><time>2026-04-26T07:14:56.785Z</time></trkpt><trkpt lat="42.5209078" lon="13.3727148"><ele>1333.0</ele><time>2026-04-26T07:14:57.786Z</time></trkpt><trkpt lat="42.5210057" lon="13.3725751"><ele>1333.0</ele><time>2026-04-26T07:14:58.785Z</time></trkpt><trkpt lat="42.5211123" lon="13.3724271"><ele>1333.0</ele><time>2026-04-26T07:14:59.787Z</time></trkpt><trkpt lat="42.5212353" lon="13.3723063"><ele>1333.0</ele><time>2026-04-26T07:15:00.786Z</time></trkpt><trkpt lat="42.5213808" lon="13.3722205"><ele>1330.0</ele><time>2026-04-26T07:15:01.785Z</time></trkpt><trkpt lat="42.5215468" lon="13.3721504"><ele>1327.0</ele><time>2026-04-26T07:15:02.786Z</time></trkpt><trkpt lat="42.5217081" lon="13.3720685"><ele>1324.0</ele><time>2026-04-26T07:15:03.786Z</time></trkpt><trkpt lat="42.5218596" lon="13.37196"><ele>1324.0</ele><time>2026-04-26T07:15:04.786Z</time></trkpt><trkpt lat="42.5219928" lon="13.3718201"><ele>1324.0</ele><time>2026-04-26T07:15:05.786Z</time></trkpt><trkpt lat="42.5221086" lon="13.3716607"><ele>1324.0</ele><time>2026-04-26T07:15:06.785Z</time></trkpt><trkpt lat="42.5222108" lon="13.3715022"><ele>1323.25</ele><time>2026-04-26T07:15:07.786Z</time></trkpt><trkpt lat="42.5223153" lon="13.3713568"><ele>1322.5</ele><time>2026-04-26T07:15:08.786Z</time></trkpt><trkpt lat="42.5224273" lon="13.3712475"><ele>1321.75</ele><time>2026-04-26T07:15:09.787Z</time></trkpt><trkpt lat="42.5225352" lon="13.3711902"><ele>1321.0</ele><time>2026-04-26T07:15:10.787Z</time></trkpt><trkpt lat="42.5226437" lon="13.3711946"><ele>1321.0</ele><time>2026-04-26T07:15:11.785Z</time></trkpt><trkpt lat="42.5227479" lon="13.3712619"><ele>1321.0</ele><time>2026-04-26T07:15:12.786Z</time></trkpt><trkpt lat="42.5228481" lon="13.3713797"><ele>1321.0</ele><time>2026-04-26T07:15:13.786Z</time></trkpt><trkpt lat="42.5229376" lon="13.3715257"><ele>1321.0</ele><time>2026-04-26T07:15:14.786Z</time></trkpt><trkpt lat="42.5230173" lon="13.3716864"><ele>1321.4</ele><time>2026-04-26T07:15:15.787Z</time></trkpt><trkpt lat="42.5230884" lon="13.3718403"><ele>1321.8</ele><time>2026-04-26T07:15:16.787Z</time></trkpt><trkpt lat="42.5231583" lon="13.3719827"><ele>1322.2</ele><time>2026-04-26T07:15:17.786Z</time></trkpt><trkpt lat="42.5232147" lon="13.3720984"><ele>1322.6000000000001</ele><time>2026-04-26T07:15:18.786Z</time></trkpt><trkpt lat="42.523263" lon="13.3721884"><ele>1323.0</ele><time>2026-04-26T07:15:19.786Z</time></trkpt><trkpt lat="42.5233177" lon="13.3722357"><ele>1323.0</ele><time>2026-04-26T07:15:20.786Z</time></trkpt><trkpt lat="42.523387" lon="13.3722407"><ele>1323.0</ele><time>2026-04-26T07:15:21.785Z</time></trkpt><trkpt lat="42.5234843" lon="13.3722027"><ele>1323.0</ele><time>2026-04-26T07:15:22.786Z</time></trkpt><trkpt lat="42.5235896" lon="13.3721182"><ele>1323.0</ele><time>2026-04-26T07:15:23.787Z</time></trkpt><trkpt lat="42.523708" lon="13.3720043"><ele>1323.0</ele><time>2026-04-26T07:15:24.786Z</time></trkpt><trkpt lat="42.5238419" lon="13.3718745"><ele>1319.0</ele><time>2026-04-26T07:15:25.786Z</time></trkpt><trkpt lat="42.5239891" lon="13.3717427"><ele>1315.0</ele><time>2026-04-26T07:15:26.787Z</time></trkpt><trkpt lat="42.5241519" lon="13.3715904"><ele>1311.0</ele><time>2026-04-26T07:15:27.786Z</time></trkpt><trkpt lat="42.524318" lon="13.3714267"><ele>1311.0</ele><time>2026-04-26T07:15:28.785Z</time></trkpt><trkpt lat="42.5244909" lon="13.371266"><ele>1311.0</ele><time>2026-04-26T07:15:29.786Z</time></trkpt><trkpt lat="42.5246631" lon="13.371102"><ele>1311.0</ele><time>2026-04-26T07:15:30.786Z</time></trkpt><trkpt lat="42.5248345" lon="13.3709401"><ele>1311.0</ele><time>2026-04-26T07:15:31.787Z</time></trkpt><trkpt lat="42.5250039" lon="13.3707806"><ele>1311.0</ele><time>2026-04-26T07:15:32.786Z</time></trkpt><trkpt lat="42.5251681" lon="13.3706304"><ele>1311.0</ele><time>2026-04-26T07:15:33.786Z</time></trkpt><trkpt lat="42.5253281" lon="13.3704843"><ele>1311.0</ele><time>2026-04-26T07:15:34.786Z</time></trkpt><trkpt lat="42.5254835" lon="13.3703424"><ele>1311.0</ele><time>2026-04-26T07:15:35.786Z</time></trkpt><trkpt lat="42.5256333" lon="13.3702048"><ele>1311.0</ele><time>2026-04-26T07:15:36.787Z</time></trkpt><trkpt lat="42.5257745" lon="13.3700749"><ele>1311.0</ele><time>2026-04-26T07:15:37.786Z</time></trkpt><trkpt lat="42.5259137" lon="13.369949"><ele>1311.0</ele><time>2026-04-26T07:15:38.785Z</time></trkpt><trkpt lat="42.5260406" lon="13.3698321"><ele>1311.0</ele><time>2026-04-26T07:15:39.787Z</time></trkpt><trkpt lat="42.5261614" lon="13.3697188"><ele>1311.25</ele><time>2026-04-26T07:15:40.786Z</time></trkpt><trkpt lat="42.5262787" lon="13.3696139"><ele>1311.5</ele><time>2026-04-26T07:15:41.786Z</time></trkpt><trkpt lat="42.5263907" lon="13.3695135"><ele>1311.75</ele><time>2026-04-26T07:15:42.786Z</time></trkpt><trkpt lat="42.5265034" lon="13.3694094"><ele>1312.0</ele><time>2026-04-26T07:15:43.785Z</time></trkpt><trkpt lat="42.5266068" lon="13.3693115"><ele>1312.0</ele><time>2026-04-26T07:15:44.787Z</time></trkpt><trkpt lat="42.5267045" lon="13.3692194"><ele>1312.0</ele><time>2026-04-26T07:15:45.786Z</time></trkpt><trkpt lat="42.5268074" lon="13.3691228"><ele>1312.0</ele><time>2026-04-26T07:15:46.786Z</time></trkpt><trkpt lat="42.5269117" lon="13.3690243"><ele>1312.0</ele><time>2026-04-26T07:15:47.787Z</time></trkpt><trkpt lat="42.5270047" lon="13.3689389"><ele>1313.1999999999998</ele><time>2026-04-26T07:15:48.787Z</time></trkpt><trkpt lat="42.5270877" lon="13.3688655"><ele>1314.4</ele><time>2026-04-26T07:15:49.787Z</time></trkpt><trkpt lat="42.5271523" lon="13.3688105"><ele>1315.6</ele><time>2026-04-26T07:15:50.786Z</time></trkpt><trkpt lat="42.5272324" lon="13.3687048"><ele>1316.8000000000002</ele><time>2026-04-26T07:15:52.785Z</time></trkpt><trkpt lat="42.5272291" lon="13.3685698"><ele>1318.0</ele><time>2026-04-26T07:15:54.787Z</time></trkpt><trkpt lat="42.527188" lon="13.3684693"><ele>1318.75</ele><time>2026-04-26T07:15:55.787Z</time></trkpt><trkpt lat="42.5271326" lon="13.3683536"><ele>1319.5</ele><time>2026-04-26T07:15:56.786Z</time></trkpt><trkpt lat="42.527077" lon="13.3682187"><ele>1320.25</ele><time>2026-04-26T07:15:57.787Z</time></trkpt><trkpt lat="42.5270323" lon="13.3680684"><ele>1321.0</ele><time>2026-04-26T07:15:58.786Z</time></trkpt><trkpt lat="42.5269636" lon="13.3679081"><ele>1323.6666666666665</ele><time>2026-04-26T07:15:59.785Z</time></trkpt><trkpt lat="42.5268685" lon="13.3677421"><ele>1326.3333333333333</ele><time>2026-04-26T07:16:00.787Z</time></trkpt><trkpt lat="42.5267766" lon="13.3675589"><ele>1329.0</ele><time>2026-04-26T07:16:01.787Z</time></trkpt><trkpt lat="42.5267046" lon="13.3673617"><ele>1331.3333333333333</ele><time>2026-04-26T07:16:02.786Z</time></trkpt><trkpt lat="42.5266551" lon="13.3671539"><ele>1333.6666666666665</ele><time>2026-04-26T07:16:03.787Z</time></trkpt><trkpt lat="42.5266243" lon="13.3669259"><ele>1336.0</ele><time>2026-04-26T07:16:04.786Z</time></trkpt><trkpt lat="42.5266142" lon="13.3666946"><ele>1336.0</ele><time>2026-04-26T07:16:05.785Z</time></trkpt><trkpt lat="42.5266226" lon="13.3664669"><ele>1336.0</ele><time>2026-04-26T07:16:06.786Z</time></trkpt><trkpt lat="42.5266459" lon="13.366241"><ele>1336.0</ele><time>2026-04-26T07:16:07.786Z</time></trkpt><trkpt lat="42.5266857" lon="13.3660154"><ele>1334.3333333333333</ele><time>2026-04-26T07:16:08.787Z</time></trkpt><trkpt lat="42.5267418" lon="13.3657883"><ele>1332.6666666666667</ele><time>2026-04-26T07:16:09.785Z</time></trkpt><trkpt lat="42.5267905" lon="13.3655702"><ele>1331.0</ele><time>2026-04-26T07:16:10.786Z</time></trkpt><trkpt lat="42.5268209" lon="13.365355"><ele>1330.0</ele><time>2026-04-26T07:16:11.786Z</time></trkpt><trkpt lat="42.5268194" lon="13.365137"><ele>1329.0</ele><time>2026-04-26T07:16:12.787Z</time></trkpt><trkpt lat="42.526797" lon="13.364925"><ele>1328.0</ele><time>2026-04-26T07:16:13.786Z</time></trkpt><trkpt lat="42.5267726" lon="13.3647175"><ele>1327.75</ele><time>2026-04-26T07:16:14.787Z</time></trkpt><trkpt lat="42.5267609" lon="13.3645135"><ele>1327.5</ele><time>2026-04-26T07:16:15.786Z</time></trkpt><trkpt lat="42.5267694" lon="13.3643155"><ele>1327.25</ele><time>2026-04-26T07:16:16.785Z</time></trkpt><trkpt lat="42.5268104" lon="13.3641252"><ele>1327.0</ele><time>2026-04-26T07:16:17.786Z</time></trkpt><trkpt lat="42.5268673" lon="13.3639678"><ele>1327.0</ele><time>2026-04-26T07:16:18.786Z</time></trkpt><trkpt lat="42.5269183" lon="13.3638161"><ele>1327.0</ele><time>2026-04-26T07:16:19.787Z</time></trkpt><trkpt lat="42.5269397" lon="13.3636665"><ele>1327.0</ele><time>2026-04-26T07:16:20.786Z</time></trkpt><trkpt lat="42.5269168" lon="13.3635023"><ele>1327.0</ele><time>2026-04-26T07:16:21.786Z</time></trkpt><trkpt lat="42.5268561" lon="13.3633474"><ele>1327.0</ele><time>2026-04-26T07:16:22.785Z</time></trkpt><trkpt lat="42.5267914" lon="13.3631786"><ele>1327.0</ele><time>2026-04-26T07:16:23.786Z</time></trkpt><trkpt lat="42.5267424" lon="13.362968"><ele>1327.0</ele><time>2026-04-26T07:16:24.787Z</time></trkpt><trkpt lat="42.5267157" lon="13.3627381"><ele>1328.0</ele><time>2026-04-26T07:16:25.786Z</time></trkpt><trkpt lat="42.5266984" lon="13.362525"><ele>1329.0</ele><time>2026-04-26T07:16:26.785Z</time></trkpt><trkpt lat="42.5266852" lon="13.3623297"><ele>1330.0</ele><time>2026-04-26T07:16:27.787Z</time></trkpt><trkpt lat="42.5266672" lon="13.3621534"><ele>1331.0</ele><time>2026-04-26T07:16:28.786Z</time></trkpt><trkpt lat="42.526629" lon="13.3620058"><ele>1331.6</ele><time>2026-04-26T07:16:29.786Z</time></trkpt><trkpt lat="42.5265661" lon="13.361893"><ele>1332.1999999999998</ele><time>2026-04-26T07:16:30.786Z</time></trkpt><trkpt lat="42.5264773" lon="13.3618246"><ele>1332.8000000000002</ele><time>2026-04-26T07:16:31.787Z</time></trkpt><trkpt lat="42.5263645" lon="13.3618113"><ele>1333.4</ele><time>2026-04-26T07:16:32.787Z</time></trkpt><trkpt lat="42.5262361" lon="13.3618328"><ele>1334.0</ele><time>2026-04-26T07:16:33.786Z</time></trkpt><trkpt lat="42.5261097" lon="13.3618816"><ele>1334.0</ele><time>2026-04-26T07:16:34.786Z</time></trkpt><trkpt lat="42.5259895" lon="13.3619468"><ele>1334.0</ele><time>2026-04-26T07:16:35.787Z</time></trkpt><trkpt lat="42.5258789" lon="13.361995"><ele>1334.0</ele><time>2026-04-26T07:16:36.786Z</time></trkpt><trkpt lat="42.5257672" lon="13.3620108"><ele>1334.0</ele><time>2026-04-26T07:16:37.786Z</time></trkpt><trkpt lat="42.5256742" lon="13.3619787"><ele>1334.0</ele><time>2026-04-26T07:16:38.786Z</time></trkpt><trkpt lat="42.5255947" lon="13.3618982"><ele>1334.0</ele><time>2026-04-26T07:16:39.787Z</time></trkpt><trkpt lat="42.5255272" lon="13.3617661"><ele>1334.0</ele><time>2026-04-26T07:16:40.786Z</time></trkpt><trkpt lat="42.5254767" lon="13.3615973"><ele>1334.0</ele><time>2026-04-26T07:16:41.787Z</time></trkpt><trkpt lat="42.5254466" lon="13.3614024"><ele>1336.0</ele><time>2026-04-26T07:16:42.787Z</time></trkpt><trkpt lat="42.5254242" lon="13.3611843"><ele>1338.0</ele><time>2026-04-26T07:16:43.787Z</time></trkpt><trkpt lat="42.5254165" lon="13.360958"><ele>1340.0</ele><time>2026-04-26T07:16:44.786Z</time></trkpt><trkpt lat="42.5254276" lon="13.3607243"><ele>1339.3333333333335</ele><time>2026-04-26T07:16:45.787Z</time></trkpt><trkpt lat="42.5254637" lon="13.3604824"><ele>1338.6666666666667</ele><time>2026-04-26T07:16:46.787Z</time></trkpt><trkpt lat="42.5255109" lon="13.360236"><ele>1338.0</ele><time>2026-04-26T07:16:47.785Z</time></trkpt><trkpt lat="42.5255619" lon="13.3599962"><ele>1338.0</ele><time>2026-04-26T07:16:48.786Z</time></trkpt><trkpt lat="42.5256105" lon="13.3597628"><ele>1338.0</ele><time>2026-04-26T07:16:49.785Z</time></trkpt><trkpt lat="42.5256551" lon="13.3595386"><ele>1338.0</ele><time>2026-04-26T07:16:50.785Z</time></trkpt><trkpt lat="42.5257012" lon="13.3593275"><ele>1336.3333333333333</ele><time>2026-04-26T07:16:51.787Z</time></trkpt><trkpt lat="42.5257772" lon="13.3591251"><ele>1334.6666666666665</ele><time>2026-04-26T07:16:52.786Z</time></trkpt><trkpt lat="42.5258782" lon="13.35893"><ele>1333.0</ele><time>2026-04-26T07:16:53.787Z</time></trkpt><trkpt lat="42.5260029" lon="13.358744"><ele>1330.0</ele><time>2026-04-26T07:16:54.786Z</time></trkpt><trkpt lat="42.5261352" lon="13.3585582"><ele>1327.0</ele><time>2026-04-26T07:16:55.786Z</time></trkpt><trkpt lat="42.5262663" lon="13.3583796"><ele>1324.0</ele><time>2026-04-26T07:16:56.786Z</time></trkpt><trkpt lat="42.5263923" lon="13.3582079"><ele>1324.0</ele><time>2026-04-26T07:16:57.787Z</time></trkpt><trkpt lat="42.5265042" lon="13.3580523"><ele>1324.0</ele><time>2026-04-26T07:16:58.786Z</time></trkpt><trkpt lat="42.5266184" lon="13.3579278"><ele>1324.0</ele><time>2026-04-26T07:16:59.786Z</time></trkpt><trkpt lat="42.5267493" lon="13.3578382"><ele>1324.0</ele><time>2026-04-26T07:17:00.787Z</time></trkpt><trkpt lat="42.5269042" lon="13.3577883"><ele>1324.0</ele><time>2026-04-26T07:17:01.787Z</time></trkpt><trkpt lat="42.5270721" lon="13.3577369"><ele>1324.0</ele><time>2026-04-26T07:17:02.786Z</time></trkpt><trkpt lat="42.5272526" lon="13.3576766"><ele>1326.3333333333333</ele><time>2026-04-26T07:17:03.786Z</time></trkpt><trkpt lat="42.5274205" lon="13.3576173"><ele>1328.6666666666667</ele><time>2026-04-26T07:17:04.786Z</time></trkpt><trkpt lat="42.5275791" lon="13.3575614"><ele>1331.0</ele><time>2026-04-26T07:17:05.786Z</time></trkpt><trkpt lat="42.5277303" lon="13.3575163"><ele>1331.0</ele><time>2026-04-26T07:17:06.786Z</time></trkpt><trkpt lat="42.5278771" lon="13.3575005"><ele>1331.0</ele><time>2026-04-26T07:17:07.785Z</time></trkpt><trkpt lat="42.5280182" lon="13.3575146"><ele>1331.0</ele><time>2026-04-26T07:17:08.786Z</time></trkpt><trkpt lat="42.5281497" lon="13.3575399"><ele>1331.0</ele><time>2026-04-26T07:17:09.785Z</time></trkpt><trkpt lat="42.5282715" lon="13.35756"><ele>1331.75</ele><time>2026-04-26T07:17:10.787Z</time></trkpt><trkpt lat="42.5283805" lon="13.357559"><ele>1332.5</ele><time>2026-04-26T07:17:11.786Z</time></trkpt><trkpt lat="42.5284882" lon="13.357509"><ele>1333.25</ele><time>2026-04-26T07:17:12.786Z</time></trkpt><trkpt lat="42.5285915" lon="13.3574313"><ele>1334.0</ele><time>2026-04-26T07:17:13.787Z</time></trkpt><trkpt lat="42.5286768" lon="13.3573389"><ele>1335.0</ele><time>2026-04-26T07:17:14.787Z</time></trkpt><trkpt lat="42.5287357" lon="13.3572243"><ele>1336.0</ele><time>2026-04-26T07:17:15.786Z</time></trkpt><trkpt lat="42.5287688" lon="13.3570747"><ele>1337.0</ele><time>2026-04-26T07:17:16.786Z</time></trkpt><trkpt lat="42.5287682" lon="13.3569024"><ele>1338.0</ele><time>2026-04-26T07:17:17.786Z</time></trkpt><trkpt lat="42.5287362" lon="13.3567227"><ele>1335.6666666666667</ele><time>2026-04-26T07:17:18.786Z</time></trkpt><trkpt lat="42.528686" lon="13.3565284"><ele>1333.3333333333335</ele><time>2026-04-26T07:17:19.785Z</time></trkpt><trkpt lat="42.5286314" lon="13.3563231"><ele>1331.0</ele><time>2026-04-26T07:17:20.787Z</time></trkpt><trkpt lat="42.5285834" lon="13.3561138"><ele>1331.0</ele><time>2026-04-26T07:17:21.786Z</time></trkpt><trkpt lat="42.5285332" lon="13.3559091"><ele>1331.0</ele><time>2026-04-26T07:17:22.787Z</time></trkpt><trkpt lat="42.5284851" lon="13.355715"><ele>1331.0</ele><time>2026-04-26T07:17:23.786Z</time></trkpt><trkpt lat="42.52845" lon="13.3555311"><ele>1330.75</ele><time>2026-04-26T07:17:24.787Z</time></trkpt><trkpt lat="42.5284379" lon="13.355362"><ele>1330.5</ele><time>2026-04-26T07:17:25.785Z</time></trkpt><trkpt lat="42.5284421" lon="13.3551955"><ele>1330.25</ele><time>2026-04-26T07:17:26.785Z</time></trkpt><trkpt lat="42.5284717" lon="13.355012"><ele>1330.0</ele><time>2026-04-26T07:17:27.786Z</time></trkpt><trkpt lat="42.528526" lon="13.3548154"><ele>1329.3333333333333</ele><time>2026-04-26T07:17:28.785Z</time></trkpt><trkpt lat="42.5285887" lon="13.3546095"><ele>1328.6666666666667</ele><time>2026-04-26T07:17:29.786Z</time></trkpt><trkpt lat="42.5286624" lon="13.3544028"><ele>1328.0</ele><time>2026-04-26T07:17:30.787Z</time></trkpt><trkpt lat="42.5287418" lon="13.3541875"><ele>1330.3333333333335</ele><time>2026-04-26T07:17:31.786Z</time></trkpt><trkpt lat="42.5288221" lon="13.3539699"><ele>1332.6666666666667</ele><time>2026-04-26T07:17:32.786Z</time></trkpt><trkpt lat="42.5288994" lon="13.3537516"><ele>1335.0</ele><time>2026-04-26T07:17:33.787Z</time></trkpt><trkpt lat="42.5289734" lon="13.3535389"><ele>1335.0</ele><time>2026-04-26T07:17:34.786Z</time></trkpt><trkpt lat="42.5290417" lon="13.3533337"><ele>1335.0</ele><time>2026-04-26T07:17:35.786Z</time></trkpt><trkpt lat="42.5290959" lon="13.3531262"><ele>1335.0</ele><time>2026-04-26T07:17:36.785Z</time></trkpt><trkpt lat="42.5291278" lon="13.3529224"><ele>1334.0</ele><time>2026-04-26T07:17:37.786Z</time></trkpt><trkpt lat="42.5291353" lon="13.3527168"><ele>1333.0</ele><time>2026-04-26T07:17:38.786Z</time></trkpt><trkpt lat="42.5291138" lon="13.3525091"><ele>1332.0</ele><time>2026-04-26T07:17:39.787Z</time></trkpt><trkpt lat="42.5290745" lon="13.352306"><ele>1333.6666666666667</ele><time>2026-04-26T07:17:40.786Z</time></trkpt><trkpt lat="42.5290275" lon="13.3520988"><ele>1335.3333333333335</ele><time>2026-04-26T07:17:41.786Z</time></trkpt><trkpt lat="42.5289794" lon="13.3518949"><ele>1337.0</ele><time>2026-04-26T07:17:42.787Z</time></trkpt><trkpt lat="42.5289356" lon="13.3516975"><ele>1337.0</ele><time>2026-04-26T07:17:43.786Z</time></trkpt><trkpt lat="42.5288941" lon="13.3515094"><ele>1337.0</ele><time>2026-04-26T07:17:44.785Z</time></trkpt><trkpt lat="42.5288507" lon="13.351336"><ele>1337.0</ele><time>2026-04-26T07:17:45.786Z</time></trkpt><trkpt lat="42.5287997" lon="13.3511726"><ele>1337.0</ele><time>2026-04-26T07:17:46.785Z</time></trkpt><trkpt lat="42.5287423" lon="13.3510177"><ele>1336.8</ele><time>2026-04-26T07:17:47.787Z</time></trkpt><trkpt lat="42.5286744" lon="13.3508807"><ele>1336.6</ele><time>2026-04-26T07:17:48.787Z</time></trkpt><trkpt lat="42.528604" lon="13.3507666"><ele>1336.3999999999999</ele><time>2026-04-26T07:17:49.786Z</time></trkpt><trkpt lat="42.5285353" lon="13.3506829"><ele>1336.1999999999998</ele><time>2026-04-26T07:17:50.787Z</time></trkpt><trkpt lat="42.5284508" lon="13.3506496"><ele>1336.0</ele><time>2026-04-26T07:17:51.785Z</time></trkpt><trkpt lat="42.5283569" lon="13.350658"><ele>1336.0</ele><time>2026-04-26T07:17:52.785Z</time></trkpt><trkpt lat="42.5282624" lon="13.3507094"><ele>1336.0</ele><time>2026-04-26T07:17:53.787Z</time></trkpt><trkpt lat="42.5281672" lon="13.3508107"><ele>1336.0</ele><time>2026-04-26T07:17:54.786Z</time></trkpt><trkpt lat="42.528072" lon="13.3509154"><ele>1336.0</ele><time>2026-04-26T07:17:55.785Z</time></trkpt><trkpt lat="42.527974" lon="13.3509984"><ele>1336.5</ele><time>2026-04-26T07:17:56.786Z</time></trkpt><trkpt lat="42.5278689" lon="13.3510521"><ele>1337.0</ele><time>2026-04-26T07:17:57.786Z</time></trkpt><trkpt lat="42.5277551" lon="13.3510919"><ele>1337.5</ele><time>2026-04-26T07:17:58.787Z</time></trkpt><trkpt lat="42.5276421" lon="13.3510999"><ele>1338.0</ele><time>2026-04-26T07:17:59.786Z</time></trkpt><trkpt lat="42.5275356" lon="13.3510808"><ele>1338.0</ele><time>2026-04-26T07:18:00.785Z</time></trkpt><trkpt lat="42.5274344" lon="13.3510282"><ele>1338.0</ele><time>2026-04-26T07:18:01.786Z</time></trkpt><trkpt lat="42.5273383" lon="13.3509514"><ele>1338.0</ele><time>2026-04-26T07:18:02.786Z</time></trkpt><trkpt lat="42.5272524" lon="13.3508706"><ele>1338.0</ele><time>2026-04-26T07:18:03.786Z</time></trkpt><trkpt lat="42.5271771" lon="13.3507843"><ele>1338.0</ele><time>2026-04-26T07:18:04.786Z</time></trkpt><trkpt lat="42.5271123" lon="13.350699"><ele>1338.0</ele><time>2026-04-26T07:18:05.787Z</time></trkpt><trkpt lat="42.5270687" lon="13.3505955"><ele>1338.0</ele><time>2026-04-26T07:18:06.785Z</time></trkpt><trkpt lat="42.5270424" lon="13.3504738"><ele>1338.0</ele><time>2026-04-26T07:18:07.785Z</time></trkpt><trkpt lat="42.5270258" lon="13.3503213"><ele>1338.0</ele><time>2026-04-26T07:18:08.787Z</time></trkpt><trkpt lat="42.5270134" lon="13.3501444"><ele>1338.0</ele><time>2026-04-26T07:18:09.787Z</time></trkpt><trkpt lat="42.5270069" lon="13.3499663"><ele>1335.75</ele><time>2026-04-26T07:18:10.785Z</time></trkpt><trkpt lat="42.5270136" lon="13.3497919"><ele>1333.5</ele><time>2026-04-26T07:18:11.786Z</time></trkpt><trkpt lat="42.5270329" lon="13.3496227"><ele>1331.25</ele><time>2026-04-26T07:18:12.786Z</time></trkpt><trkpt lat="42.5270619" lon="13.3494469"><ele>1329.0</ele><time>2026-04-26T07:18:13.785Z</time></trkpt><trkpt lat="42.5270927" lon="13.3492643"><ele>1334.75</ele><time>2026-04-26T07:18:14.785Z</time></trkpt><trkpt lat="42.5271238" lon="13.3490859"><ele>1340.5</ele><time>2026-04-26T07:18:15.785Z</time></trkpt><trkpt lat="42.5271554" lon="13.3489097"><ele>1346.25</ele><time>2026-04-26T07:18:16.785Z</time></trkpt><trkpt lat="42.5271847" lon="13.3487351"><ele>1352.0</ele><time>2026-04-26T07:18:17.785Z</time></trkpt><trkpt lat="42.5272174" lon="13.3485579"><ele>1352.0</ele><time>2026-04-26T07:18:18.785Z</time></trkpt><trkpt lat="42.5272551" lon="13.3483829"><ele>1352.0</ele><time>2026-04-26T07:18:19.784Z</time></trkpt><trkpt lat="42.5272957" lon="13.3482122"><ele>1352.0</ele><time>2026-04-26T07:18:20.784Z</time></trkpt><trkpt lat="42.5273479" lon="13.3480371"><ele>1352.0</ele><time>2026-04-26T07:18:21.785Z</time></trkpt><trkpt lat="42.5274069" lon="13.3478757"><ele>1351.25</ele><time>2026-04-26T07:18:22.786Z</time></trkpt><trkpt lat="42.5274692" lon="13.3477233"><ele>1350.5</ele><time>2026-04-26T07:18:23.786Z</time></trkpt><trkpt lat="42.5275303" lon="13.347574"><ele>1349.75</ele><time>2026-04-26T07:18:24.785Z</time></trkpt><trkpt lat="42.5275908" lon="13.3474303"><ele>1349.0</ele><time>2026-04-26T07:18:25.785Z</time></trkpt><trkpt lat="42.527646" lon="13.3472913"><ele>1350.6</ele><time>2026-04-26T07:18:26.784Z</time></trkpt><trkpt lat="42.5276955" lon="13.34717"><ele>1352.2</ele><time>2026-04-26T07:18:27.784Z</time></trkpt><trkpt lat="42.5277373" lon="13.3470711"><ele>1353.8</ele><time>2026-04-26T07:18:28.785Z</time></trkpt><trkpt lat="42.5277833" lon="13.3469977"><ele>1355.3999999999999</ele><time>2026-04-26T07:18:29.786Z</time></trkpt><trkpt lat="42.5278829" lon="13.3469064"><ele>1357.0</ele><time>2026-04-26T07:18:31.786Z</time></trkpt><trkpt lat="42.5279604" lon="13.3469428"><ele>1357.0</ele><time>2026-04-26T07:18:33.785Z</time></trkpt><trkpt lat="42.5279757" lon="13.3471124"><ele>1357.0</ele><time>2026-04-26T07:18:35.786Z</time></trkpt><trkpt lat="42.5279399" lon="13.3472324"><ele>1357.0</ele><time>2026-04-26T07:18:36.785Z</time></trkpt><trkpt lat="42.5278905" lon="13.3473663"><ele>1357.0</ele><time>2026-04-26T07:18:37.786Z</time></trkpt><trkpt lat="42.527834" lon="13.3475207"><ele>1355.75</ele><time>2026-04-26T07:18:38.784Z</time></trkpt><trkpt lat="42.5277819" lon="13.3476861"><ele>1354.5</ele><time>2026-04-26T07:18:39.785Z</time></trkpt><trkpt lat="42.5277422" lon="13.3478739"><ele>1353.25</ele><time>2026-04-26T07:18:40.785Z</time></trkpt><trkpt lat="42.5277188" lon="13.3480814"><ele>1352.0</ele><time>2026-04-26T07:18:41.786Z</time></trkpt><trkpt lat="42.5277164" lon="13.3482912"><ele>1352.0</ele><time>2026-04-26T07:18:42.786Z</time></trkpt><trkpt lat="42.5277276" lon="13.3484957"><ele>1352.0</ele><time>2026-04-26T07:18:43.786Z</time></trkpt><trkpt lat="42.5277504" lon="13.3486933"><ele>1352.0</ele><time>2026-04-26T07:18:44.786Z</time></trkpt><trkpt lat="42.527781" lon="13.3488716"><ele>1352.0</ele><time>2026-04-26T07:18:45.786Z</time></trkpt><trkpt lat="42.5278277" lon="13.3490356"><ele>1355.75</ele><time>2026-04-26T07:18:46.786Z</time></trkpt><trkpt lat="42.5278947" lon="13.3491882"><ele>1359.5</ele><time>2026-04-26T07:18:47.784Z</time></trkpt><trkpt lat="42.5279819" lon="13.3493227"><ele>1363.25</ele><time>2026-04-26T07:18:48.786Z</time></trkpt><trkpt lat="42.5280714" lon="13.3494296"><ele>1367.0</ele><time>2026-04-26T07:18:49.786Z</time></trkpt><trkpt lat="42.5281617" lon="13.3495029"><ele>1367.0</ele><time>2026-04-26T07:18:50.785Z</time></trkpt><trkpt lat="42.5282537" lon="13.3495416"><ele>1367.0</ele><time>2026-04-26T07:18:51.785Z</time></trkpt><trkpt lat="42.5283575" lon="13.3495257"><ele>1367.0</ele><time>2026-04-26T07:18:52.785Z</time></trkpt><trkpt lat="42.5284619" lon="13.3494733"><ele>1367.0</ele><time>2026-04-26T07:18:53.784Z</time></trkpt><trkpt lat="42.5285678" lon="13.3493985"><ele>1367.0</ele><time>2026-04-26T07:18:54.784Z</time></trkpt><trkpt lat="42.5286708" lon="13.3493367"><ele>1366.1999999999998</ele><time>2026-04-26T07:18:55.786Z</time></trkpt><trkpt lat="42.5287629" lon="13.3492811"><ele>1365.4</ele><time>2026-04-26T07:18:56.786Z</time></trkpt><trkpt lat="42.5288463" lon="13.3492311"><ele>1364.6</ele><time>2026-04-26T07:18:57.785Z</time></trkpt><trkpt lat="42.5289337" lon="13.3491886"><ele>1363.8000000000002</ele><time>2026-04-26T07:18:58.786Z</time></trkpt><trkpt lat="42.5290231" lon="13.3491288"><ele>1363.0</ele><time>2026-04-26T07:18:59.786Z</time></trkpt><trkpt lat="42.5291106" lon="13.3490268"><ele>1363.0</ele><time>2026-04-26T07:19:00.785Z</time></trkpt><trkpt lat="42.5292006" lon="13.3488968"><ele>1363.0</ele><time>2026-04-26T07:19:01.784Z</time></trkpt><trkpt lat="42.529287" lon="13.3487558"><ele>1363.0</ele><time>2026-04-26T07:19:02.785Z</time></trkpt><trkpt lat="42.5293871" lon="13.3485954"><ele>1363.0</ele><time>2026-04-26T07:19:03.785Z</time></trkpt><trkpt lat="42.5294864" lon="13.3484337"><ele>1364.3333333333333</ele><time>2026-04-26T07:19:04.786Z</time></trkpt><trkpt lat="42.5295904" lon="13.3482749"><ele>1365.6666666666667</ele><time>2026-04-26T07:19:05.785Z</time></trkpt><trkpt lat="42.5297077" lon="13.3481278"><ele>1367.0</ele><time>2026-04-26T07:19:06.785Z</time></trkpt><trkpt lat="42.5298415" lon="13.3479967"><ele>1374.6666666666667</ele><time>2026-04-26T07:19:07.785Z</time></trkpt><trkpt lat="42.5299948" lon="13.3478706"><ele>1382.3333333333333</ele><time>2026-04-26T07:19:08.785Z</time></trkpt><trkpt lat="42.5301574" lon="13.3477445"><ele>1390.0</ele><time>2026-04-26T07:19:09.785Z</time></trkpt><trkpt lat="42.5303258" lon="13.3476207"><ele>1386.6666666666665</ele><time>2026-04-26T07:19:10.784Z</time></trkpt><trkpt lat="42.5304921" lon="13.3474984"><ele>1383.3333333333333</ele><time>2026-04-26T07:19:11.785Z</time></trkpt><trkpt lat="42.5306456" lon="13.3473821"><ele>1380.0</ele><time>2026-04-26T07:19:12.784Z</time></trkpt><trkpt lat="42.5307873" lon="13.3472821"><ele>1383.0</ele><time>2026-04-26T07:19:13.784Z</time></trkpt><trkpt lat="42.5309259" lon="13.3471914"><ele>1386.0</ele><time>2026-04-26T07:19:14.785Z</time></trkpt><trkpt lat="42.531058" lon="13.3471104"><ele>1389.0</ele><time>2026-04-26T07:19:15.785Z</time></trkpt><trkpt lat="42.5311849" lon="13.3470233"><ele>1392.0</ele><time>2026-04-26T07:19:16.785Z</time></trkpt><trkpt lat="42.5313138" lon="13.3469467"><ele>1392.5</ele><time>2026-04-26T07:19:17.786Z</time></trkpt><trkpt lat="42.5314501" lon="13.3468984"><ele>1393.0</ele><time>2026-04-26T07:19:18.786Z</time></trkpt><trkpt lat="42.5315874" lon="13.3468816"><ele>1393.5</ele><time>2026-04-26T07:19:19.785Z</time></trkpt><trkpt lat="42.531714" lon="13.3468909"><ele>1394.0</ele><time>2026-04-26T07:19:20.785Z</time></trkpt><trkpt lat="42.5318261" lon="13.346918"><ele>1394.0</ele><time>2026-04-26T07:19:21.785Z</time></trkpt><trkpt lat="42.5319293" lon="13.3469513"><ele>1394.0</ele><time>2026-04-26T07:19:22.785Z</time></trkpt><trkpt lat="42.5320176" lon="13.3469994"><ele>1394.0</ele><time>2026-04-26T07:19:23.786Z</time></trkpt><trkpt lat="42.5320909" lon="13.3470568"><ele>1394.0</ele><time>2026-04-26T07:19:24.784Z</time></trkpt><trkpt lat="42.5321406" lon="13.3471297"><ele>1394.0</ele><time>2026-04-26T07:19:25.785Z</time></trkpt><trkpt lat="42.5321699" lon="13.3472189"><ele>1394.0</ele><time>2026-04-26T07:19:26.784Z</time></trkpt><trkpt lat="42.532163" lon="13.3473309"><ele>1395.5</ele><time>2026-04-26T07:19:27.786Z</time></trkpt><trkpt lat="42.5321198" lon="13.3474591"><ele>1397.0</ele><time>2026-04-26T07:19:28.785Z</time></trkpt><trkpt lat="42.5320592" lon="13.3475933"><ele>1398.5</ele><time>2026-04-26T07:19:29.786Z</time></trkpt><trkpt lat="42.531991" lon="13.3477459"><ele>1400.0</ele><time>2026-04-26T07:19:30.786Z</time></trkpt><trkpt lat="42.5319145" lon="13.3479175"><ele>1396.6666666666667</ele><time>2026-04-26T07:19:31.785Z</time></trkpt><trkpt lat="42.5318361" lon="13.3480922"><ele>1393.3333333333333</ele><time>2026-04-26T07:19:32.786Z</time></trkpt><trkpt lat="42.5317581" lon="13.3482654"><ele>1390.0</ele><time>2026-04-26T07:19:33.784Z</time></trkpt><trkpt lat="42.5316887" lon="13.3484463"><ele>1390.0</ele><time>2026-04-26T07:19:34.786Z</time></trkpt><trkpt lat="42.5316345" lon="13.3486494"><ele>1390.0</ele><time>2026-04-26T07:19:35.785Z</time></trkpt><trkpt lat="42.5316019" lon="13.3488608"><ele>1390.0</ele><time>2026-04-26T07:19:36.785Z</time></trkpt><trkpt lat="42.5315906" lon="13.3490561"><ele>1390.6666666666665</ele><time>2026-04-26T07:19:37.786Z</time></trkpt><trkpt lat="42.5315932" lon="13.3492227"><ele>1391.3333333333333</ele><time>2026-04-26T07:19:38.785Z</time></trkpt><trkpt lat="42.53161" lon="13.3493601"><ele>1392.0</ele><time>2026-04-26T07:19:39.786Z</time></trkpt><trkpt lat="42.5316516" lon="13.349456"><ele>1392.6666666666667</ele><time>2026-04-26T07:19:40.785Z</time></trkpt><trkpt lat="42.5317131" lon="13.3495011"><ele>1393.3333333333335</ele><time>2026-04-26T07:19:41.785Z</time></trkpt><trkpt lat="42.5317827" lon="13.3494953"><ele>1394.0</ele><time>2026-04-26T07:19:42.785Z</time></trkpt><trkpt lat="42.5318398" lon="13.349436"><ele>1394.0</ele><time>2026-04-26T07:19:43.785Z</time></trkpt><trkpt lat="42.5318693" lon="13.3493262"><ele>1394.0</ele><time>2026-04-26T07:19:44.785Z</time></trkpt><trkpt lat="42.5318845" lon="13.3491833"><ele>1394.0</ele><time>2026-04-26T07:19:45.785Z</time></trkpt><trkpt lat="42.5319003" lon="13.3490199"><ele>1394.0</ele><time>2026-04-26T07:19:46.784Z</time></trkpt><trkpt lat="42.5319458" lon="13.3488354"><ele>1393.0</ele><time>2026-04-26T07:19:47.786Z</time></trkpt><trkpt lat="42.5320067" lon="13.3486633"><ele>1392.0</ele><time>2026-04-26T07:19:48.786Z</time></trkpt><trkpt lat="42.5320905" lon="13.3484918"><ele>1391.0</ele><time>2026-04-26T07:19:49.785Z</time></trkpt><trkpt lat="42.5321868" lon="13.3483314"><ele>1390.0</ele><time>2026-04-26T07:19:50.786Z</time></trkpt><trkpt lat="42.5322997" lon="13.3481781"><ele>1393.3333333333333</ele><time>2026-04-26T07:19:51.785Z</time></trkpt><trkpt lat="42.5324302" lon="13.348037"><ele>1396.6666666666667</ele><time>2026-04-26T07:19:52.786Z</time></trkpt><trkpt lat="42.5325694" lon="13.3479121"><ele>1400.0</ele><time>2026-04-26T07:19:53.785Z</time></trkpt><trkpt lat="42.5327145" lon="13.3477978"><ele>1400.0</ele><time>2026-04-26T07:19:54.786Z</time></trkpt><trkpt lat="42.5328408" lon="13.3476954"><ele>1400.0</ele><time>2026-04-26T07:19:55.786Z</time></trkpt><trkpt lat="42.5329563" lon="13.347592"><ele>1400.0</ele><time>2026-04-26T07:19:56.786Z</time></trkpt><trkpt lat="42.5330535" lon="13.3474734"><ele>1400.0</ele><time>2026-04-26T07:19:57.785Z</time></trkpt><trkpt lat="42.5331276" lon="13.3473192"><ele>1406.75</ele><time>2026-04-26T07:19:58.785Z</time></trkpt><trkpt lat="42.5331818" lon="13.3471505"><ele>1413.5</ele><time>2026-04-26T07:19:59.784Z</time></trkpt><trkpt lat="42.533217" lon="13.3469952"><ele>1420.25</ele><time>2026-04-26T07:20:00.785Z</time></trkpt><trkpt lat="42.5332327" lon="13.3468364"><ele>1427.0</ele><time>2026-04-26T07:20:01.786Z</time></trkpt><trkpt lat="42.5332235" lon="13.346675"><ele>1427.0</ele><time>2026-04-26T07:20:02.784Z</time></trkpt><trkpt lat="42.5331861" lon="13.3465339"><ele>1427.0</ele><time>2026-04-26T07:20:03.785Z</time></trkpt><trkpt lat="42.5331142" lon="13.3464106"><ele>1427.0</ele><time>2026-04-26T07:20:04.785Z</time></trkpt><trkpt lat="42.5330166" lon="13.3463298"><ele>1427.0</ele><time>2026-04-26T07:20:05.786Z</time></trkpt><trkpt lat="42.5329105" lon="13.3462711"><ele>1424.3999999999999</ele><time>2026-04-26T07:20:06.785Z</time></trkpt><trkpt lat="42.5328305" lon="13.3461924"><ele>1421.8</ele><time>2026-04-26T07:20:07.785Z</time></trkpt><trkpt lat="42.5327749" lon="13.3460854"><ele>1419.2</ele><time>2026-04-26T07:20:08.786Z</time></trkpt><trkpt lat="42.532746" lon="13.3459598"><ele>1416.6</ele><time>2026-04-26T07:20:09.785Z</time></trkpt><trkpt lat="42.5327589" lon="13.3458193"><ele>1414.0</ele><time>2026-04-26T07:20:10.785Z</time></trkpt><trkpt lat="42.5328054" lon="13.3456736"><ele>1412.25</ele><time>2026-04-26T07:20:11.785Z</time></trkpt><trkpt lat="42.53288" lon="13.3455299"><ele>1410.5</ele><time>2026-04-26T07:20:12.785Z</time></trkpt><trkpt lat="42.5329773" lon="13.3453983"><ele>1408.75</ele><time>2026-04-26T07:20:13.786Z</time></trkpt><trkpt lat="42.5331094" lon="13.3452946"><ele>1407.0</ele><time>2026-04-26T07:20:14.786Z</time></trkpt><trkpt lat="42.5332525" lon="13.3451893"><ele>1412.3333333333333</ele><time>2026-04-26T07:20:15.786Z</time></trkpt><trkpt lat="42.5334155" lon="13.3450714"><ele>1417.6666666666665</ele><time>2026-04-26T07:20:16.786Z</time></trkpt><trkpt lat="42.533588" lon="13.3449482"><ele>1423.0</ele><time>2026-04-26T07:20:17.786Z</time></trkpt><trkpt lat="42.5337595" lon="13.3448228"><ele>1426.0</ele><time>2026-04-26T07:20:18.786Z</time></trkpt><trkpt lat="42.5339299" lon="13.3447011"><ele>1429.0</ele><time>2026-04-26T07:20:19.785Z</time></trkpt><trkpt lat="42.5340952" lon="13.34458"><ele>1432.0</ele><time>2026-04-26T07:20:20.784Z</time></trkpt><trkpt lat="42.5342507" lon="13.3444558"><ele>1432.0</ele><time>2026-04-26T07:20:21.784Z</time></trkpt><trkpt lat="42.5343919" lon="13.3443344"><ele>1432.0</ele><time>2026-04-26T07:20:22.786Z</time></trkpt><trkpt lat="42.53452" lon="13.3442233"><ele>1432.0</ele><time>2026-04-26T07:20:23.786Z</time></trkpt><trkpt lat="42.5346423" lon="13.3441187"><ele>1436.5</ele><time>2026-04-26T07:20:24.786Z</time></trkpt><trkpt lat="42.5347567" lon="13.3440214"><ele>1441.0</ele><time>2026-04-26T07:20:25.785Z</time></trkpt><trkpt lat="42.5348587" lon="13.3439237"><ele>1445.5</ele><time>2026-04-26T07:20:26.784Z</time></trkpt><trkpt lat="42.5349386" lon="13.343822"><ele>1450.0</ele><time>2026-04-26T07:20:27.786Z</time></trkpt><trkpt lat="42.5349938" lon="13.343722"><ele>1450.0</ele><time>2026-04-26T07:20:28.786Z</time></trkpt><trkpt lat="42.5350105" lon="13.3436048"><ele>1450.0</ele><time>2026-04-26T07:20:29.786Z</time></trkpt><trkpt lat="42.5350128" lon="13.3434957"><ele>1450.0</ele><time>2026-04-26T07:20:30.785Z</time></trkpt><trkpt lat="42.5349028" lon="13.3433989"><ele>1450.0</ele><time>2026-04-26T07:20:31.784Z</time></trkpt><trkpt lat="42.5347821" lon="13.3433387"><ele>1450.0</ele><time>2026-04-26T07:20:32.784Z</time></trkpt><trkpt lat="42.5346458" lon="13.3432996"><ele>1448.0</ele><time>2026-04-26T07:20:33.786Z</time></trkpt><trkpt lat="42.5345097" lon="13.3432832"><ele>1446.0</ele><time>2026-04-26T07:20:34.786Z</time></trkpt><trkpt lat="42.5343791" lon="13.343267"><ele>1444.0</ele><time>2026-04-26T07:20:35.786Z</time></trkpt><trkpt lat="42.5342655" lon="13.3432087"><ele>1442.0</ele><time>2026-04-26T07:20:36.786Z</time></trkpt><trkpt lat="42.5341748" lon="13.3431213"><ele>1443.0</ele><time>2026-04-26T07:20:37.785Z</time></trkpt><trkpt lat="42.5341065" lon="13.343004"><ele>1444.0</ele><time>2026-04-26T07:20:38.785Z</time></trkpt><trkpt lat="42.5340684" lon="13.342874"><ele>1445.0</ele><time>2026-04-26T07:20:39.786Z</time></trkpt><trkpt lat="42.5340652" lon="13.3427473"><ele>1446.0</ele><time>2026-04-26T07:20:40.784Z</time></trkpt><trkpt lat="42.5341004" lon="13.3426327"><ele>1447.0</ele><time>2026-04-26T07:20:41.786Z</time></trkpt><trkpt lat="42.534174" lon="13.3425417"><ele>1447.0</ele><time>2026-04-26T07:20:42.785Z</time></trkpt><trkpt lat="42.5342741" lon="13.3424779"><ele>1447.0</ele><time>2026-04-26T07:20:43.785Z</time></trkpt><trkpt lat="42.5343895" lon="13.3424327"><ele>1447.0</ele><time>2026-04-26T07:20:44.786Z</time></trkpt><trkpt lat="42.5345239" lon="13.3423858"><ele>1447.0</ele><time>2026-04-26T07:20:45.785Z</time></trkpt><trkpt lat="42.5346805" lon="13.3423486"><ele>1449.6666666666665</ele><time>2026-04-26T07:20:46.785Z</time></trkpt><trkpt lat="42.5348513" lon="13.342331"><ele>1452.3333333333333</ele><time>2026-04-26T07:20:47.785Z</time></trkpt><trkpt lat="42.5350405" lon="13.3423231"><ele>1455.0</ele><time>2026-04-26T07:20:48.785Z</time></trkpt><trkpt lat="42.5352415" lon="13.3423183"><ele>1457.3333333333333</ele><time>2026-04-26T07:20:49.784Z</time></trkpt><trkpt lat="42.5354445" lon="13.3423321"><ele>1459.6666666666665</ele><time>2026-04-26T07:20:50.785Z</time></trkpt><trkpt lat="42.5356473" lon="13.3423632"><ele>1462.0</ele><time>2026-04-26T07:20:51.786Z</time></trkpt><trkpt lat="42.5358556" lon="13.3423919"><ele>1462.0</ele><time>2026-04-26T07:20:52.785Z</time></trkpt><trkpt lat="42.536071" lon="13.3423941"><ele>1462.0</ele><time>2026-04-26T07:20:53.785Z</time></trkpt><trkpt lat="42.5362735" lon="13.3423829"><ele>1462.0</ele><time>2026-04-26T07:20:54.784Z</time></trkpt><trkpt lat="42.5364592" lon="13.3423527"><ele>1460.0</ele><time>2026-04-26T07:20:55.785Z</time></trkpt><trkpt lat="42.5366347" lon="13.3423007"><ele>1458.0</ele><time>2026-04-26T07:20:56.785Z</time></trkpt><trkpt lat="42.5367919" lon="13.34222"><ele>1456.0</ele><time>2026-04-26T07:20:57.784Z</time></trkpt><trkpt lat="42.5369352" lon="13.3421201"><ele>1462.3333333333333</ele><time>2026-04-26T07:20:58.785Z</time></trkpt><trkpt lat="42.5370787" lon="13.3420347"><ele>1468.6666666666667</ele><time>2026-04-26T07:20:59.785Z</time></trkpt><trkpt lat="42.537229" lon="13.3419944"><ele>1475.0</ele><time>2026-04-26T07:21:00.785Z</time></trkpt><trkpt lat="42.5373753" lon="13.3419903"><ele>1475.0</ele><time>2026-04-26T07:21:01.786Z</time></trkpt><trkpt lat="42.537509" lon="13.3420027"><ele>1475.0</ele><time>2026-04-26T07:21:02.785Z</time></trkpt><trkpt lat="42.5376316" lon="13.3419906"><ele>1475.0</ele><time>2026-04-26T07:21:03.786Z</time></trkpt><trkpt lat="42.5377436" lon="13.3419525"><ele>1475.0</ele><time>2026-04-26T07:21:04.786Z</time></trkpt><trkpt lat="42.537838" lon="13.3418737"><ele>1473.0</ele><time>2026-04-26T07:21:05.786Z</time></trkpt><trkpt lat="42.5378994" lon="13.341762"><ele>1471.0</ele><time>2026-04-26T07:21:06.786Z</time></trkpt><trkpt lat="42.5379194" lon="13.341621"><ele>1469.0</ele><time>2026-04-26T07:21:07.786Z</time></trkpt><trkpt lat="42.5378939" lon="13.3414559"><ele>1467.0</ele><time>2026-04-26T07:21:08.785Z</time></trkpt><trkpt lat="42.5378519" lon="13.3412693"><ele>1467.0</ele><time>2026-04-26T07:21:09.785Z</time></trkpt><trkpt lat="42.537834" lon="13.3410638"><ele>1467.0</ele><time>2026-04-26T07:21:10.785Z</time></trkpt><trkpt lat="42.5378474" lon="13.3408341"><ele>1467.0</ele><time>2026-04-26T07:21:11.784Z</time></trkpt><trkpt lat="42.537872" lon="13.3406122"><ele>1475.75</ele><time>2026-04-26T07:21:12.785Z</time></trkpt><trkpt lat="42.5378996" lon="13.3404129"><ele>1484.5</ele><time>2026-04-26T07:21:13.786Z</time></trkpt><trkpt lat="42.537932" lon="13.3402216"><ele>1493.25</ele><time>2026-04-26T07:21:14.786Z</time></trkpt><trkpt lat="42.5379673" lon="13.3400326"><ele>1502.0</ele><time>2026-04-26T07:21:15.786Z</time></trkpt><trkpt lat="42.5380005" lon="13.3398286"><ele>1501.0</ele><time>2026-04-26T07:21:16.785Z</time></trkpt><trkpt lat="42.5380495" lon="13.3396106"><ele>1500.0</ele><time>2026-04-26T07:21:17.786Z</time></trkpt><trkpt lat="42.5381132" lon="13.3393858"><ele>1499.0</ele><time>2026-04-26T07:21:18.786Z</time></trkpt><trkpt lat="42.5381756" lon="13.3391738"><ele>1499.0</ele><time>2026-04-26T07:21:19.785Z</time></trkpt><trkpt lat="42.5382459" lon="13.3389688"><ele>1499.0</ele><time>2026-04-26T07:21:20.786Z</time></trkpt><trkpt lat="42.5383326" lon="13.3387801"><ele>1499.0</ele><time>2026-04-26T07:21:21.786Z</time></trkpt><trkpt lat="42.5384421" lon="13.3386068"><ele>1502.3333333333335</ele><time>2026-04-26T07:21:22.785Z</time></trkpt><trkpt lat="42.5385807" lon="13.3384553"><ele>1505.6666666666667</ele><time>2026-04-26T07:21:23.786Z</time></trkpt><trkpt lat="42.5387409" lon="13.3383132"><ele>1509.0</ele><time>2026-04-26T07:21:24.785Z</time></trkpt><trkpt lat="42.5388957" lon="13.3381669"><ele>1504.6666666666667</ele><time>2026-04-26T07:21:25.785Z</time></trkpt><trkpt lat="42.5390327" lon="13.3380117"><ele>1500.3333333333335</ele><time>2026-04-26T07:21:26.786Z</time></trkpt><trkpt lat="42.5391572" lon="13.3378572"><ele>1496.0</ele><time>2026-04-26T07:21:27.786Z</time></trkpt><trkpt lat="42.5392744" lon="13.3377151"><ele>1496.0</ele><time>2026-04-26T07:21:28.786Z</time></trkpt><trkpt lat="42.53938" lon="13.3376035"><ele>1496.0</ele><time>2026-04-26T07:21:29.785Z</time></trkpt><trkpt lat="42.5394613" lon="13.3375113"><ele>1496.0</ele><time>2026-04-26T07:21:30.785Z</time></trkpt><trkpt lat="42.5395051" lon="13.3374076"><ele>1496.0</ele><time>2026-04-26T07:21:31.785Z</time></trkpt><trkpt lat="42.5395016" lon="13.3372949"><ele>1496.0</ele><time>2026-04-26T07:21:32.785Z</time></trkpt><trkpt lat="42.5394547" lon="13.3371828"><ele>1497.75</ele><time>2026-04-26T07:21:33.785Z</time></trkpt><trkpt lat="42.539371" lon="13.3370694"><ele>1499.5</ele><time>2026-04-26T07:21:34.784Z</time></trkpt><trkpt lat="42.539266" lon="13.3369405"><ele>1501.25</ele><time>2026-04-26T07:21:35.784Z</time></trkpt><trkpt lat="42.5391534" lon="13.3367978"><ele>1503.0</ele><time>2026-04-26T07:21:36.785Z</time></trkpt><trkpt lat="42.5390403" lon="13.336639"><ele>1503.0</ele><time>2026-04-26T07:21:37.785Z</time></trkpt><trkpt lat="42.5389246" lon="13.3364802"><ele>1503.0</ele><time>2026-04-26T07:21:38.785Z</time></trkpt><trkpt lat="42.5387951" lon="13.3363343"><ele>1503.0</ele><time>2026-04-26T07:21:39.784Z</time></trkpt><trkpt lat="42.5386589" lon="13.3362086"><ele>1503.0</ele><time>2026-04-26T07:21:40.785Z</time></trkpt><trkpt lat="42.5385288" lon="13.33612"><ele>1503.0</ele><time>2026-04-26T07:21:41.786Z</time></trkpt><trkpt lat="42.5384076" lon="13.3360501"><ele>1503.0</ele><time>2026-04-26T07:21:42.785Z</time></trkpt><trkpt lat="42.5383007" lon="13.3359847"><ele>1503.0</ele><time>2026-04-26T07:21:43.786Z</time></trkpt><trkpt lat="42.5382164" lon="13.3359038"><ele>1503.0</ele><time>2026-04-26T07:21:44.785Z</time></trkpt><trkpt lat="42.5381623" lon="13.3358075"><ele>1503.0</ele><time>2026-04-26T07:21:45.784Z</time></trkpt><trkpt lat="42.5381377" lon="13.3356749"><ele>1503.0</ele><time>2026-04-26T07:21:46.786Z</time></trkpt><trkpt lat="42.5381404" lon="13.3355245"><ele>1503.0</ele><time>2026-04-26T07:21:47.786Z</time></trkpt><trkpt lat="42.5381765" lon="13.3353758"><ele>1503.0</ele><time>2026-04-26T07:21:48.786Z</time></trkpt><trkpt lat="42.5382416" lon="13.3352465"><ele>1503.5</ele><time>2026-04-26T07:21:49.784Z</time></trkpt><trkpt lat="42.5383294" lon="13.3351389"><ele>1504.0</ele><time>2026-04-26T07:21:50.784Z</time></trkpt><trkpt lat="42.5384408" lon="13.3350642"><ele>1504.5</ele><time>2026-04-26T07:21:51.786Z</time></trkpt><trkpt lat="42.5385826" lon="13.3350177"><ele>1505.0</ele><time>2026-04-26T07:21:52.784Z</time></trkpt><trkpt lat="42.5387511" lon="13.3349963"><ele>1505.0</ele><time>2026-04-26T07:21:53.784Z</time></trkpt><trkpt lat="42.5389404" lon="13.3349783"><ele>1505.0</ele><time>2026-04-26T07:21:54.784Z</time></trkpt><trkpt lat="42.5391385" lon="13.3349597"><ele>1505.0</ele><time>2026-04-26T07:21:55.784Z</time></trkpt><trkpt lat="42.5393492" lon="13.3349205"><ele>1507.6666666666667</ele><time>2026-04-26T07:21:56.786Z</time></trkpt><trkpt lat="42.5395521" lon="13.3348623"><ele>1510.3333333333333</ele><time>2026-04-26T07:21:57.785Z</time></trkpt><trkpt lat="42.5397389" lon="13.3347955"><ele>1513.0</ele><time>2026-04-26T07:21:58.784Z</time></trkpt><trkpt lat="42.539919" lon="13.3347295"><ele>1512.3333333333333</ele><time>2026-04-26T07:21:59.786Z</time></trkpt><trkpt lat="42.5400887" lon="13.3346386"><ele>1511.6666666666667</ele><time>2026-04-26T07:22:00.784Z</time></trkpt><trkpt lat="42.5402432" lon="13.3345194"><ele>1511.0</ele><time>2026-04-26T07:22:01.786Z</time></trkpt><trkpt lat="42.5403848" lon="13.3343796"><ele>1511.0</ele><time>2026-04-26T07:22:02.786Z</time></trkpt><trkpt lat="42.5405101" lon="13.3342231"><ele>1511.0</ele><time>2026-04-26T07:22:03.785Z</time></trkpt><trkpt lat="42.5406194" lon="13.3340609"><ele>1511.0</ele><time>2026-04-26T07:22:04.785Z</time></trkpt><trkpt lat="42.5407058" lon="13.3338897"><ele>1508.75</ele><time>2026-04-26T07:22:05.785Z</time></trkpt><trkpt lat="42.5407751" lon="13.3337166"><ele>1506.5</ele><time>2026-04-26T07:22:06.786Z</time></trkpt><trkpt lat="42.5408369" lon="13.3335643"><ele>1504.25</ele><time>2026-04-26T07:22:07.786Z</time></trkpt><trkpt lat="42.5409297" lon="13.3334328"><ele>1502.0</ele><time>2026-04-26T07:22:08.786Z</time></trkpt><trkpt lat="42.5410463" lon="13.3333275"><ele>1502.0</ele><time>2026-04-26T07:22:09.784Z</time></trkpt><trkpt lat="42.5411835" lon="13.3332421"><ele>1502.0</ele><time>2026-04-26T07:22:10.785Z</time></trkpt><trkpt lat="42.5413322" lon="13.3331659"><ele>1502.0</ele><time>2026-04-26T07:22:11.785Z</time></trkpt><trkpt lat="42.5414792" lon="13.3331017"><ele>1502.25</ele><time>2026-04-26T07:22:12.785Z</time></trkpt><trkpt lat="42.5416219" lon="13.333039"><ele>1502.5</ele><time>2026-04-26T07:22:13.786Z</time></trkpt><trkpt lat="42.5417525" lon="13.3329774"><ele>1502.75</ele><time>2026-04-26T07:22:14.786Z</time></trkpt><trkpt lat="42.5418783" lon="13.332912"><ele>1503.0</ele><time>2026-04-26T07:22:15.786Z</time></trkpt><trkpt lat="42.5420016" lon="13.3328496"><ele>1505.5</ele><time>2026-04-26T07:22:16.786Z</time></trkpt><trkpt lat="42.5421162" lon="13.3327865"><ele>1508.0</ele><time>2026-04-26T07:22:17.785Z</time></trkpt><trkpt lat="42.5422171" lon="13.332717"><ele>1510.5</ele><time>2026-04-26T07:22:18.783Z</time></trkpt><trkpt lat="42.5423142" lon="13.3326376"><ele>1513.0</ele><time>2026-04-26T07:22:19.784Z</time></trkpt><trkpt lat="42.5423997" lon="13.3325557"><ele>1513.0</ele><time>2026-04-26T07:22:20.784Z</time></trkpt><trkpt lat="42.5424722" lon="13.332473"><ele>1513.0</ele><time>2026-04-26T07:22:21.784Z</time></trkpt><trkpt lat="42.5425342" lon="13.3323917"><ele>1513.0</ele><time>2026-04-26T07:22:22.784Z</time></trkpt><trkpt lat="42.5425839" lon="13.332317"><ele>1513.0</ele><time>2026-04-26T07:22:23.784Z</time></trkpt><trkpt lat="42.542649" lon="13.3322454"><ele>1513.0</ele><time>2026-04-26T07:22:25.783Z</time></trkpt><trkpt lat="42.5427132" lon="13.3322586"><ele>1513.0</ele><time>2026-04-26T07:22:27.783Z</time></trkpt><trkpt lat="42.542755" lon="13.3323421"><ele>1513.0</ele><time>2026-04-26T07:22:30.783Z</time></trkpt><trkpt lat="42.54275" lon="13.332428"><ele>1513.0</ele><time>2026-04-26T07:23:34.785Z</time></trkpt><trkpt lat="42.5427529" lon="13.332538"><ele>1513.0</ele><time>2026-04-26T07:23:40.784Z</time></trkpt><trkpt lat="42.5427532" lon="13.3326703"><ele>1513.0</ele><time>2026-04-26T07:23:42.784Z</time></trkpt><trkpt lat="42.5427479" lon="13.3328055"><ele>1513.0</ele><time>2026-04-26T07:23:44.784Z</time></trkpt><trkpt lat="42.5427521" lon="13.3329451"><ele>1513.0</ele><time>2026-04-26T07:23:46.784Z</time></trkpt><trkpt lat="42.5427686" lon="13.3330802"><ele>1513.5</ele><time>2026-04-26T07:23:48.784Z</time></trkpt><trkpt lat="42.5427756" lon="13.333204"><ele>1514.0</ele><time>2026-04-26T07:23:50.785Z</time></trkpt><trkpt lat="42.542787" lon="13.3333153"><ele>1514.5</ele><time>2026-04-26T07:23:52.783Z</time></trkpt><trkpt lat="42.5427659" lon="13.3333982"><ele>1515.0</ele><time>2026-04-26T07:23:54.783Z</time></trkpt><trkpt lat="42.5427132" lon="13.3334937"><ele>1515.5</ele><time>2026-04-26T07:23:56.785Z</time></trkpt><trkpt lat="42.5426588" lon="13.3336064"><ele>1516.0</ele><time>2026-04-26T07:23:58.785Z</time></trkpt><trkpt lat="42.5426094" lon="13.3337206"><ele>1516.0</ele><time>2026-04-26T07:24:00.784Z</time></trkpt><trkpt lat="42.5425697" lon="13.3338514"><ele>1516.0</ele><time>2026-04-26T07:24:02.785Z</time></trkpt><trkpt lat="42.5425468" lon="13.3339886"><ele>1516.0</ele><time>2026-04-26T07:24:04.784Z</time></trkpt><trkpt lat="42.542533" lon="13.334135"><ele>1516.0</ele><time>2026-04-26T07:24:06.784Z</time></trkpt><trkpt lat="42.5425054" lon="13.3342662"><ele>1516.0</ele><time>2026-04-26T07:24:08.784Z</time></trkpt><trkpt lat="42.5424999" lon="13.3343663"><ele>1517.6666666666665</ele><time>2026-04-26T07:24:10.785Z</time></trkpt><trkpt lat="42.5425042" lon="13.334456"><ele>1519.3333333333333</ele><time>2026-04-26T07:24:13.783Z</time></trkpt><trkpt lat="42.5425727" lon="13.3344336"><ele>1521.0</ele><time>2026-04-26T07:24:53.784Z</time></trkpt><trkpt lat="42.542551" lon="13.3343444"><ele>1522.6666666666667</ele><time>2026-04-26T07:24:55.784Z</time></trkpt><trkpt lat="42.5425239" lon="13.3342257"><ele>1524.3333333333335</ele><time>2026-04-26T07:24:57.785Z</time></trkpt><trkpt lat="42.5425423" lon="13.3340756"><ele>1526.0</ele><time>2026-04-26T07:24:59.784Z</time></trkpt><trkpt lat="42.5425618" lon="13.3339112"><ele>1524.3333333333335</ele><time>2026-04-26T07:25:01.784Z</time></trkpt><trkpt lat="42.5425797" lon="13.3338271"><ele>1522.6666666666667</ele><time>2026-04-26T07:25:02.784Z</time></trkpt><trkpt lat="42.5426036" lon="13.3337479"><ele>1521.0</ele><time>2026-04-26T07:25:03.783Z</time></trkpt><trkpt lat="42.5426399" lon="13.3336613"><ele>1519.3333333333333</ele><time>2026-04-26T07:25:04.783Z</time></trkpt><trkpt lat="42.5426775" lon="13.3335846"><ele>1517.6666666666665</ele><time>2026-04-26T07:25:05.785Z</time></trkpt><trkpt lat="42.5427389" lon="13.3334572"><ele>1516.0</ele><time>2026-04-26T07:25:07.785Z</time></trkpt><trkpt lat="42.5427637" lon="13.3333198"><ele>1516.0</ele><time>2026-04-26T07:25:09.785Z</time></trkpt><trkpt lat="42.5427586" lon="13.3331475"><ele>1516.0</ele><time>2026-04-26T07:25:11.783Z</time></trkpt><trkpt lat="42.5427502" lon="13.3330449"><ele>1516.0</ele><time>2026-04-26T07:25:12.784Z</time></trkpt><trkpt lat="42.5427471" lon="13.3329556"><ele>1516.0</ele><time>2026-04-26T07:25:13.784Z</time></trkpt><trkpt lat="42.5427386" lon="13.3328518"><ele>1516.0</ele><time>2026-04-26T07:25:14.785Z</time></trkpt><trkpt lat="42.5427412" lon="13.3327398"><ele>1516.0</ele><time>2026-04-26T07:25:15.784Z</time></trkpt><trkpt lat="42.5427457" lon="13.3326197"><ele>1515.5</ele><time>2026-04-26T07:25:16.784Z</time></trkpt><trkpt lat="42.5427492" lon="13.3325225"><ele>1515.0</ele><time>2026-04-26T07:25:17.785Z</time></trkpt><trkpt lat="42.5427503" lon="13.3324337"><ele>1514.5</ele><time>2026-04-26T07:25:18.785Z</time></trkpt><trkpt lat="42.5427522" lon="13.3323463"><ele>1514.0</ele><time>2026-04-26T07:25:19.783Z</time></trkpt><trkpt lat="42.5427443" lon="13.3322178"><ele>1513.5</ele><time>2026-04-26T07:25:21.784Z</time></trkpt><trkpt lat="42.5426735" lon="13.3321633"><ele>1513.0</ele><time>2026-04-26T07:25:24.785Z</time></trkpt><trkpt lat="42.54258" lon="13.3322749"><ele>1513.0</ele><time>2026-04-26T07:25:26.785Z</time></trkpt><trkpt lat="42.5425193" lon="13.332364"><ele>1513.0</ele><time>2026-04-26T07:25:27.784Z</time></trkpt><trkpt lat="42.5424322" lon="13.33248"><ele>1513.0</ele><time>2026-04-26T07:25:28.785Z</time></trkpt><trkpt lat="42.5423166" lon="13.3325972"><ele>1513.0</ele><time>2026-04-26T07:25:29.785Z</time></trkpt><trkpt lat="42.5421757" lon="13.3327009"><ele>1509.6666666666665</ele><time>2026-04-26T07:25:30.785Z</time></trkpt><trkpt lat="42.5420123" lon="13.3327977"><ele>1506.3333333333333</ele><time>2026-04-26T07:25:31.785Z</time></trkpt><trkpt lat="42.5418446" lon="13.3328842"><ele>1503.0</ele><time>2026-04-26T07:25:32.784Z</time></trkpt><trkpt lat="42.5416757" lon="13.3329639"><ele>1503.0</ele><time>2026-04-26T07:25:33.784Z</time></trkpt><trkpt lat="42.5415124" lon="13.3330402"><ele>1503.0</ele><time>2026-04-26T07:25:34.785Z</time></trkpt><trkpt lat="42.5413542" lon="13.3331147"><ele>1503.0</ele><time>2026-04-26T07:25:35.784Z</time></trkpt><trkpt lat="42.5412138" lon="13.3331779"><ele>1502.8333333333333</ele><time>2026-04-26T07:25:36.784Z</time></trkpt><trkpt lat="42.5411005" lon="13.3332393"><ele>1502.6666666666667</ele><time>2026-04-26T07:25:37.784Z</time></trkpt><trkpt lat="42.5410182" lon="13.333286"><ele>1502.5</ele><time>2026-04-26T07:25:38.784Z</time></trkpt><trkpt lat="42.5409613" lon="13.3333276"><ele>1502.3333333333335</ele><time>2026-04-26T07:25:39.785Z</time></trkpt><trkpt lat="42.540906" lon="13.3333913"><ele>1502.1666666666667</ele><time>2026-04-26T07:25:40.784Z</time></trkpt><trkpt lat="42.5408449" lon="13.3334968"><ele>1502.0</ele><time>2026-04-26T07:25:41.784Z</time></trkpt><trkpt lat="42.5407883" lon="13.3336281"><ele>1502.0</ele><time>2026-04-26T07:25:42.784Z</time></trkpt><trkpt lat="42.5407305" lon="13.3337867"><ele>1502.0</ele><time>2026-04-26T07:25:43.785Z</time></trkpt><trkpt lat="42.5406486" lon="13.3339584"><ele>1502.0</ele><time>2026-04-26T07:25:44.784Z</time></trkpt><trkpt lat="42.5405448" lon="13.3341264"><ele>1502.0</ele><time>2026-04-26T07:25:45.784Z</time></trkpt><trkpt lat="42.5404257" lon="13.3342844"><ele>1499.0</ele><time>2026-04-26T07:25:46.784Z</time></trkpt><trkpt lat="42.5402926" lon="13.3344311"><ele>1496.0</ele><time>2026-04-26T07:25:47.783Z</time></trkpt><trkpt lat="42.5401436" lon="13.3345571"><ele>1493.0</ele><time>2026-04-26T07:25:48.783Z</time></trkpt><trkpt lat="42.5399823" lon="13.334658"><ele>1497.0</ele><time>2026-04-26T07:25:49.785Z</time></trkpt><trkpt lat="42.539809" lon="13.3347393"><ele>1501.0</ele><time>2026-04-26T07:25:50.784Z</time></trkpt><trkpt lat="42.5396197" lon="13.334807"><ele>1505.0</ele><time>2026-04-26T07:25:51.784Z</time></trkpt><trkpt lat="42.5394354" lon="13.3348647"><ele>1505.0</ele><time>2026-04-26T07:25:52.784Z</time></trkpt><trkpt lat="42.5392577" lon="13.3349132"><ele>1505.0</ele><time>2026-04-26T07:25:53.784Z</time></trkpt><trkpt lat="42.5390826" lon="13.3349428"><ele>1505.0</ele><time>2026-04-26T07:25:54.785Z</time></trkpt><trkpt lat="42.5389137" lon="13.3349538"><ele>1505.0</ele><time>2026-04-26T07:25:55.784Z</time></trkpt><trkpt lat="42.5387588" lon="13.334968"><ele>1505.0</ele><time>2026-04-26T07:25:56.783Z</time></trkpt><trkpt lat="42.5386259" lon="13.3349836"><ele>1505.0</ele><time>2026-04-26T07:25:57.784Z</time></trkpt><trkpt lat="42.5385202" lon="13.3349998"><ele>1505.0</ele><time>2026-04-26T07:25:58.784Z</time></trkpt><trkpt lat="42.5384285" lon="13.3350243"><ele>1504.0</ele><time>2026-04-26T07:25:59.784Z</time></trkpt><trkpt lat="42.5383524" lon="13.3350599"><ele>1503.0</ele><time>2026-04-26T07:26:00.783Z</time></trkpt><trkpt lat="42.5382957" lon="13.3351048"><ele>1502.0</ele><time>2026-04-26T07:26:01.784Z</time></trkpt><trkpt lat="42.5382234" lon="13.3351763"><ele>1501.0</ele><time>2026-04-26T07:26:03.784Z</time></trkpt><trkpt lat="42.5381771" lon="13.3352491"><ele>1500.0</ele><time>2026-04-26T07:26:06.783Z</time></trkpt><trkpt lat="42.5381356" lon="13.3353315"><ele>1499.0</ele><time>2026-04-26T07:26:08.784Z</time></trkpt><trkpt lat="42.5381088" lon="13.3354132"><ele>1498.0</ele><time>2026-04-26T07:26:09.784Z</time></trkpt><trkpt lat="42.5380907" lon="13.3355038"><ele>1498.8333333333333</ele><time>2026-04-26T07:26:10.783Z</time></trkpt><trkpt lat="42.5380841" lon="13.3355945"><ele>1499.6666666666665</ele><time>2026-04-26T07:26:11.784Z</time></trkpt><trkpt lat="42.5380935" lon="13.335738"><ele>1500.5</ele><time>2026-04-26T07:26:13.784Z</time></trkpt><trkpt lat="42.5381492" lon="13.3358792"><ele>1501.3333333333333</ele><time>2026-04-26T07:26:15.785Z</time></trkpt><trkpt lat="42.5381972" lon="13.3359386"><ele>1502.1666666666667</ele><time>2026-04-26T07:26:16.783Z</time></trkpt><trkpt lat="42.5382558" lon="13.3359854"><ele>1503.0</ele><time>2026-04-26T07:26:17.784Z</time></trkpt><trkpt lat="42.5383164" lon="13.3360259"><ele>1503.0</ele><time>2026-04-26T07:26:18.785Z</time></trkpt><trkpt lat="42.5383871" lon="13.3360708"><ele>1503.0</ele><time>2026-04-26T07:26:19.785Z</time></trkpt><trkpt lat="42.5385696" lon="13.3361627"><ele>1503.0</ele><time>2026-04-26T07:26:21.784Z</time></trkpt><trkpt lat="42.5386545" lon="13.3362182"><ele>1503.0</ele><time>2026-04-26T07:26:22.785Z</time></trkpt><trkpt lat="42.5387268" lon="13.3362867"><ele>1503.0</ele><time>2026-04-26T07:26:23.784Z</time></trkpt><trkpt lat="42.5387839" lon="13.3363582"><ele>1503.0</ele><time>2026-04-26T07:26:24.785Z</time></trkpt><trkpt lat="42.5388607" lon="13.3364491"><ele>1503.0</ele><time>2026-04-26T07:26:26.783Z</time></trkpt><trkpt lat="42.5389255" lon="13.336464"><ele>1503.0</ele><time>2026-04-26T07:26:31.784Z</time></trkpt><trkpt lat="42.538847" lon="13.3363794"><ele>1503.0</ele><time>2026-04-26T07:26:34.783Z</time></trkpt><trkpt lat="42.5387754" lon="13.3363177"><ele>1503.0</ele><time>2026-04-26T07:26:35.783Z</time></trkpt><trkpt lat="42.5386981" lon="13.3362411"><ele>1503.0</ele><time>2026-04-26T07:26:36.784Z</time></trkpt><trkpt lat="42.5386167" lon="13.3361716"><ele>1503.0</ele><time>2026-04-26T07:26:37.782Z</time></trkpt><trkpt lat="42.5385309" lon="13.3361178"><ele>1503.0</ele><time>2026-04-26T07:26:38.783Z</time></trkpt><trkpt lat="42.5384479" lon="13.336074"><ele>1503.0</ele><time>2026-04-26T07:26:39.783Z</time></trkpt><trkpt lat="42.5383708" lon="13.3360315"><ele>1503.0</ele><time>2026-04-26T07:26:40.783Z</time></trkpt><trkpt lat="42.538301" lon="13.3359828"><ele>1503.0</ele><time>2026-04-26T07:26:41.783Z</time></trkpt><trkpt lat="42.5382346" lon="13.3359262"><ele>1503.0</ele><time>2026-04-26T07:26:42.783Z</time></trkpt><trkpt lat="42.5381832" lon="13.3358641"><ele>1503.0</ele><time>2026-04-26T07:26:43.783Z</time></trkpt><trkpt lat="42.5381119" lon="13.3357609"><ele>1503.0</ele><time>2026-04-26T07:26:45.782Z</time></trkpt><trkpt lat="42.538086" lon="13.3356688"><ele>1503.0</ele><time>2026-04-26T07:26:47.783Z</time></trkpt><trkpt lat="42.5380826" lon="13.3355789"><ele>1503.0</ele><time>2026-04-26T07:26:49.783Z</time></trkpt><trkpt lat="42.5380902" lon="13.3354856"><ele>1503.0</ele><time>2026-04-26T07:26:51.783Z</time></trkpt><trkpt lat="42.5381127" lon="13.3353852"><ele>1502.1666666666667</ele><time>2026-04-26T07:26:53.782Z</time></trkpt><trkpt lat="42.538149" lon="13.3352982"><ele>1501.3333333333333</ele><time>2026-04-26T07:26:55.782Z</time></trkpt><trkpt lat="42.5381896" lon="13.335221"><ele>1500.5</ele><time>2026-04-26T07:26:58.782Z</time></trkpt><trkpt lat="42.5382472" lon="13.335144"><ele>1499.6666666666665</ele><time>2026-04-26T07:27:01.784Z</time></trkpt><trkpt lat="42.5383096" lon="13.335084"><ele>1498.8333333333333</ele><time>2026-04-26T07:27:14.784Z</time></trkpt><trkpt lat="42.5383828" lon="13.3350494"><ele>1498.0</ele><time>2026-04-26T07:27:15.784Z</time></trkpt><trkpt lat="42.5384719" lon="13.335035"><ele>1498.0</ele><time>2026-04-26T07:27:16.784Z</time></trkpt><trkpt lat="42.5385597" lon="13.3350363"><ele>1498.0</ele><time>2026-04-26T07:27:17.784Z</time></trkpt><trkpt lat="42.538624" lon="13.3350298"><ele>1498.0</ele><time>2026-04-26T07:27:18.783Z</time></trkpt><trkpt lat="42.5386985" lon="13.335024"><ele>1498.0</ele><time>2026-04-26T07:27:20.782Z</time></trkpt><trkpt lat="42.5387805" lon="13.3350051"><ele>1498.0</ele><time>2026-04-26T07:47:06.779Z</time></trkpt><trkpt lat="42.5388532" lon="13.3349866"><ele>1498.0</ele><time>2026-04-26T07:47:10.778Z</time></trkpt><trkpt lat="42.538917" lon="13.334984"><ele>1498.0</ele><time>2026-04-26T07:47:12.779Z</time></trkpt><trkpt lat="42.5390101" lon="13.3349837"><ele>1499.4</ele><time>2026-04-26T07:47:14.779Z</time></trkpt><trkpt lat="42.5390971" lon="13.334971"><ele>1500.8000000000002</ele><time>2026-04-26T07:47:16.779Z</time></trkpt><trkpt lat="42.5391781" lon="13.334957"><ele>1502.2</ele><time>2026-04-26T07:47:18.778Z</time></trkpt><trkpt lat="42.5393024" lon="13.3349276"><ele>1503.6</ele><time>2026-04-26T07:47:20.779Z</time></trkpt><trkpt lat="42.5393824" lon="13.3349081"><ele>1505.0</ele><time>2026-04-26T07:47:21.778Z</time></trkpt><trkpt lat="42.5394562" lon="13.3348872"><ele>1505.0</ele><time>2026-04-26T07:47:22.78Z</time></trkpt><trkpt lat="42.5395224" lon="13.3348668"><ele>1505.0</ele><time>2026-04-26T07:47:23.78Z</time></trkpt><trkpt lat="42.5395871" lon="13.3348438"><ele>1505.0</ele><time>2026-04-26T07:47:24.778Z</time></trkpt><trkpt lat="42.5396574" lon="13.3348209"><ele>1505.0</ele><time>2026-04-26T07:47:25.78Z</time></trkpt><trkpt lat="42.5397264" lon="13.334799"><ele>1505.0</ele><time>2026-04-26T07:47:26.78Z</time></trkpt><trkpt lat="42.5398025" lon="13.3347742"><ele>1505.0</ele><time>2026-04-26T07:47:27.779Z</time></trkpt><trkpt lat="42.5398751" lon="13.3347467"><ele>1505.0</ele><time>2026-04-26T07:47:28.779Z</time></trkpt><trkpt lat="42.5399573" lon="13.334713"><ele>1506.2</ele><time>2026-04-26T07:47:29.779Z</time></trkpt><trkpt lat="42.5400462" lon="13.3346685"><ele>1507.4</ele><time>2026-04-26T07:47:30.779Z</time></trkpt><trkpt lat="42.5401426" lon="13.3346069"><ele>1508.6</ele><time>2026-04-26T07:47:31.779Z</time></trkpt><trkpt lat="42.5402433" lon="13.3345254"><ele>1509.8</ele><time>2026-04-26T07:47:32.779Z</time></trkpt><trkpt lat="42.5403404" lon="13.3344322"><ele>1511.0</ele><time>2026-04-26T07:47:33.779Z</time></trkpt><trkpt lat="42.5404376" lon="13.3343232"><ele>1511.0</ele><time>2026-04-26T07:47:34.779Z</time></trkpt><trkpt lat="42.5405315" lon="13.3342036"><ele>1511.0</ele><time>2026-04-26T07:47:35.779Z</time></trkpt><trkpt lat="42.5406203" lon="13.3340728"><ele>1511.0</ele><time>2026-04-26T07:47:36.779Z</time></trkpt><trkpt lat="42.5406986" lon="13.3339217"><ele>1511.0</ele><time>2026-04-26T07:47:37.78Z</time></trkpt><trkpt lat="42.5407563" lon="13.333768"><ele>1508.75</ele><time>2026-04-26T07:47:38.78Z</time></trkpt><trkpt lat="42.5408146" lon="13.3336184"><ele>1506.5</ele><time>2026-04-26T07:47:39.779Z</time></trkpt><trkpt lat="42.5408943" lon="13.3334835"><ele>1504.25</ele><time>2026-04-26T07:47:40.779Z</time></trkpt><trkpt lat="42.5409977" lon="13.3333683"><ele>1502.0</ele><time>2026-04-26T07:47:41.779Z</time></trkpt><trkpt lat="42.5411199" lon="13.3332743"><ele>1507.3333333333335</ele><time>2026-04-26T07:47:42.778Z</time></trkpt><trkpt lat="42.5412639" lon="13.3331985"><ele>1512.6666666666667</ele><time>2026-04-26T07:47:43.779Z</time></trkpt><trkpt lat="42.5414065" lon="13.3331382"><ele>1518.0</ele><time>2026-04-26T07:47:44.778Z</time></trkpt><trkpt lat="42.5415489" lon="13.3330745"><ele>1513.0</ele><time>2026-04-26T07:47:45.779Z</time></trkpt><trkpt lat="42.5416929" lon="13.3330059"><ele>1508.0</ele><time>2026-04-26T07:47:46.779Z</time></trkpt><trkpt lat="42.5418343" lon="13.3329368"><ele>1503.0</ele><time>2026-04-26T07:47:47.779Z</time></trkpt><trkpt lat="42.5419783" lon="13.3328673"><ele>1506.3333333333333</ele><time>2026-04-26T07:47:48.777Z</time></trkpt><trkpt lat="42.5421212" lon="13.3327875"><ele>1509.6666666666665</ele><time>2026-04-26T07:47:49.778Z</time></trkpt><trkpt lat="42.5422529" lon="13.3326907"><ele>1513.0</ele><time>2026-04-26T07:47:50.779Z</time></trkpt><trkpt lat="42.5423756" lon="13.3325782"><ele>1513.0</ele><time>2026-04-26T07:47:51.778Z</time></trkpt><trkpt lat="42.5424859" lon="13.3324555"><ele>1513.0</ele><time>2026-04-26T07:47:52.778Z</time></trkpt><trkpt lat="42.5425898" lon="13.3323227"><ele>1513.0</ele><time>2026-04-26T07:47:53.779Z</time></trkpt><trkpt lat="42.5426846" lon="13.3321777"><ele>1513.0</ele><time>2026-04-26T07:47:54.778Z</time></trkpt><trkpt lat="42.5427764" lon="13.332016"><ele>1513.3333333333333</ele><time>2026-04-26T07:47:55.778Z</time></trkpt><trkpt lat="42.5428711" lon="13.3318435"><ele>1513.6666666666667</ele><time>2026-04-26T07:47:56.779Z</time></trkpt><trkpt lat="42.5429697" lon="13.3316716"><ele>1514.0</ele><time>2026-04-26T07:47:57.778Z</time></trkpt><trkpt lat="42.5430716" lon="13.3315033"><ele>1513.0</ele><time>2026-04-26T07:47:58.779Z</time></trkpt><trkpt lat="42.5431756" lon="13.3313413"><ele>1512.0</ele><time>2026-04-26T07:47:59.779Z</time></trkpt><trkpt lat="42.5432739" lon="13.3311707"><ele>1511.0</ele><time>2026-04-26T07:48:00.778Z</time></trkpt><trkpt lat="42.5433689" lon="13.3310015"><ele>1511.0</ele><time>2026-04-26T07:48:01.779Z</time></trkpt><trkpt lat="42.5434661" lon="13.3308377"><ele>1511.0</ele><time>2026-04-26T07:48:02.779Z</time></trkpt><trkpt lat="42.5435617" lon="13.330669"><ele>1511.0</ele><time>2026-04-26T07:48:03.778Z</time></trkpt><trkpt lat="42.5436618" lon="13.3304895"><ele>1508.0</ele><time>2026-04-26T07:48:04.778Z</time></trkpt><trkpt lat="42.5437562" lon="13.3303173"><ele>1505.0</ele><time>2026-04-26T07:48:05.777Z</time></trkpt><trkpt lat="42.5438436" lon="13.3301599"><ele>1502.0</ele><time>2026-04-26T07:48:06.777Z</time></trkpt><trkpt lat="42.5439239" lon="13.3299825"><ele>1502.0</ele><time>2026-04-26T07:48:07.778Z</time></trkpt><trkpt lat="42.5439859" lon="13.3297768"><ele>1502.0</ele><time>2026-04-26T07:48:08.778Z</time></trkpt><trkpt lat="42.5440287" lon="13.3295777"><ele>1502.0</ele><time>2026-04-26T07:48:09.778Z</time></trkpt><trkpt lat="42.5440625" lon="13.3293912"><ele>1504.5</ele><time>2026-04-26T07:48:10.777Z</time></trkpt><trkpt lat="42.5440937" lon="13.3292178"><ele>1507.0</ele><time>2026-04-26T07:48:11.778Z</time></trkpt><trkpt lat="42.5441488" lon="13.329057"><ele>1509.5</ele><time>2026-04-26T07:48:12.779Z</time></trkpt><trkpt lat="42.5442251" lon="13.3289127"><ele>1512.0</ele><time>2026-04-26T07:48:13.778Z</time></trkpt><trkpt lat="42.5443245" lon="13.3287859"><ele>1511.25</ele><time>2026-04-26T07:48:14.778Z</time></trkpt><trkpt lat="42.5444493" lon="13.32869"><ele>1510.5</ele><time>2026-04-26T07:48:15.777Z</time></trkpt><trkpt lat="42.5445939" lon="13.3286341"><ele>1509.75</ele><time>2026-04-26T07:48:16.778Z</time></trkpt><trkpt lat="42.5447414" lon="13.3286019"><ele>1509.0</ele><time>2026-04-26T07:48:17.779Z</time></trkpt><trkpt lat="42.5448751" lon="13.3285664"><ele>1509.0</ele><time>2026-04-26T07:48:18.779Z</time></trkpt><trkpt lat="42.5449869" lon="13.3285291"><ele>1509.0</ele><time>2026-04-26T07:48:19.777Z</time></trkpt><trkpt lat="42.5450791" lon="13.3284745"><ele>1509.0</ele><time>2026-04-26T07:48:20.779Z</time></trkpt><trkpt lat="42.5451406" lon="13.3283882"><ele>1509.0</ele><time>2026-04-26T07:48:21.778Z</time></trkpt><trkpt lat="42.5451726" lon="13.3282772"><ele>1509.0</ele><time>2026-04-26T07:48:22.779Z</time></trkpt><trkpt lat="42.5451886" lon="13.3281413"><ele>1509.75</ele><time>2026-04-26T07:48:23.778Z</time></trkpt><trkpt lat="42.5451926" lon="13.3279837"><ele>1510.5</ele><time>2026-04-26T07:48:24.778Z</time></trkpt><trkpt lat="42.545195" lon="13.3278153"><ele>1511.25</ele><time>2026-04-26T07:48:25.778Z</time></trkpt><trkpt lat="42.545213" lon="13.3276558"><ele>1512.0</ele><time>2026-04-26T07:48:26.778Z</time></trkpt><trkpt lat="42.5452591" lon="13.3275153"><ele>1512.0</ele><time>2026-04-26T07:48:27.778Z</time></trkpt><trkpt lat="42.5453192" lon="13.3273985"><ele>1512.0</ele><time>2026-04-26T07:48:28.778Z</time></trkpt><trkpt lat="42.5454075" lon="13.3273041"><ele>1512.0</ele><time>2026-04-26T07:48:29.778Z</time></trkpt><trkpt lat="42.5455146" lon="13.3272441"><ele>1512.0</ele><time>2026-04-26T07:48:30.779Z</time></trkpt><trkpt lat="42.5456425" lon="13.3272275"><ele>1506.0</ele><time>2026-04-26T07:48:31.778Z</time></trkpt><trkpt lat="42.5457896" lon="13.327239"><ele>1500.0</ele><time>2026-04-26T07:48:32.777Z</time></trkpt><trkpt lat="42.5459423" lon="13.3272637"><ele>1494.0</ele><time>2026-04-26T07:48:33.779Z</time></trkpt><trkpt lat="42.546093" lon="13.3273064"><ele>1493.75</ele><time>2026-04-26T07:48:34.778Z</time></trkpt><trkpt lat="42.5462363" lon="13.3273698"><ele>1493.5</ele><time>2026-04-26T07:48:35.779Z</time></trkpt><trkpt lat="42.5463712" lon="13.327442"><ele>1493.25</ele><time>2026-04-26T07:48:36.777Z</time></trkpt><trkpt lat="42.5464951" lon="13.3275037"><ele>1493.0</ele><time>2026-04-26T07:48:37.777Z</time></trkpt><trkpt lat="42.5466141" lon="13.3275292"><ele>1493.0</ele><time>2026-04-26T07:48:38.778Z</time></trkpt><trkpt lat="42.5467261" lon="13.3274804"><ele>1493.0</ele><time>2026-04-26T07:48:39.778Z</time></trkpt><trkpt lat="42.5468314" lon="13.3274012"><ele>1493.0</ele><time>2026-04-26T07:48:40.779Z</time></trkpt><trkpt lat="42.5469457" lon="13.3273561"><ele>1493.0</ele><time>2026-04-26T07:48:41.779Z</time></trkpt><trkpt lat="42.5470677" lon="13.3273572"><ele>1491.5</ele><time>2026-04-26T07:48:42.778Z</time></trkpt><trkpt lat="42.5472016" lon="13.3274088"><ele>1490.0</ele><time>2026-04-26T07:48:43.777Z</time></trkpt><trkpt lat="42.5473351" lon="13.3275051"><ele>1488.5</ele><time>2026-04-26T07:48:44.778Z</time></trkpt><trkpt lat="42.5474582" lon="13.3276096"><ele>1487.0</ele><time>2026-04-26T07:48:45.778Z</time></trkpt><trkpt lat="42.5475788" lon="13.3277016"><ele>1487.0</ele><time>2026-04-26T07:48:46.779Z</time></trkpt><trkpt lat="42.5477019" lon="13.3277852"><ele>1487.0</ele><time>2026-04-26T07:48:47.779Z</time></trkpt><trkpt lat="42.5478193" lon="13.3278378"><ele>1487.0</ele><time>2026-04-26T07:48:48.778Z</time></trkpt><trkpt lat="42.5479293" lon="13.3278578"><ele>1487.0</ele><time>2026-04-26T07:48:49.778Z</time></trkpt><trkpt lat="42.5480198" lon="13.3278347"><ele>1484.0</ele><time>2026-04-26T07:48:50.778Z</time></trkpt><trkpt lat="42.5480935" lon="13.327773"><ele>1481.0</ele><time>2026-04-26T07:48:51.777Z</time></trkpt><trkpt lat="42.5481424" lon="13.3276585"><ele>1478.0</ele><time>2026-04-26T07:48:52.778Z</time></trkpt><trkpt lat="42.5481654" lon="13.3275027"><ele>1475.0</ele><time>2026-04-26T07:48:53.779Z</time></trkpt><trkpt lat="42.5481515" lon="13.327336"><ele>1472.0</ele><time>2026-04-26T07:48:54.779Z</time></trkpt><trkpt lat="42.5480969" lon="13.3271651"><ele>1468.25</ele><time>2026-04-26T07:48:55.778Z</time></trkpt><trkpt lat="42.5480131" lon="13.3269912"><ele>1464.5</ele><time>2026-04-26T07:48:56.777Z</time></trkpt><trkpt lat="42.5479271" lon="13.3268214"><ele>1460.75</ele><time>2026-04-26T07:48:57.779Z</time></trkpt><trkpt lat="42.5478534" lon="13.326655"><ele>1457.0</ele><time>2026-04-26T07:48:58.781Z</time></trkpt><trkpt lat="42.5477875" lon="13.3264844"><ele>1465.5</ele><time>2026-04-26T07:48:59.777Z</time></trkpt><trkpt lat="42.5477306" lon="13.3262985"><ele>1474.0</ele><time>2026-04-26T07:49:00.778Z</time></trkpt><trkpt lat="42.5476876" lon="13.3261242"><ele>1482.5</ele><time>2026-04-26T07:49:01.778Z</time></trkpt><trkpt lat="42.5476624" lon="13.3259595"><ele>1491.0</ele><time>2026-04-26T07:49:02.779Z</time></trkpt><trkpt lat="42.547659" lon="13.3258035"><ele>1491.0</ele><time>2026-04-26T07:49:03.777Z</time></trkpt><trkpt lat="42.5476905" lon="13.3256695"><ele>1491.0</ele><time>2026-04-26T07:49:04.778Z</time></trkpt><trkpt lat="42.5477539" lon="13.3255592"><ele>1491.0</ele><time>2026-04-26T07:49:05.777Z</time></trkpt><trkpt lat="42.5478418" lon="13.3254764"><ele>1491.0</ele><time>2026-04-26T07:49:06.779Z</time></trkpt><trkpt lat="42.5479221" lon="13.3253828"><ele>1491.0</ele><time>2026-04-26T07:49:07.778Z</time></trkpt><trkpt lat="42.5479758" lon="13.3252494"><ele>1481.0</ele><time>2026-04-26T07:49:08.777Z</time></trkpt><trkpt lat="42.5479983" lon="13.325068"><ele>1471.0</ele><time>2026-04-26T07:49:09.777Z</time></trkpt><trkpt lat="42.5480011" lon="13.3248558"><ele>1461.0</ele><time>2026-04-26T07:49:10.777Z</time></trkpt><trkpt lat="42.5479978" lon="13.3246357"><ele>1459.6666666666667</ele><time>2026-04-26T07:49:11.778Z</time></trkpt><trkpt lat="42.5479877" lon="13.3244014"><ele>1458.3333333333335</ele><time>2026-04-26T07:49:12.777Z</time></trkpt><trkpt lat="42.5479702" lon="13.3241663"><ele>1457.0</ele><time>2026-04-26T07:49:13.777Z</time></trkpt><trkpt lat="42.547937" lon="13.32394"><ele>1456.0</ele><time>2026-04-26T07:49:14.777Z</time></trkpt><trkpt lat="42.5478935" lon="13.3237206"><ele>1455.0</ele><time>2026-04-26T07:49:15.777Z</time></trkpt><trkpt lat="42.5478463" lon="13.323513"><ele>1454.0</ele><time>2026-04-26T07:49:16.777Z</time></trkpt><trkpt lat="42.5478001" lon="13.323318"><ele>1462.25</ele><time>2026-04-26T07:49:17.777Z</time></trkpt><trkpt lat="42.5477692" lon="13.3231288"><ele>1470.5</ele><time>2026-04-26T07:49:18.777Z</time></trkpt><trkpt lat="42.5477608" lon="13.3229576"><ele>1478.75</ele><time>2026-04-26T07:49:19.778Z</time></trkpt><trkpt lat="42.5477808" lon="13.3228131"><ele>1487.0</ele><time>2026-04-26T07:49:20.778Z</time></trkpt><trkpt lat="42.5478376" lon="13.3226962"><ele>1485.75</ele><time>2026-04-26T07:49:21.779Z</time></trkpt><trkpt lat="42.5479248" lon="13.3225979"><ele>1484.5</ele><time>2026-04-26T07:49:22.778Z</time></trkpt><trkpt lat="42.5480136" lon="13.3224929"><ele>1483.25</ele><time>2026-04-26T07:49:23.778Z</time></trkpt><trkpt lat="42.5480765" lon="13.3223669"><ele>1482.0</ele><time>2026-04-26T07:49:24.777Z</time></trkpt><trkpt lat="42.5481304" lon="13.3222311"><ele>1482.0</ele><time>2026-04-26T07:49:25.779Z</time></trkpt><trkpt lat="42.5482088" lon="13.3221115"><ele>1482.0</ele><time>2026-04-26T07:49:26.777Z</time></trkpt><trkpt lat="42.5483048" lon="13.3220279"><ele>1482.0</ele><time>2026-04-26T07:49:27.777Z</time></trkpt><trkpt lat="42.548422" lon="13.3219783"><ele>1482.0</ele><time>2026-04-26T07:49:28.778Z</time></trkpt><trkpt lat="42.5485602" lon="13.3219556"><ele>1482.0</ele><time>2026-04-26T07:49:29.777Z</time></trkpt><trkpt lat="42.5486944" lon="13.3219426"><ele>1482.0</ele><time>2026-04-26T07:49:30.777Z</time></trkpt><trkpt lat="42.5488167" lon="13.3219395"><ele>1482.0</ele><time>2026-04-26T07:49:31.779Z</time></trkpt><trkpt lat="42.5489239" lon="13.3219884"><ele>1482.0</ele><time>2026-04-26T07:49:32.777Z</time></trkpt><trkpt lat="42.5490162" lon="13.3220866"><ele>1479.1999999999998</ele><time>2026-04-26T07:49:33.779Z</time></trkpt><trkpt lat="42.5490953" lon="13.3221997"><ele>1476.4</ele><time>2026-04-26T07:49:34.779Z</time></trkpt><trkpt lat="42.549179" lon="13.3222912"><ele>1473.6</ele><time>2026-04-26T07:49:35.777Z</time></trkpt><trkpt lat="42.5492693" lon="13.322336"><ele>1470.8000000000002</ele><time>2026-04-26T07:49:36.779Z</time></trkpt><trkpt lat="42.54936" lon="13.3223284"><ele>1468.0</ele><time>2026-04-26T07:49:37.778Z</time></trkpt><trkpt lat="42.5494442" lon="13.3222666"><ele>1468.0</ele><time>2026-04-26T07:49:38.778Z</time></trkpt><trkpt lat="42.5495209" lon="13.3221325"><ele>1468.0</ele><time>2026-04-26T07:49:39.778Z</time></trkpt><trkpt lat="42.5495881" lon="13.3219683"><ele>1468.0</ele><time>2026-04-26T07:49:40.778Z</time></trkpt><trkpt lat="42.5496588" lon="13.3217883"><ele>1468.0</ele><time>2026-04-26T07:49:41.779Z</time></trkpt><trkpt lat="42.5497262" lon="13.3216138"><ele>1468.5</ele><time>2026-04-26T07:49:42.779Z</time></trkpt><trkpt lat="42.5497878" lon="13.3214477"><ele>1469.0</ele><time>2026-04-26T07:49:43.779Z</time></trkpt><trkpt lat="42.5498648" lon="13.321299"><ele>1469.5</ele><time>2026-04-26T07:49:44.778Z</time></trkpt><trkpt lat="42.5499537" lon="13.3211849"><ele>1470.0</ele><time>2026-04-26T07:49:45.779Z</time></trkpt><trkpt lat="42.5500582" lon="13.321101"><ele>1470.0</ele><time>2026-04-26T07:49:46.779Z</time></trkpt><trkpt lat="42.5501654" lon="13.3210618"><ele>1470.0</ele><time>2026-04-26T07:49:47.779Z</time></trkpt><trkpt lat="42.5502669" lon="13.3210663"><ele>1470.0</ele><time>2026-04-26T07:49:48.778Z</time></trkpt><trkpt lat="42.5503496" lon="13.3211233"><ele>1470.0</ele><time>2026-04-26T07:49:49.778Z</time></trkpt><trkpt lat="42.5504115" lon="13.3212264"><ele>1470.0</ele><time>2026-04-26T07:49:50.778Z</time></trkpt><trkpt lat="42.5504577" lon="13.3213636"><ele>1466.5</ele><time>2026-04-26T07:49:51.779Z</time></trkpt><trkpt lat="42.5505096" lon="13.3215054"><ele>1463.0</ele><time>2026-04-26T07:49:52.778Z</time></trkpt><trkpt lat="42.5505972" lon="13.3216394"><ele>1459.5</ele><time>2026-04-26T07:49:53.778Z</time></trkpt><trkpt lat="42.5507169" lon="13.3217573"><ele>1456.0</ele><time>2026-04-26T07:49:54.778Z</time></trkpt><trkpt lat="42.550841" lon="13.3218651"><ele>1456.0</ele><time>2026-04-26T07:49:55.778Z</time></trkpt><trkpt lat="42.5509657" lon="13.3219537"><ele>1456.0</ele><time>2026-04-26T07:49:56.779Z</time></trkpt><trkpt lat="42.5510921" lon="13.3220064"><ele>1456.0</ele><time>2026-04-26T07:49:57.778Z</time></trkpt><trkpt lat="42.5512123" lon="13.3219971"><ele>1456.0</ele><time>2026-04-26T07:49:58.778Z</time></trkpt><trkpt lat="42.5513296" lon="13.3219678"><ele>1457.0</ele><time>2026-04-26T07:49:59.777Z</time></trkpt><trkpt lat="42.5514422" lon="13.3219706"><ele>1458.0</ele><time>2026-04-26T07:50:00.778Z</time></trkpt><trkpt lat="42.5515354" lon="13.3220222"><ele>1459.0</ele><time>2026-04-26T07:50:01.777Z</time></trkpt><trkpt lat="42.5516044" lon="13.3221218"><ele>1460.0</ele><time>2026-04-26T07:50:02.777Z</time></trkpt><trkpt lat="42.5516543" lon="13.3222641"><ele>1461.0</ele><time>2026-04-26T07:50:03.778Z</time></trkpt><trkpt lat="42.5517138" lon="13.3224066"><ele>1460.25</ele><time>2026-04-26T07:50:04.777Z</time></trkpt><trkpt lat="42.5518097" lon="13.322543"><ele>1459.5</ele><time>2026-04-26T07:50:05.777Z</time></trkpt><trkpt lat="42.5519298" lon="13.3226491"><ele>1458.75</ele><time>2026-04-26T07:50:06.777Z</time></trkpt><trkpt lat="42.552047" lon="13.3227419"><ele>1458.0</ele><time>2026-04-26T07:50:07.778Z</time></trkpt><trkpt lat="42.5521614" lon="13.3228379"><ele>1458.0</ele><time>2026-04-26T07:50:08.779Z</time></trkpt><trkpt lat="42.5522587" lon="13.322955"><ele>1458.0</ele><time>2026-04-26T07:50:09.779Z</time></trkpt><trkpt lat="42.5523317" lon="13.3231114"><ele>1458.0</ele><time>2026-04-26T07:50:10.779Z</time></trkpt><trkpt lat="42.5523782" lon="13.3232954"><ele>1458.0</ele><time>2026-04-26T07:50:11.778Z</time></trkpt><trkpt lat="42.5523989" lon="13.3234908"><ele>1454.75</ele><time>2026-04-26T07:50:12.779Z</time></trkpt><trkpt lat="42.5524149" lon="13.3236959"><ele>1451.5</ele><time>2026-04-26T07:50:13.778Z</time></trkpt><trkpt lat="42.5524567" lon="13.3238837"><ele>1448.25</ele><time>2026-04-26T07:50:14.777Z</time></trkpt><trkpt lat="42.5525" lon="13.3240651"><ele>1445.0</ele><time>2026-04-26T07:50:15.778Z</time></trkpt><trkpt lat="42.552546" lon="13.3242405"><ele>1442.0</ele><time>2026-04-26T07:50:16.778Z</time></trkpt><trkpt lat="42.5525876" lon="13.3244106"><ele>1439.0</ele><time>2026-04-26T07:50:17.777Z</time></trkpt><trkpt lat="42.5526388" lon="13.3245682"><ele>1436.0</ele><time>2026-04-26T07:50:18.779Z</time></trkpt><trkpt lat="42.5527183" lon="13.3247131"><ele>1433.0</ele><time>2026-04-26T07:50:19.778Z</time></trkpt><trkpt lat="42.552827" lon="13.324837"><ele>1433.75</ele><time>2026-04-26T07:50:20.778Z</time></trkpt><trkpt lat="42.5529543" lon="13.3249516"><ele>1434.5</ele><time>2026-04-26T07:50:21.777Z</time></trkpt><trkpt lat="42.5530832" lon="13.3250563"><ele>1435.25</ele><time>2026-04-26T07:50:22.778Z</time></trkpt><trkpt lat="42.5532061" lon="13.3251564"><ele>1436.0</ele><time>2026-04-26T07:50:23.777Z</time></trkpt><trkpt lat="42.5533169" lon="13.3252482"><ele>1436.0</ele><time>2026-04-26T07:50:24.777Z</time></trkpt><trkpt lat="42.5534183" lon="13.3253157"><ele>1436.0</ele><time>2026-04-26T07:50:25.778Z</time></trkpt><trkpt lat="42.553519" lon="13.325342"><ele>1436.0</ele><time>2026-04-26T07:50:26.777Z</time></trkpt><trkpt lat="42.5536163" lon="13.32531"><ele>1436.0</ele><time>2026-04-26T07:50:27.778Z</time></trkpt><trkpt lat="42.5537" lon="13.3252316"><ele>1436.0</ele><time>2026-04-26T07:50:28.778Z</time></trkpt><trkpt lat="42.5537584" lon="13.3251066"><ele>1435.75</ele><time>2026-04-26T07:50:29.779Z</time></trkpt><trkpt lat="42.5537896" lon="13.3249459"><ele>1435.5</ele><time>2026-04-26T07:50:30.778Z</time></trkpt><trkpt lat="42.5538088" lon="13.3247761"><ele>1435.25</ele><time>2026-04-26T07:50:31.778Z</time></trkpt><trkpt lat="42.5538464" lon="13.3246145"><ele>1435.0</ele><time>2026-04-26T07:50:32.778Z</time></trkpt><trkpt lat="42.5539086" lon="13.3244716"><ele>1435.0</ele><time>2026-04-26T07:50:33.779Z</time></trkpt><trkpt lat="42.5539904" lon="13.3243611"><ele>1435.0</ele><time>2026-04-26T07:50:34.778Z</time></trkpt><trkpt lat="42.5540953" lon="13.3242668"><ele>1435.0</ele><time>2026-04-26T07:50:35.779Z</time></trkpt><trkpt lat="42.5542167" lon="13.3242024"><ele>1435.0</ele><time>2026-04-26T07:50:36.779Z</time></trkpt><trkpt lat="42.5543418" lon="13.3241705"><ele>1435.0</ele><time>2026-04-26T07:50:37.777Z</time></trkpt><trkpt lat="42.5544754" lon="13.3241862"><ele>1435.0</ele><time>2026-04-26T07:50:38.777Z</time></trkpt><trkpt lat="42.554613" lon="13.3242481"><ele>1435.0</ele><time>2026-04-26T07:50:39.778Z</time></trkpt><trkpt lat="42.554749" lon="13.324342"><ele>1435.0</ele><time>2026-04-26T07:50:40.779Z</time></trkpt><trkpt lat="42.5548851" lon="13.324443"><ele>1435.0</ele><time>2026-04-26T07:50:41.778Z</time></trkpt><trkpt lat="42.5550312" lon="13.3245395"><ele>1435.0</ele><time>2026-04-26T07:50:42.777Z</time></trkpt><trkpt lat="42.5551851" lon="13.324617"><ele>1435.0</ele><time>2026-04-26T07:50:43.778Z</time></trkpt><trkpt lat="42.5553488" lon="13.3246603"><ele>1435.3333333333333</ele><time>2026-04-26T07:50:44.777Z</time></trkpt><trkpt lat="42.555508" lon="13.3246865"><ele>1435.6666666666667</ele><time>2026-04-26T07:50:45.777Z</time></trkpt><trkpt lat="42.5556616" lon="13.3246923"><ele>1436.0</ele><time>2026-04-26T07:50:46.777Z</time></trkpt><trkpt lat="42.555815" lon="13.3246766"><ele>1436.0</ele><time>2026-04-26T07:50:47.778Z</time></trkpt><trkpt lat="42.555954" lon="13.3246256"><ele>1436.0</ele><time>2026-04-26T07:50:48.778Z</time></trkpt><trkpt lat="42.5560784" lon="13.3245384"><ele>1436.0</ele><time>2026-04-26T07:50:49.777Z</time></trkpt><trkpt lat="42.5561673" lon="13.3244333"><ele>1436.0</ele><time>2026-04-26T07:50:50.777Z</time></trkpt><trkpt lat="42.5562445" lon="13.3243147"><ele>1435.25</ele><time>2026-04-26T07:50:51.778Z</time></trkpt><trkpt lat="42.5562949" lon="13.3241836"><ele>1434.5</ele><time>2026-04-26T07:50:52.778Z</time></trkpt><trkpt lat="42.5563037" lon="13.3240638"><ele>1433.75</ele><time>2026-04-26T07:50:53.778Z</time></trkpt><trkpt lat="42.5562636" lon="13.3239147"><ele>1433.0</ele><time>2026-04-26T07:50:54.778Z</time></trkpt><trkpt lat="42.5561574" lon="13.3236052"><ele>1433.0</ele><time>2026-04-26T07:50:55.777Z</time></trkpt><trkpt lat="42.5560916" lon="13.3233766"><ele>1433.0</ele><time>2026-04-26T07:50:56.779Z</time></trkpt><trkpt lat="42.5560254" lon="13.3231472"><ele>1433.0</ele><time>2026-04-26T07:50:57.779Z</time></trkpt><trkpt lat="42.5559523" lon="13.3229016"><ele>1424.3333333333335</ele><time>2026-04-26T07:50:58.777Z</time></trkpt><trkpt lat="42.5558972" lon="13.322671"><ele>1415.6666666666667</ele><time>2026-04-26T07:50:59.776Z</time></trkpt><trkpt lat="42.5557978" lon="13.3224773"><ele>1407.0</ele><time>2026-04-26T07:51:00.776Z</time></trkpt><trkpt lat="42.5557086" lon="13.3222765"><ele>1402.5</ele><time>2026-04-26T07:51:01.777Z</time></trkpt><trkpt lat="42.5555657" lon="13.3221864"><ele>1398.0</ele><time>2026-04-26T07:51:02.777Z</time></trkpt><trkpt lat="42.5554542" lon="13.3220932"><ele>1393.5</ele><time>2026-04-26T07:51:03.777Z</time></trkpt><trkpt lat="42.5553298" lon="13.3220602"><ele>1389.0</ele><time>2026-04-26T07:51:04.777Z</time></trkpt><trkpt lat="42.555203" lon="13.3220617"><ele>1389.0</ele><time>2026-04-26T07:51:05.776Z</time></trkpt><trkpt lat="42.5550853" lon="13.3220821"><ele>1389.0</ele><time>2026-04-26T07:51:06.777Z</time></trkpt><trkpt lat="42.5549786" lon="13.3220735"><ele>1389.0</ele><time>2026-04-26T07:51:07.777Z</time></trkpt><trkpt lat="42.5548821" lon="13.3220248"><ele>1389.0</ele><time>2026-04-26T07:51:08.777Z</time></trkpt><trkpt lat="42.5548147" lon="13.3219306"><ele>1389.0</ele><time>2026-04-26T07:51:09.777Z</time></trkpt><trkpt lat="42.5547698" lon="13.3218051"><ele>1389.0</ele><time>2026-04-26T07:51:10.776Z</time></trkpt><trkpt lat="42.5547058" lon="13.3216761"><ele>1389.0</ele><time>2026-04-26T07:51:11.778Z</time></trkpt><trkpt lat="42.55463" lon="13.3215617"><ele>1389.0</ele><time>2026-04-26T07:51:12.777Z</time></trkpt><trkpt lat="42.5545582" lon="13.3214461"><ele>1389.0</ele><time>2026-04-26T07:51:13.776Z</time></trkpt><trkpt lat="42.5545069" lon="13.3213012"><ele>1386.75</ele><time>2026-04-26T07:51:14.776Z</time></trkpt><trkpt lat="42.5544852" lon="13.3211341"><ele>1384.5</ele><time>2026-04-26T07:51:15.777Z</time></trkpt><trkpt lat="42.5544892" lon="13.320967"><ele>1382.25</ele><time>2026-04-26T07:51:16.777Z</time></trkpt><trkpt lat="42.5545154" lon="13.3208207"><ele>1380.0</ele><time>2026-04-26T07:51:17.778Z</time></trkpt><trkpt lat="42.5545675" lon="13.320698"><ele>1380.0</ele><time>2026-04-26T07:51:18.777Z</time></trkpt><trkpt lat="42.5546419" lon="13.3206146"><ele>1380.0</ele><time>2026-04-26T07:51:19.777Z</time></trkpt><trkpt lat="42.5547336" lon="13.3205712"><ele>1380.0</ele><time>2026-04-26T07:51:20.777Z</time></trkpt><trkpt lat="42.5548563" lon="13.3205868"><ele>1380.0</ele><time>2026-04-26T07:51:21.776Z</time></trkpt><trkpt lat="42.5549857" lon="13.3206076"><ele>1380.0</ele><time>2026-04-26T07:51:22.777Z</time></trkpt><trkpt lat="42.5551385" lon="13.3206132"><ele>1380.0</ele><time>2026-04-26T07:51:23.778Z</time></trkpt><trkpt lat="42.5552985" lon="13.320603"><ele>1380.0</ele><time>2026-04-26T07:51:24.777Z</time></trkpt><trkpt lat="42.555452" lon="13.3205833"><ele>1380.0</ele><time>2026-04-26T07:51:25.777Z</time></trkpt><trkpt lat="42.5556045" lon="13.3205577"><ele>1379.0</ele><time>2026-04-26T07:51:26.778Z</time></trkpt><trkpt lat="42.5557417" lon="13.3205617"><ele>1378.0</ele><time>2026-04-26T07:51:27.776Z</time></trkpt><trkpt lat="42.5558783" lon="13.3206158"><ele>1377.0</ele><time>2026-04-26T07:51:28.776Z</time></trkpt><trkpt lat="42.5560062" lon="13.3207237"><ele>1376.0</ele><time>2026-04-26T07:51:29.777Z</time></trkpt><trkpt lat="42.5561322" lon="13.3208713"><ele>1381.0</ele><time>2026-04-26T07:51:30.777Z</time></trkpt><trkpt lat="42.5562618" lon="13.3210281"><ele>1386.0</ele><time>2026-04-26T07:51:31.776Z</time></trkpt><trkpt lat="42.5563866" lon="13.3211787"><ele>1391.0</ele><time>2026-04-26T07:51:32.777Z</time></trkpt><trkpt lat="42.5565092" lon="13.3213368"><ele>1384.0</ele><time>2026-04-26T07:51:33.776Z</time></trkpt><trkpt lat="42.5566425" lon="13.3214874"><ele>1377.0</ele><time>2026-04-26T07:51:34.777Z</time></trkpt><trkpt lat="42.5567941" lon="13.3216209"><ele>1370.0</ele><time>2026-04-26T07:51:35.778Z</time></trkpt><trkpt lat="42.5569639" lon="13.321724"><ele>1375.0</ele><time>2026-04-26T07:51:36.776Z</time></trkpt><trkpt lat="42.5571419" lon="13.3218139"><ele>1380.0</ele><time>2026-04-26T07:51:37.776Z</time></trkpt><trkpt lat="42.5573206" lon="13.3218992"><ele>1385.0</ele><time>2026-04-26T07:51:38.778Z</time></trkpt><trkpt lat="42.5574944" lon="13.3219797"><ele>1385.0</ele><time>2026-04-26T07:51:39.778Z</time></trkpt><trkpt lat="42.5576598" lon="13.3220619"><ele>1385.0</ele><time>2026-04-26T07:51:40.777Z</time></trkpt><trkpt lat="42.55782" lon="13.3221502"><ele>1385.0</ele><time>2026-04-26T07:51:41.777Z</time></trkpt><trkpt lat="42.5579712" lon="13.322253"><ele>1378.0</ele><time>2026-04-26T07:51:42.778Z</time></trkpt><trkpt lat="42.558112" lon="13.3223624"><ele>1371.0</ele><time>2026-04-26T07:51:43.777Z</time></trkpt><trkpt lat="42.5582534" lon="13.3224686"><ele>1364.0</ele><time>2026-04-26T07:51:44.778Z</time></trkpt><trkpt lat="42.5584035" lon="13.3225414"><ele>1364.0</ele><time>2026-04-26T07:51:45.777Z</time></trkpt><trkpt lat="42.5585593" lon="13.3225766"><ele>1364.0</ele><time>2026-04-26T07:51:46.778Z</time></trkpt><trkpt lat="42.5587182" lon="13.3226071"><ele>1364.0</ele><time>2026-04-26T07:51:47.776Z</time></trkpt><trkpt lat="42.5588719" lon="13.3226855"><ele>1367.3333333333335</ele><time>2026-04-26T07:51:48.776Z</time></trkpt><trkpt lat="42.5590057" lon="13.3228055"><ele>1370.6666666666667</ele><time>2026-04-26T07:51:49.777Z</time></trkpt><trkpt lat="42.5591241" lon="13.3229432"><ele>1374.0</ele><time>2026-04-26T07:51:50.776Z</time></trkpt><trkpt lat="42.5592444" lon="13.323069"><ele>1369.0</ele><time>2026-04-26T07:51:51.777Z</time></trkpt><trkpt lat="42.559382" lon="13.3231536"><ele>1364.0</ele><time>2026-04-26T07:51:52.777Z</time></trkpt><trkpt lat="42.5595381" lon="13.3231867"><ele>1359.0</ele><time>2026-04-26T07:51:53.776Z</time></trkpt><trkpt lat="42.5596925" lon="13.3232117"><ele>1359.0</ele><time>2026-04-26T07:51:54.776Z</time></trkpt><trkpt lat="42.5598415" lon="13.3232526"><ele>1359.0</ele><time>2026-04-26T07:51:55.777Z</time></trkpt><trkpt lat="42.5599787" lon="13.3233276"><ele>1359.0</ele><time>2026-04-26T07:51:56.776Z</time></trkpt><trkpt lat="42.5600996" lon="13.3234355"><ele>1359.0</ele><time>2026-04-26T07:51:57.778Z</time></trkpt><trkpt lat="42.560199" lon="13.3235873"><ele>1359.0</ele><time>2026-04-26T07:51:58.778Z</time></trkpt><trkpt lat="42.5602845" lon="13.3237612"><ele>1359.0</ele><time>2026-04-26T07:51:59.777Z</time></trkpt><trkpt lat="42.5603634" lon="13.3239258"><ele>1359.0</ele><time>2026-04-26T07:52:00.778Z</time></trkpt><trkpt lat="42.5604421" lon="13.3240819"><ele>1359.0</ele><time>2026-04-26T07:52:01.778Z</time></trkpt><trkpt lat="42.5605195" lon="13.3242192"><ele>1356.75</ele><time>2026-04-26T07:52:02.777Z</time></trkpt><trkpt lat="42.5606068" lon="13.3243286"><ele>1354.5</ele><time>2026-04-26T07:52:03.778Z</time></trkpt><trkpt lat="42.5607185" lon="13.3243864"><ele>1352.25</ele><time>2026-04-26T07:52:04.778Z</time></trkpt><trkpt lat="42.560831" lon="13.3243925"><ele>1350.0</ele><time>2026-04-26T07:52:05.778Z</time></trkpt><trkpt lat="42.5609352" lon="13.3243437"><ele>1350.0</ele><time>2026-04-26T07:52:06.777Z</time></trkpt><trkpt lat="42.5610328" lon="13.3243081"><ele>1350.0</ele><time>2026-04-26T07:52:07.777Z</time></trkpt><trkpt lat="42.5611111" lon="13.3242065"><ele>1350.0</ele><time>2026-04-26T07:52:08.777Z</time></trkpt><trkpt lat="42.5611815" lon="13.3240701"><ele>1350.0</ele><time>2026-04-26T07:52:09.777Z</time></trkpt><trkpt lat="42.5612209" lon="13.3238201"><ele>1343.6666666666667</ele><time>2026-04-26T07:52:10.776Z</time></trkpt><trkpt lat="42.5612759" lon="13.3236219"><ele>1337.3333333333335</ele><time>2026-04-26T07:52:11.778Z</time></trkpt><trkpt lat="42.5613688" lon="13.3234642"><ele>1331.0</ele><time>2026-04-26T07:52:12.778Z</time></trkpt><trkpt lat="42.5614373" lon="13.3232886"><ele>1331.0</ele><time>2026-04-26T07:52:13.777Z</time></trkpt><trkpt lat="42.5614949" lon="13.3231292"><ele>1331.0</ele><time>2026-04-26T07:52:14.777Z</time></trkpt><trkpt lat="42.5614832" lon="13.3229319"><ele>1331.0</ele><time>2026-04-26T07:52:15.778Z</time></trkpt><trkpt lat="42.561485" lon="13.3227235"><ele>1331.0</ele><time>2026-04-26T07:52:16.778Z</time></trkpt><trkpt lat="42.5614591" lon="13.3225115"><ele>1329.3333333333335</ele><time>2026-04-26T07:52:17.777Z</time></trkpt><trkpt lat="42.5614149" lon="13.3222838"><ele>1327.6666666666667</ele><time>2026-04-26T07:52:18.776Z</time></trkpt><trkpt lat="42.5613666" lon="13.3220678"><ele>1326.0</ele><time>2026-04-26T07:52:19.777Z</time></trkpt><trkpt lat="42.5613176" lon="13.3218478"><ele>1328.0</ele><time>2026-04-26T07:52:20.778Z</time></trkpt><trkpt lat="42.5612555" lon="13.3216456"><ele>1330.0</ele><time>2026-04-26T07:52:21.778Z</time></trkpt><trkpt lat="42.5612203" lon="13.3214302"><ele>1332.0</ele><time>2026-04-26T07:52:22.778Z</time></trkpt><trkpt lat="42.5611711" lon="13.3212226"><ele>1332.0</ele><time>2026-04-26T07:52:23.777Z</time></trkpt><trkpt lat="42.5611317" lon="13.321019"><ele>1332.0</ele><time>2026-04-26T07:52:24.777Z</time></trkpt><trkpt lat="42.5610653" lon="13.3208659"><ele>1332.0</ele><time>2026-04-26T07:52:25.777Z</time></trkpt><trkpt lat="42.5609928" lon="13.3207337"><ele>1332.0</ele><time>2026-04-26T07:52:26.776Z</time></trkpt><trkpt lat="42.5609155" lon="13.3206242"><ele>1331.3999999999999</ele><time>2026-04-26T07:52:27.777Z</time></trkpt><trkpt lat="42.5608665" lon="13.3205235"><ele>1330.8</ele><time>2026-04-26T07:52:28.777Z</time></trkpt><trkpt lat="42.5608403" lon="13.3204277"><ele>1330.2</ele><time>2026-04-26T07:52:29.778Z</time></trkpt><trkpt lat="42.5609069" lon="13.3202772"><ele>1329.6</ele><time>2026-04-26T07:52:31.777Z</time></trkpt><trkpt lat="42.5609827" lon="13.320241"><ele>1329.0</ele><time>2026-04-26T07:52:32.777Z</time></trkpt><trkpt lat="42.5610704" lon="13.3202397"><ele>1329.0</ele><time>2026-04-26T07:52:33.776Z</time></trkpt><trkpt lat="42.5611582" lon="13.3202679"><ele>1329.0</ele><time>2026-04-26T07:52:34.777Z</time></trkpt><trkpt lat="42.561243" lon="13.3203412"><ele>1329.0</ele><time>2026-04-26T07:52:35.777Z</time></trkpt><trkpt lat="42.5613337" lon="13.3204558"><ele>1329.0</ele><time>2026-04-26T07:52:36.776Z</time></trkpt><trkpt lat="42.5614396" lon="13.3205765"><ele>1326.25</ele><time>2026-04-26T07:52:37.777Z</time></trkpt><trkpt lat="42.5615486" lon="13.3206998"><ele>1323.5</ele><time>2026-04-26T07:52:38.777Z</time></trkpt><trkpt lat="42.5616564" lon="13.3208363"><ele>1320.75</ele><time>2026-04-26T07:52:39.777Z</time></trkpt><trkpt lat="42.561755" lon="13.3209952"><ele>1318.0</ele><time>2026-04-26T07:52:40.778Z</time></trkpt><trkpt lat="42.5618423" lon="13.3211741"><ele>1318.0</ele><time>2026-04-26T07:52:41.778Z</time></trkpt><trkpt lat="42.5619235" lon="13.3213595"><ele>1318.0</ele><time>2026-04-26T07:52:42.777Z</time></trkpt><trkpt lat="42.5619991" lon="13.321538"><ele>1318.0</ele><time>2026-04-26T07:52:43.777Z</time></trkpt><trkpt lat="42.5620724" lon="13.3217176"><ele>1316.25</ele><time>2026-04-26T07:52:44.776Z</time></trkpt><trkpt lat="42.5621412" lon="13.3218875"><ele>1314.5</ele><time>2026-04-26T07:52:45.778Z</time></trkpt><trkpt lat="42.5622006" lon="13.3220667"><ele>1312.75</ele><time>2026-04-26T07:52:46.776Z</time></trkpt><trkpt lat="42.562239" lon="13.3222558"><ele>1311.0</ele><time>2026-04-26T07:52:47.777Z</time></trkpt><trkpt lat="42.5622632" lon="13.3224395"><ele>1310.5</ele><time>2026-04-26T07:52:48.777Z</time></trkpt><trkpt lat="42.5622845" lon="13.3226322"><ele>1310.0</ele><time>2026-04-26T07:52:49.777Z</time></trkpt><trkpt lat="42.5623167" lon="13.3228302"><ele>1309.5</ele><time>2026-04-26T07:52:50.776Z</time></trkpt><trkpt lat="42.5623628" lon="13.3230142"><ele>1309.0</ele><time>2026-04-26T07:52:51.776Z</time></trkpt><trkpt lat="42.5624261" lon="13.3231778"><ele>1309.0</ele><time>2026-04-26T07:52:52.778Z</time></trkpt><trkpt lat="42.5625012" lon="13.3233288"><ele>1309.0</ele><time>2026-04-26T07:52:53.777Z</time></trkpt><trkpt lat="42.5625819" lon="13.323458"><ele>1309.0</ele><time>2026-04-26T07:52:54.776Z</time></trkpt><trkpt lat="42.5626567" lon="13.3235718"><ele>1309.0</ele><time>2026-04-26T07:52:55.777Z</time></trkpt><trkpt lat="42.5627273" lon="13.3236698"><ele>1309.0</ele><time>2026-04-26T07:52:56.777Z</time></trkpt><trkpt lat="42.562789" lon="13.3237616"><ele>1309.0</ele><time>2026-04-26T07:52:57.776Z</time></trkpt><trkpt lat="42.5628406" lon="13.3238464"><ele>1309.0</ele><time>2026-04-26T07:52:58.776Z</time></trkpt><trkpt lat="42.5628773" lon="13.3239193"><ele>1309.0</ele><time>2026-04-26T07:52:59.778Z</time></trkpt><trkpt lat="42.5629265" lon="13.3240049"><ele>1309.0</ele><time>2026-04-26T07:53:01.778Z</time></trkpt><trkpt lat="42.5630136" lon="13.3240234"><ele>1309.0</ele><time>2026-04-26T07:53:04.777Z</time></trkpt><trkpt lat="42.5631296" lon="13.3239185"><ele>1307.25</ele><time>2026-04-26T07:53:06.777Z</time></trkpt><trkpt lat="42.5631979" lon="13.3238256"><ele>1305.5</ele><time>2026-04-26T07:53:07.777Z</time></trkpt><trkpt lat="42.5632666" lon="13.3237077"><ele>1303.75</ele><time>2026-04-26T07:53:08.776Z</time></trkpt><trkpt lat="42.5633368" lon="13.3235574"><ele>1302.0</ele><time>2026-04-26T07:53:09.777Z</time></trkpt><trkpt lat="42.5634062" lon="13.3233919"><ele>1302.0</ele><time>2026-04-26T07:53:10.778Z</time></trkpt><trkpt lat="42.5634766" lon="13.3232127"><ele>1302.0</ele><time>2026-04-26T07:53:11.778Z</time></trkpt><trkpt lat="42.5635577" lon="13.3230134"><ele>1302.0</ele><time>2026-04-26T07:53:12.778Z</time></trkpt><trkpt lat="42.5636386" lon="13.3228154"><ele>1301.6666666666667</ele><time>2026-04-26T07:53:13.777Z</time></trkpt><trkpt lat="42.5637274" lon="13.3226004"><ele>1301.3333333333335</ele><time>2026-04-26T07:53:14.778Z</time></trkpt><trkpt lat="42.5638192" lon="13.3223752"><ele>1301.0</ele><time>2026-04-26T07:53:15.776Z</time></trkpt><trkpt lat="42.5639082" lon="13.3221391"><ele>1301.0</ele><time>2026-04-26T07:53:16.776Z</time></trkpt><trkpt lat="42.5640034" lon="13.3218962"><ele>1301.0</ele><time>2026-04-26T07:53:17.777Z</time></trkpt><trkpt lat="42.5641014" lon="13.3216454"><ele>1301.0</ele><time>2026-04-26T07:53:18.778Z</time></trkpt><trkpt lat="42.5642106" lon="13.3213839"><ele>1301.5</ele><time>2026-04-26T07:53:19.776Z</time></trkpt><trkpt lat="42.5643214" lon="13.321115"><ele>1302.0</ele><time>2026-04-26T07:53:20.777Z</time></trkpt><trkpt lat="42.5644329" lon="13.3208441"><ele>1300.5</ele><time>2026-04-26T07:53:21.777Z</time></trkpt><trkpt lat="42.5645428" lon="13.3205719"><ele>1299.0</ele><time>2026-04-26T07:53:22.776Z</time></trkpt><trkpt lat="42.5646561" lon="13.3202958"><ele>1299.0</ele><time>2026-04-26T07:53:23.777Z</time></trkpt><trkpt lat="42.5647673" lon="13.3200189"><ele>1299.0</ele><time>2026-04-26T07:53:24.777Z</time></trkpt><trkpt lat="42.5648785" lon="13.3197418"><ele>1299.5</ele><time>2026-04-26T07:53:25.776Z</time></trkpt><trkpt lat="42.5649897" lon="13.3194716"><ele>1300.0</ele><time>2026-04-26T07:53:26.777Z</time></trkpt><trkpt lat="42.5650978" lon="13.3192066"><ele>1300.0</ele><time>2026-04-26T07:53:27.776Z</time></trkpt><trkpt lat="42.5652026" lon="13.318953"><ele>1300.0</ele><time>2026-04-26T07:53:28.778Z</time></trkpt><trkpt lat="42.5653005" lon="13.3187089"><ele>1300.0</ele><time>2026-04-26T07:53:29.777Z</time></trkpt><trkpt lat="42.5653944" lon="13.3184763"><ele>1300.3333333333333</ele><time>2026-04-26T07:53:30.776Z</time></trkpt><trkpt lat="42.5654832" lon="13.3182531"><ele>1300.6666666666667</ele><time>2026-04-26T07:53:31.777Z</time></trkpt><trkpt lat="42.5655685" lon="13.3180347"><ele>1301.0</ele><time>2026-04-26T07:53:32.778Z</time></trkpt><trkpt lat="42.5656579" lon="13.3178263"><ele>1301.3333333333335</ele><time>2026-04-26T07:53:33.778Z</time></trkpt><trkpt lat="42.5657596" lon="13.3176389"><ele>1301.6666666666667</ele><time>2026-04-26T07:53:34.777Z</time></trkpt><trkpt lat="42.5658774" lon="13.3174705"><ele>1302.0</ele><time>2026-04-26T07:53:35.778Z</time></trkpt><trkpt lat="42.5660083" lon="13.3173089"><ele>1302.0</ele><time>2026-04-26T07:53:36.777Z</time></trkpt><trkpt lat="42.566152" lon="13.3171531"><ele>1302.0</ele><time>2026-04-26T07:53:37.776Z</time></trkpt><trkpt lat="42.5663015" lon="13.3170004"><ele>1302.0</ele><time>2026-04-26T07:53:38.778Z</time></trkpt><trkpt lat="42.5664542" lon="13.3168471"><ele>1302.0</ele><time>2026-04-26T07:53:39.777Z</time></trkpt><trkpt lat="42.5666079" lon="13.3166958"><ele>1302.0</ele><time>2026-04-26T07:53:40.777Z</time></trkpt><trkpt lat="42.5667544" lon="13.3165467"><ele>1302.0</ele><time>2026-04-26T07:53:41.778Z</time></trkpt><trkpt lat="42.5668996" lon="13.3164018"><ele>1301.6666666666667</ele><time>2026-04-26T07:53:42.777Z</time></trkpt><trkpt lat="42.567042" lon="13.3162585"><ele>1301.3333333333335</ele><time>2026-04-26T07:53:43.778Z</time></trkpt><trkpt lat="42.5671824" lon="13.3161201"><ele>1301.0</ele><time>2026-04-26T07:53:44.778Z</time></trkpt><trkpt lat="42.5673185" lon="13.3159846"><ele>1301.0</ele><time>2026-04-26T07:53:45.778Z</time></trkpt><trkpt lat="42.5674514" lon="13.3158573"><ele>1301.0</ele><time>2026-04-26T07:53:46.777Z</time></trkpt><trkpt lat="42.5675795" lon="13.3157323"><ele>1301.0</ele><time>2026-04-26T07:53:47.778Z</time></trkpt><trkpt lat="42.5676882" lon="13.3155857"><ele>1301.0</ele><time>2026-04-26T07:53:48.778Z</time></trkpt><trkpt lat="42.5677703" lon="13.3154128"><ele>1301.0</ele><time>2026-04-26T07:53:49.777Z</time></trkpt><trkpt lat="42.567829" lon="13.3152064"><ele>1301.0</ele><time>2026-04-26T07:53:50.777Z</time></trkpt><trkpt lat="42.5678724" lon="13.3149758"><ele>1303.6666666666667</ele><time>2026-04-26T07:53:51.778Z</time></trkpt><trkpt lat="42.5679123" lon="13.3147205"><ele>1306.3333333333333</ele><time>2026-04-26T07:53:52.778Z</time></trkpt><trkpt lat="42.5679527" lon="13.3144454"><ele>1309.0</ele><time>2026-04-26T07:53:53.777Z</time></trkpt><trkpt lat="42.5679831" lon="13.3141606"><ele>1309.5</ele><time>2026-04-26T07:53:54.776Z</time></trkpt><trkpt lat="42.5679999" lon="13.3138528"><ele>1310.0</ele><time>2026-04-26T07:53:55.777Z</time></trkpt><trkpt lat="42.5679936" lon="13.3135411"><ele>1310.0</ele><time>2026-04-26T07:53:56.776Z</time></trkpt><trkpt lat="42.5679804" lon="13.3132362"><ele>1310.0</ele><time>2026-04-26T07:53:57.776Z</time></trkpt><trkpt lat="42.5679706" lon="13.3129271"><ele>1311.5</ele><time>2026-04-26T07:53:58.777Z</time></trkpt><trkpt lat="42.5679727" lon="13.3126201"><ele>1313.0</ele><time>2026-04-26T07:53:59.777Z</time></trkpt><trkpt lat="42.567989" lon="13.3123104"><ele>1311.5</ele><time>2026-04-26T07:54:00.776Z</time></trkpt><trkpt lat="42.5680187" lon="13.3120033"><ele>1310.0</ele><time>2026-04-26T07:54:01.776Z</time></trkpt><trkpt lat="42.5680557" lon="13.3117044"><ele>1310.0</ele><time>2026-04-26T07:54:02.777Z</time></trkpt><trkpt lat="42.5680923" lon="13.3114193"><ele>1310.0</ele><time>2026-04-26T07:54:03.778Z</time></trkpt><trkpt lat="42.5681291" lon="13.3111417"><ele>1310.0</ele><time>2026-04-26T07:54:04.778Z</time></trkpt><trkpt lat="42.5681847" lon="13.3108758"><ele>1309.6666666666667</ele><time>2026-04-26T07:54:05.776Z</time></trkpt><trkpt lat="42.5682634" lon="13.3106131"><ele>1309.3333333333333</ele><time>2026-04-26T07:54:06.776Z</time></trkpt><trkpt lat="42.5683597" lon="13.3103549"><ele>1309.0</ele><time>2026-04-26T07:54:07.777Z</time></trkpt><trkpt lat="42.568464" lon="13.3101037"><ele>1308.6666666666665</ele><time>2026-04-26T07:54:08.778Z</time></trkpt><trkpt lat="42.568566" lon="13.3098614"><ele>1308.3333333333333</ele><time>2026-04-26T07:54:09.778Z</time></trkpt><trkpt lat="42.5686608" lon="13.3096323"><ele>1308.0</ele><time>2026-04-26T07:54:10.776Z</time></trkpt><trkpt lat="42.5687515" lon="13.3094196"><ele>1310.0</ele><time>2026-04-26T07:54:11.778Z</time></trkpt><trkpt lat="42.5688376" lon="13.30922"><ele>1312.0</ele><time>2026-04-26T07:54:12.776Z</time></trkpt><trkpt lat="42.5689124" lon="13.3090218"><ele>1314.0</ele><time>2026-04-26T07:54:13.777Z</time></trkpt><trkpt lat="42.5689422" lon="13.3088189"><ele>1314.0</ele><time>2026-04-26T07:54:14.778Z</time></trkpt><trkpt lat="42.5689394" lon="13.3085938"><ele>1314.0</ele><time>2026-04-26T07:54:15.778Z</time></trkpt><trkpt lat="42.5689145" lon="13.30835"><ele>1314.0</ele><time>2026-04-26T07:54:16.777Z</time></trkpt><trkpt lat="42.5688856" lon="13.3080896"><ele>1314.6666666666667</ele><time>2026-04-26T07:54:17.777Z</time></trkpt><trkpt lat="42.5688604" lon="13.307817"><ele>1315.3333333333335</ele><time>2026-04-26T07:54:18.776Z</time></trkpt><trkpt lat="42.5688363" lon="13.3075493"><ele>1316.0</ele><time>2026-04-26T07:54:19.776Z</time></trkpt><trkpt lat="42.5688109" lon="13.3072929"><ele>1314.6666666666667</ele><time>2026-04-26T07:54:20.777Z</time></trkpt><trkpt lat="42.5687844" lon="13.3070592"><ele>1313.3333333333333</ele><time>2026-04-26T07:54:21.776Z</time></trkpt><trkpt lat="42.5687635" lon="13.3068497"><ele>1312.0</ele><time>2026-04-26T07:54:22.776Z</time></trkpt><trkpt lat="42.5687628" lon="13.3066467"><ele>1312.0</ele><time>2026-04-26T07:54:23.778Z</time></trkpt><trkpt lat="42.5687966" lon="13.3064497"><ele>1312.0</ele><time>2026-04-26T07:54:24.778Z</time></trkpt><trkpt lat="42.5688711" lon="13.3062633"><ele>1312.0</ele><time>2026-04-26T07:54:25.776Z</time></trkpt><trkpt lat="42.568977" lon="13.3060864"><ele>1310.3333333333333</ele><time>2026-04-26T07:54:26.777Z</time></trkpt><trkpt lat="42.5690933" lon="13.3059074"><ele>1308.6666666666667</ele><time>2026-04-26T07:54:27.776Z</time></trkpt><trkpt lat="42.569183" lon="13.305711"><ele>1307.0</ele><time>2026-04-26T07:54:28.778Z</time></trkpt><trkpt lat="42.569241" lon="13.3054836"><ele>1306.6666666666667</ele><time>2026-04-26T07:54:29.778Z</time></trkpt><trkpt lat="42.5692643" lon="13.3052297"><ele>1306.3333333333333</ele><time>2026-04-26T07:54:30.777Z</time></trkpt><trkpt lat="42.5692677" lon="13.3049603"><ele>1306.0</ele><time>2026-04-26T07:54:31.777Z</time></trkpt><trkpt lat="42.5692656" lon="13.3046712"><ele>1306.0</ele><time>2026-04-26T07:54:32.777Z</time></trkpt><trkpt lat="42.5692668" lon="13.3043812"><ele>1306.0</ele><time>2026-04-26T07:54:33.777Z</time></trkpt><trkpt lat="42.5692709" lon="13.304087"><ele>1306.0</ele><time>2026-04-26T07:54:34.776Z</time></trkpt><trkpt lat="42.5692733" lon="13.30379"><ele>1305.6666666666665</ele><time>2026-04-26T07:54:35.777Z</time></trkpt><trkpt lat="42.5692737" lon="13.3034976"><ele>1305.3333333333333</ele><time>2026-04-26T07:54:36.777Z</time></trkpt><trkpt lat="42.569271" lon="13.303207"><ele>1305.0</ele><time>2026-04-26T07:54:37.776Z</time></trkpt><trkpt lat="42.5692667" lon="13.3029216"><ele>1304.6666666666667</ele><time>2026-04-26T07:54:38.777Z</time></trkpt><trkpt lat="42.5692643" lon="13.3026481"><ele>1304.3333333333335</ele><time>2026-04-26T07:54:39.777Z</time></trkpt><trkpt lat="42.5692674" lon="13.3023887"><ele>1304.0</ele><time>2026-04-26T07:54:40.777Z</time></trkpt><trkpt lat="42.5692921" lon="13.3021352"><ele>1303.6666666666667</ele><time>2026-04-26T07:54:41.777Z</time></trkpt><trkpt lat="42.5693409" lon="13.3018846"><ele>1303.3333333333333</ele><time>2026-04-26T07:54:42.776Z</time></trkpt><trkpt lat="42.5694111" lon="13.301637"><ele>1303.0</ele><time>2026-04-26T07:54:43.776Z</time></trkpt><trkpt lat="42.5694975" lon="13.3013851"><ele>1306.0</ele><time>2026-04-26T07:54:44.775Z</time></trkpt><trkpt lat="42.5695951" lon="13.3011276"><ele>1309.0</ele><time>2026-04-26T07:54:45.775Z</time></trkpt><trkpt lat="42.5696932" lon="13.3008618"><ele>1312.0</ele><time>2026-04-26T07:54:46.776Z</time></trkpt><trkpt lat="42.5697929" lon="13.3005939"><ele>1310.0</ele><time>2026-04-26T07:54:47.776Z</time></trkpt><trkpt lat="42.5698926" lon="13.3003282"><ele>1308.0</ele><time>2026-04-26T07:54:48.775Z</time></trkpt><trkpt lat="42.5699868" lon="13.3000713"><ele>1306.0</ele><time>2026-04-26T07:54:49.776Z</time></trkpt><trkpt lat="42.5700691" lon="13.2998234"><ele>1304.0</ele><time>2026-04-26T07:54:50.777Z</time></trkpt><trkpt lat="42.5701349" lon="13.2995869"><ele>1302.0</ele><time>2026-04-26T07:54:51.776Z</time></trkpt><trkpt lat="42.5701908" lon="13.2993665"><ele>1300.0</ele><time>2026-04-26T07:54:52.775Z</time></trkpt><trkpt lat="42.5702572" lon="13.299163"><ele>1300.0</ele><time>2026-04-26T07:54:53.775Z</time></trkpt><trkpt lat="42.5703486" lon="13.298965"><ele>1300.0</ele><time>2026-04-26T07:54:54.777Z</time></trkpt><trkpt lat="42.570466" lon="13.2987855"><ele>1300.0</ele><time>2026-04-26T07:54:55.776Z</time></trkpt><trkpt lat="42.5705997" lon="13.2986205"><ele>1300.6666666666665</ele><time>2026-04-26T07:54:56.776Z</time></trkpt><trkpt lat="42.5707415" lon="13.2984687"><ele>1301.3333333333333</ele><time>2026-04-26T07:54:57.776Z</time></trkpt><trkpt lat="42.5708815" lon="13.2983318"><ele>1302.0</ele><time>2026-04-26T07:54:58.777Z</time></trkpt><trkpt lat="42.5710113" lon="13.298201"><ele>1301.75</ele><time>2026-04-26T07:54:59.775Z</time></trkpt><trkpt lat="42.5711258" lon="13.2980787"><ele>1301.5</ele><time>2026-04-26T07:55:00.775Z</time></trkpt><trkpt lat="42.5712235" lon="13.2979733"><ele>1301.25</ele><time>2026-04-26T07:55:01.777Z</time></trkpt><trkpt lat="42.5713028" lon="13.2978691"><ele>1301.0</ele><time>2026-04-26T07:55:02.777Z</time></trkpt><trkpt lat="42.5713433" lon="13.2977337"><ele>1301.0</ele><time>2026-04-26T07:55:03.776Z</time></trkpt><trkpt lat="42.5713588" lon="13.2975745"><ele>1301.0</ele><time>2026-04-26T07:55:04.776Z</time></trkpt><trkpt lat="42.5713147" lon="13.2974124"><ele>1301.0</ele><time>2026-04-26T07:55:05.777Z</time></trkpt><trkpt lat="42.5712474" lon="13.297242"><ele>1301.0</ele><time>2026-04-26T07:55:06.776Z</time></trkpt><trkpt lat="42.5711741" lon="13.2970545"><ele>1300.0</ele><time>2026-04-26T07:55:07.775Z</time></trkpt><trkpt lat="42.571088" lon="13.2968614"><ele>1299.0</ele><time>2026-04-26T07:55:08.775Z</time></trkpt><trkpt lat="42.5709978" lon="13.2966689"><ele>1298.0</ele><time>2026-04-26T07:55:09.775Z</time></trkpt><trkpt lat="42.5709093" lon="13.2964678"><ele>1299.6666666666667</ele><time>2026-04-26T07:55:10.776Z</time></trkpt><trkpt lat="42.5708256" lon="13.2962525"><ele>1301.3333333333333</ele><time>2026-04-26T07:55:11.776Z</time></trkpt><trkpt lat="42.5707327" lon="13.296028"><ele>1303.0</ele><time>2026-04-26T07:55:12.775Z</time></trkpt><trkpt lat="42.5706297" lon="13.2957906"><ele>1303.6666666666665</ele><time>2026-04-26T07:55:13.776Z</time></trkpt><trkpt lat="42.5705225" lon="13.2955578"><ele>1304.3333333333333</ele><time>2026-04-26T07:55:14.776Z</time></trkpt><trkpt lat="42.5704162" lon="13.2953272"><ele>1305.0</ele><time>2026-04-26T07:55:15.775Z</time></trkpt><trkpt lat="42.5703133" lon="13.2950993"><ele>1305.0</ele><time>2026-04-26T07:55:16.777Z</time></trkpt><trkpt lat="42.5702089" lon="13.2948721"><ele>1305.0</ele><time>2026-04-26T07:55:17.777Z</time></trkpt><trkpt lat="42.5701043" lon="13.2946416"><ele>1305.0</ele><time>2026-04-26T07:55:18.777Z</time></trkpt><trkpt lat="42.5699986" lon="13.294409"><ele>1307.3333333333333</ele><time>2026-04-26T07:55:19.776Z</time></trkpt><trkpt lat="42.5699026" lon="13.2941825"><ele>1309.6666666666665</ele><time>2026-04-26T07:55:20.776Z</time></trkpt><trkpt lat="42.5698258" lon="13.2939435"><ele>1312.0</ele><time>2026-04-26T07:55:21.775Z</time></trkpt><trkpt lat="42.5697612" lon="13.293693"><ele>1312.6666666666665</ele><time>2026-04-26T07:55:22.775Z</time></trkpt><trkpt lat="42.5697051" lon="13.2934485"><ele>1313.3333333333333</ele><time>2026-04-26T07:55:23.775Z</time></trkpt><trkpt lat="42.569649" lon="13.2932195"><ele>1314.0</ele><time>2026-04-26T07:55:24.776Z</time></trkpt><trkpt lat="42.5695867" lon="13.2930158"><ele>1315.3333333333333</ele><time>2026-04-26T07:55:25.777Z</time></trkpt><trkpt lat="42.5694993" lon="13.2928443"><ele>1316.6666666666665</ele><time>2026-04-26T07:55:26.776Z</time></trkpt><trkpt lat="42.5693821" lon="13.29271"><ele>1318.0</ele><time>2026-04-26T07:55:27.776Z</time></trkpt><trkpt lat="42.5692354" lon="13.292617"><ele>1318.0</ele><time>2026-04-26T07:55:28.776Z</time></trkpt><trkpt lat="42.5690814" lon="13.2925141"><ele>1318.0</ele><time>2026-04-26T07:55:29.775Z</time></trkpt><trkpt lat="42.5689328" lon="13.2923686"><ele>1318.0</ele><time>2026-04-26T07:55:30.777Z</time></trkpt><trkpt lat="42.5687949" lon="13.292192"><ele>1319.3333333333333</ele><time>2026-04-26T07:55:31.775Z</time></trkpt><trkpt lat="42.5686583" lon="13.292016"><ele>1320.6666666666667</ele><time>2026-04-26T07:55:32.775Z</time></trkpt><trkpt lat="42.5685239" lon="13.2918375"><ele>1322.0</ele><time>2026-04-26T07:55:33.776Z</time></trkpt><trkpt lat="42.5683918" lon="13.2916644"><ele>1322.0</ele><time>2026-04-26T07:55:34.777Z</time></trkpt><trkpt lat="42.5682643" lon="13.2914928"><ele>1322.0</ele><time>2026-04-26T07:55:35.776Z</time></trkpt><trkpt lat="42.5681454" lon="13.2913271"><ele>1322.0</ele><time>2026-04-26T07:55:36.776Z</time></trkpt><trkpt lat="42.5680296" lon="13.2911663"><ele>1323.5</ele><time>2026-04-26T07:55:37.776Z</time></trkpt><trkpt lat="42.5679234" lon="13.2910186"><ele>1325.0</ele><time>2026-04-26T07:55:38.776Z</time></trkpt><trkpt lat="42.5678257" lon="13.2908865"><ele>1326.5</ele><time>2026-04-26T07:55:39.775Z</time></trkpt><trkpt lat="42.5677515" lon="13.290764"><ele>1328.0</ele><time>2026-04-26T07:55:40.776Z</time></trkpt><trkpt lat="42.5677042" lon="13.2906431"><ele>1327.8000000000002</ele><time>2026-04-26T07:55:41.777Z</time></trkpt><trkpt lat="42.5676958" lon="13.2905201"><ele>1327.6</ele><time>2026-04-26T07:55:42.777Z</time></trkpt><trkpt lat="42.5677136" lon="13.2903961"><ele>1327.4</ele><time>2026-04-26T07:55:43.775Z</time></trkpt><trkpt lat="42.5677701" lon="13.2902819"><ele>1327.1999999999998</ele><time>2026-04-26T07:55:44.777Z</time></trkpt><trkpt lat="42.5678456" lon="13.2901739"><ele>1327.0</ele><time>2026-04-26T07:55:45.776Z</time></trkpt><trkpt lat="42.5679423" lon="13.2900687"><ele>1328.0</ele><time>2026-04-26T07:55:46.775Z</time></trkpt><trkpt lat="42.5680507" lon="13.2899665"><ele>1329.0</ele><time>2026-04-26T07:55:47.775Z</time></trkpt><trkpt lat="42.5681666" lon="13.2898655"><ele>1330.0</ele><time>2026-04-26T07:55:48.776Z</time></trkpt><trkpt lat="42.5682913" lon="13.2897527"><ele>1331.0</ele><time>2026-04-26T07:55:49.776Z</time></trkpt><trkpt lat="42.5684298" lon="13.2896357"><ele>1329.6666666666667</ele><time>2026-04-26T07:55:50.776Z</time></trkpt><trkpt lat="42.5685787" lon="13.2895175"><ele>1328.3333333333333</ele><time>2026-04-26T07:55:51.777Z</time></trkpt><trkpt lat="42.5687325" lon="13.2894067"><ele>1327.0</ele><time>2026-04-26T07:55:52.775Z</time></trkpt><trkpt lat="42.5688969" lon="13.2893072"><ele>1327.0</ele><time>2026-04-26T07:55:53.776Z</time></trkpt><trkpt lat="42.5690597" lon="13.2892116"><ele>1327.0</ele><time>2026-04-26T07:55:54.777Z</time></trkpt><trkpt lat="42.5692126" lon="13.2891127"><ele>1327.0</ele><time>2026-04-26T07:55:55.776Z</time></trkpt><trkpt lat="42.5693648" lon="13.2890087"><ele>1324.6666666666665</ele><time>2026-04-26T07:55:56.776Z</time></trkpt><trkpt lat="42.5695142" lon="13.2888919"><ele>1322.3333333333333</ele><time>2026-04-26T07:55:57.776Z</time></trkpt><trkpt lat="42.5696566" lon="13.2887516"><ele>1320.0</ele><time>2026-04-26T07:55:58.775Z</time></trkpt><trkpt lat="42.5697942" lon="13.2885969"><ele>1320.0</ele><time>2026-04-26T07:55:59.776Z</time></trkpt><trkpt lat="42.5699271" lon="13.2884423"><ele>1320.0</ele><time>2026-04-26T07:56:00.777Z</time></trkpt><trkpt lat="42.5700544" lon="13.2882971"><ele>1320.0</ele><time>2026-04-26T07:56:01.776Z</time></trkpt><trkpt lat="42.5701726" lon="13.2881606"><ele>1321.6666666666667</ele><time>2026-04-26T07:56:02.776Z</time></trkpt><trkpt lat="42.5702767" lon="13.2880117"><ele>1323.3333333333335</ele><time>2026-04-26T07:56:03.776Z</time></trkpt><trkpt lat="42.5703542" lon="13.2878401"><ele>1325.0</ele><time>2026-04-26T07:56:04.777Z</time></trkpt><trkpt lat="42.5704188" lon="13.287652"><ele>1325.0</ele><time>2026-04-26T07:56:05.775Z</time></trkpt><trkpt lat="42.5704889" lon="13.2874768"><ele>1325.0</ele><time>2026-04-26T07:56:06.775Z</time></trkpt><trkpt lat="42.5705656" lon="13.2873206"><ele>1325.0</ele><time>2026-04-26T07:56:07.775Z</time></trkpt><trkpt lat="42.5706456" lon="13.2871704"><ele>1325.0</ele><time>2026-04-26T07:56:08.775Z</time></trkpt><trkpt lat="42.5707118" lon="13.2870138"><ele>1322.0</ele><time>2026-04-26T07:56:09.777Z</time></trkpt><trkpt lat="42.5707515" lon="13.2868439"><ele>1319.0</ele><time>2026-04-26T07:56:10.776Z</time></trkpt><trkpt lat="42.5707721" lon="13.2866621"><ele>1316.0</ele><time>2026-04-26T07:56:11.777Z</time></trkpt><trkpt lat="42.5707606" lon="13.2864693"><ele>1313.0</ele><time>2026-04-26T07:56:12.776Z</time></trkpt><trkpt lat="42.5707252" lon="13.2862771"><ele>1311.75</ele><time>2026-04-26T07:56:13.776Z</time></trkpt><trkpt lat="42.5707023" lon="13.2860971"><ele>1310.5</ele><time>2026-04-26T07:56:14.777Z</time></trkpt><trkpt lat="42.5707086" lon="13.2859212"><ele>1309.25</ele><time>2026-04-26T07:56:15.777Z</time></trkpt><trkpt lat="42.5707398" lon="13.2857449"><ele>1308.0</ele><time>2026-04-26T07:56:16.776Z</time></trkpt><trkpt lat="42.5708031" lon="13.2855688"><ele>1303.3333333333333</ele><time>2026-04-26T07:56:17.776Z</time></trkpt><trkpt lat="42.5708908" lon="13.2853966"><ele>1298.6666666666665</ele><time>2026-04-26T07:56:18.777Z</time></trkpt><trkpt lat="42.5710078" lon="13.2852339"><ele>1294.0</ele><time>2026-04-26T07:56:19.777Z</time></trkpt><trkpt lat="42.5711293" lon="13.2850669"><ele>1293.3333333333333</ele><time>2026-04-26T07:56:20.777Z</time></trkpt><trkpt lat="42.5712434" lon="13.2848943"><ele>1292.6666666666667</ele><time>2026-04-26T07:56:21.776Z</time></trkpt><trkpt lat="42.5713527" lon="13.2847118"><ele>1292.0</ele><time>2026-04-26T07:56:22.777Z</time></trkpt><trkpt lat="42.5714594" lon="13.2845424"><ele>1292.0</ele><time>2026-04-26T07:56:23.776Z</time></trkpt><trkpt lat="42.5715722" lon="13.2843974"><ele>1292.0</ele><time>2026-04-26T07:56:24.777Z</time></trkpt><trkpt lat="42.5717004" lon="13.2842753"><ele>1292.0</ele><time>2026-04-26T07:56:25.777Z</time></trkpt><trkpt lat="42.5718437" lon="13.2841668"><ele>1292.0</ele><time>2026-04-26T07:56:26.776Z</time></trkpt><trkpt lat="42.5719899" lon="13.2840617"><ele>1292.0</ele><time>2026-04-26T07:56:27.776Z</time></trkpt><trkpt lat="42.5721284" lon="13.283938"><ele>1292.0</ele><time>2026-04-26T07:56:28.777Z</time></trkpt><trkpt lat="42.5722562" lon="13.2838046"><ele>1288.0</ele><time>2026-04-26T07:56:29.775Z</time></trkpt><trkpt lat="42.5723696" lon="13.2836839"><ele>1284.0</ele><time>2026-04-26T07:56:30.775Z</time></trkpt><trkpt lat="42.5724816" lon="13.2835779"><ele>1280.0</ele><time>2026-04-26T07:56:31.776Z</time></trkpt><trkpt lat="42.5725993" lon="13.2835066"><ele>1276.0</ele><time>2026-04-26T07:56:32.776Z</time></trkpt><trkpt lat="42.5727206" lon="13.283477"><ele>1276.0</ele><time>2026-04-26T07:56:33.777Z</time></trkpt><trkpt lat="42.5728459" lon="13.2834771"><ele>1276.0</ele><time>2026-04-26T07:56:34.776Z</time></trkpt><trkpt lat="42.5729687" lon="13.2834817"><ele>1276.0</ele><time>2026-04-26T07:56:35.777Z</time></trkpt><trkpt lat="42.5730984" lon="13.2834284"><ele>1276.0</ele><time>2026-04-26T07:56:36.776Z</time></trkpt><trkpt lat="42.5732255" lon="13.2833312"><ele>1278.75</ele><time>2026-04-26T07:56:37.776Z</time></trkpt><trkpt lat="42.5733333" lon="13.2831962"><ele>1281.5</ele><time>2026-04-26T07:56:38.775Z</time></trkpt><trkpt lat="42.5734372" lon="13.2830584"><ele>1284.25</ele><time>2026-04-26T07:56:39.776Z</time></trkpt><trkpt lat="42.5735489" lon="13.2829543"><ele>1287.0</ele><time>2026-04-26T07:56:40.775Z</time></trkpt><trkpt lat="42.5736502" lon="13.2828707"><ele>1289.5</ele><time>2026-04-26T07:56:41.777Z</time></trkpt><trkpt lat="42.5737263" lon="13.2827649"><ele>1292.0</ele><time>2026-04-26T07:56:42.777Z</time></trkpt><trkpt lat="42.5737735" lon="13.2826289"><ele>1294.5</ele><time>2026-04-26T07:56:43.777Z</time></trkpt><trkpt lat="42.573783" lon="13.2824576"><ele>1297.0</ele><time>2026-04-26T07:56:44.776Z</time></trkpt><trkpt lat="42.5737584" lon="13.2822772"><ele>1296.6666666666665</ele><time>2026-04-26T07:56:45.776Z</time></trkpt><trkpt lat="42.5737134" lon="13.2820793"><ele>1296.3333333333333</ele><time>2026-04-26T07:56:46.775Z</time></trkpt><trkpt lat="42.5736638" lon="13.2818807"><ele>1296.0</ele><time>2026-04-26T07:56:47.776Z</time></trkpt><trkpt lat="42.5736184" lon="13.2816786"><ele>1282.0</ele><time>2026-04-26T07:56:48.776Z</time></trkpt><trkpt lat="42.5735827" lon="13.2814586"><ele>1268.0</ele><time>2026-04-26T07:56:49.777Z</time></trkpt><trkpt lat="42.5735609" lon="13.2812272"><ele>1254.0</ele><time>2026-04-26T07:56:50.775Z</time></trkpt><trkpt lat="42.5735505" lon="13.2810065"><ele>1253.3333333333333</ele><time>2026-04-26T07:56:51.776Z</time></trkpt><trkpt lat="42.5735462" lon="13.2807868"><ele>1252.6666666666665</ele><time>2026-04-26T07:56:52.775Z</time></trkpt><trkpt lat="42.5735412" lon="13.2805784"><ele>1252.0</ele><time>2026-04-26T07:56:53.776Z</time></trkpt><trkpt lat="42.5735297" lon="13.2803919"><ele>1251.4</ele><time>2026-04-26T07:56:54.775Z</time></trkpt><trkpt lat="42.5735322" lon="13.2802334"><ele>1250.8000000000002</ele><time>2026-04-26T07:56:55.776Z</time></trkpt><trkpt lat="42.5735537" lon="13.2801021"><ele>1250.2</ele><time>2026-04-26T07:56:56.775Z</time></trkpt><trkpt lat="42.5736014" lon="13.2799968"><ele>1249.6000000000001</ele><time>2026-04-26T07:56:57.777Z</time></trkpt><trkpt lat="42.5736714" lon="13.2799206"><ele>1249.0</ele><time>2026-04-26T07:56:58.776Z</time></trkpt><trkpt lat="42.5737677" lon="13.2798821"><ele>1253.0</ele><time>2026-04-26T07:56:59.777Z</time></trkpt><trkpt lat="42.5738863" lon="13.2798812"><ele>1257.0</ele><time>2026-04-26T07:57:00.777Z</time></trkpt><trkpt lat="42.5740137" lon="13.2799006"><ele>1261.0</ele><time>2026-04-26T07:57:01.775Z</time></trkpt><trkpt lat="42.5741444" lon="13.279927"><ele>1265.0</ele><time>2026-04-26T07:57:02.775Z</time></trkpt><trkpt lat="42.5742678" lon="13.2799286"><ele>1265.0</ele><time>2026-04-26T07:57:03.776Z</time></trkpt><trkpt lat="42.5743872" lon="13.2798822"><ele>1265.0</ele><time>2026-04-26T07:57:04.777Z</time></trkpt><trkpt lat="42.5745021" lon="13.2797819"><ele>1265.0</ele><time>2026-04-26T07:57:05.777Z</time></trkpt><trkpt lat="42.5746025" lon="13.2796532"><ele>1265.0</ele><time>2026-04-26T07:57:06.777Z</time></trkpt><trkpt lat="42.5746918" lon="13.2795142"><ele>1261.6</ele><time>2026-04-26T07:57:07.776Z</time></trkpt><trkpt lat="42.5747871" lon="13.2793887"><ele>1258.2</ele><time>2026-04-26T07:57:08.776Z</time></trkpt><trkpt lat="42.5748813" lon="13.279296"><ele>1254.8</ele><time>2026-04-26T07:57:09.775Z</time></trkpt><trkpt lat="42.5749524" lon="13.2792162"><ele>1251.4</ele><time>2026-04-26T07:57:10.775Z</time></trkpt><trkpt lat="42.5749893" lon="13.2791277"><ele>1248.0</ele><time>2026-04-26T07:57:11.776Z</time></trkpt><trkpt lat="42.5749824" lon="13.27904"><ele>1248.0</ele><time>2026-04-26T07:57:12.776Z</time></trkpt><trkpt lat="42.5748781" lon="13.2789801"><ele>1248.0</ele><time>2026-04-26T07:57:14.776Z</time></trkpt><trkpt lat="42.5747969" lon="13.2790264"><ele>1248.0</ele><time>2026-04-26T07:57:15.776Z</time></trkpt><trkpt lat="42.5747196" lon="13.279124"><ele>1248.0</ele><time>2026-04-26T07:57:16.776Z</time></trkpt><trkpt lat="42.5746338" lon="13.2792496"><ele>1248.0</ele><time>2026-04-26T07:57:17.775Z</time></trkpt><trkpt lat="42.5745489" lon="13.279379"><ele>1245.25</ele><time>2026-04-26T07:57:18.776Z</time></trkpt><trkpt lat="42.5744524" lon="13.279486"><ele>1242.5</ele><time>2026-04-26T07:57:19.776Z</time></trkpt><trkpt lat="42.5743533" lon="13.279555"><ele>1239.75</ele><time>2026-04-26T07:57:20.777Z</time></trkpt><trkpt lat="42.5742496" lon="13.2795771"><ele>1237.0</ele><time>2026-04-26T07:57:21.777Z</time></trkpt><trkpt lat="42.5741317" lon="13.2795589"><ele>1237.0</ele><time>2026-04-26T07:57:22.777Z</time></trkpt><trkpt lat="42.5740066" lon="13.2795024"><ele>1237.0</ele><time>2026-04-26T07:57:23.776Z</time></trkpt><trkpt lat="42.5738683" lon="13.2794385"><ele>1237.0</ele><time>2026-04-26T07:57:24.776Z</time></trkpt><trkpt lat="42.5737271" lon="13.2793742"><ele>1237.0</ele><time>2026-04-26T07:57:25.776Z</time></trkpt><trkpt lat="42.5735878" lon="13.2793159"><ele>1237.25</ele><time>2026-04-26T07:57:26.775Z</time></trkpt><trkpt lat="42.5734443" lon="13.2792596"><ele>1237.5</ele><time>2026-04-26T07:57:27.776Z</time></trkpt><trkpt lat="42.5733022" lon="13.279202"><ele>1237.75</ele><time>2026-04-26T07:57:28.776Z</time></trkpt><trkpt lat="42.5731701" lon="13.2791529"><ele>1238.0</ele><time>2026-04-26T07:57:29.776Z</time></trkpt><trkpt lat="42.5730618" lon="13.2790947"><ele>1238.0</ele><time>2026-04-26T07:57:30.776Z</time></trkpt><trkpt lat="42.5729826" lon="13.27902"><ele>1238.0</ele><time>2026-04-26T07:57:31.775Z</time></trkpt><trkpt lat="42.5729317" lon="13.2789236"><ele>1238.0</ele><time>2026-04-26T07:57:32.776Z</time></trkpt><trkpt lat="42.5729188" lon="13.2788086"><ele>1238.0</ele><time>2026-04-26T07:57:33.776Z</time></trkpt><trkpt lat="42.5729355" lon="13.2786635"><ele>1238.0</ele><time>2026-04-26T07:57:34.776Z</time></trkpt><trkpt lat="42.572969" lon="13.2785136"><ele>1234.6</ele><time>2026-04-26T07:57:35.776Z</time></trkpt><trkpt lat="42.5729884" lon="13.2783768"><ele>1231.1999999999998</ele><time>2026-04-26T07:57:36.776Z</time></trkpt><trkpt lat="42.5729782" lon="13.2782425"><ele>1227.8</ele><time>2026-04-26T07:57:37.776Z</time></trkpt><trkpt lat="42.5729247" lon="13.2781099"><ele>1224.3999999999999</ele><time>2026-04-26T07:57:38.777Z</time></trkpt><trkpt lat="42.5728456" lon="13.2780087"><ele>1221.0</ele><time>2026-04-26T07:57:39.775Z</time></trkpt><trkpt lat="42.5727587" lon="13.2779391"><ele>1222.3999999999999</ele><time>2026-04-26T07:57:40.776Z</time></trkpt><trkpt lat="42.5726587" lon="13.2779084"><ele>1223.8</ele><time>2026-04-26T07:57:41.776Z</time></trkpt><trkpt lat="42.5725579" lon="13.2779221"><ele>1225.1999999999998</ele><time>2026-04-26T07:57:42.776Z</time></trkpt><trkpt lat="42.5724722" lon="13.2779737"><ele>1226.6</ele><time>2026-04-26T07:57:43.775Z</time></trkpt><trkpt lat="42.572403" lon="13.2780742"><ele>1228.0</ele><time>2026-04-26T07:57:44.777Z</time></trkpt><trkpt lat="42.572358" lon="13.2782118"><ele>1228.0</ele><time>2026-04-26T07:57:45.777Z</time></trkpt><trkpt lat="42.5723456" lon="13.2783419"><ele>1228.0</ele><time>2026-04-26T07:57:46.777Z</time></trkpt><trkpt lat="42.5723383" lon="13.2784613"><ele>1228.0</ele><time>2026-04-26T07:57:47.775Z</time></trkpt><trkpt lat="42.5723222" lon="13.2785592"><ele>1228.0</ele><time>2026-04-26T07:57:48.776Z</time></trkpt><trkpt lat="42.5722361" lon="13.2786615"><ele>1228.0</ele><time>2026-04-26T07:57:50.776Z</time></trkpt><trkpt lat="42.5721639" lon="13.2785669"><ele>1228.0</ele><time>2026-04-26T07:57:52.777Z</time></trkpt><trkpt lat="42.5721625" lon="13.2784549"><ele>1228.0</ele><time>2026-04-26T07:57:53.775Z</time></trkpt><trkpt lat="42.5721818" lon="13.2783253"><ele>1228.0</ele><time>2026-04-26T07:57:54.777Z</time></trkpt><trkpt lat="42.5722071" lon="13.2781821"><ele>1228.0</ele><time>2026-04-26T07:57:55.775Z</time></trkpt><trkpt lat="42.5722376" lon="13.2780364"><ele>1228.0</ele><time>2026-04-26T07:57:56.776Z</time></trkpt><trkpt lat="42.5722659" lon="13.277903"><ele>1224.4</ele><time>2026-04-26T07:57:57.777Z</time></trkpt><trkpt lat="42.572298" lon="13.2777793"><ele>1220.8</ele><time>2026-04-26T07:57:58.775Z</time></trkpt><trkpt lat="42.5723502" lon="13.277672"><ele>1217.2</ele><time>2026-04-26T07:57:59.776Z</time></trkpt><trkpt lat="42.5724281" lon="13.2775877"><ele>1213.6</ele><time>2026-04-26T07:58:00.776Z</time></trkpt><trkpt lat="42.5725171" lon="13.2775249"><ele>1210.0</ele><time>2026-04-26T07:58:01.776Z</time></trkpt><trkpt lat="42.5726081" lon="13.2774754"><ele>1210.0</ele><time>2026-04-26T07:58:02.776Z</time></trkpt><trkpt lat="42.5726984" lon="13.2774323"><ele>1210.0</ele><time>2026-04-26T07:58:03.777Z</time></trkpt><trkpt lat="42.572795" lon="13.2774104"><ele>1210.0</ele><time>2026-04-26T07:58:04.776Z</time></trkpt><trkpt lat="42.5728857" lon="13.2774142"><ele>1210.0</ele><time>2026-04-26T07:58:05.776Z</time></trkpt><trkpt lat="42.5729697" lon="13.2774581"><ele>1210.0</ele><time>2026-04-26T07:58:06.777Z</time></trkpt><trkpt lat="42.5730412" lon="13.2775187"><ele>1209.1666666666665</ele><time>2026-04-26T07:58:07.776Z</time></trkpt><trkpt lat="42.5731052" lon="13.2775899"><ele>1208.3333333333333</ele><time>2026-04-26T07:58:08.776Z</time></trkpt><trkpt lat="42.5731559" lon="13.2776584"><ele>1207.5</ele><time>2026-04-26T07:58:09.777Z</time></trkpt><trkpt lat="42.5732055" lon="13.2777194"><ele>1206.6666666666667</ele><time>2026-04-26T07:58:10.776Z</time></trkpt><trkpt lat="42.5732634" lon="13.2777637"><ele>1205.8333333333335</ele><time>2026-04-26T07:58:11.777Z</time></trkpt><trkpt lat="42.5733283" lon="13.2777712"><ele>1205.0</ele><time>2026-04-26T07:58:12.777Z</time></trkpt><trkpt lat="42.573407" lon="13.2776374"><ele>1205.0</ele><time>2026-04-26T07:58:14.777Z</time></trkpt><trkpt lat="42.5733992" lon="13.2775204"><ele>1205.0</ele><time>2026-04-26T07:58:15.777Z</time></trkpt><trkpt lat="42.5733574" lon="13.2773982"><ele>1205.0</ele><time>2026-04-26T07:58:16.776Z</time></trkpt><trkpt lat="42.5732858" lon="13.2772883"><ele>1205.0</ele><time>2026-04-26T07:58:17.775Z</time></trkpt><trkpt lat="42.5731988" lon="13.2771983"><ele>1205.0</ele><time>2026-04-26T07:58:18.775Z</time></trkpt><trkpt lat="42.5731085" lon="13.2771203"><ele>1201.0</ele><time>2026-04-26T07:58:19.777Z</time></trkpt><trkpt lat="42.573009" lon="13.277051"><ele>1197.0</ele><time>2026-04-26T07:58:20.775Z</time></trkpt><trkpt lat="42.5729039" lon="13.277009"><ele>1193.0</ele><time>2026-04-26T07:58:21.776Z</time></trkpt><trkpt lat="42.572799" lon="13.2769973"><ele>1189.0</ele><time>2026-04-26T07:58:22.774Z</time></trkpt><trkpt lat="42.5726964" lon="13.2770096"><ele>1185.0</ele><time>2026-04-26T07:58:23.775Z</time></trkpt><trkpt lat="42.5725989" lon="13.277033"><ele>1185.0</ele><time>2026-04-26T07:58:24.776Z</time></trkpt><trkpt lat="42.5725017" lon="13.2770568"><ele>1185.0</ele><time>2026-04-26T07:58:25.776Z</time></trkpt><trkpt lat="42.572396" lon="13.2770574"><ele>1185.0</ele><time>2026-04-26T07:58:26.775Z</time></trkpt><trkpt lat="42.5722918" lon="13.2770327"><ele>1185.0</ele><time>2026-04-26T07:58:27.776Z</time></trkpt><trkpt lat="42.5721853" lon="13.2769822"><ele>1185.0</ele><time>2026-04-26T07:58:28.774Z</time></trkpt><trkpt lat="42.572092" lon="13.2769041"><ele>1184.8</ele><time>2026-04-26T07:58:29.775Z</time></trkpt><trkpt lat="42.5720045" lon="13.2768091"><ele>1184.6</ele><time>2026-04-26T07:58:30.776Z</time></trkpt><trkpt lat="42.5719117" lon="13.2767274"><ele>1184.4</ele><time>2026-04-26T07:58:31.774Z</time></trkpt><trkpt lat="42.5718147" lon="13.2766631"><ele>1184.2</ele><time>2026-04-26T07:58:32.774Z</time></trkpt><trkpt lat="42.5717125" lon="13.2766272"><ele>1184.0</ele><time>2026-04-26T07:58:33.775Z</time></trkpt><trkpt lat="42.5716145" lon="13.2766383"><ele>1184.0</ele><time>2026-04-26T07:58:34.776Z</time></trkpt><trkpt lat="42.5715358" lon="13.2767015"><ele>1184.0</ele><time>2026-04-26T07:58:35.775Z</time></trkpt><trkpt lat="42.5714955" lon="13.2768026"><ele>1184.0</ele><time>2026-04-26T07:58:36.775Z</time></trkpt><trkpt lat="42.5715009" lon="13.2769095"><ele>1184.0</ele><time>2026-04-26T07:58:37.774Z</time></trkpt><trkpt lat="42.5715451" lon="13.2770037"><ele>1184.0</ele><time>2026-04-26T07:58:38.776Z</time></trkpt><trkpt lat="42.5716064" lon="13.2770831"><ele>1184.0</ele><time>2026-04-26T07:58:39.775Z</time></trkpt><trkpt lat="42.5716541" lon="13.2771658"><ele>1185.8</ele><time>2026-04-26T07:58:40.774Z</time></trkpt><trkpt lat="42.5716801" lon="13.2772745"><ele>1187.6000000000001</ele><time>2026-04-26T07:58:41.776Z</time></trkpt><trkpt lat="42.5716814" lon="13.2774008"><ele>1189.4</ele><time>2026-04-26T07:58:42.776Z</time></trkpt><trkpt lat="42.5716593" lon="13.2775331"><ele>1191.2</ele><time>2026-04-26T07:58:43.775Z</time></trkpt><trkpt lat="42.5716229" lon="13.2776513"><ele>1193.0</ele><time>2026-04-26T07:58:44.776Z</time></trkpt><trkpt lat="42.5715801" lon="13.2777696"><ele>1193.0</ele><time>2026-04-26T07:58:45.776Z</time></trkpt><trkpt lat="42.5715452" lon="13.2778844"><ele>1193.0</ele><time>2026-04-26T07:58:46.775Z</time></trkpt><trkpt lat="42.5715157" lon="13.2779991"><ele>1193.0</ele><time>2026-04-26T07:58:47.775Z</time></trkpt><trkpt lat="42.5714934" lon="13.2781145"><ele>1193.0</ele><time>2026-04-26T07:58:48.775Z</time></trkpt><trkpt lat="42.5714762" lon="13.27823"><ele>1193.0</ele><time>2026-04-26T07:58:49.774Z</time></trkpt><trkpt lat="42.571462" lon="13.2783481"><ele>1193.0</ele><time>2026-04-26T07:58:50.775Z</time></trkpt><trkpt lat="42.5714444" lon="13.2784606"><ele>1193.5</ele><time>2026-04-26T07:58:51.775Z</time></trkpt><trkpt lat="42.5714176" lon="13.27855"><ele>1194.0</ele><time>2026-04-26T07:58:52.776Z</time></trkpt><trkpt lat="42.5713691" lon="13.2786128"><ele>1194.5</ele><time>2026-04-26T07:58:53.776Z</time></trkpt><trkpt lat="42.5712668" lon="13.278594"><ele>1195.0</ele><time>2026-04-26T07:58:55.774Z</time></trkpt><trkpt lat="42.5712421" lon="13.2785147"><ele>1195.5</ele><time>2026-04-26T07:58:56.774Z</time></trkpt><trkpt lat="42.5712405" lon="13.2783951"><ele>1196.0</ele><time>2026-04-26T07:58:57.776Z</time></trkpt><trkpt lat="42.5712619" lon="13.278259"><ele>1196.0</ele><time>2026-04-26T07:58:58.776Z</time></trkpt><trkpt lat="42.5712941" lon="13.2781103"><ele>1196.0</ele><time>2026-04-26T07:58:59.774Z</time></trkpt><trkpt lat="42.5713265" lon="13.2779547"><ele>1196.0</ele><time>2026-04-26T07:59:00.776Z</time></trkpt><trkpt lat="42.5713545" lon="13.2778049"><ele>1196.0</ele><time>2026-04-26T07:59:01.775Z</time></trkpt><trkpt lat="42.5713749" lon="13.2776598"><ele>1195.3999999999999</ele><time>2026-04-26T07:59:02.774Z</time></trkpt><trkpt lat="42.5713742" lon="13.2775173"><ele>1194.8</ele><time>2026-04-26T07:59:03.774Z</time></trkpt><trkpt lat="42.5713408" lon="13.2773869"><ele>1194.1999999999998</ele><time>2026-04-26T07:59:04.776Z</time></trkpt><trkpt lat="42.5712735" lon="13.2772864"><ele>1193.6</ele><time>2026-04-26T07:59:05.775Z</time></trkpt><trkpt lat="42.5711853" lon="13.2772315"><ele>1193.0</ele><time>2026-04-26T07:59:06.776Z</time></trkpt><trkpt lat="42.5710947" lon="13.2771957"><ele>1188.0</ele><time>2026-04-26T07:59:07.775Z</time></trkpt><trkpt lat="42.5710079" lon="13.2771639"><ele>1183.0</ele><time>2026-04-26T07:59:08.775Z</time></trkpt><trkpt lat="42.5709464" lon="13.2770876"><ele>1178.0</ele><time>2026-04-26T07:59:09.775Z</time></trkpt><trkpt lat="42.5709129" lon="13.2769878"><ele>1173.0</ele><time>2026-04-26T07:59:10.775Z</time></trkpt><trkpt lat="42.5709143" lon="13.2768667"><ele>1168.0</ele><time>2026-04-26T07:59:11.775Z</time></trkpt><trkpt lat="42.5709355" lon="13.2767434"><ele>1163.0</ele><time>2026-04-26T07:59:12.775Z</time></trkpt><trkpt lat="42.570962" lon="13.2766213"><ele>1163.0</ele><time>2026-04-26T07:59:13.776Z</time></trkpt><trkpt lat="42.5709859" lon="13.2764827"><ele>1163.0</ele><time>2026-04-26T07:59:14.774Z</time></trkpt><trkpt lat="42.5710069" lon="13.2763415"><ele>1163.0</ele><time>2026-04-26T07:59:15.775Z</time></trkpt><trkpt lat="42.5710219" lon="13.2762016"><ele>1163.0</ele><time>2026-04-26T07:59:16.776Z</time></trkpt><trkpt lat="42.5710637" lon="13.2760706"><ele>1163.0</ele><time>2026-04-26T07:59:17.775Z</time></trkpt><trkpt lat="42.5711354" lon="13.2759681"><ele>1161.25</ele><time>2026-04-26T07:59:18.776Z</time></trkpt><trkpt lat="42.5712333" lon="13.2758897"><ele>1159.5</ele><time>2026-04-26T07:59:19.776Z</time></trkpt><trkpt lat="42.5713463" lon="13.2758286"><ele>1157.75</ele><time>2026-04-26T07:59:20.775Z</time></trkpt><trkpt lat="42.571456" lon="13.2757912"><ele>1156.0</ele><time>2026-04-26T07:59:21.774Z</time></trkpt><trkpt lat="42.5715688" lon="13.2757709"><ele>1156.0</ele><time>2026-04-26T07:59:22.775Z</time></trkpt><trkpt lat="42.5716755" lon="13.2757693"><ele>1156.0</ele><time>2026-04-26T07:59:23.776Z</time></trkpt><trkpt lat="42.5717798" lon="13.2757823"><ele>1156.0</ele><time>2026-04-26T07:59:24.775Z</time></trkpt><trkpt lat="42.5718803" lon="13.2758196"><ele>1156.0</ele><time>2026-04-26T07:59:25.775Z</time></trkpt><trkpt lat="42.5719812" lon="13.2758613"><ele>1156.0</ele><time>2026-04-26T07:59:26.775Z</time></trkpt><trkpt lat="42.572084" lon="13.2758733"><ele>1157.3999999999999</ele><time>2026-04-26T07:59:27.775Z</time></trkpt><trkpt lat="42.5721879" lon="13.2758492"><ele>1158.8</ele><time>2026-04-26T07:59:28.774Z</time></trkpt><trkpt lat="42.572281" lon="13.2757825"><ele>1160.1999999999998</ele><time>2026-04-26T07:59:29.774Z</time></trkpt><trkpt lat="42.5723495" lon="13.2756826"><ele>1161.6</ele><time>2026-04-26T07:59:30.776Z</time></trkpt><trkpt lat="42.5724026" lon="13.2755591"><ele>1163.0</ele><time>2026-04-26T07:59:31.774Z</time></trkpt><trkpt lat="42.5724418" lon="13.2754091"><ele>1159.25</ele><time>2026-04-26T07:59:32.774Z</time></trkpt><trkpt lat="42.5724632" lon="13.2752374"><ele>1155.5</ele><time>2026-04-26T07:59:33.776Z</time></trkpt><trkpt lat="42.5724728" lon="13.2750528"><ele>1151.75</ele><time>2026-04-26T07:59:34.776Z</time></trkpt><trkpt lat="42.5724801" lon="13.2748639"><ele>1148.0</ele><time>2026-04-26T07:59:35.774Z</time></trkpt><trkpt lat="42.5725033" lon="13.2746706"><ele>1143.75</ele><time>2026-04-26T07:59:36.776Z</time></trkpt><trkpt lat="42.5725462" lon="13.2744983"><ele>1139.5</ele><time>2026-04-26T07:59:37.775Z</time></trkpt><trkpt lat="42.5726035" lon="13.274335"><ele>1135.25</ele><time>2026-04-26T07:59:38.774Z</time></trkpt><trkpt lat="42.5726592" lon="13.274181"><ele>1131.0</ele><time>2026-04-26T07:59:39.775Z</time></trkpt><trkpt lat="42.5727026" lon="13.2740241"><ele>1128.25</ele><time>2026-04-26T07:59:40.775Z</time></trkpt><trkpt lat="42.5727185" lon="13.2738607"><ele>1125.5</ele><time>2026-04-26T07:59:41.775Z</time></trkpt><trkpt lat="42.5727104" lon="13.2736962"><ele>1122.75</ele><time>2026-04-26T07:59:42.775Z</time></trkpt><trkpt lat="42.5726797" lon="13.2735389"><ele>1120.0</ele><time>2026-04-26T07:59:43.774Z</time></trkpt><trkpt lat="42.5726376" lon="13.2733913"><ele>1120.0</ele><time>2026-04-26T07:59:44.775Z</time></trkpt><trkpt lat="42.5726291" lon="13.2732524"><ele>1120.0</ele><time>2026-04-26T07:59:45.775Z</time></trkpt><trkpt lat="42.572651" lon="13.2731178"><ele>1120.0</ele><time>2026-04-26T07:59:46.775Z</time></trkpt><trkpt lat="42.5727028" lon="13.2729943"><ele>1120.0</ele><time>2026-04-26T07:59:47.775Z</time></trkpt><trkpt lat="42.5727582" lon="13.2728671"><ele>1120.0</ele><time>2026-04-26T07:59:48.775Z</time></trkpt><trkpt lat="42.5728127" lon="13.2727352"><ele>1119.4</ele><time>2026-04-26T07:59:49.776Z</time></trkpt><trkpt lat="42.5728429" lon="13.2725962"><ele>1118.8</ele><time>2026-04-26T07:59:50.775Z</time></trkpt><trkpt lat="42.5728399" lon="13.2724507"><ele>1118.2</ele><time>2026-04-26T07:59:51.776Z</time></trkpt><trkpt lat="42.5728179" lon="13.2723024"><ele>1117.6</ele><time>2026-04-26T07:59:52.776Z</time></trkpt><trkpt lat="42.5727836" lon="13.2721581"><ele>1117.0</ele><time>2026-04-26T07:59:53.775Z</time></trkpt><trkpt lat="42.5727305" lon="13.2720203"><ele>1117.0</ele><time>2026-04-26T07:59:54.775Z</time></trkpt><trkpt lat="42.5726471" lon="13.2718834"><ele>1117.0</ele><time>2026-04-26T07:59:55.776Z</time></trkpt><trkpt lat="42.5725451" lon="13.2717682"><ele>1117.0</ele><time>2026-04-26T07:59:56.776Z</time></trkpt><trkpt lat="42.5724398" lon="13.2716656"><ele>1117.0</ele><time>2026-04-26T07:59:57.774Z</time></trkpt><trkpt lat="42.5723346" lon="13.2715684"><ele>1117.0</ele><time>2026-04-26T07:59:58.776Z</time></trkpt><trkpt lat="42.5722476" lon="13.2714467"><ele>1117.0</ele><time>2026-04-26T07:59:59.775Z</time></trkpt><trkpt lat="42.5721845" lon="13.2712986"><ele>1117.0</ele><time>2026-04-26T08:00:00.776Z</time></trkpt><trkpt lat="42.5721183" lon="13.271141"><ele>1117.0</ele><time>2026-04-26T08:00:01.776Z</time></trkpt><trkpt lat="42.5720237" lon="13.2710004"><ele>1114.3333333333333</ele><time>2026-04-26T08:00:02.776Z</time></trkpt><trkpt lat="42.571904" lon="13.2708726"><ele>1111.6666666666667</ele><time>2026-04-26T08:00:03.775Z</time></trkpt><trkpt lat="42.5717604" lon="13.2707652"><ele>1109.0</ele><time>2026-04-26T08:00:04.776Z</time></trkpt><trkpt lat="42.5716022" lon="13.2706701"><ele>1108.3333333333335</ele><time>2026-04-26T08:00:05.776Z</time></trkpt><trkpt lat="42.5714464" lon="13.2705753"><ele>1107.6666666666667</ele><time>2026-04-26T08:00:06.775Z</time></trkpt><trkpt lat="42.5712923" lon="13.27046"><ele>1107.0</ele><time>2026-04-26T08:00:07.774Z</time></trkpt><trkpt lat="42.5711455" lon="13.2703179"><ele>1107.0</ele><time>2026-04-26T08:00:08.776Z</time></trkpt><trkpt lat="42.5710013" lon="13.2701736"><ele>1107.0</ele><time>2026-04-26T08:00:09.775Z</time></trkpt><trkpt lat="42.5708506" lon="13.2700443"><ele>1107.0</ele><time>2026-04-26T08:00:10.776Z</time></trkpt><trkpt lat="42.5707095" lon="13.2699136"><ele>1107.0</ele><time>2026-04-26T08:00:11.776Z</time></trkpt><trkpt lat="42.5705726" lon="13.2697775"><ele>1107.0</ele><time>2026-04-26T08:00:12.776Z</time></trkpt><trkpt lat="42.5704529" lon="13.2696265"><ele>1107.0</ele><time>2026-04-26T08:00:13.775Z</time></trkpt><trkpt lat="42.5703337" lon="13.2694832"><ele>1106.0</ele><time>2026-04-26T08:00:14.774Z</time></trkpt><trkpt lat="42.5701889" lon="13.2693749"><ele>1105.0</ele><time>2026-04-26T08:00:15.775Z</time></trkpt><trkpt lat="42.5700376" lon="13.2692921"><ele>1104.0</ele><time>2026-04-26T08:00:16.776Z</time></trkpt><trkpt lat="42.569881" lon="13.2692577"><ele>1104.0</ele><time>2026-04-26T08:00:17.775Z</time></trkpt><trkpt lat="42.5697294" lon="13.2692708"><ele>1104.0</ele><time>2026-04-26T08:00:18.776Z</time></trkpt><trkpt lat="42.5695801" lon="13.2693057"><ele>1104.0</ele><time>2026-04-26T08:00:19.776Z</time></trkpt><trkpt lat="42.5694345" lon="13.2693223"><ele>1104.0</ele><time>2026-04-26T08:00:20.774Z</time></trkpt><trkpt lat="42.5692839" lon="13.2692952"><ele>1102.0</ele><time>2026-04-26T08:00:21.774Z</time></trkpt><trkpt lat="42.5691354" lon="13.2692302"><ele>1100.0</ele><time>2026-04-26T08:00:22.776Z</time></trkpt><trkpt lat="42.5689747" lon="13.2691692"><ele>1098.0</ele><time>2026-04-26T08:00:23.774Z</time></trkpt><trkpt lat="42.5688217" lon="13.269151"><ele>1097.0</ele><time>2026-04-26T08:00:24.775Z</time></trkpt><trkpt lat="42.5686829" lon="13.2691435"><ele>1096.0</ele><time>2026-04-26T08:00:25.775Z</time></trkpt><trkpt lat="42.5685555" lon="13.2691078"><ele>1095.0</ele><time>2026-04-26T08:00:26.776Z</time></trkpt><trkpt lat="42.5684395" lon="13.2690422"><ele>1094.0</ele><time>2026-04-26T08:00:27.776Z</time></trkpt><trkpt lat="42.5683393" lon="13.2689346"><ele>1094.0</ele><time>2026-04-26T08:00:28.776Z</time></trkpt><trkpt lat="42.5682575" lon="13.2687836"><ele>1094.0</ele><time>2026-04-26T08:00:29.776Z</time></trkpt><trkpt lat="42.568174" lon="13.2686286"><ele>1094.0</ele><time>2026-04-26T08:00:30.776Z</time></trkpt><trkpt lat="42.56807" lon="13.2684947"><ele>1094.0</ele><time>2026-04-26T08:00:31.775Z</time></trkpt><trkpt lat="42.5679609" lon="13.2683813"><ele>1091.6666666666667</ele><time>2026-04-26T08:00:32.775Z</time></trkpt><trkpt lat="42.5678246" lon="13.2683069"><ele>1089.3333333333333</ele><time>2026-04-26T08:00:33.776Z</time></trkpt><trkpt lat="42.567675" lon="13.2682769"><ele>1087.0</ele><time>2026-04-26T08:00:34.776Z</time></trkpt><trkpt lat="42.5675206" lon="13.2682966"><ele>1087.0</ele><time>2026-04-26T08:00:35.775Z</time></trkpt><trkpt lat="42.5673568" lon="13.2683345"><ele>1087.0</ele><time>2026-04-26T08:00:36.775Z</time></trkpt><trkpt lat="42.5671863" lon="13.268375"><ele>1087.0</ele><time>2026-04-26T08:00:37.775Z</time></trkpt><trkpt lat="42.5670145" lon="13.2684089"><ele>1085.3333333333333</ele><time>2026-04-26T08:00:38.775Z</time></trkpt><trkpt lat="42.5668424" lon="13.2684409"><ele>1083.6666666666667</ele><time>2026-04-26T08:00:39.776Z</time></trkpt><trkpt lat="42.5666751" lon="13.2684736"><ele>1082.0</ele><time>2026-04-26T08:00:40.775Z</time></trkpt><trkpt lat="42.5665069" lon="13.2685124"><ele>1082.0</ele><time>2026-04-26T08:00:41.774Z</time></trkpt><trkpt lat="42.5663372" lon="13.2685536"><ele>1082.0</ele><time>2026-04-26T08:00:42.775Z</time></trkpt><trkpt lat="42.5661651" lon="13.2685904"><ele>1082.0</ele><time>2026-04-26T08:00:43.774Z</time></trkpt><trkpt lat="42.5659839" lon="13.2686153"><ele>1081.0</ele><time>2026-04-26T08:00:44.775Z</time></trkpt><trkpt lat="42.5658031" lon="13.2686304"><ele>1080.0</ele><time>2026-04-26T08:00:45.776Z</time></trkpt><trkpt lat="42.5656256" lon="13.2686431"><ele>1079.0</ele><time>2026-04-26T08:00:46.776Z</time></trkpt><trkpt lat="42.5654573" lon="13.2686475"><ele>1077.25</ele><time>2026-04-26T08:00:47.774Z</time></trkpt><trkpt lat="42.5653011" lon="13.2686574"><ele>1075.5</ele><time>2026-04-26T08:00:48.775Z</time></trkpt><trkpt lat="42.565165" lon="13.2686671"><ele>1073.75</ele><time>2026-04-26T08:00:49.774Z</time></trkpt><trkpt lat="42.5650459" lon="13.2686679"><ele>1072.0</ele><time>2026-04-26T08:00:50.774Z</time></trkpt><trkpt lat="42.5649466" lon="13.2686575"><ele>1072.0</ele><time>2026-04-26T08:00:51.775Z</time></trkpt><trkpt lat="42.5648692" lon="13.2686115"><ele>1072.0</ele><time>2026-04-26T08:00:52.775Z</time></trkpt><trkpt lat="42.5648175" lon="13.2685319"><ele>1072.0</ele><time>2026-04-26T08:00:53.774Z</time></trkpt><trkpt lat="42.5648025" lon="13.2684305"><ele>1072.0</ele><time>2026-04-26T08:00:54.776Z</time></trkpt><trkpt lat="42.5648289" lon="13.2683163"><ele>1072.0</ele><time>2026-04-26T08:00:55.776Z</time></trkpt><trkpt lat="42.5648629" lon="13.2681922"><ele>1072.0</ele><time>2026-04-26T08:00:56.775Z</time></trkpt><trkpt lat="42.5648476" lon="13.2680506"><ele>1070.5</ele><time>2026-04-26T08:00:57.774Z</time></trkpt><trkpt lat="42.5647815" lon="13.2679125"><ele>1069.0</ele><time>2026-04-26T08:00:58.774Z</time></trkpt><trkpt lat="42.5646842" lon="13.267811"><ele>1067.5</ele><time>2026-04-26T08:00:59.775Z</time></trkpt><trkpt lat="42.5645968" lon="13.267721"><ele>1066.0</ele><time>2026-04-26T08:01:00.775Z</time></trkpt><trkpt lat="42.5645338" lon="13.2676179"><ele>1064.0</ele><time>2026-04-26T08:01:01.776Z</time></trkpt><trkpt lat="42.5644967" lon="13.267503"><ele>1062.0</ele><time>2026-04-26T08:01:02.776Z</time></trkpt><trkpt lat="42.5645021" lon="13.2673835"><ele>1060.0</ele><time>2026-04-26T08:01:03.775Z</time></trkpt><trkpt lat="42.5645493" lon="13.2672687"><ele>1058.0</ele><time>2026-04-26T08:01:04.775Z</time></trkpt><trkpt lat="42.5646306" lon="13.2671562"><ele>1056.0</ele><time>2026-04-26T08:01:05.775Z</time></trkpt><trkpt lat="42.5647121" lon="13.2670348"><ele>1056.0</ele><time>2026-04-26T08:01:06.774Z</time></trkpt><trkpt lat="42.564766" lon="13.2668939"><ele>1056.0</ele><time>2026-04-26T08:01:07.774Z</time></trkpt><trkpt lat="42.5647875" lon="13.266747"><ele>1056.0</ele><time>2026-04-26T08:01:08.775Z</time></trkpt><trkpt lat="42.5647692" lon="13.2665911"><ele>1056.0</ele><time>2026-04-26T08:01:09.774Z</time></trkpt><trkpt lat="42.5647068" lon="13.2664481"><ele>1054.6666666666667</ele><time>2026-04-26T08:01:10.775Z</time></trkpt><trkpt lat="42.5646048" lon="13.2663095"><ele>1053.3333333333335</ele><time>2026-04-26T08:01:11.775Z</time></trkpt><trkpt lat="42.5644855" lon="13.2661789"><ele>1052.0</ele><time>2026-04-26T08:01:12.774Z</time></trkpt><trkpt lat="42.5643534" lon="13.2660421"><ele>1052.0</ele><time>2026-04-26T08:01:13.774Z</time></trkpt><trkpt lat="42.5642129" lon="13.2659033"><ele>1052.0</ele><time>2026-04-26T08:01:14.775Z</time></trkpt><trkpt lat="42.5640629" lon="13.2657781"><ele>1052.0</ele><time>2026-04-26T08:01:15.776Z</time></trkpt><trkpt lat="42.5639038" lon="13.2656668"><ele>1049.3333333333335</ele><time>2026-04-26T08:01:16.775Z</time></trkpt><trkpt lat="42.5637368" lon="13.265574"><ele>1046.6666666666667</ele><time>2026-04-26T08:01:17.775Z</time></trkpt><trkpt lat="42.5635733" lon="13.2654962"><ele>1044.0</ele><time>2026-04-26T08:01:18.775Z</time></trkpt><trkpt lat="42.5634107" lon="13.2654225"><ele>1042.6666666666667</ele><time>2026-04-26T08:01:19.775Z</time></trkpt><trkpt lat="42.5632559" lon="13.2653451"><ele>1041.3333333333335</ele><time>2026-04-26T08:01:20.774Z</time></trkpt><trkpt lat="42.5631071" lon="13.265278"><ele>1040.0</ele><time>2026-04-26T08:01:21.776Z</time></trkpt><trkpt lat="42.5629512" lon="13.2652384"><ele>1037.3333333333335</ele><time>2026-04-26T08:01:22.776Z</time></trkpt><trkpt lat="42.5627994" lon="13.2652417"><ele>1034.6666666666667</ele><time>2026-04-26T08:01:23.776Z</time></trkpt><trkpt lat="42.5626447" lon="13.2652872"><ele>1032.0</ele><time>2026-04-26T08:01:24.775Z</time></trkpt><trkpt lat="42.562497" lon="13.265363"><ele>1032.0</ele><time>2026-04-26T08:01:25.776Z</time></trkpt><trkpt lat="42.562357" lon="13.2654519"><ele>1032.0</ele><time>2026-04-26T08:01:26.776Z</time></trkpt><trkpt lat="42.5622239" lon="13.2655403"><ele>1032.0</ele><time>2026-04-26T08:01:27.775Z</time></trkpt><trkpt lat="42.5621083" lon="13.2656259"><ele>1032.0</ele><time>2026-04-26T08:01:28.776Z</time></trkpt><trkpt lat="42.5620167" lon="13.2657153"><ele>1030.0</ele><time>2026-04-26T08:01:29.775Z</time></trkpt><trkpt lat="42.5619605" lon="13.2658194"><ele>1028.0</ele><time>2026-04-26T08:01:30.774Z</time></trkpt><trkpt lat="42.5619535" lon="13.2659383"><ele>1026.0</ele><time>2026-04-26T08:01:31.775Z</time></trkpt><trkpt lat="42.56199" lon="13.2660525"><ele>1024.0</ele><time>2026-04-26T08:01:32.776Z</time></trkpt><trkpt lat="42.5620626" lon="13.2661358"><ele>1022.0</ele><time>2026-04-26T08:01:33.775Z</time></trkpt><trkpt lat="42.5621605" lon="13.2661943"><ele>1026.0</ele><time>2026-04-26T08:01:34.775Z</time></trkpt><trkpt lat="42.5622649" lon="13.2662613"><ele>1030.0</ele><time>2026-04-26T08:01:35.775Z</time></trkpt><trkpt lat="42.5623482" lon="13.2663572"><ele>1034.0</ele><time>2026-04-26T08:01:36.776Z</time></trkpt><trkpt lat="42.5624263" lon="13.2664882"><ele>1038.0</ele><time>2026-04-26T08:01:37.774Z</time></trkpt><trkpt lat="42.5625003" lon="13.2666453"><ele>1038.0</ele><time>2026-04-26T08:01:38.774Z</time></trkpt><trkpt lat="42.5625782" lon="13.2668189"><ele>1038.0</ele><time>2026-04-26T08:01:39.775Z</time></trkpt><trkpt lat="42.5626495" lon="13.2670071"><ele>1038.0</ele><time>2026-04-26T08:01:40.774Z</time></trkpt><trkpt lat="42.5627235" lon="13.2671857"><ele>1039.25</ele><time>2026-04-26T08:01:41.774Z</time></trkpt><trkpt lat="42.562807" lon="13.2673537"><ele>1040.5</ele><time>2026-04-26T08:01:42.775Z</time></trkpt><trkpt lat="42.5629" lon="13.2674974"><ele>1041.75</ele><time>2026-04-26T08:01:43.774Z</time></trkpt><trkpt lat="42.5629928" lon="13.2676116"><ele>1043.0</ele><time>2026-04-26T08:01:44.774Z</time></trkpt><trkpt lat="42.5630727" lon="13.2677305"><ele>1043.0</ele><time>2026-04-26T08:01:45.775Z</time></trkpt><trkpt lat="42.5631304" lon="13.2678482"><ele>1043.0</ele><time>2026-04-26T08:01:46.776Z</time></trkpt><trkpt lat="42.5631453" lon="13.267968"><ele>1043.0</ele><time>2026-04-26T08:01:47.774Z</time></trkpt><trkpt lat="42.5631224" lon="13.2680698"><ele>1043.0</ele><time>2026-04-26T08:01:48.775Z</time></trkpt><trkpt lat="42.5630717" lon="13.2681304"><ele>1043.0</ele><time>2026-04-26T08:01:49.774Z</time></trkpt><trkpt lat="42.5630038" lon="13.2681386"><ele>1043.0</ele><time>2026-04-26T08:01:50.775Z</time></trkpt><trkpt lat="42.562939" lon="13.2680833"><ele>1043.0</ele><time>2026-04-26T08:01:51.776Z</time></trkpt><trkpt lat="42.5628988" lon="13.2679711"><ele>1043.0</ele><time>2026-04-26T08:01:52.774Z</time></trkpt><trkpt lat="42.5628617" lon="13.2678103"><ele>1043.0</ele><time>2026-04-26T08:01:53.775Z</time></trkpt><trkpt lat="42.5627841" lon="13.2676308"><ele>1043.0</ele><time>2026-04-26T08:01:54.773Z</time></trkpt><trkpt lat="42.562677" lon="13.2674385"><ele>1041.3333333333335</ele><time>2026-04-26T08:01:55.774Z</time></trkpt><trkpt lat="42.5625538" lon="13.2672441"><ele>1039.6666666666667</ele><time>2026-04-26T08:01:56.773Z</time></trkpt><trkpt lat="42.5624278" lon="13.2670474"><ele>1038.0</ele><time>2026-04-26T08:01:57.774Z</time></trkpt><trkpt lat="42.5623089" lon="13.2668684"><ele>1038.0</ele><time>2026-04-26T08:01:58.774Z</time></trkpt><trkpt lat="42.5621856" lon="13.2667106"><ele>1038.0</ele><time>2026-04-26T08:01:59.774Z</time></trkpt><trkpt lat="42.5620374" lon="13.2665965"><ele>1038.0</ele><time>2026-04-26T08:02:00.773Z</time></trkpt><trkpt lat="42.5618801" lon="13.2665387"><ele>1034.0</ele><time>2026-04-26T08:02:01.774Z</time></trkpt><trkpt lat="42.5617313" lon="13.2665096"><ele>1030.0</ele><time>2026-04-26T08:02:02.775Z</time></trkpt><trkpt lat="42.5616025" lon="13.2664775"><ele>1026.0</ele><time>2026-04-26T08:02:03.775Z</time></trkpt><trkpt lat="42.5614898" lon="13.2664254"><ele>1022.0</ele><time>2026-04-26T08:02:04.775Z</time></trkpt><trkpt lat="42.5613981" lon="13.2663384"><ele>1022.0</ele><time>2026-04-26T08:02:05.775Z</time></trkpt><trkpt lat="42.5613365" lon="13.2662318"><ele>1022.0</ele><time>2026-04-26T08:02:06.774Z</time></trkpt><trkpt lat="42.5613195" lon="13.26609"><ele>1022.0</ele><time>2026-04-26T08:02:07.775Z</time></trkpt><trkpt lat="42.5613372" lon="13.2659263"><ele>1022.0</ele><time>2026-04-26T08:02:08.773Z</time></trkpt><trkpt lat="42.56137" lon="13.2657548"><ele>1021.6</ele><time>2026-04-26T08:02:09.773Z</time></trkpt><trkpt lat="42.5613751" lon="13.265591"><ele>1021.2</ele><time>2026-04-26T08:02:10.773Z</time></trkpt><trkpt lat="42.5613482" lon="13.2654502"><ele>1020.8</ele><time>2026-04-26T08:02:11.773Z</time></trkpt><trkpt lat="42.5612882" lon="13.2653454"><ele>1020.4</ele><time>2026-04-26T08:02:12.773Z</time></trkpt><trkpt lat="42.5612026" lon="13.265291"><ele>1020.0</ele><time>2026-04-26T08:02:13.774Z</time></trkpt><trkpt lat="42.5611102" lon="13.2653082"><ele>1017.0</ele><time>2026-04-26T08:02:14.775Z</time></trkpt><trkpt lat="42.5610271" lon="13.2653971"><ele>1014.0</ele><time>2026-04-26T08:02:15.774Z</time></trkpt><trkpt lat="42.5609584" lon="13.2655292"><ele>1011.0</ele><time>2026-04-26T08:02:16.774Z</time></trkpt><trkpt lat="42.5608913" lon="13.2656645"><ele>1008.0</ele><time>2026-04-26T08:02:17.774Z</time></trkpt><trkpt lat="42.5608136" lon="13.265769"><ele>1007.5999999999999</ele><time>2026-04-26T08:02:18.775Z</time></trkpt><trkpt lat="42.5607263" lon="13.2658388"><ele>1007.1999999999999</ele><time>2026-04-26T08:02:19.775Z</time></trkpt><trkpt lat="42.5606354" lon="13.2658573"><ele>1006.8</ele><time>2026-04-26T08:02:20.775Z</time></trkpt><trkpt lat="42.5605386" lon="13.2658229"><ele>1006.4</ele><time>2026-04-26T08:02:21.774Z</time></trkpt><trkpt lat="42.5604313" lon="13.2657398"><ele>1006.0</ele><time>2026-04-26T08:02:22.775Z</time></trkpt><trkpt lat="42.5603146" lon="13.2656405"><ele>1005.0</ele><time>2026-04-26T08:02:23.773Z</time></trkpt><trkpt lat="42.5602004" lon="13.2655473"><ele>1004.0</ele><time>2026-04-26T08:02:24.774Z</time></trkpt><trkpt lat="42.5600857" lon="13.265473"><ele>1003.0</ele><time>2026-04-26T08:02:25.773Z</time></trkpt><trkpt lat="42.5599513" lon="13.2654374"><ele>1002.0</ele><time>2026-04-26T08:02:26.775Z</time></trkpt><trkpt lat="42.5597995" lon="13.2654617"><ele>1002.0</ele><time>2026-04-26T08:02:27.775Z</time></trkpt><trkpt lat="42.5596405" lon="13.2655304"><ele>1002.0</ele><time>2026-04-26T08:02:28.773Z</time></trkpt><trkpt lat="42.5594799" lon="13.2656216"><ele>1002.0</ele><time>2026-04-26T08:02:29.773Z</time></trkpt><trkpt lat="42.5593163" lon="13.2657223"><ele>1003.3333333333333</ele><time>2026-04-26T08:02:30.774Z</time></trkpt><trkpt lat="42.5591516" lon="13.2658166"><ele>1004.6666666666666</ele><time>2026-04-26T08:02:31.774Z</time></trkpt><trkpt lat="42.5589969" lon="13.2659063"><ele>1006.0</ele><time>2026-04-26T08:02:32.774Z</time></trkpt><trkpt lat="42.5588556" lon="13.2659876"><ele>1006.0</ele><time>2026-04-26T08:02:33.774Z</time></trkpt><trkpt lat="42.5587243" lon="13.2660673"><ele>1006.0</ele><time>2026-04-26T08:02:34.775Z</time></trkpt><trkpt lat="42.5586171" lon="13.2661609"><ele>1006.0</ele><time>2026-04-26T08:02:35.775Z</time></trkpt><trkpt lat="42.5585327" lon="13.2662825"><ele>1006.0</ele><time>2026-04-26T08:02:36.773Z</time></trkpt><trkpt lat="42.5584702" lon="13.2664193"><ele>1005.0</ele><time>2026-04-26T08:02:37.774Z</time></trkpt><trkpt lat="42.5584247" lon="13.2665746"><ele>1003.9999999999999</ele><time>2026-04-26T08:02:38.774Z</time></trkpt><trkpt lat="42.5583846" lon="13.2667044"><ele>1002.9999999999999</ele><time>2026-04-26T08:02:39.775Z</time></trkpt><trkpt lat="42.5583292" lon="13.266807"><ele>1002.0</ele><time>2026-04-26T08:02:40.774Z</time></trkpt><trkpt lat="42.5582618" lon="13.2668826"><ele>1001.0</ele><time>2026-04-26T08:02:41.774Z</time></trkpt><trkpt lat="42.558182" lon="13.2669127"><ele>1001.0</ele><time>2026-04-26T08:02:42.774Z</time></trkpt><trkpt lat="42.5580842" lon="13.2669029"><ele>1001.0</ele><time>2026-04-26T08:02:43.775Z</time></trkpt><trkpt lat="42.5579698" lon="13.2668616"><ele>1001.0</ele><time>2026-04-26T08:02:44.774Z</time></trkpt><trkpt lat="42.5578389" lon="13.2667984"><ele>1001.0</ele><time>2026-04-26T08:02:45.775Z</time></trkpt><trkpt lat="42.5577075" lon="13.2667358"><ele>999.25</ele><time>2026-04-26T08:02:46.775Z</time></trkpt><trkpt lat="42.5575743" lon="13.266689"><ele>997.5</ele><time>2026-04-26T08:02:47.775Z</time></trkpt><trkpt lat="42.5574333" lon="13.2666836"><ele>995.75</ele><time>2026-04-26T08:02:48.775Z</time></trkpt><trkpt lat="42.5573006" lon="13.2667043"><ele>994.0</ele><time>2026-04-26T08:02:49.774Z</time></trkpt><trkpt lat="42.5571739" lon="13.2667408"><ele>994.0</ele><time>2026-04-26T08:02:50.773Z</time></trkpt><trkpt lat="42.5570566" lon="13.2667748"><ele>994.0000000000001</ele><time>2026-04-26T08:02:51.774Z</time></trkpt><trkpt lat="42.5569416" lon="13.2667895"><ele>994.0000000000001</ele><time>2026-04-26T08:02:52.775Z</time></trkpt><trkpt lat="42.5568374" lon="13.2667766"><ele>994.0</ele><time>2026-04-26T08:02:53.775Z</time></trkpt><trkpt lat="42.5567461" lon="13.2667267"><ele>994.0</ele><time>2026-04-26T08:02:54.774Z</time></trkpt><trkpt lat="42.5566726" lon="13.2666409"><ele>993.8000000000001</ele><time>2026-04-26T08:02:55.773Z</time></trkpt><trkpt lat="42.5566083" lon="13.2665268"><ele>993.6000000000001</ele><time>2026-04-26T08:02:56.774Z</time></trkpt><trkpt lat="42.5565442" lon="13.2664089"><ele>993.4</ele><time>2026-04-26T08:02:57.775Z</time></trkpt><trkpt lat="42.5564835" lon="13.2663033"><ele>993.2</ele><time>2026-04-26T08:02:58.774Z</time></trkpt><trkpt lat="42.5564262" lon="13.2662051"><ele>993.0</ele><time>2026-04-26T08:02:59.774Z</time></trkpt><trkpt lat="42.5563787" lon="13.2661099"><ele>993.0</ele><time>2026-04-26T08:03:00.775Z</time></trkpt><trkpt lat="42.5563354" lon="13.2660254"><ele>993.0</ele><time>2026-04-26T08:03:01.773Z</time></trkpt><trkpt lat="42.5562792" lon="13.2659241"><ele>993.0</ele><time>2026-04-26T08:03:03.774Z</time></trkpt><trkpt lat="42.5562127" lon="13.2658906"><ele>993.0</ele><time>2026-04-26T08:03:12.775Z</time></trkpt><trkpt lat="42.5561361" lon="13.2659605"><ele>993.0</ele><time>2026-04-26T08:03:14.775Z</time></trkpt><trkpt lat="42.5560962" lon="13.2660378"><ele>993.0</ele><time>2026-04-26T08:03:15.773Z</time></trkpt><trkpt lat="42.5560528" lon="13.2661285"><ele>991.8333333333334</ele><time>2026-04-26T08:03:16.775Z</time></trkpt><trkpt lat="42.5560009" lon="13.2662255"><ele>990.6666666666667</ele><time>2026-04-26T08:03:17.775Z</time></trkpt><trkpt lat="42.5559535" lon="13.266328"><ele>989.5</ele><time>2026-04-26T08:03:18.775Z</time></trkpt><trkpt lat="42.5559005" lon="13.2664255"><ele>988.3333333333334</ele><time>2026-04-26T08:03:19.774Z</time></trkpt><trkpt lat="42.5558469" lon="13.2665065"><ele>987.1666666666667</ele><time>2026-04-26T08:03:20.774Z</time></trkpt><trkpt lat="42.5557868" lon="13.2665847"><ele>986.0</ele><time>2026-04-26T08:03:21.775Z</time></trkpt><trkpt lat="42.5557255" lon="13.2666611"><ele>986.0</ele><time>2026-04-26T08:03:22.774Z</time></trkpt><trkpt lat="42.5556602" lon="13.2667418"><ele>985.9999999999999</ele><time>2026-04-26T08:03:23.773Z</time></trkpt><trkpt lat="42.5555914" lon="13.2668167"><ele>985.9999999999999</ele><time>2026-04-26T08:03:24.774Z</time></trkpt><trkpt lat="42.5555118" lon="13.2668889"><ele>986.0</ele><time>2026-04-26T08:03:25.774Z</time></trkpt><trkpt lat="42.5554331" lon="13.2669559"><ele>986.0</ele><time>2026-04-26T08:03:26.773Z</time></trkpt><trkpt lat="42.5553585" lon="13.2670209"><ele>985.1999999999999</ele><time>2026-04-26T08:03:27.774Z</time></trkpt><trkpt lat="42.5552873" lon="13.2671037"><ele>984.3999999999999</ele><time>2026-04-26T08:03:28.775Z</time></trkpt><trkpt lat="42.555218" lon="13.2672008"><ele>983.6</ele><time>2026-04-26T08:03:29.774Z</time></trkpt><trkpt lat="42.5551526" lon="13.2672999"><ele>982.8</ele><time>2026-04-26T08:03:30.773Z</time></trkpt><trkpt lat="42.5550955" lon="13.2674002"><ele>982.0</ele><time>2026-04-26T08:03:31.774Z</time></trkpt><trkpt lat="42.555045" lon="13.2674997"><ele>981.9999999999999</ele><time>2026-04-26T08:03:32.775Z</time></trkpt><trkpt lat="42.5549967" lon="13.2675979"><ele>982.0</ele><time>2026-04-26T08:03:33.773Z</time></trkpt><trkpt lat="42.5549445" lon="13.2676833"><ele>982.0</ele><time>2026-04-26T08:03:34.774Z</time></trkpt><trkpt lat="42.5548825" lon="13.267762"><ele>982.0</ele><time>2026-04-26T08:03:35.775Z</time></trkpt><trkpt lat="42.5548151" lon="13.2678358"><ele>981.9999999999999</ele><time>2026-04-26T08:03:36.775Z</time></trkpt><trkpt lat="42.5547441" lon="13.2678957"><ele>982.0</ele><time>2026-04-26T08:03:37.775Z</time></trkpt><trkpt lat="42.5546814" lon="13.2679493"><ele>981.9999999999999</ele><time>2026-04-26T08:03:38.773Z</time></trkpt><trkpt lat="42.5546278" lon="13.2679985"><ele>982.0</ele><time>2026-04-26T08:03:39.773Z</time></trkpt><trkpt lat="42.5545777" lon="13.2680549"><ele>982.0</ele><time>2026-04-26T08:03:40.775Z</time></trkpt><trkpt lat="42.5545231" lon="13.2681228"><ele>982.0</ele><time>2026-04-26T08:03:41.775Z</time></trkpt><trkpt lat="42.5544546" lon="13.2681972"><ele>981.9999999999999</ele><time>2026-04-26T08:03:42.774Z</time></trkpt><trkpt lat="42.5543768" lon="13.268268"><ele>982.0</ele><time>2026-04-26T08:03:43.775Z</time></trkpt><trkpt lat="42.5543038" lon="13.2683378"><ele>981.4000000000001</ele><time>2026-04-26T08:03:44.773Z</time></trkpt><trkpt lat="42.5542391" lon="13.2684232"><ele>980.8000000000001</ele><time>2026-04-26T08:03:45.774Z</time></trkpt><trkpt lat="42.5541897" lon="13.268518"><ele>980.2</ele><time>2026-04-26T08:03:46.775Z</time></trkpt><trkpt lat="42.5541554" lon="13.2686228"><ele>979.6</ele><time>2026-04-26T08:03:47.774Z</time></trkpt><trkpt lat="42.5541459" lon="13.268742"><ele>979.0</ele><time>2026-04-26T08:03:48.775Z</time></trkpt><trkpt lat="42.554166" lon="13.2688775"><ele>979.0</ele><time>2026-04-26T08:03:49.775Z</time></trkpt><trkpt lat="42.554219" lon="13.2689922"><ele>979.0000000000001</ele><time>2026-04-26T08:03:50.774Z</time></trkpt><trkpt lat="42.5542849" lon="13.2690937"><ele>979.0000000000001</ele><time>2026-04-26T08:03:51.773Z</time></trkpt><trkpt lat="42.5543612" lon="13.2691635"><ele>979.0</ele><time>2026-04-26T08:03:52.773Z</time></trkpt><trkpt lat="42.5544518" lon="13.2691883"><ele>979.0</ele><time>2026-04-26T08:03:53.775Z</time></trkpt><trkpt lat="42.5545474" lon="13.2691585"><ele>979.6</ele><time>2026-04-26T08:03:54.775Z</time></trkpt><trkpt lat="42.5546507" lon="13.269092"><ele>980.2</ele><time>2026-04-26T08:03:55.774Z</time></trkpt><trkpt lat="42.5547532" lon="13.2690148"><ele>980.8000000000001</ele><time>2026-04-26T08:03:56.774Z</time></trkpt><trkpt lat="42.5548538" lon="13.268955"><ele>981.4000000000001</ele><time>2026-04-26T08:03:57.773Z</time></trkpt><trkpt lat="42.5549419" lon="13.268919"><ele>982.0</ele><time>2026-04-26T08:03:58.775Z</time></trkpt><trkpt lat="42.5550302" lon="13.2689134"><ele>982.0</ele><time>2026-04-26T08:03:59.774Z</time></trkpt><trkpt lat="42.5551139" lon="13.2689414"><ele>982.0</ele><time>2026-04-26T08:04:00.774Z</time></trkpt><trkpt lat="42.5551871" lon="13.2690008"><ele>982.0</ele><time>2026-04-26T08:04:01.774Z</time></trkpt><trkpt lat="42.555257" lon="13.2690929"><ele>982.0</ele><time>2026-04-26T08:04:02.775Z</time></trkpt><trkpt lat="42.555329" lon="13.2692124"><ele>982.0</ele><time>2026-04-26T08:04:03.774Z</time></trkpt><trkpt lat="42.5553871" lon="13.2693633"><ele>980.0</ele><time>2026-04-26T08:04:04.773Z</time></trkpt><trkpt lat="42.5554284" lon="13.2695272"><ele>978.0</ele><time>2026-04-26T08:04:05.773Z</time></trkpt><trkpt lat="42.5554631" lon="13.2696822"><ele>976.0</ele><time>2026-04-26T08:04:06.775Z</time></trkpt><trkpt lat="42.5554848" lon="13.2698184"><ele>974.0</ele><time>2026-04-26T08:04:07.775Z</time></trkpt><trkpt lat="42.5554802" lon="13.2699496"><ele>972.0</ele><time>2026-04-26T08:04:08.773Z</time></trkpt><trkpt lat="42.5554444" lon="13.2700638"><ele>971.4000000000001</ele><time>2026-04-26T08:04:09.774Z</time></trkpt><trkpt lat="42.5553764" lon="13.2701394"><ele>970.8000000000001</ele><time>2026-04-26T08:04:10.774Z</time></trkpt><trkpt lat="42.5552879" lon="13.2701602"><ele>970.2</ele><time>2026-04-26T08:04:11.773Z</time></trkpt><trkpt lat="42.5551768" lon="13.2701453"><ele>969.6</ele><time>2026-04-26T08:04:12.774Z</time></trkpt><trkpt lat="42.555057" lon="13.2701667"><ele>969.0</ele><time>2026-04-26T08:04:13.775Z</time></trkpt><trkpt lat="42.5549481" lon="13.2702585"><ele>969.0</ele><time>2026-04-26T08:04:14.775Z</time></trkpt><trkpt lat="42.5548429" lon="13.2703667"><ele>969.0</ele><time>2026-04-26T08:04:15.774Z</time></trkpt><trkpt lat="42.5547192" lon="13.2704304"><ele>969.0</ele><time>2026-04-26T08:04:16.775Z</time></trkpt><trkpt lat="42.5545856" lon="13.2704691"><ele>969.0</ele><time>2026-04-26T08:04:17.773Z</time></trkpt><trkpt lat="42.5544578" lon="13.2705249"><ele>966.25</ele><time>2026-04-26T08:04:18.774Z</time></trkpt><trkpt lat="42.5543426" lon="13.2706395"><ele>963.5</ele><time>2026-04-26T08:04:19.774Z</time></trkpt><trkpt lat="42.5542565" lon="13.2708075"><ele>960.75</ele><time>2026-04-26T08:04:20.774Z</time></trkpt><trkpt lat="42.5541924" lon="13.2709778"><ele>958.0</ele><time>2026-04-26T08:04:21.773Z</time></trkpt><trkpt lat="42.5541281" lon="13.2711488"><ele>958.0</ele><time>2026-04-26T08:04:22.773Z</time></trkpt><trkpt lat="42.5540508" lon="13.2713146"><ele>958.0</ele><time>2026-04-26T08:04:23.774Z</time></trkpt><trkpt lat="42.5539487" lon="13.2714592"><ele>958.0</ele><time>2026-04-26T08:04:24.773Z</time></trkpt><trkpt lat="42.5538321" lon="13.2715847"><ele>958.0</ele><time>2026-04-26T08:04:25.774Z</time></trkpt><trkpt lat="42.5537117" lon="13.2716945"><ele>955.25</ele><time>2026-04-26T08:04:26.774Z</time></trkpt><trkpt lat="42.5535961" lon="13.2717761"><ele>952.5</ele><time>2026-04-26T08:04:27.774Z</time></trkpt><trkpt lat="42.553486" lon="13.2718138"><ele>949.75</ele><time>2026-04-26T08:04:28.774Z</time></trkpt><trkpt lat="42.5533812" lon="13.2717983"><ele>947.0</ele><time>2026-04-26T08:04:29.774Z</time></trkpt><trkpt lat="42.5532902" lon="13.2717115"><ele>947.0</ele><time>2026-04-26T08:04:30.775Z</time></trkpt><trkpt lat="42.5532231" lon="13.2715779"><ele>947.0</ele><time>2026-04-26T08:04:31.775Z</time></trkpt><trkpt lat="42.5531742" lon="13.2714066"><ele>947.0</ele><time>2026-04-26T08:04:32.774Z</time></trkpt><trkpt lat="42.5531395" lon="13.2712299"><ele>947.0</ele><time>2026-04-26T08:04:33.774Z</time></trkpt><trkpt lat="42.5531044" lon="13.2710633"><ele>948.25</ele><time>2026-04-26T08:04:34.775Z</time></trkpt><trkpt lat="42.553065" lon="13.2709188"><ele>949.5</ele><time>2026-04-26T08:04:35.775Z</time></trkpt><trkpt lat="42.5530005" lon="13.2707973"><ele>950.75</ele><time>2026-04-26T08:04:36.774Z</time></trkpt><trkpt lat="42.5528859" lon="13.2707347"><ele>952.0</ele><time>2026-04-26T08:04:37.774Z</time></trkpt><trkpt lat="42.552778" lon="13.2707159"><ele>952.0</ele><time>2026-04-26T08:04:38.774Z</time></trkpt><trkpt lat="42.5526896" lon="13.2707473"><ele>952.0</ele><time>2026-04-26T08:04:39.774Z</time></trkpt><trkpt lat="42.5526027" lon="13.2708904"><ele>952.0</ele><time>2026-04-26T08:04:40.774Z</time></trkpt><trkpt lat="42.5525545" lon="13.2710495"><ele>952.0</ele><time>2026-04-26T08:04:41.774Z</time></trkpt><trkpt lat="42.5525319" lon="13.2712117"><ele>952.0</ele><time>2026-04-26T08:04:42.774Z</time></trkpt><trkpt lat="42.552508" lon="13.2713529"><ele>952.0</ele><time>2026-04-26T08:04:43.774Z</time></trkpt><trkpt lat="42.5524546" lon="13.2714679"><ele>952.0</ele><time>2026-04-26T08:04:44.773Z</time></trkpt><trkpt lat="42.5523747" lon="13.2715529"><ele>952.0</ele><time>2026-04-26T08:04:45.774Z</time></trkpt><trkpt lat="42.5522698" lon="13.2715815"><ele>952.0</ele><time>2026-04-26T08:04:46.775Z</time></trkpt><trkpt lat="42.5521462" lon="13.2715859"><ele>949.0</ele><time>2026-04-26T08:04:47.775Z</time></trkpt><trkpt lat="42.5520226" lon="13.2716388"><ele>946.0</ele><time>2026-04-26T08:04:48.775Z</time></trkpt><trkpt lat="42.5519192" lon="13.2717289"><ele>943.0</ele><time>2026-04-26T08:04:49.775Z</time></trkpt><trkpt lat="42.5518086" lon="13.2717889"><ele>940.0</ele><time>2026-04-26T08:04:50.775Z</time></trkpt><trkpt lat="42.5516807" lon="13.2718074"><ele>940.0</ele><time>2026-04-26T08:04:51.774Z</time></trkpt><trkpt lat="42.5515381" lon="13.2717992"><ele>940.0</ele><time>2026-04-26T08:04:52.774Z</time></trkpt><trkpt lat="42.5513687" lon="13.2717654"><ele>940.0</ele><time>2026-04-26T08:04:53.774Z</time></trkpt><trkpt lat="42.5511846" lon="13.2717274"><ele>938.6666666666666</ele><time>2026-04-26T08:04:54.774Z</time></trkpt><trkpt lat="42.5509971" lon="13.2716811"><ele>937.3333333333333</ele><time>2026-04-26T08:04:55.775Z</time></trkpt><trkpt lat="42.5508211" lon="13.2716332"><ele>936.0</ele><time>2026-04-26T08:04:56.775Z</time></trkpt><trkpt lat="42.5506509" lon="13.2715878"><ele>936.0</ele><time>2026-04-26T08:04:57.774Z</time></trkpt><trkpt lat="42.5504832" lon="13.2715451"><ele>936.0</ele><time>2026-04-26T08:04:58.774Z</time></trkpt><trkpt lat="42.5503214" lon="13.2715023"><ele>936.0</ele><time>2026-04-26T08:04:59.775Z</time></trkpt><trkpt lat="42.5501694" lon="13.2714449"><ele>935.5</ele><time>2026-04-26T08:05:00.774Z</time></trkpt><trkpt lat="42.5500264" lon="13.2713749"><ele>935.0</ele><time>2026-04-26T08:05:01.774Z</time></trkpt><trkpt lat="42.549902" lon="13.2712847"><ele>934.5</ele><time>2026-04-26T08:05:02.773Z</time></trkpt><trkpt lat="42.5498023" lon="13.2711939"><ele>934.0</ele><time>2026-04-26T08:05:03.774Z</time></trkpt><trkpt lat="42.5497294" lon="13.2710898"><ele>934.0</ele><time>2026-04-26T08:05:04.775Z</time></trkpt><trkpt lat="42.5496921" lon="13.2709551"><ele>934.0</ele><time>2026-04-26T08:05:05.774Z</time></trkpt><trkpt lat="42.5496921" lon="13.270801"><ele>934.0</ele><time>2026-04-26T08:05:06.773Z</time></trkpt><trkpt lat="42.5497187" lon="13.2706484"><ele>934.0</ele><time>2026-04-26T08:05:07.775Z</time></trkpt><trkpt lat="42.5497321" lon="13.2704849"><ele>936.0</ele><time>2026-04-26T08:05:08.774Z</time></trkpt><trkpt lat="42.5497016" lon="13.270315"><ele>938.0</ele><time>2026-04-26T08:05:09.775Z</time></trkpt><trkpt lat="42.5496294" lon="13.2701449"><ele>940.0</ele><time>2026-04-26T08:05:10.773Z</time></trkpt><trkpt lat="42.5495436" lon="13.2699835"><ele>942.0</ele><time>2026-04-26T08:05:11.775Z</time></trkpt><trkpt lat="42.5494346" lon="13.2698552"><ele>941.25</ele><time>2026-04-26T08:05:12.775Z</time></trkpt><trkpt lat="42.5492999" lon="13.2697761"><ele>940.5</ele><time>2026-04-26T08:05:13.774Z</time></trkpt><trkpt lat="42.5491535" lon="13.2697455"><ele>939.75</ele><time>2026-04-26T08:05:14.774Z</time></trkpt><trkpt lat="42.5490128" lon="13.2697103"><ele>939.0</ele><time>2026-04-26T08:05:15.773Z</time></trkpt><trkpt lat="42.548875" lon="13.2696584"><ele>939.0</ele><time>2026-04-26T08:05:16.774Z</time></trkpt><trkpt lat="42.5487556" lon="13.2695761"><ele>939.0</ele><time>2026-04-26T08:05:17.773Z</time></trkpt><trkpt lat="42.548647" lon="13.2694559"><ele>939.0</ele><time>2026-04-26T08:05:18.772Z</time></trkpt><trkpt lat="42.5485465" lon="13.2693078"><ele>939.0</ele><time>2026-04-26T08:05:19.772Z</time></trkpt><trkpt lat="42.5484539" lon="13.2691603"><ele>934.5</ele><time>2026-04-26T08:05:20.773Z</time></trkpt><trkpt lat="42.5483774" lon="13.2690072"><ele>930.0</ele><time>2026-04-26T08:05:21.774Z</time></trkpt><trkpt lat="42.5483237" lon="13.268839"><ele>925.5</ele><time>2026-04-26T08:05:22.773Z</time></trkpt><trkpt lat="42.5482945" lon="13.2686678"><ele>921.0</ele><time>2026-04-26T08:05:23.772Z</time></trkpt><trkpt lat="42.5482737" lon="13.2685162"><ele>921.0</ele><time>2026-04-26T08:05:24.772Z</time></trkpt><trkpt lat="42.5482295" lon="13.2683848"><ele>921.0</ele><time>2026-04-26T08:05:25.773Z</time></trkpt><trkpt lat="42.5481433" lon="13.2682906"><ele>921.0</ele><time>2026-04-26T08:05:26.774Z</time></trkpt><trkpt lat="42.5480171" lon="13.2682392"><ele>921.0</ele><time>2026-04-26T08:05:27.773Z</time></trkpt><trkpt lat="42.5478758" lon="13.2682288"><ele>920.0</ele><time>2026-04-26T08:05:28.774Z</time></trkpt><trkpt lat="42.5477376" lon="13.2682181"><ele>919.0</ele><time>2026-04-26T08:05:29.774Z</time></trkpt><trkpt lat="42.5476105" lon="13.2681901"><ele>918.0</ele><time>2026-04-26T08:05:30.774Z</time></trkpt><trkpt lat="42.5474896" lon="13.2681165"><ele>917.0</ele><time>2026-04-26T08:05:31.774Z</time></trkpt><trkpt lat="42.547382" lon="13.2680013"><ele>917.0</ele><time>2026-04-26T08:05:32.774Z</time></trkpt><trkpt lat="42.5472904" lon="13.2678613"><ele>917.0</ele><time>2026-04-26T08:05:33.772Z</time></trkpt><trkpt lat="42.5472257" lon="13.2677041"><ele>917.0</ele><time>2026-04-26T08:05:34.773Z</time></trkpt><trkpt lat="42.5471843" lon="13.2675382"><ele>917.0</ele><time>2026-04-26T08:05:35.773Z</time></trkpt><trkpt lat="42.5471638" lon="13.2673851"><ele>914.75</ele><time>2026-04-26T08:05:36.772Z</time></trkpt><trkpt lat="42.5471165" lon="13.2672578"><ele>912.5</ele><time>2026-04-26T08:05:37.773Z</time></trkpt><trkpt lat="42.5470149" lon="13.2671836"><ele>910.25</ele><time>2026-04-26T08:05:38.772Z</time></trkpt><trkpt lat="42.5468955" lon="13.2671275"><ele>908.0</ele><time>2026-04-26T08:05:39.773Z</time></trkpt><trkpt lat="42.5467887" lon="13.2670255"><ele>908.0</ele><time>2026-04-26T08:05:40.774Z</time></trkpt><trkpt lat="42.5466952" lon="13.2668874"><ele>908.0</ele><time>2026-04-26T08:05:41.773Z</time></trkpt><trkpt lat="42.5465827" lon="13.2667722"><ele>908.0</ele><time>2026-04-26T08:05:42.774Z</time></trkpt><trkpt lat="42.5464542" lon="13.2667135"><ele>908.0</ele><time>2026-04-26T08:05:43.773Z</time></trkpt><trkpt lat="42.5463414" lon="13.2666546"><ele>908.0</ele><time>2026-04-26T08:05:44.774Z</time></trkpt><trkpt lat="42.5462367" lon="13.2665468"><ele>908.0</ele><time>2026-04-26T08:05:45.773Z</time></trkpt><trkpt lat="42.5461359" lon="13.2663887"><ele>908.0</ele><time>2026-04-26T08:05:46.774Z</time></trkpt><trkpt lat="42.5460376" lon="13.2662378"><ele>908.0</ele><time>2026-04-26T08:05:47.773Z</time></trkpt><trkpt lat="42.5459572" lon="13.2661049"><ele>904.4</ele><time>2026-04-26T08:05:48.772Z</time></trkpt><trkpt lat="42.5458976" lon="13.265966"><ele>900.8</ele><time>2026-04-26T08:05:49.774Z</time></trkpt><trkpt lat="42.5458718" lon="13.2658193"><ele>897.2</ele><time>2026-04-26T08:05:50.773Z</time></trkpt><trkpt lat="42.5458828" lon="13.265667"><ele>893.6</ele><time>2026-04-26T08:05:51.773Z</time></trkpt><trkpt lat="42.5459199" lon="13.2655309"><ele>890.0</ele><time>2026-04-26T08:05:52.773Z</time></trkpt><trkpt lat="42.5460001" lon="13.2654176"><ele>891.0</ele><time>2026-04-26T08:05:53.774Z</time></trkpt><trkpt lat="42.5461204" lon="13.2653311"><ele>892.0</ele><time>2026-04-26T08:05:54.773Z</time></trkpt><trkpt lat="42.5462603" lon="13.2652808"><ele>893.0</ele><time>2026-04-26T08:05:55.772Z</time></trkpt><trkpt lat="42.5463986" lon="13.2652691"><ele>894.0</ele><time>2026-04-26T08:05:56.774Z</time></trkpt><trkpt lat="42.5465282" lon="13.2652674"><ele>894.0</ele><time>2026-04-26T08:05:57.774Z</time></trkpt><trkpt lat="42.5466367" lon="13.2652476"><ele>894.0000000000001</ele><time>2026-04-26T08:05:58.774Z</time></trkpt><trkpt lat="42.5467246" lon="13.2651911"><ele>894.0000000000001</ele><time>2026-04-26T08:05:59.774Z</time></trkpt><trkpt lat="42.546782" lon="13.2650897"><ele>894.0</ele><time>2026-04-26T08:06:00.774Z</time></trkpt><trkpt lat="42.5468" lon="13.2649728"><ele>894.0</ele><time>2026-04-26T08:06:01.773Z</time></trkpt><trkpt lat="42.5467697" lon="13.2648599"><ele>900.75</ele><time>2026-04-26T08:06:02.773Z</time></trkpt><trkpt lat="42.5466941" lon="13.2647691"><ele>907.5</ele><time>2026-04-26T08:06:03.773Z</time></trkpt><trkpt lat="42.5465728" lon="13.264703"><ele>914.25</ele><time>2026-04-26T08:06:04.773Z</time></trkpt><trkpt lat="42.5464333" lon="13.2646572"><ele>921.0</ele><time>2026-04-26T08:06:05.774Z</time></trkpt><trkpt lat="42.5462763" lon="13.2645994"><ele>913.6666666666667</ele><time>2026-04-26T08:06:06.774Z</time></trkpt><trkpt lat="42.5461166" lon="13.2645461"><ele>906.3333333333334</ele><time>2026-04-26T08:06:07.773Z</time></trkpt><trkpt lat="42.5459663" lon="13.2644912"><ele>899.0</ele><time>2026-04-26T08:06:08.773Z</time></trkpt><trkpt lat="42.5458213" lon="13.2644306"><ele>899.0</ele><time>2026-04-26T08:06:09.774Z</time></trkpt><trkpt lat="42.5456887" lon="13.2643489"><ele>899.0</ele><time>2026-04-26T08:06:10.772Z</time></trkpt><trkpt lat="42.5455758" lon="13.2642432"><ele>899.0</ele><time>2026-04-26T08:06:11.773Z</time></trkpt><trkpt lat="42.5454754" lon="13.2641454"><ele>899.0</ele><time>2026-04-26T08:06:12.772Z</time></trkpt><trkpt lat="42.5453626" lon="13.2641075"><ele>897.0</ele><time>2026-04-26T08:06:13.773Z</time></trkpt><trkpt lat="42.5452336" lon="13.2641383"><ele>895.0</ele><time>2026-04-26T08:06:14.773Z</time></trkpt><trkpt lat="42.5451077" lon="13.2642079"><ele>893.0</ele><time>2026-04-26T08:06:15.774Z</time></trkpt><trkpt lat="42.5449834" lon="13.2642875"><ele>891.0</ele><time>2026-04-26T08:06:16.772Z</time></trkpt><trkpt lat="42.5448653" lon="13.2643294"><ele>891.0</ele><time>2026-04-26T08:06:17.774Z</time></trkpt><trkpt lat="42.5447466" lon="13.2643236"><ele>891.0</ele><time>2026-04-26T08:06:18.773Z</time></trkpt><trkpt lat="42.5446285" lon="13.2642801"><ele>891.0</ele><time>2026-04-26T08:06:19.774Z</time></trkpt><trkpt lat="42.5445181" lon="13.2641553"><ele>891.0</ele><time>2026-04-26T08:06:20.773Z</time></trkpt><trkpt lat="42.5444128" lon="13.2640067"><ele>892.3333333333333</ele><time>2026-04-26T08:06:21.774Z</time></trkpt><trkpt lat="42.5443064" lon="13.2638505"><ele>893.6666666666666</ele><time>2026-04-26T08:06:22.773Z</time></trkpt><trkpt lat="42.5441767" lon="13.2637141"><ele>895.0</ele><time>2026-04-26T08:06:23.773Z</time></trkpt><trkpt lat="42.5440403" lon="13.263591"><ele>895.0</ele><time>2026-04-26T08:06:24.774Z</time></trkpt><trkpt lat="42.5438923" lon="13.2634841"><ele>895.0</ele><time>2026-04-26T08:06:25.774Z</time></trkpt><trkpt lat="42.5437347" lon="13.263404"><ele>895.0</ele><time>2026-04-26T08:06:26.772Z</time></trkpt><trkpt lat="42.5435758" lon="13.2633547"><ele>890.5</ele><time>2026-04-26T08:06:27.773Z</time></trkpt><trkpt lat="42.5434265" lon="13.2633122"><ele>886.0</ele><time>2026-04-26T08:06:28.772Z</time></trkpt><trkpt lat="42.5432905" lon="13.2632689"><ele>881.5</ele><time>2026-04-26T08:06:29.774Z</time></trkpt><trkpt lat="42.5431679" lon="13.2632143"><ele>877.0</ele><time>2026-04-26T08:06:30.773Z</time></trkpt><trkpt lat="42.5430587" lon="13.2631288"><ele>875.0</ele><time>2026-04-26T08:06:31.772Z</time></trkpt><trkpt lat="42.5429613" lon="13.2629945"><ele>873.0</ele><time>2026-04-26T08:06:32.772Z</time></trkpt><trkpt lat="42.5428782" lon="13.2628303"><ele>871.0</ele><time>2026-04-26T08:06:33.773Z</time></trkpt><trkpt lat="42.5428125" lon="13.2626405"><ele>869.0</ele><time>2026-04-26T08:06:34.774Z</time></trkpt><trkpt lat="42.5427499" lon="13.2624417"><ele>869.6666666666667</ele><time>2026-04-26T08:06:35.773Z</time></trkpt><trkpt lat="42.5426987" lon="13.2622407"><ele>870.3333333333333</ele><time>2026-04-26T08:06:36.774Z</time></trkpt><trkpt lat="42.542659" lon="13.2620457"><ele>871.0</ele><time>2026-04-26T08:06:37.774Z</time></trkpt><trkpt lat="42.5426416" lon="13.2618392"><ele>871.0</ele><time>2026-04-26T08:06:38.774Z</time></trkpt><trkpt lat="42.5426507" lon="13.2616366"><ele>871.0</ele><time>2026-04-26T08:06:39.772Z</time></trkpt><trkpt lat="42.5426751" lon="13.2614463"><ele>871.0</ele><time>2026-04-26T08:06:40.774Z</time></trkpt><trkpt lat="42.5427059" lon="13.2612677"><ele>871.0</ele><time>2026-04-26T08:06:41.774Z</time></trkpt><trkpt lat="42.5427144" lon="13.2610994"><ele>871.5</ele><time>2026-04-26T08:06:42.772Z</time></trkpt><trkpt lat="42.5426949" lon="13.2609445"><ele>872.0</ele><time>2026-04-26T08:06:43.772Z</time></trkpt><trkpt lat="42.5426449" lon="13.2608115"><ele>872.5</ele><time>2026-04-26T08:06:44.773Z</time></trkpt><trkpt lat="42.5425519" lon="13.2607056"><ele>873.0</ele><time>2026-04-26T08:06:45.773Z</time></trkpt><trkpt lat="42.5424305" lon="13.2606319"><ele>873.0</ele><time>2026-04-26T08:06:46.773Z</time></trkpt><trkpt lat="42.5423143" lon="13.2605602"><ele>873.0</ele><time>2026-04-26T08:06:47.774Z</time></trkpt><trkpt lat="42.5422055" lon="13.2604638"><ele>873.0</ele><time>2026-04-26T08:06:48.773Z</time></trkpt><trkpt lat="42.5421063" lon="13.2603393"><ele>873.0</ele><time>2026-04-26T08:06:49.773Z</time></trkpt><trkpt lat="42.5420315" lon="13.2601751"><ele>873.0</ele><time>2026-04-26T08:06:50.773Z</time></trkpt><trkpt lat="42.5419788" lon="13.2599931"><ele>873.0</ele><time>2026-04-26T08:06:51.773Z</time></trkpt><trkpt lat="42.5419308" lon="13.2598094"><ele>873.0</ele><time>2026-04-26T08:06:52.774Z</time></trkpt><trkpt lat="42.5418709" lon="13.2596452"><ele>873.0</ele><time>2026-04-26T08:06:53.773Z</time></trkpt><trkpt lat="42.5417847" lon="13.2594998"><ele>874.25</ele><time>2026-04-26T08:06:54.772Z</time></trkpt><trkpt lat="42.5416962" lon="13.2593605"><ele>875.5</ele><time>2026-04-26T08:06:55.772Z</time></trkpt><trkpt lat="42.5415537" lon="13.2592896"><ele>876.75</ele><time>2026-04-26T08:06:56.774Z</time></trkpt><trkpt lat="42.5414366" lon="13.2591956"><ele>878.0</ele><time>2026-04-26T08:06:57.773Z</time></trkpt><trkpt lat="42.5413249" lon="13.2590957"><ele>878.0</ele><time>2026-04-26T08:06:58.772Z</time></trkpt><trkpt lat="42.5412292" lon="13.2589816"><ele>878.0</ele><time>2026-04-26T08:06:59.774Z</time></trkpt><trkpt lat="42.5411419" lon="13.258841"><ele>878.0</ele><time>2026-04-26T08:07:00.773Z</time></trkpt><trkpt lat="42.5410743" lon="13.2587007"><ele>878.0</ele><time>2026-04-26T08:07:01.774Z</time></trkpt><trkpt lat="42.5410216" lon="13.258568"><ele>876.8</ele><time>2026-04-26T08:07:02.773Z</time></trkpt><trkpt lat="42.5409913" lon="13.2584566"><ele>875.5999999999999</ele><time>2026-04-26T08:07:03.774Z</time></trkpt><trkpt lat="42.5409464" lon="13.2583458"><ele>874.4000000000001</ele><time>2026-04-26T08:07:04.773Z</time></trkpt><trkpt lat="42.5408999" lon="13.2582371"><ele>873.2</ele><time>2026-04-26T08:07:05.773Z</time></trkpt><trkpt lat="42.5408472" lon="13.2581322"><ele>872.0</ele><time>2026-04-26T08:07:06.773Z</time></trkpt><trkpt lat="42.540787" lon="13.2580382"><ele>872.0</ele><time>2026-04-26T08:07:07.773Z</time></trkpt><trkpt lat="42.5407138" lon="13.2579522"><ele>872.0</ele><time>2026-04-26T08:07:08.772Z</time></trkpt><trkpt lat="42.5406342" lon="13.2578636"><ele>872.0</ele><time>2026-04-26T08:07:09.772Z</time></trkpt><trkpt lat="42.5405491" lon="13.2577639"><ele>872.0</ele><time>2026-04-26T08:07:10.772Z</time></trkpt><trkpt lat="42.5404552" lon="13.2576619"><ele>872.0</ele><time>2026-04-26T08:07:11.772Z</time></trkpt><trkpt lat="42.5403559" lon="13.2575535"><ele>869.75</ele><time>2026-04-26T08:07:12.773Z</time></trkpt><trkpt lat="42.5402547" lon="13.2574406"><ele>867.5</ele><time>2026-04-26T08:07:13.773Z</time></trkpt><trkpt lat="42.540141" lon="13.2573294"><ele>865.25</ele><time>2026-04-26T08:07:14.773Z</time></trkpt><trkpt lat="42.5400236" lon="13.2572142"><ele>863.0</ele><time>2026-04-26T08:07:15.773Z</time></trkpt><trkpt lat="42.5398995" lon="13.2570907"><ele>863.0</ele><time>2026-04-26T08:07:16.773Z</time></trkpt><trkpt lat="42.5397705" lon="13.2569579"><ele>863.0</ele><time>2026-04-26T08:07:17.774Z</time></trkpt><trkpt lat="42.5396369" lon="13.2568162"><ele>863.0</ele><time>2026-04-26T08:07:18.774Z</time></trkpt><trkpt lat="42.5394995" lon="13.2566737"><ele>862.3333333333334</ele><time>2026-04-26T08:07:19.773Z</time></trkpt><trkpt lat="42.5393594" lon="13.2565286"><ele>861.6666666666667</ele><time>2026-04-26T08:07:20.772Z</time></trkpt><trkpt lat="42.5392165" lon="13.2563779"><ele>861.0</ele><time>2026-04-26T08:07:21.773Z</time></trkpt><trkpt lat="42.5390698" lon="13.2562255"><ele>861.0</ele><time>2026-04-26T08:07:22.773Z</time></trkpt><trkpt lat="42.5389188" lon="13.2560719"><ele>861.0</ele><time>2026-04-26T08:07:23.773Z</time></trkpt><trkpt lat="42.5387634" lon="13.255925"><ele>861.0</ele><time>2026-04-26T08:07:24.774Z</time></trkpt><trkpt lat="42.5386054" lon="13.2557843"><ele>862.3333333333333</ele><time>2026-04-26T08:07:25.773Z</time></trkpt><trkpt lat="42.5384459" lon="13.2556549"><ele>863.6666666666666</ele><time>2026-04-26T08:07:26.773Z</time></trkpt><trkpt lat="42.5382906" lon="13.2555295"><ele>865.0</ele><time>2026-04-26T08:07:27.774Z</time></trkpt><trkpt lat="42.5381394" lon="13.2554087"><ele>865.0</ele><time>2026-04-26T08:07:28.773Z</time></trkpt><trkpt lat="42.5379923" lon="13.2552944"><ele>865.0</ele><time>2026-04-26T08:07:29.772Z</time></trkpt><trkpt lat="42.5378469" lon="13.2551856"><ele>865.0</ele><time>2026-04-26T08:07:30.773Z</time></trkpt><trkpt lat="42.5377068" lon="13.255073"><ele>860.0</ele><time>2026-04-26T08:07:31.773Z</time></trkpt><trkpt lat="42.5375716" lon="13.2549682"><ele>855.0</ele><time>2026-04-26T08:07:32.772Z</time></trkpt><trkpt lat="42.5374382" lon="13.2548639"><ele>850.0</ele><time>2026-04-26T08:07:33.774Z</time></trkpt><trkpt lat="42.5373095" lon="13.2547635"><ele>850.0</ele><time>2026-04-26T08:07:34.773Z</time></trkpt><trkpt lat="42.5371861" lon="13.2546587"><ele>850.0</ele><time>2026-04-26T08:07:35.774Z</time></trkpt><trkpt lat="42.5370633" lon="13.2545393"><ele>850.0</ele><time>2026-04-26T08:07:36.773Z</time></trkpt><trkpt lat="42.5369487" lon="13.2544066"><ele>850.0</ele><time>2026-04-26T08:07:37.772Z</time></trkpt><trkpt lat="42.5368383" lon="13.254267"><ele>847.5</ele><time>2026-04-26T08:07:38.772Z</time></trkpt><trkpt lat="42.5367353" lon="13.2541237"><ele>845.0</ele><time>2026-04-26T08:07:39.774Z</time></trkpt><trkpt lat="42.5366333" lon="13.2539863"><ele>842.5</ele><time>2026-04-26T08:07:40.773Z</time></trkpt><trkpt lat="42.5365406" lon="13.2538464"><ele>840.0</ele><time>2026-04-26T08:07:41.774Z</time></trkpt><trkpt lat="42.5364607" lon="13.2536985"><ele>839.0</ele><time>2026-04-26T08:07:42.772Z</time></trkpt><trkpt lat="42.5364029" lon="13.253539"><ele>838.0</ele><time>2026-04-26T08:07:43.772Z</time></trkpt><trkpt lat="42.536368" lon="13.2533638"><ele>837.0</ele><time>2026-04-26T08:07:44.774Z</time></trkpt><trkpt lat="42.536341" lon="13.2531654"><ele>836.0</ele><time>2026-04-26T08:07:45.773Z</time></trkpt><trkpt lat="42.5363105" lon="13.25295"><ele>835.6666666666667</ele><time>2026-04-26T08:07:46.774Z</time></trkpt><trkpt lat="42.5362814" lon="13.252728"><ele>835.3333333333333</ele><time>2026-04-26T08:07:47.772Z</time></trkpt><trkpt lat="42.5362493" lon="13.2524998"><ele>835.0</ele><time>2026-04-26T08:07:48.772Z</time></trkpt><trkpt lat="42.5362181" lon="13.2522718"><ele>833.6666666666666</ele><time>2026-04-26T08:07:49.774Z</time></trkpt><trkpt lat="42.5361779" lon="13.2520439"><ele>832.3333333333333</ele><time>2026-04-26T08:07:50.772Z</time></trkpt><trkpt lat="42.5361179" lon="13.2518231"><ele>831.0</ele><time>2026-04-26T08:07:51.773Z</time></trkpt><trkpt lat="42.5360393" lon="13.2516265"><ele>832.0</ele><time>2026-04-26T08:07:52.773Z</time></trkpt><trkpt lat="42.5359497" lon="13.2514353"><ele>833.0</ele><time>2026-04-26T08:07:53.774Z</time></trkpt><trkpt lat="42.5358494" lon="13.2512635"><ele>834.0</ele><time>2026-04-26T08:07:54.772Z</time></trkpt><trkpt lat="42.5357436" lon="13.2511073"><ele>834.0</ele><time>2026-04-26T08:07:55.772Z</time></trkpt><trkpt lat="42.5356381" lon="13.2509672"><ele>834.0</ele><time>2026-04-26T08:07:56.773Z</time></trkpt><trkpt lat="42.5355333" lon="13.2508308"><ele>834.0</ele><time>2026-04-26T08:07:57.772Z</time></trkpt><trkpt lat="42.535423" lon="13.2506947"><ele>834.0</ele><time>2026-04-26T08:07:58.773Z</time></trkpt><trkpt lat="42.5353064" lon="13.2505522"><ele>832.6666666666667</ele><time>2026-04-26T08:07:59.774Z</time></trkpt><trkpt lat="42.5351793" lon="13.2504037"><ele>831.3333333333334</ele><time>2026-04-26T08:08:00.774Z</time></trkpt><trkpt lat="42.5350506" lon="13.2502468"><ele>830.0</ele><time>2026-04-26T08:08:01.772Z</time></trkpt><trkpt lat="42.5349224" lon="13.2500882"><ele>830.0</ele><time>2026-04-26T08:08:02.773Z</time></trkpt><trkpt lat="42.5347954" lon="13.249932"><ele>830.0</ele><time>2026-04-26T08:08:03.773Z</time></trkpt><trkpt lat="42.5346673" lon="13.2497774"><ele>830.0</ele><time>2026-04-26T08:08:04.773Z</time></trkpt><trkpt lat="42.5345389" lon="13.2496224"><ele>828.3333333333334</ele><time>2026-04-26T08:08:05.773Z</time></trkpt><trkpt lat="42.5344151" lon="13.249466"><ele>826.6666666666667</ele><time>2026-04-26T08:08:06.774Z</time></trkpt><trkpt lat="42.534291" lon="13.2493146"><ele>825.0</ele><time>2026-04-26T08:08:07.772Z</time></trkpt><trkpt lat="42.5341714" lon="13.2491629"><ele>825.0</ele><time>2026-04-26T08:08:08.773Z</time></trkpt><trkpt lat="42.5340453" lon="13.2490139"><ele>825.0</ele><time>2026-04-26T08:08:09.774Z</time></trkpt><trkpt lat="42.5339236" lon="13.2488622"><ele>825.0</ele><time>2026-04-26T08:08:10.772Z</time></trkpt><trkpt lat="42.533802" lon="13.2487104"><ele>825.6666666666667</ele><time>2026-04-26T08:08:11.773Z</time></trkpt><trkpt lat="42.5336806" lon="13.2485601"><ele>826.3333333333334</ele><time>2026-04-26T08:08:12.773Z</time></trkpt><trkpt lat="42.533559" lon="13.2484091"><ele>827.0</ele><time>2026-04-26T08:08:13.772Z</time></trkpt><trkpt lat="42.5334311" lon="13.2482628"><ele>828.3333333333334</ele><time>2026-04-26T08:08:14.774Z</time></trkpt><trkpt lat="42.5333071" lon="13.2481112"><ele>829.6666666666667</ele><time>2026-04-26T08:08:15.774Z</time></trkpt><trkpt lat="42.5331855" lon="13.2479606"><ele>831.0</ele><time>2026-04-26T08:08:16.773Z</time></trkpt><trkpt lat="42.5330676" lon="13.2478189"><ele>831.0</ele><time>2026-04-26T08:08:17.772Z</time></trkpt><trkpt lat="42.5329516" lon="13.2476807"><ele>831.0</ele><time>2026-04-26T08:08:18.773Z</time></trkpt><trkpt lat="42.5328429" lon="13.2475423"><ele>831.0</ele><time>2026-04-26T08:08:19.774Z</time></trkpt><trkpt lat="42.5327368" lon="13.2474108"><ele>831.0</ele><time>2026-04-26T08:08:20.772Z</time></trkpt><trkpt lat="42.5326405" lon="13.2472884"><ele>830.8</ele><time>2026-04-26T08:08:21.773Z</time></trkpt><trkpt lat="42.5325469" lon="13.2471768"><ele>830.5999999999999</ele><time>2026-04-26T08:08:22.774Z</time></trkpt><trkpt lat="42.5324684" lon="13.2470673"><ele>830.4</ele><time>2026-04-26T08:08:23.773Z</time></trkpt><trkpt lat="42.5324109" lon="13.2469559"><ele>830.2</ele><time>2026-04-26T08:08:24.773Z</time></trkpt><trkpt lat="42.5323651" lon="13.2468428"><ele>830.0</ele><time>2026-04-26T08:08:25.773Z</time></trkpt><trkpt lat="42.5323303" lon="13.2467355"><ele>830.0</ele><time>2026-04-26T08:08:26.772Z</time></trkpt><trkpt lat="42.5323042" lon="13.2466373"><ele>830.0</ele><time>2026-04-26T08:08:27.773Z</time></trkpt><trkpt lat="42.5322474" lon="13.2465009"><ele>830.0</ele><time>2026-04-26T08:08:29.773Z</time></trkpt><trkpt lat="42.5321301" lon="13.24642"><ele>830.0</ele><time>2026-04-26T08:08:31.774Z</time></trkpt><trkpt lat="42.5320417" lon="13.2463913"><ele>830.0</ele><time>2026-04-26T08:08:32.773Z</time></trkpt><trkpt lat="42.5319366" lon="13.2463565"><ele>829.25</ele><time>2026-04-26T08:08:33.773Z</time></trkpt><trkpt lat="42.5318148" lon="13.2463156"><ele>828.5</ele><time>2026-04-26T08:08:34.772Z</time></trkpt><trkpt lat="42.5316869" lon="13.2462798"><ele>827.75</ele><time>2026-04-26T08:08:35.773Z</time></trkpt><trkpt lat="42.531546" lon="13.2462423"><ele>827.0</ele><time>2026-04-26T08:08:36.772Z</time></trkpt><trkpt lat="42.5313976" lon="13.2462034"><ele>827.0</ele><time>2026-04-26T08:08:37.772Z</time></trkpt><trkpt lat="42.531244" lon="13.2461648"><ele>827.0</ele><time>2026-04-26T08:08:38.773Z</time></trkpt><trkpt lat="42.5310859" lon="13.2461195"><ele>827.0</ele><time>2026-04-26T08:08:39.773Z</time></trkpt><trkpt lat="42.5309264" lon="13.2460721"><ele>826.3333333333334</ele><time>2026-04-26T08:08:40.773Z</time></trkpt><trkpt lat="42.5307642" lon="13.246022"><ele>825.6666666666667</ele><time>2026-04-26T08:08:41.772Z</time></trkpt><trkpt lat="42.530594" lon="13.2459868"><ele>825.0</ele><time>2026-04-26T08:08:42.772Z</time></trkpt><trkpt lat="42.5304284" lon="13.2459631"><ele>824.5</ele><time>2026-04-26T08:08:43.773Z</time></trkpt><trkpt lat="42.5302707" lon="13.245951"><ele>824.0</ele><time>2026-04-26T08:08:44.771Z</time></trkpt><trkpt lat="42.5301215" lon="13.2459482"><ele>823.5</ele><time>2026-04-26T08:08:45.773Z</time></trkpt><trkpt lat="42.5299846" lon="13.2459544"><ele>823.0</ele><time>2026-04-26T08:08:46.773Z</time></trkpt><trkpt lat="42.529864" lon="13.2459671"><ele>822.9999999999999</ele><time>2026-04-26T08:08:47.772Z</time></trkpt><trkpt lat="42.5297619" lon="13.2459761"><ele>823.0</ele><time>2026-04-26T08:08:48.773Z</time></trkpt><trkpt lat="42.5296814" lon="13.2459628"><ele>823.0</ele><time>2026-04-26T08:08:49.771Z</time></trkpt><trkpt lat="42.5296142" lon="13.2459214"><ele>823.0</ele><time>2026-04-26T08:08:50.772Z</time></trkpt><trkpt lat="42.5295546" lon="13.2458517"><ele>822.9999999999999</ele><time>2026-04-26T08:08:51.773Z</time></trkpt><trkpt lat="42.5294968" lon="13.2457534"><ele>823.0</ele><time>2026-04-26T08:08:52.773Z</time></trkpt><trkpt lat="42.5294458" lon="13.2456378"><ele>823.2</ele><time>2026-04-26T08:08:53.772Z</time></trkpt><trkpt lat="42.5294023" lon="13.2455082"><ele>823.4</ele><time>2026-04-26T08:08:54.772Z</time></trkpt><trkpt lat="42.5293702" lon="13.2453726"><ele>823.6</ele><time>2026-04-26T08:08:55.773Z</time></trkpt><trkpt lat="42.5293386" lon="13.245225"><ele>823.8000000000001</ele><time>2026-04-26T08:08:56.772Z</time></trkpt><trkpt lat="42.5293085" lon="13.2450864"><ele>824.0</ele><time>2026-04-26T08:08:57.772Z</time></trkpt><trkpt lat="42.5292642" lon="13.2449656"><ele>824.0</ele><time>2026-04-26T08:08:58.772Z</time></trkpt><trkpt lat="42.5292028" lon="13.2448357"><ele>824.0</ele><time>2026-04-26T08:08:59.772Z</time></trkpt><trkpt lat="42.5291211" lon="13.2446925"><ele>824.0</ele><time>2026-04-26T08:09:00.771Z</time></trkpt><trkpt lat="42.5290247" lon="13.2445457"><ele>824.0</ele><time>2026-04-26T08:09:01.773Z</time></trkpt><trkpt lat="42.528913" lon="13.244393"><ele>826.3333333333334</ele><time>2026-04-26T08:09:02.773Z</time></trkpt><trkpt lat="42.5287972" lon="13.2442358"><ele>828.6666666666667</ele><time>2026-04-26T08:09:03.772Z</time></trkpt><trkpt lat="42.5286794" lon="13.2440765"><ele>831.0</ele><time>2026-04-26T08:09:04.771Z</time></trkpt><trkpt lat="42.5285631" lon="13.243907"><ele>834.3333333333333</ele><time>2026-04-26T08:09:05.772Z</time></trkpt><trkpt lat="42.528452" lon="13.2437276"><ele>837.6666666666666</ele><time>2026-04-26T08:09:06.771Z</time></trkpt><trkpt lat="42.5283467" lon="13.2435415"><ele>841.0</ele><time>2026-04-26T08:09:07.772Z</time></trkpt><trkpt lat="42.5282544" lon="13.2433492"><ele>841.0</ele><time>2026-04-26T08:09:08.772Z</time></trkpt><trkpt lat="42.5281726" lon="13.243165"><ele>841.0</ele><time>2026-04-26T08:09:09.772Z</time></trkpt><trkpt lat="42.5280982" lon="13.242993"><ele>841.0</ele><time>2026-04-26T08:09:10.773Z</time></trkpt><trkpt lat="42.5280146" lon="13.2428386"><ele>841.0</ele><time>2026-04-26T08:09:11.773Z</time></trkpt><trkpt lat="42.5279229" lon="13.2427055"><ele>846.5999999999999</ele><time>2026-04-26T08:09:12.773Z</time></trkpt><trkpt lat="42.5278376" lon="13.2426059"><ele>852.2</ele><time>2026-04-26T08:09:13.772Z</time></trkpt><trkpt lat="42.5277639" lon="13.2425183"><ele>857.8000000000001</ele><time>2026-04-26T08:09:14.772Z</time></trkpt><trkpt lat="42.5276918" lon="13.2424503"><ele>863.4000000000001</ele><time>2026-04-26T08:09:15.773Z</time></trkpt><trkpt lat="42.527632" lon="13.2424194"><ele>869.0</ele><time>2026-04-26T08:09:16.773Z</time></trkpt><trkpt lat="42.5275254" lon="13.2424904"><ele>869.0</ele><time>2026-04-26T08:09:18.773Z</time></trkpt><trkpt lat="42.5274829" lon="13.2425859"><ele>869.0000000000001</ele><time>2026-04-26T08:09:19.772Z</time></trkpt><trkpt lat="42.5274254" lon="13.2426951"><ele>869.0000000000001</ele><time>2026-04-26T08:09:20.772Z</time></trkpt><trkpt lat="42.5273414" lon="13.2427991"><ele>869.0</ele><time>2026-04-26T08:09:21.773Z</time></trkpt><trkpt lat="42.5272482" lon="13.242907"><ele>869.0</ele><time>2026-04-26T08:09:22.773Z</time></trkpt><trkpt lat="42.5271442" lon="13.2430131"><ele>873.2</ele><time>2026-04-26T08:09:23.773Z</time></trkpt><trkpt lat="42.5270421" lon="13.2431028"><ele>877.4000000000001</ele><time>2026-04-26T08:09:24.772Z</time></trkpt><trkpt lat="42.5269449" lon="13.2431791"><ele>881.6</ele><time>2026-04-26T08:09:25.771Z</time></trkpt><trkpt lat="42.5268545" lon="13.2432424"><ele>885.8</ele><time>2026-04-26T08:09:26.772Z</time></trkpt><trkpt lat="42.5267758" lon="13.2432913"><ele>890.0</ele><time>2026-04-26T08:09:27.773Z</time></trkpt><trkpt lat="42.5267101" lon="13.2433351"><ele>890.0</ele><time>2026-04-26T08:09:28.772Z</time></trkpt><trkpt lat="42.5266679" lon="13.243401"><ele>890.0</ele><time>2026-04-26T08:09:29.772Z</time></trkpt><trkpt lat="42.5266455" lon="13.2434906"><ele>890.0</ele><time>2026-04-26T08:09:30.772Z</time></trkpt><trkpt lat="42.5266284" lon="13.2435838"><ele>890.0</ele><time>2026-04-26T08:09:31.773Z</time></trkpt><trkpt lat="42.5266093" lon="13.2436876"><ele>890.0</ele><time>2026-04-26T08:09:32.773Z</time></trkpt><trkpt lat="42.526586" lon="13.243776"><ele>890.0</ele><time>2026-04-26T08:09:33.772Z</time></trkpt><trkpt lat="42.5265462" lon="13.2438585"><ele>890.0</ele><time>2026-04-26T08:09:34.773Z</time></trkpt><trkpt lat="42.5264718" lon="13.2439238"><ele>887.4</ele><time>2026-04-26T08:09:35.772Z</time></trkpt><trkpt lat="42.5263912" lon="13.2439947"><ele>884.8</ele><time>2026-04-26T08:09:36.772Z</time></trkpt><trkpt lat="42.5263201" lon="13.2440596"><ele>882.2</ele><time>2026-04-26T08:09:37.773Z</time></trkpt><trkpt lat="42.5262353" lon="13.2441484"><ele>879.6</ele><time>2026-04-26T08:09:38.772Z</time></trkpt><trkpt lat="42.5261624" lon="13.2442357"><ele>877.0</ele><time>2026-04-26T08:09:39.773Z</time></trkpt><trkpt lat="42.5261049" lon="13.2443339"><ele>883.0</ele><time>2026-04-26T08:09:40.773Z</time></trkpt><trkpt lat="42.5260349" lon="13.2444251"><ele>889.0</ele><time>2026-04-26T08:09:41.771Z</time></trkpt><trkpt lat="42.5259351" lon="13.2445189"><ele>895.0</ele><time>2026-04-26T08:09:43.773Z</time></trkpt><trkpt lat="42.525868" lon="13.2445696"><ele>901.0</ele><time>2026-04-26T08:09:44.773Z</time></trkpt><trkpt lat="42.5257893" lon="13.2446157"><ele>907.0</ele><time>2026-04-26T08:09:45.772Z</time></trkpt><trkpt lat="42.5257126" lon="13.2446591"><ele>907.0</ele><time>2026-04-26T08:09:46.772Z</time></trkpt><trkpt lat="42.5256352" lon="13.2446973"><ele>907.0</ele><time>2026-04-26T08:09:47.773Z</time></trkpt><trkpt lat="42.5255724" lon="13.2447291"><ele>907.0</ele><time>2026-04-26T08:09:48.772Z</time></trkpt><trkpt lat="42.5255063" lon="13.2447522"><ele>907.0</ele><time>2026-04-26T08:09:49.772Z</time></trkpt><trkpt lat="42.5253911" lon="13.2447597"><ele>907.0</ele><time>2026-04-26T08:09:51.773Z</time></trkpt><trkpt lat="42.5252571" lon="13.2447251"><ele>907.9999999999999</ele><time>2026-04-26T08:09:53.771Z</time></trkpt><trkpt lat="42.5251922" lon="13.2447051"><ele>909.0</ele><time>2026-04-26T08:09:54.773Z</time></trkpt><trkpt lat="42.5250868" lon="13.2446807"><ele>910.0</ele><time>2026-04-26T08:09:56.772Z</time></trkpt><trkpt lat="42.5250346" lon="13.2446272"><ele>911.0</ele><time>2026-04-26T08:10:00.772Z</time></trkpt><trkpt lat="42.5251054" lon="13.2445893"><ele>911.9999999999999</ele><time>2026-04-26T08:10:07.772Z</time></trkpt><trkpt lat="42.5251971" lon="13.2445781"><ele>913.0</ele><time>2026-04-26T08:10:09.772Z</time></trkpt><trkpt lat="42.5252609" lon="13.2445353"><ele>912.9999999999999</ele><time>2026-04-26T08:10:11.771Z</time></trkpt><trkpt lat="42.5253165" lon="13.2444498"><ele>913.0</ele><time>2026-04-26T08:10:13.773Z</time></trkpt><trkpt lat="42.5253573" lon="13.2443641"><ele>913.0</ele><time>2026-04-26T08:10:16.773Z</time></trkpt><trkpt lat="42.5253023" lon="13.2442393"><ele>913.0</ele><time>2026-04-26T08:10:18.772Z</time></trkpt><trkpt lat="42.5252369" lon="13.2441481"><ele>912.9999999999999</ele><time>2026-04-26T08:10:20.773Z</time></trkpt><trkpt lat="42.5251903" lon="13.2440711"><ele>913.0</ele><time>2026-04-26T08:10:22.772Z</time></trkpt><trkpt lat="42.5252126" lon="13.2439428"><ele>912.8</ele><time>2026-04-26T08:10:25.772Z</time></trkpt><trkpt lat="42.5253009" lon="13.2438241"><ele>912.5999999999999</ele><time>2026-04-26T08:10:27.773Z</time></trkpt><trkpt lat="42.5253856" lon="13.2437176"><ele>912.4000000000001</ele><time>2026-04-26T08:10:29.772Z</time></trkpt><trkpt lat="42.5254591" lon="13.2436375"><ele>912.2</ele><time>2026-04-26T08:10:31.771Z</time></trkpt><trkpt lat="42.525523" lon="13.2435647"><ele>912.0</ele><time>2026-04-26T08:10:33.772Z</time></trkpt><trkpt lat="42.5255448" lon="13.2434798"><ele>912.0</ele><time>2026-04-26T08:10:36.773Z</time></trkpt><trkpt lat="42.5256284" lon="13.2434667"><ele>911.9999999999999</ele><time>2026-04-26T08:15:59.77Z</time></trkpt><trkpt lat="42.5255708" lon="13.2434303"><ele>912.0</ele><time>2026-04-26T08:21:20.768Z</time></trkpt><trkpt lat="42.5256471" lon="13.2434161"><ele>912.0</ele><time>2026-04-26T08:23:35.767Z</time></trkpt><trkpt lat="42.5256993" lon="13.2433657"><ele>911.9999999999999</ele><time>2026-04-26T08:23:36.767Z</time></trkpt><trkpt lat="42.5257463" lon="13.2432981"><ele>912.0</ele><time>2026-04-26T08:23:37.768Z</time></trkpt><trkpt lat="42.5257927" lon="13.2432244"><ele>912.0</ele><time>2026-04-26T08:23:38.767Z</time></trkpt><trkpt lat="42.5258387" lon="13.2431343"><ele>911.1666666666666</ele><time>2026-04-26T08:23:39.768Z</time></trkpt><trkpt lat="42.5258833" lon="13.2430434"><ele>910.3333333333333</ele><time>2026-04-26T08:23:40.767Z</time></trkpt><trkpt lat="42.5259355" lon="13.2429376"><ele>909.5</ele><time>2026-04-26T08:23:41.768Z</time></trkpt><trkpt lat="42.5259835" lon="13.2428434"><ele>908.6666666666666</ele><time>2026-04-26T08:23:42.767Z</time></trkpt><trkpt lat="42.526027" lon="13.2427527"><ele>907.8333333333333</ele><time>2026-04-26T08:23:43.767Z</time></trkpt><trkpt lat="42.5260667" lon="13.2426614"><ele>907.0</ele><time>2026-04-26T08:23:44.768Z</time></trkpt><trkpt lat="42.5260949" lon="13.2425798"><ele>907.0</ele><time>2026-04-26T08:23:45.768Z</time></trkpt><trkpt lat="42.5261489" lon="13.2424417"><ele>907.0</ele><time>2026-04-26T08:23:47.767Z</time></trkpt><trkpt lat="42.5262099" lon="13.2422821"><ele>907.0</ele><time>2026-04-26T08:23:49.767Z</time></trkpt><trkpt lat="42.5262399" lon="13.2421929"><ele>907.0</ele><time>2026-04-26T08:23:50.767Z</time></trkpt><trkpt lat="42.5262726" lon="13.2420917"><ele>907.0</ele><time>2026-04-26T08:23:51.767Z</time></trkpt><trkpt lat="42.5263076" lon="13.2419815"><ele>907.4999999999999</ele><time>2026-04-26T08:23:52.767Z</time></trkpt><trkpt lat="42.5263383" lon="13.241892"><ele>908.0</ele><time>2026-04-26T08:23:53.766Z</time></trkpt><trkpt lat="42.5263778" lon="13.2417694"><ele>908.5</ele><time>2026-04-26T08:23:55.767Z</time></trkpt><trkpt lat="42.5264379" lon="13.2416947"><ele>909.0</ele><time>2026-04-26T08:23:59.766Z</time></trkpt><trkpt lat="42.5264673" lon="13.2415607"><ele>909.4999999999999</ele><time>2026-04-26T08:24:24.766Z</time></trkpt><trkpt lat="42.5264999" lon="13.2414566"><ele>910.0</ele><time>2026-04-26T08:24:25.767Z</time></trkpt><trkpt lat="42.5265454" lon="13.2413402"><ele>912.6</ele><time>2026-04-26T08:24:26.766Z</time></trkpt><trkpt lat="42.5265934" lon="13.2412241"><ele>915.2</ele><time>2026-04-26T08:24:27.765Z</time></trkpt><trkpt lat="42.526657" lon="13.2411184"><ele>917.8</ele><time>2026-04-26T08:24:28.766Z</time></trkpt><trkpt lat="42.5267396" lon="13.2410303"><ele>920.4</ele><time>2026-04-26T08:24:29.767Z</time></trkpt><trkpt lat="42.5268365" lon="13.2409709"><ele>923.0</ele><time>2026-04-26T08:24:30.766Z</time></trkpt><trkpt lat="42.5269552" lon="13.2409526"><ele>922.5</ele><time>2026-04-26T08:24:31.766Z</time></trkpt><trkpt lat="42.5270759" lon="13.2409277"><ele>922.0</ele><time>2026-04-26T08:24:32.767Z</time></trkpt><trkpt lat="42.5271871" lon="13.2408982"><ele>921.5</ele><time>2026-04-26T08:24:33.767Z</time></trkpt><trkpt lat="42.5272937" lon="13.2408689"><ele>921.0</ele><time>2026-04-26T08:24:34.766Z</time></trkpt><trkpt lat="42.5274054" lon="13.2408341"><ele>921.0</ele><time>2026-04-26T08:24:35.767Z</time></trkpt><trkpt lat="42.5275265" lon="13.2407944"><ele>921.0</ele><time>2026-04-26T08:24:36.766Z</time></trkpt><trkpt lat="42.5276622" lon="13.2407256"><ele>921.0</ele><time>2026-04-26T08:24:37.767Z</time></trkpt><trkpt lat="42.527808" lon="13.2406343"><ele>921.0</ele><time>2026-04-26T08:24:38.767Z</time></trkpt><trkpt lat="42.5279541" lon="13.2405219"><ele>923.25</ele><time>2026-04-26T08:24:39.766Z</time></trkpt><trkpt lat="42.5280835" lon="13.240412"><ele>925.5</ele><time>2026-04-26T08:24:40.767Z</time></trkpt><trkpt lat="42.5281973" lon="13.2403049"><ele>927.75</ele><time>2026-04-26T08:24:41.767Z</time></trkpt><trkpt lat="42.5282955" lon="13.2402099"><ele>930.0</ele><time>2026-04-26T08:24:42.766Z</time></trkpt><trkpt lat="42.5283849" lon="13.2401362"><ele>930.0</ele><time>2026-04-26T08:24:43.765Z</time></trkpt><trkpt lat="42.5284618" lon="13.2400706"><ele>930.0</ele><time>2026-04-26T08:24:44.765Z</time></trkpt><trkpt lat="42.5285181" lon="13.2400003"><ele>930.0</ele><time>2026-04-26T08:24:45.765Z</time></trkpt><trkpt lat="42.5285408" lon="13.2399142"><ele>930.0</ele><time>2026-04-26T08:24:46.765Z</time></trkpt><trkpt lat="42.5285308" lon="13.2398181"><ele>930.0</ele><time>2026-04-26T08:24:47.767Z</time></trkpt><trkpt lat="42.5284782" lon="13.2397482"><ele>930.0</ele><time>2026-04-26T08:24:48.765Z</time></trkpt><trkpt lat="42.5283995" lon="13.2397332"><ele>930.0</ele><time>2026-04-26T08:24:49.765Z</time></trkpt><trkpt lat="42.5283085" lon="13.2397674"><ele>930.0</ele><time>2026-04-26T08:24:50.766Z</time></trkpt><trkpt lat="42.5282145" lon="13.2398178"><ele>930.0</ele><time>2026-04-26T08:24:51.767Z</time></trkpt><trkpt lat="42.5281123" lon="13.2398258"><ele>930.0</ele><time>2026-04-26T08:24:52.766Z</time></trkpt><trkpt lat="42.528012" lon="13.2397988"><ele>930.0</ele><time>2026-04-26T08:24:53.766Z</time></trkpt><trkpt lat="42.527923" lon="13.239735"><ele>931.0</ele><time>2026-04-26T08:24:54.766Z</time></trkpt><trkpt lat="42.5278516" lon="13.2396517"><ele>932.0</ele><time>2026-04-26T08:24:55.766Z</time></trkpt><trkpt lat="42.5278062" lon="13.2395607"><ele>933.0</ele><time>2026-04-26T08:24:56.765Z</time></trkpt><trkpt lat="42.5277794" lon="13.2394586"><ele>934.0</ele><time>2026-04-26T08:24:57.767Z</time></trkpt><trkpt lat="42.5277666" lon="13.2393491"><ele>935.0</ele><time>2026-04-26T08:24:58.766Z</time></trkpt><trkpt lat="42.5277722" lon="13.2392361"><ele>936.0</ele><time>2026-04-26T08:24:59.766Z</time></trkpt><trkpt lat="42.5277959" lon="13.239121"><ele>936.0</ele><time>2026-04-26T08:25:00.767Z</time></trkpt><trkpt lat="42.5278334" lon="13.239004"><ele>935.9999999999999</ele><time>2026-04-26T08:25:01.767Z</time></trkpt><trkpt lat="42.5278392" lon="13.2388749"><ele>935.9999999999999</ele><time>2026-04-26T08:25:02.766Z</time></trkpt><trkpt lat="42.5278077" lon="13.238737"><ele>936.0</ele><time>2026-04-26T08:25:03.767Z</time></trkpt><trkpt lat="42.5277406" lon="13.2386128"><ele>936.0</ele><time>2026-04-26T08:25:04.767Z</time></trkpt><trkpt lat="42.5276388" lon="13.2384959"><ele>938.0</ele><time>2026-04-26T08:25:05.767Z</time></trkpt><trkpt lat="42.5275216" lon="13.238397"><ele>940.0</ele><time>2026-04-26T08:25:06.766Z</time></trkpt><trkpt lat="42.5274058" lon="13.2382983"><ele>942.0</ele><time>2026-04-26T08:25:07.766Z</time></trkpt><trkpt lat="42.5272947" lon="13.2381932"><ele>944.0</ele><time>2026-04-26T08:25:08.767Z</time></trkpt><trkpt lat="42.527192" lon="13.2381082"><ele>942.6</ele><time>2026-04-26T08:25:09.767Z</time></trkpt><trkpt lat="42.5270986" lon="13.2380283"><ele>941.2</ele><time>2026-04-26T08:25:10.765Z</time></trkpt><trkpt lat="42.5270343" lon="13.2379188"><ele>939.8000000000001</ele><time>2026-04-26T08:25:11.765Z</time></trkpt><trkpt lat="42.5269967" lon="13.2377814"><ele>938.4000000000001</ele><time>2026-04-26T08:25:12.766Z</time></trkpt><trkpt lat="42.5270043" lon="13.2376356"><ele>937.0</ele><time>2026-04-26T08:25:13.766Z</time></trkpt><trkpt lat="42.5270501" lon="13.2374993"><ele>937.5</ele><time>2026-04-26T08:25:14.767Z</time></trkpt><trkpt lat="42.5271329" lon="13.2373724"><ele>938.0</ele><time>2026-04-26T08:25:15.766Z</time></trkpt><trkpt lat="42.5272527" lon="13.2372737"><ele>938.5</ele><time>2026-04-26T08:25:16.765Z</time></trkpt><trkpt lat="42.5273936" lon="13.2371716"><ele>939.0</ele><time>2026-04-26T08:25:17.766Z</time></trkpt><trkpt lat="42.527554" lon="13.2370652"><ele>939.0</ele><time>2026-04-26T08:25:18.766Z</time></trkpt><trkpt lat="42.5277204" lon="13.2369431"><ele>939.0</ele><time>2026-04-26T08:25:19.767Z</time></trkpt><trkpt lat="42.5278735" lon="13.236806"><ele>939.0</ele><time>2026-04-26T08:25:20.766Z</time></trkpt><trkpt lat="42.528013" lon="13.2366808"><ele>941.5</ele><time>2026-04-26T08:25:21.765Z</time></trkpt><trkpt lat="42.5281387" lon="13.236559"><ele>944.0</ele><time>2026-04-26T08:25:22.766Z</time></trkpt><trkpt lat="42.5282541" lon="13.236436"><ele>946.5</ele><time>2026-04-26T08:25:23.767Z</time></trkpt><trkpt lat="42.5283575" lon="13.2363241"><ele>949.0</ele><time>2026-04-26T08:25:24.766Z</time></trkpt><trkpt lat="42.5284576" lon="13.2362127"><ele>949.0</ele><time>2026-04-26T08:25:25.767Z</time></trkpt><trkpt lat="42.5285424" lon="13.2360724"><ele>949.0</ele><time>2026-04-26T08:25:26.766Z</time></trkpt><trkpt lat="42.5285939" lon="13.2359128"><ele>949.0</ele><time>2026-04-26T08:25:27.765Z</time></trkpt><trkpt lat="42.5286008" lon="13.2357439"><ele>949.0</ele><time>2026-04-26T08:25:28.766Z</time></trkpt><trkpt lat="42.5285828" lon="13.235578"><ele>948.0</ele><time>2026-04-26T08:25:29.767Z</time></trkpt><trkpt lat="42.5285639" lon="13.2354137"><ele>947.0</ele><time>2026-04-26T08:25:30.766Z</time></trkpt><trkpt lat="42.5285862" lon="13.2352477"><ele>946.0</ele><time>2026-04-26T08:25:31.766Z</time></trkpt><trkpt lat="42.528643" lon="13.2350793"><ele>945.0</ele><time>2026-04-26T08:25:32.765Z</time></trkpt><trkpt lat="42.5287319" lon="13.2349202"><ele>953.0</ele><time>2026-04-26T08:25:33.766Z</time></trkpt><trkpt lat="42.528844" lon="13.2347527"><ele>961.0</ele><time>2026-04-26T08:25:34.765Z</time></trkpt><trkpt lat="42.5289452" lon="13.2345546"><ele>969.0</ele><time>2026-04-26T08:25:35.767Z</time></trkpt><trkpt lat="42.5290254" lon="13.2343388"><ele>969.0</ele><time>2026-04-26T08:25:36.766Z</time></trkpt><trkpt lat="42.5290933" lon="13.2341343"><ele>969.0</ele><time>2026-04-26T08:25:37.767Z</time></trkpt><trkpt lat="42.5291541" lon="13.2339392"><ele>969.0</ele><time>2026-04-26T08:25:38.766Z</time></trkpt><trkpt lat="42.5292054" lon="13.233771"><ele>972.25</ele><time>2026-04-26T08:25:39.766Z</time></trkpt><trkpt lat="42.5292335" lon="13.2336118"><ele>975.5</ele><time>2026-04-26T08:25:40.765Z</time></trkpt><trkpt lat="42.5292265" lon="13.2334576"><ele>978.75</ele><time>2026-04-26T08:25:41.766Z</time></trkpt><trkpt lat="42.5291687" lon="13.2333114"><ele>982.0</ele><time>2026-04-26T08:25:42.765Z</time></trkpt><trkpt lat="42.529062" lon="13.2331891"><ele>988.3333333333333</ele><time>2026-04-26T08:25:43.766Z</time></trkpt><trkpt lat="42.5289284" lon="13.2330934"><ele>994.6666666666667</ele><time>2026-04-26T08:25:44.765Z</time></trkpt><trkpt lat="42.5287865" lon="13.2329999"><ele>1001.0</ele><time>2026-04-26T08:25:45.766Z</time></trkpt><trkpt lat="42.528658" lon="13.2328891"><ele>1001.0</ele><time>2026-04-26T08:25:46.766Z</time></trkpt><trkpt lat="42.5285205" lon="13.2327955"><ele>1001.0</ele><time>2026-04-26T08:25:47.766Z</time></trkpt><trkpt lat="42.5283744" lon="13.232781"><ele>1001.0</ele><time>2026-04-26T08:25:48.766Z</time></trkpt><trkpt lat="42.5282421" lon="13.2327509"><ele>1001.0</ele><time>2026-04-26T08:25:49.766Z</time></trkpt><trkpt lat="42.5281082" lon="13.2326927"><ele>1001.0</ele><time>2026-04-26T08:25:50.767Z</time></trkpt><trkpt lat="42.5279859" lon="13.2325978"><ele>1001.0</ele><time>2026-04-26T08:25:51.767Z</time></trkpt><trkpt lat="42.5278841" lon="13.2324898"><ele>1001.0</ele><time>2026-04-26T08:25:52.767Z</time></trkpt><trkpt lat="42.5277714" lon="13.2324257"><ele>1001.0</ele><time>2026-04-26T08:25:53.767Z</time></trkpt><trkpt lat="42.5276499" lon="13.2324232"><ele>1002.0</ele><time>2026-04-26T08:25:54.767Z</time></trkpt><trkpt lat="42.527531" lon="13.2324523"><ele>1003.0</ele><time>2026-04-26T08:25:55.766Z</time></trkpt><trkpt lat="42.5274045" lon="13.2324413"><ele>1004.0</ele><time>2026-04-26T08:25:56.765Z</time></trkpt><trkpt lat="42.5272871" lon="13.2323694"><ele>1005.0</ele><time>2026-04-26T08:25:57.765Z</time></trkpt><trkpt lat="42.5271742" lon="13.2322513"><ele>1000.6666666666667</ele><time>2026-04-26T08:25:58.767Z</time></trkpt><trkpt lat="42.5270363" lon="13.2321261"><ele>996.3333333333334</ele><time>2026-04-26T08:25:59.766Z</time></trkpt><trkpt lat="42.5268697" lon="13.2320217"><ele>992.0</ele><time>2026-04-26T08:26:00.766Z</time></trkpt><trkpt lat="42.5266944" lon="13.2319151"><ele>992.0</ele><time>2026-04-26T08:26:01.766Z</time></trkpt><trkpt lat="42.5265357" lon="13.2318087"><ele>992.0</ele><time>2026-04-26T08:26:02.767Z</time></trkpt><trkpt lat="42.5263885" lon="13.2317045"><ele>992.0</ele><time>2026-04-26T08:26:03.766Z</time></trkpt><trkpt lat="42.5262489" lon="13.2316035"><ele>991.0</ele><time>2026-04-26T08:26:04.767Z</time></trkpt><trkpt lat="42.5261351" lon="13.2315116"><ele>990.0</ele><time>2026-04-26T08:26:05.766Z</time></trkpt><trkpt lat="42.5260519" lon="13.231411"><ele>989.0</ele><time>2026-04-26T08:26:06.767Z</time></trkpt><trkpt lat="42.526008" lon="13.2312947"><ele>988.0</ele><time>2026-04-26T08:26:07.765Z</time></trkpt><trkpt lat="42.526007" lon="13.2311824"><ele>987.0</ele><time>2026-04-26T08:26:08.767Z</time></trkpt><trkpt lat="42.5260466" lon="13.2310895"><ele>986.5</ele><time>2026-04-26T08:26:09.767Z</time></trkpt><trkpt lat="42.5261269" lon="13.2310303"><ele>986.0</ele><time>2026-04-26T08:26:10.766Z</time></trkpt><trkpt lat="42.526239" lon="13.2310127"><ele>985.5</ele><time>2026-04-26T08:26:11.767Z</time></trkpt><trkpt lat="42.5263834" lon="13.2310273"><ele>985.0</ele><time>2026-04-26T08:26:12.766Z</time></trkpt><trkpt lat="42.5265508" lon="13.2310445"><ele>986.6666666666666</ele><time>2026-04-26T08:26:13.766Z</time></trkpt><trkpt lat="42.5267341" lon="13.2310278"><ele>988.3333333333333</ele><time>2026-04-26T08:26:14.767Z</time></trkpt><trkpt lat="42.5269233" lon="13.2309787"><ele>990.0</ele><time>2026-04-26T08:26:15.766Z</time></trkpt><trkpt lat="42.5271141" lon="13.230902"><ele>992.6666666666667</ele><time>2026-04-26T08:26:16.766Z</time></trkpt><trkpt lat="42.527304" lon="13.2308125"><ele>995.3333333333334</ele><time>2026-04-26T08:26:17.766Z</time></trkpt><trkpt lat="42.5274825" lon="13.2307312"><ele>998.0</ele><time>2026-04-26T08:26:18.765Z</time></trkpt><trkpt lat="42.5276505" lon="13.2306517"><ele>993.6666666666667</ele><time>2026-04-26T08:26:19.767Z</time></trkpt><trkpt lat="42.5278123" lon="13.23058"><ele>989.3333333333333</ele><time>2026-04-26T08:26:20.767Z</time></trkpt><trkpt lat="42.5279856" lon="13.2305417"><ele>985.0</ele><time>2026-04-26T08:26:21.766Z</time></trkpt><trkpt lat="42.5281681" lon="13.2305459"><ele>985.0</ele><time>2026-04-26T08:26:22.766Z</time></trkpt><trkpt lat="42.5283558" lon="13.2305666"><ele>985.0</ele><time>2026-04-26T08:26:23.765Z</time></trkpt><trkpt lat="42.5285479" lon="13.2305821"><ele>985.0</ele><time>2026-04-26T08:26:24.765Z</time></trkpt><trkpt lat="42.5287421" lon="13.2305818"><ele>986.3333333333333</ele><time>2026-04-26T08:26:25.766Z</time></trkpt><trkpt lat="42.5289263" lon="13.2305796"><ele>987.6666666666667</ele><time>2026-04-26T08:26:26.767Z</time></trkpt><trkpt lat="42.5291045" lon="13.2305824"><ele>989.0</ele><time>2026-04-26T08:26:27.766Z</time></trkpt><trkpt lat="42.5292763" lon="13.2306038"><ele>995.0</ele><time>2026-04-26T08:26:28.766Z</time></trkpt><trkpt lat="42.5294398" lon="13.2306604"><ele>1001.0</ele><time>2026-04-26T08:26:29.765Z</time></trkpt><trkpt lat="42.5295867" lon="13.2307425"><ele>1007.0</ele><time>2026-04-26T08:26:30.766Z</time></trkpt><trkpt lat="42.529727" lon="13.2308284"><ele>1007.0</ele><time>2026-04-26T08:26:31.765Z</time></trkpt><trkpt lat="42.5298807" lon="13.2308704"><ele>1007.0</ele><time>2026-04-26T08:26:32.765Z</time></trkpt><trkpt lat="42.5300467" lon="13.2308618"><ele>1007.0</ele><time>2026-04-26T08:26:33.765Z</time></trkpt><trkpt lat="42.5301943" lon="13.2308462"><ele>1007.0</ele><time>2026-04-26T08:26:34.766Z</time></trkpt><trkpt lat="42.5303456" lon="13.2308504"><ele>1007.0</ele><time>2026-04-26T08:26:35.765Z</time></trkpt><trkpt lat="42.5304925" lon="13.2308848"><ele>1007.0</ele><time>2026-04-26T08:26:36.766Z</time></trkpt><trkpt lat="42.5306226" lon="13.2309476"><ele>1007.0</ele><time>2026-04-26T08:26:37.766Z</time></trkpt><trkpt lat="42.5307446" lon="13.2309971"><ele>1007.75</ele><time>2026-04-26T08:26:38.766Z</time></trkpt><trkpt lat="42.5308654" lon="13.2309831"><ele>1008.5</ele><time>2026-04-26T08:26:39.764Z</time></trkpt><trkpt lat="42.5309725" lon="13.2309189"><ele>1009.25</ele><time>2026-04-26T08:26:40.764Z</time></trkpt><trkpt lat="42.5310564" lon="13.2308051"><ele>1010.0</ele><time>2026-04-26T08:26:41.765Z</time></trkpt><trkpt lat="42.531096" lon="13.2306323"><ele>1008.25</ele><time>2026-04-26T08:26:42.765Z</time></trkpt><trkpt lat="42.5310875" lon="13.2304606"><ele>1006.5</ele><time>2026-04-26T08:26:43.764Z</time></trkpt><trkpt lat="42.5310547" lon="13.230296"><ele>1004.75</ele><time>2026-04-26T08:26:44.764Z</time></trkpt><trkpt lat="42.5310401" lon="13.2301355"><ele>1003.0</ele><time>2026-04-26T08:26:45.764Z</time></trkpt><trkpt lat="42.5310632" lon="13.2299831"><ele>1003.0</ele><time>2026-04-26T08:26:46.766Z</time></trkpt><trkpt lat="42.5311267" lon="13.229847"><ele>1003.0</ele><time>2026-04-26T08:26:47.765Z</time></trkpt><trkpt lat="42.5312306" lon="13.2297589"><ele>1003.0</ele><time>2026-04-26T08:26:48.765Z</time></trkpt><trkpt lat="42.5313659" lon="13.2297034"><ele>1003.0</ele><time>2026-04-26T08:26:49.764Z</time></trkpt><trkpt lat="42.5315298" lon="13.2296917"><ele>1005.6666666666666</ele><time>2026-04-26T08:26:50.765Z</time></trkpt><trkpt lat="42.5317047" lon="13.229696"><ele>1008.3333333333333</ele><time>2026-04-26T08:26:51.765Z</time></trkpt><trkpt lat="42.5318847" lon="13.2297052"><ele>1011.0</ele><time>2026-04-26T08:26:52.765Z</time></trkpt><trkpt lat="42.5320506" lon="13.2297155"><ele>1015.25</ele><time>2026-04-26T08:26:53.765Z</time></trkpt><trkpt lat="42.5321981" lon="13.2297013"><ele>1019.5</ele><time>2026-04-26T08:26:54.766Z</time></trkpt><trkpt lat="42.5323295" lon="13.229648"><ele>1023.75</ele><time>2026-04-26T08:26:55.765Z</time></trkpt><trkpt lat="42.5324373" lon="13.2295445"><ele>1028.0</ele><time>2026-04-26T08:26:56.765Z</time></trkpt><trkpt lat="42.532513" lon="13.2293973"><ele>1028.0</ele><time>2026-04-26T08:26:57.765Z</time></trkpt><trkpt lat="42.5325454" lon="13.2292303"><ele>1028.0</ele><time>2026-04-26T08:26:58.765Z</time></trkpt><trkpt lat="42.5325313" lon="13.2290441"><ele>1028.0</ele><time>2026-04-26T08:26:59.765Z</time></trkpt><trkpt lat="42.5324708" lon="13.2288675"><ele>1028.0</ele><time>2026-04-26T08:27:00.765Z</time></trkpt><trkpt lat="42.532372" lon="13.2287088"><ele>1029.0</ele><time>2026-04-26T08:27:01.765Z</time></trkpt><trkpt lat="42.5322546" lon="13.2285766"><ele>1030.0</ele><time>2026-04-26T08:27:02.766Z</time></trkpt><trkpt lat="42.5321546" lon="13.2284623"><ele>1031.0</ele><time>2026-04-26T08:27:03.764Z</time></trkpt><trkpt lat="42.5320774" lon="13.2283339"><ele>1032.0</ele><time>2026-04-26T08:27:04.764Z</time></trkpt><trkpt lat="42.53204" lon="13.2282011"><ele>1031.0</ele><time>2026-04-26T08:27:05.765Z</time></trkpt><trkpt lat="42.5320483" lon="13.2280638"><ele>1030.0</ele><time>2026-04-26T08:27:06.766Z</time></trkpt><trkpt lat="42.5321045" lon="13.2279447"><ele>1029.0</ele><time>2026-04-26T08:27:07.766Z</time></trkpt><trkpt lat="42.5322038" lon="13.2278513"><ele>1028.0</ele><time>2026-04-26T08:27:08.765Z</time></trkpt><trkpt lat="42.5323347" lon="13.2277663"><ele>1028.0</ele><time>2026-04-26T08:27:09.765Z</time></trkpt><trkpt lat="42.5324794" lon="13.2276722"><ele>1028.0</ele><time>2026-04-26T08:27:10.766Z</time></trkpt><trkpt lat="42.5326326" lon="13.2275723"><ele>1028.0</ele><time>2026-04-26T08:27:11.764Z</time></trkpt><trkpt lat="42.5327876" lon="13.227478"><ele>1031.3333333333335</ele><time>2026-04-26T08:27:12.766Z</time></trkpt><trkpt lat="42.5329599" lon="13.2274171"><ele>1034.6666666666667</ele><time>2026-04-26T08:27:13.766Z</time></trkpt><trkpt lat="42.5331457" lon="13.2274189"><ele>1038.0</ele><time>2026-04-26T08:27:14.765Z</time></trkpt><trkpt lat="42.5333327" lon="13.2274504"><ele>1038.0</ele><time>2026-04-26T08:27:15.766Z</time></trkpt><trkpt lat="42.5335184" lon="13.2274884"><ele>1038.0</ele><time>2026-04-26T08:27:16.765Z</time></trkpt><trkpt lat="42.5337053" lon="13.227523"><ele>1038.0</ele><time>2026-04-26T08:27:17.764Z</time></trkpt><trkpt lat="42.5338833" lon="13.2275625"><ele>1039.3333333333333</ele><time>2026-04-26T08:27:18.766Z</time></trkpt><trkpt lat="42.5340599" lon="13.2276054"><ele>1040.6666666666665</ele><time>2026-04-26T08:27:19.765Z</time></trkpt><trkpt lat="42.5342363" lon="13.2276315"><ele>1042.0</ele><time>2026-04-26T08:27:20.766Z</time></trkpt><trkpt lat="42.5344146" lon="13.227646"><ele>1042.3333333333333</ele><time>2026-04-26T08:27:21.764Z</time></trkpt><trkpt lat="42.5345909" lon="13.2276594"><ele>1042.6666666666667</ele><time>2026-04-26T08:27:22.765Z</time></trkpt><trkpt lat="42.5347695" lon="13.2276755"><ele>1043.0</ele><time>2026-04-26T08:27:23.765Z</time></trkpt><trkpt lat="42.5349499" lon="13.2276914"><ele>1043.0</ele><time>2026-04-26T08:27:24.765Z</time></trkpt><trkpt lat="42.535121" lon="13.2277081"><ele>1043.0</ele><time>2026-04-26T08:27:25.764Z</time></trkpt><trkpt lat="42.5352815" lon="13.2277236"><ele>1043.0</ele><time>2026-04-26T08:27:26.764Z</time></trkpt><trkpt lat="42.5354311" lon="13.227736"><ele>1045.0</ele><time>2026-04-26T08:27:27.765Z</time></trkpt><trkpt lat="42.5355786" lon="13.2277474"><ele>1047.0</ele><time>2026-04-26T08:27:28.765Z</time></trkpt><trkpt lat="42.5357108" lon="13.2277602"><ele>1049.0</ele><time>2026-04-26T08:27:29.765Z</time></trkpt><trkpt lat="42.5358261" lon="13.2277673"><ele>1051.0</ele><time>2026-04-26T08:27:30.765Z</time></trkpt><trkpt lat="42.5359245" lon="13.2277266"><ele>1051.0</ele><time>2026-04-26T08:27:31.766Z</time></trkpt><trkpt lat="42.5360013" lon="13.2276439"><ele>1051.0</ele><time>2026-04-26T08:27:32.766Z</time></trkpt><trkpt lat="42.5360442" lon="13.2275301"><ele>1051.0</ele><time>2026-04-26T08:27:33.766Z</time></trkpt><trkpt lat="42.5360486" lon="13.2273832"><ele>1051.0</ele><time>2026-04-26T08:27:34.765Z</time></trkpt><trkpt lat="42.5360146" lon="13.2272168"><ele>1051.0</ele><time>2026-04-26T08:27:35.765Z</time></trkpt><trkpt lat="42.535953" lon="13.2270359"><ele>1051.3333333333333</ele><time>2026-04-26T08:27:36.766Z</time></trkpt><trkpt lat="42.5358758" lon="13.2268421"><ele>1051.6666666666667</ele><time>2026-04-26T08:27:37.765Z</time></trkpt><trkpt lat="42.5358059" lon="13.2266347"><ele>1052.0</ele><time>2026-04-26T08:27:38.766Z</time></trkpt><trkpt lat="42.5357378" lon="13.2264143"><ele>1054.0</ele><time>2026-04-26T08:27:39.765Z</time></trkpt><trkpt lat="42.5356853" lon="13.2262029"><ele>1056.0</ele><time>2026-04-26T08:27:40.764Z</time></trkpt><trkpt lat="42.5356374" lon="13.2259951"><ele>1058.0</ele><time>2026-04-26T08:27:41.764Z</time></trkpt><trkpt lat="42.535616" lon="13.2257752"><ele>1057.0</ele><time>2026-04-26T08:27:42.765Z</time></trkpt><trkpt lat="42.5356122" lon="13.2255433"><ele>1056.0</ele><time>2026-04-26T08:27:43.765Z</time></trkpt><trkpt lat="42.5356195" lon="13.2253013"><ele>1055.0</ele><time>2026-04-26T08:27:44.766Z</time></trkpt><trkpt lat="42.5356383" lon="13.2250526"><ele>1052.0</ele><time>2026-04-26T08:27:45.766Z</time></trkpt><trkpt lat="42.5356544" lon="13.224812"><ele>1049.0</ele><time>2026-04-26T08:27:46.766Z</time></trkpt><trkpt lat="42.5356683" lon="13.2245788"><ele>1046.0</ele><time>2026-04-26T08:27:47.765Z</time></trkpt><trkpt lat="42.5356887" lon="13.2243735"><ele>1046.0</ele><time>2026-04-26T08:27:48.766Z</time></trkpt><trkpt lat="42.5357309" lon="13.2242012"><ele>1046.0</ele><time>2026-04-26T08:27:49.766Z</time></trkpt><trkpt lat="42.5357936" lon="13.2240625"><ele>1046.0</ele><time>2026-04-26T08:27:50.765Z</time></trkpt><trkpt lat="42.5358787" lon="13.2239613"><ele>1046.0</ele><time>2026-04-26T08:27:51.764Z</time></trkpt><trkpt lat="42.5359956" lon="13.2239049"><ele>1045.25</ele><time>2026-04-26T08:27:52.764Z</time></trkpt><trkpt lat="42.5361286" lon="13.2238999"><ele>1044.5</ele><time>2026-04-26T08:27:53.764Z</time></trkpt><trkpt lat="42.5362676" lon="13.2239465"><ele>1043.75</ele><time>2026-04-26T08:27:54.765Z</time></trkpt><trkpt lat="42.5364002" lon="13.2240096"><ele>1043.0</ele><time>2026-04-26T08:27:55.765Z</time></trkpt><trkpt lat="42.536523" lon="13.2240624"><ele>1043.0</ele><time>2026-04-26T08:27:56.764Z</time></trkpt><trkpt lat="42.536635" lon="13.2240998"><ele>1043.0</ele><time>2026-04-26T08:27:57.765Z</time></trkpt><trkpt lat="42.5367401" lon="13.2241029"><ele>1043.0</ele><time>2026-04-26T08:27:58.765Z</time></trkpt><trkpt lat="42.5368328" lon="13.2240452"><ele>1043.0</ele><time>2026-04-26T08:27:59.766Z</time></trkpt><trkpt lat="42.5369011" lon="13.2239319"><ele>1043.0</ele><time>2026-04-26T08:28:00.766Z</time></trkpt><trkpt lat="42.5369158" lon="13.2237904"><ele>1041.75</ele><time>2026-04-26T08:28:01.765Z</time></trkpt><trkpt lat="42.5368722" lon="13.2236452"><ele>1040.5</ele><time>2026-04-26T08:28:02.764Z</time></trkpt><trkpt lat="42.536783" lon="13.2235072"><ele>1039.25</ele><time>2026-04-26T08:28:03.765Z</time></trkpt><trkpt lat="42.5366732" lon="13.2233583"><ele>1038.0</ele><time>2026-04-26T08:28:04.765Z</time></trkpt><trkpt lat="42.5365625" lon="13.2231949"><ele>1040.3333333333333</ele><time>2026-04-26T08:28:05.764Z</time></trkpt><trkpt lat="42.5364612" lon="13.2230419"><ele>1042.6666666666665</ele><time>2026-04-26T08:28:06.765Z</time></trkpt><trkpt lat="42.5363855" lon="13.2228623"><ele>1045.0</ele><time>2026-04-26T08:28:07.766Z</time></trkpt><trkpt lat="42.5363328" lon="13.2226449"><ele>1045.0</ele><time>2026-04-26T08:28:08.765Z</time></trkpt><trkpt lat="42.5362934" lon="13.2224181"><ele>1045.0</ele><time>2026-04-26T08:28:09.765Z</time></trkpt><trkpt lat="42.5362504" lon="13.222188"><ele>1045.0</ele><time>2026-04-26T08:28:10.765Z</time></trkpt><trkpt lat="42.5361876" lon="13.2219577"><ele>1037.6666666666665</ele><time>2026-04-26T08:28:11.765Z</time></trkpt><trkpt lat="42.5361099" lon="13.2217474"><ele>1030.3333333333333</ele><time>2026-04-26T08:28:12.766Z</time></trkpt><trkpt lat="42.5360247" lon="13.2215491"><ele>1023.0</ele><time>2026-04-26T08:28:13.765Z</time></trkpt><trkpt lat="42.535949" lon="13.2213664"><ele>1023.0</ele><time>2026-04-26T08:28:14.766Z</time></trkpt><trkpt lat="42.5358906" lon="13.2211775"><ele>1023.0</ele><time>2026-04-26T08:28:15.765Z</time></trkpt><trkpt lat="42.5358497" lon="13.2209727"><ele>1023.0</ele><time>2026-04-26T08:28:16.766Z</time></trkpt><trkpt lat="42.5358481" lon="13.2207513"><ele>1021.6666666666667</ele><time>2026-04-26T08:28:17.765Z</time></trkpt><trkpt lat="42.535872" lon="13.2205171"><ele>1020.3333333333334</ele><time>2026-04-26T08:28:18.764Z</time></trkpt><trkpt lat="42.535885" lon="13.2202935"><ele>1019.0</ele><time>2026-04-26T08:28:19.765Z</time></trkpt><trkpt lat="42.5358737" lon="13.2200797"><ele>1019.0</ele><time>2026-04-26T08:28:20.765Z</time></trkpt><trkpt lat="42.5358332" lon="13.2198844"><ele>1019.0</ele><time>2026-04-26T08:28:21.766Z</time></trkpt><trkpt lat="42.5357867" lon="13.2196977"><ele>1019.0</ele><time>2026-04-26T08:28:22.766Z</time></trkpt><trkpt lat="42.535758" lon="13.2195159"><ele>1019.0</ele><time>2026-04-26T08:28:23.766Z</time></trkpt><trkpt lat="42.5357684" lon="13.219321"><ele>1019.0</ele><time>2026-04-26T08:28:24.766Z</time></trkpt><trkpt lat="42.5358113" lon="13.2191271"><ele>1019.0</ele><time>2026-04-26T08:28:25.765Z</time></trkpt><trkpt lat="42.5358772" lon="13.2189461"><ele>1019.0</ele><time>2026-04-26T08:28:26.764Z</time></trkpt><trkpt lat="42.5359407" lon="13.2187768"><ele>1019.0</ele><time>2026-04-26T08:28:27.765Z</time></trkpt><trkpt lat="42.5359971" lon="13.2186106"><ele>1018.5</ele><time>2026-04-26T08:28:28.766Z</time></trkpt><trkpt lat="42.5360342" lon="13.2184602"><ele>1018.0</ele><time>2026-04-26T08:28:29.766Z</time></trkpt><trkpt lat="42.5360274" lon="13.2183088"><ele>1017.5</ele><time>2026-04-26T08:28:30.766Z</time></trkpt><trkpt lat="42.5359741" lon="13.2181668"><ele>1017.0</ele><time>2026-04-26T08:28:31.765Z</time></trkpt><trkpt lat="42.5358771" lon="13.218032"><ele>1024.3333333333333</ele><time>2026-04-26T08:28:32.764Z</time></trkpt><trkpt lat="42.5357545" lon="13.2179128"><ele>1031.6666666666665</ele><time>2026-04-26T08:28:33.765Z</time></trkpt><trkpt lat="42.5356175" lon="13.2178043"><ele>1039.0</ele><time>2026-04-26T08:28:34.764Z</time></trkpt><trkpt lat="42.5354679" lon="13.2177222"><ele>1031.0</ele><time>2026-04-26T08:28:35.765Z</time></trkpt><trkpt lat="42.5353138" lon="13.2176909"><ele>1023.0</ele><time>2026-04-26T08:28:36.765Z</time></trkpt><trkpt lat="42.535165" lon="13.2176765"><ele>1015.0</ele><time>2026-04-26T08:28:37.765Z</time></trkpt><trkpt lat="42.5350112" lon="13.2176259"><ele>1015.0</ele><time>2026-04-26T08:28:38.764Z</time></trkpt><trkpt lat="42.5348602" lon="13.2175228"><ele>1015.0</ele><time>2026-04-26T08:28:39.764Z</time></trkpt><trkpt lat="42.5347209" lon="13.2173989"><ele>1015.0</ele><time>2026-04-26T08:28:40.765Z</time></trkpt><trkpt lat="42.5345957" lon="13.2172698"><ele>1011.0</ele><time>2026-04-26T08:28:41.764Z</time></trkpt><trkpt lat="42.5344934" lon="13.2171348"><ele>1007.0</ele><time>2026-04-26T08:28:42.765Z</time></trkpt><trkpt lat="42.5344184" lon="13.2169713"><ele>1003.0</ele><time>2026-04-26T08:28:43.764Z</time></trkpt><trkpt lat="42.5343835" lon="13.2167912"><ele>999.0</ele><time>2026-04-26T08:28:44.764Z</time></trkpt><trkpt lat="42.5343599" lon="13.2166163"><ele>1005.5</ele><time>2026-04-26T08:28:45.764Z</time></trkpt><trkpt lat="42.5343116" lon="13.2164573"><ele>1012.0</ele><time>2026-04-26T08:28:46.764Z</time></trkpt><trkpt lat="42.5342184" lon="13.2163224"><ele>1018.5</ele><time>2026-04-26T08:28:47.763Z</time></trkpt><trkpt lat="42.5340927" lon="13.2162337"><ele>1025.0</ele><time>2026-04-26T08:28:48.765Z</time></trkpt><trkpt lat="42.5339517" lon="13.2162083"><ele>1025.0</ele><time>2026-04-26T08:28:49.763Z</time></trkpt><trkpt lat="42.5338056" lon="13.2162201"><ele>1025.0</ele><time>2026-04-26T08:28:50.765Z</time></trkpt><trkpt lat="42.5336532" lon="13.2162219"><ele>1025.0</ele><time>2026-04-26T08:28:51.764Z</time></trkpt><trkpt lat="42.5334943" lon="13.2161711"><ele>1019.6666666666667</ele><time>2026-04-26T08:28:52.765Z</time></trkpt><trkpt lat="42.5333302" lon="13.2160882"><ele>1014.3333333333333</ele><time>2026-04-26T08:28:53.765Z</time></trkpt><trkpt lat="42.5331623" lon="13.2159991"><ele>1009.0</ele><time>2026-04-26T08:28:54.765Z</time></trkpt><trkpt lat="42.5329997" lon="13.2159093"><ele>1005.3333333333333</ele><time>2026-04-26T08:28:55.765Z</time></trkpt><trkpt lat="42.5328411" lon="13.2158166"><ele>1001.6666666666667</ele><time>2026-04-26T08:28:56.765Z</time></trkpt><trkpt lat="42.532688" lon="13.2157262"><ele>998.0</ele><time>2026-04-26T08:28:57.765Z</time></trkpt><trkpt lat="42.5325371" lon="13.2156417"><ele>998.0</ele><time>2026-04-26T08:28:58.764Z</time></trkpt><trkpt lat="42.5323939" lon="13.2155642"><ele>998.0</ele><time>2026-04-26T08:28:59.763Z</time></trkpt><trkpt lat="42.5322613" lon="13.2154971"><ele>998.0</ele><time>2026-04-26T08:29:00.765Z</time></trkpt><trkpt lat="42.5321437" lon="13.2154252"><ele>998.0</ele><time>2026-04-26T08:29:01.765Z</time></trkpt><trkpt lat="42.5320439" lon="13.2153377"><ele>990.5</ele><time>2026-04-26T08:29:02.764Z</time></trkpt><trkpt lat="42.5319717" lon="13.2152273"><ele>983.0</ele><time>2026-04-26T08:29:03.765Z</time></trkpt><trkpt lat="42.5319334" lon="13.2150815"><ele>975.5</ele><time>2026-04-26T08:29:04.765Z</time></trkpt><trkpt lat="42.5319293" lon="13.2148952"><ele>968.0</ele><time>2026-04-26T08:29:05.765Z</time></trkpt><trkpt lat="42.5319584" lon="13.2146952"><ele>965.75</ele><time>2026-04-26T08:29:06.763Z</time></trkpt><trkpt lat="42.532024" lon="13.2145127"><ele>963.5</ele><time>2026-04-26T08:29:07.765Z</time></trkpt><trkpt lat="42.532111" lon="13.2143763"><ele>961.25</ele><time>2026-04-26T08:29:08.764Z</time></trkpt><trkpt lat="42.5322035" lon="13.2142945"><ele>959.0</ele><time>2026-04-26T08:29:09.765Z</time></trkpt><trkpt lat="42.5322838" lon="13.2142369"><ele>959.0000000000001</ele><time>2026-04-26T08:29:10.763Z</time></trkpt><trkpt lat="42.5323338" lon="13.2141536"><ele>959.0</ele><time>2026-04-26T08:29:11.763Z</time></trkpt><trkpt lat="42.5323337" lon="13.2140578"><ele>959.0</ele><time>2026-04-26T08:29:12.763Z</time></trkpt><trkpt lat="42.5322944" lon="13.2139867"><ele>959.0</ele><time>2026-04-26T08:29:13.764Z</time></trkpt><trkpt lat="42.5322146" lon="13.2139726"><ele>959.0000000000001</ele><time>2026-04-26T08:29:14.764Z</time></trkpt><trkpt lat="42.5321242" lon="13.2140201"><ele>959.0</ele><time>2026-04-26T08:29:15.763Z</time></trkpt><trkpt lat="42.5320115" lon="13.2141268"><ele>959.0</ele><time>2026-04-26T08:29:16.763Z</time></trkpt><trkpt lat="42.5319025" lon="13.2142735"><ele>959.0</ele><time>2026-04-26T08:29:17.764Z</time></trkpt><trkpt lat="42.531818" lon="13.2144272"><ele>959.0</ele><time>2026-04-26T08:29:18.764Z</time></trkpt><trkpt lat="42.5317588" lon="13.2145759"><ele>959.0</ele><time>2026-04-26T08:29:19.764Z</time></trkpt><trkpt lat="42.5317242" lon="13.2147279"><ele>960.8000000000001</ele><time>2026-04-26T08:29:20.763Z</time></trkpt><trkpt lat="42.531717" lon="13.2148635"><ele>962.6000000000001</ele><time>2026-04-26T08:29:21.765Z</time></trkpt><trkpt lat="42.5317062" lon="13.214977"><ele>964.4</ele><time>2026-04-26T08:29:22.765Z</time></trkpt><trkpt lat="42.5316711" lon="13.2150615"><ele>966.2</ele><time>2026-04-26T08:29:23.765Z</time></trkpt><trkpt lat="42.531568" lon="13.2150627"><ele>968.0</ele><time>2026-04-26T08:29:25.764Z</time></trkpt><trkpt lat="42.5315676" lon="13.2148485"><ele>965.75</ele><time>2026-04-26T08:29:27.765Z</time></trkpt><trkpt lat="42.5316156" lon="13.2146751"><ele>963.5</ele><time>2026-04-26T08:29:28.765Z</time></trkpt><trkpt lat="42.5316609" lon="13.2144808"><ele>961.25</ele><time>2026-04-26T08:29:29.765Z</time></trkpt><trkpt lat="42.5317048" lon="13.2142849"><ele>959.0</ele><time>2026-04-26T08:29:30.765Z</time></trkpt><trkpt lat="42.5317529" lon="13.2140947"><ele>958.8000000000001</ele><time>2026-04-26T08:29:31.763Z</time></trkpt><trkpt lat="42.531827" lon="13.2139409"><ele>958.6000000000001</ele><time>2026-04-26T08:29:32.763Z</time></trkpt><trkpt lat="42.5319166" lon="13.2138361"><ele>958.4</ele><time>2026-04-26T08:29:33.763Z</time></trkpt><trkpt lat="42.5319987" lon="13.2137635"><ele>958.2</ele><time>2026-04-26T08:29:34.764Z</time></trkpt><trkpt lat="42.5320706" lon="13.2136997"><ele>958.0</ele><time>2026-04-26T08:29:35.764Z</time></trkpt><trkpt lat="42.5321019" lon="13.2136061"><ele>958.0</ele><time>2026-04-26T08:29:36.764Z</time></trkpt><trkpt lat="42.5320816" lon="13.2135102"><ele>958.0</ele><time>2026-04-26T08:29:37.765Z</time></trkpt><trkpt lat="42.5320182" lon="13.2134582"><ele>958.0</ele><time>2026-04-26T08:29:38.764Z</time></trkpt><trkpt lat="42.5319348" lon="13.2134753"><ele>958.0</ele><time>2026-04-26T08:29:39.765Z</time></trkpt><trkpt lat="42.5318364" lon="13.2135617"><ele>958.0</ele><time>2026-04-26T08:29:40.764Z</time></trkpt><trkpt lat="42.531727" lon="13.2136943"><ele>958.3333333333333</ele><time>2026-04-26T08:29:41.765Z</time></trkpt><trkpt lat="42.5316203" lon="13.2138645"><ele>958.6666666666667</ele><time>2026-04-26T08:29:42.765Z</time></trkpt><trkpt lat="42.5315304" lon="13.214057"><ele>959.0</ele><time>2026-04-26T08:29:43.765Z</time></trkpt><trkpt lat="42.5314527" lon="13.2142518"><ele>959.0</ele><time>2026-04-26T08:29:44.764Z</time></trkpt><trkpt lat="42.5313748" lon="13.2144447"><ele>959.0</ele><time>2026-04-26T08:29:45.763Z</time></trkpt><trkpt lat="42.5313005" lon="13.2146364"><ele>959.0</ele><time>2026-04-26T08:29:46.763Z</time></trkpt><trkpt lat="42.5312293" lon="13.2148253"><ele>953.5</ele><time>2026-04-26T08:29:47.763Z</time></trkpt><trkpt lat="42.531157" lon="13.2149979"><ele>948.0</ele><time>2026-04-26T08:29:48.764Z</time></trkpt><trkpt lat="42.531091" lon="13.2151518"><ele>942.5</ele><time>2026-04-26T08:29:49.764Z</time></trkpt><trkpt lat="42.5310428" lon="13.2152914"><ele>937.0</ele><time>2026-04-26T08:29:50.765Z</time></trkpt><trkpt lat="42.5310265" lon="13.2154284"><ele>937.0</ele><time>2026-04-26T08:29:51.763Z</time></trkpt><trkpt lat="42.5310592" lon="13.215559"><ele>937.0</ele><time>2026-04-26T08:29:52.764Z</time></trkpt><trkpt lat="42.5311386" lon="13.2156625"><ele>937.0</ele><time>2026-04-26T08:29:53.765Z</time></trkpt><trkpt lat="42.5312672" lon="13.2157264"><ele>937.0</ele><time>2026-04-26T08:29:54.763Z</time></trkpt><trkpt lat="42.5314146" lon="13.2157824"><ele>942.0</ele><time>2026-04-26T08:29:55.764Z</time></trkpt><trkpt lat="42.5315512" lon="13.2158731"><ele>947.0</ele><time>2026-04-26T08:29:56.764Z</time></trkpt><trkpt lat="42.5316775" lon="13.2159806"><ele>952.0</ele><time>2026-04-26T08:29:57.764Z</time></trkpt><trkpt lat="42.5317929" lon="13.2161003"><ele>957.0</ele><time>2026-04-26T08:29:58.763Z</time></trkpt><trkpt lat="42.5319053" lon="13.2162152"><ele>957.0</ele><time>2026-04-26T08:29:59.764Z</time></trkpt><trkpt lat="42.5320122" lon="13.2163312"><ele>957.0</ele><time>2026-04-26T08:30:00.764Z</time></trkpt><trkpt lat="42.5321118" lon="13.2164432"><ele>957.0</ele><time>2026-04-26T08:30:01.764Z</time></trkpt><trkpt lat="42.5322114" lon="13.2165449"><ele>957.0</ele><time>2026-04-26T08:30:02.765Z</time></trkpt><trkpt lat="42.5323013" lon="13.2166339"><ele>957.1666666666666</ele><time>2026-04-26T08:30:03.764Z</time></trkpt><trkpt lat="42.5323835" lon="13.2167215"><ele>957.3333333333333</ele><time>2026-04-26T08:30:04.764Z</time></trkpt><trkpt lat="42.5324425" lon="13.2168187"><ele>957.5</ele><time>2026-04-26T08:30:05.763Z</time></trkpt><trkpt lat="42.5324736" lon="13.2169245"><ele>957.6666666666666</ele><time>2026-04-26T08:30:06.763Z</time></trkpt><trkpt lat="42.5324635" lon="13.2170241"><ele>957.8333333333333</ele><time>2026-04-26T08:30:07.765Z</time></trkpt><trkpt lat="42.532419" lon="13.2170877"><ele>958.0</ele><time>2026-04-26T08:30:08.764Z</time></trkpt><trkpt lat="42.5323489" lon="13.2171065"><ele>958.0</ele><time>2026-04-26T08:30:09.764Z</time></trkpt><trkpt lat="42.5322727" lon="13.2170655"><ele>958.0</ele><time>2026-04-26T08:30:10.764Z</time></trkpt><trkpt lat="42.532188" lon="13.2169742"><ele>958.0</ele><time>2026-04-26T08:30:11.764Z</time></trkpt><trkpt lat="42.5320934" lon="13.2168538"><ele>958.0</ele><time>2026-04-26T08:30:12.765Z</time></trkpt><trkpt lat="42.5319835" lon="13.2167212"><ele>957.6666666666666</ele><time>2026-04-26T08:30:13.764Z</time></trkpt><trkpt lat="42.5318626" lon="13.21658"><ele>957.3333333333333</ele><time>2026-04-26T08:30:14.764Z</time></trkpt><trkpt lat="42.5317351" lon="13.216429"><ele>957.0</ele><time>2026-04-26T08:30:15.764Z</time></trkpt><trkpt lat="42.5316025" lon="13.2162753"><ele>957.0</ele><time>2026-04-26T08:30:16.764Z</time></trkpt><trkpt lat="42.5314493" lon="13.2161493"><ele>957.0</ele><time>2026-04-26T08:30:17.765Z</time></trkpt><trkpt lat="42.531273" lon="13.2160841"><ele>957.0</ele><time>2026-04-26T08:30:18.764Z</time></trkpt><trkpt lat="42.5311013" lon="13.2160483"><ele>951.0</ele><time>2026-04-26T08:30:19.765Z</time></trkpt><trkpt lat="42.5309358" lon="13.2160292"><ele>945.0</ele><time>2026-04-26T08:30:20.764Z</time></trkpt><trkpt lat="42.5307898" lon="13.2160031"><ele>939.0</ele><time>2026-04-26T08:30:21.763Z</time></trkpt><trkpt lat="42.530662" lon="13.2159599"><ele>933.0</ele><time>2026-04-26T08:30:22.765Z</time></trkpt><trkpt lat="42.5305574" lon="13.215891"><ele>933.0</ele><time>2026-04-26T08:30:23.765Z</time></trkpt><trkpt lat="42.5304771" lon="13.2157821"><ele>933.0</ele><time>2026-04-26T08:30:24.764Z</time></trkpt><trkpt lat="42.530431" lon="13.2156465"><ele>933.0</ele><time>2026-04-26T08:30:25.764Z</time></trkpt><trkpt lat="42.5304255" lon="13.215488"><ele>933.0</ele><time>2026-04-26T08:30:26.764Z</time></trkpt><trkpt lat="42.5304565" lon="13.2153011"><ele>934.3333333333333</ele><time>2026-04-26T08:30:27.764Z</time></trkpt><trkpt lat="42.5305041" lon="13.2150967"><ele>935.6666666666666</ele><time>2026-04-26T08:30:28.763Z</time></trkpt><trkpt lat="42.5305641" lon="13.2148734"><ele>937.0</ele><time>2026-04-26T08:30:29.764Z</time></trkpt><trkpt lat="42.5306286" lon="13.2146263"><ele>933.6666666666666</ele><time>2026-04-26T08:30:30.763Z</time></trkpt><trkpt lat="42.5306906" lon="13.2143618"><ele>930.3333333333333</ele><time>2026-04-26T08:30:31.764Z</time></trkpt><trkpt lat="42.5307565" lon="13.2140851"><ele>927.0</ele><time>2026-04-26T08:30:32.764Z</time></trkpt><trkpt lat="42.5308222" lon="13.2138063"><ele>924.3333333333333</ele><time>2026-04-26T08:30:33.763Z</time></trkpt><trkpt lat="42.5308923" lon="13.2135255"><ele>921.6666666666666</ele><time>2026-04-26T08:30:34.763Z</time></trkpt><trkpt lat="42.5309609" lon="13.2132478"><ele>919.0</ele><time>2026-04-26T08:30:35.764Z</time></trkpt><trkpt lat="42.5310322" lon="13.2129707"><ele>916.6666666666666</ele><time>2026-04-26T08:30:36.765Z</time></trkpt><trkpt lat="42.5311" lon="13.2127012"><ele>914.3333333333333</ele><time>2026-04-26T08:30:37.763Z</time></trkpt><trkpt lat="42.5311564" lon="13.2124269"><ele>912.0</ele><time>2026-04-26T08:30:38.765Z</time></trkpt><trkpt lat="42.5311881" lon="13.2121538"><ele>910.6666666666667</ele><time>2026-04-26T08:30:39.765Z</time></trkpt><trkpt lat="42.5312026" lon="13.2118892"><ele>909.3333333333334</ele><time>2026-04-26T08:30:40.765Z</time></trkpt><trkpt lat="42.5312069" lon="13.2116319"><ele>908.0</ele><time>2026-04-26T08:30:41.764Z</time></trkpt><trkpt lat="42.5312168" lon="13.2113815"><ele>907.6666666666667</ele><time>2026-04-26T08:30:42.764Z</time></trkpt><trkpt lat="42.5312527" lon="13.2111334"><ele>907.3333333333333</ele><time>2026-04-26T08:30:43.763Z</time></trkpt><trkpt lat="42.5313094" lon="13.2108851"><ele>907.0</ele><time>2026-04-26T08:30:44.764Z</time></trkpt><trkpt lat="42.5313845" lon="13.2106406"><ele>905.6666666666666</ele><time>2026-04-26T08:30:45.764Z</time></trkpt><trkpt lat="42.5314624" lon="13.2103984"><ele>904.3333333333333</ele><time>2026-04-26T08:30:46.764Z</time></trkpt><trkpt lat="42.5315424" lon="13.2101573"><ele>903.0</ele><time>2026-04-26T08:30:47.765Z</time></trkpt><trkpt lat="42.5316217" lon="13.2099204"><ele>902.3333333333333</ele><time>2026-04-26T08:30:48.764Z</time></trkpt><trkpt lat="42.5316981" lon="13.2096818"><ele>901.6666666666666</ele><time>2026-04-26T08:30:49.764Z</time></trkpt><trkpt lat="42.5317774" lon="13.2094437"><ele>901.0</ele><time>2026-04-26T08:30:50.765Z</time></trkpt><trkpt lat="42.5318552" lon="13.2092125"><ele>900.3333333333333</ele><time>2026-04-26T08:30:51.765Z</time></trkpt><trkpt lat="42.5319324" lon="13.2089826"><ele>899.6666666666667</ele><time>2026-04-26T08:30:52.764Z</time></trkpt><trkpt lat="42.5320105" lon="13.2087558"><ele>899.0</ele><time>2026-04-26T08:30:53.765Z</time></trkpt><trkpt lat="42.5320833" lon="13.2085316"><ele>899.6666666666667</ele><time>2026-04-26T08:30:54.764Z</time></trkpt><trkpt lat="42.5321583" lon="13.2083066"><ele>900.3333333333333</ele><time>2026-04-26T08:30:55.765Z</time></trkpt><trkpt lat="42.5322339" lon="13.208088"><ele>901.0</ele><time>2026-04-26T08:30:56.763Z</time></trkpt><trkpt lat="42.5323103" lon="13.2078715"><ele>901.0</ele><time>2026-04-26T08:30:57.764Z</time></trkpt><trkpt lat="42.5323818" lon="13.2076602"><ele>901.0</ele><time>2026-04-26T08:30:58.764Z</time></trkpt><trkpt lat="42.532439" lon="13.2074361"><ele>901.0</ele><time>2026-04-26T08:30:59.763Z</time></trkpt><trkpt lat="42.5324689" lon="13.2072101"><ele>900.3333333333333</ele><time>2026-04-26T08:31:00.765Z</time></trkpt><trkpt lat="42.5324763" lon="13.2069859"><ele>899.6666666666667</ele><time>2026-04-26T08:31:01.764Z</time></trkpt><trkpt lat="42.5324702" lon="13.2067713"><ele>899.0</ele><time>2026-04-26T08:31:02.764Z</time></trkpt><trkpt lat="42.5324501" lon="13.2065623"><ele>898.3333333333334</ele><time>2026-04-26T08:31:03.764Z</time></trkpt><trkpt lat="42.532425" lon="13.2063533"><ele>897.6666666666667</ele><time>2026-04-26T08:31:04.763Z</time></trkpt><trkpt lat="42.5324106" lon="13.2061472"><ele>897.0</ele><time>2026-04-26T08:31:05.764Z</time></trkpt><trkpt lat="42.5324029" lon="13.2059391"><ele>897.0</ele><time>2026-04-26T08:31:06.764Z</time></trkpt><trkpt lat="42.5324003" lon="13.205721"><ele>897.0</ele><time>2026-04-26T08:31:07.764Z</time></trkpt><trkpt lat="42.5324061" lon="13.2054938"><ele>897.0</ele><time>2026-04-26T08:31:08.764Z</time></trkpt><trkpt lat="42.5324237" lon="13.2052564"><ele>895.6666666666667</ele><time>2026-04-26T08:31:09.763Z</time></trkpt><trkpt lat="42.5324489" lon="13.2050135"><ele>894.3333333333334</ele><time>2026-04-26T08:31:10.762Z</time></trkpt><trkpt lat="42.5324794" lon="13.2047592"><ele>893.0</ele><time>2026-04-26T08:31:11.763Z</time></trkpt><trkpt lat="42.5325138" lon="13.2044978"><ele>892.0</ele><time>2026-04-26T08:31:12.762Z</time></trkpt><trkpt lat="42.5325451" lon="13.2042319"><ele>891.0</ele><time>2026-04-26T08:31:13.762Z</time></trkpt><trkpt lat="42.5325749" lon="13.2039765"><ele>890.0</ele><time>2026-04-26T08:31:14.762Z</time></trkpt><trkpt lat="42.532606" lon="13.2037255"><ele>888.3333333333334</ele><time>2026-04-26T08:31:15.764Z</time></trkpt><trkpt lat="42.5326369" lon="13.2034863"><ele>886.6666666666667</ele><time>2026-04-26T08:31:16.763Z</time></trkpt><trkpt lat="42.5326672" lon="13.203252"><ele>885.0</ele><time>2026-04-26T08:31:17.763Z</time></trkpt><trkpt lat="42.5326931" lon="13.2030292"><ele>885.5</ele><time>2026-04-26T08:31:18.764Z</time></trkpt><trkpt lat="42.5327119" lon="13.2028243"><ele>886.0</ele><time>2026-04-26T08:31:19.763Z</time></trkpt><trkpt lat="42.5327134" lon="13.2026382"><ele>886.5</ele><time>2026-04-26T08:31:20.763Z</time></trkpt><trkpt lat="42.5326785" lon="13.2024617"><ele>887.0</ele><time>2026-04-26T08:31:21.764Z</time></trkpt><trkpt lat="42.5326016" lon="13.2022882"><ele>887.0</ele><time>2026-04-26T08:31:22.763Z</time></trkpt><trkpt lat="42.5324874" lon="13.2021262"><ele>887.0</ele><time>2026-04-26T08:31:23.762Z</time></trkpt><trkpt lat="42.5323562" lon="13.2019761"><ele>887.0</ele><time>2026-04-26T08:31:24.763Z</time></trkpt><trkpt lat="42.5322185" lon="13.2018262"><ele>887.0</ele><time>2026-04-26T08:31:25.763Z</time></trkpt><trkpt lat="42.5320844" lon="13.201672"><ele>887.0</ele><time>2026-04-26T08:31:26.763Z</time></trkpt><trkpt lat="42.5319564" lon="13.2015069"><ele>887.0</ele><time>2026-04-26T08:31:27.763Z</time></trkpt><trkpt lat="42.5318467" lon="13.201326"><ele>886.6666666666667</ele><time>2026-04-26T08:31:28.764Z</time></trkpt><trkpt lat="42.5317597" lon="13.2011323"><ele>886.3333333333333</ele><time>2026-04-26T08:31:29.763Z</time></trkpt><trkpt lat="42.5317022" lon="13.2009347"><ele>886.0</ele><time>2026-04-26T08:31:30.764Z</time></trkpt><trkpt lat="42.5316684" lon="13.2007215"><ele>885.6666666666666</ele><time>2026-04-26T08:31:31.764Z</time></trkpt><trkpt lat="42.5316617" lon="13.2005003"><ele>885.3333333333333</ele><time>2026-04-26T08:31:32.763Z</time></trkpt><trkpt lat="42.5316792" lon="13.2002887"><ele>885.0</ele><time>2026-04-26T08:31:33.764Z</time></trkpt><trkpt lat="42.5317119" lon="13.2000931"><ele>885.0</ele><time>2026-04-26T08:31:34.763Z</time></trkpt><trkpt lat="42.5317538" lon="13.1998996"><ele>885.0</ele><time>2026-04-26T08:31:35.763Z</time></trkpt><trkpt lat="42.5317817" lon="13.1997041"><ele>885.0</ele><time>2026-04-26T08:31:36.764Z</time></trkpt><trkpt lat="42.5317789" lon="13.1995009"><ele>885.0</ele><time>2026-04-26T08:31:37.763Z</time></trkpt><trkpt lat="42.5317445" lon="13.1993084"><ele>885.25</ele><time>2026-04-26T08:31:38.763Z</time></trkpt><trkpt lat="42.5316887" lon="13.1991299"><ele>885.5</ele><time>2026-04-26T08:31:39.762Z</time></trkpt><trkpt lat="42.5316128" lon="13.1989765"><ele>885.75</ele><time>2026-04-26T08:31:40.764Z</time></trkpt><trkpt lat="42.5315319" lon="13.1988358"><ele>886.0</ele><time>2026-04-26T08:31:41.763Z</time></trkpt><trkpt lat="42.5314509" lon="13.1987089"><ele>886.1999999999999</ele><time>2026-04-26T08:31:42.764Z</time></trkpt><trkpt lat="42.5313797" lon="13.1985822"><ele>886.3999999999999</ele><time>2026-04-26T08:31:43.763Z</time></trkpt><trkpt lat="42.5313143" lon="13.1984651"><ele>886.6</ele><time>2026-04-26T08:31:44.763Z</time></trkpt><trkpt lat="42.5312699" lon="13.1983354"><ele>886.8</ele><time>2026-04-26T08:31:45.763Z</time></trkpt><trkpt lat="42.5312378" lon="13.198192"><ele>887.0</ele><time>2026-04-26T08:31:46.764Z</time></trkpt><trkpt lat="42.5312095" lon="13.1980228"><ele>886.25</ele><time>2026-04-26T08:31:47.764Z</time></trkpt><trkpt lat="42.5311796" lon="13.1978371"><ele>885.5</ele><time>2026-04-26T08:31:48.764Z</time></trkpt><trkpt lat="42.5311514" lon="13.1976462"><ele>884.75</ele><time>2026-04-26T08:31:49.764Z</time></trkpt><trkpt lat="42.531123" lon="13.1974519"><ele>884.0</ele><time>2026-04-26T08:31:50.763Z</time></trkpt><trkpt lat="42.5310938" lon="13.1972693"><ele>884.0</ele><time>2026-04-26T08:31:51.763Z</time></trkpt><trkpt lat="42.5310635" lon="13.1970961"><ele>884.0</ele><time>2026-04-26T08:31:52.762Z</time></trkpt><trkpt lat="42.5310377" lon="13.1969344"><ele>884.0</ele><time>2026-04-26T08:31:53.764Z</time></trkpt><trkpt lat="42.5310141" lon="13.1967809"><ele>884.0</ele><time>2026-04-26T08:31:54.764Z</time></trkpt><trkpt lat="42.5309895" lon="13.1966408"><ele>884.0</ele><time>2026-04-26T08:31:55.762Z</time></trkpt><trkpt lat="42.530968" lon="13.1965005"><ele>884.0</ele><time>2026-04-26T08:31:56.764Z</time></trkpt><trkpt lat="42.5309495" lon="13.196344"><ele>884.0</ele><time>2026-04-26T08:31:57.763Z</time></trkpt><trkpt lat="42.5309328" lon="13.1961758"><ele>884.0</ele><time>2026-04-26T08:31:58.764Z</time></trkpt><trkpt lat="42.5309171" lon="13.1959952"><ele>884.0</ele><time>2026-04-26T08:31:59.763Z</time></trkpt><trkpt lat="42.5309061" lon="13.1958127"><ele>884.0</ele><time>2026-04-26T08:32:00.763Z</time></trkpt><trkpt lat="42.5308983" lon="13.1956373"><ele>884.0</ele><time>2026-04-26T08:32:01.762Z</time></trkpt><trkpt lat="42.5308949" lon="13.1954706"><ele>884.0</ele><time>2026-04-26T08:32:02.763Z</time></trkpt><trkpt lat="42.5308882" lon="13.1953196"><ele>884.25</ele><time>2026-04-26T08:32:03.762Z</time></trkpt><trkpt lat="42.5308582" lon="13.1951839"><ele>884.5</ele><time>2026-04-26T08:32:04.762Z</time></trkpt><trkpt lat="42.5307844" lon="13.1950643"><ele>884.75</ele><time>2026-04-26T08:32:05.763Z</time></trkpt><trkpt lat="42.5306741" lon="13.1949733"><ele>885.0</ele><time>2026-04-26T08:32:06.763Z</time></trkpt><trkpt lat="42.5305446" lon="13.1948988"><ele>886.25</ele><time>2026-04-26T08:32:07.763Z</time></trkpt><trkpt lat="42.5304104" lon="13.1948102"><ele>887.5</ele><time>2026-04-26T08:32:08.763Z</time></trkpt><trkpt lat="42.5302872" lon="13.1946951"><ele>888.75</ele><time>2026-04-26T08:32:09.762Z</time></trkpt><trkpt lat="42.5301765" lon="13.1945665"><ele>890.0</ele><time>2026-04-26T08:32:10.764Z</time></trkpt><trkpt lat="42.5300721" lon="13.1944414"><ele>888.75</ele><time>2026-04-26T08:32:11.764Z</time></trkpt><trkpt lat="42.529971" lon="13.1943206"><ele>887.5</ele><time>2026-04-26T08:32:12.763Z</time></trkpt><trkpt lat="42.529879" lon="13.1941989"><ele>886.25</ele><time>2026-04-26T08:32:13.763Z</time></trkpt><trkpt lat="42.5297908" lon="13.194074"><ele>885.0</ele><time>2026-04-26T08:32:14.763Z</time></trkpt><trkpt lat="42.5297221" lon="13.1939377"><ele>885.0</ele><time>2026-04-26T08:32:15.763Z</time></trkpt><trkpt lat="42.5296735" lon="13.1937899"><ele>885.0</ele><time>2026-04-26T08:32:16.763Z</time></trkpt><trkpt lat="42.5296429" lon="13.193639"><ele>885.0</ele><time>2026-04-26T08:32:17.763Z</time></trkpt><trkpt lat="42.5296086" lon="13.193504"><ele>885.0</ele><time>2026-04-26T08:32:18.763Z</time></trkpt><trkpt lat="42.5295453" lon="13.1933954"><ele>885.0</ele><time>2026-04-26T08:32:19.764Z</time></trkpt><trkpt lat="42.529449" lon="13.1933276"><ele>883.0</ele><time>2026-04-26T08:32:20.763Z</time></trkpt><trkpt lat="42.5293317" lon="13.1933187"><ele>881.0</ele><time>2026-04-26T08:32:21.763Z</time></trkpt><trkpt lat="42.5292041" lon="13.1933386"><ele>879.0</ele><time>2026-04-26T08:32:22.764Z</time></trkpt><trkpt lat="42.5290804" lon="13.1933471"><ele>877.0</ele><time>2026-04-26T08:32:23.763Z</time></trkpt><trkpt lat="42.5289611" lon="13.1933285"><ele>877.0</ele><time>2026-04-26T08:32:24.762Z</time></trkpt><trkpt lat="42.5288496" lon="13.1932752"><ele>877.0</ele><time>2026-04-26T08:32:25.762Z</time></trkpt><trkpt lat="42.5287434" lon="13.1931784"><ele>877.0</ele><time>2026-04-26T08:32:26.762Z</time></trkpt><trkpt lat="42.5286431" lon="13.1930567"><ele>877.0</ele><time>2026-04-26T08:32:27.762Z</time></trkpt><trkpt lat="42.5285589" lon="13.1929105"><ele>876.25</ele><time>2026-04-26T08:32:28.763Z</time></trkpt><trkpt lat="42.5284845" lon="13.1927627"><ele>875.5</ele><time>2026-04-26T08:32:29.763Z</time></trkpt><trkpt lat="42.5284144" lon="13.1926151"><ele>874.75</ele><time>2026-04-26T08:32:30.763Z</time></trkpt><trkpt lat="42.5283486" lon="13.1924782"><ele>874.0</ele><time>2026-04-26T08:32:31.763Z</time></trkpt><trkpt lat="42.5282731" lon="13.1923525"><ele>875.75</ele><time>2026-04-26T08:32:32.763Z</time></trkpt><trkpt lat="42.5281864" lon="13.1922356"><ele>877.5</ele><time>2026-04-26T08:32:33.764Z</time></trkpt><trkpt lat="42.5280896" lon="13.1921249"><ele>879.25</ele><time>2026-04-26T08:32:34.764Z</time></trkpt><trkpt lat="42.5279974" lon="13.1920229"><ele>881.0</ele><time>2026-04-26T08:32:35.763Z</time></trkpt><trkpt lat="42.5279078" lon="13.1919202"><ele>878.8</ele><time>2026-04-26T08:32:36.764Z</time></trkpt><trkpt lat="42.527821" lon="13.1918173"><ele>876.5999999999999</ele><time>2026-04-26T08:32:37.763Z</time></trkpt><trkpt lat="42.5277457" lon="13.1917108"><ele>874.4</ele><time>2026-04-26T08:32:38.764Z</time></trkpt><trkpt lat="42.527682" lon="13.1915938"><ele>872.2</ele><time>2026-04-26T08:32:39.762Z</time></trkpt><trkpt lat="42.5276321" lon="13.1914712"><ele>870.0</ele><time>2026-04-26T08:32:40.762Z</time></trkpt><trkpt lat="42.5275913" lon="13.1913488"><ele>870.0</ele><time>2026-04-26T08:32:41.762Z</time></trkpt><trkpt lat="42.5275598" lon="13.1912277"><ele>870.0</ele><time>2026-04-26T08:32:42.763Z</time></trkpt><trkpt lat="42.5275351" lon="13.1911106"><ele>870.0</ele><time>2026-04-26T08:32:43.763Z</time></trkpt><trkpt lat="42.5275231" lon="13.1910065"><ele>870.0</ele><time>2026-04-26T08:32:44.763Z</time></trkpt><trkpt lat="42.5275189" lon="13.1909095"><ele>870.0</ele><time>2026-04-26T08:32:45.763Z</time></trkpt><trkpt lat="42.527512" lon="13.1908206"><ele>870.0</ele><time>2026-04-26T08:32:46.762Z</time></trkpt><trkpt lat="42.5275" lon="13.1907351"><ele>871.2</ele><time>2026-04-26T08:32:47.763Z</time></trkpt><trkpt lat="42.5274626" lon="13.1905708"><ele>872.4</ele><time>2026-04-26T08:32:49.763Z</time></trkpt><trkpt lat="42.5274177" lon="13.1904908"><ele>873.5999999999999</ele><time>2026-04-26T08:32:50.764Z</time></trkpt><trkpt lat="42.5273561" lon="13.1904284"><ele>874.8</ele><time>2026-04-26T08:32:51.763Z</time></trkpt><trkpt lat="42.5272771" lon="13.1903818"><ele>876.0</ele><time>2026-04-26T08:32:52.763Z</time></trkpt><trkpt lat="42.5271949" lon="13.1903316"><ele>876.0</ele><time>2026-04-26T08:32:53.762Z</time></trkpt><trkpt lat="42.5271044" lon="13.1902567"><ele>876.0</ele><time>2026-04-26T08:32:54.764Z</time></trkpt><trkpt lat="42.5270086" lon="13.1901574"><ele>876.0</ele><time>2026-04-26T08:32:55.763Z</time></trkpt><trkpt lat="42.5269033" lon="13.1900489"><ele>876.0</ele><time>2026-04-26T08:32:56.764Z</time></trkpt><trkpt lat="42.5267868" lon="13.1899194"><ele>875.0</ele><time>2026-04-26T08:32:57.764Z</time></trkpt><trkpt lat="42.526674" lon="13.1897738"><ele>874.0</ele><time>2026-04-26T08:32:58.763Z</time></trkpt><trkpt lat="42.5265742" lon="13.1896336"><ele>873.0</ele><time>2026-04-26T08:32:59.763Z</time></trkpt><trkpt lat="42.5264973" lon="13.189498"><ele>872.0</ele><time>2026-04-26T08:33:00.764Z</time></trkpt><trkpt lat="42.5264476" lon="13.1893562"><ele>872.0</ele><time>2026-04-26T08:33:01.763Z</time></trkpt><trkpt lat="42.5264329" lon="13.1892127"><ele>872.0</ele><time>2026-04-26T08:33:02.763Z</time></trkpt><trkpt lat="42.5264516" lon="13.1890777"><ele>872.0</ele><time>2026-04-26T08:33:03.763Z</time></trkpt><trkpt lat="42.5264914" lon="13.188955"><ele>872.0</ele><time>2026-04-26T08:33:04.763Z</time></trkpt><trkpt lat="42.5265214" lon="13.1888275"><ele>872.0</ele><time>2026-04-26T08:33:05.763Z</time></trkpt><trkpt lat="42.5265082" lon="13.1887016"><ele>871.8</ele><time>2026-04-26T08:33:06.764Z</time></trkpt><trkpt lat="42.5264581" lon="13.1886043"><ele>871.6</ele><time>2026-04-26T08:33:07.764Z</time></trkpt><trkpt lat="42.5263789" lon="13.1885563"><ele>871.3999999999999</ele><time>2026-04-26T08:33:08.763Z</time></trkpt><trkpt lat="42.5262824" lon="13.1885672"><ele>871.1999999999999</ele><time>2026-04-26T08:33:09.764Z</time></trkpt><trkpt lat="42.5261754" lon="13.188607"><ele>871.0</ele><time>2026-04-26T08:33:10.764Z</time></trkpt><trkpt lat="42.5260535" lon="13.1886391"><ele>870.75</ele><time>2026-04-26T08:33:11.762Z</time></trkpt><trkpt lat="42.5259312" lon="13.1886339"><ele>870.5</ele><time>2026-04-26T08:33:12.763Z</time></trkpt><trkpt lat="42.5258157" lon="13.1886069"><ele>870.25</ele><time>2026-04-26T08:33:13.763Z</time></trkpt><trkpt lat="42.5257056" lon="13.1885447"><ele>870.0</ele><time>2026-04-26T08:33:14.763Z</time></trkpt><trkpt lat="42.5256047" lon="13.1884543"><ele>870.0</ele><time>2026-04-26T08:33:15.763Z</time></trkpt><trkpt lat="42.5255049" lon="13.1883472"><ele>870.0</ele><time>2026-04-26T08:33:16.763Z</time></trkpt><trkpt lat="42.5254148" lon="13.1882245"><ele>870.0</ele><time>2026-04-26T08:33:17.763Z</time></trkpt><trkpt lat="42.5253312" lon="13.1880864"><ele>870.0</ele><time>2026-04-26T08:33:18.762Z</time></trkpt><trkpt lat="42.5252562" lon="13.1879299"><ele>869.5</ele><time>2026-04-26T08:33:19.762Z</time></trkpt><trkpt lat="42.5251868" lon="13.1877704"><ele>869.0</ele><time>2026-04-26T08:33:20.764Z</time></trkpt><trkpt lat="42.5251226" lon="13.1876167"><ele>868.5</ele><time>2026-04-26T08:33:21.764Z</time></trkpt><trkpt lat="42.5250624" lon="13.1874627"><ele>868.0</ele><time>2026-04-26T08:33:22.764Z</time></trkpt><trkpt lat="42.525005" lon="13.1873173"><ele>868.0</ele><time>2026-04-26T08:33:23.763Z</time></trkpt><trkpt lat="42.5249511" lon="13.1871783"><ele>868.0</ele><time>2026-04-26T08:33:24.764Z</time></trkpt><trkpt lat="42.5248984" lon="13.187032"><ele>868.0</ele><time>2026-04-26T08:33:25.763Z</time></trkpt><trkpt lat="42.5248476" lon="13.1868835"><ele>868.0</ele><time>2026-04-26T08:33:26.763Z</time></trkpt><trkpt lat="42.5247958" lon="13.1867285"><ele>868.0</ele><time>2026-04-26T08:33:27.762Z</time></trkpt><trkpt lat="42.5247399" lon="13.1865701"><ele>868.0</ele><time>2026-04-26T08:33:28.763Z</time></trkpt><trkpt lat="42.5246778" lon="13.1864096"><ele>868.0</ele><time>2026-04-26T08:33:29.764Z</time></trkpt><trkpt lat="42.5246139" lon="13.1862512"><ele>868.0</ele><time>2026-04-26T08:33:30.763Z</time></trkpt><trkpt lat="42.5245481" lon="13.1860893"><ele>867.25</ele><time>2026-04-26T08:33:31.763Z</time></trkpt><trkpt lat="42.5244852" lon="13.1859426"><ele>866.5</ele><time>2026-04-26T08:33:32.763Z</time></trkpt><trkpt lat="42.5244197" lon="13.1858029"><ele>865.75</ele><time>2026-04-26T08:33:33.763Z</time></trkpt><trkpt lat="42.5243536" lon="13.1856694"><ele>865.0</ele><time>2026-04-26T08:33:34.762Z</time></trkpt><trkpt lat="42.5242885" lon="13.1855425"><ele>864.8</ele><time>2026-04-26T08:33:35.763Z</time></trkpt><trkpt lat="42.5242276" lon="13.1854174"><ele>864.6</ele><time>2026-04-26T08:33:36.763Z</time></trkpt><trkpt lat="42.5241756" lon="13.1852912"><ele>864.4000000000001</ele><time>2026-04-26T08:33:37.762Z</time></trkpt><trkpt lat="42.5241272" lon="13.1851669"><ele>864.2</ele><time>2026-04-26T08:33:38.763Z</time></trkpt><trkpt lat="42.5240776" lon="13.1850524"><ele>864.0</ele><time>2026-04-26T08:33:39.763Z</time></trkpt><trkpt lat="42.5240253" lon="13.1849492"><ele>864.0</ele><time>2026-04-26T08:33:40.763Z</time></trkpt><trkpt lat="42.5239515" lon="13.1848765"><ele>864.0000000000001</ele><time>2026-04-26T08:33:41.762Z</time></trkpt><trkpt lat="42.5238499" lon="13.1848545"><ele>864.0000000000001</ele><time>2026-04-26T08:33:42.762Z</time></trkpt><trkpt lat="42.5237287" lon="13.1848878"><ele>864.0</ele><time>2026-04-26T08:33:43.763Z</time></trkpt><trkpt lat="42.5236093" lon="13.1849524"><ele>864.0</ele><time>2026-04-26T08:33:44.763Z</time></trkpt><trkpt lat="42.5234988" lon="13.1850167"><ele>864.6</ele><time>2026-04-26T08:33:45.763Z</time></trkpt><trkpt lat="42.5233887" lon="13.1850545"><ele>865.2</ele><time>2026-04-26T08:33:46.761Z</time></trkpt><trkpt lat="42.5232864" lon="13.1850496"><ele>865.8000000000001</ele><time>2026-04-26T08:33:47.762Z</time></trkpt><trkpt lat="42.5231973" lon="13.1850109"><ele>866.4000000000001</ele><time>2026-04-26T08:33:48.762Z</time></trkpt><trkpt lat="42.5231175" lon="13.184935"><ele>867.0</ele><time>2026-04-26T08:33:49.762Z</time></trkpt><trkpt lat="42.5230457" lon="13.1848263"><ele>867.0</ele><time>2026-04-26T08:33:50.763Z</time></trkpt><trkpt lat="42.5229731" lon="13.1846968"><ele>867.0</ele><time>2026-04-26T08:33:51.761Z</time></trkpt><trkpt lat="42.5228958" lon="13.1845513"><ele>867.0</ele><time>2026-04-26T08:33:52.762Z</time></trkpt><trkpt lat="42.5228116" lon="13.184402"><ele>867.0</ele><time>2026-04-26T08:33:53.762Z</time></trkpt><trkpt lat="42.5227251" lon="13.1842497"><ele>866.6666666666667</ele><time>2026-04-26T08:33:54.761Z</time></trkpt><trkpt lat="42.5226282" lon="13.1840953"><ele>866.3333333333334</ele><time>2026-04-26T08:33:55.762Z</time></trkpt><trkpt lat="42.5225097" lon="13.1839599"><ele>866.0</ele><time>2026-04-26T08:33:56.762Z</time></trkpt><trkpt lat="42.5223753" lon="13.1838447"><ele>866.0</ele><time>2026-04-26T08:33:57.761Z</time></trkpt><trkpt lat="42.5222421" lon="13.1837545"><ele>866.0</ele><time>2026-04-26T08:33:58.762Z</time></trkpt><trkpt lat="42.5221082" lon="13.1836789"><ele>866.0</ele><time>2026-04-26T08:33:59.762Z</time></trkpt><trkpt lat="42.5219786" lon="13.1836078"><ele>866.0</ele><time>2026-04-26T08:34:00.762Z</time></trkpt><trkpt lat="42.5218522" lon="13.1835462"><ele>863.0</ele><time>2026-04-26T08:34:01.761Z</time></trkpt><trkpt lat="42.521724" lon="13.1835235"><ele>860.0</ele><time>2026-04-26T08:34:02.761Z</time></trkpt><trkpt lat="42.5215973" lon="13.183512"><ele>857.0</ele><time>2026-04-26T08:34:03.761Z</time></trkpt><trkpt lat="42.5214837" lon="13.1834663"><ele>854.0</ele><time>2026-04-26T08:34:04.763Z</time></trkpt><trkpt lat="42.5213736" lon="13.1833855"><ele>854.0</ele><time>2026-04-26T08:34:05.762Z</time></trkpt><trkpt lat="42.5212815" lon="13.183248"><ele>854.0</ele><time>2026-04-26T08:34:06.761Z</time></trkpt><trkpt lat="42.5212187" lon="13.1830785"><ele>854.0</ele><time>2026-04-26T08:34:07.761Z</time></trkpt><trkpt lat="42.5211903" lon="13.1828893"><ele>854.0</ele><time>2026-04-26T08:34:08.763Z</time></trkpt><trkpt lat="42.5212008" lon="13.1826826"><ele>850.3333333333334</ele><time>2026-04-26T08:34:09.761Z</time></trkpt><trkpt lat="42.5212031" lon="13.1824529"><ele>846.6666666666667</ele><time>2026-04-26T08:34:10.761Z</time></trkpt><trkpt lat="42.5211693" lon="13.182217"><ele>843.0</ele><time>2026-04-26T08:34:11.761Z</time></trkpt><trkpt lat="42.5211134" lon="13.1819871"><ele>842.0</ele><time>2026-04-26T08:34:12.761Z</time></trkpt><trkpt lat="42.5210474" lon="13.1817632"><ele>841.0</ele><time>2026-04-26T08:34:13.761Z</time></trkpt><trkpt lat="42.5209764" lon="13.1815516"><ele>840.0</ele><time>2026-04-26T08:34:14.762Z</time></trkpt><trkpt lat="42.520906" lon="13.1813452"><ele>839.6666666666667</ele><time>2026-04-26T08:34:15.762Z</time></trkpt><trkpt lat="42.5208543" lon="13.1811379"><ele>839.3333333333334</ele><time>2026-04-26T08:34:16.762Z</time></trkpt><trkpt lat="42.5208295" lon="13.1809175"><ele>839.0</ele><time>2026-04-26T08:34:17.762Z</time></trkpt><trkpt lat="42.5208235" lon="13.1806906"><ele>839.6666666666667</ele><time>2026-04-26T08:34:18.761Z</time></trkpt><trkpt lat="42.5208077" lon="13.1804643"><ele>840.3333333333333</ele><time>2026-04-26T08:34:19.762Z</time></trkpt><trkpt lat="42.5207662" lon="13.1802442"><ele>841.0</ele><time>2026-04-26T08:34:20.762Z</time></trkpt><trkpt lat="42.5207106" lon="13.18003"><ele>843.0</ele><time>2026-04-26T08:34:21.762Z</time></trkpt><trkpt lat="42.5206402" lon="13.1798333"><ele>845.0</ele><time>2026-04-26T08:34:22.762Z</time></trkpt><trkpt lat="42.5205466" lon="13.1796628"><ele>847.0</ele><time>2026-04-26T08:34:23.762Z</time></trkpt><trkpt lat="42.5204241" lon="13.1795201"><ele>843.0</ele><time>2026-04-26T08:34:24.763Z</time></trkpt><trkpt lat="42.5202803" lon="13.1793999"><ele>839.0</ele><time>2026-04-26T08:34:25.762Z</time></trkpt><trkpt lat="42.5201324" lon="13.1792835"><ele>835.0</ele><time>2026-04-26T08:34:26.763Z</time></trkpt><trkpt lat="42.5199851" lon="13.1791645"><ele>835.0</ele><time>2026-04-26T08:34:27.763Z</time></trkpt><trkpt lat="42.5198428" lon="13.1790289"><ele>835.0</ele><time>2026-04-26T08:34:28.763Z</time></trkpt><trkpt lat="42.5197122" lon="13.1788782"><ele>835.0</ele><time>2026-04-26T08:34:29.763Z</time></trkpt><trkpt lat="42.5195946" lon="13.1787155"><ele>834.6666666666666</ele><time>2026-04-26T08:34:30.763Z</time></trkpt><trkpt lat="42.5194912" lon="13.1785354"><ele>834.3333333333333</ele><time>2026-04-26T08:34:31.763Z</time></trkpt><trkpt lat="42.5194043" lon="13.17834"><ele>834.0</ele><time>2026-04-26T08:34:32.763Z</time></trkpt><trkpt lat="42.5193337" lon="13.1781287"><ele>834.0</ele><time>2026-04-26T08:34:33.762Z</time></trkpt><trkpt lat="42.5192769" lon="13.177903"><ele>834.0</ele><time>2026-04-26T08:34:34.762Z</time></trkpt><trkpt lat="42.5192243" lon="13.1776697"><ele>834.0</ele><time>2026-04-26T08:34:35.763Z</time></trkpt><trkpt lat="42.5191753" lon="13.1774349"><ele>836.3333333333333</ele><time>2026-04-26T08:34:36.762Z</time></trkpt><trkpt lat="42.5191243" lon="13.1771899"><ele>838.6666666666666</ele><time>2026-04-26T08:34:37.762Z</time></trkpt><trkpt lat="42.5190773" lon="13.1769472"><ele>841.0</ele><time>2026-04-26T08:34:38.763Z</time></trkpt><trkpt lat="42.5190216" lon="13.1767098"><ele>839.6666666666666</ele><time>2026-04-26T08:34:39.762Z</time></trkpt><trkpt lat="42.5189414" lon="13.1764971"><ele>838.3333333333333</ele><time>2026-04-26T08:34:40.761Z</time></trkpt><trkpt lat="42.5188363" lon="13.1763018"><ele>837.0</ele><time>2026-04-26T08:34:41.762Z</time></trkpt><trkpt lat="42.5187181" lon="13.1761273"><ele>837.0</ele><time>2026-04-26T08:34:42.762Z</time></trkpt><trkpt lat="42.5185843" lon="13.1759705"><ele>837.0</ele><time>2026-04-26T08:34:43.762Z</time></trkpt><trkpt lat="42.518435" lon="13.1758393"><ele>837.0</ele><time>2026-04-26T08:34:44.763Z</time></trkpt><trkpt lat="42.5182739" lon="13.1757413"><ele>838.3333333333333</ele><time>2026-04-26T08:34:45.762Z</time></trkpt><trkpt lat="42.5181071" lon="13.1756645"><ele>839.6666666666666</ele><time>2026-04-26T08:34:46.762Z</time></trkpt><trkpt lat="42.5179379" lon="13.1756048"><ele>841.0</ele><time>2026-04-26T08:34:47.761Z</time></trkpt><trkpt lat="42.517772" lon="13.1755618"><ele>841.0</ele><time>2026-04-26T08:34:48.763Z</time></trkpt><trkpt lat="42.5176096" lon="13.1755387"><ele>841.0</ele><time>2026-04-26T08:34:49.763Z</time></trkpt><trkpt lat="42.5174532" lon="13.1755347"><ele>841.0</ele><time>2026-04-26T08:34:50.763Z</time></trkpt><trkpt lat="42.5173194" lon="13.1755433"><ele>841.0</ele><time>2026-04-26T08:34:51.763Z</time></trkpt><trkpt lat="42.5171996" lon="13.1755253"><ele>841.0</ele><time>2026-04-26T08:34:52.762Z</time></trkpt><trkpt lat="42.5170953" lon="13.1754562"><ele>841.0</ele><time>2026-04-26T08:34:53.762Z</time></trkpt><trkpt lat="42.517016" lon="13.1753369"><ele>841.0</ele><time>2026-04-26T08:34:54.762Z</time></trkpt><trkpt lat="42.5169702" lon="13.1751723"><ele>839.0</ele><time>2026-04-26T08:34:55.762Z</time></trkpt><trkpt lat="42.5169373" lon="13.1749823"><ele>837.0</ele><time>2026-04-26T08:34:56.762Z</time></trkpt><trkpt lat="42.5169118" lon="13.1747988"><ele>835.0</ele><time>2026-04-26T08:34:57.762Z</time></trkpt><trkpt lat="42.5168835" lon="13.1746197"><ele>833.0</ele><time>2026-04-26T08:34:58.763Z</time></trkpt><trkpt lat="42.5168338" lon="13.1744528"><ele>833.0</ele><time>2026-04-26T08:34:59.762Z</time></trkpt><trkpt lat="42.5167439" lon="13.1743073"><ele>833.0</ele><time>2026-04-26T08:35:00.761Z</time></trkpt><trkpt lat="42.5166424" lon="13.1742069"><ele>833.0</ele><time>2026-04-26T08:35:01.762Z</time></trkpt><trkpt lat="42.5165233" lon="13.1741383"><ele>833.0</ele><time>2026-04-26T08:35:02.762Z</time></trkpt><trkpt lat="42.5163792" lon="13.1741235"><ele>834.3333333333334</ele><time>2026-04-26T08:35:03.763Z</time></trkpt><trkpt lat="42.5162173" lon="13.174158"><ele>835.6666666666667</ele><time>2026-04-26T08:35:04.763Z</time></trkpt><trkpt lat="42.5160567" lon="13.1742279"><ele>837.0</ele><time>2026-04-26T08:35:05.762Z</time></trkpt><trkpt lat="42.515898" lon="13.1743311"><ele>837.0</ele><time>2026-04-26T08:35:06.763Z</time></trkpt><trkpt lat="42.5157401" lon="13.1744643"><ele>837.0</ele><time>2026-04-26T08:35:07.762Z</time></trkpt><trkpt lat="42.5155892" lon="13.1746055"><ele>837.0</ele><time>2026-04-26T08:35:08.761Z</time></trkpt><trkpt lat="42.5154474" lon="13.17474"><ele>832.6666666666667</ele><time>2026-04-26T08:35:09.762Z</time></trkpt><trkpt lat="42.5153123" lon="13.174867"><ele>828.3333333333334</ele><time>2026-04-26T08:35:10.763Z</time></trkpt><trkpt lat="42.5151768" lon="13.1749853"><ele>824.0</ele><time>2026-04-26T08:35:11.763Z</time></trkpt><trkpt lat="42.5150439" lon="13.1750958"><ele>824.0</ele><time>2026-04-26T08:35:12.762Z</time></trkpt><trkpt lat="42.5149144" lon="13.1751972"><ele>824.0</ele><time>2026-04-26T08:35:13.763Z</time></trkpt><trkpt lat="42.5147825" lon="13.1752846"><ele>824.0</ele><time>2026-04-26T08:35:14.761Z</time></trkpt><trkpt lat="42.5146495" lon="13.1753507"><ele>824.0</ele><time>2026-04-26T08:35:15.763Z</time></trkpt><trkpt lat="42.5145167" lon="13.1753802"><ele>822.0</ele><time>2026-04-26T08:35:16.763Z</time></trkpt><trkpt lat="42.5143906" lon="13.1753695"><ele>820.0</ele><time>2026-04-26T08:35:17.761Z</time></trkpt><trkpt lat="42.5142827" lon="13.1753142"><ele>818.0</ele><time>2026-04-26T08:35:18.761Z</time></trkpt><trkpt lat="42.5142026" lon="13.1752112"><ele>816.0</ele><time>2026-04-26T08:35:19.763Z</time></trkpt><trkpt lat="42.5141554" lon="13.1750702"><ele>816.0</ele><time>2026-04-26T08:35:20.762Z</time></trkpt><trkpt lat="42.5141361" lon="13.174889"><ele>816.0</ele><time>2026-04-26T08:35:21.762Z</time></trkpt><trkpt lat="42.5141424" lon="13.1746869"><ele>816.0</ele><time>2026-04-26T08:35:22.762Z</time></trkpt><trkpt lat="42.5141525" lon="13.1744843"><ele>816.0</ele><time>2026-04-26T08:35:23.763Z</time></trkpt><trkpt lat="42.5141585" lon="13.1742985"><ele>816.0</ele><time>2026-04-26T08:35:24.761Z</time></trkpt><trkpt lat="42.5141577" lon="13.1741196"><ele>816.0</ele><time>2026-04-26T08:35:25.761Z</time></trkpt><trkpt lat="42.5141251" lon="13.1739475"><ele>816.0</ele><time>2026-04-26T08:35:26.761Z</time></trkpt><trkpt lat="42.5140513" lon="13.1737915"><ele>816.0</ele><time>2026-04-26T08:35:27.762Z</time></trkpt><trkpt lat="42.5139557" lon="13.1736477"><ele>816.5</ele><time>2026-04-26T08:35:28.761Z</time></trkpt><trkpt lat="42.5138525" lon="13.1735171"><ele>817.0</ele><time>2026-04-26T08:35:29.763Z</time></trkpt><trkpt lat="42.5137178" lon="13.1734393"><ele>817.5</ele><time>2026-04-26T08:35:30.762Z</time></trkpt><trkpt lat="42.5135799" lon="13.1734021"><ele>818.0</ele><time>2026-04-26T08:35:31.761Z</time></trkpt><trkpt lat="42.5134473" lon="13.1734037"><ele>818.0</ele><time>2026-04-26T08:35:32.762Z</time></trkpt><trkpt lat="42.5133243" lon="13.1734335"><ele>818.0</ele><time>2026-04-26T08:35:33.762Z</time></trkpt><trkpt lat="42.5132169" lon="13.1734702"><ele>818.0</ele><time>2026-04-26T08:35:34.761Z</time></trkpt><trkpt lat="42.5131147" lon="13.173492"><ele>818.0</ele><time>2026-04-26T08:35:35.761Z</time></trkpt><trkpt lat="42.5130273" lon="13.1734691"><ele>818.0</ele><time>2026-04-26T08:35:36.763Z</time></trkpt><trkpt lat="42.512959" lon="13.1734044"><ele>818.0</ele><time>2026-04-26T08:35:37.763Z</time></trkpt><trkpt lat="42.5129273" lon="13.1732877"><ele>818.0</ele><time>2026-04-26T08:35:38.763Z</time></trkpt><trkpt lat="42.5129168" lon="13.1731259"><ele>818.0</ele><time>2026-04-26T08:35:39.763Z</time></trkpt><trkpt lat="42.5129166" lon="13.1729331"><ele>818.0</ele><time>2026-04-26T08:35:40.761Z</time></trkpt><trkpt lat="42.5129222" lon="13.172715"><ele>818.6666666666667</ele><time>2026-04-26T08:35:41.762Z</time></trkpt><trkpt lat="42.5129457" lon="13.1724732"><ele>819.3333333333333</ele><time>2026-04-26T08:35:42.762Z</time></trkpt><trkpt lat="42.5129866" lon="13.1722263"><ele>820.0</ele><time>2026-04-26T08:35:43.762Z</time></trkpt><trkpt lat="42.5130419" lon="13.1720002"><ele>819.3333333333333</ele><time>2026-04-26T08:35:44.761Z</time></trkpt><trkpt lat="42.5131066" lon="13.1717902"><ele>818.6666666666667</ele><time>2026-04-26T08:35:45.762Z</time></trkpt><trkpt lat="42.5131663" lon="13.1715904"><ele>818.0</ele><time>2026-04-26T08:35:46.763Z</time></trkpt><trkpt lat="42.5132193" lon="13.1713818"><ele>818.0</ele><time>2026-04-26T08:35:47.762Z</time></trkpt><trkpt lat="42.5132483" lon="13.1711778"><ele>818.0</ele><time>2026-04-26T08:35:48.762Z</time></trkpt><trkpt lat="42.5132387" lon="13.1709861"><ele>818.0</ele><time>2026-04-26T08:35:49.763Z</time></trkpt><trkpt lat="42.513189" lon="13.1708019"><ele>818.0</ele><time>2026-04-26T08:35:50.762Z</time></trkpt><trkpt lat="42.5131239" lon="13.1706336"><ele>819.5</ele><time>2026-04-26T08:35:51.762Z</time></trkpt><trkpt lat="42.5130794" lon="13.1704731"><ele>821.0</ele><time>2026-04-26T08:35:52.763Z</time></trkpt><trkpt lat="42.5130776" lon="13.1702928"><ele>822.5</ele><time>2026-04-26T08:35:53.761Z</time></trkpt><trkpt lat="42.5131021" lon="13.170101"><ele>824.0</ele><time>2026-04-26T08:35:54.761Z</time></trkpt><trkpt lat="42.5131194" lon="13.1698861"><ele>826.6666666666667</ele><time>2026-04-26T08:35:55.762Z</time></trkpt><trkpt lat="42.5131227" lon="13.1696645"><ele>829.3333333333333</ele><time>2026-04-26T08:35:56.762Z</time></trkpt><trkpt lat="42.5131041" lon="13.1694411"><ele>832.0</ele><time>2026-04-26T08:35:57.763Z</time></trkpt><trkpt lat="42.5130553" lon="13.1692283"><ele>832.0</ele><time>2026-04-26T08:35:58.762Z</time></trkpt><trkpt lat="42.512974" lon="13.169037"><ele>832.0</ele><time>2026-04-26T08:35:59.763Z</time></trkpt><trkpt lat="42.5128657" lon="13.1688708"><ele>832.0</ele><time>2026-04-26T08:36:00.762Z</time></trkpt><trkpt lat="42.5127479" lon="13.1687255"><ele>829.0</ele><time>2026-04-26T08:36:01.763Z</time></trkpt><trkpt lat="42.5126133" lon="13.1686216"><ele>826.0</ele><time>2026-04-26T08:36:02.762Z</time></trkpt><trkpt lat="42.5124772" lon="13.1685615"><ele>823.0</ele><time>2026-04-26T08:36:03.761Z</time></trkpt><trkpt lat="42.5123457" lon="13.168526"><ele>820.0</ele><time>2026-04-26T08:36:04.762Z</time></trkpt><trkpt lat="42.5122295" lon="13.1684786"><ele>820.0</ele><time>2026-04-26T08:36:05.761Z</time></trkpt><trkpt lat="42.5121419" lon="13.1683912"><ele>820.0</ele><time>2026-04-26T08:36:06.762Z</time></trkpt><trkpt lat="42.5120915" lon="13.1682874"><ele>820.0</ele><time>2026-04-26T08:36:07.762Z</time></trkpt><trkpt lat="42.5120843" lon="13.1681572"><ele>820.0</ele><time>2026-04-26T08:36:08.763Z</time></trkpt><trkpt lat="42.5121138" lon="13.1679999"><ele>820.0</ele><time>2026-04-26T08:36:09.763Z</time></trkpt><trkpt lat="42.5121735" lon="13.1678394"><ele>819.0</ele><time>2026-04-26T08:36:10.763Z</time></trkpt><trkpt lat="42.5122407" lon="13.1676593"><ele>818.0</ele><time>2026-04-26T08:36:11.762Z</time></trkpt><trkpt lat="42.5123109" lon="13.1674662"><ele>817.0</ele><time>2026-04-26T08:36:12.761Z</time></trkpt><trkpt lat="42.5123755" lon="13.1672723"><ele>813.25</ele><time>2026-04-26T08:36:13.761Z</time></trkpt><trkpt lat="42.5124389" lon="13.1671081"><ele>809.5</ele><time>2026-04-26T08:36:14.763Z</time></trkpt><trkpt lat="42.512525" lon="13.1669742"><ele>805.75</ele><time>2026-04-26T08:36:15.761Z</time></trkpt><trkpt lat="42.5126352" lon="13.1668861"><ele>802.0</ele><time>2026-04-26T08:36:16.763Z</time></trkpt><trkpt lat="42.512761" lon="13.1668294"><ele>802.0</ele><time>2026-04-26T08:36:17.763Z</time></trkpt><trkpt lat="42.5128997" lon="13.1667956"><ele>802.0</ele><time>2026-04-26T08:36:18.761Z</time></trkpt><trkpt lat="42.5130359" lon="13.1667981"><ele>802.0</ele><time>2026-04-26T08:36:19.761Z</time></trkpt><trkpt lat="42.5131609" lon="13.1668257"><ele>802.0</ele><time>2026-04-26T08:36:20.762Z</time></trkpt><trkpt lat="42.5132614" lon="13.1668555"><ele>803.4000000000001</ele><time>2026-04-26T08:36:21.762Z</time></trkpt><trkpt lat="42.5133445" lon="13.1668515"><ele>804.8000000000001</ele><time>2026-04-26T08:36:22.761Z</time></trkpt><trkpt lat="42.5134127" lon="13.1668"><ele>806.2</ele><time>2026-04-26T08:36:23.762Z</time></trkpt><trkpt lat="42.513445" lon="13.1666997"><ele>807.6</ele><time>2026-04-26T08:36:24.762Z</time></trkpt><trkpt lat="42.5134747" lon="13.1665882"><ele>809.0</ele><time>2026-04-26T08:36:25.762Z</time></trkpt><trkpt lat="42.5133887" lon="13.1664317"><ele>809.0</ele><time>2026-04-26T08:36:26.761Z</time></trkpt><trkpt lat="42.5133729" lon="13.166271"><ele>809.0</ele><time>2026-04-26T08:36:27.762Z</time></trkpt><trkpt lat="42.5133777" lon="13.1660781"><ele>809.0</ele><time>2026-04-26T08:36:28.761Z</time></trkpt><trkpt lat="42.5133658" lon="13.1658609"><ele>809.0</ele><time>2026-04-26T08:36:29.761Z</time></trkpt><trkpt lat="42.5133273" lon="13.165626"><ele>811.6666666666667</ele><time>2026-04-26T08:36:30.762Z</time></trkpt><trkpt lat="42.5132711" lon="13.16539"><ele>814.3333333333333</ele><time>2026-04-26T08:36:31.762Z</time></trkpt><trkpt lat="42.5132071" lon="13.1651583"><ele>817.0</ele><time>2026-04-26T08:36:32.762Z</time></trkpt><trkpt lat="42.513136" lon="13.1649228"><ele>812.3333333333333</ele><time>2026-04-26T08:36:33.762Z</time></trkpt><trkpt lat="42.5130528" lon="13.1646838"><ele>807.6666666666667</ele><time>2026-04-26T08:36:34.761Z</time></trkpt><trkpt lat="42.5129429" lon="13.1644477"><ele>803.0</ele><time>2026-04-26T08:36:35.761Z</time></trkpt><trkpt lat="42.5128218" lon="13.1642329"><ele>803.0</ele><time>2026-04-26T08:36:36.761Z</time></trkpt><trkpt lat="42.5126737" lon="13.1640498"><ele>803.0</ele><time>2026-04-26T08:36:37.762Z</time></trkpt><trkpt lat="42.5125473" lon="13.1638779"><ele>803.0</ele><time>2026-04-26T08:36:38.761Z</time></trkpt><trkpt lat="42.5124316" lon="13.1637209"><ele>805.0</ele><time>2026-04-26T08:36:39.762Z</time></trkpt><trkpt lat="42.5123219" lon="13.1635905"><ele>807.0</ele><time>2026-04-26T08:36:40.761Z</time></trkpt><trkpt lat="42.512183" lon="13.1635228"><ele>809.0</ele><time>2026-04-26T08:36:41.76Z</time></trkpt><trkpt lat="42.5120292" lon="13.1634826"><ele>809.0</ele><time>2026-04-26T08:36:42.762Z</time></trkpt><trkpt lat="42.5118685" lon="13.163433"><ele>809.0</ele><time>2026-04-26T08:36:43.762Z</time></trkpt><trkpt lat="42.5117212" lon="13.1633607"><ele>809.0</ele><time>2026-04-26T08:36:44.762Z</time></trkpt><trkpt lat="42.5115805" lon="13.1633114"><ele>809.0</ele><time>2026-04-26T08:36:45.761Z</time></trkpt><trkpt lat="42.5114504" lon="13.1632979"><ele>809.0</ele><time>2026-04-26T08:36:46.76Z</time></trkpt><trkpt lat="42.511335" lon="13.1633893"><ele>809.0</ele><time>2026-04-26T08:36:47.76Z</time></trkpt><trkpt lat="42.5112283" lon="13.1634071"><ele>809.0</ele><time>2026-04-26T08:36:48.76Z</time></trkpt><trkpt lat="42.5111365" lon="13.1633866"><ele>805.0</ele><time>2026-04-26T08:36:49.76Z</time></trkpt><trkpt lat="42.5110652" lon="13.1633048"><ele>801.0</ele><time>2026-04-26T08:36:50.76Z</time></trkpt><trkpt lat="42.5110299" lon="13.1631758"><ele>797.0</ele><time>2026-04-26T08:36:51.76Z</time></trkpt><trkpt lat="42.5110256" lon="13.1629953"><ele>793.0</ele><time>2026-04-26T08:36:52.761Z</time></trkpt><trkpt lat="42.5110617" lon="13.1627828"><ele>793.0</ele><time>2026-04-26T08:36:53.761Z</time></trkpt><trkpt lat="42.5111173" lon="13.1625464"><ele>793.0</ele><time>2026-04-26T08:36:54.762Z</time></trkpt><trkpt lat="42.5111511" lon="13.1622961"><ele>793.0</ele><time>2026-04-26T08:36:55.761Z</time></trkpt><trkpt lat="42.5111682" lon="13.1620435"><ele>793.3333333333333</ele><time>2026-04-26T08:36:56.761Z</time></trkpt><trkpt lat="42.5111759" lon="13.1618102"><ele>793.6666666666667</ele><time>2026-04-26T08:36:57.76Z</time></trkpt><trkpt lat="42.511174" lon="13.1615819"><ele>794.0</ele><time>2026-04-26T08:36:58.761Z</time></trkpt><trkpt lat="42.5111547" lon="13.1613687"><ele>796.0</ele><time>2026-04-26T08:36:59.761Z</time></trkpt><trkpt lat="42.5111057" lon="13.1611659"><ele>798.0</ele><time>2026-04-26T08:37:00.762Z</time></trkpt><trkpt lat="42.5110227" lon="13.1609763"><ele>800.0</ele><time>2026-04-26T08:37:01.761Z</time></trkpt><trkpt lat="42.5109302" lon="13.1608058"><ele>801.75</ele><time>2026-04-26T08:37:02.761Z</time></trkpt><trkpt lat="42.510851" lon="13.1606374"><ele>803.5</ele><time>2026-04-26T08:37:03.761Z</time></trkpt><trkpt lat="42.5107881" lon="13.1604803"><ele>805.25</ele><time>2026-04-26T08:37:04.762Z</time></trkpt><trkpt lat="42.5107265" lon="13.1603508"><ele>807.0</ele><time>2026-04-26T08:37:05.761Z</time></trkpt><trkpt lat="42.5106596" lon="13.160257"><ele>807.0</ele><time>2026-04-26T08:37:06.762Z</time></trkpt><trkpt lat="42.5105745" lon="13.1602131"><ele>807.0</ele><time>2026-04-26T08:37:07.761Z</time></trkpt><trkpt lat="42.5104837" lon="13.1602245"><ele>807.0</ele><time>2026-04-26T08:37:08.761Z</time></trkpt><trkpt lat="42.5104002" lon="13.1603033"><ele>807.0</ele><time>2026-04-26T08:37:09.76Z</time></trkpt><trkpt lat="42.5103125" lon="13.160424"><ele>807.0</ele><time>2026-04-26T08:37:10.761Z</time></trkpt><trkpt lat="42.5102041" lon="13.1605185"><ele>808.25</ele><time>2026-04-26T08:37:11.761Z</time></trkpt><trkpt lat="42.510065" lon="13.1605899"><ele>809.5</ele><time>2026-04-26T08:37:12.761Z</time></trkpt><trkpt lat="42.5099232" lon="13.1606476"><ele>810.75</ele><time>2026-04-26T08:37:13.761Z</time></trkpt><trkpt lat="42.5097904" lon="13.1607042"><ele>812.0</ele><time>2026-04-26T08:37:14.761Z</time></trkpt><trkpt lat="42.509669" lon="13.1607723"><ele>806.75</ele><time>2026-04-26T08:37:15.761Z</time></trkpt><trkpt lat="42.5095547" lon="13.1608347"><ele>801.5</ele><time>2026-04-26T08:37:16.762Z</time></trkpt><trkpt lat="42.5094405" lon="13.1608568"><ele>796.25</ele><time>2026-04-26T08:37:17.761Z</time></trkpt><trkpt lat="42.5093172" lon="13.1608283"><ele>791.0</ele><time>2026-04-26T08:37:18.761Z</time></trkpt><trkpt lat="42.5091962" lon="13.160732"><ele>796.6666666666667</ele><time>2026-04-26T08:37:19.761Z</time></trkpt><trkpt lat="42.5090885" lon="13.1605794"><ele>802.3333333333333</ele><time>2026-04-26T08:37:20.762Z</time></trkpt><trkpt lat="42.5089903" lon="13.1603961"><ele>808.0</ele><time>2026-04-26T08:37:21.761Z</time></trkpt><trkpt lat="42.5088873" lon="13.1602198"><ele>808.0</ele><time>2026-04-26T08:37:22.762Z</time></trkpt><trkpt lat="42.5087689" lon="13.1600636"><ele>808.0</ele><time>2026-04-26T08:37:23.762Z</time></trkpt><trkpt lat="42.5086401" lon="13.1599205"><ele>808.0</ele><time>2026-04-26T08:37:24.761Z</time></trkpt><trkpt lat="42.5085304" lon="13.1597551"><ele>803.6666666666666</ele><time>2026-04-26T08:37:25.761Z</time></trkpt><trkpt lat="42.5084446" lon="13.1595507"><ele>799.3333333333333</ele><time>2026-04-26T08:37:26.761Z</time></trkpt><trkpt lat="42.5083766" lon="13.1593212"><ele>795.0</ele><time>2026-04-26T08:37:27.76Z</time></trkpt><trkpt lat="42.5083136" lon="13.15909"><ele>796.6666666666667</ele><time>2026-04-26T08:37:28.762Z</time></trkpt><trkpt lat="42.5082499" lon="13.1588713"><ele>798.3333333333334</ele><time>2026-04-26T08:37:29.762Z</time></trkpt><trkpt lat="42.5081841" lon="13.1586521"><ele>800.0</ele><time>2026-04-26T08:37:30.76Z</time></trkpt><trkpt lat="42.5081204" lon="13.1584353"><ele>800.0</ele><time>2026-04-26T08:37:31.761Z</time></trkpt><trkpt lat="42.508071" lon="13.1582294"><ele>800.0</ele><time>2026-04-26T08:37:32.762Z</time></trkpt><trkpt lat="42.5080331" lon="13.1580439"><ele>800.0</ele><time>2026-04-26T08:37:33.762Z</time></trkpt><trkpt lat="42.5080119" lon="13.1578783"><ele>800.0</ele><time>2026-04-26T08:37:34.761Z</time></trkpt><trkpt lat="42.5080142" lon="13.1577255"><ele>798.0</ele><time>2026-04-26T08:37:35.761Z</time></trkpt><trkpt lat="42.5080482" lon="13.1575943"><ele>796.0</ele><time>2026-04-26T08:37:36.76Z</time></trkpt><trkpt lat="42.5081102" lon="13.1574998"><ele>794.0</ele><time>2026-04-26T08:37:37.761Z</time></trkpt><trkpt lat="42.5081952" lon="13.1574587"><ele>792.0</ele><time>2026-04-26T08:37:38.761Z</time></trkpt><trkpt lat="42.5083046" lon="13.1574679"><ele>790.0</ele><time>2026-04-26T08:37:39.76Z</time></trkpt><trkpt lat="42.5084396" lon="13.1575045"><ele>790.0</ele><time>2026-04-26T08:37:40.761Z</time></trkpt><trkpt lat="42.50859" lon="13.1575364"><ele>790.0</ele><time>2026-04-26T08:37:41.762Z</time></trkpt><trkpt lat="42.5087575" lon="13.1575346"><ele>790.0</ele><time>2026-04-26T08:37:42.762Z</time></trkpt><trkpt lat="42.5089302" lon="13.1574874"><ele>787.0</ele><time>2026-04-26T08:37:43.762Z</time></trkpt><trkpt lat="42.5090933" lon="13.1573941"><ele>784.0</ele><time>2026-04-26T08:37:44.762Z</time></trkpt><trkpt lat="42.5092363" lon="13.1572761"><ele>781.0</ele><time>2026-04-26T08:37:45.761Z</time></trkpt><trkpt lat="42.509373" lon="13.1571543"><ele>781.0</ele><time>2026-04-26T08:37:46.76Z</time></trkpt><trkpt lat="42.5095075" lon="13.1570489"><ele>781.0</ele><time>2026-04-26T08:37:47.762Z</time></trkpt><trkpt lat="42.5096428" lon="13.1569881"><ele>781.0</ele><time>2026-04-26T08:37:48.762Z</time></trkpt><trkpt lat="42.5097694" lon="13.1569577"><ele>781.0</ele><time>2026-04-26T08:37:49.761Z</time></trkpt><trkpt lat="42.5098786" lon="13.1569337"><ele>784.1999999999999</ele><time>2026-04-26T08:37:50.76Z</time></trkpt><trkpt lat="42.5099717" lon="13.1568911"><ele>787.4</ele><time>2026-04-26T08:37:51.762Z</time></trkpt><trkpt lat="42.5100367" lon="13.1568083"><ele>790.6</ele><time>2026-04-26T08:37:52.761Z</time></trkpt><trkpt lat="42.5100604" lon="13.1566883"><ele>793.8</ele><time>2026-04-26T08:37:53.762Z</time></trkpt><trkpt lat="42.5100297" lon="13.1565394"><ele>797.0</ele><time>2026-04-26T08:37:54.761Z</time></trkpt><trkpt lat="42.5099645" lon="13.1563746"><ele>800.6666666666667</ele><time>2026-04-26T08:37:55.762Z</time></trkpt><trkpt lat="42.5098863" lon="13.1562017"><ele>804.3333333333333</ele><time>2026-04-26T08:37:56.762Z</time></trkpt><trkpt lat="42.5098105" lon="13.1559944"><ele>808.0</ele><time>2026-04-26T08:37:57.762Z</time></trkpt><trkpt lat="42.5097265" lon="13.1557897"><ele>811.0</ele><time>2026-04-26T08:37:58.761Z</time></trkpt><trkpt lat="42.5096387" lon="13.1555863"><ele>814.0</ele><time>2026-04-26T08:37:59.76Z</time></trkpt><trkpt lat="42.5095366" lon="13.1553887"><ele>817.0</ele><time>2026-04-26T08:38:00.761Z</time></trkpt><trkpt lat="42.5094104" lon="13.1552218"><ele>809.0</ele><time>2026-04-26T08:38:01.761Z</time></trkpt><trkpt lat="42.5092839" lon="13.1550711"><ele>801.0</ele><time>2026-04-26T08:38:02.761Z</time></trkpt><trkpt lat="42.5091644" lon="13.1549227"><ele>793.0</ele><time>2026-04-26T08:38:03.76Z</time></trkpt><trkpt lat="42.5090478" lon="13.1547816"><ele>793.0</ele><time>2026-04-26T08:38:04.76Z</time></trkpt><trkpt lat="42.508924" lon="13.1546706"><ele>793.0</ele><time>2026-04-26T08:38:05.76Z</time></trkpt><trkpt lat="42.5087807" lon="13.1546137"><ele>793.0</ele><time>2026-04-26T08:38:06.761Z</time></trkpt><trkpt lat="42.5086412" lon="13.1546051"><ele>793.0</ele><time>2026-04-26T08:38:07.76Z</time></trkpt><trkpt lat="42.5085112" lon="13.1546055"><ele>790.2</ele><time>2026-04-26T08:38:08.762Z</time></trkpt><trkpt lat="42.5083956" lon="13.1545864"><ele>787.4</ele><time>2026-04-26T08:38:09.76Z</time></trkpt><trkpt lat="42.5083038" lon="13.1545378"><ele>784.6</ele><time>2026-04-26T08:38:10.761Z</time></trkpt><trkpt lat="42.5082316" lon="13.1544467"><ele>781.8000000000001</ele><time>2026-04-26T08:38:11.761Z</time></trkpt><trkpt lat="42.5081981" lon="13.1543197"><ele>779.0</ele><time>2026-04-26T08:38:12.762Z</time></trkpt><trkpt lat="42.5082076" lon="13.1541883"><ele>779.0</ele><time>2026-04-26T08:38:13.762Z</time></trkpt><trkpt lat="42.5082592" lon="13.1540658"><ele>779.0</ele><time>2026-04-26T08:38:14.761Z</time></trkpt><trkpt lat="42.5083522" lon="13.1539609"><ele>779.0</ele><time>2026-04-26T08:38:15.761Z</time></trkpt><trkpt lat="42.508454" lon="13.1538918"><ele>779.0</ele><time>2026-04-26T08:38:16.76Z</time></trkpt><trkpt lat="42.5085458" lon="13.1538146"><ele>779.0</ele><time>2026-04-26T08:38:17.761Z</time></trkpt><trkpt lat="42.5085993" lon="13.1536956"><ele>778.8000000000001</ele><time>2026-04-26T08:38:18.761Z</time></trkpt><trkpt lat="42.5086126" lon="13.1535557"><ele>778.6</ele><time>2026-04-26T08:38:19.762Z</time></trkpt><trkpt lat="42.5085708" lon="13.1534206"><ele>778.4</ele><time>2026-04-26T08:38:20.761Z</time></trkpt><trkpt lat="42.5085155" lon="13.1533062"><ele>778.2</ele><time>2026-04-26T08:38:21.762Z</time></trkpt><trkpt lat="42.5084808" lon="13.1531625"><ele>778.0</ele><time>2026-04-26T08:38:22.762Z</time></trkpt><trkpt lat="42.5084807" lon="13.1529895"><ele>778.0</ele><time>2026-04-26T08:38:23.761Z</time></trkpt><trkpt lat="42.5085103" lon="13.1527953"><ele>778.0</ele><time>2026-04-26T08:38:24.761Z</time></trkpt><trkpt lat="42.5085347" lon="13.1525717"><ele>778.0</ele><time>2026-04-26T08:38:25.761Z</time></trkpt><trkpt lat="42.508532" lon="13.1523597"><ele>780.0</ele><time>2026-04-26T08:38:26.762Z</time></trkpt><trkpt lat="42.5085493" lon="13.1521513"><ele>782.0</ele><time>2026-04-26T08:38:27.762Z</time></trkpt><trkpt lat="42.508612" lon="13.1519391"><ele>784.0</ele><time>2026-04-26T08:38:28.761Z</time></trkpt><trkpt lat="42.5086979" lon="13.1517306"><ele>784.6666666666666</ele><time>2026-04-26T08:38:29.761Z</time></trkpt><trkpt lat="42.5087966" lon="13.151535"><ele>785.3333333333333</ele><time>2026-04-26T08:38:30.762Z</time></trkpt><trkpt lat="42.5088911" lon="13.1513389"><ele>786.0</ele><time>2026-04-26T08:38:31.762Z</time></trkpt><trkpt lat="42.5089786" lon="13.1511229"><ele>786.0</ele><time>2026-04-26T08:38:32.762Z</time></trkpt><trkpt lat="42.5090487" lon="13.1508965"><ele>786.0</ele><time>2026-04-26T08:38:33.761Z</time></trkpt><trkpt lat="42.5091032" lon="13.1506679"><ele>786.0</ele><time>2026-04-26T08:38:34.76Z</time></trkpt><trkpt lat="42.5091378" lon="13.1504408"><ele>783.75</ele><time>2026-04-26T08:38:35.762Z</time></trkpt><trkpt lat="42.5091511" lon="13.1502322"><ele>781.5</ele><time>2026-04-26T08:38:36.762Z</time></trkpt><trkpt lat="42.5091463" lon="13.1500382"><ele>779.25</ele><time>2026-04-26T08:38:37.761Z</time></trkpt><trkpt lat="42.5091532" lon="13.1498541"><ele>777.0</ele><time>2026-04-26T08:38:38.762Z</time></trkpt><trkpt lat="42.5091943" lon="13.1496708"><ele>776.0</ele><time>2026-04-26T08:38:39.762Z</time></trkpt><trkpt lat="42.5092712" lon="13.1494961"><ele>775.0</ele><time>2026-04-26T08:38:40.762Z</time></trkpt><trkpt lat="42.5093661" lon="13.1493214"><ele>774.0</ele><time>2026-04-26T08:38:41.762Z</time></trkpt><trkpt lat="42.5094565" lon="13.1491415"><ele>772.6666666666667</ele><time>2026-04-26T08:38:42.762Z</time></trkpt><trkpt lat="42.5095407" lon="13.1489608"><ele>771.3333333333334</ele><time>2026-04-26T08:38:43.762Z</time></trkpt><trkpt lat="42.5096191" lon="13.1487768"><ele>770.0</ele><time>2026-04-26T08:38:44.76Z</time></trkpt><trkpt lat="42.5096773" lon="13.1485858"><ele>773.3333333333334</ele><time>2026-04-26T08:38:45.761Z</time></trkpt><trkpt lat="42.5097089" lon="13.1483766"><ele>776.6666666666667</ele><time>2026-04-26T08:38:46.761Z</time></trkpt><trkpt lat="42.5097307" lon="13.1481645"><ele>780.0</ele><time>2026-04-26T08:38:47.762Z</time></trkpt><trkpt lat="42.5097469" lon="13.1479648"><ele>781.0</ele><time>2026-04-26T08:38:48.761Z</time></trkpt><trkpt lat="42.5097556" lon="13.1477683"><ele>782.0</ele><time>2026-04-26T08:38:49.762Z</time></trkpt><trkpt lat="42.5097312" lon="13.1475654"><ele>783.0</ele><time>2026-04-26T08:38:50.762Z</time></trkpt><trkpt lat="42.509672" lon="13.1473652"><ele>782.3333333333333</ele><time>2026-04-26T08:38:51.762Z</time></trkpt><trkpt lat="42.5095917" lon="13.1471808"><ele>781.6666666666666</ele><time>2026-04-26T08:38:52.762Z</time></trkpt><trkpt lat="42.5094976" lon="13.1470146"><ele>781.0</ele><time>2026-04-26T08:38:53.76Z</time></trkpt><trkpt lat="42.5093895" lon="13.146875"><ele>781.0</ele><time>2026-04-26T08:38:54.761Z</time></trkpt><trkpt lat="42.5092664" lon="13.146783"><ele>781.0</ele><time>2026-04-26T08:38:55.76Z</time></trkpt><trkpt lat="42.5091371" lon="13.1467384"><ele>781.0</ele><time>2026-04-26T08:38:56.761Z</time></trkpt><trkpt lat="42.5089998" lon="13.1467326"><ele>781.0</ele><time>2026-04-26T08:38:57.762Z</time></trkpt><trkpt lat="42.5088648" lon="13.1467345"><ele>779.0</ele><time>2026-04-26T08:38:58.76Z</time></trkpt><trkpt lat="42.5087238" lon="13.146696"><ele>777.0</ele><time>2026-04-26T08:38:59.76Z</time></trkpt><trkpt lat="42.5086009" lon="13.1466271"><ele>775.0</ele><time>2026-04-26T08:39:00.76Z</time></trkpt><trkpt lat="42.5084885" lon="13.1465315"><ele>773.0</ele><time>2026-04-26T08:39:01.762Z</time></trkpt><trkpt lat="42.5083976" lon="13.1464059"><ele>773.0</ele><time>2026-04-26T08:39:02.762Z</time></trkpt><trkpt lat="42.5083302" lon="13.1462351"><ele>773.0</ele><time>2026-04-26T08:39:03.761Z</time></trkpt><trkpt lat="42.508277" lon="13.1460382"><ele>773.0</ele><time>2026-04-26T08:39:04.761Z</time></trkpt><trkpt lat="42.5082375" lon="13.1458314"><ele>771.6666666666667</ele><time>2026-04-26T08:39:05.76Z</time></trkpt><trkpt lat="42.5082236" lon="13.1456038"><ele>770.3333333333333</ele><time>2026-04-26T08:39:06.76Z</time></trkpt><trkpt lat="42.5082375" lon="13.1453597"><ele>769.0</ele><time>2026-04-26T08:39:07.761Z</time></trkpt><trkpt lat="42.5082696" lon="13.145112"><ele>769.0</ele><time>2026-04-26T08:39:08.76Z</time></trkpt><trkpt lat="42.5082999" lon="13.1448813"><ele>769.0</ele><time>2026-04-26T08:39:09.76Z</time></trkpt><trkpt lat="42.5083299" lon="13.1446699"><ele>769.0</ele><time>2026-04-26T08:39:10.76Z</time></trkpt><trkpt lat="42.5083713" lon="13.1444797"><ele>767.0</ele><time>2026-04-26T08:39:11.76Z</time></trkpt><trkpt lat="42.5084396" lon="13.1443094"><ele>765.0</ele><time>2026-04-26T08:39:12.76Z</time></trkpt><trkpt lat="42.5085447" lon="13.1441542"><ele>763.0</ele><time>2026-04-26T08:39:13.76Z</time></trkpt><trkpt lat="42.5086696" lon="13.1440072"><ele>762.3333333333334</ele><time>2026-04-26T08:39:14.761Z</time></trkpt><trkpt lat="42.5088027" lon="13.1438593"><ele>761.6666666666666</ele><time>2026-04-26T08:39:15.76Z</time></trkpt><trkpt lat="42.5089365" lon="13.1437268"><ele>761.0</ele><time>2026-04-26T08:39:16.759Z</time></trkpt><trkpt lat="42.5090711" lon="13.143615"><ele>761.0</ele><time>2026-04-26T08:39:17.76Z</time></trkpt><trkpt lat="42.5091931" lon="13.1435154"><ele>761.0</ele><time>2026-04-26T08:39:18.761Z</time></trkpt><trkpt lat="42.509297" lon="13.1434212"><ele>761.0</ele><time>2026-04-26T08:39:19.76Z</time></trkpt><trkpt lat="42.5093811" lon="13.1432998"><ele>761.0</ele><time>2026-04-26T08:39:20.76Z</time></trkpt><trkpt lat="42.5094385" lon="13.1431557"><ele>762.25</ele><time>2026-04-26T08:39:21.76Z</time></trkpt><trkpt lat="42.5094557" lon="13.1429778"><ele>763.5</ele><time>2026-04-26T08:39:22.76Z</time></trkpt><trkpt lat="42.5094243" lon="13.1427886"><ele>764.75</ele><time>2026-04-26T08:39:23.76Z</time></trkpt><trkpt lat="42.5093669" lon="13.1426077"><ele>766.0</ele><time>2026-04-26T08:39:24.761Z</time></trkpt><trkpt lat="42.5093044" lon="13.1424412"><ele>767.25</ele><time>2026-04-26T08:39:25.761Z</time></trkpt><trkpt lat="42.5092472" lon="13.1422748"><ele>768.5</ele><time>2026-04-26T08:39:26.76Z</time></trkpt><trkpt lat="42.5091899" lon="13.1421174"><ele>769.75</ele><time>2026-04-26T08:39:27.76Z</time></trkpt><trkpt lat="42.509132" lon="13.1419668"><ele>771.0</ele><time>2026-04-26T08:39:28.761Z</time></trkpt><trkpt lat="42.5090744" lon="13.1418126"><ele>771.0</ele><time>2026-04-26T08:39:29.76Z</time></trkpt><trkpt lat="42.5090163" lon="13.1416508"><ele>771.0</ele><time>2026-04-26T08:39:30.76Z</time></trkpt><trkpt lat="42.5089556" lon="13.1414881"><ele>771.0</ele><time>2026-04-26T08:39:31.76Z</time></trkpt><trkpt lat="42.5088906" lon="13.1413172"><ele>771.0</ele><time>2026-04-26T08:39:32.761Z</time></trkpt><trkpt lat="42.5088217" lon="13.1411371"><ele>773.3333333333333</ele><time>2026-04-26T08:39:33.76Z</time></trkpt><trkpt lat="42.5087526" lon="13.1409535"><ele>775.6666666666666</ele><time>2026-04-26T08:39:34.76Z</time></trkpt><trkpt lat="42.5086798" lon="13.1407682"><ele>778.0</ele><time>2026-04-26T08:39:35.761Z</time></trkpt><trkpt lat="42.5086071" lon="13.1405905"><ele>774.0</ele><time>2026-04-26T08:39:36.76Z</time></trkpt><trkpt lat="42.5085385" lon="13.1404255"><ele>770.0</ele><time>2026-04-26T08:39:37.76Z</time></trkpt><trkpt lat="42.5084724" lon="13.1402646"><ele>766.0</ele><time>2026-04-26T08:39:38.761Z</time></trkpt><trkpt lat="42.5084101" lon="13.1401133"><ele>762.0</ele><time>2026-04-26T08:39:39.759Z</time></trkpt><trkpt lat="42.5083502" lon="13.1399692"><ele>761.0</ele><time>2026-04-26T08:39:40.759Z</time></trkpt><trkpt lat="42.5083018" lon="13.1398278"><ele>760.0</ele><time>2026-04-26T08:39:41.759Z</time></trkpt><trkpt lat="42.5082715" lon="13.1396832"><ele>759.0</ele><time>2026-04-26T08:39:42.76Z</time></trkpt><trkpt lat="42.5082708" lon="13.1395447"><ele>758.0</ele><time>2026-04-26T08:39:43.76Z</time></trkpt><trkpt lat="42.5083061" lon="13.1394332"><ele>757.0</ele><time>2026-04-26T08:39:44.76Z</time></trkpt><trkpt lat="42.5083707" lon="13.1393468"><ele>757.0</ele><time>2026-04-26T08:39:45.761Z</time></trkpt><trkpt lat="42.5084611" lon="13.1392794"><ele>757.0</ele><time>2026-04-26T08:39:46.761Z</time></trkpt><trkpt lat="42.5085691" lon="13.1392417"><ele>757.0</ele><time>2026-04-26T08:39:47.76Z</time></trkpt><trkpt lat="42.5086944" lon="13.1392372"><ele>757.0</ele><time>2026-04-26T08:39:48.761Z</time></trkpt><trkpt lat="42.5088223" lon="13.1392664"><ele>757.25</ele><time>2026-04-26T08:39:49.759Z</time></trkpt><trkpt lat="42.5089512" lon="13.139305"><ele>757.5</ele><time>2026-04-26T08:39:50.76Z</time></trkpt><trkpt lat="42.5090837" lon="13.1393347"><ele>757.75</ele><time>2026-04-26T08:39:51.759Z</time></trkpt><trkpt lat="42.5092178" lon="13.1393468"><ele>758.0</ele><time>2026-04-26T08:39:52.759Z</time></trkpt><trkpt lat="42.5093491" lon="13.1393396"><ele>758.0</ele><time>2026-04-26T08:39:53.76Z</time></trkpt><trkpt lat="42.5094808" lon="13.1393169"><ele>758.0</ele><time>2026-04-26T08:39:54.76Z</time></trkpt><trkpt lat="42.5096062" lon="13.1392925"><ele>758.0</ele><time>2026-04-26T08:39:55.761Z</time></trkpt><trkpt lat="42.509725" lon="13.1392672"><ele>758.0</ele><time>2026-04-26T08:39:56.76Z</time></trkpt><trkpt lat="42.5098418" lon="13.1392363"><ele>758.2</ele><time>2026-04-26T08:39:57.761Z</time></trkpt><trkpt lat="42.5099503" lon="13.1391977"><ele>758.4</ele><time>2026-04-26T08:39:58.761Z</time></trkpt><trkpt lat="42.5100538" lon="13.1391522"><ele>758.6</ele><time>2026-04-26T08:39:59.76Z</time></trkpt><trkpt lat="42.510152" lon="13.139098"><ele>758.8000000000001</ele><time>2026-04-26T08:40:00.76Z</time></trkpt><trkpt lat="42.5102438" lon="13.1390456"><ele>759.0</ele><time>2026-04-26T08:40:01.76Z</time></trkpt><trkpt lat="42.5103286" lon="13.1389879"><ele>758.3333333333334</ele><time>2026-04-26T08:40:02.761Z</time></trkpt><trkpt lat="42.5104079" lon="13.1389343"><ele>757.6666666666666</ele><time>2026-04-26T08:40:03.76Z</time></trkpt><trkpt lat="42.5104845" lon="13.1388847"><ele>757.0</ele><time>2026-04-26T08:40:04.761Z</time></trkpt><trkpt lat="42.5105571" lon="13.1388359"><ele>756.3333333333333</ele><time>2026-04-26T08:40:05.76Z</time></trkpt><trkpt lat="42.5106302" lon="13.1388"><ele>755.6666666666666</ele><time>2026-04-26T08:40:06.76Z</time></trkpt><trkpt lat="42.5107024" lon="13.1387661"><ele>755.0</ele><time>2026-04-26T08:40:07.761Z</time></trkpt><trkpt lat="42.5107691" lon="13.1387323"><ele>755.0</ele><time>2026-04-26T08:40:08.761Z</time></trkpt><trkpt lat="42.5108368" lon="13.1386971"><ele>755.0</ele><time>2026-04-26T08:40:09.761Z</time></trkpt><trkpt lat="42.5109071" lon="13.1386616"><ele>755.0</ele><time>2026-04-26T08:40:10.76Z</time></trkpt><trkpt lat="42.5109816" lon="13.1386235"><ele>755.0</ele><time>2026-04-26T08:40:11.76Z</time></trkpt><trkpt lat="42.5110588" lon="13.1385675"><ele>755.0</ele><time>2026-04-26T08:40:12.759Z</time></trkpt><trkpt lat="42.5111414" lon="13.1384905"><ele>755.0</ele><time>2026-04-26T08:40:13.76Z</time></trkpt><trkpt lat="42.5112237" lon="13.138395"><ele>755.2</ele><time>2026-04-26T08:40:14.76Z</time></trkpt><trkpt lat="42.5112997" lon="13.1383058"><ele>755.4</ele><time>2026-04-26T08:40:15.76Z</time></trkpt><trkpt lat="42.5113686" lon="13.1382251"><ele>755.5999999999999</ele><time>2026-04-26T08:40:16.76Z</time></trkpt><trkpt lat="42.5114291" lon="13.1381378"><ele>755.8</ele><time>2026-04-26T08:40:17.759Z</time></trkpt><trkpt lat="42.5114738" lon="13.1380386"><ele>756.0</ele><time>2026-04-26T08:40:18.759Z</time></trkpt><trkpt lat="42.5115125" lon="13.1379234"><ele>756.0</ele><time>2026-04-26T08:40:19.759Z</time></trkpt><trkpt lat="42.5115503" lon="13.1377984"><ele>756.0</ele><time>2026-04-26T08:40:20.759Z</time></trkpt><trkpt lat="42.5115895" lon="13.1376805"><ele>756.0</ele><time>2026-04-26T08:40:21.76Z</time></trkpt><trkpt lat="42.5116274" lon="13.1375662"><ele>756.0</ele><time>2026-04-26T08:40:22.759Z</time></trkpt><trkpt lat="42.5116628" lon="13.1374549"><ele>756.0</ele><time>2026-04-26T08:40:23.759Z</time></trkpt><trkpt lat="42.5117018" lon="13.1373379"><ele>755.5999999999999</ele><time>2026-04-26T08:40:24.759Z</time></trkpt><trkpt lat="42.5117403" lon="13.1372201"><ele>755.2</ele><time>2026-04-26T08:40:25.76Z</time></trkpt><trkpt lat="42.5117823" lon="13.1371057"><ele>754.8</ele><time>2026-04-26T08:40:26.76Z</time></trkpt><trkpt lat="42.5118225" lon="13.1370008"><ele>754.4000000000001</ele><time>2026-04-26T08:40:27.761Z</time></trkpt><trkpt lat="42.5118659" lon="13.1369032"><ele>754.0</ele><time>2026-04-26T08:40:28.76Z</time></trkpt><trkpt lat="42.5119124" lon="13.1367956"><ele>754.0</ele><time>2026-04-26T08:40:29.761Z</time></trkpt><trkpt lat="42.5119698" lon="13.1366758"><ele>754.0</ele><time>2026-04-26T08:40:30.76Z</time></trkpt><trkpt lat="42.512031" lon="13.1365481"><ele>754.0</ele><time>2026-04-26T08:40:31.76Z</time></trkpt><trkpt lat="42.5120872" lon="13.1364127"><ele>754.0</ele><time>2026-04-26T08:40:32.761Z</time></trkpt><trkpt lat="42.5121243" lon="13.1362677"><ele>754.0</ele><time>2026-04-26T08:40:33.761Z</time></trkpt><trkpt lat="42.5121439" lon="13.136103"><ele>756.0</ele><time>2026-04-26T08:40:34.76Z</time></trkpt><trkpt lat="42.5121679" lon="13.1359421"><ele>758.0</ele><time>2026-04-26T08:40:35.761Z</time></trkpt><trkpt lat="42.5121669" lon="13.1357892"><ele>760.0</ele><time>2026-04-26T08:40:36.761Z</time></trkpt><trkpt lat="42.5121747" lon="13.1356373"><ele>762.0</ele><time>2026-04-26T08:40:37.76Z</time></trkpt><trkpt lat="42.5121833" lon="13.1354884"><ele>762.0</ele><time>2026-04-26T08:40:38.76Z</time></trkpt><trkpt lat="42.5121956" lon="13.1353321"><ele>762.0</ele><time>2026-04-26T08:40:39.759Z</time></trkpt><trkpt lat="42.5122064" lon="13.1351668"><ele>762.0</ele><time>2026-04-26T08:40:40.76Z</time></trkpt><trkpt lat="42.512225" lon="13.1350126"><ele>762.0</ele><time>2026-04-26T08:40:41.76Z</time></trkpt><trkpt lat="42.5122524" lon="13.1348645"><ele>759.75</ele><time>2026-04-26T08:40:42.76Z</time></trkpt><trkpt lat="42.5122935" lon="13.1347238"><ele>757.5</ele><time>2026-04-26T08:40:43.759Z</time></trkpt><trkpt lat="42.5123477" lon="13.1345822"><ele>755.25</ele><time>2026-04-26T08:40:44.76Z</time></trkpt><trkpt lat="42.5124123" lon="13.1344475"><ele>753.0</ele><time>2026-04-26T08:40:45.76Z</time></trkpt><trkpt lat="42.5124811" lon="13.1343297"><ele>753.0</ele><time>2026-04-26T08:40:46.759Z</time></trkpt><trkpt lat="42.5125524" lon="13.1342259"><ele>753.0</ele><time>2026-04-26T08:40:47.759Z</time></trkpt><trkpt lat="42.5126242" lon="13.1341317"><ele>753.0</ele><time>2026-04-26T08:40:48.761Z</time></trkpt><trkpt lat="42.5126941" lon="13.1340495"><ele>753.0</ele><time>2026-04-26T08:40:49.76Z</time></trkpt><trkpt lat="42.5127849" lon="13.1339937"><ele>753.0</ele><time>2026-04-26T08:40:50.76Z</time></trkpt><trkpt lat="42.5128914" lon="13.1339423"><ele>752.5</ele><time>2026-04-26T08:40:51.76Z</time></trkpt><trkpt lat="42.5130082" lon="13.1338906"><ele>752.0</ele><time>2026-04-26T08:40:52.76Z</time></trkpt><trkpt lat="42.5131337" lon="13.1338338"><ele>751.5</ele><time>2026-04-26T08:40:53.761Z</time></trkpt><trkpt lat="42.5132762" lon="13.1337473"><ele>751.0</ele><time>2026-04-26T08:40:54.76Z</time></trkpt><trkpt lat="42.5134156" lon="13.1336426"><ele>751.0</ele><time>2026-04-26T08:40:55.76Z</time></trkpt><trkpt lat="42.5135514" lon="13.1335316"><ele>751.0</ele><time>2026-04-26T08:40:56.76Z</time></trkpt><trkpt lat="42.5136806" lon="13.1334255"><ele>751.0</ele><time>2026-04-26T08:40:57.759Z</time></trkpt><trkpt lat="42.513802" lon="13.1333221"><ele>750.5</ele><time>2026-04-26T08:40:58.76Z</time></trkpt><trkpt lat="42.5139198" lon="13.1332274"><ele>750.0</ele><time>2026-04-26T08:40:59.759Z</time></trkpt><trkpt lat="42.5140328" lon="13.1331341"><ele>749.5</ele><time>2026-04-26T08:41:00.761Z</time></trkpt><trkpt lat="42.5141405" lon="13.1330427"><ele>749.0</ele><time>2026-04-26T08:41:01.76Z</time></trkpt><trkpt lat="42.5142423" lon="13.1329552"><ele>748.75</ele><time>2026-04-26T08:41:02.76Z</time></trkpt><trkpt lat="42.5143413" lon="13.1328726"><ele>748.5</ele><time>2026-04-26T08:41:03.761Z</time></trkpt><trkpt lat="42.5144493" lon="13.1327851"><ele>748.25</ele><time>2026-04-26T08:41:04.759Z</time></trkpt><trkpt lat="42.5145609" lon="13.1326857"><ele>748.0</ele><time>2026-04-26T08:41:05.759Z</time></trkpt><trkpt lat="42.514673" lon="13.1325722"><ele>748.0</ele><time>2026-04-26T08:41:06.76Z</time></trkpt><trkpt lat="42.5147811" lon="13.1324446"><ele>748.0</ele><time>2026-04-26T08:41:07.76Z</time></trkpt><trkpt lat="42.5148864" lon="13.132309"><ele>748.0</ele><time>2026-04-26T08:41:08.759Z</time></trkpt><trkpt lat="42.5149875" lon="13.1321563"><ele>748.0</ele><time>2026-04-26T08:41:09.761Z</time></trkpt><trkpt lat="42.5150918" lon="13.1319981"><ele>747.3333333333334</ele><time>2026-04-26T08:41:10.759Z</time></trkpt><trkpt lat="42.5151955" lon="13.1318324"><ele>746.6666666666666</ele><time>2026-04-26T08:41:11.761Z</time></trkpt><trkpt lat="42.5152903" lon="13.1316658"><ele>746.0</ele><time>2026-04-26T08:41:12.76Z</time></trkpt><trkpt lat="42.5153731" lon="13.1314986"><ele>746.6666666666666</ele><time>2026-04-26T08:41:13.76Z</time></trkpt><trkpt lat="42.5154419" lon="13.1313258"><ele>747.3333333333334</ele><time>2026-04-26T08:41:14.761Z</time></trkpt><trkpt lat="42.5155055" lon="13.1311394"><ele>748.0</ele><time>2026-04-26T08:41:15.76Z</time></trkpt><trkpt lat="42.5155678" lon="13.1309466"><ele>748.0</ele><time>2026-04-26T08:41:16.76Z</time></trkpt><trkpt lat="42.5156323" lon="13.1307467"><ele>748.0</ele><time>2026-04-26T08:41:17.76Z</time></trkpt><trkpt lat="42.5156993" lon="13.1305335"><ele>748.0</ele><time>2026-04-26T08:41:18.76Z</time></trkpt><trkpt lat="42.5157658" lon="13.1303183"><ele>747.3333333333334</ele><time>2026-04-26T08:41:19.76Z</time></trkpt><trkpt lat="42.5158296" lon="13.1301048"><ele>746.6666666666666</ele><time>2026-04-26T08:41:20.76Z</time></trkpt><trkpt lat="42.5158937" lon="13.1299013"><ele>746.0</ele><time>2026-04-26T08:41:21.76Z</time></trkpt><trkpt lat="42.5159482" lon="13.1297196"><ele>745.75</ele><time>2026-04-26T08:41:22.76Z</time></trkpt><trkpt lat="42.515998" lon="13.1295478"><ele>745.5</ele><time>2026-04-26T08:41:23.76Z</time></trkpt><trkpt lat="42.5160473" lon="13.1293842"><ele>745.25</ele><time>2026-04-26T08:41:24.761Z</time></trkpt><trkpt lat="42.5161067" lon="13.1292418"><ele>745.0</ele><time>2026-04-26T08:41:25.76Z</time></trkpt><trkpt lat="42.5161829" lon="13.1291327"><ele>744.0</ele><time>2026-04-26T08:41:26.76Z</time></trkpt><trkpt lat="42.516279" lon="13.1290564"><ele>743.0</ele><time>2026-04-26T08:41:27.761Z</time></trkpt><trkpt lat="42.5163867" lon="13.1289985"><ele>742.0</ele><time>2026-04-26T08:41:28.761Z</time></trkpt><trkpt lat="42.5165021" lon="13.1289586"><ele>741.0</ele><time>2026-04-26T08:41:29.759Z</time></trkpt><trkpt lat="42.5166232" lon="13.1289481"><ele>741.0</ele><time>2026-04-26T08:41:30.76Z</time></trkpt><trkpt lat="42.5167467" lon="13.1289823"><ele>741.0</ele><time>2026-04-26T08:41:31.759Z</time></trkpt><trkpt lat="42.5168704" lon="13.1290528"><ele>741.0</ele><time>2026-04-26T08:41:32.76Z</time></trkpt><trkpt lat="42.5170047" lon="13.1291433"><ele>741.0</ele><time>2026-04-26T08:41:33.759Z</time></trkpt><trkpt lat="42.517145" lon="13.129243"><ele>741.75</ele><time>2026-04-26T08:41:34.761Z</time></trkpt><trkpt lat="42.517276" lon="13.129355"><ele>742.5</ele><time>2026-04-26T08:41:35.76Z</time></trkpt><trkpt lat="42.5173959" lon="13.1294698"><ele>743.25</ele><time>2026-04-26T08:41:36.759Z</time></trkpt><trkpt lat="42.51751" lon="13.1295858"><ele>744.0</ele><time>2026-04-26T08:41:37.759Z</time></trkpt><trkpt lat="42.5176353" lon="13.129693"><ele>744.0</ele><time>2026-04-26T08:41:38.759Z</time></trkpt><trkpt lat="42.5177656" lon="13.1297667"><ele>744.0</ele><time>2026-04-26T08:41:39.759Z</time></trkpt><trkpt lat="42.5179" lon="13.1298036"><ele>744.0</ele><time>2026-04-26T08:41:40.76Z</time></trkpt><trkpt lat="42.5180308" lon="13.1298008"><ele>744.0</ele><time>2026-04-26T08:41:41.759Z</time></trkpt><trkpt lat="42.5181552" lon="13.1297715"><ele>744.0</ele><time>2026-04-26T08:41:42.759Z</time></trkpt><trkpt lat="42.5182717" lon="13.1297145"><ele>744.0</ele><time>2026-04-26T08:41:43.758Z</time></trkpt><trkpt lat="42.5183758" lon="13.129627"><ele>744.0</ele><time>2026-04-26T08:41:44.758Z</time></trkpt><trkpt lat="42.5184715" lon="13.1295122"><ele>744.0</ele><time>2026-04-26T08:41:45.759Z</time></trkpt><trkpt lat="42.5185498" lon="13.1293741"><ele>744.0</ele><time>2026-04-26T08:41:46.759Z</time></trkpt><trkpt lat="42.518612" lon="13.1292159"><ele>744.0</ele><time>2026-04-26T08:41:47.76Z</time></trkpt><trkpt lat="42.5186683" lon="13.1290442"><ele>744.0</ele><time>2026-04-26T08:41:48.759Z</time></trkpt><trkpt lat="42.5187198" lon="13.128843"><ele>744.0</ele><time>2026-04-26T08:41:49.758Z</time></trkpt><trkpt lat="42.5187567" lon="13.1286363"><ele>744.0</ele><time>2026-04-26T08:41:50.758Z</time></trkpt><trkpt lat="42.518778" lon="13.1284315"><ele>744.0</ele><time>2026-04-26T08:41:51.759Z</time></trkpt><trkpt lat="42.5187925" lon="13.1282382"><ele>744.0</ele><time>2026-04-26T08:41:52.759Z</time></trkpt><trkpt lat="42.5188068" lon="13.1280612"><ele>744.0</ele><time>2026-04-26T08:41:53.759Z</time></trkpt><trkpt lat="42.5188492" lon="13.1279047"><ele>744.0</ele><time>2026-04-26T08:41:54.759Z</time></trkpt><trkpt lat="42.5189213" lon="13.1277487"><ele>744.0</ele><time>2026-04-26T08:41:55.759Z</time></trkpt><trkpt lat="42.5190223" lon="13.1276112"><ele>744.0</ele><time>2026-04-26T08:41:56.759Z</time></trkpt><trkpt lat="42.5191603" lon="13.1274962"><ele>744.0</ele><time>2026-04-26T08:41:57.76Z</time></trkpt><trkpt lat="42.5193111" lon="13.1273903"><ele>744.0</ele><time>2026-04-26T08:41:58.759Z</time></trkpt><trkpt lat="42.5194631" lon="13.127297"><ele>744.0</ele><time>2026-04-26T08:41:59.76Z</time></trkpt><trkpt lat="42.5196102" lon="13.1272123"><ele>744.0</ele><time>2026-04-26T08:42:00.76Z</time></trkpt><trkpt lat="42.5197428" lon="13.127114"><ele>744.0</ele><time>2026-04-26T08:42:01.759Z</time></trkpt><trkpt lat="42.5198659" lon="13.1270122"><ele>744.0</ele><time>2026-04-26T08:42:02.759Z</time></trkpt><trkpt lat="42.5199752" lon="13.1268923"><ele>744.0</ele><time>2026-04-26T08:42:03.758Z</time></trkpt><trkpt lat="42.520059" lon="13.1267208"><ele>744.0</ele><time>2026-04-26T08:42:04.759Z</time></trkpt><trkpt lat="42.5201053" lon="13.126514"><ele>743.6666666666666</ele><time>2026-04-26T08:42:05.758Z</time></trkpt><trkpt lat="42.5201305" lon="13.1262817"><ele>743.3333333333333</ele><time>2026-04-26T08:42:06.759Z</time></trkpt><trkpt lat="42.5201484" lon="13.1260305"><ele>743.0</ele><time>2026-04-26T08:42:07.759Z</time></trkpt><trkpt lat="42.5201533" lon="13.1257773"><ele>744.0</ele><time>2026-04-26T08:42:08.76Z</time></trkpt><trkpt lat="42.5201364" lon="13.1255367"><ele>745.0</ele><time>2026-04-26T08:42:09.758Z</time></trkpt><trkpt lat="42.520091" lon="13.1253165"><ele>746.0</ele><time>2026-04-26T08:42:10.759Z</time></trkpt><trkpt lat="42.5200255" lon="13.1251099"><ele>746.0</ele><time>2026-04-26T08:42:11.76Z</time></trkpt><trkpt lat="42.519964" lon="13.1249222"><ele>746.0</ele><time>2026-04-26T08:42:12.76Z</time></trkpt><trkpt lat="42.5199235" lon="13.1247396"><ele>746.0</ele><time>2026-04-26T08:42:13.759Z</time></trkpt><trkpt lat="42.5199053" lon="13.1245488"><ele>746.0</ele><time>2026-04-26T08:42:14.759Z</time></trkpt><trkpt lat="42.5199137" lon="13.1243471"><ele>746.75</ele><time>2026-04-26T08:42:15.76Z</time></trkpt><trkpt lat="42.5199321" lon="13.1241524"><ele>747.5</ele><time>2026-04-26T08:42:16.759Z</time></trkpt><trkpt lat="42.519956" lon="13.1239686"><ele>748.25</ele><time>2026-04-26T08:42:17.758Z</time></trkpt><trkpt lat="42.519999" lon="13.1237964"><ele>749.0</ele><time>2026-04-26T08:42:18.759Z</time></trkpt><trkpt lat="42.5200711" lon="13.1236281"><ele>748.0</ele><time>2026-04-26T08:42:19.758Z</time></trkpt><trkpt lat="42.5201786" lon="13.1234766"><ele>747.0</ele><time>2026-04-26T08:42:20.758Z</time></trkpt><trkpt lat="42.5203099" lon="13.1233237"><ele>746.0</ele><time>2026-04-26T08:42:21.759Z</time></trkpt><trkpt lat="42.5204465" lon="13.1231769"><ele>746.0</ele><time>2026-04-26T08:42:22.759Z</time></trkpt><trkpt lat="42.5205825" lon="13.1230348"><ele>746.0</ele><time>2026-04-26T08:42:23.758Z</time></trkpt><trkpt lat="42.520716" lon="13.1228953"><ele>746.0</ele><time>2026-04-26T08:42:24.759Z</time></trkpt><trkpt lat="42.5208384" lon="13.1227542"><ele>746.0</ele><time>2026-04-26T08:42:25.759Z</time></trkpt><trkpt lat="42.5209391" lon="13.1225989"><ele>746.0</ele><time>2026-04-26T08:42:26.758Z</time></trkpt><trkpt lat="42.5210063" lon="13.122409"><ele>746.0</ele><time>2026-04-26T08:42:27.759Z</time></trkpt><trkpt lat="42.5210355" lon="13.1221863"><ele>743.3333333333333</ele><time>2026-04-26T08:42:28.759Z</time></trkpt><trkpt lat="42.5210488" lon="13.1219582"><ele>740.6666666666666</ele><time>2026-04-26T08:42:29.758Z</time></trkpt><trkpt lat="42.5210516" lon="13.1217325"><ele>738.0</ele><time>2026-04-26T08:42:30.759Z</time></trkpt><trkpt lat="42.5210789" lon="13.1215092"><ele>738.0</ele><time>2026-04-26T08:42:31.76Z</time></trkpt><trkpt lat="42.521126" lon="13.1213004"><ele>738.0</ele><time>2026-04-26T08:42:32.76Z</time></trkpt><trkpt lat="42.5211946" lon="13.1211044"><ele>738.0</ele><time>2026-04-26T08:42:33.759Z</time></trkpt><trkpt lat="42.5212904" lon="13.1209204"><ele>738.6666666666666</ele><time>2026-04-26T08:42:34.76Z</time></trkpt><trkpt lat="42.5214058" lon="13.1207632"><ele>739.3333333333333</ele><time>2026-04-26T08:42:35.759Z</time></trkpt><trkpt lat="42.5215434" lon="13.1206222"><ele>740.0</ele><time>2026-04-26T08:42:36.759Z</time></trkpt><trkpt lat="42.5216773" lon="13.1204604"><ele>740.0</ele><time>2026-04-26T08:42:37.76Z</time></trkpt><trkpt lat="42.5218012" lon="13.1202756"><ele>740.0</ele><time>2026-04-26T08:42:38.759Z</time></trkpt><trkpt lat="42.5219047" lon="13.1200845"><ele>740.0</ele><time>2026-04-26T08:42:39.759Z</time></trkpt><trkpt lat="42.5219902" lon="13.119885"><ele>738.6666666666666</ele><time>2026-04-26T08:42:40.759Z</time></trkpt><trkpt lat="42.5220424" lon="13.1196744"><ele>737.3333333333334</ele><time>2026-04-26T08:42:41.759Z</time></trkpt><trkpt lat="42.5220614" lon="13.1194719"><ele>736.0</ele><time>2026-04-26T08:42:42.76Z</time></trkpt><trkpt lat="42.5220708" lon="13.119283"><ele>736.0</ele><time>2026-04-26T08:42:43.76Z</time></trkpt><trkpt lat="42.5220881" lon="13.1191074"><ele>736.0</ele><time>2026-04-26T08:42:44.759Z</time></trkpt><trkpt lat="42.5221305" lon="13.1189604"><ele>736.0</ele><time>2026-04-26T08:42:45.76Z</time></trkpt><trkpt lat="42.5222053" lon="13.1188372"><ele>736.0</ele><time>2026-04-26T08:42:46.759Z</time></trkpt><trkpt lat="42.5223172" lon="13.1187316"><ele>736.0</ele><time>2026-04-26T08:42:47.759Z</time></trkpt><trkpt lat="42.5224508" lon="13.11863"><ele>736.0</ele><time>2026-04-26T08:42:48.76Z</time></trkpt><trkpt lat="42.5226024" lon="13.1185202"><ele>736.0</ele><time>2026-04-26T08:42:49.759Z</time></trkpt><trkpt lat="42.5227594" lon="13.1184124"><ele>734.3333333333334</ele><time>2026-04-26T08:42:50.76Z</time></trkpt><trkpt lat="42.5229229" lon="13.118312"><ele>732.6666666666666</ele><time>2026-04-26T08:42:51.759Z</time></trkpt><trkpt lat="42.5230845" lon="13.1182098"><ele>731.0</ele><time>2026-04-26T08:42:52.759Z</time></trkpt><trkpt lat="42.5232429" lon="13.1180838"><ele>731.0</ele><time>2026-04-26T08:42:53.759Z</time></trkpt><trkpt lat="42.5233927" lon="13.1179243"><ele>731.0</ele><time>2026-04-26T08:42:54.76Z</time></trkpt><trkpt lat="42.5235328" lon="13.1177405"><ele>731.0</ele><time>2026-04-26T08:42:55.758Z</time></trkpt><trkpt lat="42.5236638" lon="13.1175486"><ele>735.3333333333333</ele><time>2026-04-26T08:42:56.759Z</time></trkpt><trkpt lat="42.5237797" lon="13.1173531"><ele>739.6666666666666</ele><time>2026-04-26T08:42:57.758Z</time></trkpt><trkpt lat="42.5238791" lon="13.1171484"><ele>744.0</ele><time>2026-04-26T08:42:58.759Z</time></trkpt><trkpt lat="42.5239519" lon="13.1169228"><ele>744.0</ele><time>2026-04-26T08:42:59.759Z</time></trkpt><trkpt lat="42.5240077" lon="13.1166804"><ele>744.0</ele><time>2026-04-26T08:43:00.759Z</time></trkpt><trkpt lat="42.5240552" lon="13.1164281"><ele>744.0</ele><time>2026-04-26T08:43:01.759Z</time></trkpt><trkpt lat="42.5240957" lon="13.1161721"><ele>742.0</ele><time>2026-04-26T08:43:02.758Z</time></trkpt><trkpt lat="42.5241395" lon="13.1159169"><ele>740.0</ele><time>2026-04-26T08:43:03.76Z</time></trkpt><trkpt lat="42.5241839" lon="13.1156666"><ele>738.0</ele><time>2026-04-26T08:43:04.759Z</time></trkpt><trkpt lat="42.5242331" lon="13.1154293"><ele>735.0</ele><time>2026-04-26T08:43:05.76Z</time></trkpt><trkpt lat="42.5242846" lon="13.1152051"><ele>732.0</ele><time>2026-04-26T08:43:06.759Z</time></trkpt><trkpt lat="42.524337" lon="13.1150024"><ele>729.0</ele><time>2026-04-26T08:43:07.759Z</time></trkpt><trkpt lat="42.5244047" lon="13.1148199"><ele>729.3333333333334</ele><time>2026-04-26T08:43:08.759Z</time></trkpt><trkpt lat="42.5245027" lon="13.114648"><ele>729.6666666666667</ele><time>2026-04-26T08:43:09.76Z</time></trkpt><trkpt lat="42.5246345" lon="13.1144973"><ele>730.0</ele><time>2026-04-26T08:43:10.758Z</time></trkpt><trkpt lat="42.5247873" lon="13.1143594"><ele>730.0</ele><time>2026-04-26T08:43:11.759Z</time></trkpt><trkpt lat="42.5249468" lon="13.1142285"><ele>730.0</ele><time>2026-04-26T08:43:12.76Z</time></trkpt><trkpt lat="42.5251083" lon="13.1140893"><ele>730.0</ele><time>2026-04-26T08:43:13.759Z</time></trkpt><trkpt lat="42.5252581" lon="13.1139275"><ele>728.3333333333334</ele><time>2026-04-26T08:43:14.759Z</time></trkpt><trkpt lat="42.5253946" lon="13.1137592"><ele>726.6666666666666</ele><time>2026-04-26T08:43:15.759Z</time></trkpt><trkpt lat="42.5255223" lon="13.1135936"><ele>725.0</ele><time>2026-04-26T08:43:16.758Z</time></trkpt><trkpt lat="42.5256428" lon="13.1134308"><ele>726.3333333333333</ele><time>2026-04-26T08:43:17.76Z</time></trkpt><trkpt lat="42.525753" lon="13.1132544"><ele>727.6666666666666</ele><time>2026-04-26T08:43:18.759Z</time></trkpt><trkpt lat="42.5258357" lon="13.1130573"><ele>729.0</ele><time>2026-04-26T08:43:19.759Z</time></trkpt><trkpt lat="42.525877" lon="13.1128379"><ele>729.0</ele><time>2026-04-26T08:43:20.758Z</time></trkpt><trkpt lat="42.5258699" lon="13.1125986"><ele>729.0</ele><time>2026-04-26T08:43:21.758Z</time></trkpt><trkpt lat="42.525854" lon="13.1123722"><ele>729.0</ele><time>2026-04-26T08:43:22.758Z</time></trkpt><trkpt lat="42.5258503" lon="13.1121395"><ele>728.6666666666666</ele><time>2026-04-26T08:43:23.758Z</time></trkpt><trkpt lat="42.5258717" lon="13.1119099"><ele>728.3333333333333</ele><time>2026-04-26T08:43:24.76Z</time></trkpt><trkpt lat="42.5259096" lon="13.1116823"><ele>728.0</ele><time>2026-04-26T08:43:25.759Z</time></trkpt><trkpt lat="42.525952" lon="13.1114555"><ele>727.6666666666666</ele><time>2026-04-26T08:43:26.759Z</time></trkpt><trkpt lat="42.5260062" lon="13.1112295"><ele>727.3333333333334</ele><time>2026-04-26T08:43:27.759Z</time></trkpt><trkpt lat="42.5260706" lon="13.1110027"><ele>727.0</ele><time>2026-04-26T08:43:28.76Z</time></trkpt><trkpt lat="42.5261464" lon="13.1107784"><ele>730.6666666666667</ele><time>2026-04-26T08:43:29.758Z</time></trkpt><trkpt lat="42.5262301" lon="13.1105513"><ele>734.3333333333334</ele><time>2026-04-26T08:43:30.759Z</time></trkpt><trkpt lat="42.5263189" lon="13.1103211"><ele>738.0</ele><time>2026-04-26T08:43:31.759Z</time></trkpt><trkpt lat="42.5264014" lon="13.1100841"><ele>736.3333333333334</ele><time>2026-04-26T08:43:32.759Z</time></trkpt><trkpt lat="42.5264748" lon="13.1098402"><ele>734.6666666666667</ele><time>2026-04-26T08:43:33.759Z</time></trkpt><trkpt lat="42.5265341" lon="13.1095955"><ele>733.0</ele><time>2026-04-26T08:43:34.76Z</time></trkpt><trkpt lat="42.5265889" lon="13.1093513"><ele>733.0</ele><time>2026-04-26T08:43:35.759Z</time></trkpt><trkpt lat="42.5266408" lon="13.1091193"><ele>733.0</ele><time>2026-04-26T08:43:36.759Z</time></trkpt><trkpt lat="42.5266953" lon="13.1088998"><ele>733.0</ele><time>2026-04-26T08:43:37.759Z</time></trkpt><trkpt lat="42.5267508" lon="13.1086934"><ele>732.6666666666667</ele><time>2026-04-26T08:43:38.759Z</time></trkpt><trkpt lat="42.5268021" lon="13.1084939"><ele>732.3333333333334</ele><time>2026-04-26T08:43:39.759Z</time></trkpt><trkpt lat="42.5268372" lon="13.1082997"><ele>732.0</ele><time>2026-04-26T08:43:40.758Z</time></trkpt><trkpt lat="42.5268511" lon="13.1080993"><ele>732.0</ele><time>2026-04-26T08:43:41.759Z</time></trkpt><trkpt lat="42.5268409" lon="13.1078979"><ele>732.0</ele><time>2026-04-26T08:43:42.76Z</time></trkpt><trkpt lat="42.5268077" lon="13.1076926"><ele>732.0</ele><time>2026-04-26T08:43:43.759Z</time></trkpt><trkpt lat="42.5267463" lon="13.1074916"><ele>736.3333333333334</ele><time>2026-04-26T08:43:44.759Z</time></trkpt><trkpt lat="42.5266739" lon="13.1072975"><ele>740.6666666666667</ele><time>2026-04-26T08:43:45.759Z</time></trkpt><trkpt lat="42.5265978" lon="13.1071011"><ele>745.0</ele><time>2026-04-26T08:43:46.76Z</time></trkpt><trkpt lat="42.52651" lon="13.1069162"><ele>745.0</ele><time>2026-04-26T08:43:47.759Z</time></trkpt><trkpt lat="42.5264058" lon="13.1067454"><ele>745.0</ele><time>2026-04-26T08:43:48.759Z</time></trkpt><trkpt lat="42.526288" lon="13.1066063"><ele>745.0</ele><time>2026-04-26T08:43:49.758Z</time></trkpt><trkpt lat="42.5261655" lon="13.1065012"><ele>742.0</ele><time>2026-04-26T08:43:50.759Z</time></trkpt><trkpt lat="42.5260472" lon="13.1064268"><ele>739.0</ele><time>2026-04-26T08:43:51.759Z</time></trkpt><trkpt lat="42.5259449" lon="13.1063374"><ele>736.0</ele><time>2026-04-26T08:43:52.76Z</time></trkpt><trkpt lat="42.5258616" lon="13.1062009"><ele>733.0</ele><time>2026-04-26T08:43:53.759Z</time></trkpt><trkpt lat="42.5257965" lon="13.1060231"><ele>733.0</ele><time>2026-04-26T08:43:54.759Z</time></trkpt><trkpt lat="42.5257436" lon="13.1058141"><ele>733.0</ele><time>2026-04-26T08:43:55.758Z</time></trkpt><trkpt lat="42.5257023" lon="13.1055824"><ele>733.0</ele><time>2026-04-26T08:43:56.76Z</time></trkpt><trkpt lat="42.5256629" lon="13.1053525"><ele>735.3333333333334</ele><time>2026-04-26T08:43:57.759Z</time></trkpt><trkpt lat="42.5256308" lon="13.1051308"><ele>737.6666666666666</ele><time>2026-04-26T08:43:58.758Z</time></trkpt><trkpt lat="42.5255984" lon="13.1049166"><ele>740.0</ele><time>2026-04-26T08:43:59.758Z</time></trkpt><trkpt lat="42.5255575" lon="13.1047147"><ele>744.3333333333333</ele><time>2026-04-26T08:44:00.759Z</time></trkpt><trkpt lat="42.5254995" lon="13.1045163"><ele>748.6666666666666</ele><time>2026-04-26T08:44:01.759Z</time></trkpt><trkpt lat="42.5254111" lon="13.1043297"><ele>753.0</ele><time>2026-04-26T08:44:02.759Z</time></trkpt><trkpt lat="42.5252892" lon="13.1041633"><ele>751.3333333333334</ele><time>2026-04-26T08:44:03.759Z</time></trkpt><trkpt lat="42.525135" lon="13.1040289"><ele>749.6666666666667</ele><time>2026-04-26T08:44:04.758Z</time></trkpt><trkpt lat="42.5249761" lon="13.1039153"><ele>748.0</ele><time>2026-04-26T08:44:05.758Z</time></trkpt><trkpt lat="42.5248235" lon="13.1038138"><ele>748.0</ele><time>2026-04-26T08:44:06.759Z</time></trkpt><trkpt lat="42.5246794" lon="13.1037208"><ele>748.0</ele><time>2026-04-26T08:44:07.76Z</time></trkpt><trkpt lat="42.5245527" lon="13.1036314"><ele>748.0</ele><time>2026-04-26T08:44:08.759Z</time></trkpt><trkpt lat="42.5244529" lon="13.1035344"><ele>748.0</ele><time>2026-04-26T08:44:09.759Z</time></trkpt><trkpt lat="42.5243858" lon="13.1034116"><ele>742.3333333333334</ele><time>2026-04-26T08:44:10.759Z</time></trkpt><trkpt lat="42.5243459" lon="13.1032384"><ele>736.6666666666666</ele><time>2026-04-26T08:44:11.758Z</time></trkpt><trkpt lat="42.524317" lon="13.10303"><ele>731.0</ele><time>2026-04-26T08:44:12.758Z</time></trkpt><trkpt lat="42.5242655" lon="13.1027883"><ele>731.0</ele><time>2026-04-26T08:44:13.759Z</time></trkpt><trkpt lat="42.5241756" lon="13.1025534"><ele>731.0</ele><time>2026-04-26T08:44:14.76Z</time></trkpt><trkpt lat="42.5240677" lon="13.1023291"><ele>731.0</ele><time>2026-04-26T08:44:15.76Z</time></trkpt><trkpt lat="42.5239546" lon="13.1021197"><ele>729.5</ele><time>2026-04-26T08:44:16.76Z</time></trkpt><trkpt lat="42.5238403" lon="13.1019493"><ele>728.0</ele><time>2026-04-26T08:44:17.759Z</time></trkpt><trkpt lat="42.5237337" lon="13.1018219"><ele>726.5</ele><time>2026-04-26T08:44:18.758Z</time></trkpt><trkpt lat="42.5236399" lon="13.1017199"><ele>725.0</ele><time>2026-04-26T08:44:19.759Z</time></trkpt><trkpt lat="42.5235579" lon="13.1016401"><ele>728.5</ele><time>2026-04-26T08:44:20.757Z</time></trkpt><trkpt lat="42.5234816" lon="13.1015617"><ele>732.0</ele><time>2026-04-26T08:44:21.757Z</time></trkpt><trkpt lat="42.5234141" lon="13.1014883"><ele>735.5</ele><time>2026-04-26T08:44:22.758Z</time></trkpt><trkpt lat="42.5233529" lon="13.101426"><ele>739.0</ele><time>2026-04-26T08:44:23.757Z</time></trkpt><trkpt lat="42.5232947" lon="13.1013678"><ele>742.5</ele><time>2026-04-26T08:44:24.758Z</time></trkpt><trkpt lat="42.5232092" lon="13.1012886"><ele>746.0</ele><time>2026-04-26T08:44:26.757Z</time></trkpt><trkpt lat="42.5231008" lon="13.1012166"><ele>746.0</ele><time>2026-04-26T08:44:44.759Z</time></trkpt><trkpt lat="42.5230382" lon="13.1011648"><ele>746.0</ele><time>2026-04-26T08:44:45.758Z</time></trkpt><trkpt lat="42.5229762" lon="13.1011053"><ele>746.0</ele><time>2026-04-26T08:44:46.759Z</time></trkpt><trkpt lat="42.5229168" lon="13.1010188"><ele>746.0</ele><time>2026-04-26T08:44:47.759Z</time></trkpt><trkpt lat="42.5228714" lon="13.10091"><ele>746.0</ele><time>2026-04-26T08:44:48.759Z</time></trkpt><trkpt lat="42.5228383" lon="13.1007852"><ele>746.0</ele><time>2026-04-26T08:44:49.758Z</time></trkpt><trkpt lat="42.522814" lon="13.1006455"><ele>741.0</ele><time>2026-04-26T08:44:50.758Z</time></trkpt><trkpt lat="42.5227889" lon="13.1005058"><ele>736.0</ele><time>2026-04-26T08:44:51.759Z</time></trkpt><trkpt lat="42.5227571" lon="13.100358"><ele>731.0</ele><time>2026-04-26T08:44:52.758Z</time></trkpt><trkpt lat="42.5227168" lon="13.1002029"><ele>726.0</ele><time>2026-04-26T08:44:53.758Z</time></trkpt><trkpt lat="42.5226515" lon="13.1000369"><ele>733.0</ele><time>2026-04-26T08:44:54.758Z</time></trkpt><trkpt lat="42.5225676" lon="13.0998724"><ele>740.0</ele><time>2026-04-26T08:44:55.758Z</time></trkpt><trkpt lat="42.522459" lon="13.0997124"><ele>747.0</ele><time>2026-04-26T08:44:56.759Z</time></trkpt><trkpt lat="42.5223212" lon="13.0995625"><ele>747.0</ele><time>2026-04-26T08:44:57.758Z</time></trkpt><trkpt lat="42.5221709" lon="13.0994314"><ele>747.0</ele><time>2026-04-26T08:44:58.759Z</time></trkpt><trkpt lat="42.5220261" lon="13.099308"><ele>747.0</ele><time>2026-04-26T08:44:59.758Z</time></trkpt><trkpt lat="42.521894" lon="13.0991956"><ele>741.75</ele><time>2026-04-26T08:45:00.759Z</time></trkpt><trkpt lat="42.5217785" lon="13.0990871"><ele>736.5</ele><time>2026-04-26T08:45:01.758Z</time></trkpt><trkpt lat="42.5216904" lon="13.0989769"><ele>731.25</ele><time>2026-04-26T08:45:02.759Z</time></trkpt><trkpt lat="42.5216421" lon="13.0988448"><ele>726.0</ele><time>2026-04-26T08:45:03.758Z</time></trkpt><trkpt lat="42.5216293" lon="13.0987161"><ele>726.0</ele><time>2026-04-26T08:45:04.759Z</time></trkpt><trkpt lat="42.5216431" lon="13.0985678"><ele>726.0</ele><time>2026-04-26T08:45:05.757Z</time></trkpt><trkpt lat="42.5216679" lon="13.0984036"><ele>726.0</ele><time>2026-04-26T08:45:06.758Z</time></trkpt><trkpt lat="42.5217053" lon="13.098229"><ele>726.0</ele><time>2026-04-26T08:45:07.758Z</time></trkpt><trkpt lat="42.5217427" lon="13.0980731"><ele>724.8</ele><time>2026-04-26T08:45:08.757Z</time></trkpt><trkpt lat="42.5217776" lon="13.0979201"><ele>723.5999999999999</ele><time>2026-04-26T08:45:09.759Z</time></trkpt><trkpt lat="42.5218087" lon="13.0977834"><ele>722.4</ele><time>2026-04-26T08:45:10.759Z</time></trkpt><trkpt lat="42.5218361" lon="13.0976579"><ele>721.2</ele><time>2026-04-26T08:45:11.758Z</time></trkpt><trkpt lat="42.5218729" lon="13.0975293"><ele>720.0</ele><time>2026-04-26T08:45:12.758Z</time></trkpt><trkpt lat="42.5219204" lon="13.0974233"><ele>719.0</ele><time>2026-04-26T08:45:13.757Z</time></trkpt><trkpt lat="42.5219908" lon="13.0973281"><ele>718.0</ele><time>2026-04-26T08:45:14.758Z</time></trkpt><trkpt lat="42.5220919" lon="13.0972472"><ele>717.0</ele><time>2026-04-26T08:45:15.757Z</time></trkpt><trkpt lat="42.5222106" lon="13.0971805"><ele>716.0</ele><time>2026-04-26T08:45:16.758Z</time></trkpt><trkpt lat="42.5223412" lon="13.097127"><ele>716.0</ele><time>2026-04-26T08:45:17.759Z</time></trkpt><trkpt lat="42.5224806" lon="13.0970821"><ele>716.0</ele><time>2026-04-26T08:45:18.758Z</time></trkpt><trkpt lat="42.5226238" lon="13.0970555"><ele>716.0</ele><time>2026-04-26T08:45:19.758Z</time></trkpt><trkpt lat="42.5227665" lon="13.0970478"><ele>716.0</ele><time>2026-04-26T08:45:20.757Z</time></trkpt><trkpt lat="42.5229066" lon="13.0970529"><ele>716.0</ele><time>2026-04-26T08:45:21.758Z</time></trkpt><trkpt lat="42.5230519" lon="13.0970749"><ele>716.0</ele><time>2026-04-26T08:45:22.759Z</time></trkpt><trkpt lat="42.5231918" lon="13.0971097"><ele>716.0</ele><time>2026-04-26T08:45:23.759Z</time></trkpt><trkpt lat="42.5233324" lon="13.0971632"><ele>716.0</ele><time>2026-04-26T08:45:24.758Z</time></trkpt><trkpt lat="42.5234787" lon="13.0972351"><ele>716.0</ele><time>2026-04-26T08:45:25.758Z</time></trkpt><trkpt lat="42.5236273" lon="13.0973328"><ele>716.0</ele><time>2026-04-26T08:45:26.759Z</time></trkpt><trkpt lat="42.5237757" lon="13.0974493"><ele>716.0</ele><time>2026-04-26T08:45:27.759Z</time></trkpt><trkpt lat="42.5239288" lon="13.0975809"><ele>717.3333333333333</ele><time>2026-04-26T08:45:28.758Z</time></trkpt><trkpt lat="42.5240919" lon="13.0977262"><ele>718.6666666666666</ele><time>2026-04-26T08:45:29.758Z</time></trkpt><trkpt lat="42.5242623" lon="13.0978868"><ele>720.0</ele><time>2026-04-26T08:45:30.758Z</time></trkpt><trkpt lat="42.5244458" lon="13.098053"><ele>719.6666666666666</ele><time>2026-04-26T08:45:31.758Z</time></trkpt><trkpt lat="42.5246333" lon="13.0982149"><ele>719.3333333333333</ele><time>2026-04-26T08:45:32.759Z</time></trkpt><trkpt lat="42.5248177" lon="13.0983584"><ele>719.0</ele><time>2026-04-26T08:45:33.758Z</time></trkpt><trkpt lat="42.5250092" lon="13.0984923"><ele>719.0</ele><time>2026-04-26T08:45:34.758Z</time></trkpt><trkpt lat="42.5251977" lon="13.0985995"><ele>719.0</ele><time>2026-04-26T08:45:35.757Z</time></trkpt><trkpt lat="42.525388" lon="13.098685"><ele>719.0</ele><time>2026-04-26T08:45:36.758Z</time></trkpt><trkpt lat="42.5255729" lon="13.0987519"><ele>720.0</ele><time>2026-04-26T08:45:37.758Z</time></trkpt><trkpt lat="42.525742" lon="13.0987973"><ele>721.0</ele><time>2026-04-26T08:45:38.758Z</time></trkpt><trkpt lat="42.5258923" lon="13.0988339"><ele>722.0</ele><time>2026-04-26T08:45:39.758Z</time></trkpt><trkpt lat="42.5260208" lon="13.0988603"><ele>722.0</ele><time>2026-04-26T08:45:40.758Z</time></trkpt><trkpt lat="42.5261228" lon="13.0988809"><ele>722.0</ele><time>2026-04-26T08:45:41.758Z</time></trkpt><trkpt lat="42.5262153" lon="13.0989028"><ele>722.0</ele><time>2026-04-26T08:45:42.758Z</time></trkpt><trkpt lat="42.526296" lon="13.0989073"><ele>722.0</ele><time>2026-04-26T08:45:43.759Z</time></trkpt><trkpt lat="42.5263622" lon="13.0988834"><ele>722.0</ele><time>2026-04-26T08:45:44.759Z</time></trkpt><trkpt lat="42.5264112" lon="13.0988212"><ele>722.0</ele><time>2026-04-26T08:45:45.757Z</time></trkpt><trkpt lat="42.5264517" lon="13.0987175"><ele>722.0</ele><time>2026-04-26T08:45:46.758Z</time></trkpt><trkpt lat="42.526475" lon="13.0985904"><ele>722.0</ele><time>2026-04-26T08:45:47.758Z</time></trkpt><trkpt lat="42.5264864" lon="13.0984567"><ele>722.0</ele><time>2026-04-26T08:45:48.759Z</time></trkpt><trkpt lat="42.5265066" lon="13.0983276"><ele>722.0</ele><time>2026-04-26T08:45:49.759Z</time></trkpt><trkpt lat="42.5265341" lon="13.0982084"><ele>722.0</ele><time>2026-04-26T08:45:50.758Z</time></trkpt><trkpt lat="42.5265672" lon="13.0980831"><ele>722.6</ele><time>2026-04-26T08:45:51.759Z</time></trkpt><trkpt lat="42.526603" lon="13.0979488"><ele>723.2</ele><time>2026-04-26T08:45:52.757Z</time></trkpt><trkpt lat="42.526641" lon="13.09781"><ele>723.8</ele><time>2026-04-26T08:45:53.757Z</time></trkpt><trkpt lat="42.5266796" lon="13.0976686"><ele>724.4</ele><time>2026-04-26T08:45:54.758Z</time></trkpt><trkpt lat="42.5267095" lon="13.0975218"><ele>725.0</ele><time>2026-04-26T08:45:55.759Z</time></trkpt><trkpt lat="42.5267199" lon="13.0973564"><ele>728.6666666666666</ele><time>2026-04-26T08:45:56.758Z</time></trkpt><trkpt lat="42.5267063" lon="13.0971709"><ele>732.3333333333334</ele><time>2026-04-26T08:45:57.757Z</time></trkpt><trkpt lat="42.5266719" lon="13.0969727"><ele>736.0</ele><time>2026-04-26T08:45:58.758Z</time></trkpt><trkpt lat="42.5266373" lon="13.0967485"><ele>739.0</ele><time>2026-04-26T08:45:59.759Z</time></trkpt><trkpt lat="42.5266089" lon="13.0965017"><ele>742.0</ele><time>2026-04-26T08:46:00.759Z</time></trkpt><trkpt lat="42.526582" lon="13.0962615"><ele>745.0</ele><time>2026-04-26T08:46:01.758Z</time></trkpt><trkpt lat="42.5265428" lon="13.0960356"><ele>745.0</ele><time>2026-04-26T08:46:02.758Z</time></trkpt><trkpt lat="42.5265053" lon="13.0958136"><ele>745.0</ele><time>2026-04-26T08:46:03.758Z</time></trkpt><trkpt lat="42.5264854" lon="13.0955976"><ele>745.0</ele><time>2026-04-26T08:46:04.759Z</time></trkpt><trkpt lat="42.5264847" lon="13.095386"><ele>745.0</ele><time>2026-04-26T08:46:05.759Z</time></trkpt><trkpt lat="42.5264968" lon="13.0951772"><ele>745.0</ele><time>2026-04-26T08:46:06.758Z</time></trkpt><trkpt lat="42.5265273" lon="13.0949689"><ele>745.0</ele><time>2026-04-26T08:46:07.759Z</time></trkpt><trkpt lat="42.5265788" lon="13.0947712"><ele>742.6666666666667</ele><time>2026-04-26T08:46:08.759Z</time></trkpt><trkpt lat="42.5266388" lon="13.0945793"><ele>740.3333333333334</ele><time>2026-04-26T08:46:09.758Z</time></trkpt><trkpt lat="42.5266859" lon="13.0943814"><ele>738.0</ele><time>2026-04-26T08:46:10.758Z</time></trkpt><trkpt lat="42.5267236" lon="13.0941871"><ele>737.5</ele><time>2026-04-26T08:46:11.758Z</time></trkpt><trkpt lat="42.5267789" lon="13.0940038"><ele>737.0</ele><time>2026-04-26T08:46:12.757Z</time></trkpt><trkpt lat="42.526861" lon="13.0938458"><ele>736.5</ele><time>2026-04-26T08:46:13.758Z</time></trkpt><trkpt lat="42.5269676" lon="13.0937258"><ele>736.0</ele><time>2026-04-26T08:46:14.758Z</time></trkpt><trkpt lat="42.5270683" lon="13.0936323"><ele>741.25</ele><time>2026-04-26T08:46:15.759Z</time></trkpt><trkpt lat="42.5271506" lon="13.0935264"><ele>746.5</ele><time>2026-04-26T08:46:16.758Z</time></trkpt><trkpt lat="42.527203" lon="13.0933774"><ele>751.75</ele><time>2026-04-26T08:46:17.759Z</time></trkpt><trkpt lat="42.5271989" lon="13.0932136"><ele>757.0</ele><time>2026-04-26T08:46:18.757Z</time></trkpt><trkpt lat="42.5271629" lon="13.0930534"><ele>758.25</ele><time>2026-04-26T08:46:19.759Z</time></trkpt><trkpt lat="42.527137" lon="13.0928788"><ele>759.5</ele><time>2026-04-26T08:46:20.759Z</time></trkpt><trkpt lat="42.5271562" lon="13.0926889"><ele>760.75</ele><time>2026-04-26T08:46:21.758Z</time></trkpt><trkpt lat="42.5271694" lon="13.0924942"><ele>762.0</ele><time>2026-04-26T08:46:22.757Z</time></trkpt><trkpt lat="42.527164" lon="13.0923184"><ele>763.6666666666666</ele><time>2026-04-26T08:46:23.759Z</time></trkpt><trkpt lat="42.5271142" lon="13.092108"><ele>765.3333333333333</ele><time>2026-04-26T08:46:24.759Z</time></trkpt><trkpt lat="42.5271086" lon="13.0918985"><ele>767.0</ele><time>2026-04-26T08:46:25.759Z</time></trkpt><trkpt lat="42.5271241" lon="13.0916707"><ele>767.6666666666666</ele><time>2026-04-26T08:46:26.758Z</time></trkpt><trkpt lat="42.5271415" lon="13.0914262"><ele>768.3333333333333</ele><time>2026-04-26T08:46:27.759Z</time></trkpt><trkpt lat="42.5271609" lon="13.0911963"><ele>769.0</ele><time>2026-04-26T08:46:28.758Z</time></trkpt><trkpt lat="42.5271777" lon="13.0909795"><ele>769.0</ele><time>2026-04-26T08:46:29.759Z</time></trkpt><trkpt lat="42.5271982" lon="13.0907795"><ele>769.0</ele><time>2026-04-26T08:46:30.758Z</time></trkpt><trkpt lat="42.5272423" lon="13.0905894"><ele>769.0</ele><time>2026-04-26T08:46:31.758Z</time></trkpt><trkpt lat="42.5273138" lon="13.0904188"><ele>769.0</ele><time>2026-04-26T08:46:32.758Z</time></trkpt><trkpt lat="42.5274044" lon="13.0902743"><ele>767.25</ele><time>2026-04-26T08:46:33.758Z</time></trkpt><trkpt lat="42.5275096" lon="13.090156"><ele>765.5</ele><time>2026-04-26T08:46:34.759Z</time></trkpt><trkpt lat="42.5276178" lon="13.0900615"><ele>763.75</ele><time>2026-04-26T08:46:35.757Z</time></trkpt><trkpt lat="42.527714" lon="13.0899636"><ele>762.0</ele><time>2026-04-26T08:46:36.758Z</time></trkpt><trkpt lat="42.5277878" lon="13.0898587"><ele>762.0</ele><time>2026-04-26T08:46:37.759Z</time></trkpt><trkpt lat="42.5278288" lon="13.0897539"><ele>762.0</ele><time>2026-04-26T08:46:38.758Z</time></trkpt><trkpt lat="42.5278294" lon="13.089645"><ele>762.0</ele><time>2026-04-26T08:46:39.758Z</time></trkpt><trkpt lat="42.5277832" lon="13.0895465"><ele>762.0</ele><time>2026-04-26T08:46:40.758Z</time></trkpt><trkpt lat="42.5276945" lon="13.0894678"><ele>762.0</ele><time>2026-04-26T08:46:41.757Z</time></trkpt><trkpt lat="42.5275959" lon="13.0893994"><ele>762.0</ele><time>2026-04-26T08:46:42.759Z</time></trkpt><trkpt lat="42.5275162" lon="13.0893103"><ele>762.0</ele><time>2026-04-26T08:46:43.758Z</time></trkpt><trkpt lat="42.5274618" lon="13.0892038"><ele>762.0</ele><time>2026-04-26T08:46:44.758Z</time></trkpt><trkpt lat="42.5274493" lon="13.0890689"><ele>762.0</ele><time>2026-04-26T08:46:45.758Z</time></trkpt><trkpt lat="42.5274696" lon="13.0889104"><ele>762.0</ele><time>2026-04-26T08:46:46.757Z</time></trkpt><trkpt lat="42.5275074" lon="13.0887365"><ele>762.0</ele><time>2026-04-26T08:46:47.757Z</time></trkpt><trkpt lat="42.5275602" lon="13.0885648"><ele>762.0</ele><time>2026-04-26T08:46:48.757Z</time></trkpt><trkpt lat="42.5276292" lon="13.0884038"><ele>762.0</ele><time>2026-04-26T08:46:49.759Z</time></trkpt><trkpt lat="42.5277046" lon="13.0882712"><ele>762.0</ele><time>2026-04-26T08:46:50.757Z</time></trkpt><trkpt lat="42.5277782" lon="13.0881349"><ele>762.0</ele><time>2026-04-26T08:46:51.758Z</time></trkpt><trkpt lat="42.5278158" lon="13.0879691"><ele>762.0</ele><time>2026-04-26T08:46:52.759Z</time></trkpt><trkpt lat="42.5278125" lon="13.0877697"><ele>762.0</ele><time>2026-04-26T08:46:53.759Z</time></trkpt><trkpt lat="42.5277891" lon="13.0875535"><ele>762.0</ele><time>2026-04-26T08:46:54.758Z</time></trkpt><trkpt lat="42.5277692" lon="13.0873266"><ele>762.0</ele><time>2026-04-26T08:46:55.757Z</time></trkpt><trkpt lat="42.5277521" lon="13.0871207"><ele>762.0</ele><time>2026-04-26T08:46:56.758Z</time></trkpt><trkpt lat="42.5277366" lon="13.0869442"><ele>762.0</ele><time>2026-04-26T08:46:57.758Z</time></trkpt><trkpt lat="42.5277287" lon="13.0867884"><ele>762.0</ele><time>2026-04-26T08:46:58.757Z</time></trkpt><trkpt lat="42.5277502" lon="13.0866523"><ele>762.5</ele><time>2026-04-26T08:46:59.757Z</time></trkpt><trkpt lat="42.52781" lon="13.0865381"><ele>763.0</ele><time>2026-04-26T08:47:00.757Z</time></trkpt><trkpt lat="42.5278984" lon="13.0864618"><ele>763.5</ele><time>2026-04-26T08:47:01.758Z</time></trkpt><trkpt lat="42.5280105" lon="13.0864172"><ele>764.0</ele><time>2026-04-26T08:47:02.758Z</time></trkpt><trkpt lat="42.5281441" lon="13.0864034"><ele>767.0</ele><time>2026-04-26T08:47:03.757Z</time></trkpt><trkpt lat="42.5282731" lon="13.0863864"><ele>770.0</ele><time>2026-04-26T08:47:04.756Z</time></trkpt><trkpt lat="42.5283883" lon="13.0863799"><ele>773.0</ele><time>2026-04-26T08:47:05.757Z</time></trkpt><trkpt lat="42.5284861" lon="13.0863763"><ele>776.0</ele><time>2026-04-26T08:47:06.757Z</time></trkpt><trkpt lat="42.5285625" lon="13.0863384"><ele>779.0</ele><time>2026-04-26T08:47:07.756Z</time></trkpt><trkpt lat="42.5286174" lon="13.0862632"><ele>779.0000000000001</ele><time>2026-04-26T08:47:08.757Z</time></trkpt><trkpt lat="42.5286386" lon="13.086162"><ele>779.0</ele><time>2026-04-26T08:47:09.758Z</time></trkpt><trkpt lat="42.528641" lon="13.0860536"><ele>779.0</ele><time>2026-04-26T08:47:10.756Z</time></trkpt><trkpt lat="42.528632" lon="13.0859376"><ele>779.0</ele><time>2026-04-26T08:47:11.758Z</time></trkpt><trkpt lat="42.52862" lon="13.0858294"><ele>779.0000000000001</ele><time>2026-04-26T08:47:12.758Z</time></trkpt><trkpt lat="42.528616" lon="13.0857377"><ele>779.0</ele><time>2026-04-26T08:47:13.758Z</time></trkpt><trkpt lat="42.5286071" lon="13.0856035"><ele>780.0000000000001</ele><time>2026-04-26T08:47:15.757Z</time></trkpt><trkpt lat="42.5285734" lon="13.0855107"><ele>781.0</ele><time>2026-04-26T08:48:20.758Z</time></trkpt><trkpt lat="42.5285424" lon="13.0854079"><ele>782.0</ele><time>2026-04-26T08:48:21.758Z</time></trkpt><trkpt lat="42.5285243" lon="13.0853078"><ele>783.0</ele><time>2026-04-26T08:48:22.756Z</time></trkpt><trkpt lat="42.528512" lon="13.0851934"><ele>784.0000000000001</ele><time>2026-04-26T08:48:23.757Z</time></trkpt><trkpt lat="42.5285015" lon="13.085075"><ele>785.0</ele><time>2026-04-26T08:48:24.757Z</time></trkpt><trkpt lat="42.528496" lon="13.0849512"><ele>784.8</ele><time>2026-04-26T08:48:25.757Z</time></trkpt><trkpt lat="42.528531" lon="13.0848406"><ele>784.6</ele><time>2026-04-26T08:48:26.758Z</time></trkpt><trkpt lat="42.5285918" lon="13.0847315"><ele>784.4000000000001</ele><time>2026-04-26T08:48:27.758Z</time></trkpt><trkpt lat="42.5286651" lon="13.084629"><ele>784.2</ele><time>2026-04-26T08:48:28.758Z</time></trkpt><trkpt lat="42.5287493" lon="13.0845342"><ele>784.0</ele><time>2026-04-26T08:48:29.756Z</time></trkpt><trkpt lat="42.5288554" lon="13.0844461"><ele>785.25</ele><time>2026-04-26T08:48:30.756Z</time></trkpt><trkpt lat="42.5289758" lon="13.0843633"><ele>786.5</ele><time>2026-04-26T08:48:31.758Z</time></trkpt><trkpt lat="42.5291049" lon="13.0842867"><ele>787.75</ele><time>2026-04-26T08:48:32.758Z</time></trkpt><trkpt lat="42.5292437" lon="13.0842333"><ele>789.0</ele><time>2026-04-26T08:48:33.756Z</time></trkpt><trkpt lat="42.5293854" lon="13.0842025"><ele>789.0</ele><time>2026-04-26T08:48:34.756Z</time></trkpt><trkpt lat="42.5295371" lon="13.0841744"><ele>789.0</ele><time>2026-04-26T08:48:35.758Z</time></trkpt><trkpt lat="42.5296987" lon="13.0841148"><ele>789.0</ele><time>2026-04-26T08:48:36.757Z</time></trkpt><trkpt lat="42.5298612" lon="13.0840227"><ele>792.3333333333333</ele><time>2026-04-26T08:48:37.758Z</time></trkpt><trkpt lat="42.5300084" lon="13.0839078"><ele>795.6666666666666</ele><time>2026-04-26T08:48:38.758Z</time></trkpt><trkpt lat="42.5301409" lon="13.0837649"><ele>799.0</ele><time>2026-04-26T08:48:39.756Z</time></trkpt><trkpt lat="42.5302538" lon="13.0835991"><ele>799.0</ele><time>2026-04-26T08:48:40.756Z</time></trkpt><trkpt lat="42.5303485" lon="13.0834195"><ele>799.0</ele><time>2026-04-26T08:48:41.758Z</time></trkpt><trkpt lat="42.5304229" lon="13.0832322"><ele>799.0</ele><time>2026-04-26T08:48:42.757Z</time></trkpt><trkpt lat="42.5304852" lon="13.0830591"><ele>803.0</ele><time>2026-04-26T08:48:43.757Z</time></trkpt><trkpt lat="42.5305404" lon="13.0829011"><ele>807.0</ele><time>2026-04-26T08:48:44.758Z</time></trkpt><trkpt lat="42.5305866" lon="13.0827524"><ele>811.0</ele><time>2026-04-26T08:48:45.756Z</time></trkpt><trkpt lat="42.5305921" lon="13.0826022"><ele>815.0</ele><time>2026-04-26T08:48:46.757Z</time></trkpt><trkpt lat="42.5305528" lon="13.082448"><ele>815.25</ele><time>2026-04-26T08:48:47.758Z</time></trkpt><trkpt lat="42.5304986" lon="13.0823105"><ele>815.5</ele><time>2026-04-26T08:48:48.758Z</time></trkpt><trkpt lat="42.5304184" lon="13.0822007"><ele>815.75</ele><time>2026-04-26T08:48:49.756Z</time></trkpt><trkpt lat="42.5303057" lon="13.0821363"><ele>816.0</ele><time>2026-04-26T08:48:50.757Z</time></trkpt><trkpt lat="42.5301813" lon="13.0821375"><ele>816.25</ele><time>2026-04-26T08:48:51.756Z</time></trkpt><trkpt lat="42.5300565" lon="13.0821632"><ele>816.5</ele><time>2026-04-26T08:48:52.757Z</time></trkpt><trkpt lat="42.5299335" lon="13.082194"><ele>816.75</ele><time>2026-04-26T08:48:53.757Z</time></trkpt><trkpt lat="42.5298127" lon="13.0822055"><ele>817.0</ele><time>2026-04-26T08:48:54.756Z</time></trkpt><trkpt lat="42.5296965" lon="13.0821903"><ele>817.0</ele><time>2026-04-26T08:48:55.757Z</time></trkpt><trkpt lat="42.5295761" lon="13.0821447"><ele>817.0</ele><time>2026-04-26T08:48:56.758Z</time></trkpt><trkpt lat="42.5294614" lon="13.0820673"><ele>817.0</ele><time>2026-04-26T08:48:57.757Z</time></trkpt><trkpt lat="42.5293547" lon="13.0819962"><ele>817.0</ele><time>2026-04-26T08:48:58.758Z</time></trkpt><trkpt lat="42.529258" lon="13.081928"><ele>816.4000000000001</ele><time>2026-04-26T08:48:59.757Z</time></trkpt><trkpt lat="42.5291633" lon="13.0818579"><ele>815.8000000000001</ele><time>2026-04-26T08:49:00.758Z</time></trkpt><trkpt lat="42.5290789" lon="13.0817789"><ele>815.2</ele><time>2026-04-26T08:49:01.758Z</time></trkpt><trkpt lat="42.5290046" lon="13.0816931"><ele>814.6</ele><time>2026-04-26T08:49:02.756Z</time></trkpt><trkpt lat="42.5289459" lon="13.0815965"><ele>814.0</ele><time>2026-04-26T08:49:03.757Z</time></trkpt><trkpt lat="42.5289119" lon="13.0814896"><ele>815.4000000000001</ele><time>2026-04-26T08:49:04.758Z</time></trkpt><trkpt lat="42.5288969" lon="13.0813677"><ele>816.8</ele><time>2026-04-26T08:49:05.758Z</time></trkpt><trkpt lat="42.5288949" lon="13.0812248"><ele>818.2</ele><time>2026-04-26T08:49:06.757Z</time></trkpt><trkpt lat="42.5289008" lon="13.0810728"><ele>819.5999999999999</ele><time>2026-04-26T08:49:07.756Z</time></trkpt><trkpt lat="42.5289149" lon="13.0809327"><ele>821.0</ele><time>2026-04-26T08:49:08.757Z</time></trkpt><trkpt lat="42.5289336" lon="13.0808005"><ele>820.0</ele><time>2026-04-26T08:49:09.757Z</time></trkpt><trkpt lat="42.5289555" lon="13.0806738"><ele>819.0</ele><time>2026-04-26T08:49:10.757Z</time></trkpt><trkpt lat="42.5289753" lon="13.0805512"><ele>818.0</ele><time>2026-04-26T08:49:11.757Z</time></trkpt><trkpt lat="42.5289985" lon="13.0804385"><ele>817.0</ele><time>2026-04-26T08:49:12.758Z</time></trkpt><trkpt lat="42.5290343" lon="13.0803143"><ele>816.0</ele><time>2026-04-26T08:49:13.758Z</time></trkpt><trkpt lat="42.529085" lon="13.0801908"><ele>816.0</ele><time>2026-04-26T08:49:14.757Z</time></trkpt><trkpt lat="42.5291418" lon="13.0800808"><ele>816.0</ele><time>2026-04-26T08:49:15.757Z</time></trkpt><trkpt lat="42.5291962" lon="13.0799812"><ele>816.0</ele><time>2026-04-26T08:49:16.757Z</time></trkpt><trkpt lat="42.5292455" lon="13.079881"><ele>816.0</ele><time>2026-04-26T08:49:17.757Z</time></trkpt><trkpt lat="42.5292972" lon="13.0797835"><ele>816.0</ele><time>2026-04-26T08:49:18.757Z</time></trkpt><trkpt lat="42.52936" lon="13.0796922"><ele>816.1999999999999</ele><time>2026-04-26T08:49:19.756Z</time></trkpt><trkpt lat="42.5294328" lon="13.0796104"><ele>816.4</ele><time>2026-04-26T08:49:20.756Z</time></trkpt><trkpt lat="42.5295304" lon="13.07955"><ele>816.6</ele><time>2026-04-26T08:49:21.756Z</time></trkpt><trkpt lat="42.5296434" lon="13.0795146"><ele>816.8</ele><time>2026-04-26T08:49:22.756Z</time></trkpt><trkpt lat="42.5297676" lon="13.0794754"><ele>817.0</ele><time>2026-04-26T08:49:23.756Z</time></trkpt><trkpt lat="42.5298888" lon="13.0794075"><ele>817.0</ele><time>2026-04-26T08:49:24.756Z</time></trkpt><trkpt lat="42.5299999" lon="13.0793245"><ele>817.0</ele><time>2026-04-26T08:49:25.757Z</time></trkpt><trkpt lat="42.5300997" lon="13.0792412"><ele>817.0</ele><time>2026-04-26T08:49:26.757Z</time></trkpt><trkpt lat="42.5302051" lon="13.0791837"><ele>817.0</ele><time>2026-04-26T08:49:27.757Z</time></trkpt><trkpt lat="42.5303232" lon="13.0791636"><ele>818.6</ele><time>2026-04-26T08:49:28.757Z</time></trkpt><trkpt lat="42.530438" lon="13.079179"><ele>820.2</ele><time>2026-04-26T08:49:29.757Z</time></trkpt><trkpt lat="42.530543" lon="13.0792024"><ele>821.8</ele><time>2026-04-26T08:49:30.757Z</time></trkpt><trkpt lat="42.5306497" lon="13.0791949"><ele>823.4</ele><time>2026-04-26T08:49:31.757Z</time></trkpt><trkpt lat="42.5307578" lon="13.0791372"><ele>825.0</ele><time>2026-04-26T08:49:32.757Z</time></trkpt><trkpt lat="42.5308343" lon="13.0790295"><ele>825.0</ele><time>2026-04-26T08:49:33.756Z</time></trkpt><trkpt lat="42.5308688" lon="13.0788929"><ele>825.0</ele><time>2026-04-26T08:49:34.755Z</time></trkpt><trkpt lat="42.530898" lon="13.0787514"><ele>825.0</ele><time>2026-04-26T08:49:35.756Z</time></trkpt><trkpt lat="42.5309693" lon="13.0786107"><ele>825.0</ele><time>2026-04-26T08:49:36.756Z</time></trkpt><trkpt lat="42.5310709" lon="13.078477"><ele>825.0</ele><time>2026-04-26T08:49:37.755Z</time></trkpt><trkpt lat="42.5311815" lon="13.0783481"><ele>825.0</ele><time>2026-04-26T08:49:38.756Z</time></trkpt><trkpt lat="42.5313006" lon="13.0782212"><ele>825.0</ele><time>2026-04-26T08:49:39.756Z</time></trkpt><trkpt lat="42.5314211" lon="13.0780952"><ele>825.0</ele><time>2026-04-26T08:49:40.756Z</time></trkpt><trkpt lat="42.5315359" lon="13.0779533"><ele>828.25</ele><time>2026-04-26T08:49:41.755Z</time></trkpt><trkpt lat="42.5316247" lon="13.0777951"><ele>831.5</ele><time>2026-04-26T08:49:42.756Z</time></trkpt><trkpt lat="42.5317142" lon="13.0776719"><ele>834.75</ele><time>2026-04-26T08:49:43.756Z</time></trkpt><trkpt lat="42.5318188" lon="13.0775918"><ele>838.0</ele><time>2026-04-26T08:49:44.755Z</time></trkpt><trkpt lat="42.5319382" lon="13.077571"><ele>841.25</ele><time>2026-04-26T08:49:45.755Z</time></trkpt><trkpt lat="42.5320725" lon="13.0775882"><ele>844.5</ele><time>2026-04-26T08:49:46.755Z</time></trkpt><trkpt lat="42.5322177" lon="13.0775833"><ele>847.75</ele><time>2026-04-26T08:49:47.757Z</time></trkpt><trkpt lat="42.5323598" lon="13.0775603"><ele>851.0</ele><time>2026-04-26T08:49:48.757Z</time></trkpt><trkpt lat="42.5324866" lon="13.0775332"><ele>851.0000000000001</ele><time>2026-04-26T08:49:49.757Z</time></trkpt><trkpt lat="42.5325938" lon="13.0775041"><ele>851.0</ele><time>2026-04-26T08:49:50.755Z</time></trkpt><trkpt lat="42.5326814" lon="13.0774611"><ele>851.0</ele><time>2026-04-26T08:49:51.755Z</time></trkpt><trkpt lat="42.5327442" lon="13.0773861"><ele>851.0</ele><time>2026-04-26T08:49:52.756Z</time></trkpt><trkpt lat="42.5327651" lon="13.077293"><ele>851.0000000000001</ele><time>2026-04-26T08:49:53.756Z</time></trkpt><trkpt lat="42.5327377" lon="13.0771972"><ele>851.0</ele><time>2026-04-26T08:49:54.757Z</time></trkpt><trkpt lat="42.5326695" lon="13.0771205"><ele>852.25</ele><time>2026-04-26T08:49:55.757Z</time></trkpt><trkpt lat="42.5325745" lon="13.0770309"><ele>853.5</ele><time>2026-04-26T08:49:56.757Z</time></trkpt><trkpt lat="42.5324798" lon="13.0768856"><ele>854.75</ele><time>2026-04-26T08:49:57.757Z</time></trkpt><trkpt lat="42.5324086" lon="13.0767042"><ele>856.0</ele><time>2026-04-26T08:49:58.756Z</time></trkpt><trkpt lat="42.5323569" lon="13.0765374"><ele>857.5</ele><time>2026-04-26T08:49:59.757Z</time></trkpt><trkpt lat="42.5323061" lon="13.0763691"><ele>859.0</ele><time>2026-04-26T08:50:00.756Z</time></trkpt><trkpt lat="42.5322785" lon="13.0761897"><ele>860.5</ele><time>2026-04-26T08:50:01.757Z</time></trkpt><trkpt lat="42.5322907" lon="13.0759967"><ele>862.0</ele><time>2026-04-26T08:50:02.757Z</time></trkpt><trkpt lat="42.5323286" lon="13.0757902"><ele>861.0</ele><time>2026-04-26T08:50:03.756Z</time></trkpt><trkpt lat="42.5323504" lon="13.0755907"><ele>860.0</ele><time>2026-04-26T08:50:04.757Z</time></trkpt><trkpt lat="42.53238" lon="13.0754114"><ele>859.0</ele><time>2026-04-26T08:50:05.757Z</time></trkpt><trkpt lat="42.5324523" lon="13.0752327"><ele>858.0</ele><time>2026-04-26T08:50:06.756Z</time></trkpt><trkpt lat="42.532538" lon="13.0750556"><ele>858.6666666666667</ele><time>2026-04-26T08:50:07.756Z</time></trkpt><trkpt lat="42.532614" lon="13.0748659"><ele>859.3333333333334</ele><time>2026-04-26T08:50:08.756Z</time></trkpt><trkpt lat="42.532682" lon="13.0746869"><ele>860.0</ele><time>2026-04-26T08:50:09.757Z</time></trkpt><trkpt lat="42.5327603" lon="13.0745209"><ele>860.0</ele><time>2026-04-26T08:50:10.756Z</time></trkpt><trkpt lat="42.5328544" lon="13.0743719"><ele>860.0</ele><time>2026-04-26T08:50:11.756Z</time></trkpt><trkpt lat="42.5329567" lon="13.0742646"><ele>860.0</ele><time>2026-04-26T08:50:12.755Z</time></trkpt><trkpt lat="42.5330514" lon="13.0741837"><ele>860.0</ele><time>2026-04-26T08:50:13.756Z</time></trkpt><trkpt lat="42.5331131" lon="13.07408"><ele>863.0</ele><time>2026-04-26T08:50:14.756Z</time></trkpt><trkpt lat="42.5331359" lon="13.0739505"><ele>866.0</ele><time>2026-04-26T08:50:15.757Z</time></trkpt><trkpt lat="42.5331279" lon="13.0738272"><ele>869.0</ele><time>2026-04-26T08:50:16.756Z</time></trkpt><trkpt lat="42.5330786" lon="13.0737387"><ele>872.0</ele><time>2026-04-26T08:50:17.756Z</time></trkpt><trkpt lat="42.5328839" lon="13.0736988"><ele>872.0</ele><time>2026-04-26T08:50:19.757Z</time></trkpt><trkpt lat="42.5327798" lon="13.0737089"><ele>872.0</ele><time>2026-04-26T08:50:20.757Z</time></trkpt><trkpt lat="42.5326833" lon="13.0736748"><ele>872.0</ele><time>2026-04-26T08:50:21.756Z</time></trkpt><trkpt lat="42.5326132" lon="13.0735989"><ele>872.0</ele><time>2026-04-26T08:50:22.756Z</time></trkpt><trkpt lat="42.5325788" lon="13.0734757"><ele>872.0</ele><time>2026-04-26T08:50:23.756Z</time></trkpt><trkpt lat="42.5325783" lon="13.0733075"><ele>875.6666666666667</ele><time>2026-04-26T08:50:24.757Z</time></trkpt><trkpt lat="42.532591" lon="13.0731047"><ele>879.3333333333333</ele><time>2026-04-26T08:50:25.757Z</time></trkpt><trkpt lat="42.5325862" lon="13.0728779"><ele>883.0</ele><time>2026-04-26T08:50:26.757Z</time></trkpt><trkpt lat="42.5325799" lon="13.0726327"><ele>886.0</ele><time>2026-04-26T08:50:27.755Z</time></trkpt><trkpt lat="42.5325749" lon="13.0723955"><ele>889.0</ele><time>2026-04-26T08:50:28.756Z</time></trkpt><trkpt lat="42.5325743" lon="13.0721746"><ele>892.0</ele><time>2026-04-26T08:50:29.755Z</time></trkpt><trkpt lat="42.5325754" lon="13.0719569"><ele>892.0</ele><time>2026-04-26T08:50:30.756Z</time></trkpt><trkpt lat="42.5325787" lon="13.0717527"><ele>892.0</ele><time>2026-04-26T08:50:31.756Z</time></trkpt><trkpt lat="42.5326031" lon="13.0715492"><ele>892.0</ele><time>2026-04-26T08:50:32.756Z</time></trkpt><trkpt lat="42.5326478" lon="13.0713696"><ele>892.0</ele><time>2026-04-26T08:50:33.755Z</time></trkpt><trkpt lat="42.5326928" lon="13.0712024"><ele>893.0</ele><time>2026-04-26T08:50:34.756Z</time></trkpt><trkpt lat="42.5327326" lon="13.0710506"><ele>894.0</ele><time>2026-04-26T08:50:35.756Z</time></trkpt><trkpt lat="42.5327533" lon="13.0709053"><ele>895.0</ele><time>2026-04-26T08:50:36.756Z</time></trkpt><trkpt lat="42.5327399" lon="13.0707726"><ele>896.0</ele><time>2026-04-26T08:50:37.757Z</time></trkpt><trkpt lat="42.5327013" lon="13.0706655"><ele>897.0</ele><time>2026-04-26T08:50:38.756Z</time></trkpt><trkpt lat="42.5326337" lon="13.0705897"><ele>902.25</ele><time>2026-04-26T08:50:39.757Z</time></trkpt><trkpt lat="42.5325413" lon="13.0705658"><ele>907.5</ele><time>2026-04-26T08:50:40.757Z</time></trkpt><trkpt lat="42.532432" lon="13.0705843"><ele>912.75</ele><time>2026-04-26T08:50:41.756Z</time></trkpt><trkpt lat="42.5323146" lon="13.0706551"><ele>918.0</ele><time>2026-04-26T08:50:42.756Z</time></trkpt><trkpt lat="42.5322042" lon="13.0707702"><ele>919.3333333333333</ele><time>2026-04-26T08:50:43.756Z</time></trkpt><trkpt lat="42.5321108" lon="13.0709355"><ele>920.6666666666666</ele><time>2026-04-26T08:50:44.756Z</time></trkpt><trkpt lat="42.5320242" lon="13.0711368"><ele>922.0</ele><time>2026-04-26T08:50:45.756Z</time></trkpt><trkpt lat="42.5319396" lon="13.0713465"><ele>922.0</ele><time>2026-04-26T08:50:46.755Z</time></trkpt><trkpt lat="42.5318523" lon="13.0715521"><ele>922.0</ele><time>2026-04-26T08:50:47.757Z</time></trkpt><trkpt lat="42.5317748" lon="13.0717485"><ele>922.0</ele><time>2026-04-26T08:50:48.756Z</time></trkpt><trkpt lat="42.5317121" lon="13.0719358"><ele>920.0</ele><time>2026-04-26T08:50:49.755Z</time></trkpt><trkpt lat="42.5316548" lon="13.072108"><ele>918.0</ele><time>2026-04-26T08:50:50.756Z</time></trkpt><trkpt lat="42.5315791" lon="13.0722586"><ele>916.0</ele><time>2026-04-26T08:50:51.757Z</time></trkpt><trkpt lat="42.5314868" lon="13.0723887"><ele>914.0</ele><time>2026-04-26T08:50:52.757Z</time></trkpt><trkpt lat="42.5313728" lon="13.0724812"><ele>915.75</ele><time>2026-04-26T08:50:53.757Z</time></trkpt><trkpt lat="42.5312434" lon="13.0725539"><ele>917.5</ele><time>2026-04-26T08:50:54.757Z</time></trkpt><trkpt lat="42.5310802" lon="13.0725214"><ele>919.25</ele><time>2026-04-26T08:50:55.756Z</time></trkpt><trkpt lat="42.5309533" lon="13.0725429"><ele>921.0</ele><time>2026-04-26T08:50:56.757Z</time></trkpt><trkpt lat="42.5308412" lon="13.0725708"><ele>921.0</ele><time>2026-04-26T08:50:57.756Z</time></trkpt><trkpt lat="42.530725" lon="13.0725953"><ele>921.0</ele><time>2026-04-26T08:50:58.756Z</time></trkpt><trkpt lat="42.5306921" lon="13.0727443"><ele>921.0</ele><time>2026-04-26T08:50:59.757Z</time></trkpt><trkpt lat="42.5306238" lon="13.0728298"><ele>921.0</ele><time>2026-04-26T08:51:00.757Z</time></trkpt><trkpt lat="42.5306916" lon="13.0730288"><ele>921.0</ele><time>2026-04-26T08:51:01.756Z</time></trkpt><trkpt lat="42.5307114" lon="13.0731631"><ele>920.9999999999999</ele><time>2026-04-26T08:51:02.755Z</time></trkpt><trkpt lat="42.5307129" lon="13.0733081"><ele>920.9999999999999</ele><time>2026-04-26T08:51:03.756Z</time></trkpt><trkpt lat="42.5306854" lon="13.0734213"><ele>921.0</ele><time>2026-04-26T08:51:04.755Z</time></trkpt><trkpt lat="42.5306009" lon="13.0734733"><ele>921.0</ele><time>2026-04-26T08:51:05.757Z</time></trkpt><trkpt lat="42.5304974" lon="13.0734835"><ele>922.75</ele><time>2026-04-26T08:51:06.757Z</time></trkpt><trkpt lat="42.5303711" lon="13.0734474"><ele>924.5</ele><time>2026-04-26T08:51:07.756Z</time></trkpt><trkpt lat="42.5302239" lon="13.0733887"><ele>926.25</ele><time>2026-04-26T08:51:08.755Z</time></trkpt><trkpt lat="42.5300869" lon="13.0733231"><ele>928.0</ele><time>2026-04-26T08:51:09.756Z</time></trkpt><trkpt lat="42.5299557" lon="13.073208"><ele>928.0</ele><time>2026-04-26T08:51:10.757Z</time></trkpt><trkpt lat="42.5298299" lon="13.073049"><ele>928.0</ele><time>2026-04-26T08:51:11.757Z</time></trkpt><trkpt lat="42.5296971" lon="13.0728795"><ele>928.0</ele><time>2026-04-26T08:51:12.757Z</time></trkpt><trkpt lat="42.5295561" lon="13.0727125"><ele>927.3333333333333</ele><time>2026-04-26T08:51:13.757Z</time></trkpt><trkpt lat="42.5294266" lon="13.0725585"><ele>926.6666666666667</ele><time>2026-04-26T08:51:14.757Z</time></trkpt><trkpt lat="42.5293046" lon="13.0724135"><ele>926.0</ele><time>2026-04-26T08:51:15.755Z</time></trkpt><trkpt lat="42.5291896" lon="13.0722913"><ele>926.0</ele><time>2026-04-26T08:51:16.756Z</time></trkpt><trkpt lat="42.5290762" lon="13.0722051"><ele>926.0</ele><time>2026-04-26T08:51:17.755Z</time></trkpt><trkpt lat="42.5289603" lon="13.0721174"><ele>926.0</ele><time>2026-04-26T08:51:18.755Z</time></trkpt><trkpt lat="42.528873" lon="13.0719891"><ele>926.0</ele><time>2026-04-26T08:51:19.755Z</time></trkpt><trkpt lat="42.5288037" lon="13.071826"><ele>926.0</ele><time>2026-04-26T08:51:20.756Z</time></trkpt><trkpt lat="42.5287609" lon="13.0716378"><ele>926.0</ele><time>2026-04-26T08:51:21.756Z</time></trkpt><trkpt lat="42.528735" lon="13.0714609"><ele>926.0</ele><time>2026-04-26T08:51:22.756Z</time></trkpt><trkpt lat="42.5287385" lon="13.0713074"><ele>926.0</ele><time>2026-04-26T08:51:23.756Z</time></trkpt><trkpt lat="42.5287762" lon="13.0711682"><ele>924.5</ele><time>2026-04-26T08:51:24.756Z</time></trkpt><trkpt lat="42.5288526" lon="13.0710633"><ele>923.0</ele><time>2026-04-26T08:51:25.755Z</time></trkpt><trkpt lat="42.5289673" lon="13.0709913"><ele>921.5</ele><time>2026-04-26T08:51:26.755Z</time></trkpt><trkpt lat="42.5291045" lon="13.0709621"><ele>920.0</ele><time>2026-04-26T08:51:27.755Z</time></trkpt><trkpt lat="42.5292673" lon="13.0709639"><ele>920.0</ele><time>2026-04-26T08:51:28.755Z</time></trkpt><trkpt lat="42.529436" lon="13.0709793"><ele>920.0</ele><time>2026-04-26T08:51:29.755Z</time></trkpt><trkpt lat="42.5295873" lon="13.0710024"><ele>920.0</ele><time>2026-04-26T08:51:30.756Z</time></trkpt><trkpt lat="42.5297309" lon="13.0710204"><ele>920.75</ele><time>2026-04-26T08:51:31.755Z</time></trkpt><trkpt lat="42.529858" lon="13.0709883"><ele>921.5</ele><time>2026-04-26T08:51:32.756Z</time></trkpt><trkpt lat="42.5299688" lon="13.0708934"><ele>922.25</ele><time>2026-04-26T08:51:33.755Z</time></trkpt><trkpt lat="42.5300772" lon="13.0707499"><ele>923.0</ele><time>2026-04-26T08:51:34.756Z</time></trkpt><trkpt lat="42.5302066" lon="13.0706123"><ele>923.0</ele><time>2026-04-26T08:51:35.755Z</time></trkpt><trkpt lat="42.5303524" lon="13.0704959"><ele>923.0</ele><time>2026-04-26T08:51:36.755Z</time></trkpt><trkpt lat="42.5304892" lon="13.0703844"><ele>923.0</ele><time>2026-04-26T08:51:37.756Z</time></trkpt><trkpt lat="42.5306015" lon="13.070273"><ele>926.0</ele><time>2026-04-26T08:51:38.756Z</time></trkpt><trkpt lat="42.530688" lon="13.0701391"><ele>929.0</ele><time>2026-04-26T08:51:39.757Z</time></trkpt><trkpt lat="42.5307649" lon="13.0699932"><ele>932.0</ele><time>2026-04-26T08:51:40.755Z</time></trkpt><trkpt lat="42.5307456" lon="13.069747"><ele>935.0</ele><time>2026-04-26T08:51:41.755Z</time></trkpt><trkpt lat="42.5307309" lon="13.0695263"><ele>939.6666666666667</ele><time>2026-04-26T08:51:42.755Z</time></trkpt><trkpt lat="42.5306841" lon="13.0693085"><ele>944.3333333333333</ele><time>2026-04-26T08:51:43.756Z</time></trkpt><trkpt lat="42.5306197" lon="13.0691139"><ele>949.0</ele><time>2026-04-26T08:51:44.755Z</time></trkpt><trkpt lat="42.5305471" lon="13.068954"><ele>952.5</ele><time>2026-04-26T08:51:45.755Z</time></trkpt><trkpt lat="42.5304385" lon="13.0688305"><ele>956.0</ele><time>2026-04-26T08:51:46.754Z</time></trkpt><trkpt lat="42.5303078" lon="13.0687635"><ele>959.5</ele><time>2026-04-26T08:51:47.755Z</time></trkpt><trkpt lat="42.5301598" lon="13.068755"><ele>963.0</ele><time>2026-04-26T08:51:48.754Z</time></trkpt><trkpt lat="42.5299985" lon="13.0687456"><ele>963.0</ele><time>2026-04-26T08:51:49.755Z</time></trkpt><trkpt lat="42.5298415" lon="13.0687023"><ele>963.0</ele><time>2026-04-26T08:51:50.755Z</time></trkpt><trkpt lat="42.5297022" lon="13.0686407"><ele>963.0</ele><time>2026-04-26T08:51:51.755Z</time></trkpt><trkpt lat="42.5295787" lon="13.0685536"><ele>963.0</ele><time>2026-04-26T08:51:52.755Z</time></trkpt><trkpt lat="42.5294808" lon="13.0684362"><ele>964.25</ele><time>2026-04-26T08:51:53.754Z</time></trkpt><trkpt lat="42.5293968" lon="13.0682818"><ele>965.5</ele><time>2026-04-26T08:51:54.754Z</time></trkpt><trkpt lat="42.529329" lon="13.0681004"><ele>966.75</ele><time>2026-04-26T08:51:55.754Z</time></trkpt><trkpt lat="42.5292731" lon="13.0679261"><ele>968.0</ele><time>2026-04-26T08:51:56.755Z</time></trkpt><trkpt lat="42.5292215" lon="13.0677636"><ele>968.0</ele><time>2026-04-26T08:51:57.755Z</time></trkpt><trkpt lat="42.52916" lon="13.0676318"><ele>968.0</ele><time>2026-04-26T08:51:58.755Z</time></trkpt><trkpt lat="42.529068" lon="13.0675446"><ele>968.0</ele><time>2026-04-26T08:51:59.756Z</time></trkpt><trkpt lat="42.5289533" lon="13.067507"><ele>968.0</ele><time>2026-04-26T08:52:00.755Z</time></trkpt><trkpt lat="42.5288196" lon="13.0675286"><ele>968.0</ele><time>2026-04-26T08:52:01.756Z</time></trkpt><trkpt lat="42.5287073" lon="13.0675399"><ele>968.0</ele><time>2026-04-26T08:52:02.756Z</time></trkpt><trkpt lat="42.5286019" lon="13.0675094"><ele>968.0</ele><time>2026-04-26T08:52:03.756Z</time></trkpt><trkpt lat="42.5285079" lon="13.0674305"><ele>968.0</ele><time>2026-04-26T08:52:04.756Z</time></trkpt><trkpt lat="42.5284262" lon="13.0673092"><ele>968.0</ele><time>2026-04-26T08:52:05.756Z</time></trkpt><trkpt lat="42.528357" lon="13.0671604"><ele>968.0</ele><time>2026-04-26T08:52:06.756Z</time></trkpt><trkpt lat="42.528305" lon="13.0670343"><ele>968.0</ele><time>2026-04-26T08:52:07.756Z</time></trkpt><trkpt lat="42.5282656" lon="13.0669334"><ele>968.0</ele><time>2026-04-26T08:52:08.756Z</time></trkpt><trkpt lat="42.5282481" lon="13.0668418"><ele>968.0</ele><time>2026-04-26T08:52:09.755Z</time></trkpt><trkpt lat="42.5282989" lon="13.0667103"><ele>968.0</ele><time>2026-04-26T08:52:11.754Z</time></trkpt><trkpt lat="42.5283762" lon="13.0667537"><ele>968.0</ele><time>2026-04-26T08:52:13.755Z</time></trkpt><trkpt lat="42.5284004" lon="13.0668498"><ele>968.0</ele><time>2026-04-26T08:52:14.755Z</time></trkpt><trkpt lat="42.528417" lon="13.0669853"><ele>968.0</ele><time>2026-04-26T08:52:15.755Z</time></trkpt><trkpt lat="42.5284476" lon="13.0671332"><ele>968.0</ele><time>2026-04-26T08:52:16.756Z</time></trkpt><trkpt lat="42.5285154" lon="13.0672473"><ele>968.0</ele><time>2026-04-26T08:52:17.755Z</time></trkpt><trkpt lat="42.5286155" lon="13.0673086"><ele>968.0</ele><time>2026-04-26T08:52:18.756Z</time></trkpt><trkpt lat="42.5287371" lon="13.0673051"><ele>968.0</ele><time>2026-04-26T08:52:19.756Z</time></trkpt><trkpt lat="42.5288641" lon="13.0672495"><ele>968.0</ele><time>2026-04-26T08:52:20.755Z</time></trkpt><trkpt lat="42.5289799" lon="13.067154"><ele>971.0</ele><time>2026-04-26T08:52:21.754Z</time></trkpt><trkpt lat="42.52906" lon="13.0670231"><ele>974.0</ele><time>2026-04-26T08:52:22.754Z</time></trkpt><trkpt lat="42.5291226" lon="13.066897"><ele>977.0</ele><time>2026-04-26T08:52:23.754Z</time></trkpt><trkpt lat="42.5292054" lon="13.0668158"><ele>980.0</ele><time>2026-04-26T08:52:24.755Z</time></trkpt><trkpt lat="42.5292894" lon="13.0668003"><ele>983.0</ele><time>2026-04-26T08:52:25.755Z</time></trkpt><trkpt lat="42.5293648" lon="13.0668485"><ele>983.0</ele><time>2026-04-26T08:52:26.755Z</time></trkpt><trkpt lat="42.5294116" lon="13.0669603"><ele>983.0</ele><time>2026-04-26T08:52:27.755Z</time></trkpt><trkpt lat="42.5294534" lon="13.0671177"><ele>983.0</ele><time>2026-04-26T08:52:28.756Z</time></trkpt><trkpt lat="42.5295082" lon="13.0672632"><ele>983.0</ele><time>2026-04-26T08:52:29.754Z</time></trkpt><trkpt lat="42.5295781" lon="13.067367"><ele>983.0</ele><time>2026-04-26T08:52:30.756Z</time></trkpt><trkpt lat="42.5296722" lon="13.0674191"><ele>983.5</ele><time>2026-04-26T08:52:31.755Z</time></trkpt><trkpt lat="42.5297674" lon="13.0674735"><ele>984.0</ele><time>2026-04-26T08:52:32.754Z</time></trkpt><trkpt lat="42.5298984" lon="13.0674613"><ele>984.5</ele><time>2026-04-26T08:52:33.754Z</time></trkpt><trkpt lat="42.5300062" lon="13.0672587"><ele>985.0</ele><time>2026-04-26T08:52:34.755Z</time></trkpt><trkpt lat="42.530133" lon="13.0672233"><ele>989.0</ele><time>2026-04-26T08:52:35.756Z</time></trkpt><trkpt lat="42.5302613" lon="13.0672249"><ele>993.0</ele><time>2026-04-26T08:52:36.755Z</time></trkpt><trkpt lat="42.5303829" lon="13.0672739"><ele>997.0</ele><time>2026-04-26T08:52:37.755Z</time></trkpt><trkpt lat="42.5304795" lon="13.0673778"><ele>1001.0</ele><time>2026-04-26T08:52:38.755Z</time></trkpt><trkpt lat="42.5305603" lon="13.067532"><ele>1001.0</ele><time>2026-04-26T08:52:39.754Z</time></trkpt><trkpt lat="42.5306281" lon="13.0676892"><ele>1001.0</ele><time>2026-04-26T08:52:40.756Z</time></trkpt><trkpt lat="42.5306994" lon="13.0678273"><ele>1001.0</ele><time>2026-04-26T08:52:41.756Z</time></trkpt><trkpt lat="42.5307883" lon="13.0679306"><ele>1001.0</ele><time>2026-04-26T08:52:42.754Z</time></trkpt><trkpt lat="42.530914" lon="13.0679921"><ele>1001.0000000000001</ele><time>2026-04-26T08:52:43.755Z</time></trkpt><trkpt lat="42.5310311" lon="13.0680076"><ele>1001.0</ele><time>2026-04-26T08:52:44.754Z</time></trkpt><trkpt lat="42.5311133" lon="13.0680065"><ele>1001.0</ele><time>2026-04-26T08:52:45.755Z</time></trkpt><trkpt lat="42.5311815" lon="13.067972"><ele>1001.0</ele><time>2026-04-26T08:52:46.754Z</time></trkpt><trkpt lat="42.5312454" lon="13.0679203"><ele>1001.0000000000001</ele><time>2026-04-26T08:52:47.754Z</time></trkpt><trkpt lat="42.5311817" lon="13.0678159"><ele>1001.0</ele><time>2026-04-26T08:52:48.756Z</time></trkpt><trkpt lat="42.5311261" lon="13.0677576"><ele>1001.0</ele><time>2026-04-26T08:52:49.755Z</time></trkpt><trkpt lat="42.5310337" lon="13.0677226"><ele>1000.9999999999999</ele><time>2026-04-26T08:52:50.755Z</time></trkpt><trkpt lat="42.530937" lon="13.0676695"><ele>1000.9999999999999</ele><time>2026-04-26T08:52:51.755Z</time></trkpt><trkpt lat="42.5308504" lon="13.0675739"><ele>1001.0</ele><time>2026-04-26T08:52:52.756Z</time></trkpt><trkpt lat="42.5307841" lon="13.0674265"><ele>1001.0</ele><time>2026-04-26T08:52:53.756Z</time></trkpt><trkpt lat="42.5307268" lon="13.067256"><ele>1001.25</ele><time>2026-04-26T08:52:54.756Z</time></trkpt><trkpt lat="42.5306569" lon="13.0670763"><ele>1001.5</ele><time>2026-04-26T08:52:55.755Z</time></trkpt><trkpt lat="42.5305558" lon="13.0669383"><ele>1001.75</ele><time>2026-04-26T08:52:56.756Z</time></trkpt><trkpt lat="42.5304366" lon="13.0668518"><ele>1002.0</ele><time>2026-04-26T08:52:57.756Z</time></trkpt><trkpt lat="42.5303227" lon="13.0667764"><ele>1002.0</ele><time>2026-04-26T08:52:58.755Z</time></trkpt><trkpt lat="42.5302327" lon="13.0666652"><ele>1002.0</ele><time>2026-04-26T08:52:59.756Z</time></trkpt><trkpt lat="42.5301791" lon="13.0665173"><ele>1002.0</ele><time>2026-04-26T08:53:00.755Z</time></trkpt><trkpt lat="42.5301436" lon="13.0663393"><ele>1002.0</ele><time>2026-04-26T08:53:01.756Z</time></trkpt><trkpt lat="42.5300869" lon="13.0661493"><ele>1006.0</ele><time>2026-04-26T08:53:02.756Z</time></trkpt><trkpt lat="42.5299978" lon="13.0659601"><ele>1010.0</ele><time>2026-04-26T08:53:03.756Z</time></trkpt><trkpt lat="42.5298968" lon="13.0657719"><ele>1014.0</ele><time>2026-04-26T08:53:04.756Z</time></trkpt><trkpt lat="42.5298058" lon="13.0655692"><ele>1016.0</ele><time>2026-04-26T08:53:05.756Z</time></trkpt><trkpt lat="42.5297316" lon="13.0653592"><ele>1018.0</ele><time>2026-04-26T08:53:06.755Z</time></trkpt><trkpt lat="42.5296701" lon="13.0651527"><ele>1020.0</ele><time>2026-04-26T08:53:07.755Z</time></trkpt><trkpt lat="42.5295884" lon="13.0649543"><ele>1020.6666666666667</ele><time>2026-04-26T08:53:08.755Z</time></trkpt><trkpt lat="42.5294742" lon="13.0647768"><ele>1021.3333333333334</ele><time>2026-04-26T08:53:09.756Z</time></trkpt><trkpt lat="42.5293359" lon="13.0646315"><ele>1022.0</ele><time>2026-04-26T08:53:10.756Z</time></trkpt><trkpt lat="42.5291937" lon="13.0645167"><ele>1022.0</ele><time>2026-04-26T08:53:11.754Z</time></trkpt><trkpt lat="42.529059" lon="13.0644203"><ele>1022.0</ele><time>2026-04-26T08:53:12.755Z</time></trkpt><trkpt lat="42.5289395" lon="13.0643172"><ele>1022.0</ele><time>2026-04-26T08:53:13.755Z</time></trkpt><trkpt lat="42.5288391" lon="13.0641879"><ele>1022.0</ele><time>2026-04-26T08:53:14.755Z</time></trkpt><trkpt lat="42.5287648" lon="13.0640379"><ele>1022.75</ele><time>2026-04-26T08:53:15.755Z</time></trkpt><trkpt lat="42.5287257" lon="13.0638624"><ele>1023.5</ele><time>2026-04-26T08:53:16.755Z</time></trkpt><trkpt lat="42.5287267" lon="13.0636744"><ele>1024.25</ele><time>2026-04-26T08:53:17.754Z</time></trkpt><trkpt lat="42.528752" lon="13.0634725"><ele>1025.0</ele><time>2026-04-26T08:53:18.755Z</time></trkpt><trkpt lat="42.5288078" lon="13.0632662"><ele>1025.0</ele><time>2026-04-26T08:53:19.755Z</time></trkpt><trkpt lat="42.5288911" lon="13.0630473"><ele>1025.0</ele><time>2026-04-26T08:53:20.755Z</time></trkpt><trkpt lat="42.5289932" lon="13.0628397"><ele>1025.0</ele><time>2026-04-26T08:53:21.755Z</time></trkpt><trkpt lat="42.5291176" lon="13.0626519"><ele>1025.0</ele><time>2026-04-26T08:53:22.754Z</time></trkpt><trkpt lat="42.5292591" lon="13.062491"><ele>1025.0</ele><time>2026-04-26T08:53:23.755Z</time></trkpt><trkpt lat="42.5294195" lon="13.062356"><ele>1025.0</ele><time>2026-04-26T08:53:24.756Z</time></trkpt><trkpt lat="42.529598" lon="13.0622712"><ele>1026.0</ele><time>2026-04-26T08:53:25.754Z</time></trkpt><trkpt lat="42.5297698" lon="13.0622313"><ele>1027.0</ele><time>2026-04-26T08:53:26.754Z</time></trkpt><trkpt lat="42.5299156" lon="13.0622067"><ele>1028.0</ele><time>2026-04-26T08:53:27.756Z</time></trkpt><trkpt lat="42.5300346" lon="13.0621736"><ele>1029.0</ele><time>2026-04-26T08:53:28.756Z</time></trkpt><trkpt lat="42.5301418" lon="13.0620873"><ele>1029.0</ele><time>2026-04-26T08:53:29.755Z</time></trkpt><trkpt lat="42.5302486" lon="13.061996"><ele>1029.0</ele><time>2026-04-26T08:53:30.756Z</time></trkpt><trkpt lat="42.5303019" lon="13.0618255"><ele>1029.0</ele><time>2026-04-26T08:53:31.755Z</time></trkpt><trkpt lat="42.5304035" lon="13.0617415"><ele>1029.0</ele><time>2026-04-26T08:53:32.756Z</time></trkpt><trkpt lat="42.5305208" lon="13.0616971"><ele>1032.0</ele><time>2026-04-26T08:53:33.755Z</time></trkpt><trkpt lat="42.5306622" lon="13.0616807"><ele>1035.0</ele><time>2026-04-26T08:53:34.755Z</time></trkpt><trkpt lat="42.5307855" lon="13.061657"><ele>1038.0</ele><time>2026-04-26T08:53:35.754Z</time></trkpt><trkpt lat="42.5308969" lon="13.0616208"><ele>1041.0</ele><time>2026-04-26T08:53:36.755Z</time></trkpt><trkpt lat="42.5309879" lon="13.0615569"><ele>1041.3999999999999</ele><time>2026-04-26T08:53:37.756Z</time></trkpt><trkpt lat="42.5310501" lon="13.0614509"><ele>1041.8</ele><time>2026-04-26T08:53:38.756Z</time></trkpt><trkpt lat="42.5310693" lon="13.0613202"><ele>1042.1999999999998</ele><time>2026-04-26T08:53:39.755Z</time></trkpt><trkpt lat="42.531033" lon="13.0611947"><ele>1042.6</ele><time>2026-04-26T08:53:40.754Z</time></trkpt><trkpt lat="42.5309446" lon="13.0610801"><ele>1043.0</ele><time>2026-04-26T08:53:41.754Z</time></trkpt><trkpt lat="42.5308245" lon="13.0609921"><ele>1043.0</ele><time>2026-04-26T08:53:42.755Z</time></trkpt><trkpt lat="42.5306983" lon="13.0609147"><ele>1043.0</ele><time>2026-04-26T08:53:43.755Z</time></trkpt><trkpt lat="42.5305951" lon="13.0608273"><ele>1043.0</ele><time>2026-04-26T08:53:44.755Z</time></trkpt><trkpt lat="42.5305217" lon="13.0607262"><ele>1043.0</ele><time>2026-04-26T08:53:45.754Z</time></trkpt><trkpt lat="42.5304894" lon="13.060609"><ele>1044.25</ele><time>2026-04-26T08:53:46.755Z</time></trkpt><trkpt lat="42.5304947" lon="13.0604852"><ele>1045.5</ele><time>2026-04-26T08:53:47.756Z</time></trkpt><trkpt lat="42.5305516" lon="13.0603634"><ele>1046.75</ele><time>2026-04-26T08:53:48.755Z</time></trkpt><trkpt lat="42.5306464" lon="13.0602482"><ele>1048.0</ele><time>2026-04-26T08:53:49.755Z</time></trkpt><trkpt lat="42.5307268" lon="13.0600973"><ele>1050.5</ele><time>2026-04-26T08:53:50.755Z</time></trkpt><trkpt lat="42.5307795" lon="13.0599227"><ele>1053.0</ele><time>2026-04-26T08:53:51.754Z</time></trkpt><trkpt lat="42.5307909" lon="13.0597266"><ele>1055.5</ele><time>2026-04-26T08:53:52.755Z</time></trkpt><trkpt lat="42.5307652" lon="13.0595501"><ele>1058.0</ele><time>2026-04-26T08:53:53.756Z</time></trkpt><trkpt lat="42.5307087" lon="13.0593998"><ele>1058.0</ele><time>2026-04-26T08:53:54.754Z</time></trkpt><trkpt lat="42.5306173" lon="13.0592949"><ele>1058.0</ele><time>2026-04-26T08:53:55.756Z</time></trkpt><trkpt lat="42.5304905" lon="13.0592444"><ele>1058.0</ele><time>2026-04-26T08:53:56.756Z</time></trkpt><trkpt lat="42.530366" lon="13.0592135"><ele>1058.0</ele><time>2026-04-26T08:53:57.755Z</time></trkpt><trkpt lat="42.530246" lon="13.0591447"><ele>1054.25</ele><time>2026-04-26T08:53:58.755Z</time></trkpt><trkpt lat="42.5301514" lon="13.0590463"><ele>1050.5</ele><time>2026-04-26T08:53:59.755Z</time></trkpt><trkpt lat="42.5300815" lon="13.0589026"><ele>1046.75</ele><time>2026-04-26T08:54:00.755Z</time></trkpt><trkpt lat="42.5300531" lon="13.0587457"><ele>1043.0</ele><time>2026-04-26T08:54:01.756Z</time></trkpt><trkpt lat="42.5300645" lon="13.0586077"><ele>1043.0</ele><time>2026-04-26T08:54:02.754Z</time></trkpt><trkpt lat="42.5301189" lon="13.0584846"><ele>1043.0</ele><time>2026-04-26T08:54:03.756Z</time></trkpt><trkpt lat="42.5301977" lon="13.0583747"><ele>1043.0</ele><time>2026-04-26T08:54:04.755Z</time></trkpt><trkpt lat="42.5302445" lon="13.0582306"><ele>1043.0</ele><time>2026-04-26T08:54:05.755Z</time></trkpt><trkpt lat="42.5302508" lon="13.0580748"><ele>1043.75</ele><time>2026-04-26T08:54:06.755Z</time></trkpt><trkpt lat="42.530212" lon="13.0579223"><ele>1044.5</ele><time>2026-04-26T08:54:07.756Z</time></trkpt><trkpt lat="42.5301377" lon="13.0578061"><ele>1045.25</ele><time>2026-04-26T08:54:08.755Z</time></trkpt><trkpt lat="42.5300312" lon="13.0577431"><ele>1046.0</ele><time>2026-04-26T08:54:09.753Z</time></trkpt><trkpt lat="42.5299104" lon="13.0577363"><ele>1046.0</ele><time>2026-04-26T08:54:10.754Z</time></trkpt><trkpt lat="42.5297978" lon="13.0577253"><ele>1046.0</ele><time>2026-04-26T08:54:11.754Z</time></trkpt><trkpt lat="42.5296957" lon="13.0576841"><ele>1046.0</ele><time>2026-04-26T08:54:12.754Z</time></trkpt><trkpt lat="42.529628" lon="13.0576084"><ele>1046.0</ele><time>2026-04-26T08:54:13.754Z</time></trkpt><trkpt lat="42.5295972" lon="13.0575018"><ele>1046.0</ele><time>2026-04-26T08:54:14.753Z</time></trkpt><trkpt lat="42.5296117" lon="13.0573827"><ele>1045.6</ele><time>2026-04-26T08:54:15.755Z</time></trkpt><trkpt lat="42.5296741" lon="13.0572872"><ele>1045.1999999999998</ele><time>2026-04-26T08:54:16.754Z</time></trkpt><trkpt lat="42.5297681" lon="13.0572391"><ele>1044.8000000000002</ele><time>2026-04-26T08:54:17.754Z</time></trkpt><trkpt lat="42.5298754" lon="13.0571782"><ele>1044.4</ele><time>2026-04-26T08:54:18.754Z</time></trkpt><trkpt lat="42.5299589" lon="13.057063"><ele>1044.0</ele><time>2026-04-26T08:54:19.753Z</time></trkpt><trkpt lat="42.5300261" lon="13.0569309"><ele>1044.0</ele><time>2026-04-26T08:54:20.754Z</time></trkpt><trkpt lat="42.5300051" lon="13.0567023"><ele>1044.0</ele><time>2026-04-26T08:54:21.755Z</time></trkpt><trkpt lat="42.5300197" lon="13.0564868"><ele>1044.0</ele><time>2026-04-26T08:54:22.755Z</time></trkpt><trkpt lat="42.5300723" lon="13.0562464"><ele>1044.3333333333333</ele><time>2026-04-26T08:54:23.753Z</time></trkpt><trkpt lat="42.5301463" lon="13.0560003"><ele>1044.6666666666665</ele><time>2026-04-26T08:54:24.754Z</time></trkpt><trkpt lat="42.5302272" lon="13.0557464"><ele>1045.0</ele><time>2026-04-26T08:54:25.753Z</time></trkpt><trkpt lat="42.5302974" lon="13.055501"><ele>1045.6666666666665</ele><time>2026-04-26T08:54:26.753Z</time></trkpt><trkpt lat="42.530365" lon="13.0552626"><ele>1046.3333333333333</ele><time>2026-04-26T08:54:27.755Z</time></trkpt><trkpt lat="42.5304336" lon="13.0550427"><ele>1047.0</ele><time>2026-04-26T08:54:28.753Z</time></trkpt><trkpt lat="42.5304969" lon="13.0548136"><ele>1048.3333333333333</ele><time>2026-04-26T08:54:29.754Z</time></trkpt><trkpt lat="42.5305634" lon="13.0546051"><ele>1049.6666666666665</ele><time>2026-04-26T08:54:30.754Z</time></trkpt><trkpt lat="42.5306316" lon="13.0544053"><ele>1051.0</ele><time>2026-04-26T08:54:31.755Z</time></trkpt><trkpt lat="42.5307125" lon="13.0542225"><ele>1051.6666666666665</ele><time>2026-04-26T08:54:32.755Z</time></trkpt><trkpt lat="42.5308046" lon="13.0540466"><ele>1052.3333333333333</ele><time>2026-04-26T08:54:33.755Z</time></trkpt><trkpt lat="42.5308966" lon="13.0538745"><ele>1053.0</ele><time>2026-04-26T08:54:34.753Z</time></trkpt><trkpt lat="42.530987" lon="13.0537067"><ele>1053.0</ele><time>2026-04-26T08:54:35.754Z</time></trkpt><trkpt lat="42.5310759" lon="13.0535384"><ele>1053.0</ele><time>2026-04-26T08:54:36.754Z</time></trkpt><trkpt lat="42.5311629" lon="13.0533728"><ele>1053.0</ele><time>2026-04-26T08:54:37.754Z</time></trkpt><trkpt lat="42.5312498" lon="13.0532049"><ele>1053.5</ele><time>2026-04-26T08:54:38.753Z</time></trkpt><trkpt lat="42.5313367" lon="13.0530444"><ele>1054.0</ele><time>2026-04-26T08:54:39.753Z</time></trkpt><trkpt lat="42.5314218" lon="13.0528844"><ele>1054.5</ele><time>2026-04-26T08:54:40.754Z</time></trkpt><trkpt lat="42.5315048" lon="13.0527269"><ele>1055.0</ele><time>2026-04-26T08:54:41.754Z</time></trkpt><trkpt lat="42.5315883" lon="13.0525734"><ele>1054.5</ele><time>2026-04-26T08:54:42.755Z</time></trkpt><trkpt lat="42.5316706" lon="13.052418"><ele>1054.0</ele><time>2026-04-26T08:54:43.755Z</time></trkpt><trkpt lat="42.5317531" lon="13.0522638"><ele>1053.5</ele><time>2026-04-26T08:54:44.754Z</time></trkpt><trkpt lat="42.5318356" lon="13.0521153"><ele>1053.0</ele><time>2026-04-26T08:54:45.754Z</time></trkpt><trkpt lat="42.5319202" lon="13.0519622"><ele>1053.0</ele><time>2026-04-26T08:54:46.755Z</time></trkpt><trkpt lat="42.5320032" lon="13.0518145"><ele>1053.0</ele><time>2026-04-26T08:54:47.754Z</time></trkpt><trkpt lat="42.5320872" lon="13.0516598"><ele>1053.0</ele><time>2026-04-26T08:54:48.754Z</time></trkpt><trkpt lat="42.5321701" lon="13.0515021"><ele>1053.0</ele><time>2026-04-26T08:54:49.753Z</time></trkpt><trkpt lat="42.532262" lon="13.0513311"><ele>1052.3333333333333</ele><time>2026-04-26T08:54:50.754Z</time></trkpt><trkpt lat="42.5323501" lon="13.0511581"><ele>1051.6666666666665</ele><time>2026-04-26T08:54:51.755Z</time></trkpt><trkpt lat="42.5324466" lon="13.0509845"><ele>1051.0</ele><time>2026-04-26T08:54:52.753Z</time></trkpt><trkpt lat="42.5325451" lon="13.0508008"><ele>1051.0</ele><time>2026-04-26T08:54:53.754Z</time></trkpt><trkpt lat="42.5326469" lon="13.0506178"><ele>1051.0</ele><time>2026-04-26T08:54:54.755Z</time></trkpt><trkpt lat="42.5327447" lon="13.0504286"><ele>1051.0</ele><time>2026-04-26T08:54:55.755Z</time></trkpt><trkpt lat="42.5328429" lon="13.0502361"><ele>1051.0</ele><time>2026-04-26T08:54:56.754Z</time></trkpt><trkpt lat="42.5329454" lon="13.0500467"><ele>1051.0</ele><time>2026-04-26T08:54:57.754Z</time></trkpt><trkpt lat="42.5330527" lon="13.0498497"><ele>1051.0</ele><time>2026-04-26T08:54:58.753Z</time></trkpt><trkpt lat="42.5331589" lon="13.049654"><ele>1050.0</ele><time>2026-04-26T08:54:59.755Z</time></trkpt><trkpt lat="42.5332658" lon="13.0494564"><ele>1049.0</ele><time>2026-04-26T08:55:00.754Z</time></trkpt><trkpt lat="42.533372" lon="13.0492602"><ele>1048.0</ele><time>2026-04-26T08:55:01.754Z</time></trkpt><trkpt lat="42.5334755" lon="13.0490625"><ele>1047.6666666666665</ele><time>2026-04-26T08:55:02.753Z</time></trkpt><trkpt lat="42.5335746" lon="13.0488626"><ele>1047.3333333333333</ele><time>2026-04-26T08:55:03.754Z</time></trkpt><trkpt lat="42.5336776" lon="13.048672"><ele>1047.0</ele><time>2026-04-26T08:55:04.754Z</time></trkpt><trkpt lat="42.5337817" lon="13.0484825"><ele>1046.3333333333333</ele><time>2026-04-26T08:55:05.755Z</time></trkpt><trkpt lat="42.5338822" lon="13.0482976"><ele>1045.6666666666665</ele><time>2026-04-26T08:55:06.753Z</time></trkpt><trkpt lat="42.5339739" lon="13.04812"><ele>1045.0</ele><time>2026-04-26T08:55:07.753Z</time></trkpt><trkpt lat="42.5340663" lon="13.0479405"><ele>1045.0</ele><time>2026-04-26T08:55:08.753Z</time></trkpt><trkpt lat="42.5341636" lon="13.0477595"><ele>1045.0</ele><time>2026-04-26T08:55:09.754Z</time></trkpt><trkpt lat="42.5342655" lon="13.0475822"><ele>1045.0</ele><time>2026-04-26T08:55:10.753Z</time></trkpt><trkpt lat="42.5343856" lon="13.0474199"><ele>1043.6666666666665</ele><time>2026-04-26T08:55:11.754Z</time></trkpt><trkpt lat="42.5345192" lon="13.0472676"><ele>1042.3333333333333</ele><time>2026-04-26T08:55:12.753Z</time></trkpt><trkpt lat="42.5346605" lon="13.0471247"><ele>1041.0</ele><time>2026-04-26T08:55:13.754Z</time></trkpt><trkpt lat="42.534809" lon="13.0469798"><ele>1041.0</ele><time>2026-04-26T08:55:14.754Z</time></trkpt><trkpt lat="42.5349585" lon="13.0468335"><ele>1041.0</ele><time>2026-04-26T08:55:15.754Z</time></trkpt><trkpt lat="42.5351142" lon="13.0466742"><ele>1041.0</ele><time>2026-04-26T08:55:16.753Z</time></trkpt><trkpt lat="42.5352783" lon="13.0465168"><ele>1039.0</ele><time>2026-04-26T08:55:17.754Z</time></trkpt><trkpt lat="42.535449" lon="13.0463634"><ele>1037.0</ele><time>2026-04-26T08:55:18.753Z</time></trkpt><trkpt lat="42.5356243" lon="13.0462114"><ele>1035.0</ele><time>2026-04-26T08:55:19.753Z</time></trkpt><trkpt lat="42.535801" lon="13.0460588"><ele>1035.0</ele><time>2026-04-26T08:55:20.755Z</time></trkpt><trkpt lat="42.5359836" lon="13.0459139"><ele>1035.0</ele><time>2026-04-26T08:55:21.755Z</time></trkpt><trkpt lat="42.5361696" lon="13.0457793"><ele>1035.0</ele><time>2026-04-26T08:55:22.755Z</time></trkpt><trkpt lat="42.5363583" lon="13.0456489"><ele>1033.3333333333333</ele><time>2026-04-26T08:55:23.753Z</time></trkpt><trkpt lat="42.5365496" lon="13.0455202"><ele>1031.6666666666665</ele><time>2026-04-26T08:55:24.753Z</time></trkpt><trkpt lat="42.5367411" lon="13.0453939"><ele>1030.0</ele><time>2026-04-26T08:55:25.754Z</time></trkpt><trkpt lat="42.5369327" lon="13.0452681"><ele>1031.3333333333333</ele><time>2026-04-26T08:55:26.755Z</time></trkpt><trkpt lat="42.5371229" lon="13.0451426"><ele>1032.6666666666667</ele><time>2026-04-26T08:55:27.754Z</time></trkpt><trkpt lat="42.5373071" lon="13.0450238"><ele>1034.0</ele><time>2026-04-26T08:55:28.755Z</time></trkpt><trkpt lat="42.5374843" lon="13.0449037"><ele>1031.3333333333335</ele><time>2026-04-26T08:55:29.754Z</time></trkpt><trkpt lat="42.5376566" lon="13.0447894"><ele>1028.6666666666667</ele><time>2026-04-26T08:55:30.753Z</time></trkpt><trkpt lat="42.5378265" lon="13.044676"><ele>1026.0</ele><time>2026-04-26T08:55:31.753Z</time></trkpt><trkpt lat="42.5379938" lon="13.0445585"><ele>1026.0</ele><time>2026-04-26T08:55:32.754Z</time></trkpt><trkpt lat="42.5381607" lon="13.0444143"><ele>1026.0</ele><time>2026-04-26T08:55:33.755Z</time></trkpt><trkpt lat="42.5383185" lon="13.0442369"><ele>1026.0</ele><time>2026-04-26T08:55:34.755Z</time></trkpt><trkpt lat="42.5384662" lon="13.044037"><ele>1026.0</ele><time>2026-04-26T08:55:35.754Z</time></trkpt><trkpt lat="42.5386111" lon="13.0438292"><ele>1026.0</ele><time>2026-04-26T08:55:36.754Z</time></trkpt><trkpt lat="42.5387526" lon="13.0436283"><ele>1026.0</ele><time>2026-04-26T08:55:37.754Z</time></trkpt><trkpt lat="42.5388937" lon="13.0434243"><ele>1028.0</ele><time>2026-04-26T08:55:38.754Z</time></trkpt><trkpt lat="42.5390334" lon="13.0432211"><ele>1030.0</ele><time>2026-04-26T08:55:39.753Z</time></trkpt><trkpt lat="42.5391662" lon="13.0430243"><ele>1032.0</ele><time>2026-04-26T08:55:40.755Z</time></trkpt><trkpt lat="42.5392953" lon="13.0428285"><ele>1032.0</ele><time>2026-04-26T08:55:41.754Z</time></trkpt><trkpt lat="42.5394234" lon="13.0426438"><ele>1032.0</ele><time>2026-04-26T08:55:42.753Z</time></trkpt><trkpt lat="42.5395444" lon="13.0424622"><ele>1032.0</ele><time>2026-04-26T08:55:43.754Z</time></trkpt><trkpt lat="42.5396534" lon="13.0422932"><ele>1033.0</ele><time>2026-04-26T08:55:44.755Z</time></trkpt><trkpt lat="42.5397543" lon="13.0421355"><ele>1034.0</ele><time>2026-04-26T08:55:45.753Z</time></trkpt><trkpt lat="42.5398514" lon="13.0419921"><ele>1035.0</ele><time>2026-04-26T08:55:46.754Z</time></trkpt><trkpt lat="42.5399431" lon="13.0418575"><ele>1036.0</ele><time>2026-04-26T08:55:47.754Z</time></trkpt><trkpt lat="42.5400322" lon="13.0417285"><ele>1035.2</ele><time>2026-04-26T08:55:48.755Z</time></trkpt><trkpt lat="42.5401125" lon="13.0416118"><ele>1034.3999999999999</ele><time>2026-04-26T08:55:49.755Z</time></trkpt><trkpt lat="42.540186" lon="13.0415063"><ele>1033.6</ele><time>2026-04-26T08:55:50.754Z</time></trkpt><trkpt lat="42.5402607" lon="13.0414028"><ele>1032.8</ele><time>2026-04-26T08:55:51.754Z</time></trkpt><trkpt lat="42.5403372" lon="13.0413129"><ele>1032.0</ele><time>2026-04-26T08:55:52.755Z</time></trkpt><trkpt lat="42.5404237" lon="13.0412494"><ele>1031.6</ele><time>2026-04-26T08:55:53.754Z</time></trkpt><trkpt lat="42.5405129" lon="13.0412268"><ele>1031.2</ele><time>2026-04-26T08:55:54.753Z</time></trkpt><trkpt lat="42.5405991" lon="13.0412396"><ele>1030.8</ele><time>2026-04-26T08:55:55.753Z</time></trkpt><trkpt lat="42.5406876" lon="13.0413013"><ele>1030.4</ele><time>2026-04-26T08:55:56.754Z</time></trkpt><trkpt lat="42.5407715" lon="13.0413861"><ele>1030.0</ele><time>2026-04-26T08:55:57.754Z</time></trkpt><trkpt lat="42.5408517" lon="13.0414731"><ele>1030.0</ele><time>2026-04-26T08:55:58.754Z</time></trkpt><trkpt lat="42.5409334" lon="13.0415506"><ele>1030.0</ele><time>2026-04-26T08:55:59.753Z</time></trkpt><trkpt lat="42.5410174" lon="13.0416042"><ele>1030.0</ele><time>2026-04-26T08:56:00.754Z</time></trkpt><trkpt lat="42.541105" lon="13.0416284"><ele>1030.0</ele><time>2026-04-26T08:56:01.755Z</time></trkpt><trkpt lat="42.5411965" lon="13.0416223"><ele>1030.0</ele><time>2026-04-26T08:56:02.755Z</time></trkpt><trkpt lat="42.5412798" lon="13.041585"><ele>1033.4</ele><time>2026-04-26T08:56:03.754Z</time></trkpt><trkpt lat="42.5413571" lon="13.0415177"><ele>1036.8</ele><time>2026-04-26T08:56:04.754Z</time></trkpt><trkpt lat="42.5414134" lon="13.0414193"><ele>1040.2</ele><time>2026-04-26T08:56:05.753Z</time></trkpt><trkpt lat="42.5414388" lon="13.0413016"><ele>1043.6</ele><time>2026-04-26T08:56:06.755Z</time></trkpt><trkpt lat="42.5414252" lon="13.0411636"><ele>1047.0</ele><time>2026-04-26T08:56:07.753Z</time></trkpt><trkpt lat="42.541381" lon="13.0410087"><ele>1047.0</ele><time>2026-04-26T08:56:08.754Z</time></trkpt><trkpt lat="42.5413095" lon="13.0408405"><ele>1047.0</ele><time>2026-04-26T08:56:09.755Z</time></trkpt><trkpt lat="42.5412301" lon="13.0406667"><ele>1047.0</ele><time>2026-04-26T08:56:10.753Z</time></trkpt><trkpt lat="42.5411478" lon="13.0404815"><ele>1044.0</ele><time>2026-04-26T08:56:11.754Z</time></trkpt><trkpt lat="42.541069" lon="13.0402993"><ele>1041.0</ele><time>2026-04-26T08:56:12.754Z</time></trkpt><trkpt lat="42.5409871" lon="13.0401202"><ele>1038.0</ele><time>2026-04-26T08:56:13.755Z</time></trkpt><trkpt lat="42.5409026" lon="13.039956"><ele>1038.0</ele><time>2026-04-26T08:56:14.754Z</time></trkpt><trkpt lat="42.5408144" lon="13.0398137"><ele>1038.0</ele><time>2026-04-26T08:56:15.753Z</time></trkpt><trkpt lat="42.5407224" lon="13.0396764"><ele>1038.0</ele><time>2026-04-26T08:56:16.753Z</time></trkpt><trkpt lat="42.5406428" lon="13.0395279"><ele>1038.0</ele><time>2026-04-26T08:56:17.755Z</time></trkpt><trkpt lat="42.5405727" lon="13.0393657"><ele>1038.0</ele><time>2026-04-26T08:56:18.755Z</time></trkpt><trkpt lat="42.5405221" lon="13.0391893"><ele>1038.0</ele><time>2026-04-26T08:56:19.754Z</time></trkpt><trkpt lat="42.5404902" lon="13.0390054"><ele>1038.0</ele><time>2026-04-26T08:56:20.754Z</time></trkpt><trkpt lat="42.5404768" lon="13.0388373"><ele>1038.0</ele><time>2026-04-26T08:56:21.754Z</time></trkpt><trkpt lat="42.5404909" lon="13.0386762"><ele>1037.0</ele><time>2026-04-26T08:56:22.754Z</time></trkpt><trkpt lat="42.5405311" lon="13.0385222"><ele>1036.0</ele><time>2026-04-26T08:56:23.755Z</time></trkpt><trkpt lat="42.5406022" lon="13.0383756"><ele>1035.0</ele><time>2026-04-26T08:56:24.754Z</time></trkpt><trkpt lat="42.5407053" lon="13.0382408"><ele>1034.0</ele><time>2026-04-26T08:56:25.754Z</time></trkpt><trkpt lat="42.5408186" lon="13.0381057"><ele>1031.6666666666667</ele><time>2026-04-26T08:56:26.754Z</time></trkpt><trkpt lat="42.540946" lon="13.0379743"><ele>1029.3333333333333</ele><time>2026-04-26T08:56:27.754Z</time></trkpt><trkpt lat="42.5410632" lon="13.0378235"><ele>1027.0</ele><time>2026-04-26T08:56:28.753Z</time></trkpt><trkpt lat="42.5411671" lon="13.0376521"><ele>1030.0</ele><time>2026-04-26T08:56:29.753Z</time></trkpt><trkpt lat="42.5412541" lon="13.0374719"><ele>1033.0</ele><time>2026-04-26T08:56:30.754Z</time></trkpt><trkpt lat="42.5413169" lon="13.037274"><ele>1036.0</ele><time>2026-04-26T08:56:31.754Z</time></trkpt><trkpt lat="42.5413515" lon="13.0370583"><ele>1036.6666666666665</ele><time>2026-04-26T08:56:32.755Z</time></trkpt><trkpt lat="42.5413589" lon="13.0368349"><ele>1037.3333333333333</ele><time>2026-04-26T08:56:33.755Z</time></trkpt><trkpt lat="42.5413316" lon="13.0366081"><ele>1038.0</ele><time>2026-04-26T08:56:34.754Z</time></trkpt><trkpt lat="42.5412736" lon="13.0363898"><ele>1037.3333333333333</ele><time>2026-04-26T08:56:35.755Z</time></trkpt><trkpt lat="42.5411861" lon="13.0361817"><ele>1036.6666666666665</ele><time>2026-04-26T08:56:36.754Z</time></trkpt><trkpt lat="42.541103" lon="13.0359809"><ele>1036.0</ele><time>2026-04-26T08:56:37.754Z</time></trkpt><trkpt lat="42.5410436" lon="13.0357626"><ele>1036.0</ele><time>2026-04-26T08:56:38.755Z</time></trkpt><trkpt lat="42.5410042" lon="13.0355401"><ele>1036.0</ele><time>2026-04-26T08:56:39.755Z</time></trkpt><trkpt lat="42.5409608" lon="13.0353193"><ele>1036.0</ele><time>2026-04-26T08:56:40.755Z</time></trkpt><trkpt lat="42.5408875" lon="13.0351134"><ele>1038.3333333333333</ele><time>2026-04-26T08:56:41.755Z</time></trkpt><trkpt lat="42.5408004" lon="13.0349244"><ele>1040.6666666666667</ele><time>2026-04-26T08:56:42.755Z</time></trkpt><trkpt lat="42.54071" lon="13.034746"><ele>1043.0</ele><time>2026-04-26T08:56:43.755Z</time></trkpt><trkpt lat="42.5406259" lon="13.034566"><ele>1043.0</ele><time>2026-04-26T08:56:44.753Z</time></trkpt><trkpt lat="42.5405464" lon="13.0343901"><ele>1043.0</ele><time>2026-04-26T08:56:45.753Z</time></trkpt><trkpt lat="42.5404743" lon="13.0342163"><ele>1043.0</ele><time>2026-04-26T08:56:46.753Z</time></trkpt><trkpt lat="42.540411" lon="13.0340544"><ele>1043.0</ele><time>2026-04-26T08:56:47.753Z</time></trkpt><trkpt lat="42.5403525" lon="13.0338915"><ele>1040.25</ele><time>2026-04-26T08:56:48.754Z</time></trkpt><trkpt lat="42.5403141" lon="13.0337294"><ele>1037.5</ele><time>2026-04-26T08:56:49.753Z</time></trkpt><trkpt lat="42.5403059" lon="13.0335516"><ele>1034.75</ele><time>2026-04-26T08:56:50.754Z</time></trkpt><trkpt lat="42.5403274" lon="13.0333646"><ele>1032.0</ele><time>2026-04-26T08:56:51.754Z</time></trkpt><trkpt lat="42.5403706" lon="13.0331725"><ele>1034.3333333333333</ele><time>2026-04-26T08:56:52.753Z</time></trkpt><trkpt lat="42.5404363" lon="13.0329739"><ele>1036.6666666666665</ele><time>2026-04-26T08:56:53.753Z</time></trkpt><trkpt lat="42.5405198" lon="13.0327755"><ele>1039.0</ele><time>2026-04-26T08:56:54.753Z</time></trkpt><trkpt lat="42.5406228" lon="13.0325658"><ele>1034.6666666666665</ele><time>2026-04-26T08:56:55.753Z</time></trkpt><trkpt lat="42.540737" lon="13.032344"><ele>1030.3333333333333</ele><time>2026-04-26T08:56:56.754Z</time></trkpt><trkpt lat="42.5408537" lon="13.0321192"><ele>1026.0</ele><time>2026-04-26T08:56:57.754Z</time></trkpt><trkpt lat="42.5409642" lon="13.0319004"><ele>1026.0</ele><time>2026-04-26T08:56:58.753Z</time></trkpt><trkpt lat="42.5410794" lon="13.0316986"><ele>1026.0</ele><time>2026-04-26T08:56:59.754Z</time></trkpt><trkpt lat="42.5412018" lon="13.0315282"><ele>1026.0</ele><time>2026-04-26T08:57:00.753Z</time></trkpt><trkpt lat="42.5413267" lon="13.0313753"><ele>1025.0</ele><time>2026-04-26T08:57:01.754Z</time></trkpt><trkpt lat="42.541436" lon="13.0312139"><ele>1024.0</ele><time>2026-04-26T08:57:02.754Z</time></trkpt><trkpt lat="42.5415158" lon="13.0310142"><ele>1023.0</ele><time>2026-04-26T08:57:03.754Z</time></trkpt><trkpt lat="42.5415705" lon="13.030794"><ele>1023.0</ele><time>2026-04-26T08:57:04.753Z</time></trkpt><trkpt lat="42.5416179" lon="13.030563"><ele>1023.0</ele><time>2026-04-26T08:57:05.753Z</time></trkpt><trkpt lat="42.5416764" lon="13.0303401"><ele>1023.0</ele><time>2026-04-26T08:57:06.754Z</time></trkpt><trkpt lat="42.5417448" lon="13.0301335"><ele>1022.5</ele><time>2026-04-26T08:57:07.753Z</time></trkpt><trkpt lat="42.5418121" lon="13.0299489"><ele>1022.0</ele><time>2026-04-26T08:57:08.752Z</time></trkpt><trkpt lat="42.5418506" lon="13.0297652"><ele>1021.5</ele><time>2026-04-26T08:57:09.754Z</time></trkpt><trkpt lat="42.5418419" lon="13.0295673"><ele>1021.0</ele><time>2026-04-26T08:57:10.753Z</time></trkpt><trkpt lat="42.5418076" lon="13.0293787"><ele>1021.0</ele><time>2026-04-26T08:57:11.753Z</time></trkpt><trkpt lat="42.5417799" lon="13.0291979"><ele>1021.0</ele><time>2026-04-26T08:57:12.753Z</time></trkpt><trkpt lat="42.5417764" lon="13.0290143"><ele>1021.0</ele><time>2026-04-26T08:57:13.753Z</time></trkpt><trkpt lat="42.5418037" lon="13.0288119"><ele>1021.0</ele><time>2026-04-26T08:57:14.754Z</time></trkpt><trkpt lat="42.5418439" lon="13.0285894"><ele>1019.3333333333333</ele><time>2026-04-26T08:57:15.754Z</time></trkpt><trkpt lat="42.54189" lon="13.0283582"><ele>1017.6666666666667</ele><time>2026-04-26T08:57:16.754Z</time></trkpt><trkpt lat="42.5419405" lon="13.0281139"><ele>1016.0</ele><time>2026-04-26T08:57:17.754Z</time></trkpt><trkpt lat="42.5419926" lon="13.02786"><ele>1021.0</ele><time>2026-04-26T08:57:18.754Z</time></trkpt><trkpt lat="42.5420488" lon="13.0276017"><ele>1026.0</ele><time>2026-04-26T08:57:19.753Z</time></trkpt><trkpt lat="42.5421051" lon="13.027343"><ele>1031.0</ele><time>2026-04-26T08:57:20.752Z</time></trkpt><trkpt lat="42.5421606" lon="13.027087"><ele>1031.0</ele><time>2026-04-26T08:57:21.753Z</time></trkpt><trkpt lat="42.5422152" lon="13.0268383"><ele>1031.0</ele><time>2026-04-26T08:57:22.753Z</time></trkpt><trkpt lat="42.5422688" lon="13.026598"><ele>1031.0</ele><time>2026-04-26T08:57:23.754Z</time></trkpt><trkpt lat="42.5423204" lon="13.0263623"><ele>1027.3333333333335</ele><time>2026-04-26T08:57:24.753Z</time></trkpt><trkpt lat="42.5423741" lon="13.0261282"><ele>1023.6666666666667</ele><time>2026-04-26T08:57:25.753Z</time></trkpt><trkpt lat="42.5424281" lon="13.025895"><ele>1020.0</ele><time>2026-04-26T08:57:26.753Z</time></trkpt><trkpt lat="42.5424912" lon="13.0256617"><ele>1016.0</ele><time>2026-04-26T08:57:27.754Z</time></trkpt><trkpt lat="42.5425606" lon="13.0254299"><ele>1012.0</ele><time>2026-04-26T08:57:28.753Z</time></trkpt><trkpt lat="42.5426378" lon="13.0251989"><ele>1008.0</ele><time>2026-04-26T08:57:29.754Z</time></trkpt><trkpt lat="42.5427195" lon="13.0249644"><ele>1003.3333333333333</ele><time>2026-04-26T08:57:30.753Z</time></trkpt><trkpt lat="42.5427987" lon="13.0247291"><ele>998.6666666666666</ele><time>2026-04-26T08:57:31.754Z</time></trkpt><trkpt lat="42.5428811" lon="13.0245032"><ele>994.0</ele><time>2026-04-26T08:57:32.752Z</time></trkpt><trkpt lat="42.5429668" lon="13.0242958"><ele>1000.0</ele><time>2026-04-26T08:57:33.753Z</time></trkpt><trkpt lat="42.5430717" lon="13.0241093"><ele>1006.0</ele><time>2026-04-26T08:57:34.753Z</time></trkpt><trkpt lat="42.5431927" lon="13.0239469"><ele>1012.0</ele><time>2026-04-26T08:57:35.753Z</time></trkpt><trkpt lat="42.54331" lon="13.0237977"><ele>1012.0</ele><time>2026-04-26T08:57:36.754Z</time></trkpt><trkpt lat="42.5434005" lon="13.0236053"><ele>1012.0</ele><time>2026-04-26T08:57:37.754Z</time></trkpt><trkpt lat="42.54347" lon="13.0233891"><ele>1012.0</ele><time>2026-04-26T08:57:38.754Z</time></trkpt><trkpt lat="42.5435285" lon="13.0231555"><ele>1009.0</ele><time>2026-04-26T08:57:39.752Z</time></trkpt><trkpt lat="42.5435701" lon="13.0229124"><ele>1006.0</ele><time>2026-04-26T08:57:40.753Z</time></trkpt><trkpt lat="42.5435951" lon="13.0226674"><ele>1003.0</ele><time>2026-04-26T08:57:41.752Z</time></trkpt><trkpt lat="42.5436124" lon="13.0224274"><ele>1001.3333333333333</ele><time>2026-04-26T08:57:42.753Z</time></trkpt><trkpt lat="42.5436265" lon="13.0221864"><ele>999.6666666666667</ele><time>2026-04-26T08:57:43.753Z</time></trkpt><trkpt lat="42.5436469" lon="13.0219502"><ele>998.0</ele><time>2026-04-26T08:57:44.753Z</time></trkpt><trkpt lat="42.5436799" lon="13.0217164"><ele>1006.3333333333334</ele><time>2026-04-26T08:57:45.753Z</time></trkpt><trkpt lat="42.5437348" lon="13.0214918"><ele>1014.6666666666667</ele><time>2026-04-26T08:57:46.753Z</time></trkpt><trkpt lat="42.5438159" lon="13.021279"><ele>1023.0</ele><time>2026-04-26T08:57:47.754Z</time></trkpt><trkpt lat="42.5438994" lon="13.0210694"><ele>1023.0</ele><time>2026-04-26T08:57:48.754Z</time></trkpt><trkpt lat="42.5439826" lon="13.0208632"><ele>1023.0</ele><time>2026-04-26T08:57:49.753Z</time></trkpt><trkpt lat="42.5440594" lon="13.0206646"><ele>1023.0</ele><time>2026-04-26T08:57:50.753Z</time></trkpt><trkpt lat="42.5441166" lon="13.0204625"><ele>1021.3333333333333</ele><time>2026-04-26T08:57:51.753Z</time></trkpt><trkpt lat="42.5441404" lon="13.0202398"><ele>1019.6666666666666</ele><time>2026-04-26T08:57:52.753Z</time></trkpt><trkpt lat="42.5441162" lon="13.020018"><ele>1018.0</ele><time>2026-04-26T08:57:53.752Z</time></trkpt><trkpt lat="42.5440698" lon="13.0198049"><ele>1017.3333333333333</ele><time>2026-04-26T08:57:54.753Z</time></trkpt><trkpt lat="42.5440274" lon="13.0195854"><ele>1016.6666666666667</ele><time>2026-04-26T08:57:55.754Z</time></trkpt><trkpt lat="42.544003" lon="13.0193539"><ele>1016.0</ele><time>2026-04-26T08:57:56.754Z</time></trkpt><trkpt lat="42.5439982" lon="13.019112"><ele>1014.0</ele><time>2026-04-26T08:57:57.754Z</time></trkpt><trkpt lat="42.5440064" lon="13.0188663"><ele>1012.0</ele><time>2026-04-26T08:57:58.754Z</time></trkpt><trkpt lat="42.5440223" lon="13.0186357"><ele>1010.0</ele><time>2026-04-26T08:57:59.752Z</time></trkpt><trkpt lat="42.5440529" lon="13.0184127"><ele>1002.3333333333334</ele><time>2026-04-26T08:58:00.753Z</time></trkpt><trkpt lat="42.5441077" lon="13.0182098"><ele>994.6666666666667</ele><time>2026-04-26T08:58:01.753Z</time></trkpt><trkpt lat="42.5441793" lon="13.0180278"><ele>987.0</ele><time>2026-04-26T08:58:02.753Z</time></trkpt><trkpt lat="42.5442681" lon="13.017878"><ele>987.0</ele><time>2026-04-26T08:58:03.753Z</time></trkpt><trkpt lat="42.5443863" lon="13.01775"><ele>987.0</ele><time>2026-04-26T08:58:04.753Z</time></trkpt><trkpt lat="42.5445362" lon="13.0176495"><ele>987.0</ele><time>2026-04-26T08:58:05.753Z</time></trkpt><trkpt lat="42.5446915" lon="13.0175821"><ele>986.0</ele><time>2026-04-26T08:58:06.753Z</time></trkpt><trkpt lat="42.5448464" lon="13.0175053"><ele>985.0</ele><time>2026-04-26T08:58:07.753Z</time></trkpt><trkpt lat="42.5449981" lon="13.0173722"><ele>984.0</ele><time>2026-04-26T08:58:08.753Z</time></trkpt><trkpt lat="42.5451471" lon="13.0172136"><ele>984.0</ele><time>2026-04-26T08:58:09.753Z</time></trkpt><trkpt lat="42.5452919" lon="13.0170492"><ele>984.0</ele><time>2026-04-26T08:58:10.753Z</time></trkpt><trkpt lat="42.5454325" lon="13.0168939"><ele>984.0</ele><time>2026-04-26T08:58:11.753Z</time></trkpt><trkpt lat="42.5455648" lon="13.0167374"><ele>982.3333333333333</ele><time>2026-04-26T08:58:12.753Z</time></trkpt><trkpt lat="42.5457041" lon="13.0165924"><ele>980.6666666666666</ele><time>2026-04-26T08:58:13.753Z</time></trkpt><trkpt lat="42.5458538" lon="13.0164675"><ele>979.0</ele><time>2026-04-26T08:58:14.753Z</time></trkpt><trkpt lat="42.5460231" lon="13.01636"><ele>979.0</ele><time>2026-04-26T08:58:15.754Z</time></trkpt><trkpt lat="42.5462067" lon="13.0162633"><ele>979.0</ele><time>2026-04-26T08:58:16.754Z</time></trkpt><trkpt lat="42.5463946" lon="13.0161807"><ele>979.0</ele><time>2026-04-26T08:58:17.753Z</time></trkpt><trkpt lat="42.5465768" lon="13.0161061"><ele>982.6666666666666</ele><time>2026-04-26T08:58:18.753Z</time></trkpt><trkpt lat="42.5467477" lon="13.0160218"><ele>986.3333333333333</ele><time>2026-04-26T08:58:19.754Z</time></trkpt><trkpt lat="42.5469095" lon="13.0159349"><ele>990.0</ele><time>2026-04-26T08:58:20.752Z</time></trkpt><trkpt lat="42.5470647" lon="13.01586"><ele>990.0</ele><time>2026-04-26T08:58:21.753Z</time></trkpt><trkpt lat="42.5472044" lon="13.0158202"><ele>990.0</ele><time>2026-04-26T08:58:22.753Z</time></trkpt><trkpt lat="42.5473421" lon="13.0158177"><ele>990.0</ele><time>2026-04-26T08:58:23.754Z</time></trkpt><trkpt lat="42.5474728" lon="13.0158609"><ele>990.0</ele><time>2026-04-26T08:58:24.753Z</time></trkpt><trkpt lat="42.5475905" lon="13.0159508"><ele>990.0</ele><time>2026-04-26T08:58:25.754Z</time></trkpt><trkpt lat="42.5477033" lon="13.0160838"><ele>990.0</ele><time>2026-04-26T08:58:26.753Z</time></trkpt><trkpt lat="42.5478058" lon="13.0162313"><ele>990.0</ele><time>2026-04-26T08:58:27.753Z</time></trkpt><trkpt lat="42.5479135" lon="13.0163727"><ele>990.0</ele><time>2026-04-26T08:58:28.752Z</time></trkpt><trkpt lat="42.5480402" lon="13.0164879"><ele>985.3333333333333</ele><time>2026-04-26T08:58:29.754Z</time></trkpt><trkpt lat="42.5481902" lon="13.0165538"><ele>980.6666666666666</ele><time>2026-04-26T08:58:30.753Z</time></trkpt><trkpt lat="42.5483515" lon="13.0165698"><ele>976.0</ele><time>2026-04-26T08:58:31.753Z</time></trkpt><trkpt lat="42.5485273" lon="13.0165381"><ele>976.0</ele><time>2026-04-26T08:58:32.753Z</time></trkpt><trkpt lat="42.5487089" lon="13.0164668"><ele>976.0</ele><time>2026-04-26T08:58:33.752Z</time></trkpt><trkpt lat="42.5488966" lon="13.0163849"><ele>976.0</ele><time>2026-04-26T08:58:34.752Z</time></trkpt><trkpt lat="42.5490879" lon="13.0162942"><ele>975.3333333333333</ele><time>2026-04-26T08:58:35.752Z</time></trkpt><trkpt lat="42.5492722" lon="13.0162112"><ele>974.6666666666667</ele><time>2026-04-26T08:58:36.752Z</time></trkpt><trkpt lat="42.549453" lon="13.0161291"><ele>974.0</ele><time>2026-04-26T08:58:37.752Z</time></trkpt><trkpt lat="42.5496259" lon="13.0160427"><ele>974.0</ele><time>2026-04-26T08:58:38.754Z</time></trkpt><trkpt lat="42.5497901" lon="13.0159767"><ele>974.0</ele><time>2026-04-26T08:58:39.754Z</time></trkpt><trkpt lat="42.5499578" lon="13.0159426"><ele>974.0</ele><time>2026-04-26T08:58:40.753Z</time></trkpt><trkpt lat="42.5501188" lon="13.0159539"><ele>974.0</ele><time>2026-04-26T08:58:41.753Z</time></trkpt><trkpt lat="42.5502706" lon="13.0160117"><ele>974.0</ele><time>2026-04-26T08:58:42.752Z</time></trkpt><trkpt lat="42.5504237" lon="13.0160681"><ele>974.0</ele><time>2026-04-26T08:58:43.754Z</time></trkpt><trkpt lat="42.5505936" lon="13.0160714"><ele>972.3333333333334</ele><time>2026-04-26T08:58:44.753Z</time></trkpt><trkpt lat="42.5507687" lon="13.016028"><ele>970.6666666666667</ele><time>2026-04-26T08:58:45.753Z</time></trkpt><trkpt lat="42.5509466" lon="13.0159662"><ele>969.0</ele><time>2026-04-26T08:58:46.754Z</time></trkpt><trkpt lat="42.5511328" lon="13.0159189"><ele>968.0</ele><time>2026-04-26T08:58:47.754Z</time></trkpt><trkpt lat="42.5513213" lon="13.0158848"><ele>967.0</ele><time>2026-04-26T08:58:48.752Z</time></trkpt><trkpt lat="42.551521" lon="13.0158637"><ele>966.0</ele><time>2026-04-26T08:58:49.752Z</time></trkpt><trkpt lat="42.5517318" lon="13.0158582"><ele>966.0</ele><time>2026-04-26T08:58:50.752Z</time></trkpt><trkpt lat="42.5519534" lon="13.0158573"><ele>966.0</ele><time>2026-04-26T08:58:51.754Z</time></trkpt><trkpt lat="42.552174" lon="13.0158573"><ele>966.0</ele><time>2026-04-26T08:58:52.753Z</time></trkpt><trkpt lat="42.5523975" lon="13.0158547"><ele>964.0</ele><time>2026-04-26T08:58:53.753Z</time></trkpt><trkpt lat="42.5526132" lon="13.0158508"><ele>962.0</ele><time>2026-04-26T08:58:54.752Z</time></trkpt><trkpt lat="42.5528226" lon="13.0158421"><ele>960.0</ele><time>2026-04-26T08:58:55.753Z</time></trkpt><trkpt lat="42.5530287" lon="13.0158356"><ele>955.3333333333333</ele><time>2026-04-26T08:58:56.754Z</time></trkpt><trkpt lat="42.5532279" lon="13.0158148"><ele>950.6666666666666</ele><time>2026-04-26T08:58:57.753Z</time></trkpt><trkpt lat="42.5534187" lon="13.0157712"><ele>946.0</ele><time>2026-04-26T08:58:58.753Z</time></trkpt><trkpt lat="42.5536086" lon="13.0157075"><ele>946.6666666666666</ele><time>2026-04-26T08:58:59.753Z</time></trkpt><trkpt lat="42.5537991" lon="13.0156253"><ele>947.3333333333333</ele><time>2026-04-26T08:59:00.754Z</time></trkpt><trkpt lat="42.5539887" lon="13.0155264"><ele>948.0</ele><time>2026-04-26T08:59:01.753Z</time></trkpt><trkpt lat="42.5541733" lon="13.0154157"><ele>948.0</ele><time>2026-04-26T08:59:02.753Z</time></trkpt><trkpt lat="42.554355" lon="13.015294"><ele>948.0</ele><time>2026-04-26T08:59:03.753Z</time></trkpt><trkpt lat="42.5545328" lon="13.0151566"><ele>948.0</ele><time>2026-04-26T08:59:04.752Z</time></trkpt><trkpt lat="42.5547064" lon="13.0150103"><ele>946.3333333333333</ele><time>2026-04-26T08:59:05.754Z</time></trkpt><trkpt lat="42.5548763" lon="13.0148506"><ele>944.6666666666666</ele><time>2026-04-26T08:59:06.753Z</time></trkpt><trkpt lat="42.5550391" lon="13.014673"><ele>943.0</ele><time>2026-04-26T08:59:07.752Z</time></trkpt><trkpt lat="42.5551907" lon="13.0144758"><ele>943.0</ele><time>2026-04-26T08:59:08.753Z</time></trkpt><trkpt lat="42.5553278" lon="13.0142593"><ele>943.0</ele><time>2026-04-26T08:59:09.753Z</time></trkpt><trkpt lat="42.5554555" lon="13.0140259"><ele>943.0</ele><time>2026-04-26T08:59:10.753Z</time></trkpt><trkpt lat="42.5555726" lon="13.0137822"><ele>942.3333333333333</ele><time>2026-04-26T08:59:11.753Z</time></trkpt><trkpt lat="42.5556814" lon="13.0135357"><ele>941.6666666666667</ele><time>2026-04-26T08:59:12.754Z</time></trkpt><trkpt lat="42.5557838" lon="13.0132832"><ele>941.0</ele><time>2026-04-26T08:59:13.753Z</time></trkpt><trkpt lat="42.5558827" lon="13.013033"><ele>939.0</ele><time>2026-04-26T08:59:14.754Z</time></trkpt><trkpt lat="42.5559763" lon="13.0127907"><ele>937.0</ele><time>2026-04-26T08:59:15.754Z</time></trkpt><trkpt lat="42.5560656" lon="13.0125558"><ele>935.0</ele><time>2026-04-26T08:59:16.752Z</time></trkpt><trkpt lat="42.5561526" lon="13.0123291"><ele>936.0</ele><time>2026-04-26T08:59:17.754Z</time></trkpt><trkpt lat="42.5562486" lon="13.0121247"><ele>937.0</ele><time>2026-04-26T08:59:18.753Z</time></trkpt><trkpt lat="42.5563614" lon="13.0119458"><ele>938.0</ele><time>2026-04-26T08:59:19.754Z</time></trkpt><trkpt lat="42.5564908" lon="13.0117868"><ele>932.3333333333334</ele><time>2026-04-26T08:59:20.753Z</time></trkpt><trkpt lat="42.5566214" lon="13.0116389"><ele>926.6666666666667</ele><time>2026-04-26T08:59:21.753Z</time></trkpt><trkpt lat="42.5567485" lon="13.0115009"><ele>921.0</ele><time>2026-04-26T08:59:22.753Z</time></trkpt><trkpt lat="42.5568738" lon="13.0113671"><ele>921.0</ele><time>2026-04-26T08:59:23.754Z</time></trkpt><trkpt lat="42.5569967" lon="13.0112443"><ele>921.0</ele><time>2026-04-26T08:59:24.753Z</time></trkpt><trkpt lat="42.5571173" lon="13.011121"><ele>921.0</ele><time>2026-04-26T08:59:25.754Z</time></trkpt><trkpt lat="42.5572384" lon="13.0109967"><ele>919.3333333333333</ele><time>2026-04-26T08:59:26.753Z</time></trkpt><trkpt lat="42.5573653" lon="13.0108714"><ele>917.6666666666666</ele><time>2026-04-26T08:59:27.752Z</time></trkpt><trkpt lat="42.5574975" lon="13.0107465"><ele>916.0</ele><time>2026-04-26T08:59:28.752Z</time></trkpt><trkpt lat="42.5576315" lon="13.0106197"><ele>916.0</ele><time>2026-04-26T08:59:29.754Z</time></trkpt><trkpt lat="42.5577763" lon="13.0105028"><ele>916.0</ele><time>2026-04-26T08:59:30.753Z</time></trkpt><trkpt lat="42.5579328" lon="13.010392"><ele>916.0</ele><time>2026-04-26T08:59:31.753Z</time></trkpt><trkpt lat="42.5581001" lon="13.0102878"><ele>914.0</ele><time>2026-04-26T08:59:32.753Z</time></trkpt><trkpt lat="42.5582681" lon="13.0101819"><ele>912.0</ele><time>2026-04-26T08:59:33.752Z</time></trkpt><trkpt lat="42.5584287" lon="13.0100783"><ele>910.0</ele><time>2026-04-26T08:59:34.754Z</time></trkpt><trkpt lat="42.5585841" lon="13.0099756"><ele>912.6666666666666</ele><time>2026-04-26T08:59:35.751Z</time></trkpt><trkpt lat="42.558738" lon="13.0098769"><ele>915.3333333333333</ele><time>2026-04-26T08:59:36.752Z</time></trkpt><trkpt lat="42.558889" lon="13.0097797"><ele>918.0</ele><time>2026-04-26T08:59:37.753Z</time></trkpt><trkpt lat="42.5590369" lon="13.0096881"><ele>918.0</ele><time>2026-04-26T08:59:38.753Z</time></trkpt><trkpt lat="42.5591857" lon="13.0096093"><ele>918.0</ele><time>2026-04-26T08:59:39.752Z</time></trkpt><trkpt lat="42.55934" lon="13.0095575"><ele>918.0</ele><time>2026-04-26T08:59:40.752Z</time></trkpt><trkpt lat="42.5594888" lon="13.0095392"><ele>919.75</ele><time>2026-04-26T08:59:41.752Z</time></trkpt><trkpt lat="42.5596281" lon="13.0095324"><ele>921.5</ele><time>2026-04-26T08:59:42.752Z</time></trkpt><trkpt lat="42.5597618" lon="13.0094964"><ele>923.25</ele><time>2026-04-26T08:59:43.752Z</time></trkpt><trkpt lat="42.5598842" lon="13.0094008"><ele>925.0</ele><time>2026-04-26T08:59:44.753Z</time></trkpt><trkpt lat="42.5599849" lon="13.0092654"><ele>921.3333333333333</ele><time>2026-04-26T08:59:45.753Z</time></trkpt><trkpt lat="42.5600985" lon="13.0091017"><ele>917.6666666666667</ele><time>2026-04-26T08:59:46.753Z</time></trkpt><trkpt lat="42.5602376" lon="13.0089489"><ele>914.0</ele><time>2026-04-26T08:59:47.753Z</time></trkpt><trkpt lat="42.5604043" lon="13.0088085"><ele>914.0</ele><time>2026-04-26T08:59:48.752Z</time></trkpt><trkpt lat="42.560584" lon="13.0086806"><ele>914.0</ele><time>2026-04-26T08:59:49.753Z</time></trkpt><trkpt lat="42.5607624" lon="13.0085768"><ele>914.0</ele><time>2026-04-26T08:59:50.752Z</time></trkpt><trkpt lat="42.5609309" lon="13.0084899"><ele>914.0</ele><time>2026-04-26T08:59:51.751Z</time></trkpt><trkpt lat="42.5610853" lon="13.0084197"><ele>914.0</ele><time>2026-04-26T08:59:52.752Z</time></trkpt><trkpt lat="42.5612309" lon="13.0083555"><ele>914.0</ele><time>2026-04-26T08:59:53.752Z</time></trkpt><trkpt lat="42.5613583" lon="13.0082761"><ele>913.0</ele><time>2026-04-26T08:59:54.751Z</time></trkpt><trkpt lat="42.5614679" lon="13.0081535"><ele>912.0</ele><time>2026-04-26T08:59:55.752Z</time></trkpt><trkpt lat="42.5615539" lon="13.0079862"><ele>911.0</ele><time>2026-04-26T08:59:56.752Z</time></trkpt><trkpt lat="42.5616417" lon="13.0078163"><ele>910.0</ele><time>2026-04-26T08:59:57.752Z</time></trkpt><trkpt lat="42.5617422" lon="13.0076683"><ele>910.0</ele><time>2026-04-26T08:59:58.752Z</time></trkpt><trkpt lat="42.5618537" lon="13.0075485"><ele>910.0</ele><time>2026-04-26T08:59:59.751Z</time></trkpt><trkpt lat="42.5619974" lon="13.0074583"><ele>910.0</ele><time>2026-04-26T09:00:00.751Z</time></trkpt><trkpt lat="42.5621652" lon="13.0073887"><ele>906.6666666666666</ele><time>2026-04-26T09:00:01.751Z</time></trkpt><trkpt lat="42.562344" lon="13.0073383"><ele>903.3333333333333</ele><time>2026-04-26T09:00:02.752Z</time></trkpt><trkpt lat="42.5625147" lon="13.0073031"><ele>900.0</ele><time>2026-04-26T09:00:03.752Z</time></trkpt><trkpt lat="42.5626884" lon="13.0072794"><ele>900.0</ele><time>2026-04-26T09:00:04.753Z</time></trkpt><trkpt lat="42.5628521" lon="13.0072383"><ele>900.0</ele><time>2026-04-26T09:00:05.751Z</time></trkpt><trkpt lat="42.5630055" lon="13.0071506"><ele>900.0</ele><time>2026-04-26T09:00:06.752Z</time></trkpt><trkpt lat="42.5631516" lon="13.0070189"><ele>900.6666666666667</ele><time>2026-04-26T09:00:07.752Z</time></trkpt><trkpt lat="42.5633056" lon="13.0068936"><ele>901.3333333333334</ele><time>2026-04-26T09:00:08.752Z</time></trkpt><trkpt lat="42.563457" lon="13.0067875"><ele>902.0</ele><time>2026-04-26T09:00:09.753Z</time></trkpt><trkpt lat="42.563595" lon="13.0066817"><ele>900.75</ele><time>2026-04-26T09:00:10.753Z</time></trkpt><trkpt lat="42.5637121" lon="13.0065507"><ele>899.5</ele><time>2026-04-26T09:00:11.752Z</time></trkpt><trkpt lat="42.5638156" lon="13.0064383"><ele>898.25</ele><time>2026-04-26T09:00:12.752Z</time></trkpt><trkpt lat="42.5639306" lon="13.0063628"><ele>897.0</ele><time>2026-04-26T09:00:13.752Z</time></trkpt><trkpt lat="42.5640639" lon="13.0063251"><ele>897.0</ele><time>2026-04-26T09:00:14.752Z</time></trkpt><trkpt lat="42.5642152" lon="13.0063276"><ele>897.0</ele><time>2026-04-26T09:00:15.751Z</time></trkpt><trkpt lat="42.5643632" lon="13.006342"><ele>897.0</ele><time>2026-04-26T09:00:16.752Z</time></trkpt><trkpt lat="42.5645024" lon="13.0063268"><ele>897.0</ele><time>2026-04-26T09:00:17.752Z</time></trkpt><trkpt lat="42.5646309" lon="13.0062776"><ele>896.75</ele><time>2026-04-26T09:00:18.752Z</time></trkpt><trkpt lat="42.5647461" lon="13.0061837"><ele>896.5</ele><time>2026-04-26T09:00:19.751Z</time></trkpt><trkpt lat="42.5648473" lon="13.0060368"><ele>896.25</ele><time>2026-04-26T09:00:20.752Z</time></trkpt><trkpt lat="42.5649315" lon="13.0058422"><ele>896.0</ele><time>2026-04-26T09:00:21.752Z</time></trkpt><trkpt lat="42.5650168" lon="13.0056353"><ele>896.0</ele><time>2026-04-26T09:00:22.753Z</time></trkpt><trkpt lat="42.5651322" lon="13.0054293"><ele>896.0</ele><time>2026-04-26T09:00:23.752Z</time></trkpt><trkpt lat="42.5652602" lon="13.0052456"><ele>896.0</ele><time>2026-04-26T09:00:24.751Z</time></trkpt><trkpt lat="42.5653961" lon="13.0050531"><ele>896.3333333333334</ele><time>2026-04-26T09:00:25.752Z</time></trkpt><trkpt lat="42.5655256" lon="13.0048287"><ele>896.6666666666667</ele><time>2026-04-26T09:00:26.752Z</time></trkpt><trkpt lat="42.5656333" lon="13.0045773"><ele>897.0</ele><time>2026-04-26T09:00:27.752Z</time></trkpt><trkpt lat="42.565725" lon="13.004314"><ele>894.6666666666667</ele><time>2026-04-26T09:00:28.753Z</time></trkpt><trkpt lat="42.5658133" lon="13.004038"><ele>892.3333333333334</ele><time>2026-04-26T09:00:29.752Z</time></trkpt><trkpt lat="42.5658995" lon="13.0037579"><ele>890.0</ele><time>2026-04-26T09:00:30.753Z</time></trkpt><trkpt lat="42.5659824" lon="13.0034723"><ele>889.0</ele><time>2026-04-26T09:00:31.752Z</time></trkpt><trkpt lat="42.5660612" lon="13.0031884"><ele>888.0</ele><time>2026-04-26T09:00:32.752Z</time></trkpt><trkpt lat="42.5661421" lon="13.0029042"><ele>887.0</ele><time>2026-04-26T09:00:33.752Z</time></trkpt><trkpt lat="42.566219" lon="13.0026221"><ele>889.0</ele><time>2026-04-26T09:00:34.752Z</time></trkpt><trkpt lat="42.5662952" lon="13.0023426"><ele>891.0</ele><time>2026-04-26T09:00:35.751Z</time></trkpt><trkpt lat="42.5663667" lon="13.0020636"><ele>893.0</ele><time>2026-04-26T09:00:36.752Z</time></trkpt><trkpt lat="42.5664377" lon="13.0017956"><ele>890.3333333333334</ele><time>2026-04-26T09:00:37.751Z</time></trkpt><trkpt lat="42.5665074" lon="13.0015378"><ele>887.6666666666667</ele><time>2026-04-26T09:00:38.752Z</time></trkpt><trkpt lat="42.566576" lon="13.0012904"><ele>885.0</ele><time>2026-04-26T09:00:39.753Z</time></trkpt><trkpt lat="42.5666445" lon="13.0010511"><ele>883.3333333333333</ele><time>2026-04-26T09:00:40.751Z</time></trkpt><trkpt lat="42.5667085" lon="13.0008244"><ele>881.6666666666666</ele><time>2026-04-26T09:00:41.751Z</time></trkpt><trkpt lat="42.56677" lon="13.0006071"><ele>880.0</ele><time>2026-04-26T09:00:42.752Z</time></trkpt><trkpt lat="42.5668275" lon="13.000397"><ele>880.0</ele><time>2026-04-26T09:00:43.753Z</time></trkpt><trkpt lat="42.5668678" lon="13.0001884"><ele>880.0</ele><time>2026-04-26T09:00:44.752Z</time></trkpt><trkpt lat="42.5668855" lon="12.9999822"><ele>880.0</ele><time>2026-04-26T09:00:45.753Z</time></trkpt><trkpt lat="42.5668741" lon="12.9997777"><ele>880.0</ele><time>2026-04-26T09:00:46.753Z</time></trkpt><trkpt lat="42.5668251" lon="12.9995724"><ele>880.0</ele><time>2026-04-26T09:00:47.751Z</time></trkpt><trkpt lat="42.566743" lon="12.9993753"><ele>880.0</ele><time>2026-04-26T09:00:48.751Z</time></trkpt><trkpt lat="42.5666453" lon="12.9992006"><ele>880.3333333333333</ele><time>2026-04-26T09:00:49.753Z</time></trkpt><trkpt lat="42.566545" lon="12.9990424"><ele>880.6666666666667</ele><time>2026-04-26T09:00:50.752Z</time></trkpt><trkpt lat="42.5664438" lon="12.9988926"><ele>881.0</ele><time>2026-04-26T09:00:51.752Z</time></trkpt><trkpt lat="42.5663395" lon="12.9987386"><ele>881.0</ele><time>2026-04-26T09:00:52.752Z</time></trkpt><trkpt lat="42.5662219" lon="12.9985882"><ele>881.0</ele><time>2026-04-26T09:00:53.752Z</time></trkpt><trkpt lat="42.5660893" lon="12.9984653"><ele>881.0</ele><time>2026-04-26T09:00:54.751Z</time></trkpt><trkpt lat="42.5659323" lon="12.9983805"><ele>884.0</ele><time>2026-04-26T09:00:55.752Z</time></trkpt><trkpt lat="42.5657716" lon="12.998309"><ele>887.0</ele><time>2026-04-26T09:00:56.753Z</time></trkpt><trkpt lat="42.5656244" lon="12.9982267"><ele>890.0</ele><time>2026-04-26T09:00:57.753Z</time></trkpt><trkpt lat="42.5654856" lon="12.9981101"><ele>890.0</ele><time>2026-04-26T09:00:58.752Z</time></trkpt><trkpt lat="42.5653713" lon="12.9979575"><ele>890.0</ele><time>2026-04-26T09:00:59.753Z</time></trkpt><trkpt lat="42.5652814" lon="12.9977832"><ele>890.0</ele><time>2026-04-26T09:01:00.752Z</time></trkpt><trkpt lat="42.5652198" lon="12.9975851"><ele>890.6666666666667</ele><time>2026-04-26T09:01:01.752Z</time></trkpt><trkpt lat="42.5651901" lon="12.9973596"><ele>891.3333333333333</ele><time>2026-04-26T09:01:02.752Z</time></trkpt><trkpt lat="42.5651943" lon="12.9971431"><ele>892.0</ele><time>2026-04-26T09:01:03.751Z</time></trkpt><trkpt lat="42.5652365" lon="12.9969224"><ele>892.0</ele><time>2026-04-26T09:01:04.752Z</time></trkpt><trkpt lat="42.565311" lon="12.9967051"><ele>892.0</ele><time>2026-04-26T09:01:05.751Z</time></trkpt><trkpt lat="42.5654003" lon="12.9964935"><ele>892.0</ele><time>2026-04-26T09:01:06.753Z</time></trkpt><trkpt lat="42.5654778" lon="12.996261"><ele>894.6666666666666</ele><time>2026-04-26T09:01:07.753Z</time></trkpt><trkpt lat="42.5655345" lon="12.9960116"><ele>897.3333333333333</ele><time>2026-04-26T09:01:08.751Z</time></trkpt><trkpt lat="42.5655634" lon="12.9957514"><ele>900.0</ele><time>2026-04-26T09:01:09.752Z</time></trkpt><trkpt lat="42.5655654" lon="12.995495"><ele>900.0</ele><time>2026-04-26T09:01:10.752Z</time></trkpt><trkpt lat="42.565539" lon="12.9952342"><ele>900.0</ele><time>2026-04-26T09:01:11.752Z</time></trkpt><trkpt lat="42.5654894" lon="12.9949784"><ele>900.0</ele><time>2026-04-26T09:01:12.753Z</time></trkpt><trkpt lat="42.5654238" lon="12.9947307"><ele>900.0</ele><time>2026-04-26T09:01:13.751Z</time></trkpt><trkpt lat="42.5653562" lon="12.9944841"><ele>900.0</ele><time>2026-04-26T09:01:14.751Z</time></trkpt><trkpt lat="42.5653088" lon="12.9942223"><ele>900.0</ele><time>2026-04-26T09:01:15.752Z</time></trkpt><trkpt lat="42.5652854" lon="12.9939491"><ele>900.6666666666667</ele><time>2026-04-26T09:01:16.751Z</time></trkpt><trkpt lat="42.5652928" lon="12.993665"><ele>901.3333333333334</ele><time>2026-04-26T09:01:17.753Z</time></trkpt><trkpt lat="42.5653218" lon="12.9933721"><ele>902.0</ele><time>2026-04-26T09:01:18.753Z</time></trkpt><trkpt lat="42.5653539" lon="12.9930692"><ele>905.0</ele><time>2026-04-26T09:01:19.753Z</time></trkpt><trkpt lat="42.5653864" lon="12.9927659"><ele>908.0</ele><time>2026-04-26T09:01:20.752Z</time></trkpt><trkpt lat="42.5654173" lon="12.9924672"><ele>911.0</ele><time>2026-04-26T09:01:21.751Z</time></trkpt><trkpt lat="42.5654511" lon="12.9921736"><ele>912.6666666666667</ele><time>2026-04-26T09:01:22.753Z</time></trkpt><trkpt lat="42.5654863" lon="12.9918845"><ele>914.3333333333333</ele><time>2026-04-26T09:01:23.752Z</time></trkpt><trkpt lat="42.565518" lon="12.9916009"><ele>916.0</ele><time>2026-04-26T09:01:24.752Z</time></trkpt><trkpt lat="42.5655495" lon="12.991323"><ele>916.0</ele><time>2026-04-26T09:01:25.751Z</time></trkpt><trkpt lat="42.5655774" lon="12.9910504"><ele>916.0</ele><time>2026-04-26T09:01:26.753Z</time></trkpt><trkpt lat="42.5656064" lon="12.9907803"><ele>916.0</ele><time>2026-04-26T09:01:27.753Z</time></trkpt><trkpt lat="42.565635" lon="12.9905151"><ele>916.3333333333333</ele><time>2026-04-26T09:01:28.752Z</time></trkpt><trkpt lat="42.5656604" lon="12.990254"><ele>916.6666666666667</ele><time>2026-04-26T09:01:29.751Z</time></trkpt><trkpt lat="42.5656824" lon="12.9899968"><ele>917.0</ele><time>2026-04-26T09:01:30.751Z</time></trkpt><trkpt lat="42.5656989" lon="12.9897315"><ele>918.6666666666667</ele><time>2026-04-26T09:01:31.752Z</time></trkpt><trkpt lat="42.5657082" lon="12.9894603"><ele>920.3333333333333</ele><time>2026-04-26T09:01:32.752Z</time></trkpt><trkpt lat="42.5657115" lon="12.9891849"><ele>922.0</ele><time>2026-04-26T09:01:33.751Z</time></trkpt><trkpt lat="42.5657145" lon="12.9889048"><ele>924.0</ele><time>2026-04-26T09:01:34.752Z</time></trkpt><trkpt lat="42.5657172" lon="12.9886223"><ele>926.0</ele><time>2026-04-26T09:01:35.753Z</time></trkpt><trkpt lat="42.5657219" lon="12.9883418"><ele>928.0</ele><time>2026-04-26T09:01:36.753Z</time></trkpt><trkpt lat="42.5657254" lon="12.9880614"><ele>928.6666666666666</ele><time>2026-04-26T09:01:37.752Z</time></trkpt><trkpt lat="42.5657294" lon="12.9877883"><ele>929.3333333333333</ele><time>2026-04-26T09:01:38.752Z</time></trkpt><trkpt lat="42.5657332" lon="12.9875169"><ele>930.0</ele><time>2026-04-26T09:01:39.752Z</time></trkpt><trkpt lat="42.5657378" lon="12.987254"><ele>930.6666666666667</ele><time>2026-04-26T09:01:40.753Z</time></trkpt><trkpt lat="42.5657427" lon="12.986992"><ele>931.3333333333334</ele><time>2026-04-26T09:01:41.752Z</time></trkpt><trkpt lat="42.5657411" lon="12.98673"><ele>932.0</ele><time>2026-04-26T09:01:42.752Z</time></trkpt><trkpt lat="42.5657318" lon="12.9864733"><ele>932.6666666666667</ele><time>2026-04-26T09:01:43.752Z</time></trkpt><trkpt lat="42.5657059" lon="12.9862197"><ele>933.3333333333333</ele><time>2026-04-26T09:01:44.753Z</time></trkpt><trkpt lat="42.5656725" lon="12.9859649"><ele>934.0</ele><time>2026-04-26T09:01:45.753Z</time></trkpt><trkpt lat="42.5656208" lon="12.9857097"><ele>934.0</ele><time>2026-04-26T09:01:46.752Z</time></trkpt><trkpt lat="42.5655421" lon="12.9854456"><ele>934.0</ele><time>2026-04-26T09:01:47.751Z</time></trkpt><trkpt lat="42.5654426" lon="12.9851829"><ele>934.0</ele><time>2026-04-26T09:01:48.753Z</time></trkpt><trkpt lat="42.565324" lon="12.9849221"><ele>934.6666666666666</ele><time>2026-04-26T09:01:49.751Z</time></trkpt><trkpt lat="42.5651994" lon="12.9846661"><ele>935.3333333333333</ele><time>2026-04-26T09:01:50.751Z</time></trkpt><trkpt lat="42.5650787" lon="12.9844126"><ele>936.0</ele><time>2026-04-26T09:01:51.752Z</time></trkpt><trkpt lat="42.5649659" lon="12.9841719"><ele>937.0</ele><time>2026-04-26T09:01:52.752Z</time></trkpt><trkpt lat="42.5648579" lon="12.9839422"><ele>938.0</ele><time>2026-04-26T09:01:53.752Z</time></trkpt><trkpt lat="42.5647507" lon="12.983709"><ele>939.0</ele><time>2026-04-26T09:01:54.752Z</time></trkpt><trkpt lat="42.5646507" lon="12.9834723"><ele>940.0</ele><time>2026-04-26T09:01:55.753Z</time></trkpt><trkpt lat="42.5645631" lon="12.983225"><ele>941.0</ele><time>2026-04-26T09:01:56.752Z</time></trkpt><trkpt lat="42.5644875" lon="12.9829641"><ele>942.0</ele><time>2026-04-26T09:01:57.752Z</time></trkpt><trkpt lat="42.5644275" lon="12.9826961"><ele>941.0</ele><time>2026-04-26T09:01:58.751Z</time></trkpt><trkpt lat="42.5643853" lon="12.9824253"><ele>940.0</ele><time>2026-04-26T09:01:59.753Z</time></trkpt><trkpt lat="42.5643607" lon="12.9821531"><ele>939.0</ele><time>2026-04-26T09:02:00.753Z</time></trkpt><trkpt lat="42.5643573" lon="12.9818775"><ele>938.3333333333333</ele><time>2026-04-26T09:02:01.753Z</time></trkpt><trkpt lat="42.5643745" lon="12.9815982"><ele>937.6666666666666</ele><time>2026-04-26T09:02:02.752Z</time></trkpt><trkpt lat="42.5644084" lon="12.9813152"><ele>937.0</ele><time>2026-04-26T09:02:03.751Z</time></trkpt><trkpt lat="42.5644669" lon="12.9810422"><ele>939.0</ele><time>2026-04-26T09:02:04.753Z</time></trkpt><trkpt lat="42.5645411" lon="12.9807741"><ele>941.0</ele><time>2026-04-26T09:02:05.751Z</time></trkpt><trkpt lat="42.5646292" lon="12.9805121"><ele>943.0</ele><time>2026-04-26T09:02:06.751Z</time></trkpt><trkpt lat="42.5647243" lon="12.9802496"><ele>943.0</ele><time>2026-04-26T09:02:07.752Z</time></trkpt><trkpt lat="42.5648291" lon="12.9799876"><ele>943.0</ele><time>2026-04-26T09:02:08.752Z</time></trkpt><trkpt lat="42.5649373" lon="12.979724"><ele>943.0</ele><time>2026-04-26T09:02:09.752Z</time></trkpt><trkpt lat="42.5650493" lon="12.9794596"><ele>943.0</ele><time>2026-04-26T09:02:10.752Z</time></trkpt><trkpt lat="42.5651585" lon="12.9791961"><ele>943.0</ele><time>2026-04-26T09:02:11.752Z</time></trkpt><trkpt lat="42.5652676" lon="12.9789316"><ele>943.0</ele><time>2026-04-26T09:02:12.752Z</time></trkpt><trkpt lat="42.5653765" lon="12.9786645"><ele>945.0</ele><time>2026-04-26T09:02:13.752Z</time></trkpt><trkpt lat="42.5654866" lon="12.9783972"><ele>947.0</ele><time>2026-04-26T09:02:14.752Z</time></trkpt><trkpt lat="42.5655946" lon="12.9781289"><ele>947.0</ele><time>2026-04-26T09:02:15.751Z</time></trkpt><trkpt lat="42.5657024" lon="12.9778591"><ele>947.0</ele><time>2026-04-26T09:02:16.751Z</time></trkpt><trkpt lat="42.5658115" lon="12.9775945"><ele>947.0</ele><time>2026-04-26T09:02:17.751Z</time></trkpt><trkpt lat="42.5659228" lon="12.977334"><ele>947.0</ele><time>2026-04-26T09:02:18.752Z</time></trkpt><trkpt lat="42.5660364" lon="12.9770738"><ele>947.0</ele><time>2026-04-26T09:02:19.752Z</time></trkpt><trkpt lat="42.5661478" lon="12.9768169"><ele>947.0</ele><time>2026-04-26T09:02:20.753Z</time></trkpt><trkpt lat="42.5662537" lon="12.9765669"><ele>947.0</ele><time>2026-04-26T09:02:21.753Z</time></trkpt><trkpt lat="42.5663556" lon="12.976319"><ele>947.0</ele><time>2026-04-26T09:02:22.751Z</time></trkpt><trkpt lat="42.5664539" lon="12.9760756"><ele>947.0</ele><time>2026-04-26T09:02:23.752Z</time></trkpt><trkpt lat="42.56655" lon="12.9758415"><ele>947.3333333333334</ele><time>2026-04-26T09:02:24.751Z</time></trkpt><trkpt lat="42.5666453" lon="12.9756109"><ele>947.6666666666667</ele><time>2026-04-26T09:02:25.75Z</time></trkpt><trkpt lat="42.5667384" lon="12.975389"><ele>948.0</ele><time>2026-04-26T09:02:26.751Z</time></trkpt><trkpt lat="42.5668297" lon="12.9751722"><ele>948.6666666666667</ele><time>2026-04-26T09:02:27.75Z</time></trkpt><trkpt lat="42.5669191" lon="12.9749607"><ele>949.3333333333334</ele><time>2026-04-26T09:02:28.752Z</time></trkpt><trkpt lat="42.5670092" lon="12.9747551"><ele>950.0</ele><time>2026-04-26T09:02:29.751Z</time></trkpt><trkpt lat="42.5670958" lon="12.9745522"><ele>950.6666666666667</ele><time>2026-04-26T09:02:30.752Z</time></trkpt><trkpt lat="42.5671789" lon="12.9743572"><ele>951.3333333333333</ele><time>2026-04-26T09:02:31.752Z</time></trkpt><trkpt lat="42.5672613" lon="12.9741698"><ele>952.0</ele><time>2026-04-26T09:02:32.751Z</time></trkpt><trkpt lat="42.5673377" lon="12.9739954"><ele>952.2</ele><time>2026-04-26T09:02:33.751Z</time></trkpt><trkpt lat="42.5674101" lon="12.9738347"><ele>952.4000000000001</ele><time>2026-04-26T09:02:34.751Z</time></trkpt><trkpt lat="42.5674749" lon="12.9736922"><ele>952.5999999999999</ele><time>2026-04-26T09:02:35.751Z</time></trkpt><trkpt lat="42.5675249" lon="12.9735832"><ele>952.8</ele><time>2026-04-26T09:02:36.75Z</time></trkpt><trkpt lat="42.5675625" lon="12.9735039"><ele>953.0</ele><time>2026-04-26T09:02:37.75Z</time></trkpt><trkpt lat="42.5676149" lon="12.973374"><ele>953.0000000000001</ele><time>2026-04-26T09:02:39.752Z</time></trkpt><trkpt lat="42.5676467" lon="12.9732839"><ele>953.0</ele><time>2026-04-26T09:02:42.752Z</time></trkpt><trkpt lat="42.5677048" lon="12.9732381"><ele>953.0</ele><time>2026-04-26T09:11:22.747Z</time></trkpt><trkpt lat="42.5677935" lon="12.9731792"><ele>953.0</ele><time>2026-04-26T09:11:24.747Z</time></trkpt><trkpt lat="42.5678563" lon="12.9731457"><ele>953.0000000000001</ele><time>2026-04-26T09:11:25.747Z</time></trkpt><trkpt lat="42.5679287" lon="12.9731256"><ele>953.0</ele><time>2026-04-26T09:11:26.746Z</time></trkpt><trkpt lat="42.568003" lon="12.9731237"><ele>952.8333333333334</ele><time>2026-04-26T09:11:27.747Z</time></trkpt><trkpt lat="42.5680722" lon="12.9731377"><ele>952.6666666666667</ele><time>2026-04-26T09:11:28.746Z</time></trkpt><trkpt lat="42.5681348" lon="12.9731702"><ele>952.5</ele><time>2026-04-26T09:11:29.746Z</time></trkpt><trkpt lat="42.5681946" lon="12.9732032"><ele>952.3333333333333</ele><time>2026-04-26T09:11:30.746Z</time></trkpt><trkpt lat="42.5682545" lon="12.9732382"><ele>952.1666666666666</ele><time>2026-04-26T09:11:31.746Z</time></trkpt><trkpt lat="42.5683718" lon="12.973272"><ele>952.0</ele><time>2026-04-26T09:11:33.748Z</time></trkpt><trkpt lat="42.568443" lon="12.973266"><ele>952.0</ele><time>2026-04-26T09:11:34.748Z</time></trkpt><trkpt lat="42.5685256" lon="12.9732441"><ele>952.0</ele><time>2026-04-26T09:11:35.748Z</time></trkpt><trkpt lat="42.5686227" lon="12.9732161"><ele>952.0</ele><time>2026-04-26T09:11:36.747Z</time></trkpt><trkpt lat="42.5687254" lon="12.9732066"><ele>952.0</ele><time>2026-04-26T09:11:37.748Z</time></trkpt><trkpt lat="42.5688179" lon="12.9732187"><ele>952.0</ele><time>2026-04-26T09:11:38.748Z</time></trkpt><trkpt lat="42.5688977" lon="12.9732261"><ele>950.8333333333333</ele><time>2026-04-26T09:11:39.747Z</time></trkpt><trkpt lat="42.5689667" lon="12.9732073"><ele>949.6666666666666</ele><time>2026-04-26T09:11:40.748Z</time></trkpt><trkpt lat="42.5690199" lon="12.9731602"><ele>948.5</ele><time>2026-04-26T09:11:41.747Z</time></trkpt><trkpt lat="42.5690714" lon="12.9730419"><ele>947.3333333333333</ele><time>2026-04-26T09:11:43.746Z</time></trkpt><trkpt lat="42.5690577" lon="12.9728881"><ele>946.1666666666666</ele><time>2026-04-26T09:11:45.746Z</time></trkpt><trkpt lat="42.569029" lon="12.9728013"><ele>945.0</ele><time>2026-04-26T09:11:46.748Z</time></trkpt><trkpt lat="42.568997" lon="12.9726995"><ele>945.0</ele><time>2026-04-26T09:11:47.748Z</time></trkpt><trkpt lat="42.5689596" lon="12.9725894"><ele>945.0</ele><time>2026-04-26T09:11:48.746Z</time></trkpt><trkpt lat="42.5689188" lon="12.9724679"><ele>945.0</ele><time>2026-04-26T09:11:49.748Z</time></trkpt><trkpt lat="42.5688815" lon="12.9723366"><ele>945.0</ele><time>2026-04-26T09:11:50.746Z</time></trkpt><trkpt lat="42.5688456" lon="12.9722063"><ele>945.0</ele><time>2026-04-26T09:11:51.746Z</time></trkpt><trkpt lat="42.5688014" lon="12.9720843"><ele>945.2</ele><time>2026-04-26T09:11:52.746Z</time></trkpt><trkpt lat="42.5687585" lon="12.9719766"><ele>945.4</ele><time>2026-04-26T09:11:53.748Z</time></trkpt><trkpt lat="42.568711" lon="12.971873"><ele>945.5999999999999</ele><time>2026-04-26T09:11:54.748Z</time></trkpt><trkpt lat="42.5686521" lon="12.9717727"><ele>945.8</ele><time>2026-04-26T09:11:55.746Z</time></trkpt><trkpt lat="42.5685865" lon="12.9716732"><ele>946.0</ele><time>2026-04-26T09:11:56.748Z</time></trkpt><trkpt lat="42.5685073" lon="12.9715677"><ele>946.75</ele><time>2026-04-26T09:11:57.747Z</time></trkpt><trkpt lat="42.5684142" lon="12.9714793"><ele>947.5</ele><time>2026-04-26T09:11:58.747Z</time></trkpt><trkpt lat="42.5683113" lon="12.9714115"><ele>948.25</ele><time>2026-04-26T09:11:59.746Z</time></trkpt><trkpt lat="42.5681737" lon="12.9713359"><ele>949.0</ele><time>2026-04-26T09:12:00.747Z</time></trkpt><trkpt lat="42.5680254" lon="12.971269"><ele>949.6666666666666</ele><time>2026-04-26T09:12:01.748Z</time></trkpt><trkpt lat="42.5678593" lon="12.9712027"><ele>950.3333333333333</ele><time>2026-04-26T09:12:02.746Z</time></trkpt><trkpt lat="42.5676837" lon="12.971138"><ele>951.0</ele><time>2026-04-26T09:12:03.747Z</time></trkpt><trkpt lat="42.5675046" lon="12.9710692"><ele>951.0</ele><time>2026-04-26T09:12:04.748Z</time></trkpt><trkpt lat="42.5673285" lon="12.9709966"><ele>951.0</ele><time>2026-04-26T09:12:05.747Z</time></trkpt><trkpt lat="42.5671524" lon="12.9709278"><ele>951.0</ele><time>2026-04-26T09:12:06.748Z</time></trkpt><trkpt lat="42.5669781" lon="12.9708631"><ele>951.3333333333333</ele><time>2026-04-26T09:12:07.747Z</time></trkpt><trkpt lat="42.5668051" lon="12.9708026"><ele>951.6666666666666</ele><time>2026-04-26T09:12:08.746Z</time></trkpt><trkpt lat="42.5666416" lon="12.9707409"><ele>952.0</ele><time>2026-04-26T09:12:09.746Z</time></trkpt><trkpt lat="42.5664875" lon="12.9706855"><ele>952.0</ele><time>2026-04-26T09:12:10.748Z</time></trkpt><trkpt lat="42.5663411" lon="12.9706529"><ele>952.0</ele><time>2026-04-26T09:12:11.748Z</time></trkpt><trkpt lat="42.5661937" lon="12.9706383"><ele>952.0</ele><time>2026-04-26T09:12:12.748Z</time></trkpt><trkpt lat="42.5660525" lon="12.9706302"><ele>952.0</ele><time>2026-04-26T09:12:13.747Z</time></trkpt><trkpt lat="42.565922" lon="12.9706202"><ele>953.4000000000001</ele><time>2026-04-26T09:12:14.747Z</time></trkpt><trkpt lat="42.5658088" lon="12.9706014"><ele>954.8000000000001</ele><time>2026-04-26T09:12:15.746Z</time></trkpt><trkpt lat="42.5657104" lon="12.9705705"><ele>956.2</ele><time>2026-04-26T09:12:16.747Z</time></trkpt><trkpt lat="42.5656245" lon="12.9705329"><ele>957.6</ele><time>2026-04-26T09:12:17.748Z</time></trkpt><trkpt lat="42.5655372" lon="12.9704766"><ele>959.0</ele><time>2026-04-26T09:12:18.748Z</time></trkpt><trkpt lat="42.5654438" lon="12.9704011"><ele>958.25</ele><time>2026-04-26T09:12:19.747Z</time></trkpt><trkpt lat="42.5653506" lon="12.9703075"><ele>957.5</ele><time>2026-04-26T09:12:20.747Z</time></trkpt><trkpt lat="42.565254" lon="12.9702092"><ele>956.75</ele><time>2026-04-26T09:12:21.748Z</time></trkpt><trkpt lat="42.565148" lon="12.9700939"><ele>956.0</ele><time>2026-04-26T09:12:22.747Z</time></trkpt><trkpt lat="42.5650225" lon="12.9699656"><ele>956.0</ele><time>2026-04-26T09:12:23.746Z</time></trkpt><trkpt lat="42.5648847" lon="12.9698443"><ele>956.0</ele><time>2026-04-26T09:12:24.746Z</time></trkpt><trkpt lat="42.5647277" lon="12.9697318"><ele>956.0</ele><time>2026-04-26T09:12:25.748Z</time></trkpt><trkpt lat="42.5645698" lon="12.969617"><ele>960.0</ele><time>2026-04-26T09:12:26.748Z</time></trkpt><trkpt lat="42.5644213" lon="12.9694936"><ele>964.0</ele><time>2026-04-26T09:12:27.746Z</time></trkpt><trkpt lat="42.5642707" lon="12.9693748"><ele>968.0</ele><time>2026-04-26T09:12:28.747Z</time></trkpt><trkpt lat="42.5641057" lon="12.969281"><ele>968.0</ele><time>2026-04-26T09:12:29.748Z</time></trkpt><trkpt lat="42.5639313" lon="12.9692005"><ele>968.0</ele><time>2026-04-26T09:12:30.747Z</time></trkpt><trkpt lat="42.5637523" lon="12.9691148"><ele>968.0</ele><time>2026-04-26T09:12:31.748Z</time></trkpt><trkpt lat="42.5635745" lon="12.969021"><ele>965.6666666666667</ele><time>2026-04-26T09:12:32.747Z</time></trkpt><trkpt lat="42.5633957" lon="12.9689319"><ele>963.3333333333333</ele><time>2026-04-26T09:12:33.747Z</time></trkpt><trkpt lat="42.5632164" lon="12.9688502"><ele>961.0</ele><time>2026-04-26T09:12:34.746Z</time></trkpt><trkpt lat="42.5630352" lon="12.9687875"><ele>963.6666666666666</ele><time>2026-04-26T09:12:35.747Z</time></trkpt><trkpt lat="42.5628629" lon="12.9687424"><ele>966.3333333333333</ele><time>2026-04-26T09:12:36.748Z</time></trkpt><trkpt lat="42.5626948" lon="12.9686956"><ele>969.0</ele><time>2026-04-26T09:12:37.748Z</time></trkpt><trkpt lat="42.5625279" lon="12.9686505"><ele>969.0</ele><time>2026-04-26T09:12:38.747Z</time></trkpt><trkpt lat="42.5623534" lon="12.9686227"><ele>969.0</ele><time>2026-04-26T09:12:39.747Z</time></trkpt><trkpt lat="42.5621755" lon="12.9686107"><ele>969.0</ele><time>2026-04-26T09:12:40.747Z</time></trkpt><trkpt lat="42.5619967" lon="12.9686101"><ele>969.0</ele><time>2026-04-26T09:12:41.748Z</time></trkpt><trkpt lat="42.5618184" lon="12.9686014"><ele>969.0</ele><time>2026-04-26T09:12:42.747Z</time></trkpt><trkpt lat="42.5616418" lon="12.9685967"><ele>969.0</ele><time>2026-04-26T09:12:43.747Z</time></trkpt><trkpt lat="42.5614697" lon="12.9685903"><ele>969.0</ele><time>2026-04-26T09:12:44.747Z</time></trkpt><trkpt lat="42.5613056" lon="12.9685931"><ele>969.0</ele><time>2026-04-26T09:12:45.747Z</time></trkpt><trkpt lat="42.5611497" lon="12.9685943"><ele>969.0</ele><time>2026-04-26T09:12:46.746Z</time></trkpt><trkpt lat="42.5609974" lon="12.9685896"><ele>969.25</ele><time>2026-04-26T09:12:47.746Z</time></trkpt><trkpt lat="42.5608504" lon="12.9685788"><ele>969.5</ele><time>2026-04-26T09:12:48.747Z</time></trkpt><trkpt lat="42.5607076" lon="12.9685395"><ele>969.75</ele><time>2026-04-26T09:12:49.747Z</time></trkpt><trkpt lat="42.5605679" lon="12.9684649"><ele>970.0</ele><time>2026-04-26T09:12:50.747Z</time></trkpt><trkpt lat="42.5604324" lon="12.9683612"><ele>968.6666666666666</ele><time>2026-04-26T09:12:51.748Z</time></trkpt><trkpt lat="42.5602983" lon="12.968243"><ele>967.3333333333333</ele><time>2026-04-26T09:12:52.748Z</time></trkpt><trkpt lat="42.5601686" lon="12.9681162"><ele>966.0</ele><time>2026-04-26T09:12:53.748Z</time></trkpt><trkpt lat="42.5600425" lon="12.9679877"><ele>966.0</ele><time>2026-04-26T09:12:54.747Z</time></trkpt><trkpt lat="42.5599225" lon="12.9678584"><ele>966.0</ele><time>2026-04-26T09:12:55.746Z</time></trkpt><trkpt lat="42.5598136" lon="12.9677273"><ele>966.0</ele><time>2026-04-26T09:12:56.746Z</time></trkpt><trkpt lat="42.5597176" lon="12.9675967"><ele>966.0</ele><time>2026-04-26T09:12:57.746Z</time></trkpt><trkpt lat="42.5596362" lon="12.9674725"><ele>967.0</ele><time>2026-04-26T09:12:58.746Z</time></trkpt><trkpt lat="42.5595622" lon="12.9673434"><ele>968.0</ele><time>2026-04-26T09:12:59.746Z</time></trkpt><trkpt lat="42.5594987" lon="12.9672042"><ele>969.0</ele><time>2026-04-26T09:13:00.745Z</time></trkpt><trkpt lat="42.5594472" lon="12.9670701"><ele>970.0</ele><time>2026-04-26T09:13:01.746Z</time></trkpt><trkpt lat="42.5594043" lon="12.966942"><ele>970.0</ele><time>2026-04-26T09:13:02.747Z</time></trkpt><trkpt lat="42.5593773" lon="12.9668233"><ele>970.0</ele><time>2026-04-26T09:13:03.746Z</time></trkpt><trkpt lat="42.5593502" lon="12.9667149"><ele>970.0</ele><time>2026-04-26T09:13:04.747Z</time></trkpt><trkpt lat="42.5593056" lon="12.9666149"><ele>970.0</ele><time>2026-04-26T09:13:05.747Z</time></trkpt><trkpt lat="42.5592397" lon="12.9665248"><ele>970.0</ele><time>2026-04-26T09:13:06.746Z</time></trkpt><trkpt lat="42.5591468" lon="12.966437"><ele>972.0</ele><time>2026-04-26T09:13:07.747Z</time></trkpt><trkpt lat="42.5590378" lon="12.9663539"><ele>974.0</ele><time>2026-04-26T09:13:08.746Z</time></trkpt><trkpt lat="42.5589188" lon="12.9662831"><ele>976.0</ele><time>2026-04-26T09:13:09.747Z</time></trkpt><trkpt lat="42.5587942" lon="12.9662094"><ele>978.0</ele><time>2026-04-26T09:13:10.746Z</time></trkpt><trkpt lat="42.558659" lon="12.966121"><ele>978.0</ele><time>2026-04-26T09:13:11.747Z</time></trkpt><trkpt lat="42.5585153" lon="12.9660256"><ele>978.0</ele><time>2026-04-26T09:13:12.745Z</time></trkpt><trkpt lat="42.5583632" lon="12.9659303"><ele>978.0</ele><time>2026-04-26T09:13:13.746Z</time></trkpt><trkpt lat="42.5582199" lon="12.9658435"><ele>975.8</ele><time>2026-04-26T09:13:14.746Z</time></trkpt><trkpt lat="42.5580948" lon="12.9657678"><ele>973.5999999999999</ele><time>2026-04-26T09:13:15.746Z</time></trkpt><trkpt lat="42.5579825" lon="12.9656927"><ele>971.4000000000001</ele><time>2026-04-26T09:13:16.746Z</time></trkpt><trkpt lat="42.5578922" lon="12.9656286"><ele>969.2</ele><time>2026-04-26T09:13:17.746Z</time></trkpt><trkpt lat="42.5578315" lon="12.9655882"><ele>967.0</ele><time>2026-04-26T09:13:18.747Z</time></trkpt><trkpt lat="42.5577602" lon="12.9655715"><ele>967.0</ele><time>2026-04-26T09:13:20.747Z</time></trkpt><trkpt lat="42.557835" lon="12.9656869"><ele>967.0</ele><time>2026-04-26T09:13:24.747Z</time></trkpt><trkpt lat="42.5579363" lon="12.9657384"><ele>967.0</ele><time>2026-04-26T09:13:25.746Z</time></trkpt><trkpt lat="42.5580468" lon="12.9658018"><ele>967.0</ele><time>2026-04-26T09:13:26.747Z</time></trkpt><trkpt lat="42.5581714" lon="12.9658784"><ele>969.2</ele><time>2026-04-26T09:13:27.746Z</time></trkpt><trkpt lat="42.5582836" lon="12.9659487"><ele>971.4000000000001</ele><time>2026-04-26T09:13:28.746Z</time></trkpt><trkpt lat="42.5583834" lon="12.9660153"><ele>973.5999999999999</ele><time>2026-04-26T09:13:29.746Z</time></trkpt><trkpt lat="42.558458" lon="12.9660653"><ele>975.8</ele><time>2026-04-26T09:13:30.747Z</time></trkpt><trkpt lat="42.5585482" lon="12.966093"><ele>978.0</ele><time>2026-04-26T09:13:32.747Z</time></trkpt><trkpt lat="42.5586537" lon="12.9661803"><ele>972.5</ele><time>2026-04-26T09:14:00.746Z</time></trkpt><trkpt lat="42.5587058" lon="12.9662284"><ele>967.0</ele><time>2026-04-26T09:14:01.746Z</time></trkpt><trkpt lat="42.5587844" lon="12.9663145"><ele>961.5</ele><time>2026-04-26T09:14:03.746Z</time></trkpt><trkpt lat="42.558851" lon="12.9663579"><ele>956.0</ele><time>2026-04-26T09:14:06.745Z</time></trkpt><trkpt lat="42.5589098" lon="12.9664071"><ele>950.5</ele><time>2026-04-26T09:14:21.746Z</time></trkpt><trkpt lat="42.558969" lon="12.9663766"><ele>945.0</ele><time>2026-04-26T09:14:24.745Z</time></trkpt><trkpt lat="42.5588949" lon="12.9662717"><ele>945.0</ele><time>2026-04-26T09:14:27.747Z</time></trkpt><trkpt lat="42.5588158" lon="12.966237"><ele>945.0</ele><time>2026-04-26T09:14:28.747Z</time></trkpt><trkpt lat="42.5587163" lon="12.9661658"><ele>945.0</ele><time>2026-04-26T09:14:29.745Z</time></trkpt><trkpt lat="42.5586067" lon="12.9660872"><ele>945.0</ele><time>2026-04-26T09:14:30.747Z</time></trkpt><trkpt lat="42.55847" lon="12.9659976"><ele>947.3333333333333</ele><time>2026-04-26T09:14:31.746Z</time></trkpt><trkpt lat="42.5583193" lon="12.9659088"><ele>949.6666666666666</ele><time>2026-04-26T09:14:32.745Z</time></trkpt><trkpt lat="42.5581639" lon="12.9658157"><ele>952.0</ele><time>2026-04-26T09:14:33.746Z</time></trkpt><trkpt lat="42.5579949" lon="12.9657163"><ele>957.0</ele><time>2026-04-26T09:14:34.746Z</time></trkpt><trkpt lat="42.5578357" lon="12.9656343"><ele>962.0</ele><time>2026-04-26T09:14:35.747Z</time></trkpt><trkpt lat="42.5576846" lon="12.9655666"><ele>967.0</ele><time>2026-04-26T09:14:36.747Z</time></trkpt><trkpt lat="42.5575329" lon="12.965505"><ele>967.0</ele><time>2026-04-26T09:14:37.746Z</time></trkpt><trkpt lat="42.5573605" lon="12.9654514"><ele>967.0</ele><time>2026-04-26T09:14:38.746Z</time></trkpt><trkpt lat="42.5571758" lon="12.9653897"><ele>967.0</ele><time>2026-04-26T09:14:39.746Z</time></trkpt><trkpt lat="42.5569841" lon="12.9652947"><ele>963.0</ele><time>2026-04-26T09:14:40.745Z</time></trkpt><trkpt lat="42.5568055" lon="12.9651704"><ele>959.0</ele><time>2026-04-26T09:14:41.747Z</time></trkpt><trkpt lat="42.5566373" lon="12.9650435"><ele>955.0</ele><time>2026-04-26T09:14:42.746Z</time></trkpt><trkpt lat="42.5564674" lon="12.9649344"><ele>955.0</ele><time>2026-04-26T09:14:43.746Z</time></trkpt><trkpt lat="42.5562754" lon="12.9648594"><ele>955.0</ele><time>2026-04-26T09:14:44.746Z</time></trkpt><trkpt lat="42.556075" lon="12.9648364"><ele>955.0</ele><time>2026-04-26T09:14:45.746Z</time></trkpt><trkpt lat="42.5558688" lon="12.9648232"><ele>959.0</ele><time>2026-04-26T09:14:46.747Z</time></trkpt><trkpt lat="42.5556595" lon="12.9647847"><ele>963.0</ele><time>2026-04-26T09:14:47.747Z</time></trkpt><trkpt lat="42.555449" lon="12.9647255"><ele>967.0</ele><time>2026-04-26T09:14:48.745Z</time></trkpt><trkpt lat="42.5552468" lon="12.9646297"><ele>973.6666666666666</ele><time>2026-04-26T09:14:49.747Z</time></trkpt><trkpt lat="42.555045" lon="12.9645106"><ele>980.3333333333333</ele><time>2026-04-26T09:14:50.746Z</time></trkpt><trkpt lat="42.5548405" lon="12.9643775"><ele>987.0</ele><time>2026-04-26T09:14:51.747Z</time></trkpt><trkpt lat="42.5546359" lon="12.9642437"><ele>981.3333333333333</ele><time>2026-04-26T09:14:52.746Z</time></trkpt><trkpt lat="42.5544333" lon="12.9641132"><ele>975.6666666666666</ele><time>2026-04-26T09:14:53.745Z</time></trkpt><trkpt lat="42.5542316" lon="12.9639801"><ele>970.0</ele><time>2026-04-26T09:14:54.745Z</time></trkpt><trkpt lat="42.5540338" lon="12.9638496"><ele>970.0</ele><time>2026-04-26T09:14:55.745Z</time></trkpt><trkpt lat="42.5538292" lon="12.9637216"><ele>970.0</ele><time>2026-04-26T09:14:56.746Z</time></trkpt><trkpt lat="42.5536189" lon="12.9636138"><ele>981.0</ele><time>2026-04-26T09:14:57.746Z</time></trkpt><trkpt lat="42.5533986" lon="12.9635258"><ele>992.0</ele><time>2026-04-26T09:14:58.746Z</time></trkpt><trkpt lat="42.5531761" lon="12.9634576"><ele>992.0</ele><time>2026-04-26T09:14:59.746Z</time></trkpt><trkpt lat="42.5529656" lon="12.9633955"><ele>992.0</ele><time>2026-04-26T09:15:00.746Z</time></trkpt><trkpt lat="42.5527741" lon="12.9633295"><ele>992.0</ele><time>2026-04-26T09:15:01.746Z</time></trkpt><trkpt lat="42.5526117" lon="12.9632508"><ele>986.6666666666667</ele><time>2026-04-26T09:15:02.745Z</time></trkpt><trkpt lat="42.5524764" lon="12.9631481"><ele>981.3333333333333</ele><time>2026-04-26T09:15:03.744Z</time></trkpt><trkpt lat="42.5523672" lon="12.9630068"><ele>976.0</ele><time>2026-04-26T09:15:04.744Z</time></trkpt><trkpt lat="42.5522776" lon="12.9628411"><ele>976.0</ele><time>2026-04-26T09:15:05.744Z</time></trkpt><trkpt lat="42.5521774" lon="12.9626896"><ele>976.0</ele><time>2026-04-26T09:15:06.745Z</time></trkpt><trkpt lat="42.5520462" lon="12.9625777"><ele>976.0</ele><time>2026-04-26T09:15:07.744Z</time></trkpt><trkpt lat="42.5518853" lon="12.9625024"><ele>976.0</ele><time>2026-04-26T09:15:08.744Z</time></trkpt><trkpt lat="42.5517074" lon="12.9624467"><ele>976.0</ele><time>2026-04-26T09:15:09.745Z</time></trkpt><trkpt lat="42.5515167" lon="12.9623905"><ele>976.0</ele><time>2026-04-26T09:15:10.744Z</time></trkpt><trkpt lat="42.5513173" lon="12.9623305"><ele>982.3333333333333</ele><time>2026-04-26T09:15:11.745Z</time></trkpt><trkpt lat="42.5511248" lon="12.962271"><ele>988.6666666666667</ele><time>2026-04-26T09:15:12.744Z</time></trkpt><trkpt lat="42.5509337" lon="12.9622156"><ele>995.0</ele><time>2026-04-26T09:15:13.745Z</time></trkpt><trkpt lat="42.5507443" lon="12.9621483"><ele>995.0</ele><time>2026-04-26T09:15:14.745Z</time></trkpt><trkpt lat="42.5505543" lon="12.9620318"><ele>995.0</ele><time>2026-04-26T09:15:15.745Z</time></trkpt><trkpt lat="42.5503694" lon="12.961878"><ele>995.0</ele><time>2026-04-26T09:15:16.746Z</time></trkpt><trkpt lat="42.5501872" lon="12.9617084"><ele>992.0</ele><time>2026-04-26T09:15:17.746Z</time></trkpt><trkpt lat="42.549999" lon="12.9615403"><ele>989.0</ele><time>2026-04-26T09:15:18.745Z</time></trkpt><trkpt lat="42.5498007" lon="12.961378"><ele>989.0</ele><time>2026-04-26T09:15:19.746Z</time></trkpt><trkpt lat="42.5495903" lon="12.9612281"><ele>989.0</ele><time>2026-04-26T09:15:20.745Z</time></trkpt><trkpt lat="42.5493697" lon="12.9610997"><ele>1004.0</ele><time>2026-04-26T09:15:21.746Z</time></trkpt><trkpt lat="42.5491492" lon="12.9609857"><ele>1019.0</ele><time>2026-04-26T09:15:22.746Z</time></trkpt><trkpt lat="42.5489435" lon="12.9608803"><ele>1015.3333333333334</ele><time>2026-04-26T09:15:23.745Z</time></trkpt><trkpt lat="42.5487659" lon="12.9607799"><ele>1011.6666666666667</ele><time>2026-04-26T09:15:24.744Z</time></trkpt><trkpt lat="42.5485962" lon="12.9606783"><ele>1008.0</ele><time>2026-04-26T09:15:25.744Z</time></trkpt><trkpt lat="42.5484466" lon="12.9605436"><ele>1008.0</ele><time>2026-04-26T09:15:26.745Z</time></trkpt><trkpt lat="42.5483146" lon="12.9603721"><ele>1008.0</ele><time>2026-04-26T09:15:27.745Z</time></trkpt><trkpt lat="42.548195" lon="12.9601771"><ele>1008.0</ele><time>2026-04-26T09:15:28.745Z</time></trkpt><trkpt lat="42.5480803" lon="12.9599723"><ele>1012.3333333333333</ele><time>2026-04-26T09:15:29.745Z</time></trkpt><trkpt lat="42.5479563" lon="12.959765"><ele>1016.6666666666666</ele><time>2026-04-26T09:15:30.745Z</time></trkpt><trkpt lat="42.5478243" lon="12.9595611"><ele>1021.0</ele><time>2026-04-26T09:15:31.745Z</time></trkpt><trkpt lat="42.5476875" lon="12.9593473"><ele>1015.6666666666666</ele><time>2026-04-26T09:15:32.745Z</time></trkpt><trkpt lat="42.5475402" lon="12.9591393"><ele>1010.3333333333333</ele><time>2026-04-26T09:15:33.745Z</time></trkpt><trkpt lat="42.5473871" lon="12.9589315"><ele>1005.0</ele><time>2026-04-26T09:15:34.745Z</time></trkpt><trkpt lat="42.547229" lon="12.9587228"><ele>1005.0</ele><time>2026-04-26T09:15:35.745Z</time></trkpt><trkpt lat="42.5470797" lon="12.9585189"><ele>1005.0</ele><time>2026-04-26T09:15:36.745Z</time></trkpt><trkpt lat="42.5469324" lon="12.958317"><ele>1005.0</ele><time>2026-04-26T09:15:37.745Z</time></trkpt><trkpt lat="42.5467921" lon="12.9581233"><ele>1011.0</ele><time>2026-04-26T09:15:38.745Z</time></trkpt><trkpt lat="42.5466512" lon="12.9579395"><ele>1017.0</ele><time>2026-04-26T09:15:39.745Z</time></trkpt><trkpt lat="42.5465128" lon="12.9577573"><ele>1023.0</ele><time>2026-04-26T09:15:40.746Z</time></trkpt><trkpt lat="42.5463592" lon="12.9576011"><ele>1022.6666666666667</ele><time>2026-04-26T09:15:41.746Z</time></trkpt><trkpt lat="42.5461897" lon="12.9574833"><ele>1022.3333333333334</ele><time>2026-04-26T09:15:42.746Z</time></trkpt><trkpt lat="42.5460052" lon="12.9573913"><ele>1022.0</ele><time>2026-04-26T09:15:43.745Z</time></trkpt><trkpt lat="42.5458187" lon="12.9573012"><ele>1022.0</ele><time>2026-04-26T09:15:44.745Z</time></trkpt><trkpt lat="42.5456314" lon="12.9571955"><ele>1022.0</ele><time>2026-04-26T09:15:45.746Z</time></trkpt><trkpt lat="42.5454466" lon="12.9570831"><ele>1022.0</ele><time>2026-04-26T09:15:46.745Z</time></trkpt><trkpt lat="42.5452673" lon="12.9569593"><ele>1020.0</ele><time>2026-04-26T09:15:47.745Z</time></trkpt><trkpt lat="42.5450949" lon="12.9568408"><ele>1018.0</ele><time>2026-04-26T09:15:48.746Z</time></trkpt><trkpt lat="42.5449334" lon="12.9567194"><ele>1016.0</ele><time>2026-04-26T09:15:49.745Z</time></trkpt><trkpt lat="42.5447773" lon="12.9565951"><ele>1016.0</ele><time>2026-04-26T09:15:50.746Z</time></trkpt><trkpt lat="42.5446344" lon="12.9564429"><ele>1016.0</ele><time>2026-04-26T09:15:51.746Z</time></trkpt><trkpt lat="42.5445056" lon="12.9562576"><ele>1016.0</ele><time>2026-04-26T09:15:52.745Z</time></trkpt><trkpt lat="42.544382" lon="12.9560623"><ele>1016.3333333333334</ele><time>2026-04-26T09:15:53.744Z</time></trkpt><trkpt lat="42.5442456" lon="12.9558717"><ele>1016.6666666666667</ele><time>2026-04-26T09:15:54.744Z</time></trkpt><trkpt lat="42.5440953" lon="12.9557066"><ele>1017.0</ele><time>2026-04-26T09:15:55.745Z</time></trkpt><trkpt lat="42.5439401" lon="12.9555706"><ele>1017.0</ele><time>2026-04-26T09:15:56.745Z</time></trkpt><trkpt lat="42.5437866" lon="12.9554253"><ele>1017.0</ele><time>2026-04-26T09:15:57.745Z</time></trkpt><trkpt lat="42.543647" lon="12.9552493"><ele>1017.0</ele><time>2026-04-26T09:15:58.745Z</time></trkpt><trkpt lat="42.54352" lon="12.9550519"><ele>1019.3333333333333</ele><time>2026-04-26T09:15:59.745Z</time></trkpt><trkpt lat="42.5433963" lon="12.9548469"><ele>1021.6666666666666</ele><time>2026-04-26T09:16:00.744Z</time></trkpt><trkpt lat="42.5432705" lon="12.9546458"><ele>1024.0</ele><time>2026-04-26T09:16:01.745Z</time></trkpt><trkpt lat="42.543133" lon="12.954453"><ele>1024.0</ele><time>2026-04-26T09:16:02.744Z</time></trkpt><trkpt lat="42.5429771" lon="12.9542908"><ele>1024.0</ele><time>2026-04-26T09:16:03.745Z</time></trkpt><trkpt lat="42.5428051" lon="12.9541663"><ele>1024.0</ele><time>2026-04-26T09:16:04.746Z</time></trkpt><trkpt lat="42.5426272" lon="12.9540656"><ele>1023.3333333333333</ele><time>2026-04-26T09:16:05.744Z</time></trkpt><trkpt lat="42.5424491" lon="12.9539711"><ele>1022.6666666666667</ele><time>2026-04-26T09:16:06.745Z</time></trkpt><trkpt lat="42.5422666" lon="12.9538798"><ele>1022.0</ele><time>2026-04-26T09:16:07.744Z</time></trkpt><trkpt lat="42.5420827" lon="12.9537761"><ele>1018.6666666666667</ele><time>2026-04-26T09:16:08.744Z</time></trkpt><trkpt lat="42.5419022" lon="12.9536529"><ele>1015.3333333333333</ele><time>2026-04-26T09:16:09.745Z</time></trkpt><trkpt lat="42.5417219" lon="12.9535094"><ele>1012.0</ele><time>2026-04-26T09:16:10.744Z</time></trkpt><trkpt lat="42.5415473" lon="12.9533564"><ele>1012.0</ele><time>2026-04-26T09:16:11.745Z</time></trkpt><trkpt lat="42.5413718" lon="12.9531999"><ele>1012.0</ele><time>2026-04-26T09:16:12.745Z</time></trkpt><trkpt lat="42.5411945" lon="12.953046"><ele>1012.0</ele><time>2026-04-26T09:16:13.745Z</time></trkpt><trkpt lat="42.5410199" lon="12.9528933"><ele>1021.3333333333333</ele><time>2026-04-26T09:16:14.744Z</time></trkpt><trkpt lat="42.5408436" lon="12.9527506"><ele>1030.6666666666667</ele><time>2026-04-26T09:16:15.745Z</time></trkpt><trkpt lat="42.5406557" lon="12.9526419"><ele>1040.0</ele><time>2026-04-26T09:16:16.746Z</time></trkpt><trkpt lat="42.5404628" lon="12.9525731"><ele>1040.0</ele><time>2026-04-26T09:16:17.745Z</time></trkpt><trkpt lat="42.5402621" lon="12.9525541"><ele>1040.0</ele><time>2026-04-26T09:16:18.745Z</time></trkpt><trkpt lat="42.5400551" lon="12.9525764"><ele>1040.0</ele><time>2026-04-26T09:16:19.745Z</time></trkpt><trkpt lat="42.5398494" lon="12.952637"><ele>1040.0</ele><time>2026-04-26T09:16:20.746Z</time></trkpt><trkpt lat="42.539651" lon="12.9527124"><ele>1040.0</ele><time>2026-04-26T09:16:21.746Z</time></trkpt><trkpt lat="42.5394558" lon="12.9527837"><ele>1040.0</ele><time>2026-04-26T09:16:22.745Z</time></trkpt><trkpt lat="42.5392603" lon="12.9528421"><ele>1040.0</ele><time>2026-04-26T09:16:23.746Z</time></trkpt><trkpt lat="42.5390624" lon="12.9528685"><ele>1040.0</ele><time>2026-04-26T09:16:24.745Z</time></trkpt><trkpt lat="42.5388603" lon="12.952853"><ele>1040.0</ele><time>2026-04-26T09:16:25.746Z</time></trkpt><trkpt lat="42.5386599" lon="12.9528236"><ele>1040.0</ele><time>2026-04-26T09:16:26.745Z</time></trkpt><trkpt lat="42.5384599" lon="12.9527844"><ele>1040.0</ele><time>2026-04-26T09:16:27.744Z</time></trkpt><trkpt lat="42.5382622" lon="12.9527488"><ele>1040.0</ele><time>2026-04-26T09:16:28.746Z</time></trkpt><trkpt lat="42.5380677" lon="12.9527079"><ele>1042.6666666666667</ele><time>2026-04-26T09:16:29.744Z</time></trkpt><trkpt lat="42.5378698" lon="12.9526708"><ele>1045.3333333333333</ele><time>2026-04-26T09:16:30.745Z</time></trkpt><trkpt lat="42.5376787" lon="12.9526364"><ele>1048.0</ele><time>2026-04-26T09:16:31.745Z</time></trkpt><trkpt lat="42.5374908" lon="12.9526252"><ele>1048.0</ele><time>2026-04-26T09:16:32.745Z</time></trkpt><trkpt lat="42.5372436" lon="12.9526542"><ele>1048.0</ele><time>2026-04-26T09:16:33.746Z</time></trkpt><trkpt lat="42.5370019" lon="12.9527008"><ele>1050.0</ele><time>2026-04-26T09:16:34.744Z</time></trkpt><trkpt lat="42.5367713" lon="12.9527216"><ele>1052.0</ele><time>2026-04-26T09:16:35.744Z</time></trkpt><trkpt lat="42.5365467" lon="12.9527411"><ele>1052.0</ele><time>2026-04-26T09:16:36.746Z</time></trkpt><trkpt lat="42.536324" lon="12.9527622"><ele>1052.0</ele><time>2026-04-26T09:16:37.746Z</time></trkpt><trkpt lat="42.5361073" lon="12.9527789"><ele>1052.0</ele><time>2026-04-26T09:16:38.745Z</time></trkpt><trkpt lat="42.5358969" lon="12.9528123"><ele>1048.3333333333335</ele><time>2026-04-26T09:16:39.745Z</time></trkpt><trkpt lat="42.5356907" lon="12.9528937"><ele>1044.6666666666667</ele><time>2026-04-26T09:16:40.745Z</time></trkpt><trkpt lat="42.5354949" lon="12.9530069"><ele>1041.0</ele><time>2026-04-26T09:16:41.746Z</time></trkpt><trkpt lat="42.5353176" lon="12.9531317"><ele>1040.6666666666667</ele><time>2026-04-26T09:16:42.745Z</time></trkpt><trkpt lat="42.5351569" lon="12.9532705"><ele>1040.3333333333335</ele><time>2026-04-26T09:16:43.745Z</time></trkpt><trkpt lat="42.5350176" lon="12.9534258"><ele>1040.0</ele><time>2026-04-26T09:16:44.745Z</time></trkpt><trkpt lat="42.5348927" lon="12.9535802"><ele>1040.0</ele><time>2026-04-26T09:16:45.745Z</time></trkpt><trkpt lat="42.5347774" lon="12.9537309"><ele>1040.0</ele><time>2026-04-26T09:16:46.745Z</time></trkpt><trkpt lat="42.5346622" lon="12.953867"><ele>1040.0</ele><time>2026-04-26T09:16:47.745Z</time></trkpt><trkpt lat="42.5345359" lon="12.9539966"><ele>1045.0</ele><time>2026-04-26T09:16:48.745Z</time></trkpt><trkpt lat="42.5343804" lon="12.954088"><ele>1050.0</ele><time>2026-04-26T09:16:49.745Z</time></trkpt><trkpt lat="42.5342387" lon="12.9541895"><ele>1055.0</ele><time>2026-04-26T09:16:50.745Z</time></trkpt><trkpt lat="42.5341089" lon="12.9542969"><ele>1055.0</ele><time>2026-04-26T09:16:51.746Z</time></trkpt><trkpt lat="42.5339735" lon="12.9543984"><ele>1055.0</ele><time>2026-04-26T09:16:52.746Z</time></trkpt><trkpt lat="42.5338098" lon="12.9544488"><ele>1055.0</ele><time>2026-04-26T09:16:53.745Z</time></trkpt><trkpt lat="42.5336359" lon="12.9544756"><ele>1053.6666666666667</ele><time>2026-04-26T09:16:54.744Z</time></trkpt><trkpt lat="42.5334745" lon="12.9545182"><ele>1052.3333333333333</ele><time>2026-04-26T09:16:55.746Z</time></trkpt><trkpt lat="42.5333339" lon="12.9545978"><ele>1051.0</ele><time>2026-04-26T09:16:56.746Z</time></trkpt><trkpt lat="42.5331928" lon="12.9546436"><ele>1051.0</ele><time>2026-04-26T09:16:57.746Z</time></trkpt><trkpt lat="42.5330429" lon="12.9546398"><ele>1051.0</ele><time>2026-04-26T09:16:58.745Z</time></trkpt><trkpt lat="42.5328724" lon="12.9546048"><ele>1051.0</ele><time>2026-04-26T09:16:59.746Z</time></trkpt><trkpt lat="42.5327" lon="12.9545498"><ele>1050.6666666666665</ele><time>2026-04-26T09:17:00.746Z</time></trkpt><trkpt lat="42.532509" lon="12.9545166"><ele>1050.3333333333333</ele><time>2026-04-26T09:17:01.744Z</time></trkpt><trkpt lat="42.5323156" lon="12.9545226"><ele>1050.0</ele><time>2026-04-26T09:17:02.745Z</time></trkpt><trkpt lat="42.5321226" lon="12.9545464"><ele>1052.3333333333333</ele><time>2026-04-26T09:17:03.745Z</time></trkpt><trkpt lat="42.531943" lon="12.9546221"><ele>1054.6666666666665</ele><time>2026-04-26T09:17:04.745Z</time></trkpt><trkpt lat="42.5317737" lon="12.9547202"><ele>1057.0</ele><time>2026-04-26T09:17:05.745Z</time></trkpt><trkpt lat="42.5316178" lon="12.9548076"><ele>1057.0</ele><time>2026-04-26T09:17:06.745Z</time></trkpt><trkpt lat="42.5314615" lon="12.9548615"><ele>1057.0</ele><time>2026-04-26T09:17:07.746Z</time></trkpt><trkpt lat="42.5312906" lon="12.9548928"><ele>1057.0</ele><time>2026-04-26T09:17:08.745Z</time></trkpt><trkpt lat="42.5311366" lon="12.9548494"><ele>1058.3333333333333</ele><time>2026-04-26T09:17:09.746Z</time></trkpt><trkpt lat="42.5309667" lon="12.9548783"><ele>1059.6666666666667</ele><time>2026-04-26T09:17:10.745Z</time></trkpt><trkpt lat="42.5307986" lon="12.9549797"><ele>1061.0</ele><time>2026-04-26T09:17:11.744Z</time></trkpt><trkpt lat="42.5306266" lon="12.9550793"><ele>1061.0</ele><time>2026-04-26T09:17:12.746Z</time></trkpt><trkpt lat="42.5304489" lon="12.9551774"><ele>1061.0</ele><time>2026-04-26T09:17:13.745Z</time></trkpt><trkpt lat="42.5302777" lon="12.9553017"><ele>1061.0</ele><time>2026-04-26T09:17:14.744Z</time></trkpt><trkpt lat="42.5301029" lon="12.9554327"><ele>1059.6666666666667</ele><time>2026-04-26T09:17:15.745Z</time></trkpt><trkpt lat="42.5299174" lon="12.9555381"><ele>1058.3333333333333</ele><time>2026-04-26T09:17:16.745Z</time></trkpt><trkpt lat="42.5297391" lon="12.9556682"><ele>1057.0</ele><time>2026-04-26T09:17:17.746Z</time></trkpt><trkpt lat="42.5295848" lon="12.9558004"><ele>1057.3333333333333</ele><time>2026-04-26T09:17:18.746Z</time></trkpt><trkpt lat="42.5294377" lon="12.9559348"><ele>1057.6666666666667</ele><time>2026-04-26T09:17:19.746Z</time></trkpt><trkpt lat="42.5292946" lon="12.9560731"><ele>1058.0</ele><time>2026-04-26T09:17:20.745Z</time></trkpt><trkpt lat="42.529157" lon="12.9562019"><ele>1058.0</ele><time>2026-04-26T09:17:21.745Z</time></trkpt><trkpt lat="42.5290238" lon="12.9563115"><ele>1058.0</ele><time>2026-04-26T09:17:22.743Z</time></trkpt><trkpt lat="42.528886" lon="12.9564"><ele>1058.0</ele><time>2026-04-26T09:17:23.744Z</time></trkpt><trkpt lat="42.5287308" lon="12.9564582"><ele>1066.6666666666667</ele><time>2026-04-26T09:17:24.745Z</time></trkpt><trkpt lat="42.5285672" lon="12.9564814"><ele>1075.3333333333333</ele><time>2026-04-26T09:17:25.744Z</time></trkpt><trkpt lat="42.5283954" lon="12.9564866"><ele>1084.0</ele><time>2026-04-26T09:17:26.743Z</time></trkpt><trkpt lat="42.5282217" lon="12.9565239"><ele>1084.0</ele><time>2026-04-26T09:17:27.743Z</time></trkpt><trkpt lat="42.5280602" lon="12.9566253"><ele>1084.0</ele><time>2026-04-26T09:17:28.744Z</time></trkpt><trkpt lat="42.5279093" lon="12.9566951"><ele>1084.0</ele><time>2026-04-26T09:17:29.745Z</time></trkpt><trkpt lat="42.5277352" lon="12.956735"><ele>1085.6666666666665</ele><time>2026-04-26T09:17:30.745Z</time></trkpt><trkpt lat="42.5275604" lon="12.9567537"><ele>1087.3333333333333</ele><time>2026-04-26T09:17:31.744Z</time></trkpt><trkpt lat="42.5273896" lon="12.9567404"><ele>1089.0</ele><time>2026-04-26T09:17:32.744Z</time></trkpt><trkpt lat="42.5272326" lon="12.9567084"><ele>1092.0</ele><time>2026-04-26T09:17:33.744Z</time></trkpt><trkpt lat="42.5270801" lon="12.9566761"><ele>1095.0</ele><time>2026-04-26T09:17:34.744Z</time></trkpt><trkpt lat="42.5269227" lon="12.9567133"><ele>1098.0</ele><time>2026-04-26T09:17:35.743Z</time></trkpt><trkpt lat="42.5267691" lon="12.9567703"><ele>1090.0</ele><time>2026-04-26T09:17:36.744Z</time></trkpt><trkpt lat="42.5266137" lon="12.9568962"><ele>1082.0</ele><time>2026-04-26T09:17:37.744Z</time></trkpt><trkpt lat="42.5264498" lon="12.9569758"><ele>1074.0</ele><time>2026-04-26T09:17:38.744Z</time></trkpt><trkpt lat="42.5262954" lon="12.9570658"><ele>1074.0</ele><time>2026-04-26T09:17:39.744Z</time></trkpt><trkpt lat="42.5261563" lon="12.9571581"><ele>1074.0</ele><time>2026-04-26T09:17:40.744Z</time></trkpt><trkpt lat="42.5260406" lon="12.9572892"><ele>1074.0</ele><time>2026-04-26T09:17:41.745Z</time></trkpt><trkpt lat="42.5259055" lon="12.9573723"><ele>1074.0</ele><time>2026-04-26T09:17:42.744Z</time></trkpt><trkpt lat="42.5257551" lon="12.957444"><ele>1074.0</ele><time>2026-04-26T09:17:43.744Z</time></trkpt><trkpt lat="42.525594" lon="12.9575168"><ele>1074.0</ele><time>2026-04-26T09:17:44.744Z</time></trkpt><trkpt lat="42.5254229" lon="12.9575926"><ele>1073.3333333333333</ele><time>2026-04-26T09:17:45.744Z</time></trkpt><trkpt lat="42.5252492" lon="12.9576625"><ele>1072.6666666666665</ele><time>2026-04-26T09:17:46.745Z</time></trkpt><trkpt lat="42.5250624" lon="12.9577328"><ele>1072.0</ele><time>2026-04-26T09:17:47.745Z</time></trkpt><trkpt lat="42.5248694" lon="12.9578203"><ele>1072.0</ele><time>2026-04-26T09:17:48.745Z</time></trkpt><trkpt lat="42.5246864" lon="12.9579222"><ele>1072.0</ele><time>2026-04-26T09:17:49.745Z</time></trkpt><trkpt lat="42.5245053" lon="12.9580295"><ele>1072.0</ele><time>2026-04-26T09:17:50.744Z</time></trkpt><trkpt lat="42.5243263" lon="12.9581418"><ele>1077.0</ele><time>2026-04-26T09:17:51.743Z</time></trkpt><trkpt lat="42.524146" lon="12.9582567"><ele>1082.0</ele><time>2026-04-26T09:17:52.744Z</time></trkpt><trkpt lat="42.5239832" lon="12.9583862"><ele>1087.0</ele><time>2026-04-26T09:17:53.745Z</time></trkpt><trkpt lat="42.5238281" lon="12.9585068"><ele>1090.0</ele><time>2026-04-26T09:17:54.744Z</time></trkpt><trkpt lat="42.5236776" lon="12.9586268"><ele>1093.0</ele><time>2026-04-26T09:17:55.745Z</time></trkpt><trkpt lat="42.5235283" lon="12.9587553"><ele>1096.0</ele><time>2026-04-26T09:17:56.745Z</time></trkpt><trkpt lat="42.5233859" lon="12.9588939"><ele>1096.0</ele><time>2026-04-26T09:17:57.744Z</time></trkpt><trkpt lat="42.5232646" lon="12.9590099"><ele>1096.0</ele><time>2026-04-26T09:17:58.743Z</time></trkpt><trkpt lat="42.523164" lon="12.9591621"><ele>1096.0</ele><time>2026-04-26T09:17:59.744Z</time></trkpt><trkpt lat="42.5230703" lon="12.9593184"><ele>1096.0</ele><time>2026-04-26T09:18:00.745Z</time></trkpt><trkpt lat="42.5229561" lon="12.9594216"><ele>1094.6666666666665</ele><time>2026-04-26T09:18:01.745Z</time></trkpt><trkpt lat="42.5228153" lon="12.9594848"><ele>1093.3333333333333</ele><time>2026-04-26T09:18:02.744Z</time></trkpt><trkpt lat="42.5226712" lon="12.9595378"><ele>1092.0</ele><time>2026-04-26T09:18:03.744Z</time></trkpt><trkpt lat="42.5225255" lon="12.9596248"><ele>1092.0</ele><time>2026-04-26T09:18:04.744Z</time></trkpt><trkpt lat="42.522395" lon="12.9597477"><ele>1092.0</ele><time>2026-04-26T09:18:05.745Z</time></trkpt><trkpt lat="42.5222848" lon="12.9599297"><ele>1092.0</ele><time>2026-04-26T09:18:06.743Z</time></trkpt><trkpt lat="42.5221915" lon="12.9601126"><ele>1091.0</ele><time>2026-04-26T09:18:07.743Z</time></trkpt><trkpt lat="42.5220686" lon="12.9603342"><ele>1090.0</ele><time>2026-04-26T09:18:08.743Z</time></trkpt><trkpt lat="42.5219422" lon="12.9605227"><ele>1089.0</ele><time>2026-04-26T09:18:09.744Z</time></trkpt><trkpt lat="42.5217927" lon="12.9606856"><ele>1090.0</ele><time>2026-04-26T09:18:10.744Z</time></trkpt><trkpt lat="42.5216423" lon="12.9608553"><ele>1091.0</ele><time>2026-04-26T09:18:11.745Z</time></trkpt><trkpt lat="42.5214963" lon="12.961033"><ele>1092.0</ele><time>2026-04-26T09:18:12.744Z</time></trkpt><trkpt lat="42.5213582" lon="12.9612018"><ele>1102.0</ele><time>2026-04-26T09:18:13.744Z</time></trkpt><trkpt lat="42.5212189" lon="12.9613605"><ele>1112.0</ele><time>2026-04-26T09:18:14.745Z</time></trkpt><trkpt lat="42.5210952" lon="12.9615169"><ele>1122.0</ele><time>2026-04-26T09:18:15.744Z</time></trkpt><trkpt lat="42.5209841" lon="12.9616979"><ele>1117.0</ele><time>2026-04-26T09:18:16.745Z</time></trkpt><trkpt lat="42.5208944" lon="12.9619174"><ele>1112.0</ele><time>2026-04-26T09:18:17.743Z</time></trkpt><trkpt lat="42.5208432" lon="12.9621653"><ele>1107.0</ele><time>2026-04-26T09:18:18.745Z</time></trkpt><trkpt lat="42.5207832" lon="12.9624011"><ele>1103.0</ele><time>2026-04-26T09:18:19.745Z</time></trkpt><trkpt lat="42.5207172" lon="12.962639"><ele>1099.0</ele><time>2026-04-26T09:18:20.743Z</time></trkpt><trkpt lat="42.5206464" lon="12.9628552"><ele>1095.0</ele><time>2026-04-26T09:18:21.743Z</time></trkpt><trkpt lat="42.5205827" lon="12.9630813"><ele>1095.0</ele><time>2026-04-26T09:18:22.745Z</time></trkpt><trkpt lat="42.5205593" lon="12.963325"><ele>1095.0</ele><time>2026-04-26T09:18:23.743Z</time></trkpt><trkpt lat="42.5205472" lon="12.9635704"><ele>1095.0</ele><time>2026-04-26T09:18:24.744Z</time></trkpt><trkpt lat="42.520543" lon="12.9638149"><ele>1094.0</ele><time>2026-04-26T09:18:25.744Z</time></trkpt><trkpt lat="42.520527" lon="12.964047"><ele>1093.0</ele><time>2026-04-26T09:18:26.745Z</time></trkpt><trkpt lat="42.5204821" lon="12.9642784"><ele>1092.0</ele><time>2026-04-26T09:18:27.745Z</time></trkpt><trkpt lat="42.5204183" lon="12.9645099"><ele>1101.0</ele><time>2026-04-26T09:18:28.745Z</time></trkpt><trkpt lat="42.520353" lon="12.9647522"><ele>1110.0</ele><time>2026-04-26T09:18:29.744Z</time></trkpt><trkpt lat="42.5203084" lon="12.9650127"><ele>1119.0</ele><time>2026-04-26T09:18:30.744Z</time></trkpt><trkpt lat="42.520288" lon="12.9652846"><ele>1119.0</ele><time>2026-04-26T09:18:31.744Z</time></trkpt><trkpt lat="42.5202732" lon="12.9655556"><ele>1119.0</ele><time>2026-04-26T09:18:32.745Z</time></trkpt><trkpt lat="42.5202387" lon="12.9658319"><ele>1119.0</ele><time>2026-04-26T09:18:33.744Z</time></trkpt><trkpt lat="42.5201941" lon="12.9661041"><ele>1119.0</ele><time>2026-04-26T09:18:34.744Z</time></trkpt><trkpt lat="42.5201487" lon="12.9663704"><ele>1119.0</ele><time>2026-04-26T09:18:35.745Z</time></trkpt><trkpt lat="42.5200962" lon="12.9666338"><ele>1119.0</ele><time>2026-04-26T09:18:36.744Z</time></trkpt><trkpt lat="42.5200251" lon="12.9668871"><ele>1116.0</ele><time>2026-04-26T09:18:37.745Z</time></trkpt><trkpt lat="42.5199384" lon="12.9671363"><ele>1113.0</ele><time>2026-04-26T09:18:38.745Z</time></trkpt><trkpt lat="42.5198568" lon="12.9673831"><ele>1110.0</ele><time>2026-04-26T09:18:39.744Z</time></trkpt><trkpt lat="42.5198011" lon="12.9676366"><ele>1109.6666666666667</ele><time>2026-04-26T09:18:40.744Z</time></trkpt><trkpt lat="42.5197638" lon="12.9678819"><ele>1109.3333333333335</ele><time>2026-04-26T09:18:41.744Z</time></trkpt><trkpt lat="42.5197368" lon="12.9681174"><ele>1109.0</ele><time>2026-04-26T09:18:42.744Z</time></trkpt><trkpt lat="42.5197043" lon="12.9683472"><ele>1109.0</ele><time>2026-04-26T09:18:43.743Z</time></trkpt><trkpt lat="42.519645" lon="12.9685684"><ele>1109.0</ele><time>2026-04-26T09:18:44.744Z</time></trkpt><trkpt lat="42.5195695" lon="12.9687598"><ele>1109.0</ele><time>2026-04-26T09:18:45.744Z</time></trkpt><trkpt lat="42.5194866" lon="12.9689335"><ele>1115.6666666666667</ele><time>2026-04-26T09:18:46.745Z</time></trkpt><trkpt lat="42.5194176" lon="12.9691219"><ele>1122.3333333333333</ele><time>2026-04-26T09:18:47.744Z</time></trkpt><trkpt lat="42.519424" lon="12.9693455"><ele>1129.0</ele><time>2026-04-26T09:18:48.744Z</time></trkpt><trkpt lat="42.5194025" lon="12.9695684"><ele>1129.0</ele><time>2026-04-26T09:18:49.744Z</time></trkpt><trkpt lat="42.5194197" lon="12.9698065"><ele>1129.0</ele><time>2026-04-26T09:18:50.745Z</time></trkpt><trkpt lat="42.5193891" lon="12.9700481"><ele>1129.0</ele><time>2026-04-26T09:18:51.744Z</time></trkpt><trkpt lat="42.519331" lon="12.9702813"><ele>1130.0</ele><time>2026-04-26T09:18:52.743Z</time></trkpt><trkpt lat="42.5192955" lon="12.9705262"><ele>1131.0</ele><time>2026-04-26T09:18:53.743Z</time></trkpt><trkpt lat="42.51931" lon="12.9707871"><ele>1132.0</ele><time>2026-04-26T09:18:54.745Z</time></trkpt><trkpt lat="42.5193336" lon="12.9710431"><ele>1132.3333333333333</ele><time>2026-04-26T09:18:55.743Z</time></trkpt><trkpt lat="42.5193525" lon="12.9712953"><ele>1132.6666666666667</ele><time>2026-04-26T09:18:56.743Z</time></trkpt><trkpt lat="42.519354" lon="12.9715481"><ele>1133.0</ele><time>2026-04-26T09:18:57.743Z</time></trkpt><trkpt lat="42.5193424" lon="12.9718115"><ele>1134.3333333333335</ele><time>2026-04-26T09:18:58.744Z</time></trkpt><trkpt lat="42.5193171" lon="12.9720812"><ele>1135.6666666666667</ele><time>2026-04-26T09:18:59.743Z</time></trkpt><trkpt lat="42.5192818" lon="12.9723583"><ele>1137.0</ele><time>2026-04-26T09:19:00.743Z</time></trkpt><trkpt lat="42.5192453" lon="12.9726423"><ele>1134.0</ele><time>2026-04-26T09:19:01.745Z</time></trkpt><trkpt lat="42.5192169" lon="12.9729317"><ele>1131.0</ele><time>2026-04-26T09:19:02.744Z</time></trkpt><trkpt lat="42.5191957" lon="12.9732285"><ele>1128.0</ele><time>2026-04-26T09:19:03.745Z</time></trkpt><trkpt lat="42.5191788" lon="12.9735297"><ele>1127.3333333333333</ele><time>2026-04-26T09:19:04.743Z</time></trkpt><trkpt lat="42.5191655" lon="12.9738245"><ele>1126.6666666666665</ele><time>2026-04-26T09:19:05.743Z</time></trkpt><trkpt lat="42.5191515" lon="12.974119"><ele>1126.0</ele><time>2026-04-26T09:19:06.744Z</time></trkpt><trkpt lat="42.5191347" lon="12.9744075"><ele>1126.0</ele><time>2026-04-26T09:19:07.744Z</time></trkpt><trkpt lat="42.5191102" lon="12.9746927"><ele>1126.0</ele><time>2026-04-26T09:19:08.745Z</time></trkpt><trkpt lat="42.5190744" lon="12.9749727"><ele>1126.0</ele><time>2026-04-26T09:19:09.744Z</time></trkpt><trkpt lat="42.5190272" lon="12.9752463"><ele>1125.0</ele><time>2026-04-26T09:19:10.743Z</time></trkpt><trkpt lat="42.5189745" lon="12.9755159"><ele>1124.0</ele><time>2026-04-26T09:19:11.745Z</time></trkpt><trkpt lat="42.5189203" lon="12.9757814"><ele>1123.0</ele><time>2026-04-26T09:19:12.745Z</time></trkpt><trkpt lat="42.518871" lon="12.9760458"><ele>1122.0</ele><time>2026-04-26T09:19:13.744Z</time></trkpt><trkpt lat="42.5188195" lon="12.9763078"><ele>1121.0</ele><time>2026-04-26T09:19:14.743Z</time></trkpt><trkpt lat="42.5187706" lon="12.9765682"><ele>1120.0</ele><time>2026-04-26T09:19:15.743Z</time></trkpt><trkpt lat="42.5187327" lon="12.9768301"><ele>1131.0</ele><time>2026-04-26T09:19:16.745Z</time></trkpt><trkpt lat="42.5187072" lon="12.9770909"><ele>1142.0</ele><time>2026-04-26T09:19:17.744Z</time></trkpt><trkpt lat="42.5186893" lon="12.9773448"><ele>1153.0</ele><time>2026-04-26T09:19:18.744Z</time></trkpt><trkpt lat="42.5186761" lon="12.9776073"><ele>1153.0</ele><time>2026-04-26T09:19:19.743Z</time></trkpt><trkpt lat="42.5186814" lon="12.9778692"><ele>1153.0</ele><time>2026-04-26T09:19:20.744Z</time></trkpt><trkpt lat="42.5187207" lon="12.9781301"><ele>1153.0</ele><time>2026-04-26T09:19:21.745Z</time></trkpt><trkpt lat="42.5187596" lon="12.9783806"><ele>1144.0</ele><time>2026-04-26T09:19:22.745Z</time></trkpt><trkpt lat="42.5187987" lon="12.9786304"><ele>1135.0</ele><time>2026-04-26T09:19:23.744Z</time></trkpt><trkpt lat="42.5188257" lon="12.9788803"><ele>1126.0</ele><time>2026-04-26T09:19:24.743Z</time></trkpt><trkpt lat="42.518837" lon="12.9791213"><ele>1127.6666666666665</ele><time>2026-04-26T09:19:25.745Z</time></trkpt><trkpt lat="42.518831" lon="12.9793593"><ele>1129.3333333333333</ele><time>2026-04-26T09:19:26.745Z</time></trkpt><trkpt lat="42.5188201" lon="12.9796007"><ele>1131.0</ele><time>2026-04-26T09:19:27.745Z</time></trkpt><trkpt lat="42.5188084" lon="12.9798384"><ele>1132.0</ele><time>2026-04-26T09:19:28.745Z</time></trkpt><trkpt lat="42.5187943" lon="12.9800669"><ele>1133.0</ele><time>2026-04-26T09:19:29.744Z</time></trkpt><trkpt lat="42.5187763" lon="12.9802896"><ele>1134.0</ele><time>2026-04-26T09:19:30.745Z</time></trkpt><trkpt lat="42.5187441" lon="12.9805109"><ele>1136.0</ele><time>2026-04-26T09:19:31.745Z</time></trkpt><trkpt lat="42.5186924" lon="12.980741"><ele>1138.0</ele><time>2026-04-26T09:19:32.744Z</time></trkpt><trkpt lat="42.5186148" lon="12.9809662"><ele>1140.0</ele><time>2026-04-26T09:19:33.744Z</time></trkpt><trkpt lat="42.5185222" lon="12.9812063"><ele>1140.0</ele><time>2026-04-26T09:19:34.745Z</time></trkpt><trkpt lat="42.5184356" lon="12.981462"><ele>1140.0</ele><time>2026-04-26T09:19:35.744Z</time></trkpt><trkpt lat="42.5183708" lon="12.9817341"><ele>1140.0</ele><time>2026-04-26T09:19:36.743Z</time></trkpt><trkpt lat="42.5183113" lon="12.982003"><ele>1140.0</ele><time>2026-04-26T09:19:37.745Z</time></trkpt><trkpt lat="42.5182542" lon="12.9822655"><ele>1140.0</ele><time>2026-04-26T09:19:38.745Z</time></trkpt><trkpt lat="42.5181864" lon="12.9825277"><ele>1140.0</ele><time>2026-04-26T09:19:39.745Z</time></trkpt><trkpt lat="42.5181021" lon="12.9827844"><ele>1140.0</ele><time>2026-04-26T09:19:40.743Z</time></trkpt><trkpt lat="42.5180126" lon="12.9830391"><ele>1140.0</ele><time>2026-04-26T09:19:41.744Z</time></trkpt><trkpt lat="42.517924" lon="12.9832963"><ele>1140.0</ele><time>2026-04-26T09:19:42.744Z</time></trkpt><trkpt lat="42.5178421" lon="12.9835479"><ele>1142.3333333333333</ele><time>2026-04-26T09:19:43.745Z</time></trkpt><trkpt lat="42.517764" lon="12.9837812"><ele>1144.6666666666665</ele><time>2026-04-26T09:19:44.743Z</time></trkpt><trkpt lat="42.5176931" lon="12.9840021"><ele>1147.0</ele><time>2026-04-26T09:19:45.745Z</time></trkpt><trkpt lat="42.5176242" lon="12.984202"><ele>1147.0</ele><time>2026-04-26T09:19:46.745Z</time></trkpt><trkpt lat="42.5175329" lon="12.984388"><ele>1147.0</ele><time>2026-04-26T09:19:47.745Z</time></trkpt><trkpt lat="42.5174095" lon="12.9845575"><ele>1147.0</ele><time>2026-04-26T09:19:48.745Z</time></trkpt><trkpt lat="42.5172615" lon="12.9847046"><ele>1147.0</ele><time>2026-04-26T09:19:49.745Z</time></trkpt><trkpt lat="42.5170929" lon="12.9848216"><ele>1147.0</ele><time>2026-04-26T09:19:50.743Z</time></trkpt><trkpt lat="42.5169213" lon="12.9849361"><ele>1147.0</ele><time>2026-04-26T09:19:51.744Z</time></trkpt><trkpt lat="42.5167576" lon="12.9850503"><ele>1149.0</ele><time>2026-04-26T09:19:52.744Z</time></trkpt><trkpt lat="42.5166071" lon="12.9851525"><ele>1151.0</ele><time>2026-04-26T09:19:53.743Z</time></trkpt><trkpt lat="42.5164633" lon="12.98525"><ele>1153.0</ele><time>2026-04-26T09:19:54.745Z</time></trkpt><trkpt lat="42.5163362" lon="12.9853528"><ele>1155.3333333333333</ele><time>2026-04-26T09:19:55.743Z</time></trkpt><trkpt lat="42.5162264" lon="12.9854916"><ele>1157.6666666666667</ele><time>2026-04-26T09:19:56.745Z</time></trkpt><trkpt lat="42.5161463" lon="12.9856585"><ele>1160.0</ele><time>2026-04-26T09:19:57.745Z</time></trkpt><trkpt lat="42.5160937" lon="12.9858636"><ele>1160.0</ele><time>2026-04-26T09:19:58.744Z</time></trkpt><trkpt lat="42.5160914" lon="12.9860825"><ele>1160.0</ele><time>2026-04-26T09:19:59.745Z</time></trkpt><trkpt lat="42.5160832" lon="12.986313"><ele>1160.0</ele><time>2026-04-26T09:20:00.745Z</time></trkpt><trkpt lat="42.5160721" lon="12.9865503"><ele>1160.6666666666667</ele><time>2026-04-26T09:20:01.744Z</time></trkpt><trkpt lat="42.5160616" lon="12.986793"><ele>1161.3333333333333</ele><time>2026-04-26T09:20:02.744Z</time></trkpt><trkpt lat="42.5160482" lon="12.9870356"><ele>1162.0</ele><time>2026-04-26T09:20:03.744Z</time></trkpt><trkpt lat="42.5160389" lon="12.9872778"><ele>1162.0</ele><time>2026-04-26T09:20:04.745Z</time></trkpt><trkpt lat="42.5160303" lon="12.9875039"><ele>1162.0</ele><time>2026-04-26T09:20:05.745Z</time></trkpt><trkpt lat="42.5160238" lon="12.9877129"><ele>1162.0</ele><time>2026-04-26T09:20:06.745Z</time></trkpt><trkpt lat="42.5160173" lon="12.9879076"><ele>1163.75</ele><time>2026-04-26T09:20:07.744Z</time></trkpt><trkpt lat="42.5160085" lon="12.9880974"><ele>1165.5</ele><time>2026-04-26T09:20:08.743Z</time></trkpt><trkpt lat="42.5159852" lon="12.9882725"><ele>1167.25</ele><time>2026-04-26T09:20:09.742Z</time></trkpt><trkpt lat="42.5159363" lon="12.9884349"><ele>1169.0</ele><time>2026-04-26T09:20:10.744Z</time></trkpt><trkpt lat="42.5158588" lon="12.9885849"><ele>1172.5</ele><time>2026-04-26T09:20:11.744Z</time></trkpt><trkpt lat="42.5157623" lon="12.9887217"><ele>1176.0</ele><time>2026-04-26T09:20:12.743Z</time></trkpt><trkpt lat="42.5156414" lon="12.9888433"><ele>1179.5</ele><time>2026-04-26T09:20:13.743Z</time></trkpt><trkpt lat="42.5155096" lon="12.9889528"><ele>1183.0</ele><time>2026-04-26T09:20:14.743Z</time></trkpt><trkpt lat="42.515369" lon="12.9890473"><ele>1183.0</ele><time>2026-04-26T09:20:15.744Z</time></trkpt><trkpt lat="42.515212" lon="12.9891003"><ele>1183.0</ele><time>2026-04-26T09:20:16.743Z</time></trkpt><trkpt lat="42.515031" lon="12.9891108"><ele>1183.0</ele><time>2026-04-26T09:20:17.744Z</time></trkpt><trkpt lat="42.5148388" lon="12.9891091"><ele>1183.0</ele><time>2026-04-26T09:20:18.743Z</time></trkpt><trkpt lat="42.5146392" lon="12.9891059"><ele>1183.0</ele><time>2026-04-26T09:20:19.744Z</time></trkpt><trkpt lat="42.5144299" lon="12.9891066"><ele>1183.0</ele><time>2026-04-26T09:20:20.742Z</time></trkpt><trkpt lat="42.5142236" lon="12.9891251"><ele>1193.3333333333333</ele><time>2026-04-26T09:20:21.744Z</time></trkpt><trkpt lat="42.5140195" lon="12.9891815"><ele>1203.6666666666667</ele><time>2026-04-26T09:20:22.743Z</time></trkpt><trkpt lat="42.5138146" lon="12.9892504"><ele>1214.0</ele><time>2026-04-26T09:20:23.743Z</time></trkpt><trkpt lat="42.5136018" lon="12.9893014"><ele>1217.6666666666667</ele><time>2026-04-26T09:20:24.743Z</time></trkpt><trkpt lat="42.5133853" lon="12.9893378"><ele>1221.3333333333333</ele><time>2026-04-26T09:20:25.743Z</time></trkpt><trkpt lat="42.5131655" lon="12.989362"><ele>1225.0</ele><time>2026-04-26T09:20:26.744Z</time></trkpt><trkpt lat="42.5129478" lon="12.9893795"><ele>1227.0</ele><time>2026-04-26T09:20:27.743Z</time></trkpt><trkpt lat="42.5127377" lon="12.989395"><ele>1229.0</ele><time>2026-04-26T09:20:28.744Z</time></trkpt><trkpt lat="42.5125389" lon="12.9894367"><ele>1231.0</ele><time>2026-04-26T09:20:29.743Z</time></trkpt><trkpt lat="42.512351" lon="12.9895048"><ele>1231.0</ele><time>2026-04-26T09:20:30.744Z</time></trkpt><trkpt lat="42.5121714" lon="12.9895686"><ele>1231.0</ele><time>2026-04-26T09:20:31.744Z</time></trkpt><trkpt lat="42.5119938" lon="12.9896102"><ele>1231.0</ele><time>2026-04-26T09:20:32.744Z</time></trkpt><trkpt lat="42.5118131" lon="12.9896053"><ele>1229.0</ele><time>2026-04-26T09:20:33.743Z</time></trkpt><trkpt lat="42.5116347" lon="12.9895783"><ele>1227.0</ele><time>2026-04-26T09:20:34.743Z</time></trkpt><trkpt lat="42.5114612" lon="12.9895702"><ele>1225.0</ele><time>2026-04-26T09:20:35.743Z</time></trkpt><trkpt lat="42.5112796" lon="12.9896111"><ele>1224.6666666666665</ele><time>2026-04-26T09:20:36.743Z</time></trkpt><trkpt lat="42.5110978" lon="12.9896839"><ele>1224.3333333333333</ele><time>2026-04-26T09:20:37.743Z</time></trkpt><trkpt lat="42.5109115" lon="12.98977"><ele>1224.0</ele><time>2026-04-26T09:20:38.744Z</time></trkpt><trkpt lat="42.510717" lon="12.9898489"><ele>1224.0</ele><time>2026-04-26T09:20:39.743Z</time></trkpt><trkpt lat="42.5105244" lon="12.9899343"><ele>1224.0</ele><time>2026-04-26T09:20:40.744Z</time></trkpt><trkpt lat="42.5103276" lon="12.9900162"><ele>1224.0</ele><time>2026-04-26T09:20:41.744Z</time></trkpt><trkpt lat="42.5101266" lon="12.9900904"><ele>1238.3333333333333</ele><time>2026-04-26T09:20:42.744Z</time></trkpt><trkpt lat="42.5099195" lon="12.9901446"><ele>1252.6666666666665</ele><time>2026-04-26T09:20:43.744Z</time></trkpt><trkpt lat="42.509709" lon="12.9901771"><ele>1267.0</ele><time>2026-04-26T09:20:44.744Z</time></trkpt><trkpt lat="42.509499" lon="12.9901926"><ele>1268.6666666666665</ele><time>2026-04-26T09:20:45.743Z</time></trkpt><trkpt lat="42.5092835" lon="12.990216"><ele>1270.3333333333333</ele><time>2026-04-26T09:20:46.743Z</time></trkpt><trkpt lat="42.5090707" lon="12.9902396"><ele>1272.0</ele><time>2026-04-26T09:20:47.743Z</time></trkpt><trkpt lat="42.5088646" lon="12.9902609"><ele>1270.0</ele><time>2026-04-26T09:20:48.744Z</time></trkpt><trkpt lat="42.5086676" lon="12.9902818"><ele>1268.0</ele><time>2026-04-26T09:20:49.743Z</time></trkpt><trkpt lat="42.5084812" lon="12.9903"><ele>1266.0</ele><time>2026-04-26T09:20:50.742Z</time></trkpt><trkpt lat="42.5082897" lon="12.9903368"><ele>1266.0</ele><time>2026-04-26T09:20:51.743Z</time></trkpt><trkpt lat="42.5081031" lon="12.9903931"><ele>1266.0</ele><time>2026-04-26T09:20:52.742Z</time></trkpt><trkpt lat="42.5079137" lon="12.9904738"><ele>1266.0</ele><time>2026-04-26T09:20:53.742Z</time></trkpt><trkpt lat="42.5077348" lon="12.9905574"><ele>1263.3333333333333</ele><time>2026-04-26T09:20:54.743Z</time></trkpt><trkpt lat="42.5075522" lon="12.9906391"><ele>1260.6666666666665</ele><time>2026-04-26T09:20:55.743Z</time></trkpt><trkpt lat="42.5073741" lon="12.9907186"><ele>1258.0</ele><time>2026-04-26T09:20:56.743Z</time></trkpt><trkpt lat="42.5071957" lon="12.9907987"><ele>1264.3333333333333</ele><time>2026-04-26T09:20:57.742Z</time></trkpt><trkpt lat="42.5070219" lon="12.9908839"><ele>1270.6666666666667</ele><time>2026-04-26T09:20:58.743Z</time></trkpt><trkpt lat="42.5068527" lon="12.9909974"><ele>1277.0</ele><time>2026-04-26T09:20:59.743Z</time></trkpt><trkpt lat="42.5066883" lon="12.9911243"><ele>1277.0</ele><time>2026-04-26T09:21:00.743Z</time></trkpt><trkpt lat="42.506525" lon="12.9912617"><ele>1277.0</ele><time>2026-04-26T09:21:01.742Z</time></trkpt><trkpt lat="42.506373" lon="12.9914051"><ele>1277.0</ele><time>2026-04-26T09:21:02.743Z</time></trkpt><trkpt lat="42.5062275" lon="12.9915414"><ele>1272.3333333333335</ele><time>2026-04-26T09:21:03.742Z</time></trkpt><trkpt lat="42.5060661" lon="12.9916705"><ele>1267.6666666666667</ele><time>2026-04-26T09:21:04.744Z</time></trkpt><trkpt lat="42.505895" lon="12.9917776"><ele>1263.0</ele><time>2026-04-26T09:21:05.742Z</time></trkpt><trkpt lat="42.5057133" lon="12.9918688"><ele>1272.6666666666667</ele><time>2026-04-26T09:21:06.743Z</time></trkpt><trkpt lat="42.5055185" lon="12.9919371"><ele>1282.3333333333335</ele><time>2026-04-26T09:21:07.744Z</time></trkpt><trkpt lat="42.505329" lon="12.9919951"><ele>1292.0</ele><time>2026-04-26T09:21:08.744Z</time></trkpt><trkpt lat="42.5051387" lon="12.9920596"><ele>1292.0</ele><time>2026-04-26T09:21:09.744Z</time></trkpt><trkpt lat="42.5049486" lon="12.9921397"><ele>1292.0</ele><time>2026-04-26T09:21:10.742Z</time></trkpt><trkpt lat="42.50477" lon="12.9922278"><ele>1292.0</ele><time>2026-04-26T09:21:11.743Z</time></trkpt><trkpt lat="42.5045901" lon="12.9923013"><ele>1292.3333333333335</ele><time>2026-04-26T09:21:12.744Z</time></trkpt><trkpt lat="42.5043984" lon="12.9923558"><ele>1292.6666666666667</ele><time>2026-04-26T09:21:13.743Z</time></trkpt><trkpt lat="42.5042014" lon="12.9923652"><ele>1293.0</ele><time>2026-04-26T09:21:14.744Z</time></trkpt><trkpt lat="42.5039969" lon="12.9923464"><ele>1293.0</ele><time>2026-04-26T09:21:15.742Z</time></trkpt><trkpt lat="42.5037874" lon="12.9923329"><ele>1293.0</ele><time>2026-04-26T09:21:16.743Z</time></trkpt><trkpt lat="42.5035744" lon="12.9923572"><ele>1293.0</ele><time>2026-04-26T09:21:17.743Z</time></trkpt><trkpt lat="42.5033677" lon="12.992388"><ele>1292.3333333333333</ele><time>2026-04-26T09:21:18.744Z</time></trkpt><trkpt lat="42.5031648" lon="12.9924191"><ele>1291.6666666666665</ele><time>2026-04-26T09:21:19.744Z</time></trkpt><trkpt lat="42.5029798" lon="12.9924486"><ele>1291.0</ele><time>2026-04-26T09:21:20.743Z</time></trkpt><trkpt lat="42.5028084" lon="12.992483"><ele>1298.3333333333333</ele><time>2026-04-26T09:21:21.743Z</time></trkpt><trkpt lat="42.5026446" lon="12.9925457"><ele>1305.6666666666667</ele><time>2026-04-26T09:21:22.744Z</time></trkpt><trkpt lat="42.5024925" lon="12.9926381"><ele>1313.0</ele><time>2026-04-26T09:21:23.743Z</time></trkpt><trkpt lat="42.5023483" lon="12.9927861"><ele>1313.0</ele><time>2026-04-26T09:21:24.742Z</time></trkpt><trkpt lat="42.5022158" lon="12.9929533"><ele>1313.0</ele><time>2026-04-26T09:21:25.742Z</time></trkpt><trkpt lat="42.5020859" lon="12.9931373"><ele>1313.0</ele><time>2026-04-26T09:21:26.743Z</time></trkpt><trkpt lat="42.5019486" lon="12.9933182"><ele>1315.3333333333335</ele><time>2026-04-26T09:21:27.743Z</time></trkpt><trkpt lat="42.5018086" lon="12.9934809"><ele>1317.6666666666667</ele><time>2026-04-26T09:21:28.742Z</time></trkpt><trkpt lat="42.5016667" lon="12.9936246"><ele>1320.0</ele><time>2026-04-26T09:21:29.742Z</time></trkpt><trkpt lat="42.5015181" lon="12.9937551"><ele>1320.0</ele><time>2026-04-26T09:21:30.744Z</time></trkpt><trkpt lat="42.5013468" lon="12.9938537"><ele>1320.0</ele><time>2026-04-26T09:21:31.743Z</time></trkpt><trkpt lat="42.5011754" lon="12.9939426"><ele>1320.0</ele><time>2026-04-26T09:21:32.744Z</time></trkpt><trkpt lat="42.5010096" lon="12.9940286"><ele>1322.0</ele><time>2026-04-26T09:21:33.744Z</time></trkpt><trkpt lat="42.5008634" lon="12.9941116"><ele>1324.0</ele><time>2026-04-26T09:21:34.744Z</time></trkpt><trkpt lat="42.5007207" lon="12.9941838"><ele>1326.0</ele><time>2026-04-26T09:21:35.742Z</time></trkpt><trkpt lat="42.5006304" lon="12.9942147"><ele>1328.0</ele><time>2026-04-26T09:21:36.744Z</time></trkpt><trkpt lat="42.5005143" lon="12.9942196"><ele>1331.0</ele><time>2026-04-26T09:21:37.743Z</time></trkpt><trkpt lat="42.5004104" lon="12.9942027"><ele>1334.0</ele><time>2026-04-26T09:21:38.743Z</time></trkpt><trkpt lat="42.5003253" lon="12.9941577"><ele>1337.0</ele><time>2026-04-26T09:21:39.743Z</time></trkpt><trkpt lat="42.5002782" lon="12.9940602"><ele>1340.0</ele><time>2026-04-26T09:21:40.743Z</time></trkpt><trkpt lat="42.5002649" lon="12.9939547"><ele>1343.0</ele><time>2026-04-26T09:21:41.744Z</time></trkpt><trkpt lat="42.5003009" lon="12.9938494"><ele>1346.0</ele><time>2026-04-26T09:21:42.744Z</time></trkpt><trkpt lat="42.500355" lon="12.993743"><ele>1341.5</ele><time>2026-04-26T09:21:43.743Z</time></trkpt><trkpt lat="42.5004234" lon="12.9936191"><ele>1337.0</ele><time>2026-04-26T09:21:44.744Z</time></trkpt><trkpt lat="42.5005248" lon="12.9934947"><ele>1332.5</ele><time>2026-04-26T09:21:45.742Z</time></trkpt><trkpt lat="42.5006978" lon="12.9934218"><ele>1328.0</ele><time>2026-04-26T09:21:46.743Z</time></trkpt><trkpt lat="42.5008271" lon="12.9933171"><ele>1327.75</ele><time>2026-04-26T09:21:47.744Z</time></trkpt><trkpt lat="42.500939" lon="12.9932169"><ele>1327.5</ele><time>2026-04-26T09:21:48.744Z</time></trkpt><trkpt lat="42.5010125" lon="12.993076"><ele>1327.25</ele><time>2026-04-26T09:21:49.743Z</time></trkpt><trkpt lat="42.5010761" lon="12.9929567"><ele>1327.0</ele><time>2026-04-26T09:21:50.744Z</time></trkpt><trkpt lat="42.501135" lon="12.9928207"><ele>1327.0</ele><time>2026-04-26T09:21:51.743Z</time></trkpt><trkpt lat="42.5011375" lon="12.9926746"><ele>1327.0</ele><time>2026-04-26T09:21:52.743Z</time></trkpt><trkpt lat="42.5010632" lon="12.9925957"><ele>1327.0</ele><time>2026-04-26T09:21:53.744Z</time></trkpt><trkpt lat="42.5010313" lon="12.992513"><ele>1327.0</ele><time>2026-04-26T09:21:54.744Z</time></trkpt><trkpt lat="42.5008442" lon="12.9927073"><ele>1327.0</ele><time>2026-04-26T09:21:56.744Z</time></trkpt><trkpt lat="42.5007675" lon="12.993024"><ele>1327.0</ele><time>2026-04-26T09:21:57.742Z</time></trkpt><trkpt lat="42.5006412" lon="12.9931935"><ele>1327.0</ele><time>2026-04-26T09:21:58.743Z</time></trkpt><trkpt lat="42.5005735" lon="12.9932835"><ele>1327.0</ele><time>2026-04-26T09:21:59.743Z</time></trkpt><trkpt lat="42.5004606" lon="12.9932954"><ele>1327.0</ele><time>2026-04-26T09:22:00.743Z</time></trkpt><trkpt lat="42.500344" lon="12.9932548"><ele>1327.0</ele><time>2026-04-26T09:22:01.744Z</time></trkpt><trkpt lat="42.5003983" lon="12.9929906"><ele>1327.0</ele><time>2026-04-26T09:22:02.742Z</time></trkpt><trkpt lat="42.5003765" lon="12.9928571"><ele>1327.0</ele><time>2026-04-26T09:22:03.743Z</time></trkpt><trkpt lat="42.5005037" lon="12.9926907"><ele>1327.0</ele><time>2026-04-26T09:22:04.743Z</time></trkpt><trkpt lat="42.5005907" lon="12.9925473"><ele>1327.0</ele><time>2026-04-26T09:22:05.743Z</time></trkpt><trkpt lat="42.5007066" lon="12.99242"><ele>1329.6</ele><time>2026-04-26T09:22:06.744Z</time></trkpt><trkpt lat="42.5008126" lon="12.9923187"><ele>1332.1999999999998</ele><time>2026-04-26T09:22:07.744Z</time></trkpt><trkpt lat="42.5008964" lon="12.992221"><ele>1334.8</ele><time>2026-04-26T09:22:08.742Z</time></trkpt><trkpt lat="42.5009535" lon="12.9921185"><ele>1337.4</ele><time>2026-04-26T09:22:09.744Z</time></trkpt><trkpt lat="42.500971" lon="12.9919802"><ele>1340.0</ele><time>2026-04-26T09:22:10.744Z</time></trkpt><trkpt lat="42.5009424" lon="12.9918559"><ele>1340.0</ele><time>2026-04-26T09:22:11.744Z</time></trkpt><trkpt lat="42.5008807" lon="12.9917728"><ele>1340.0</ele><time>2026-04-26T09:22:12.743Z</time></trkpt><trkpt lat="42.5007559" lon="12.9917732"><ele>1340.0</ele><time>2026-04-26T09:22:13.742Z</time></trkpt><trkpt lat="42.5006318" lon="12.9918472"><ele>1340.0</ele><time>2026-04-26T09:22:14.744Z</time></trkpt><trkpt lat="42.5005035" lon="12.9919821"><ele>1346.3333333333335</ele><time>2026-04-26T09:22:15.743Z</time></trkpt><trkpt lat="42.5003651" lon="12.992135"><ele>1352.6666666666667</ele><time>2026-04-26T09:22:16.744Z</time></trkpt><trkpt lat="42.5002122" lon="12.9923068"><ele>1359.0</ele><time>2026-04-26T09:22:17.743Z</time></trkpt><trkpt lat="42.5000517" lon="12.9924865"><ele>1358.3333333333333</ele><time>2026-04-26T09:22:18.744Z</time></trkpt><trkpt lat="42.4998925" lon="12.9926663"><ele>1357.6666666666665</ele><time>2026-04-26T09:22:19.742Z</time></trkpt><trkpt lat="42.4997443" lon="12.9928442"><ele>1357.0</ele><time>2026-04-26T09:22:20.743Z</time></trkpt><trkpt lat="42.4996033" lon="12.9930203"><ele>1360.0</ele><time>2026-04-26T09:22:21.743Z</time></trkpt><trkpt lat="42.4995072" lon="12.9932015"><ele>1363.0</ele><time>2026-04-26T09:22:22.742Z</time></trkpt><trkpt lat="42.4994095" lon="12.9933734"><ele>1366.0</ele><time>2026-04-26T09:22:23.743Z</time></trkpt><trkpt lat="42.4993105" lon="12.9935248"><ele>1366.0</ele><time>2026-04-26T09:22:24.743Z</time></trkpt><trkpt lat="42.4992089" lon="12.9936562"><ele>1366.0</ele><time>2026-04-26T09:22:25.742Z</time></trkpt><trkpt lat="42.4990619" lon="12.9937012"><ele>1366.0</ele><time>2026-04-26T09:22:26.743Z</time></trkpt><trkpt lat="42.4989145" lon="12.9937236"><ele>1366.0</ele><time>2026-04-26T09:22:27.744Z</time></trkpt><trkpt lat="42.4987551" lon="12.9937279"><ele>1370.3333333333333</ele><time>2026-04-26T09:22:28.742Z</time></trkpt><trkpt lat="42.4985982" lon="12.9937421"><ele>1374.6666666666667</ele><time>2026-04-26T09:22:29.744Z</time></trkpt><trkpt lat="42.4984426" lon="12.9937469"><ele>1379.0</ele><time>2026-04-26T09:22:30.742Z</time></trkpt><trkpt lat="42.49829" lon="12.9938024"><ele>1379.0</ele><time>2026-04-26T09:22:31.743Z</time></trkpt><trkpt lat="42.498134" lon="12.9939219"><ele>1379.0</ele><time>2026-04-26T09:22:32.743Z</time></trkpt><trkpt lat="42.4979924" lon="12.9940181"><ele>1379.0</ele><time>2026-04-26T09:22:33.743Z</time></trkpt><trkpt lat="42.4978464" lon="12.9941491"><ele>1383.3333333333335</ele><time>2026-04-26T09:22:34.743Z</time></trkpt><trkpt lat="42.4977176" lon="12.9943661"><ele>1387.6666666666667</ele><time>2026-04-26T09:22:35.744Z</time></trkpt><trkpt lat="42.4975796" lon="12.9945221"><ele>1392.0</ele><time>2026-04-26T09:22:36.743Z</time></trkpt><trkpt lat="42.497455" lon="12.9946957"><ele>1392.0</ele><time>2026-04-26T09:22:37.742Z</time></trkpt><trkpt lat="42.4973462" lon="12.9948977"><ele>1392.0</ele><time>2026-04-26T09:22:38.744Z</time></trkpt><trkpt lat="42.4972544" lon="12.9950808"><ele>1392.0</ele><time>2026-04-26T09:22:39.744Z</time></trkpt><trkpt lat="42.4971453" lon="12.9952441"><ele>1396.3333333333333</ele><time>2026-04-26T09:22:40.744Z</time></trkpt><trkpt lat="42.4970178" lon="12.9953852"><ele>1400.6666666666665</ele><time>2026-04-26T09:22:41.743Z</time></trkpt><trkpt lat="42.496897" lon="12.9954964"><ele>1405.0</ele><time>2026-04-26T09:22:42.743Z</time></trkpt><trkpt lat="42.4967568" lon="12.9955607"><ele>1405.0</ele><time>2026-04-26T09:22:43.744Z</time></trkpt><trkpt lat="42.4966435" lon="12.9956383"><ele>1405.0</ele><time>2026-04-26T09:22:44.743Z</time></trkpt><trkpt lat="42.4965488" lon="12.9957288"><ele>1405.0</ele><time>2026-04-26T09:22:45.743Z</time></trkpt><trkpt lat="42.4964576" lon="12.9958052"><ele>1405.0</ele><time>2026-04-26T09:22:46.742Z</time></trkpt><trkpt lat="42.4963894" lon="12.9959038"><ele>1407.6666666666665</ele><time>2026-04-26T09:22:47.744Z</time></trkpt><trkpt lat="42.4965455" lon="12.9961146"><ele>1410.3333333333333</ele><time>2026-04-26T09:22:48.743Z</time></trkpt><trkpt lat="42.4965739" lon="12.9962255"><ele>1413.0</ele><time>2026-04-26T09:22:49.743Z</time></trkpt><trkpt lat="42.4967545" lon="12.996238"><ele>1413.0</ele><time>2026-04-26T09:22:50.743Z</time></trkpt><trkpt lat="42.4969054" lon="12.9962751"><ele>1413.0</ele><time>2026-04-26T09:22:51.743Z</time></trkpt><trkpt lat="42.4970889" lon="12.996293"><ele>1413.0</ele><time>2026-04-26T09:22:52.744Z</time></trkpt><trkpt lat="42.4972582" lon="12.9963135"><ele>1412.5</ele><time>2026-04-26T09:22:53.744Z</time></trkpt><trkpt lat="42.4974093" lon="12.9963226"><ele>1412.0</ele><time>2026-04-26T09:22:54.743Z</time></trkpt><trkpt lat="42.4975632" lon="12.9963256"><ele>1411.5</ele><time>2026-04-26T09:22:55.744Z</time></trkpt><trkpt lat="42.4976867" lon="12.9963071"><ele>1411.0</ele><time>2026-04-26T09:22:56.744Z</time></trkpt><trkpt lat="42.4977913" lon="12.9962984"><ele>1411.0</ele><time>2026-04-26T09:22:57.742Z</time></trkpt><trkpt lat="42.4978894" lon="12.9963255"><ele>1411.0</ele><time>2026-04-26T09:22:58.743Z</time></trkpt><trkpt lat="42.4979613" lon="12.9963915"><ele>1411.0</ele><time>2026-04-26T09:22:59.743Z</time></trkpt><trkpt lat="42.4979993" lon="12.9964929"><ele>1411.0</ele><time>2026-04-26T09:23:00.743Z</time></trkpt><trkpt lat="42.4979989" lon="12.996599"><ele>1411.0</ele><time>2026-04-26T09:23:01.742Z</time></trkpt><trkpt lat="42.4979648" lon="12.9967008"><ele>1411.0</ele><time>2026-04-26T09:23:02.743Z</time></trkpt><trkpt lat="42.4978595" lon="12.9967443"><ele>1415.25</ele><time>2026-04-26T09:23:03.742Z</time></trkpt><trkpt lat="42.4977297" lon="12.9967587"><ele>1419.5</ele><time>2026-04-26T09:23:04.744Z</time></trkpt><trkpt lat="42.4975749" lon="12.9967421"><ele>1423.75</ele><time>2026-04-26T09:23:05.742Z</time></trkpt><trkpt lat="42.4974112" lon="12.9967418"><ele>1428.0</ele><time>2026-04-26T09:23:06.743Z</time></trkpt><trkpt lat="42.4972667" lon="12.9967444"><ele>1428.0</ele><time>2026-04-26T09:23:07.742Z</time></trkpt><trkpt lat="42.4971099" lon="12.9967666"><ele>1428.0</ele><time>2026-04-26T09:23:08.744Z</time></trkpt><trkpt lat="42.4969203" lon="12.9968654"><ele>1428.0</ele><time>2026-04-26T09:23:09.744Z</time></trkpt><trkpt lat="42.4967698" lon="12.9970342"><ele>1427.6666666666667</ele><time>2026-04-26T09:23:10.744Z</time></trkpt><trkpt lat="42.4966331" lon="12.9972097"><ele>1427.3333333333335</ele><time>2026-04-26T09:23:11.744Z</time></trkpt><trkpt lat="42.4964701" lon="12.9973189"><ele>1427.0</ele><time>2026-04-26T09:23:12.744Z</time></trkpt><trkpt lat="42.4963137" lon="12.9973797"><ele>1426.25</ele><time>2026-04-26T09:23:13.743Z</time></trkpt><trkpt lat="42.4961907" lon="12.9974489"><ele>1425.5</ele><time>2026-04-26T09:23:14.743Z</time></trkpt><trkpt lat="42.4960804" lon="12.9975073"><ele>1424.75</ele><time>2026-04-26T09:23:15.742Z</time></trkpt><trkpt lat="42.4960024" lon="12.9975879"><ele>1424.0</ele><time>2026-04-26T09:23:16.743Z</time></trkpt><trkpt lat="42.495906" lon="12.9976721"><ele>1427.0</ele><time>2026-04-26T09:23:17.743Z</time></trkpt><trkpt lat="42.4958212" lon="12.9977687"><ele>1430.0</ele><time>2026-04-26T09:23:18.742Z</time></trkpt><trkpt lat="42.49597" lon="12.9979778"><ele>1433.0</ele><time>2026-04-26T09:23:19.742Z</time></trkpt><trkpt lat="42.4960042" lon="12.998119"><ele>1436.0</ele><time>2026-04-26T09:23:20.743Z</time></trkpt><trkpt lat="42.4960642" lon="12.9982001"><ele>1436.0</ele><time>2026-04-26T09:23:21.743Z</time></trkpt><trkpt lat="42.4961738" lon="12.9982995"><ele>1436.0</ele><time>2026-04-26T09:23:22.741Z</time></trkpt><trkpt lat="42.4963307" lon="12.9983508"><ele>1436.0</ele><time>2026-04-26T09:23:23.742Z</time></trkpt><trkpt lat="42.4964415" lon="12.9984134"><ele>1436.0</ele><time>2026-04-26T09:23:24.742Z</time></trkpt><trkpt lat="42.4965108" lon="12.9985174"><ele>1438.6</ele><time>2026-04-26T09:23:25.742Z</time></trkpt><trkpt lat="42.4965389" lon="12.9986513"><ele>1441.1999999999998</ele><time>2026-04-26T09:23:26.741Z</time></trkpt><trkpt lat="42.4965456" lon="12.9987577"><ele>1443.8000000000002</ele><time>2026-04-26T09:23:27.742Z</time></trkpt><trkpt lat="42.4964944" lon="12.9988572"><ele>1446.4</ele><time>2026-04-26T09:23:28.742Z</time></trkpt><trkpt lat="42.4964197" lon="12.9989167"><ele>1449.0</ele><time>2026-04-26T09:23:29.742Z</time></trkpt><trkpt lat="42.4963167" lon="12.9989338"><ele>1450.0</ele><time>2026-04-26T09:23:30.743Z</time></trkpt><trkpt lat="42.4962051" lon="12.9989118"><ele>1451.0</ele><time>2026-04-26T09:23:31.743Z</time></trkpt><trkpt lat="42.4960848" lon="12.9988618"><ele>1452.0</ele><time>2026-04-26T09:23:32.743Z</time></trkpt><trkpt lat="42.495953" lon="12.9988024"><ele>1453.0</ele><time>2026-04-26T09:23:33.743Z</time></trkpt><trkpt lat="42.4958114" lon="12.9987346"><ele>1453.0</ele><time>2026-04-26T09:23:34.742Z</time></trkpt><trkpt lat="42.4956702" lon="12.9986659"><ele>1453.0</ele><time>2026-04-26T09:23:35.742Z</time></trkpt><trkpt lat="42.4955352" lon="12.9986009"><ele>1453.0</ele><time>2026-04-26T09:23:36.741Z</time></trkpt><trkpt lat="42.4954089" lon="12.9985315"><ele>1453.0</ele><time>2026-04-26T09:23:37.741Z</time></trkpt><trkpt lat="42.4952838" lon="12.9985509"><ele>1455.25</ele><time>2026-04-26T09:23:38.742Z</time></trkpt><trkpt lat="42.4951602" lon="12.9985428"><ele>1457.5</ele><time>2026-04-26T09:23:39.742Z</time></trkpt><trkpt lat="42.4950297" lon="12.9986675"><ele>1459.75</ele><time>2026-04-26T09:23:40.743Z</time></trkpt><trkpt lat="42.4949389" lon="12.9987448"><ele>1462.0</ele><time>2026-04-26T09:23:41.741Z</time></trkpt><trkpt lat="42.4948636" lon="12.9988125"><ele>1462.0</ele><time>2026-04-26T09:23:42.742Z</time></trkpt><trkpt lat="42.4948116" lon="12.9988663"><ele>1462.0</ele><time>2026-04-26T09:23:43.742Z</time></trkpt><trkpt lat="42.4947275" lon="12.9989495"><ele>1462.0</ele><time>2026-04-26T09:23:45.742Z</time></trkpt><trkpt lat="42.4946504" lon="12.9990288"><ele>1462.0</ele><time>2026-04-26T09:23:47.741Z</time></trkpt><trkpt lat="42.4945895" lon="12.9990791"><ele>1462.0</ele><time>2026-04-26T09:23:49.742Z</time></trkpt><trkpt lat="42.4945332" lon="12.9991283"><ele>1462.0</ele><time>2026-04-26T09:23:53.742Z</time></trkpt><trkpt lat="42.4946593" lon="12.9989954"><ele>1462.0</ele><time>2026-04-26T09:24:50.742Z</time></trkpt><trkpt lat="42.4947186" lon="12.9989395"><ele>1462.0</ele><time>2026-04-26T09:24:51.743Z</time></trkpt><trkpt lat="42.4947831" lon="12.998905"><ele>1462.0</ele><time>2026-04-26T09:24:52.741Z</time></trkpt><trkpt lat="42.494844" lon="12.9988801"><ele>1462.0</ele><time>2026-04-26T09:24:53.743Z</time></trkpt><trkpt lat="42.4949115" lon="12.9988624"><ele>1462.0</ele><time>2026-04-26T09:24:54.742Z</time></trkpt><trkpt lat="42.4949833" lon="12.9988585"><ele>1462.0</ele><time>2026-04-26T09:24:55.742Z</time></trkpt><trkpt lat="42.4950522" lon="12.9988701"><ele>1462.0</ele><time>2026-04-26T09:24:56.742Z</time></trkpt><trkpt lat="42.4951211" lon="12.9989001"><ele>1462.0</ele><time>2026-04-26T09:24:57.743Z</time></trkpt><trkpt lat="42.4951876" lon="12.9989333"><ele>1462.0</ele><time>2026-04-26T09:24:58.742Z</time></trkpt><trkpt lat="42.4952507" lon="12.9989761"><ele>1462.0</ele><time>2026-04-26T09:24:59.742Z</time></trkpt><trkpt lat="42.4953111" lon="12.999015"><ele>1462.0</ele><time>2026-04-26T09:25:00.742Z</time></trkpt><trkpt lat="42.4953662" lon="12.9990581"><ele>1462.0</ele><time>2026-04-26T09:25:01.742Z</time></trkpt><trkpt lat="42.495469" lon="12.9991371"><ele>1462.0</ele><time>2026-04-26T09:25:03.743Z</time></trkpt><trkpt lat="42.4955384" lon="12.9991879"><ele>1464.6666666666665</ele><time>2026-04-26T09:25:05.741Z</time></trkpt><trkpt lat="42.4956119" lon="12.9992394"><ele>1467.3333333333333</ele><time>2026-04-26T09:25:07.742Z</time></trkpt><trkpt lat="42.4956901" lon="12.9992999"><ele>1470.0</ele><time>2026-04-26T09:25:09.742Z</time></trkpt><trkpt lat="42.495758" lon="12.999354"><ele>1472.6666666666667</ele><time>2026-04-26T09:25:11.742Z</time></trkpt><trkpt lat="42.4958173" lon="12.9994046"><ele>1475.3333333333335</ele><time>2026-04-26T09:25:13.742Z</time></trkpt><trkpt lat="42.4958754" lon="12.9994544"><ele>1478.0</ele><time>2026-04-26T09:25:15.741Z</time></trkpt><trkpt lat="42.4959849" lon="12.9995323"><ele>1478.0</ele><time>2026-04-26T09:25:17.743Z</time></trkpt><trkpt lat="42.4960958" lon="12.9995632"><ele>1478.0</ele><time>2026-04-26T09:25:19.743Z</time></trkpt><trkpt lat="42.4961849" lon="12.9995538"><ele>1478.0</ele><time>2026-04-26T09:25:22.742Z</time></trkpt><trkpt lat="42.4962477" lon="12.9995432"><ele>1478.0</ele><time>2026-04-26T09:25:25.742Z</time></trkpt><trkpt lat="42.4963709" lon="12.9995127"><ele>1478.0</ele><time>2026-04-26T09:25:58.743Z</time></trkpt><trkpt lat="42.4965487" lon="12.999469"><ele>1479.0</ele><time>2026-04-26T09:26:00.743Z</time></trkpt><trkpt lat="42.4966446" lon="12.9994264"><ele>1480.0</ele><time>2026-04-26T09:26:01.742Z</time></trkpt><trkpt lat="42.4967429" lon="12.9993803"><ele>1481.0</ele><time>2026-04-26T09:26:02.742Z</time></trkpt><trkpt lat="42.4968395" lon="12.9993352"><ele>1482.0</ele><time>2026-04-26T09:26:03.742Z</time></trkpt><trkpt lat="42.4969401" lon="12.9993014"><ele>1483.0</ele><time>2026-04-26T09:26:04.742Z</time></trkpt><trkpt lat="42.4970471" lon="12.9992678"><ele>1485.8000000000002</ele><time>2026-04-26T09:26:05.742Z</time></trkpt><trkpt lat="42.4971424" lon="12.9992338"><ele>1488.6</ele><time>2026-04-26T09:26:06.742Z</time></trkpt><trkpt lat="42.4972517" lon="12.9991775"><ele>1491.4</ele><time>2026-04-26T09:26:07.742Z</time></trkpt><trkpt lat="42.4973545" lon="12.9991159"><ele>1494.1999999999998</ele><time>2026-04-26T09:26:08.742Z</time></trkpt><trkpt lat="42.4974571" lon="12.9990648"><ele>1497.0</ele><time>2026-04-26T09:26:09.742Z</time></trkpt><trkpt lat="42.4975284" lon="12.9990073"><ele>1497.0</ele><time>2026-04-26T09:26:10.743Z</time></trkpt><trkpt lat="42.4975815" lon="12.998928"><ele>1497.0</ele><time>2026-04-26T09:26:11.743Z</time></trkpt><trkpt lat="42.4975394" lon="12.9989993"><ele>1497.0</ele><time>2026-04-26T09:31:47.74Z</time></trkpt><trkpt lat="42.4974738" lon="12.9990417"><ele>1497.0</ele><time>2026-04-26T09:31:49.741Z</time></trkpt><trkpt lat="42.4974112" lon="12.9991037"><ele>1497.0</ele><time>2026-04-26T09:31:51.739Z</time></trkpt><trkpt lat="42.4973166" lon="12.9991752"><ele>1497.0</ele><time>2026-04-26T09:31:53.74Z</time></trkpt><trkpt lat="42.4972138" lon="12.999237"><ele>1497.0</ele><time>2026-04-26T09:31:55.741Z</time></trkpt><trkpt lat="42.4971314" lon="12.9992807"><ele>1497.0</ele><time>2026-04-26T09:31:56.74Z</time></trkpt><trkpt lat="42.497058" lon="12.9993031"><ele>1497.0</ele><time>2026-04-26T09:31:57.74Z</time></trkpt><trkpt lat="42.4969855" lon="12.9993201"><ele>1497.0</ele><time>2026-04-26T09:31:58.74Z</time></trkpt><trkpt lat="42.4968907" lon="12.9993731"><ele>1497.0</ele><time>2026-04-26T09:31:59.74Z</time></trkpt><trkpt lat="42.4968094" lon="12.9994039"><ele>1497.0</ele><time>2026-04-26T09:32:01.739Z</time></trkpt><trkpt lat="42.4966837" lon="12.9994641"><ele>1494.1999999999998</ele><time>2026-04-26T09:32:03.74Z</time></trkpt><trkpt lat="42.4965723" lon="12.9995239"><ele>1491.4</ele><time>2026-04-26T09:32:05.739Z</time></trkpt><trkpt lat="42.4964569" lon="12.9995668"><ele>1488.6</ele><time>2026-04-26T09:32:07.741Z</time></trkpt><trkpt lat="42.4963693" lon="12.9995775"><ele>1485.8000000000002</ele><time>2026-04-26T09:32:09.741Z</time></trkpt><trkpt lat="42.4962979" lon="12.9995894"><ele>1483.0</ele><time>2026-04-26T09:32:11.74Z</time></trkpt><trkpt lat="42.4962081" lon="12.9995983"><ele>1482.1666666666665</ele><time>2026-04-26T09:32:13.74Z</time></trkpt><trkpt lat="42.496115" lon="12.9996024"><ele>1481.3333333333333</ele><time>2026-04-26T09:32:15.74Z</time></trkpt><trkpt lat="42.4960149" lon="12.9995946"><ele>1480.5</ele><time>2026-04-26T09:32:17.74Z</time></trkpt><trkpt lat="42.4959489" lon="12.9995648"><ele>1479.6666666666667</ele><time>2026-04-26T09:32:18.741Z</time></trkpt><trkpt lat="42.4958859" lon="12.9995073"><ele>1478.8333333333335</ele><time>2026-04-26T09:32:19.741Z</time></trkpt><trkpt lat="42.4958182" lon="12.9994395"><ele>1478.0</ele><time>2026-04-26T09:32:20.74Z</time></trkpt><trkpt lat="42.4957499" lon="12.999375"><ele>1478.0</ele><time>2026-04-26T09:32:21.74Z</time></trkpt><trkpt lat="42.4956784" lon="12.9993109"><ele>1478.0</ele><time>2026-04-26T09:32:22.739Z</time></trkpt><trkpt lat="42.495607" lon="12.9992485"><ele>1478.0</ele><time>2026-04-26T09:32:23.74Z</time></trkpt><trkpt lat="42.4955406" lon="12.9991892"><ele>1478.0</ele><time>2026-04-26T09:32:24.74Z</time></trkpt><trkpt lat="42.4954743" lon="12.9991374"><ele>1478.0</ele><time>2026-04-26T09:32:25.739Z</time></trkpt><trkpt lat="42.4954047" lon="12.9990872"><ele>1478.0</ele><time>2026-04-26T09:32:26.74Z</time></trkpt><trkpt lat="42.4953359" lon="12.9990442"><ele>1475.7142857142858</ele><time>2026-04-26T09:32:27.739Z</time></trkpt><trkpt lat="42.4952694" lon="12.9990032"><ele>1473.4285714285716</ele><time>2026-04-26T09:32:28.74Z</time></trkpt><trkpt lat="42.4952006" lon="12.9989748"><ele>1471.142857142857</ele><time>2026-04-26T09:32:29.74Z</time></trkpt><trkpt lat="42.4951304" lon="12.9989468"><ele>1468.857142857143</ele><time>2026-04-26T09:32:30.74Z</time></trkpt><trkpt lat="42.4950685" lon="12.9989167"><ele>1466.5714285714284</ele><time>2026-04-26T09:32:31.741Z</time></trkpt><trkpt lat="42.495006" lon="12.9989053"><ele>1464.2857142857142</ele><time>2026-04-26T09:32:32.741Z</time></trkpt><trkpt lat="42.4949253" lon="12.998885"><ele>1462.0</ele><time>2026-04-26T09:32:34.741Z</time></trkpt><trkpt lat="42.4948738" lon="12.998821"><ele>1462.0</ele><time>2026-04-26T09:32:37.739Z</time></trkpt><trkpt lat="42.4949318" lon="12.998732"><ele>1462.0</ele><time>2026-04-26T09:32:39.74Z</time></trkpt><trkpt lat="42.4950024" lon="12.9986994"><ele>1462.0</ele><time>2026-04-26T09:32:40.74Z</time></trkpt><trkpt lat="42.495088" lon="12.9986422"><ele>1462.0</ele><time>2026-04-26T09:32:41.741Z</time></trkpt><trkpt lat="42.495174" lon="12.9985772"><ele>1462.0</ele><time>2026-04-26T09:32:42.739Z</time></trkpt><trkpt lat="42.4952778" lon="12.9985271"><ele>1462.0</ele><time>2026-04-26T09:32:43.74Z</time></trkpt><trkpt lat="42.4954092" lon="12.9985362"><ele>1462.0</ele><time>2026-04-26T09:32:44.74Z</time></trkpt><trkpt lat="42.4955317" lon="12.9985301"><ele>1462.0</ele><time>2026-04-26T09:32:45.74Z</time></trkpt><trkpt lat="42.4956908" lon="12.9985872"><ele>1462.0</ele><time>2026-04-26T09:32:46.74Z</time></trkpt><trkpt lat="42.49583" lon="12.9986756"><ele>1459.75</ele><time>2026-04-26T09:32:47.739Z</time></trkpt><trkpt lat="42.4959696" lon="12.9987391"><ele>1457.5</ele><time>2026-04-26T09:32:48.74Z</time></trkpt><trkpt lat="42.496104" lon="12.9988089"><ele>1455.25</ele><time>2026-04-26T09:32:49.74Z</time></trkpt><trkpt lat="42.4962215" lon="12.9988743"><ele>1453.0</ele><time>2026-04-26T09:32:50.741Z</time></trkpt><trkpt lat="42.4963362" lon="12.9989103"><ele>1452.2</ele><time>2026-04-26T09:32:51.74Z</time></trkpt><trkpt lat="42.4964449" lon="12.998929"><ele>1451.4</ele><time>2026-04-26T09:32:52.74Z</time></trkpt><trkpt lat="42.496553" lon="12.9988685"><ele>1450.6000000000001</ele><time>2026-04-26T09:32:53.741Z</time></trkpt><trkpt lat="42.4966447" lon="12.9988275"><ele>1449.8000000000002</ele><time>2026-04-26T09:32:54.741Z</time></trkpt><trkpt lat="42.4967263" lon="12.9987535"><ele>1449.0</ele><time>2026-04-26T09:32:55.741Z</time></trkpt><trkpt lat="42.4967612" lon="12.9986462"><ele>1449.0</ele><time>2026-04-26T09:32:56.74Z</time></trkpt><trkpt lat="42.4967136" lon="12.9984947"><ele>1449.0</ele><time>2026-04-26T09:32:57.74Z</time></trkpt><trkpt lat="42.4966545" lon="12.9983285"><ele>1449.0</ele><time>2026-04-26T09:32:58.74Z</time></trkpt><trkpt lat="42.4965754" lon="12.9982834"><ele>1449.0</ele><time>2026-04-26T09:32:59.741Z</time></trkpt><trkpt lat="42.4964714" lon="12.9981925"><ele>1445.75</ele><time>2026-04-26T09:33:00.739Z</time></trkpt><trkpt lat="42.4963359" lon="12.9981455"><ele>1442.5</ele><time>2026-04-26T09:33:01.738Z</time></trkpt><trkpt lat="42.4961895" lon="12.9981285"><ele>1439.25</ele><time>2026-04-26T09:33:02.738Z</time></trkpt><trkpt lat="42.4960965" lon="12.9980439"><ele>1436.0</ele><time>2026-04-26T09:33:03.739Z</time></trkpt><trkpt lat="42.4960418" lon="12.9979299"><ele>1436.0</ele><time>2026-04-26T09:33:04.74Z</time></trkpt><trkpt lat="42.4960268" lon="12.9978078"><ele>1436.0</ele><time>2026-04-26T09:33:05.738Z</time></trkpt><trkpt lat="42.4960477" lon="12.9976859"><ele>1436.0</ele><time>2026-04-26T09:33:06.739Z</time></trkpt><trkpt lat="42.4960944" lon="12.9975926"><ele>1436.0</ele><time>2026-04-26T09:33:07.739Z</time></trkpt><trkpt lat="42.4961755" lon="12.9975264"><ele>1436.0</ele><time>2026-04-26T09:33:08.739Z</time></trkpt><trkpt lat="42.4962671" lon="12.9974504"><ele>1433.75</ele><time>2026-04-26T09:33:09.739Z</time></trkpt><trkpt lat="42.4963742" lon="12.9973767"><ele>1431.5</ele><time>2026-04-26T09:33:10.74Z</time></trkpt><trkpt lat="42.4965329" lon="12.9973572"><ele>1429.25</ele><time>2026-04-26T09:33:11.74Z</time></trkpt><trkpt lat="42.4966609" lon="12.9972981"><ele>1427.0</ele><time>2026-04-26T09:33:12.74Z</time></trkpt><trkpt lat="42.4968045" lon="12.9972305"><ele>1427.0</ele><time>2026-04-26T09:33:13.739Z</time></trkpt><trkpt lat="42.4969052" lon="12.9970841"><ele>1427.0</ele><time>2026-04-26T09:33:14.739Z</time></trkpt><trkpt lat="42.4970143" lon="12.9969591"><ele>1427.0</ele><time>2026-04-26T09:33:15.738Z</time></trkpt><trkpt lat="42.4970962" lon="12.9968587"><ele>1427.0</ele><time>2026-04-26T09:33:16.74Z</time></trkpt><trkpt lat="42.497212" lon="12.996771"><ele>1427.25</ele><time>2026-04-26T09:33:17.739Z</time></trkpt><trkpt lat="42.4973483" lon="12.9967101"><ele>1427.5</ele><time>2026-04-26T09:33:18.74Z</time></trkpt><trkpt lat="42.4974765" lon="12.9967008"><ele>1427.75</ele><time>2026-04-26T09:33:19.739Z</time></trkpt><trkpt lat="42.4976132" lon="12.9967314"><ele>1428.0</ele><time>2026-04-26T09:33:20.738Z</time></trkpt><trkpt lat="42.4977409" lon="12.9967492"><ele>1428.0</ele><time>2026-04-26T09:33:21.738Z</time></trkpt><trkpt lat="42.4978478" lon="12.9967477"><ele>1428.0</ele><time>2026-04-26T09:33:22.739Z</time></trkpt><trkpt lat="42.4979372" lon="12.9967102"><ele>1428.0</ele><time>2026-04-26T09:33:23.739Z</time></trkpt><trkpt lat="42.4980072" lon="12.9966408"><ele>1428.0</ele><time>2026-04-26T09:33:24.74Z</time></trkpt><trkpt lat="42.4980484" lon="12.9965446"><ele>1428.0</ele><time>2026-04-26T09:33:25.738Z</time></trkpt><trkpt lat="42.4980669" lon="12.996447"><ele>1428.0</ele><time>2026-04-26T09:33:26.74Z</time></trkpt><trkpt lat="42.498011" lon="12.9962999"><ele>1422.3333333333333</ele><time>2026-04-26T09:33:28.739Z</time></trkpt><trkpt lat="42.4978183" lon="12.9963176"><ele>1416.6666666666665</ele><time>2026-04-26T09:33:29.739Z</time></trkpt><trkpt lat="42.4976777" lon="12.9963353"><ele>1411.0</ele><time>2026-04-26T09:33:30.74Z</time></trkpt><trkpt lat="42.4975072" lon="12.9963327"><ele>1411.0</ele><time>2026-04-26T09:33:31.74Z</time></trkpt><trkpt lat="42.4973399" lon="12.9963159"><ele>1411.0</ele><time>2026-04-26T09:33:32.74Z</time></trkpt><trkpt lat="42.4971868" lon="12.9963034"><ele>1411.0</ele><time>2026-04-26T09:33:33.739Z</time></trkpt><trkpt lat="42.4970343" lon="12.996279"><ele>1411.5</ele><time>2026-04-26T09:33:34.739Z</time></trkpt><trkpt lat="42.4968933" lon="12.9962684"><ele>1412.0</ele><time>2026-04-26T09:33:35.74Z</time></trkpt><trkpt lat="42.4967714" lon="12.9962451"><ele>1412.5</ele><time>2026-04-26T09:33:36.739Z</time></trkpt><trkpt lat="42.4966682" lon="12.9961887"><ele>1413.0</ele><time>2026-04-26T09:33:37.739Z</time></trkpt><trkpt lat="42.4965936" lon="12.9961005"><ele>1413.0</ele><time>2026-04-26T09:33:38.739Z</time></trkpt><trkpt lat="42.4965511" lon="12.9959858"><ele>1413.0</ele><time>2026-04-26T09:33:39.739Z</time></trkpt><trkpt lat="42.4965599" lon="12.9958577"><ele>1413.0</ele><time>2026-04-26T09:33:40.739Z</time></trkpt><trkpt lat="42.4965982" lon="12.9957262"><ele>1413.0</ele><time>2026-04-26T09:33:41.74Z</time></trkpt><trkpt lat="42.4967072" lon="12.9956455"><ele>1413.0</ele><time>2026-04-26T09:33:42.739Z</time></trkpt><trkpt lat="42.4968045" lon="12.9955662"><ele>1410.3333333333333</ele><time>2026-04-26T09:33:43.739Z</time></trkpt><trkpt lat="42.4969672" lon="12.9954594"><ele>1407.6666666666665</ele><time>2026-04-26T09:33:44.74Z</time></trkpt><trkpt lat="42.4970964" lon="12.9953403"><ele>1405.0</ele><time>2026-04-26T09:33:45.74Z</time></trkpt><trkpt lat="42.4971979" lon="12.9951656"><ele>1400.6666666666665</ele><time>2026-04-26T09:33:46.739Z</time></trkpt><trkpt lat="42.4973063" lon="12.9949772"><ele>1396.3333333333333</ele><time>2026-04-26T09:33:47.739Z</time></trkpt><trkpt lat="42.4974195" lon="12.9947821"><ele>1392.0</ele><time>2026-04-26T09:33:48.74Z</time></trkpt><trkpt lat="42.4975624" lon="12.9946273"><ele>1392.0</ele><time>2026-04-26T09:33:49.739Z</time></trkpt><trkpt lat="42.4976929" lon="12.9944595"><ele>1392.0</ele><time>2026-04-26T09:33:50.74Z</time></trkpt><trkpt lat="42.4978225" lon="12.9942954"><ele>1392.0</ele><time>2026-04-26T09:33:51.738Z</time></trkpt><trkpt lat="42.4979489" lon="12.9941472"><ele>1387.6666666666667</ele><time>2026-04-26T09:33:52.738Z</time></trkpt><trkpt lat="42.4980672" lon="12.9940062"><ele>1383.3333333333335</ele><time>2026-04-26T09:33:53.739Z</time></trkpt><trkpt lat="42.4982025" lon="12.9938699"><ele>1379.0</ele><time>2026-04-26T09:33:54.74Z</time></trkpt><trkpt lat="42.4983621" lon="12.9938228"><ele>1379.0</ele><time>2026-04-26T09:33:55.738Z</time></trkpt><trkpt lat="42.4985293" lon="12.993795"><ele>1379.0</ele><time>2026-04-26T09:33:56.739Z</time></trkpt><trkpt lat="42.498697" lon="12.9937822"><ele>1379.0</ele><time>2026-04-26T09:33:57.739Z</time></trkpt><trkpt lat="42.4988578" lon="12.9937788"><ele>1375.75</ele><time>2026-04-26T09:33:58.74Z</time></trkpt><trkpt lat="42.4990102" lon="12.9937632"><ele>1372.5</ele><time>2026-04-26T09:33:59.74Z</time></trkpt><trkpt lat="42.4991373" lon="12.9937027"><ele>1369.25</ele><time>2026-04-26T09:34:00.739Z</time></trkpt><trkpt lat="42.4992636" lon="12.9936053"><ele>1366.0</ele><time>2026-04-26T09:34:01.739Z</time></trkpt><trkpt lat="42.4993649" lon="12.9934619"><ele>1368.6666666666665</ele><time>2026-04-26T09:34:02.74Z</time></trkpt><trkpt lat="42.4994721" lon="12.9932993"><ele>1371.3333333333333</ele><time>2026-04-26T09:34:03.739Z</time></trkpt><trkpt lat="42.4995712" lon="12.9931047"><ele>1374.0</ele><time>2026-04-26T09:34:04.739Z</time></trkpt><trkpt lat="42.4997015" lon="12.9929454"><ele>1369.0</ele><time>2026-04-26T09:34:05.739Z</time></trkpt><trkpt lat="42.499833" lon="12.9927858"><ele>1364.0</ele><time>2026-04-26T09:34:06.739Z</time></trkpt><trkpt lat="42.4999611" lon="12.9926306"><ele>1359.0</ele><time>2026-04-26T09:34:07.74Z</time></trkpt><trkpt lat="42.5000832" lon="12.9924829"><ele>1359.0</ele><time>2026-04-26T09:34:08.74Z</time></trkpt><trkpt lat="42.5002056" lon="12.9923307"><ele>1359.0</ele><time>2026-04-26T09:34:09.74Z</time></trkpt><trkpt lat="42.5003135" lon="12.9921951"><ele>1359.0</ele><time>2026-04-26T09:34:10.74Z</time></trkpt><trkpt lat="42.5004177" lon="12.9920651"><ele>1355.2</ele><time>2026-04-26T09:34:11.74Z</time></trkpt><trkpt lat="42.500506" lon="12.9919515"><ele>1351.4</ele><time>2026-04-26T09:34:12.739Z</time></trkpt><trkpt lat="42.5006015" lon="12.9918619"><ele>1347.6</ele><time>2026-04-26T09:34:13.738Z</time></trkpt><trkpt lat="42.5006933" lon="12.991805"><ele>1343.8</ele><time>2026-04-26T09:34:14.739Z</time></trkpt><trkpt lat="42.5007825" lon="12.9917963"><ele>1340.0</ele><time>2026-04-26T09:34:15.739Z</time></trkpt><trkpt lat="42.5008582" lon="12.9918389"><ele>1340.0</ele><time>2026-04-26T09:34:16.74Z</time></trkpt><trkpt lat="42.5009036" lon="12.9919211"><ele>1340.0</ele><time>2026-04-26T09:34:17.74Z</time></trkpt><trkpt lat="42.500904" lon="12.9920229"><ele>1340.0</ele><time>2026-04-26T09:34:18.74Z</time></trkpt><trkpt lat="42.5008577" lon="12.9921433"><ele>1340.0</ele><time>2026-04-26T09:34:19.739Z</time></trkpt><trkpt lat="42.5007695" lon="12.9922577"><ele>1340.0</ele><time>2026-04-26T09:34:20.739Z</time></trkpt><trkpt lat="42.5006571" lon="12.9923721"><ele>1340.0</ele><time>2026-04-26T09:34:21.739Z</time></trkpt><trkpt lat="42.5005494" lon="12.9924922"><ele>1340.0</ele><time>2026-04-26T09:34:22.74Z</time></trkpt><trkpt lat="42.5004621" lon="12.9926528"><ele>1340.0</ele><time>2026-04-26T09:34:23.739Z</time></trkpt><trkpt lat="42.5003761" lon="12.9927848"><ele>1340.0</ele><time>2026-04-26T09:34:24.739Z</time></trkpt><trkpt lat="42.500334" lon="12.9929225"><ele>1337.6</ele><time>2026-04-26T09:34:25.739Z</time></trkpt><trkpt lat="42.5002977" lon="12.9930749"><ele>1335.2</ele><time>2026-04-26T09:34:26.739Z</time></trkpt><trkpt lat="42.5003167" lon="12.9932363"><ele>1332.8000000000002</ele><time>2026-04-26T09:34:27.74Z</time></trkpt><trkpt lat="42.5003558" lon="12.9933108"><ele>1330.4</ele><time>2026-04-26T09:34:28.739Z</time></trkpt><trkpt lat="42.5004859" lon="12.9933647"><ele>1328.0</ele><time>2026-04-26T09:34:29.739Z</time></trkpt><trkpt lat="42.5005692" lon="12.9933259"><ele>1327.75</ele><time>2026-04-26T09:34:30.74Z</time></trkpt><trkpt lat="42.5006486" lon="12.9932766"><ele>1327.5</ele><time>2026-04-26T09:34:31.74Z</time></trkpt><trkpt lat="42.5006919" lon="12.9931623"><ele>1327.25</ele><time>2026-04-26T09:34:32.739Z</time></trkpt><trkpt lat="42.5007505" lon="12.9929085"><ele>1327.0</ele><time>2026-04-26T09:34:33.738Z</time></trkpt><trkpt lat="42.5008073" lon="12.9927904"><ele>1327.0</ele><time>2026-04-26T09:34:34.739Z</time></trkpt><trkpt lat="42.5009002" lon="12.9927837"><ele>1327.0</ele><time>2026-04-26T09:34:35.739Z</time></trkpt><trkpt lat="42.5009661" lon="12.9928084"><ele>1327.0</ele><time>2026-04-26T09:34:36.74Z</time></trkpt><trkpt lat="42.50103" lon="12.9928707"><ele>1327.0</ele><time>2026-04-26T09:34:37.74Z</time></trkpt><trkpt lat="42.5010129" lon="12.9930118"><ele>1327.0</ele><time>2026-04-26T09:34:38.74Z</time></trkpt><trkpt lat="42.501031" lon="12.9931327"><ele>1327.0</ele><time>2026-04-26T09:34:39.739Z</time></trkpt><trkpt lat="42.5009822" lon="12.9932924"><ele>1327.3333333333333</ele><time>2026-04-26T09:34:40.739Z</time></trkpt><trkpt lat="42.5008894" lon="12.9934536"><ele>1327.6666666666667</ele><time>2026-04-26T09:34:41.738Z</time></trkpt><trkpt lat="42.5006681" lon="12.9935105"><ele>1328.0</ele><time>2026-04-26T09:34:42.738Z</time></trkpt><trkpt lat="42.500529" lon="12.9935919"><ele>1331.6000000000001</ele><time>2026-04-26T09:34:43.74Z</time></trkpt><trkpt lat="42.5004083" lon="12.9936645"><ele>1335.2</ele><time>2026-04-26T09:34:44.739Z</time></trkpt><trkpt lat="42.5003004" lon="12.9937395"><ele>1338.8</ele><time>2026-04-26T09:34:45.739Z</time></trkpt><trkpt lat="42.5002246" lon="12.9938285"><ele>1342.4</ele><time>2026-04-26T09:34:46.738Z</time></trkpt><trkpt lat="42.5001762" lon="12.9939126"><ele>1346.0</ele><time>2026-04-26T09:34:47.739Z</time></trkpt><trkpt lat="42.5002239" lon="12.994085"><ele>1346.0</ele><time>2026-04-26T09:34:49.739Z</time></trkpt><trkpt lat="42.5003075" lon="12.9941421"><ele>1346.0</ele><time>2026-04-26T09:34:50.74Z</time></trkpt><trkpt lat="42.5004349" lon="12.9941714"><ele>1346.0</ele><time>2026-04-26T09:34:51.74Z</time></trkpt><trkpt lat="42.5006005" lon="12.9941672"><ele>1346.0</ele><time>2026-04-26T09:34:52.74Z</time></trkpt><trkpt lat="42.500893" lon="12.9940115"><ele>1340.0</ele><time>2026-04-26T09:34:53.738Z</time></trkpt><trkpt lat="42.5010877" lon="12.9939309"><ele>1334.0</ele><time>2026-04-26T09:34:54.739Z</time></trkpt><trkpt lat="42.5012856" lon="12.9938427"><ele>1328.0</ele><time>2026-04-26T09:34:55.739Z</time></trkpt><trkpt lat="42.5014675" lon="12.9937288"><ele>1325.3333333333335</ele><time>2026-04-26T09:34:56.738Z</time></trkpt><trkpt lat="42.5016335" lon="12.9935776"><ele>1322.6666666666667</ele><time>2026-04-26T09:34:57.738Z</time></trkpt><trkpt lat="42.5017925" lon="12.9934114"><ele>1320.0</ele><time>2026-04-26T09:34:58.738Z</time></trkpt><trkpt lat="42.5019404" lon="12.9932428"><ele>1317.6666666666667</ele><time>2026-04-26T09:34:59.738Z</time></trkpt><trkpt lat="42.5020742" lon="12.9930554"><ele>1315.3333333333335</ele><time>2026-04-26T09:35:00.738Z</time></trkpt><trkpt lat="42.5022036" lon="12.9928915"><ele>1313.0</ele><time>2026-04-26T09:35:01.739Z</time></trkpt><trkpt lat="42.502332" lon="12.9927507"><ele>1313.0</ele><time>2026-04-26T09:35:02.739Z</time></trkpt><trkpt lat="42.5024638" lon="12.9926381"><ele>1313.0</ele><time>2026-04-26T09:35:03.74Z</time></trkpt><trkpt lat="42.5026206" lon="12.9925459"><ele>1313.0</ele><time>2026-04-26T09:35:04.739Z</time></trkpt><trkpt lat="42.5027942" lon="12.9924871"><ele>1305.6666666666667</ele><time>2026-04-26T09:35:05.74Z</time></trkpt><trkpt lat="42.5029789" lon="12.9924442"><ele>1298.3333333333333</ele><time>2026-04-26T09:35:06.739Z</time></trkpt><trkpt lat="42.5031702" lon="12.9924101"><ele>1291.0</ele><time>2026-04-26T09:35:07.738Z</time></trkpt><trkpt lat="42.5033595" lon="12.9923733"><ele>1291.0</ele><time>2026-04-26T09:35:08.739Z</time></trkpt><trkpt lat="42.5035441" lon="12.9923375"><ele>1291.0</ele><time>2026-04-26T09:35:09.739Z</time></trkpt><trkpt lat="42.5037335" lon="12.992322"><ele>1291.0</ele><time>2026-04-26T09:35:10.739Z</time></trkpt><trkpt lat="42.5039246" lon="12.9923263"><ele>1291.6666666666665</ele><time>2026-04-26T09:35:11.738Z</time></trkpt><trkpt lat="42.504108" lon="12.9923417"><ele>1292.3333333333333</ele><time>2026-04-26T09:35:12.739Z</time></trkpt><trkpt lat="42.50429" lon="12.9923317"><ele>1293.0</ele><time>2026-04-26T09:35:13.739Z</time></trkpt><trkpt lat="42.5044746" lon="12.9922923"><ele>1292.6666666666667</ele><time>2026-04-26T09:35:14.738Z</time></trkpt><trkpt lat="42.5046629" lon="12.992215"><ele>1292.3333333333335</ele><time>2026-04-26T09:35:15.739Z</time></trkpt><trkpt lat="42.5048537" lon="12.9921377"><ele>1292.0</ele><time>2026-04-26T09:35:16.739Z</time></trkpt><trkpt lat="42.5050455" lon="12.9920705"><ele>1292.0</ele><time>2026-04-26T09:35:17.74Z</time></trkpt><trkpt lat="42.505238" lon="12.9920077"><ele>1292.0</ele><time>2026-04-26T09:35:18.739Z</time></trkpt><trkpt lat="42.5054272" lon="12.99195"><ele>1292.0</ele><time>2026-04-26T09:35:19.739Z</time></trkpt><trkpt lat="42.5056099" lon="12.9918868"><ele>1295.3333333333335</ele><time>2026-04-26T09:35:20.739Z</time></trkpt><trkpt lat="42.5057893" lon="12.9918064"><ele>1298.6666666666667</ele><time>2026-04-26T09:35:21.738Z</time></trkpt><trkpt lat="42.5059629" lon="12.9917159"><ele>1302.0</ele><time>2026-04-26T09:35:22.739Z</time></trkpt><trkpt lat="42.5061361" lon="12.9915816"><ele>1293.6666666666667</ele><time>2026-04-26T09:35:23.738Z</time></trkpt><trkpt lat="42.5062973" lon="12.991445"><ele>1285.3333333333335</ele><time>2026-04-26T09:35:24.739Z</time></trkpt><trkpt lat="42.5064563" lon="12.9913024"><ele>1277.0</ele><time>2026-04-26T09:35:25.74Z</time></trkpt><trkpt lat="42.506616" lon="12.991165"><ele>1277.0</ele><time>2026-04-26T09:35:26.739Z</time></trkpt><trkpt lat="42.5067687" lon="12.991043"><ele>1277.0</ele><time>2026-04-26T09:35:27.739Z</time></trkpt><trkpt lat="42.5069233" lon="12.9909284"><ele>1277.0</ele><time>2026-04-26T09:35:28.739Z</time></trkpt><trkpt lat="42.5070861" lon="12.9908335"><ele>1270.6666666666667</ele><time>2026-04-26T09:35:29.74Z</time></trkpt><trkpt lat="42.5072519" lon="12.9907492"><ele>1264.3333333333333</ele><time>2026-04-26T09:35:30.739Z</time></trkpt><trkpt lat="42.5074187" lon="12.9906723"><ele>1258.0</ele><time>2026-04-26T09:35:31.74Z</time></trkpt><trkpt lat="42.5075846" lon="12.9905964"><ele>1258.0</ele><time>2026-04-26T09:35:32.739Z</time></trkpt><trkpt lat="42.507747" lon="12.9905176"><ele>1258.0</ele><time>2026-04-26T09:35:33.739Z</time></trkpt><trkpt lat="42.5079084" lon="12.9904391"><ele>1258.0</ele><time>2026-04-26T09:35:34.739Z</time></trkpt><trkpt lat="42.5080678" lon="12.9903642"><ele>1260.6666666666665</ele><time>2026-04-26T09:35:35.74Z</time></trkpt><trkpt lat="42.5082371" lon="12.9903234"><ele>1263.3333333333333</ele><time>2026-04-26T09:35:36.739Z</time></trkpt><trkpt lat="42.5084163" lon="12.990296"><ele>1266.0</ele><time>2026-04-26T09:35:37.74Z</time></trkpt><trkpt lat="42.5086031" lon="12.9902777"><ele>1268.0</ele><time>2026-04-26T09:35:38.739Z</time></trkpt><trkpt lat="42.5087942" lon="12.9902509"><ele>1270.0</ele><time>2026-04-26T09:35:39.738Z</time></trkpt><trkpt lat="42.5089809" lon="12.9902327"><ele>1272.0</ele><time>2026-04-26T09:35:40.738Z</time></trkpt><trkpt lat="42.5091723" lon="12.9902133"><ele>1272.0</ele><time>2026-04-26T09:35:41.739Z</time></trkpt><trkpt lat="42.509364" lon="12.990193"><ele>1272.0</ele><time>2026-04-26T09:35:42.739Z</time></trkpt><trkpt lat="42.5095565" lon="12.9901778"><ele>1272.0</ele><time>2026-04-26T09:35:43.739Z</time></trkpt><trkpt lat="42.5097527" lon="12.9901593"><ele>1270.3333333333333</ele><time>2026-04-26T09:35:44.74Z</time></trkpt><trkpt lat="42.5099487" lon="12.9901191"><ele>1268.6666666666665</ele><time>2026-04-26T09:35:45.739Z</time></trkpt><trkpt lat="42.5101421" lon="12.9900596"><ele>1267.0</ele><time>2026-04-26T09:35:46.738Z</time></trkpt><trkpt lat="42.5103331" lon="12.9899914"><ele>1252.6666666666665</ele><time>2026-04-26T09:35:47.74Z</time></trkpt><trkpt lat="42.5105153" lon="12.9899117"><ele>1238.3333333333333</ele><time>2026-04-26T09:35:48.74Z</time></trkpt><trkpt lat="42.5106963" lon="12.9898347"><ele>1224.0</ele><time>2026-04-26T09:35:49.738Z</time></trkpt><trkpt lat="42.5108756" lon="12.9897573"><ele>1224.0</ele><time>2026-04-26T09:35:50.739Z</time></trkpt><trkpt lat="42.5110465" lon="12.9896782"><ele>1224.0</ele><time>2026-04-26T09:35:51.738Z</time></trkpt><trkpt lat="42.5112164" lon="12.9896129"><ele>1224.0</ele><time>2026-04-26T09:35:52.739Z</time></trkpt><trkpt lat="42.5113875" lon="12.9895823"><ele>1224.3333333333333</ele><time>2026-04-26T09:35:53.738Z</time></trkpt><trkpt lat="42.5115565" lon="12.9895937"><ele>1224.6666666666665</ele><time>2026-04-26T09:35:54.74Z</time></trkpt><trkpt lat="42.5117222" lon="12.9896316"><ele>1225.0</ele><time>2026-04-26T09:35:55.74Z</time></trkpt><trkpt lat="42.5118881" lon="12.9896454"><ele>1225.0</ele><time>2026-04-26T09:35:56.739Z</time></trkpt><trkpt lat="42.5120513" lon="12.9896099"><ele>1225.0</ele><time>2026-04-26T09:35:57.74Z</time></trkpt><trkpt lat="42.5122172" lon="12.9895441"><ele>1225.0</ele><time>2026-04-26T09:35:58.739Z</time></trkpt><trkpt lat="42.5123872" lon="12.9894823"><ele>1225.0</ele><time>2026-04-26T09:35:59.738Z</time></trkpt><trkpt lat="42.5125644" lon="12.9894386"><ele>1225.0</ele><time>2026-04-26T09:36:00.739Z</time></trkpt><trkpt lat="42.512746" lon="12.9894116"><ele>1225.0</ele><time>2026-04-26T09:36:01.738Z</time></trkpt><trkpt lat="42.5129299" lon="12.9894055"><ele>1225.0</ele><time>2026-04-26T09:36:02.74Z</time></trkpt><trkpt lat="42.5131152" lon="12.9893973"><ele>1225.0</ele><time>2026-04-26T09:36:03.74Z</time></trkpt><trkpt lat="42.5133024" lon="12.9893762"><ele>1225.0</ele><time>2026-04-26T09:36:04.739Z</time></trkpt><trkpt lat="42.5134923" lon="12.9893427"><ele>1225.0</ele><time>2026-04-26T09:36:05.739Z</time></trkpt><trkpt lat="42.5136803" lon="12.9892999"><ele>1225.0</ele><time>2026-04-26T09:36:06.739Z</time></trkpt><trkpt lat="42.513865" lon="12.9892431"><ele>1225.0</ele><time>2026-04-26T09:36:07.738Z</time></trkpt><trkpt lat="42.5140441" lon="12.9891903"><ele>1211.0</ele><time>2026-04-26T09:36:08.739Z</time></trkpt><trkpt lat="42.5142227" lon="12.9891623"><ele>1197.0</ele><time>2026-04-26T09:36:09.738Z</time></trkpt><trkpt lat="42.5144054" lon="12.9891552"><ele>1183.0</ele><time>2026-04-26T09:36:10.739Z</time></trkpt><trkpt lat="42.5145856" lon="12.9891515"><ele>1183.0</ele><time>2026-04-26T09:36:11.74Z</time></trkpt><trkpt lat="42.5147668" lon="12.9891457"><ele>1183.0</ele><time>2026-04-26T09:36:12.74Z</time></trkpt><trkpt lat="42.514942" lon="12.9891469"><ele>1183.0</ele><time>2026-04-26T09:36:13.74Z</time></trkpt><trkpt lat="42.5151136" lon="12.9891435"><ele>1183.0</ele><time>2026-04-26T09:36:14.738Z</time></trkpt><trkpt lat="42.5152781" lon="12.9891155"><ele>1183.0</ele><time>2026-04-26T09:36:15.739Z</time></trkpt><trkpt lat="42.5154389" lon="12.9890363"><ele>1183.0</ele><time>2026-04-26T09:36:16.737Z</time></trkpt><trkpt lat="42.5155909" lon="12.9889245"><ele>1183.3333333333333</ele><time>2026-04-26T09:36:17.737Z</time></trkpt><trkpt lat="42.51573" lon="12.9888016"><ele>1183.6666666666667</ele><time>2026-04-26T09:36:18.738Z</time></trkpt><trkpt lat="42.5158521" lon="12.9886483"><ele>1184.0</ele><time>2026-04-26T09:36:19.737Z</time></trkpt><trkpt lat="42.5159425" lon="12.9884677"><ele>1179.0</ele><time>2026-04-26T09:36:20.738Z</time></trkpt><trkpt lat="42.5160027" lon="12.9882526"><ele>1174.0</ele><time>2026-04-26T09:36:21.738Z</time></trkpt><trkpt lat="42.5160296" lon="12.9880004"><ele>1169.0</ele><time>2026-04-26T09:36:22.739Z</time></trkpt><trkpt lat="42.516044" lon="12.9877314"><ele>1166.6666666666667</ele><time>2026-04-26T09:36:23.738Z</time></trkpt><trkpt lat="42.5160552" lon="12.9874543"><ele>1164.3333333333333</ele><time>2026-04-26T09:36:24.739Z</time></trkpt><trkpt lat="42.5160661" lon="12.9871801"><ele>1162.0</ele><time>2026-04-26T09:36:25.738Z</time></trkpt><trkpt lat="42.5160811" lon="12.9869157"><ele>1161.3333333333333</ele><time>2026-04-26T09:36:26.739Z</time></trkpt><trkpt lat="42.516089" lon="12.9866521"><ele>1160.6666666666667</ele><time>2026-04-26T09:36:27.739Z</time></trkpt><trkpt lat="42.5160948" lon="12.9864044"><ele>1160.0</ele><time>2026-04-26T09:36:28.738Z</time></trkpt><trkpt lat="42.5160999" lon="12.9861788"><ele>1160.0</ele><time>2026-04-26T09:36:29.739Z</time></trkpt><trkpt lat="42.5161134" lon="12.9859663"><ele>1160.0</ele><time>2026-04-26T09:36:30.738Z</time></trkpt><trkpt lat="42.5161517" lon="12.98577"><ele>1160.0</ele><time>2026-04-26T09:36:31.738Z</time></trkpt><trkpt lat="42.5162176" lon="12.9856"><ele>1160.0</ele><time>2026-04-26T09:36:32.738Z</time></trkpt><trkpt lat="42.5163209" lon="12.985451"><ele>1157.6666666666667</ele><time>2026-04-26T09:36:33.739Z</time></trkpt><trkpt lat="42.5164622" lon="12.9853229"><ele>1155.3333333333333</ele><time>2026-04-26T09:36:34.739Z</time></trkpt><trkpt lat="42.5166196" lon="12.9851996"><ele>1153.0</ele><time>2026-04-26T09:36:35.738Z</time></trkpt><trkpt lat="42.5167705" lon="12.9850852"><ele>1151.0</ele><time>2026-04-26T09:36:36.739Z</time></trkpt><trkpt lat="42.5169214" lon="12.9849804"><ele>1149.0</ele><time>2026-04-26T09:36:37.739Z</time></trkpt><trkpt lat="42.5170664" lon="12.9848802"><ele>1147.0</ele><time>2026-04-26T09:36:38.739Z</time></trkpt><trkpt lat="42.5172164" lon="12.984778"><ele>1147.0</ele><time>2026-04-26T09:36:39.739Z</time></trkpt><trkpt lat="42.5173604" lon="12.9846596"><ele>1147.0</ele><time>2026-04-26T09:36:40.738Z</time></trkpt><trkpt lat="42.5174875" lon="12.984502"><ele>1147.0</ele><time>2026-04-26T09:36:41.737Z</time></trkpt><trkpt lat="42.5175931" lon="12.9843054"><ele>1147.0</ele><time>2026-04-26T09:36:42.738Z</time></trkpt><trkpt lat="42.5176766" lon="12.9840746"><ele>1147.0</ele><time>2026-04-26T09:36:43.738Z</time></trkpt><trkpt lat="42.5177578" lon="12.983831"><ele>1147.0</ele><time>2026-04-26T09:36:44.739Z</time></trkpt><trkpt lat="42.5178441" lon="12.9835821"><ele>1144.6666666666665</ele><time>2026-04-26T09:36:45.738Z</time></trkpt><trkpt lat="42.5179384" lon="12.9833254"><ele>1142.3333333333333</ele><time>2026-04-26T09:36:46.738Z</time></trkpt><trkpt lat="42.5180333" lon="12.9830644"><ele>1140.0</ele><time>2026-04-26T09:36:47.739Z</time></trkpt><trkpt lat="42.5181212" lon="12.9828128"><ele>1140.0</ele><time>2026-04-26T09:36:48.738Z</time></trkpt><trkpt lat="42.5181999" lon="12.9825656"><ele>1140.0</ele><time>2026-04-26T09:36:49.738Z</time></trkpt><trkpt lat="42.5182627" lon="12.9823198"><ele>1140.0</ele><time>2026-04-26T09:36:50.738Z</time></trkpt><trkpt lat="42.5183104" lon="12.9820787"><ele>1140.0</ele><time>2026-04-26T09:36:51.739Z</time></trkpt><trkpt lat="42.5183589" lon="12.9818409"><ele>1140.0</ele><time>2026-04-26T09:36:52.738Z</time></trkpt><trkpt lat="42.5184239" lon="12.981604"><ele>1140.0</ele><time>2026-04-26T09:36:53.737Z</time></trkpt><trkpt lat="42.5184988" lon="12.9813756"><ele>1140.0</ele><time>2026-04-26T09:36:54.739Z</time></trkpt><trkpt lat="42.5185805" lon="12.9811538"><ele>1140.0</ele><time>2026-04-26T09:36:55.739Z</time></trkpt><trkpt lat="42.5186591" lon="12.9809422"><ele>1140.0</ele><time>2026-04-26T09:36:56.738Z</time></trkpt><trkpt lat="42.5187205" lon="12.9807167"><ele>1138.0</ele><time>2026-04-26T09:36:57.739Z</time></trkpt><trkpt lat="42.518767" lon="12.9804847"><ele>1136.0</ele><time>2026-04-26T09:36:58.739Z</time></trkpt><trkpt lat="42.5188002" lon="12.9802584"><ele>1134.0</ele><time>2026-04-26T09:36:59.739Z</time></trkpt><trkpt lat="42.5188273" lon="12.9800292"><ele>1133.0</ele><time>2026-04-26T09:37:00.739Z</time></trkpt><trkpt lat="42.5188461" lon="12.9797974"><ele>1132.0</ele><time>2026-04-26T09:37:01.739Z</time></trkpt><trkpt lat="42.5188643" lon="12.9795699"><ele>1131.0</ele><time>2026-04-26T09:37:02.738Z</time></trkpt><trkpt lat="42.51888" lon="12.9793396"><ele>1129.3333333333333</ele><time>2026-04-26T09:37:03.737Z</time></trkpt><trkpt lat="42.5188796" lon="12.9791006"><ele>1127.6666666666665</ele><time>2026-04-26T09:37:04.738Z</time></trkpt><trkpt lat="42.5188576" lon="12.9788583"><ele>1126.0</ele><time>2026-04-26T09:37:05.739Z</time></trkpt><trkpt lat="42.5188228" lon="12.9786196"><ele>1126.0</ele><time>2026-04-26T09:37:06.739Z</time></trkpt><trkpt lat="42.5187783" lon="12.9783819"><ele>1126.0</ele><time>2026-04-26T09:37:07.739Z</time></trkpt><trkpt lat="42.5187406" lon="12.9781411"><ele>1126.0</ele><time>2026-04-26T09:37:08.739Z</time></trkpt><trkpt lat="42.5187174" lon="12.9778894"><ele>1124.3333333333333</ele><time>2026-04-26T09:37:09.739Z</time></trkpt><trkpt lat="42.5186947" lon="12.9776448"><ele>1122.6666666666667</ele><time>2026-04-26T09:37:10.738Z</time></trkpt><trkpt lat="42.5187046" lon="12.9773777"><ele>1121.0</ele><time>2026-04-26T09:37:11.737Z</time></trkpt><trkpt lat="42.5187387" lon="12.9770955"><ele>1121.0</ele><time>2026-04-26T09:37:12.737Z</time></trkpt><trkpt lat="42.5187687" lon="12.9768262"><ele>1121.0</ele><time>2026-04-26T09:37:13.738Z</time></trkpt><trkpt lat="42.5188115" lon="12.9765506"><ele>1121.0</ele><time>2026-04-26T09:37:14.738Z</time></trkpt><trkpt lat="42.5188629" lon="12.9762788"><ele>1120.6666666666667</ele><time>2026-04-26T09:37:15.739Z</time></trkpt><trkpt lat="42.5189155" lon="12.9760108"><ele>1120.3333333333333</ele><time>2026-04-26T09:37:16.738Z</time></trkpt><trkpt lat="42.5189632" lon="12.9757539"><ele>1120.0</ele><time>2026-04-26T09:37:17.737Z</time></trkpt><trkpt lat="42.5190165" lon="12.9755036"><ele>1121.0</ele><time>2026-04-26T09:37:18.739Z</time></trkpt><trkpt lat="42.5190632" lon="12.9752561"><ele>1122.0</ele><time>2026-04-26T09:37:19.738Z</time></trkpt><trkpt lat="42.5191055" lon="12.9750001"><ele>1123.0</ele><time>2026-04-26T09:37:20.739Z</time></trkpt><trkpt lat="42.5191361" lon="12.9747397"><ele>1122.6666666666665</ele><time>2026-04-26T09:37:21.738Z</time></trkpt><trkpt lat="42.5191581" lon="12.9744698"><ele>1122.3333333333333</ele><time>2026-04-26T09:37:22.739Z</time></trkpt><trkpt lat="42.5191745" lon="12.9741928"><ele>1122.0</ele><time>2026-04-26T09:37:23.737Z</time></trkpt><trkpt lat="42.519187" lon="12.9739114"><ele>1122.0</ele><time>2026-04-26T09:37:24.737Z</time></trkpt><trkpt lat="42.5191979" lon="12.9736258"><ele>1122.0</ele><time>2026-04-26T09:37:25.738Z</time></trkpt><trkpt lat="42.5192123" lon="12.9733415"><ele>1122.0</ele><time>2026-04-26T09:37:26.738Z</time></trkpt><trkpt lat="42.5192364" lon="12.9730572"><ele>1124.0</ele><time>2026-04-26T09:37:27.739Z</time></trkpt><trkpt lat="42.5192694" lon="12.972773"><ele>1126.0</ele><time>2026-04-26T09:37:28.738Z</time></trkpt><trkpt lat="42.5193122" lon="12.9724974"><ele>1128.0</ele><time>2026-04-26T09:37:29.738Z</time></trkpt><trkpt lat="42.5193488" lon="12.9722269"><ele>1129.6666666666667</ele><time>2026-04-26T09:37:30.737Z</time></trkpt><trkpt lat="42.519372" lon="12.9719549"><ele>1131.3333333333335</ele><time>2026-04-26T09:37:31.738Z</time></trkpt><trkpt lat="42.5193882" lon="12.9716947"><ele>1133.0</ele><time>2026-04-26T09:37:32.737Z</time></trkpt><trkpt lat="42.5193875" lon="12.9714361"><ele>1133.0</ele><time>2026-04-26T09:37:33.737Z</time></trkpt><trkpt lat="42.5193662" lon="12.9711947"><ele>1133.0</ele><time>2026-04-26T09:37:34.738Z</time></trkpt><trkpt lat="42.519343" lon="12.9709657"><ele>1133.0</ele><time>2026-04-26T09:37:35.738Z</time></trkpt><trkpt lat="42.5193319" lon="12.9707365"><ele>1132.6666666666667</ele><time>2026-04-26T09:37:36.739Z</time></trkpt><trkpt lat="42.5193522" lon="12.9705005"><ele>1132.3333333333333</ele><time>2026-04-26T09:37:37.738Z</time></trkpt><trkpt lat="42.5194" lon="12.9702665"><ele>1132.0</ele><time>2026-04-26T09:37:38.739Z</time></trkpt><trkpt lat="42.5194426" lon="12.9700413"><ele>1131.0</ele><time>2026-04-26T09:37:39.738Z</time></trkpt><trkpt lat="42.5194458" lon="12.9698151"><ele>1130.0</ele><time>2026-04-26T09:37:40.738Z</time></trkpt><trkpt lat="42.5194338" lon="12.9695979"><ele>1129.0</ele><time>2026-04-26T09:37:41.737Z</time></trkpt><trkpt lat="42.5194259" lon="12.969393"><ele>1132.0</ele><time>2026-04-26T09:37:42.738Z</time></trkpt><trkpt lat="42.5194509" lon="12.9691834"><ele>1135.0</ele><time>2026-04-26T09:37:43.738Z</time></trkpt><trkpt lat="42.5195161" lon="12.9689844"><ele>1138.0</ele><time>2026-04-26T09:37:44.738Z</time></trkpt><trkpt lat="42.5195985" lon="12.9687884"><ele>1128.3333333333333</ele><time>2026-04-26T09:37:45.738Z</time></trkpt><trkpt lat="42.5196706" lon="12.9685527"><ele>1118.6666666666667</ele><time>2026-04-26T09:37:46.737Z</time></trkpt><trkpt lat="42.5197143" lon="12.9683024"><ele>1109.0</ele><time>2026-04-26T09:37:47.738Z</time></trkpt><trkpt lat="42.5197521" lon="12.9680439"><ele>1109.0</ele><time>2026-04-26T09:37:48.739Z</time></trkpt><trkpt lat="42.5197851" lon="12.967796"><ele>1109.0</ele><time>2026-04-26T09:37:49.739Z</time></trkpt><trkpt lat="42.5198395" lon="12.9675434"><ele>1109.0</ele><time>2026-04-26T09:37:50.738Z</time></trkpt><trkpt lat="42.5199164" lon="12.967302"><ele>1109.3333333333335</ele><time>2026-04-26T09:37:51.737Z</time></trkpt><trkpt lat="42.5200018" lon="12.9670627"><ele>1109.6666666666667</ele><time>2026-04-26T09:37:52.739Z</time></trkpt><trkpt lat="42.5200793" lon="12.966817"><ele>1110.0</ele><time>2026-04-26T09:37:53.738Z</time></trkpt><trkpt lat="42.5201345" lon="12.966558"><ele>1113.0</ele><time>2026-04-26T09:37:54.739Z</time></trkpt><trkpt lat="42.5201856" lon="12.9662967"><ele>1116.0</ele><time>2026-04-26T09:37:55.738Z</time></trkpt><trkpt lat="42.5202325" lon="12.9660367"><ele>1119.0</ele><time>2026-04-26T09:37:56.739Z</time></trkpt><trkpt lat="42.5202722" lon="12.9657876"><ele>1119.0</ele><time>2026-04-26T09:37:57.739Z</time></trkpt><trkpt lat="42.5202878" lon="12.9655413"><ele>1119.0</ele><time>2026-04-26T09:37:58.738Z</time></trkpt><trkpt lat="42.5203005" lon="12.9653008"><ele>1119.0</ele><time>2026-04-26T09:37:59.738Z</time></trkpt><trkpt lat="42.5203274" lon="12.9650567"><ele>1124.3333333333333</ele><time>2026-04-26T09:38:00.738Z</time></trkpt><trkpt lat="42.5203773" lon="12.9648141"><ele>1129.6666666666665</ele><time>2026-04-26T09:38:01.738Z</time></trkpt><trkpt lat="42.5204414" lon="12.964583"><ele>1135.0</ele><time>2026-04-26T09:38:02.739Z</time></trkpt><trkpt lat="42.5205043" lon="12.9643623"><ele>1120.6666666666665</ele><time>2026-04-26T09:38:03.738Z</time></trkpt><trkpt lat="42.5205454" lon="12.9641294"><ele>1106.3333333333333</ele><time>2026-04-26T09:38:04.737Z</time></trkpt><trkpt lat="42.5205621" lon="12.9638995"><ele>1092.0</ele><time>2026-04-26T09:38:05.738Z</time></trkpt><trkpt lat="42.520564" lon="12.9636708"><ele>1092.0</ele><time>2026-04-26T09:38:06.739Z</time></trkpt><trkpt lat="42.5205734" lon="12.9634386"><ele>1092.0</ele><time>2026-04-26T09:38:07.738Z</time></trkpt><trkpt lat="42.5206013" lon="12.9632094"><ele>1092.0</ele><time>2026-04-26T09:38:08.737Z</time></trkpt><trkpt lat="42.5206588" lon="12.9629827"><ele>1093.0</ele><time>2026-04-26T09:38:09.738Z</time></trkpt><trkpt lat="42.5207309" lon="12.9627602"><ele>1094.0</ele><time>2026-04-26T09:38:10.739Z</time></trkpt><trkpt lat="42.5207907" lon="12.9625414"><ele>1095.0</ele><time>2026-04-26T09:38:11.739Z</time></trkpt><trkpt lat="42.5208352" lon="12.9623277"><ele>1099.0</ele><time>2026-04-26T09:38:12.737Z</time></trkpt><trkpt lat="42.5208836" lon="12.9621172"><ele>1103.0</ele><time>2026-04-26T09:38:13.738Z</time></trkpt><trkpt lat="42.5209484" lon="12.9619037"><ele>1107.0</ele><time>2026-04-26T09:38:14.739Z</time></trkpt><trkpt lat="42.5210396" lon="12.9617038"><ele>1112.0</ele><time>2026-04-26T09:38:15.739Z</time></trkpt><trkpt lat="42.5211629" lon="12.9615265"><ele>1117.0</ele><time>2026-04-26T09:38:16.739Z</time></trkpt><trkpt lat="42.5213033" lon="12.9613529"><ele>1122.0</ele><time>2026-04-26T09:38:17.739Z</time></trkpt><trkpt lat="42.5214426" lon="12.9611787"><ele>1117.0</ele><time>2026-04-26T09:38:18.738Z</time></trkpt><trkpt lat="42.5215804" lon="12.9610158"><ele>1112.0</ele><time>2026-04-26T09:38:19.738Z</time></trkpt><trkpt lat="42.5217172" lon="12.960855"><ele>1107.0</ele><time>2026-04-26T09:38:20.739Z</time></trkpt><trkpt lat="42.5218533" lon="12.9606948"><ele>1107.0</ele><time>2026-04-26T09:38:21.738Z</time></trkpt><trkpt lat="42.5219821" lon="12.9605397"><ele>1107.0</ele><time>2026-04-26T09:38:22.738Z</time></trkpt><trkpt lat="42.5221011" lon="12.9603752"><ele>1107.0</ele><time>2026-04-26T09:38:23.739Z</time></trkpt><trkpt lat="42.522204" lon="12.9601873"><ele>1102.0</ele><time>2026-04-26T09:38:24.739Z</time></trkpt><trkpt lat="42.5222982" lon="12.9600147"><ele>1097.0</ele><time>2026-04-26T09:38:25.737Z</time></trkpt><trkpt lat="42.5223881" lon="12.9598463"><ele>1092.0</ele><time>2026-04-26T09:38:26.738Z</time></trkpt><trkpt lat="42.522515" lon="12.9597154"><ele>1092.0</ele><time>2026-04-26T09:38:27.737Z</time></trkpt><trkpt lat="42.5226543" lon="12.9596162"><ele>1092.0</ele><time>2026-04-26T09:38:28.737Z</time></trkpt><trkpt lat="42.5228068" lon="12.9595515"><ele>1092.0</ele><time>2026-04-26T09:38:29.738Z</time></trkpt><trkpt lat="42.522941" lon="12.9594883"><ele>1092.6666666666667</ele><time>2026-04-26T09:38:30.738Z</time></trkpt><trkpt lat="42.5230695" lon="12.9593686"><ele>1093.3333333333335</ele><time>2026-04-26T09:38:31.738Z</time></trkpt><trkpt lat="42.5231926" lon="12.9592022"><ele>1094.0</ele><time>2026-04-26T09:38:32.738Z</time></trkpt><trkpt lat="42.5233224" lon="12.9590424"><ele>1094.6666666666667</ele><time>2026-04-26T09:38:33.738Z</time></trkpt><trkpt lat="42.523477" lon="12.958892"><ele>1095.3333333333333</ele><time>2026-04-26T09:38:34.738Z</time></trkpt><trkpt lat="42.5236339" lon="12.9587425"><ele>1096.0</ele><time>2026-04-26T09:38:35.738Z</time></trkpt><trkpt lat="42.5237929" lon="12.9585911"><ele>1093.3333333333333</ele><time>2026-04-26T09:38:36.738Z</time></trkpt><trkpt lat="42.52397" lon="12.9584558"><ele>1090.6666666666667</ele><time>2026-04-26T09:38:37.738Z</time></trkpt><trkpt lat="42.5241378" lon="12.9583137"><ele>1088.0</ele><time>2026-04-26T09:38:38.737Z</time></trkpt><trkpt lat="42.5243153" lon="12.9581892"><ele>1088.0</ele><time>2026-04-26T09:38:39.737Z</time></trkpt><trkpt lat="42.5244999" lon="12.9580805"><ele>1088.0</ele><time>2026-04-26T09:38:40.738Z</time></trkpt><trkpt lat="42.524674" lon="12.9579662"><ele>1088.0</ele><time>2026-04-26T09:38:41.738Z</time></trkpt><trkpt lat="42.5248584" lon="12.9578669"><ele>1082.6666666666667</ele><time>2026-04-26T09:38:42.738Z</time></trkpt><trkpt lat="42.5250494" lon="12.9577858"><ele>1077.3333333333333</ele><time>2026-04-26T09:38:43.739Z</time></trkpt><trkpt lat="42.5252352" lon="12.9577113"><ele>1072.0</ele><time>2026-04-26T09:38:44.738Z</time></trkpt><trkpt lat="42.5254174" lon="12.9576422"><ele>1071.3333333333333</ele><time>2026-04-26T09:38:45.738Z</time></trkpt><trkpt lat="42.5255936" lon="12.9575808"><ele>1070.6666666666667</ele><time>2026-04-26T09:38:46.738Z</time></trkpt><trkpt lat="42.5257631" lon="12.957525"><ele>1070.0</ele><time>2026-04-26T09:38:47.738Z</time></trkpt><trkpt lat="42.5259261" lon="12.9574635"><ele>1071.3333333333335</ele><time>2026-04-26T09:38:48.737Z</time></trkpt><trkpt lat="42.5260678" lon="12.9573594"><ele>1072.6666666666667</ele><time>2026-04-26T09:38:49.738Z</time></trkpt><trkpt lat="42.5261985" lon="12.9572292"><ele>1074.0</ele><time>2026-04-26T09:38:50.738Z</time></trkpt><trkpt lat="42.5263474" lon="12.9571228"><ele>1074.0</ele><time>2026-04-26T09:38:51.739Z</time></trkpt><trkpt lat="42.5265029" lon="12.957039"><ele>1074.0</ele><time>2026-04-26T09:38:52.738Z</time></trkpt><trkpt lat="42.526646" lon="12.9569443"><ele>1074.0</ele><time>2026-04-26T09:38:53.737Z</time></trkpt><trkpt lat="42.5267828" lon="12.9568441"><ele>1074.0</ele><time>2026-04-26T09:38:54.738Z</time></trkpt><trkpt lat="42.5269352" lon="12.9567786"><ele>1074.0</ele><time>2026-04-26T09:38:55.738Z</time></trkpt><trkpt lat="42.5271034" lon="12.9567651"><ele>1074.0</ele><time>2026-04-26T09:38:56.737Z</time></trkpt><trkpt lat="42.5272706" lon="12.9567886"><ele>1079.0</ele><time>2026-04-26T09:38:57.738Z</time></trkpt><trkpt lat="42.527437" lon="12.9568163"><ele>1084.0</ele><time>2026-04-26T09:38:58.739Z</time></trkpt><trkpt lat="42.5276126" lon="12.9568167"><ele>1089.0</ele><time>2026-04-26T09:38:59.739Z</time></trkpt><trkpt lat="42.5277893" lon="12.9567808"><ele>1087.3333333333333</ele><time>2026-04-26T09:39:00.739Z</time></trkpt><trkpt lat="42.5279604" lon="12.956702"><ele>1085.6666666666665</ele><time>2026-04-26T09:39:01.738Z</time></trkpt><trkpt lat="42.528124" lon="12.9566217"><ele>1084.0</ele><time>2026-04-26T09:39:02.737Z</time></trkpt><trkpt lat="42.5282897" lon="12.9565785"><ele>1084.0</ele><time>2026-04-26T09:39:03.738Z</time></trkpt><trkpt lat="42.5284582" lon="12.9565645"><ele>1084.0</ele><time>2026-04-26T09:39:04.738Z</time></trkpt><trkpt lat="42.5286258" lon="12.9565556"><ele>1084.0</ele><time>2026-04-26T09:39:05.738Z</time></trkpt><trkpt lat="42.5288009" lon="12.9565094"><ele>1075.3333333333333</ele><time>2026-04-26T09:39:06.738Z</time></trkpt><trkpt lat="42.5289751" lon="12.956419"><ele>1066.6666666666667</ele><time>2026-04-26T09:39:07.739Z</time></trkpt><trkpt lat="42.5291435" lon="12.9562846"><ele>1058.0</ele><time>2026-04-26T09:39:08.739Z</time></trkpt><trkpt lat="42.5293099" lon="12.9561226"><ele>1058.0</ele><time>2026-04-26T09:39:09.738Z</time></trkpt><trkpt lat="42.5294774" lon="12.9559603"><ele>1058.0</ele><time>2026-04-26T09:39:10.738Z</time></trkpt><trkpt lat="42.5296434" lon="12.9558126"><ele>1058.0</ele><time>2026-04-26T09:39:11.738Z</time></trkpt><trkpt lat="42.5298156" lon="12.9556847"><ele>1057.6666666666667</ele><time>2026-04-26T09:39:12.738Z</time></trkpt><trkpt lat="42.5299894" lon="12.9555724"><ele>1057.3333333333333</ele><time>2026-04-26T09:39:13.739Z</time></trkpt><trkpt lat="42.5301631" lon="12.9554604"><ele>1057.0</ele><time>2026-04-26T09:39:14.738Z</time></trkpt><trkpt lat="42.5303252" lon="12.9553377"><ele>1058.3333333333333</ele><time>2026-04-26T09:39:15.738Z</time></trkpt><trkpt lat="42.5304896" lon="12.9552319"><ele>1059.6666666666667</ele><time>2026-04-26T09:39:16.739Z</time></trkpt><trkpt lat="42.5306551" lon="12.9551434"><ele>1061.0</ele><time>2026-04-26T09:39:17.739Z</time></trkpt><trkpt lat="42.5308141" lon="12.9550494"><ele>1059.6666666666667</ele><time>2026-04-26T09:39:18.738Z</time></trkpt><trkpt lat="42.5309772" lon="12.9549751"><ele>1058.3333333333333</ele><time>2026-04-26T09:39:19.737Z</time></trkpt><trkpt lat="42.531151" lon="12.954941"><ele>1057.0</ele><time>2026-04-26T09:39:20.737Z</time></trkpt><trkpt lat="42.5313282" lon="12.9549582"><ele>1057.0</ele><time>2026-04-26T09:39:21.738Z</time></trkpt><trkpt lat="42.5315046" lon="12.9549386"><ele>1057.0</ele><time>2026-04-26T09:39:22.738Z</time></trkpt><trkpt lat="42.5316778" lon="12.9549207"><ele>1057.0</ele><time>2026-04-26T09:39:23.738Z</time></trkpt><trkpt lat="42.531874" lon="12.9547339"><ele>1057.0</ele><time>2026-04-26T09:39:24.738Z</time></trkpt><trkpt lat="42.5320521" lon="12.9546624"><ele>1057.0</ele><time>2026-04-26T09:39:25.736Z</time></trkpt><trkpt lat="42.5322329" lon="12.9546036"><ele>1057.0</ele><time>2026-04-26T09:39:26.737Z</time></trkpt><trkpt lat="42.5324137" lon="12.9545949"><ele>1055.0</ele><time>2026-04-26T09:39:27.737Z</time></trkpt><trkpt lat="42.5325989" lon="12.9546243"><ele>1053.0</ele><time>2026-04-26T09:39:28.738Z</time></trkpt><trkpt lat="42.5327715" lon="12.9546607"><ele>1051.0</ele><time>2026-04-26T09:39:29.737Z</time></trkpt><trkpt lat="42.5329396" lon="12.9546982"><ele>1051.0</ele><time>2026-04-26T09:39:30.736Z</time></trkpt><trkpt lat="42.5330991" lon="12.9547067"><ele>1051.0</ele><time>2026-04-26T09:39:31.736Z</time></trkpt><trkpt lat="42.5332687" lon="12.954667"><ele>1051.0</ele><time>2026-04-26T09:39:32.737Z</time></trkpt><trkpt lat="42.5334341" lon="12.9546114"><ele>1051.0</ele><time>2026-04-26T09:39:33.737Z</time></trkpt><trkpt lat="42.5336018" lon="12.9545671"><ele>1051.0</ele><time>2026-04-26T09:39:34.738Z</time></trkpt><trkpt lat="42.533768" lon="12.9545344"><ele>1051.0</ele><time>2026-04-26T09:39:35.737Z</time></trkpt><trkpt lat="42.5339377" lon="12.9544715"><ele>1052.3333333333333</ele><time>2026-04-26T09:39:36.737Z</time></trkpt><trkpt lat="42.5341052" lon="12.9543554"><ele>1053.6666666666667</ele><time>2026-04-26T09:39:37.737Z</time></trkpt><trkpt lat="42.5342707" lon="12.9542372"><ele>1055.0</ele><time>2026-04-26T09:39:38.738Z</time></trkpt><trkpt lat="42.5344391" lon="12.9541352"><ele>1050.0</ele><time>2026-04-26T09:39:39.738Z</time></trkpt><trkpt lat="42.5345963" lon="12.9540128"><ele>1045.0</ele><time>2026-04-26T09:39:40.737Z</time></trkpt><trkpt lat="42.5347308" lon="12.9538325"><ele>1040.0</ele><time>2026-04-26T09:39:41.736Z</time></trkpt><trkpt lat="42.5348651" lon="12.9536575"><ele>1040.0</ele><time>2026-04-26T09:39:42.737Z</time></trkpt><trkpt lat="42.5350051" lon="12.9534879"><ele>1040.0</ele><time>2026-04-26T09:39:43.736Z</time></trkpt><trkpt lat="42.5351611" lon="12.9533324"><ele>1040.0</ele><time>2026-04-26T09:39:44.737Z</time></trkpt><trkpt lat="42.5353325" lon="12.9531863"><ele>1040.3333333333335</ele><time>2026-04-26T09:39:45.736Z</time></trkpt><trkpt lat="42.5355148" lon="12.9530576"><ele>1040.6666666666667</ele><time>2026-04-26T09:39:46.738Z</time></trkpt><trkpt lat="42.5357139" lon="12.9529604"><ele>1041.0</ele><time>2026-04-26T09:39:47.737Z</time></trkpt><trkpt lat="42.535923" lon="12.9528923"><ele>1041.0</ele><time>2026-04-26T09:39:48.737Z</time></trkpt><trkpt lat="42.5361368" lon="12.9528516"><ele>1041.0</ele><time>2026-04-26T09:39:49.737Z</time></trkpt><trkpt lat="42.5363556" lon="12.9528341"><ele>1041.0</ele><time>2026-04-26T09:39:50.737Z</time></trkpt><trkpt lat="42.5365779" lon="12.9528086"><ele>1043.3333333333333</ele><time>2026-04-26T09:39:51.737Z</time></trkpt><trkpt lat="42.5368002" lon="12.9527792"><ele>1045.6666666666665</ele><time>2026-04-26T09:39:52.736Z</time></trkpt><trkpt lat="42.5370145" lon="12.952749"><ele>1048.0</ele><time>2026-04-26T09:39:53.737Z</time></trkpt><trkpt lat="42.5372213" lon="12.9527227"><ele>1048.0</ele><time>2026-04-26T09:39:54.737Z</time></trkpt><trkpt lat="42.5374179" lon="12.9527011"><ele>1048.0</ele><time>2026-04-26T09:39:55.737Z</time></trkpt><trkpt lat="42.5376079" lon="12.9526814"><ele>1048.0</ele><time>2026-04-26T09:39:56.737Z</time></trkpt><trkpt lat="42.5378009" lon="12.9526651"><ele>1045.3333333333333</ele><time>2026-04-26T09:39:57.736Z</time></trkpt><trkpt lat="42.5379839" lon="12.9526924"><ele>1042.6666666666667</ele><time>2026-04-26T09:39:58.736Z</time></trkpt><trkpt lat="42.5382049" lon="12.9527835"><ele>1040.0</ele><time>2026-04-26T09:39:59.737Z</time></trkpt><trkpt lat="42.5384222" lon="12.9528294"><ele>1040.0</ele><time>2026-04-26T09:40:00.738Z</time></trkpt><trkpt lat="42.5386227" lon="12.9528716"><ele>1040.0</ele><time>2026-04-26T09:40:01.736Z</time></trkpt><trkpt lat="42.5388179" lon="12.9529114"><ele>1040.0</ele><time>2026-04-26T09:40:02.738Z</time></trkpt><trkpt lat="42.5390165" lon="12.952919"><ele>1040.0</ele><time>2026-04-26T09:40:03.738Z</time></trkpt><trkpt lat="42.5392103" lon="12.9528864"><ele>1040.0</ele><time>2026-04-26T09:40:04.737Z</time></trkpt><trkpt lat="42.5394004" lon="12.9528185"><ele>1040.0</ele><time>2026-04-26T09:40:05.736Z</time></trkpt><trkpt lat="42.5395815" lon="12.9527473"><ele>1040.0</ele><time>2026-04-26T09:40:06.737Z</time></trkpt><trkpt lat="42.539762" lon="12.9526702"><ele>1040.0</ele><time>2026-04-26T09:40:07.737Z</time></trkpt><trkpt lat="42.5399493" lon="12.9526163"><ele>1040.0</ele><time>2026-04-26T09:40:08.738Z</time></trkpt><trkpt lat="42.5401418" lon="12.9525872"><ele>1040.0</ele><time>2026-04-26T09:40:09.737Z</time></trkpt><trkpt lat="42.5403213" lon="12.952594"><ele>1040.0</ele><time>2026-04-26T09:40:10.737Z</time></trkpt><trkpt lat="42.5405035" lon="12.952629"><ele>1040.0</ele><time>2026-04-26T09:40:11.737Z</time></trkpt><trkpt lat="42.5406858" lon="12.9527032"><ele>1040.0</ele><time>2026-04-26T09:40:12.737Z</time></trkpt><trkpt lat="42.5408629" lon="12.9528163"><ele>1040.0</ele><time>2026-04-26T09:40:13.737Z</time></trkpt><trkpt lat="42.5410418" lon="12.9529538"><ele>1040.0</ele><time>2026-04-26T09:40:14.737Z</time></trkpt><trkpt lat="42.5412249" lon="12.9531134"><ele>1044.0</ele><time>2026-04-26T09:40:15.737Z</time></trkpt><trkpt lat="42.5414069" lon="12.9532709"><ele>1048.0</ele><time>2026-04-26T09:40:16.737Z</time></trkpt><trkpt lat="42.5415969" lon="12.9534305"><ele>1052.0</ele><time>2026-04-26T09:40:17.737Z</time></trkpt><trkpt lat="42.5417915" lon="12.9535839"><ele>1052.0</ele><time>2026-04-26T09:40:18.737Z</time></trkpt><trkpt lat="42.5419941" lon="12.953714"><ele>1052.0</ele><time>2026-04-26T09:40:19.737Z</time></trkpt><trkpt lat="42.5421938" lon="12.9538301"><ele>1052.0</ele><time>2026-04-26T09:40:20.737Z</time></trkpt><trkpt lat="42.542386" lon="12.9539291"><ele>1042.6666666666667</ele><time>2026-04-26T09:40:21.738Z</time></trkpt><trkpt lat="42.5425702" lon="12.9540322"><ele>1033.3333333333333</ele><time>2026-04-26T09:40:22.737Z</time></trkpt><trkpt lat="42.5427438" lon="12.9541392"><ele>1024.0</ele><time>2026-04-26T09:40:23.737Z</time></trkpt><trkpt lat="42.5429156" lon="12.9542728"><ele>1024.0</ele><time>2026-04-26T09:40:24.737Z</time></trkpt><trkpt lat="42.5430753" lon="12.9544294"><ele>1024.0</ele><time>2026-04-26T09:40:25.737Z</time></trkpt><trkpt lat="42.5432158" lon="12.9546155"><ele>1024.0</ele><time>2026-04-26T09:40:26.736Z</time></trkpt><trkpt lat="42.5433445" lon="12.9548217"><ele>1021.6666666666666</ele><time>2026-04-26T09:40:27.737Z</time></trkpt><trkpt lat="42.543471" lon="12.9550403"><ele>1019.3333333333333</ele><time>2026-04-26T09:40:28.736Z</time></trkpt><trkpt lat="42.543615" lon="12.955236"><ele>1017.0</ele><time>2026-04-26T09:40:29.737Z</time></trkpt><trkpt lat="42.5437762" lon="12.9554096"><ele>1017.0</ele><time>2026-04-26T09:40:30.737Z</time></trkpt><trkpt lat="42.5439441" lon="12.9555679"><ele>1017.0</ele><time>2026-04-26T09:40:31.736Z</time></trkpt><trkpt lat="42.5441029" lon="12.9557472"><ele>1017.0</ele><time>2026-04-26T09:40:32.738Z</time></trkpt><trkpt lat="42.5442504" lon="12.955943"><ele>1016.6666666666667</ele><time>2026-04-26T09:40:33.737Z</time></trkpt><trkpt lat="42.5443818" lon="12.9561507"><ele>1016.3333333333334</ele><time>2026-04-26T09:40:34.737Z</time></trkpt><trkpt lat="42.5445185" lon="12.9563502"><ele>1016.0</ele><time>2026-04-26T09:40:35.738Z</time></trkpt><trkpt lat="42.5446815" lon="12.9565172"><ele>1016.0</ele><time>2026-04-26T09:40:36.737Z</time></trkpt><trkpt lat="42.5448545" lon="12.9566673"><ele>1016.0</ele><time>2026-04-26T09:40:37.737Z</time></trkpt><trkpt lat="42.5450356" lon="12.9568078"><ele>1016.0</ele><time>2026-04-26T09:40:38.736Z</time></trkpt><trkpt lat="42.5452158" lon="12.9569448"><ele>1018.0</ele><time>2026-04-26T09:40:39.737Z</time></trkpt><trkpt lat="42.5453865" lon="12.9570719"><ele>1020.0</ele><time>2026-04-26T09:40:40.737Z</time></trkpt><trkpt lat="42.5455587" lon="12.957183"><ele>1022.0</ele><time>2026-04-26T09:40:41.737Z</time></trkpt><trkpt lat="42.5457342" lon="12.9572712"><ele>1022.0</ele><time>2026-04-26T09:40:42.738Z</time></trkpt><trkpt lat="42.5459076" lon="12.9573422"><ele>1022.0</ele><time>2026-04-26T09:40:43.738Z</time></trkpt><trkpt lat="42.5462406" lon="12.9575419"><ele>1022.3333333333334</ele><time>2026-04-26T09:40:45.737Z</time></trkpt><trkpt lat="42.5463988" lon="12.9576901"><ele>1022.6666666666667</ele><time>2026-04-26T09:40:46.737Z</time></trkpt><trkpt lat="42.5465526" lon="12.9578697"><ele>1023.0</ele><time>2026-04-26T09:40:47.738Z</time></trkpt><trkpt lat="42.5467101" lon="12.9580718"><ele>1023.0</ele><time>2026-04-26T09:40:48.737Z</time></trkpt><trkpt lat="42.5468758" lon="12.9582898"><ele>1023.0</ele><time>2026-04-26T09:40:49.737Z</time></trkpt><trkpt lat="42.5470433" lon="12.9585091"><ele>1014.0</ele><time>2026-04-26T09:40:50.737Z</time></trkpt><trkpt lat="42.5472128" lon="12.95873"><ele>1005.0</ele><time>2026-04-26T09:40:51.736Z</time></trkpt><trkpt lat="42.5473789" lon="12.95895"><ele>1005.0</ele><time>2026-04-26T09:40:52.737Z</time></trkpt><trkpt lat="42.5475435" lon="12.9591693"><ele>1005.0</ele><time>2026-04-26T09:40:53.737Z</time></trkpt><trkpt lat="42.547694" lon="12.9593915"><ele>1006.0</ele><time>2026-04-26T09:40:54.737Z</time></trkpt><trkpt lat="42.5478255" lon="12.9596201"><ele>1007.0</ele><time>2026-04-26T09:40:55.737Z</time></trkpt><trkpt lat="42.5479479" lon="12.9598471"><ele>1008.0</ele><time>2026-04-26T09:40:56.738Z</time></trkpt><trkpt lat="42.548071" lon="12.9600635"><ele>1008.0</ele><time>2026-04-26T09:40:57.736Z</time></trkpt><trkpt lat="42.548193" lon="12.9602712"><ele>1008.0</ele><time>2026-04-26T09:40:58.736Z</time></trkpt><trkpt lat="42.5483321" lon="12.9604538"><ele>1008.0</ele><time>2026-04-26T09:40:59.737Z</time></trkpt><trkpt lat="42.5484996" lon="12.9606086"><ele>1008.0</ele><time>2026-04-26T09:41:00.737Z</time></trkpt><trkpt lat="42.5486831" lon="12.9607406"><ele>1008.0</ele><time>2026-04-26T09:41:01.736Z</time></trkpt><trkpt lat="42.5488713" lon="12.960861"><ele>1008.0</ele><time>2026-04-26T09:41:02.737Z</time></trkpt><trkpt lat="42.549071" lon="12.960967"><ele>1011.6666666666667</ele><time>2026-04-26T09:41:03.738Z</time></trkpt><trkpt lat="42.5492743" lon="12.9610688"><ele>1015.3333333333334</ele><time>2026-04-26T09:41:04.738Z</time></trkpt><trkpt lat="42.5494777" lon="12.9611871"><ele>1019.0</ele><time>2026-04-26T09:41:05.737Z</time></trkpt><trkpt lat="42.549674" lon="12.9613344"><ele>1004.0</ele><time>2026-04-26T09:41:06.737Z</time></trkpt><trkpt lat="42.5498685" lon="12.9614953"><ele>989.0</ele><time>2026-04-26T09:41:07.736Z</time></trkpt><trkpt lat="42.5500587" lon="12.9616674"><ele>991.0</ele><time>2026-04-26T09:41:08.738Z</time></trkpt><trkpt lat="42.550251" lon="12.9618366"><ele>993.0</ele><time>2026-04-26T09:41:09.738Z</time></trkpt><trkpt lat="42.5504366" lon="12.9619927"><ele>995.0</ele><time>2026-04-26T09:41:10.738Z</time></trkpt><trkpt lat="42.5506266" lon="12.9621179"><ele>995.0</ele><time>2026-04-26T09:41:11.737Z</time></trkpt><trkpt lat="42.5508312" lon="12.9622022"><ele>995.0</ele><time>2026-04-26T09:41:12.738Z</time></trkpt><trkpt lat="42.5510264" lon="12.962259"><ele>995.0</ele><time>2026-04-26T09:41:13.737Z</time></trkpt><trkpt lat="42.5512189" lon="12.9623112"><ele>988.6666666666667</ele><time>2026-04-26T09:41:14.738Z</time></trkpt><trkpt lat="42.5514062" lon="12.9623647"><ele>982.3333333333333</ele><time>2026-04-26T09:41:15.736Z</time></trkpt><trkpt lat="42.5515884" lon="12.9624101"><ele>976.0</ele><time>2026-04-26T09:41:16.736Z</time></trkpt><trkpt lat="42.5517574" lon="12.9624546"><ele>976.0</ele><time>2026-04-26T09:41:17.737Z</time></trkpt><trkpt lat="42.5519157" lon="12.9625254"><ele>976.0</ele><time>2026-04-26T09:41:18.737Z</time></trkpt><trkpt lat="42.5520635" lon="12.9626374"><ele>976.0</ele><time>2026-04-26T09:41:19.737Z</time></trkpt><trkpt lat="42.5521765" lon="12.9627941"><ele>976.0</ele><time>2026-04-26T09:41:20.737Z</time></trkpt><trkpt lat="42.5522732" lon="12.962972"><ele>976.0</ele><time>2026-04-26T09:41:21.738Z</time></trkpt><trkpt lat="42.5524011" lon="12.963133"><ele>976.0</ele><time>2026-04-26T09:41:22.738Z</time></trkpt><trkpt lat="42.552562" lon="12.9632531"><ele>976.0</ele><time>2026-04-26T09:41:23.737Z</time></trkpt><trkpt lat="42.5527482" lon="12.9633334"><ele>976.0</ele><time>2026-04-26T09:41:24.737Z</time></trkpt><trkpt lat="42.5529425" lon="12.963396"><ele>976.0</ele><time>2026-04-26T09:41:25.737Z</time></trkpt><trkpt lat="42.5531501" lon="12.9634517"><ele>984.0</ele><time>2026-04-26T09:41:26.738Z</time></trkpt><trkpt lat="42.5533672" lon="12.9635343"><ele>992.0</ele><time>2026-04-26T09:41:27.737Z</time></trkpt><trkpt lat="42.553589" lon="12.9636384"><ele>981.0</ele><time>2026-04-26T09:41:28.738Z</time></trkpt><trkpt lat="42.5538124" lon="12.9637615"><ele>970.0</ele><time>2026-04-26T09:41:29.738Z</time></trkpt><trkpt lat="42.5540338" lon="12.9638981"><ele>970.0</ele><time>2026-04-26T09:41:30.738Z</time></trkpt><trkpt lat="42.5542564" lon="12.9640428"><ele>970.0</ele><time>2026-04-26T09:41:31.738Z</time></trkpt><trkpt lat="42.5544762" lon="12.9641908"><ele>978.5</ele><time>2026-04-26T09:41:32.737Z</time></trkpt><trkpt lat="42.5546904" lon="12.9643345"><ele>987.0</ele><time>2026-04-26T09:41:33.737Z</time></trkpt><trkpt lat="42.5548957" lon="12.9644734"><ele>987.0</ele><time>2026-04-26T09:41:34.736Z</time></trkpt><trkpt lat="42.5550964" lon="12.9645973"><ele>987.0</ele><time>2026-04-26T09:41:35.737Z</time></trkpt><trkpt lat="42.5552941" lon="12.9646998"><ele>987.0</ele><time>2026-04-26T09:41:36.738Z</time></trkpt><trkpt lat="42.5554898" lon="12.9647741"><ele>980.3333333333333</ele><time>2026-04-26T09:41:37.737Z</time></trkpt><trkpt lat="42.5556847" lon="12.9648171"><ele>973.6666666666666</ele><time>2026-04-26T09:41:38.737Z</time></trkpt><trkpt lat="42.5558779" lon="12.9648377"><ele>967.0</ele><time>2026-04-26T09:41:39.738Z</time></trkpt><trkpt lat="42.5560631" lon="12.9648475"><ele>963.0</ele><time>2026-04-26T09:41:40.738Z</time></trkpt><trkpt lat="42.5562479" lon="12.9648861"><ele>959.0</ele><time>2026-04-26T09:41:41.738Z</time></trkpt><trkpt lat="42.5564269" lon="12.9649715"><ele>955.0</ele><time>2026-04-26T09:41:42.738Z</time></trkpt><trkpt lat="42.5565967" lon="12.965091"><ele>959.0</ele><time>2026-04-26T09:41:43.737Z</time></trkpt><trkpt lat="42.556773" lon="12.9652231"><ele>963.0</ele><time>2026-04-26T09:41:44.737Z</time></trkpt><trkpt lat="42.5569601" lon="12.9653325"><ele>967.0</ele><time>2026-04-26T09:41:45.737Z</time></trkpt><trkpt lat="42.5571564" lon="12.9654038"><ele>967.0</ele><time>2026-04-26T09:41:46.737Z</time></trkpt><trkpt lat="42.5573564" lon="12.9654505"><ele>967.0</ele><time>2026-04-26T09:41:47.738Z</time></trkpt><trkpt lat="42.5575485" lon="12.9655058"><ele>967.0</ele><time>2026-04-26T09:41:48.736Z</time></trkpt><trkpt lat="42.5577303" lon="12.965593"><ele>970.6666666666666</ele><time>2026-04-26T09:41:49.736Z</time></trkpt><trkpt lat="42.5579054" lon="12.9656946"><ele>974.3333333333333</ele><time>2026-04-26T09:41:50.737Z</time></trkpt><trkpt lat="42.5580717" lon="12.9657967"><ele>978.0</ele><time>2026-04-26T09:41:51.738Z</time></trkpt><trkpt lat="42.5582282" lon="12.965893"><ele>978.0</ele><time>2026-04-26T09:41:52.737Z</time></trkpt><trkpt lat="42.5583508" lon="12.9659804"><ele>978.0</ele><time>2026-04-26T09:41:53.737Z</time></trkpt><trkpt lat="42.5584586" lon="12.9660558"><ele>978.0</ele><time>2026-04-26T09:41:54.737Z</time></trkpt><trkpt lat="42.5585453" lon="12.9661072"><ele>978.0</ele><time>2026-04-26T09:41:55.736Z</time></trkpt><trkpt lat="42.5586213" lon="12.9661534"><ele>978.0</ele><time>2026-04-26T09:41:56.738Z</time></trkpt><trkpt lat="42.5586898" lon="12.9661982"><ele>973.2857142857143</ele><time>2026-04-26T09:41:57.738Z</time></trkpt><trkpt lat="42.5587406" lon="12.9662546"><ele>968.5714285714287</ele><time>2026-04-26T09:41:58.737Z</time></trkpt><trkpt lat="42.5587879" lon="12.9663321"><ele>963.8571428571429</ele><time>2026-04-26T09:42:00.738Z</time></trkpt><trkpt lat="42.5588482" lon="12.9663587"><ele>959.1428571428571</ele><time>2026-04-26T09:43:16.736Z</time></trkpt><trkpt lat="42.558917" lon="12.966384"><ele>954.4285714285714</ele><time>2026-04-26T09:43:17.736Z</time></trkpt><trkpt lat="42.5589987" lon="12.9664165"><ele>949.7142857142858</ele><time>2026-04-26T09:43:18.737Z</time></trkpt><trkpt lat="42.5590798" lon="12.9664649"><ele>945.0</ele><time>2026-04-26T09:43:19.736Z</time></trkpt><trkpt lat="42.5591499" lon="12.9665132"><ele>945.0</ele><time>2026-04-26T09:43:20.737Z</time></trkpt><trkpt lat="42.5592212" lon="12.9665511"><ele>945.0</ele><time>2026-04-26T09:43:21.735Z</time></trkpt><trkpt lat="42.5592869" lon="12.966558"><ele>945.0</ele><time>2026-04-26T09:43:22.736Z</time></trkpt><trkpt lat="42.5593468" lon="12.9665299"><ele>945.0</ele><time>2026-04-26T09:43:23.736Z</time></trkpt><trkpt lat="42.5594076" lon="12.966464"><ele>945.0</ele><time>2026-04-26T09:43:24.737Z</time></trkpt><trkpt lat="42.5594775" lon="12.9663517"><ele>945.0</ele><time>2026-04-26T09:43:25.737Z</time></trkpt><trkpt lat="42.5595623" lon="12.9662204"><ele>941.75</ele><time>2026-04-26T09:43:26.735Z</time></trkpt><trkpt lat="42.5596664" lon="12.9660613"><ele>938.5</ele><time>2026-04-26T09:43:27.735Z</time></trkpt><trkpt lat="42.5597695" lon="12.9659085"><ele>935.25</ele><time>2026-04-26T09:43:28.737Z</time></trkpt><trkpt lat="42.5598579" lon="12.9657765"><ele>932.0</ele><time>2026-04-26T09:43:29.735Z</time></trkpt><trkpt lat="42.5599335" lon="12.9656651"><ele>932.0000000000001</ele><time>2026-04-26T09:43:30.736Z</time></trkpt><trkpt lat="42.5599987" lon="12.9655656"><ele>932.0</ele><time>2026-04-26T09:43:31.737Z</time></trkpt><trkpt lat="42.5600561" lon="12.9654781"><ele>932.0</ele><time>2026-04-26T09:43:32.736Z</time></trkpt><trkpt lat="42.5601068" lon="12.9654004"><ele>932.0</ele><time>2026-04-26T09:43:33.736Z</time></trkpt><trkpt lat="42.5601494" lon="12.9653296"><ele>932.0000000000001</ele><time>2026-04-26T09:43:34.736Z</time></trkpt><trkpt lat="42.5602208" lon="12.96521"><ele>932.0</ele><time>2026-04-26T09:43:36.737Z</time></trkpt><trkpt lat="42.5602716" lon="12.9650789"><ele>933.3333333333334</ele><time>2026-04-26T09:43:38.737Z</time></trkpt><trkpt lat="42.560319" lon="12.9650081"><ele>934.6666666666667</ele><time>2026-04-26T09:43:40.737Z</time></trkpt><trkpt lat="42.5604038" lon="12.9649506"><ele>936.0</ele><time>2026-04-26T09:43:42.737Z</time></trkpt><trkpt lat="42.5604609" lon="12.9648997"><ele>937.3333333333333</ele><time>2026-04-26T09:43:44.736Z</time></trkpt><trkpt lat="42.5605374" lon="12.9648422"><ele>938.6666666666666</ele><time>2026-04-26T09:43:46.737Z</time></trkpt><trkpt lat="42.5605971" lon="12.9648035"><ele>940.0</ele><time>2026-04-26T09:43:47.736Z</time></trkpt><trkpt lat="42.5606776" lon="12.9647759"><ele>940.0</ele><time>2026-04-26T09:43:48.736Z</time></trkpt><trkpt lat="42.5607694" lon="12.9647584"><ele>940.0</ele><time>2026-04-26T09:43:49.735Z</time></trkpt><trkpt lat="42.5608671" lon="12.9647501"><ele>940.0</ele><time>2026-04-26T09:43:50.737Z</time></trkpt><trkpt lat="42.5609679" lon="12.9647377"><ele>940.0</ele><time>2026-04-26T09:43:51.736Z</time></trkpt><trkpt lat="42.5610744" lon="12.9647278"><ele>940.0</ele><time>2026-04-26T09:43:52.737Z</time></trkpt><trkpt lat="42.5611857" lon="12.9647224"><ele>941.5</ele><time>2026-04-26T09:43:53.736Z</time></trkpt><trkpt lat="42.561296" lon="12.9647228"><ele>943.0</ele><time>2026-04-26T09:43:54.736Z</time></trkpt><trkpt lat="42.5614058" lon="12.96474"><ele>944.5</ele><time>2026-04-26T09:43:55.737Z</time></trkpt><trkpt lat="42.5615197" lon="12.9647695"><ele>946.0</ele><time>2026-04-26T09:43:56.737Z</time></trkpt><trkpt lat="42.5616333" lon="12.9647968"><ele>946.0</ele><time>2026-04-26T09:43:57.735Z</time></trkpt><trkpt lat="42.5617606" lon="12.9648239"><ele>946.0</ele><time>2026-04-26T09:43:58.735Z</time></trkpt><trkpt lat="42.5618884" lon="12.9648495"><ele>946.0</ele><time>2026-04-26T09:43:59.737Z</time></trkpt><trkpt lat="42.5620163" lon="12.9648767"><ele>946.0</ele><time>2026-04-26T09:44:00.737Z</time></trkpt><trkpt lat="42.5621447" lon="12.9649096"><ele>950.0</ele><time>2026-04-26T09:44:01.736Z</time></trkpt><trkpt lat="42.5622858" lon="12.9649374"><ele>954.0</ele><time>2026-04-26T09:44:02.735Z</time></trkpt><trkpt lat="42.5624359" lon="12.9649627"><ele>958.0</ele><time>2026-04-26T09:44:03.736Z</time></trkpt><trkpt lat="42.5625934" lon="12.9649808"><ele>958.0</ele><time>2026-04-26T09:44:04.735Z</time></trkpt><trkpt lat="42.5627541" lon="12.9649901"><ele>958.0</ele><time>2026-04-26T09:44:05.736Z</time></trkpt><trkpt lat="42.5629141" lon="12.964996"><ele>958.0</ele><time>2026-04-26T09:44:06.736Z</time></trkpt><trkpt lat="42.5630714" lon="12.9649981"><ele>958.5</ele><time>2026-04-26T09:44:07.736Z</time></trkpt><trkpt lat="42.5632234" lon="12.9649986"><ele>959.0</ele><time>2026-04-26T09:44:08.736Z</time></trkpt><trkpt lat="42.5633627" lon="12.9649971"><ele>959.5</ele><time>2026-04-26T09:44:09.736Z</time></trkpt><trkpt lat="42.5634929" lon="12.9649931"><ele>960.0</ele><time>2026-04-26T09:44:10.737Z</time></trkpt><trkpt lat="42.5636123" lon="12.964982"><ele>959.1666666666666</ele><time>2026-04-26T09:44:11.736Z</time></trkpt><trkpt lat="42.5637195" lon="12.9649534"><ele>958.3333333333333</ele><time>2026-04-26T09:44:12.737Z</time></trkpt><trkpt lat="42.5637984" lon="12.9649175"><ele>957.5</ele><time>2026-04-26T09:44:13.737Z</time></trkpt><trkpt lat="42.563888" lon="12.9648514"><ele>956.6666666666666</ele><time>2026-04-26T09:44:15.737Z</time></trkpt><trkpt lat="42.5639356" lon="12.9647903"><ele>955.8333333333333</ele><time>2026-04-26T09:44:18.736Z</time></trkpt><trkpt lat="42.563998" lon="12.9647596"><ele>955.0</ele><time>2026-04-26T09:44:51.736Z</time></trkpt><trkpt lat="42.5641134" lon="12.9647159"><ele>955.0</ele><time>2026-04-26T09:44:53.736Z</time></trkpt><trkpt lat="42.5642011" lon="12.9646594"><ele>955.0</ele><time>2026-04-26T09:44:54.736Z</time></trkpt><trkpt lat="42.5642974" lon="12.9645882"><ele>955.0</ele><time>2026-04-26T09:44:55.736Z</time></trkpt><trkpt lat="42.5643914" lon="12.9645184"><ele>955.0</ele><time>2026-04-26T09:44:56.736Z</time></trkpt><trkpt lat="42.5644657" lon="12.9644674"><ele>955.0</ele><time>2026-04-26T09:44:57.737Z</time></trkpt><trkpt lat="42.5645334" lon="12.96443"><ele>953.25</ele><time>2026-04-26T09:44:58.736Z</time></trkpt><trkpt lat="42.5646525" lon="12.9644126"><ele>951.5</ele><time>2026-04-26T09:45:00.735Z</time></trkpt><trkpt lat="42.5647728" lon="12.9644305"><ele>949.75</ele><time>2026-04-26T09:45:02.735Z</time></trkpt><trkpt lat="42.5648844" lon="12.9644544"><ele>948.0</ele><time>2026-04-26T09:45:04.735Z</time></trkpt><trkpt lat="42.5650081" lon="12.9644695"><ele>947.9999999999999</ele><time>2026-04-26T09:45:06.734Z</time></trkpt><trkpt lat="42.5650734" lon="12.9644719"><ele>948.0</ele><time>2026-04-26T09:45:07.736Z</time></trkpt><trkpt lat="42.5651405" lon="12.9644604"><ele>947.9999999999999</ele><time>2026-04-26T09:45:08.735Z</time></trkpt><trkpt lat="42.5652071" lon="12.9644356"><ele>947.9999999999999</ele><time>2026-04-26T09:45:09.734Z</time></trkpt><trkpt lat="42.5652724" lon="12.9643924"><ele>948.0</ele><time>2026-04-26T09:45:10.736Z</time></trkpt><trkpt lat="42.5653349" lon="12.9643349"><ele>947.9999999999999</ele><time>2026-04-26T09:45:11.734Z</time></trkpt><trkpt lat="42.5653918" lon="12.9642592"><ele>947.9999999999999</ele><time>2026-04-26T09:45:12.735Z</time></trkpt><trkpt lat="42.5654481" lon="12.9641696"><ele>950.4</ele><time>2026-04-26T09:45:13.736Z</time></trkpt><trkpt lat="42.565491" lon="12.9640648"><ele>952.8</ele><time>2026-04-26T09:45:14.734Z</time></trkpt><trkpt lat="42.5655262" lon="12.9639395"><ele>955.2</ele><time>2026-04-26T09:45:15.736Z</time></trkpt><trkpt lat="42.5655456" lon="12.9638049"><ele>957.6</ele><time>2026-04-26T09:45:16.735Z</time></trkpt><trkpt lat="42.5655479" lon="12.9636713"><ele>960.0</ele><time>2026-04-26T09:45:17.736Z</time></trkpt><trkpt lat="42.5655389" lon="12.9635358"><ele>960.0</ele><time>2026-04-26T09:45:18.735Z</time></trkpt><trkpt lat="42.5655282" lon="12.9634062"><ele>960.0</ele><time>2026-04-26T09:45:19.734Z</time></trkpt><trkpt lat="42.5655187" lon="12.9632813"><ele>960.0</ele><time>2026-04-26T09:45:20.734Z</time></trkpt><trkpt lat="42.5655096" lon="12.9631615"><ele>960.0</ele><time>2026-04-26T09:45:21.736Z</time></trkpt><trkpt lat="42.5655002" lon="12.9630471"><ele>960.0</ele><time>2026-04-26T09:45:22.735Z</time></trkpt><trkpt lat="42.5654918" lon="12.9629421"><ele>960.0</ele><time>2026-04-26T09:45:23.735Z</time></trkpt><trkpt lat="42.5654887" lon="12.9628435"><ele>960.8</ele><time>2026-04-26T09:45:24.735Z</time></trkpt><trkpt lat="42.5655185" lon="12.9627101"><ele>961.6</ele><time>2026-04-26T09:45:26.736Z</time></trkpt><trkpt lat="42.5655867" lon="12.9626303"><ele>962.4000000000001</ele><time>2026-04-26T09:45:28.734Z</time></trkpt><trkpt lat="42.5657119" lon="12.962591"><ele>963.2</ele><time>2026-04-26T09:45:30.736Z</time></trkpt><trkpt lat="42.5657933" lon="12.9625894"><ele>964.0</ele><time>2026-04-26T09:45:31.736Z</time></trkpt><trkpt lat="42.5658767" lon="12.9625882"><ele>963.9999999999999</ele><time>2026-04-26T09:45:32.735Z</time></trkpt><trkpt lat="42.5659561" lon="12.9625793"><ele>964.0</ele><time>2026-04-26T09:45:33.735Z</time></trkpt><trkpt lat="42.5660312" lon="12.9625693"><ele>964.0</ele><time>2026-04-26T09:45:34.735Z</time></trkpt><trkpt lat="42.5660968" lon="12.9625556"><ele>964.0</ele><time>2026-04-26T09:45:35.735Z</time></trkpt><trkpt lat="42.5661868" lon="12.962501"><ele>963.9999999999999</ele><time>2026-04-26T09:45:37.735Z</time></trkpt><trkpt lat="42.5661747" lon="12.9624088"><ele>964.0</ele><time>2026-04-26T09:45:39.735Z</time></trkpt><trkpt lat="42.5661368" lon="12.9623149"><ele>963.9999999999999</ele><time>2026-04-26T09:45:41.736Z</time></trkpt><trkpt lat="42.566123" lon="12.9622142"><ele>964.0</ele><time>2026-04-26T09:45:43.735Z</time></trkpt><trkpt lat="42.5661221" lon="12.962074"><ele>964.0</ele><time>2026-04-26T09:45:45.734Z</time></trkpt><trkpt lat="42.5661325" lon="12.9619777"><ele>964.0</ele><time>2026-04-26T09:45:46.734Z</time></trkpt><trkpt lat="42.5661439" lon="12.9618697"><ele>963.9999999999999</ele><time>2026-04-26T09:45:47.735Z</time></trkpt><trkpt lat="42.5661541" lon="12.9617479"><ele>964.0</ele><time>2026-04-26T09:45:48.735Z</time></trkpt><trkpt lat="42.5661602" lon="12.9616152"><ele>964.25</ele><time>2026-04-26T09:45:49.736Z</time></trkpt><trkpt lat="42.5661482" lon="12.961457"><ele>964.5</ele><time>2026-04-26T09:45:50.736Z</time></trkpt><trkpt lat="42.566128" lon="12.9612973"><ele>964.75</ele><time>2026-04-26T09:45:51.736Z</time></trkpt><trkpt lat="42.5660981" lon="12.9611213"><ele>965.0</ele><time>2026-04-26T09:45:52.735Z</time></trkpt><trkpt lat="42.566062" lon="12.9609214"><ele>965.6666666666667</ele><time>2026-04-26T09:45:53.736Z</time></trkpt><trkpt lat="42.5660206" lon="12.9607068"><ele>966.3333333333333</ele><time>2026-04-26T09:45:54.734Z</time></trkpt><trkpt lat="42.5659805" lon="12.9604873"><ele>967.0</ele><time>2026-04-26T09:45:55.735Z</time></trkpt><trkpt lat="42.5659351" lon="12.9602536"><ele>967.3333333333333</ele><time>2026-04-26T09:45:56.735Z</time></trkpt><trkpt lat="42.5658904" lon="12.9600206"><ele>967.6666666666667</ele><time>2026-04-26T09:45:57.735Z</time></trkpt><trkpt lat="42.5658474" lon="12.9597914"><ele>968.0</ele><time>2026-04-26T09:45:58.735Z</time></trkpt><trkpt lat="42.565808" lon="12.9595759"><ele>968.0</ele><time>2026-04-26T09:45:59.736Z</time></trkpt><trkpt lat="42.5657721" lon="12.9593742"><ele>968.0</ele><time>2026-04-26T09:46:00.736Z</time></trkpt><trkpt lat="42.5657399" lon="12.9591709"><ele>968.0</ele><time>2026-04-26T09:46:01.735Z</time></trkpt><trkpt lat="42.5657133" lon="12.9589738"><ele>968.3333333333334</ele><time>2026-04-26T09:46:02.736Z</time></trkpt><trkpt lat="42.5657031" lon="12.9587767"><ele>968.6666666666667</ele><time>2026-04-26T09:46:03.735Z</time></trkpt><trkpt lat="42.5657131" lon="12.9585667"><ele>969.0</ele><time>2026-04-26T09:46:04.736Z</time></trkpt><trkpt lat="42.5657458" lon="12.958369"><ele>970.25</ele><time>2026-04-26T09:46:05.736Z</time></trkpt><trkpt lat="42.565804" lon="12.9581765"><ele>971.5</ele><time>2026-04-26T09:46:06.736Z</time></trkpt><trkpt lat="42.5658697" lon="12.9579984"><ele>972.75</ele><time>2026-04-26T09:46:07.736Z</time></trkpt><trkpt lat="42.5659469" lon="12.9578406"><ele>974.0</ele><time>2026-04-26T09:46:08.736Z</time></trkpt><trkpt lat="42.5660366" lon="12.957694"><ele>974.0</ele><time>2026-04-26T09:46:09.736Z</time></trkpt><trkpt lat="42.5661326" lon="12.9575764"><ele>974.0</ele><time>2026-04-26T09:46:10.736Z</time></trkpt><trkpt lat="42.5662488" lon="12.9574829"><ele>974.0</ele><time>2026-04-26T09:46:11.736Z</time></trkpt><trkpt lat="42.5663712" lon="12.9574098"><ele>974.0</ele><time>2026-04-26T09:46:12.735Z</time></trkpt><trkpt lat="42.5664846" lon="12.9573313"><ele>972.75</ele><time>2026-04-26T09:46:13.736Z</time></trkpt><trkpt lat="42.5665918" lon="12.9572246"><ele>971.5</ele><time>2026-04-26T09:46:14.735Z</time></trkpt><trkpt lat="42.5666763" lon="12.9570869"><ele>970.25</ele><time>2026-04-26T09:46:15.735Z</time></trkpt><trkpt lat="42.5667395" lon="12.9569174"><ele>969.0</ele><time>2026-04-26T09:46:16.736Z</time></trkpt><trkpt lat="42.5667811" lon="12.9567248"><ele>970.6666666666667</ele><time>2026-04-26T09:46:17.735Z</time></trkpt><trkpt lat="42.5668046" lon="12.9565246"><ele>972.3333333333334</ele><time>2026-04-26T09:46:18.734Z</time></trkpt><trkpt lat="42.5667926" lon="12.956305"><ele>974.0</ele><time>2026-04-26T09:46:19.734Z</time></trkpt><trkpt lat="42.5667606" lon="12.9560835"><ele>974.6666666666667</ele><time>2026-04-26T09:46:20.735Z</time></trkpt><trkpt lat="42.5667281" lon="12.9558671"><ele>975.3333333333333</ele><time>2026-04-26T09:46:21.735Z</time></trkpt><trkpt lat="42.5667051" lon="12.9556598"><ele>976.0</ele><time>2026-04-26T09:46:22.736Z</time></trkpt><trkpt lat="42.5666988" lon="12.9554545"><ele>976.0</ele><time>2026-04-26T09:46:23.735Z</time></trkpt><trkpt lat="42.5667169" lon="12.9552471"><ele>976.0</ele><time>2026-04-26T09:46:24.736Z</time></trkpt><trkpt lat="42.5667587" lon="12.9550329"><ele>976.0</ele><time>2026-04-26T09:46:25.735Z</time></trkpt><trkpt lat="42.5668211" lon="12.9548156"><ele>977.0</ele><time>2026-04-26T09:46:26.736Z</time></trkpt><trkpt lat="42.5668975" lon="12.9545972"><ele>978.0</ele><time>2026-04-26T09:46:27.735Z</time></trkpt><trkpt lat="42.5669735" lon="12.954386"><ele>979.0</ele><time>2026-04-26T09:46:28.736Z</time></trkpt><trkpt lat="42.5670561" lon="12.9541897"><ele>976.3333333333333</ele><time>2026-04-26T09:46:29.736Z</time></trkpt><trkpt lat="42.5671467" lon="12.9540121"><ele>973.6666666666667</ele><time>2026-04-26T09:46:30.735Z</time></trkpt><trkpt lat="42.5672595" lon="12.9538532"><ele>971.0</ele><time>2026-04-26T09:46:31.735Z</time></trkpt><trkpt lat="42.567396" lon="12.9537165"><ele>971.0</ele><time>2026-04-26T09:46:32.736Z</time></trkpt><trkpt lat="42.5675393" lon="12.9536175"><ele>971.0</ele><time>2026-04-26T09:46:33.736Z</time></trkpt><trkpt lat="42.5676893" lon="12.9535501"><ele>971.0</ele><time>2026-04-26T09:46:34.735Z</time></trkpt><trkpt lat="42.5678401" lon="12.953529"><ele>971.25</ele><time>2026-04-26T09:46:35.734Z</time></trkpt><trkpt lat="42.5679876" lon="12.9535259"><ele>971.5</ele><time>2026-04-26T09:46:36.735Z</time></trkpt><trkpt lat="42.5681082" lon="12.9535141"><ele>971.75</ele><time>2026-04-26T09:46:37.735Z</time></trkpt><trkpt lat="42.5682128" lon="12.9534555"><ele>972.0</ele><time>2026-04-26T09:46:38.734Z</time></trkpt><trkpt lat="42.5682955" lon="12.9533424"><ele>972.0</ele><time>2026-04-26T09:46:39.734Z</time></trkpt><trkpt lat="42.5683437" lon="12.9531808"><ele>972.0</ele><time>2026-04-26T09:46:40.735Z</time></trkpt><trkpt lat="42.5683587" lon="12.9529831"><ele>972.0</ele><time>2026-04-26T09:46:41.735Z</time></trkpt><trkpt lat="42.5683652" lon="12.9527683"><ele>972.0</ele><time>2026-04-26T09:46:42.736Z</time></trkpt><trkpt lat="42.5683958" lon="12.952566"><ele>973.6666666666667</ele><time>2026-04-26T09:46:43.734Z</time></trkpt><trkpt lat="42.5684477" lon="12.9523664"><ele>975.3333333333334</ele><time>2026-04-26T09:46:44.735Z</time></trkpt><trkpt lat="42.56852" lon="12.9521646"><ele>977.0</ele><time>2026-04-26T09:46:45.734Z</time></trkpt><trkpt lat="42.5686161" lon="12.9519645"><ele>975.0</ele><time>2026-04-26T09:46:46.736Z</time></trkpt><trkpt lat="42.5687299" lon="12.9517593"><ele>973.0</ele><time>2026-04-26T09:46:47.735Z</time></trkpt><trkpt lat="42.5688464" lon="12.9515502"><ele>971.0</ele><time>2026-04-26T09:46:48.736Z</time></trkpt><trkpt lat="42.5689697" lon="12.9513402"><ele>971.0</ele><time>2026-04-26T09:46:49.735Z</time></trkpt><trkpt lat="42.5690987" lon="12.9511414"><ele>971.0</ele><time>2026-04-26T09:46:50.735Z</time></trkpt><trkpt lat="42.5692321" lon="12.950943"><ele>971.0</ele><time>2026-04-26T09:46:51.735Z</time></trkpt><trkpt lat="42.5693646" lon="12.9507541"><ele>969.3333333333334</ele><time>2026-04-26T09:46:52.734Z</time></trkpt><trkpt lat="42.5694973" lon="12.9505681"><ele>967.6666666666667</ele><time>2026-04-26T09:46:53.734Z</time></trkpt><trkpt lat="42.5696246" lon="12.9503807"><ele>966.0</ele><time>2026-04-26T09:46:54.736Z</time></trkpt><trkpt lat="42.5697526" lon="12.9501905"><ele>969.0</ele><time>2026-04-26T09:46:55.736Z</time></trkpt><trkpt lat="42.5698822" lon="12.9500045"><ele>972.0</ele><time>2026-04-26T09:46:56.736Z</time></trkpt><trkpt lat="42.570019" lon="12.9498282"><ele>975.0</ele><time>2026-04-26T09:46:57.734Z</time></trkpt><trkpt lat="42.5701641" lon="12.9496597"><ele>975.0</ele><time>2026-04-26T09:46:58.735Z</time></trkpt><trkpt lat="42.570312" lon="12.9494992"><ele>975.0</ele><time>2026-04-26T09:46:59.736Z</time></trkpt><trkpt lat="42.5704568" lon="12.9493394"><ele>975.0</ele><time>2026-04-26T09:47:00.735Z</time></trkpt><trkpt lat="42.5705984" lon="12.9491815"><ele>974.6666666666667</ele><time>2026-04-26T09:47:01.734Z</time></trkpt><trkpt lat="42.5707333" lon="12.9490238"><ele>974.3333333333334</ele><time>2026-04-26T09:47:02.735Z</time></trkpt><trkpt lat="42.5708642" lon="12.9488706"><ele>974.0</ele><time>2026-04-26T09:47:03.734Z</time></trkpt><trkpt lat="42.5709903" lon="12.9487187"><ele>974.0</ele><time>2026-04-26T09:47:04.736Z</time></trkpt><trkpt lat="42.571102" lon="12.9485661"><ele>974.0</ele><time>2026-04-26T09:47:05.735Z</time></trkpt><trkpt lat="42.5712034" lon="12.9484133"><ele>974.0</ele><time>2026-04-26T09:47:06.736Z</time></trkpt><trkpt lat="42.5712918" lon="12.9482621"><ele>973.5</ele><time>2026-04-26T09:47:07.735Z</time></trkpt><trkpt lat="42.5713704" lon="12.9481176"><ele>973.0</ele><time>2026-04-26T09:47:08.736Z</time></trkpt><trkpt lat="42.5714464" lon="12.9479716"><ele>972.5</ele><time>2026-04-26T09:47:09.735Z</time></trkpt><trkpt lat="42.5715102" lon="12.9478075"><ele>972.0</ele><time>2026-04-26T09:47:10.736Z</time></trkpt><trkpt lat="42.5715583" lon="12.9475826"><ele>973.6666666666667</ele><time>2026-04-26T09:47:11.735Z</time></trkpt><trkpt lat="42.5715922" lon="12.9473214"><ele>975.3333333333334</ele><time>2026-04-26T09:47:12.735Z</time></trkpt><trkpt lat="42.5716351" lon="12.9470545"><ele>977.0</ele><time>2026-04-26T09:47:13.735Z</time></trkpt><trkpt lat="42.5716943" lon="12.9467832"><ele>978.0</ele><time>2026-04-26T09:47:14.735Z</time></trkpt><trkpt lat="42.5717578" lon="12.9465353"><ele>979.0</ele><time>2026-04-26T09:47:15.735Z</time></trkpt><trkpt lat="42.5718225" lon="12.9463"><ele>980.0</ele><time>2026-04-26T09:47:16.735Z</time></trkpt><trkpt lat="42.5718807" lon="12.9460775"><ele>981.3333333333334</ele><time>2026-04-26T09:47:17.736Z</time></trkpt><trkpt lat="42.5719319" lon="12.945862"><ele>982.6666666666667</ele><time>2026-04-26T09:47:18.734Z</time></trkpt><trkpt lat="42.5719738" lon="12.9456598"><ele>984.0</ele><time>2026-04-26T09:47:19.734Z</time></trkpt><trkpt lat="42.5719826" lon="12.9454561"><ele>984.0</ele><time>2026-04-26T09:47:20.736Z</time></trkpt><trkpt lat="42.5719528" lon="12.9452475"><ele>984.0</ele><time>2026-04-26T09:47:21.735Z</time></trkpt><trkpt lat="42.5718987" lon="12.9450394"><ele>984.0</ele><time>2026-04-26T09:47:22.736Z</time></trkpt><trkpt lat="42.571839" lon="12.9448327"><ele>984.0</ele><time>2026-04-26T09:47:23.735Z</time></trkpt><trkpt lat="42.5717818" lon="12.9446351"><ele>984.0</ele><time>2026-04-26T09:47:24.735Z</time></trkpt><trkpt lat="42.5717371" lon="12.9444683"><ele>984.0</ele><time>2026-04-26T09:47:25.735Z</time></trkpt><trkpt lat="42.5717141" lon="12.9443179"><ele>984.0</ele><time>2026-04-26T09:47:26.735Z</time></trkpt><trkpt lat="42.5717223" lon="12.9441674"><ele>983.75</ele><time>2026-04-26T09:47:27.735Z</time></trkpt><trkpt lat="42.5717575" lon="12.9439982"><ele>983.5</ele><time>2026-04-26T09:47:28.734Z</time></trkpt><trkpt lat="42.5718076" lon="12.9438046"><ele>983.25</ele><time>2026-04-26T09:47:29.734Z</time></trkpt><trkpt lat="42.5718619" lon="12.9436125"><ele>983.0</ele><time>2026-04-26T09:47:30.733Z</time></trkpt><trkpt lat="42.5719029" lon="12.9434221"><ele>983.5</ele><time>2026-04-26T09:47:31.733Z</time></trkpt><trkpt lat="42.5719365" lon="12.943233"><ele>984.0</ele><time>2026-04-26T09:47:32.734Z</time></trkpt><trkpt lat="42.571965" lon="12.9430477"><ele>984.5</ele><time>2026-04-26T09:47:33.735Z</time></trkpt><trkpt lat="42.571994" lon="12.9428645"><ele>985.0</ele><time>2026-04-26T09:47:34.733Z</time></trkpt><trkpt lat="42.5720352" lon="12.9426853"><ele>981.0</ele><time>2026-04-26T09:47:35.734Z</time></trkpt><trkpt lat="42.5720926" lon="12.9425195"><ele>977.0</ele><time>2026-04-26T09:47:36.733Z</time></trkpt><trkpt lat="42.5721712" lon="12.9423584"><ele>973.0</ele><time>2026-04-26T09:47:37.734Z</time></trkpt><trkpt lat="42.5722682" lon="12.9422076"><ele>969.0</ele><time>2026-04-26T09:47:38.734Z</time></trkpt><trkpt lat="42.5723854" lon="12.9420659"><ele>969.0</ele><time>2026-04-26T09:47:39.735Z</time></trkpt><trkpt lat="42.5725108" lon="12.9419128"><ele>969.0</ele><time>2026-04-26T09:47:40.734Z</time></trkpt><trkpt lat="42.5726348" lon="12.9417565"><ele>969.0</ele><time>2026-04-26T09:47:41.735Z</time></trkpt><trkpt lat="42.5727496" lon="12.9415972"><ele>965.0</ele><time>2026-04-26T09:47:42.735Z</time></trkpt><trkpt lat="42.5728615" lon="12.941428"><ele>961.0</ele><time>2026-04-26T09:47:43.734Z</time></trkpt><trkpt lat="42.5729587" lon="12.9412318"><ele>957.0</ele><time>2026-04-26T09:47:44.735Z</time></trkpt><trkpt lat="42.573042" lon="12.941022"><ele>958.3333333333333</ele><time>2026-04-26T09:47:45.734Z</time></trkpt><trkpt lat="42.5731177" lon="12.9408123"><ele>959.6666666666666</ele><time>2026-04-26T09:47:46.734Z</time></trkpt><trkpt lat="42.5731907" lon="12.9406069"><ele>961.0</ele><time>2026-04-26T09:47:47.734Z</time></trkpt><trkpt lat="42.5732649" lon="12.9404094"><ele>961.0</ele><time>2026-04-26T09:47:48.734Z</time></trkpt><trkpt lat="42.5733522" lon="12.9402317"><ele>961.0</ele><time>2026-04-26T09:47:49.733Z</time></trkpt><trkpt lat="42.5734533" lon="12.9400849"><ele>961.0</ele><time>2026-04-26T09:47:50.733Z</time></trkpt><trkpt lat="42.5735811" lon="12.9399833"><ele>959.3333333333333</ele><time>2026-04-26T09:47:51.733Z</time></trkpt><trkpt lat="42.5737236" lon="12.9398977"><ele>957.6666666666667</ele><time>2026-04-26T09:47:52.733Z</time></trkpt><trkpt lat="42.573881" lon="12.9398088"><ele>956.0</ele><time>2026-04-26T09:47:53.734Z</time></trkpt><trkpt lat="42.5740395" lon="12.9397211"><ele>956.0</ele><time>2026-04-26T09:47:54.733Z</time></trkpt><trkpt lat="42.5741955" lon="12.9396382"><ele>956.0</ele><time>2026-04-26T09:47:55.734Z</time></trkpt><trkpt lat="42.5743535" lon="12.9395548"><ele>956.0</ele><time>2026-04-26T09:47:56.734Z</time></trkpt><trkpt lat="42.5745179" lon="12.9394863"><ele>952.6666666666667</ele><time>2026-04-26T09:47:57.735Z</time></trkpt><trkpt lat="42.5746831" lon="12.9394261"><ele>949.3333333333333</ele><time>2026-04-26T09:47:58.735Z</time></trkpt><trkpt lat="42.5748546" lon="12.9393742"><ele>946.0</ele><time>2026-04-26T09:47:59.734Z</time></trkpt><trkpt lat="42.5750358" lon="12.9393262"><ele>946.0</ele><time>2026-04-26T09:48:00.735Z</time></trkpt><trkpt lat="42.575223" lon="12.9392832"><ele>946.0</ele><time>2026-04-26T09:48:01.735Z</time></trkpt><trkpt lat="42.5754107" lon="12.9392454"><ele>946.0</ele><time>2026-04-26T09:48:02.735Z</time></trkpt><trkpt lat="42.5755983" lon="12.9392027"><ele>944.6666666666666</ele><time>2026-04-26T09:48:03.734Z</time></trkpt><trkpt lat="42.5757834" lon="12.9391671"><ele>943.3333333333333</ele><time>2026-04-26T09:48:04.734Z</time></trkpt><trkpt lat="42.5759664" lon="12.9391318"><ele>942.0</ele><time>2026-04-26T09:48:05.733Z</time></trkpt><trkpt lat="42.5761382" lon="12.9390897"><ele>940.3333333333333</ele><time>2026-04-26T09:48:06.734Z</time></trkpt><trkpt lat="42.576303" lon="12.9390491"><ele>938.6666666666666</ele><time>2026-04-26T09:48:07.734Z</time></trkpt><trkpt lat="42.5764602" lon="12.939021"><ele>937.0</ele><time>2026-04-26T09:48:08.735Z</time></trkpt><trkpt lat="42.5766021" lon="12.9390049"><ele>937.0</ele><time>2026-04-26T09:48:09.734Z</time></trkpt><trkpt lat="42.5767412" lon="12.9390004"><ele>937.0</ele><time>2026-04-26T09:48:10.734Z</time></trkpt><trkpt lat="42.5768773" lon="12.9390081"><ele>937.0</ele><time>2026-04-26T09:48:11.734Z</time></trkpt><trkpt lat="42.5770136" lon="12.9390229"><ele>937.0</ele><time>2026-04-26T09:48:12.735Z</time></trkpt><trkpt lat="42.5771497" lon="12.9390406"><ele>935.5</ele><time>2026-04-26T09:48:13.734Z</time></trkpt><trkpt lat="42.5772856" lon="12.9390599"><ele>934.0</ele><time>2026-04-26T09:48:14.734Z</time></trkpt><trkpt lat="42.5774231" lon="12.9390921"><ele>932.5</ele><time>2026-04-26T09:48:15.735Z</time></trkpt><trkpt lat="42.5775606" lon="12.9391484"><ele>931.0</ele><time>2026-04-26T09:48:16.734Z</time></trkpt><trkpt lat="42.5776913" lon="12.939216"><ele>930.75</ele><time>2026-04-26T09:48:17.735Z</time></trkpt><trkpt lat="42.5778166" lon="12.9392946"><ele>930.5</ele><time>2026-04-26T09:48:18.735Z</time></trkpt><trkpt lat="42.5779284" lon="12.9393755"><ele>930.25</ele><time>2026-04-26T09:48:19.734Z</time></trkpt><trkpt lat="42.5780295" lon="12.9394392"><ele>930.0</ele><time>2026-04-26T09:48:20.735Z</time></trkpt><trkpt lat="42.5781177" lon="12.9394851"><ele>929.5</ele><time>2026-04-26T09:48:21.735Z</time></trkpt><trkpt lat="42.5782" lon="12.9394992"><ele>929.0</ele><time>2026-04-26T09:48:22.734Z</time></trkpt><trkpt lat="42.5782682" lon="12.9394723"><ele>928.5</ele><time>2026-04-26T09:48:23.734Z</time></trkpt><trkpt lat="42.5783175" lon="12.9394171"><ele>928.0</ele><time>2026-04-26T09:48:24.734Z</time></trkpt><trkpt lat="42.5783601" lon="12.9393316"><ele>927.5</ele><time>2026-04-26T09:48:25.735Z</time></trkpt><trkpt lat="42.5784106" lon="12.9392179"><ele>927.0</ele><time>2026-04-26T09:48:26.733Z</time></trkpt><trkpt lat="42.5784731" lon="12.9390982"><ele>927.0</ele><time>2026-04-26T09:48:27.734Z</time></trkpt><trkpt lat="42.578527" lon="12.9389551"><ele>927.0</ele><time>2026-04-26T09:48:28.735Z</time></trkpt><trkpt lat="42.5785494" lon="12.9387928"><ele>927.0</ele><time>2026-04-26T09:48:29.733Z</time></trkpt><trkpt lat="42.5785357" lon="12.9386254"><ele>927.0</ele><time>2026-04-26T09:48:30.733Z</time></trkpt><trkpt lat="42.5784843" lon="12.9384702"><ele>927.75</ele><time>2026-04-26T09:48:31.734Z</time></trkpt><trkpt lat="42.5784019" lon="12.9383504"><ele>928.5</ele><time>2026-04-26T09:48:32.733Z</time></trkpt><trkpt lat="42.5782983" lon="12.9382734"><ele>929.25</ele><time>2026-04-26T09:48:33.734Z</time></trkpt><trkpt lat="42.5781949" lon="12.9382464"><ele>930.0</ele><time>2026-04-26T09:48:34.734Z</time></trkpt><trkpt lat="42.5780885" lon="12.9382246"><ele>930.0</ele><time>2026-04-26T09:48:35.735Z</time></trkpt><trkpt lat="42.5779895" lon="12.9381701"><ele>930.0</ele><time>2026-04-26T09:48:36.734Z</time></trkpt><trkpt lat="42.5779115" lon="12.9380883"><ele>930.0</ele><time>2026-04-26T09:48:37.735Z</time></trkpt><trkpt lat="42.5778516" lon="12.9379944"><ele>930.0</ele><time>2026-04-26T09:48:38.734Z</time></trkpt><trkpt lat="42.5778094" lon="12.9378737"><ele>930.0</ele><time>2026-04-26T09:48:39.734Z</time></trkpt><trkpt lat="42.5777804" lon="12.937719"><ele>933.0</ele><time>2026-04-26T09:48:40.733Z</time></trkpt><trkpt lat="42.5777498" lon="12.9375388"><ele>936.0</ele><time>2026-04-26T09:48:41.734Z</time></trkpt><trkpt lat="42.5777171" lon="12.937343"><ele>939.0</ele><time>2026-04-26T09:48:42.735Z</time></trkpt><trkpt lat="42.5776923" lon="12.9371161"><ele>939.0</ele><time>2026-04-26T09:48:43.735Z</time></trkpt><trkpt lat="42.5776685" lon="12.9368577"><ele>939.0</ele><time>2026-04-26T09:48:44.734Z</time></trkpt><trkpt lat="42.5776503" lon="12.9365876"><ele>939.0</ele><time>2026-04-26T09:48:45.734Z</time></trkpt><trkpt lat="42.5776301" lon="12.9363071"><ele>940.5</ele><time>2026-04-26T09:48:46.733Z</time></trkpt><trkpt lat="42.5776067" lon="12.9360064"><ele>942.0</ele><time>2026-04-26T09:48:47.733Z</time></trkpt><trkpt lat="42.5775776" lon="12.9356889"><ele>944.0</ele><time>2026-04-26T09:48:48.734Z</time></trkpt><trkpt lat="42.5775476" lon="12.9353725"><ele>946.0</ele><time>2026-04-26T09:48:49.735Z</time></trkpt><trkpt lat="42.5775198" lon="12.9350561"><ele>947.0</ele><time>2026-04-26T09:48:50.735Z</time></trkpt><trkpt lat="42.5774912" lon="12.9347445"><ele>948.0</ele><time>2026-04-26T09:48:51.734Z</time></trkpt><trkpt lat="42.5774616" lon="12.9344297"><ele>949.5</ele><time>2026-04-26T09:48:52.735Z</time></trkpt><trkpt lat="42.5774321" lon="12.934122"><ele>951.0</ele><time>2026-04-26T09:48:53.735Z</time></trkpt><trkpt lat="42.5774056" lon="12.9338142"><ele>951.0</ele><time>2026-04-26T09:48:54.734Z</time></trkpt><trkpt lat="42.5773805" lon="12.9335074"><ele>951.0</ele><time>2026-04-26T09:48:55.734Z</time></trkpt><trkpt lat="42.5773608" lon="12.9332026"><ele>950.3333333333333</ele><time>2026-04-26T09:48:56.733Z</time></trkpt><trkpt lat="42.5773463" lon="12.9329011"><ele>949.6666666666666</ele><time>2026-04-26T09:48:57.734Z</time></trkpt><trkpt lat="42.5773384" lon="12.9326006"><ele>949.0</ele><time>2026-04-26T09:48:58.734Z</time></trkpt><trkpt lat="42.5773395" lon="12.9323029"><ele>949.0</ele><time>2026-04-26T09:48:59.734Z</time></trkpt><trkpt lat="42.5773544" lon="12.9320104"><ele>949.0</ele><time>2026-04-26T09:49:00.735Z</time></trkpt><trkpt lat="42.5773837" lon="12.9317139"><ele>949.0</ele><time>2026-04-26T09:49:01.734Z</time></trkpt><trkpt lat="42.5774288" lon="12.931418"><ele>948.0</ele><time>2026-04-26T09:49:02.733Z</time></trkpt><trkpt lat="42.5774857" lon="12.9311319"><ele>947.0</ele><time>2026-04-26T09:49:03.735Z</time></trkpt><trkpt lat="42.5775565" lon="12.9308557"><ele>946.0</ele><time>2026-04-26T09:49:04.733Z</time></trkpt><trkpt lat="42.5776352" lon="12.930591"><ele>946.0</ele><time>2026-04-26T09:49:05.734Z</time></trkpt><trkpt lat="42.5777236" lon="12.930335"><ele>946.0</ele><time>2026-04-26T09:49:06.735Z</time></trkpt><trkpt lat="42.5778227" lon="12.9300899"><ele>946.0</ele><time>2026-04-26T09:49:07.735Z</time></trkpt><trkpt lat="42.5779342" lon="12.929853"><ele>940.6666666666666</ele><time>2026-04-26T09:49:08.735Z</time></trkpt><trkpt lat="42.5780616" lon="12.9296179"><ele>935.3333333333333</ele><time>2026-04-26T09:49:09.735Z</time></trkpt><trkpt lat="42.5781969" lon="12.9293858"><ele>930.0</ele><time>2026-04-26T09:49:10.734Z</time></trkpt><trkpt lat="42.5783414" lon="12.929156"><ele>930.0</ele><time>2026-04-26T09:49:11.733Z</time></trkpt><trkpt lat="42.5785" lon="12.9289373"><ele>930.0</ele><time>2026-04-26T09:49:12.733Z</time></trkpt><trkpt lat="42.578664" lon="12.9287168"><ele>928.5</ele><time>2026-04-26T09:49:13.733Z</time></trkpt><trkpt lat="42.5788334" lon="12.9284979"><ele>927.0</ele><time>2026-04-26T09:49:14.734Z</time></trkpt><trkpt lat="42.5790049" lon="12.9282813"><ele>927.0</ele><time>2026-04-26T09:49:15.733Z</time></trkpt><trkpt lat="42.5791751" lon="12.9280677"><ele>927.0</ele><time>2026-04-26T09:49:16.735Z</time></trkpt><trkpt lat="42.5793447" lon="12.9278589"><ele>927.0</ele><time>2026-04-26T09:49:17.735Z</time></trkpt><trkpt lat="42.5795082" lon="12.9276552"><ele>927.0</ele><time>2026-04-26T09:49:18.734Z</time></trkpt><trkpt lat="42.5796707" lon="12.9274523"><ele>927.0</ele><time>2026-04-26T09:49:19.735Z</time></trkpt><trkpt lat="42.5798325" lon="12.9272509"><ele>924.6666666666667</ele><time>2026-04-26T09:49:20.734Z</time></trkpt><trkpt lat="42.5799961" lon="12.9270538"><ele>922.3333333333334</ele><time>2026-04-26T09:49:21.734Z</time></trkpt><trkpt lat="42.5801591" lon="12.9268546"><ele>920.0</ele><time>2026-04-26T09:49:22.734Z</time></trkpt><trkpt lat="42.58032" lon="12.9266534"><ele>916.6666666666667</ele><time>2026-04-26T09:49:23.735Z</time></trkpt><trkpt lat="42.5804763" lon="12.92645"><ele>913.3333333333333</ele><time>2026-04-26T09:49:24.735Z</time></trkpt><trkpt lat="42.5806271" lon="12.9262391"><ele>910.0</ele><time>2026-04-26T09:49:25.734Z</time></trkpt><trkpt lat="42.5807725" lon="12.9260211"><ele>911.6666666666666</ele><time>2026-04-26T09:49:26.734Z</time></trkpt><trkpt lat="42.5809108" lon="12.9257893"><ele>913.3333333333333</ele><time>2026-04-26T09:49:27.733Z</time></trkpt><trkpt lat="42.5810414" lon="12.9255495"><ele>915.0</ele><time>2026-04-26T09:49:28.735Z</time></trkpt><trkpt lat="42.5811602" lon="12.9253033"><ele>912.3333333333333</ele><time>2026-04-26T09:49:29.734Z</time></trkpt><trkpt lat="42.5812676" lon="12.9250492"><ele>909.6666666666666</ele><time>2026-04-26T09:49:30.734Z</time></trkpt><trkpt lat="42.5813628" lon="12.9247878"><ele>907.0</ele><time>2026-04-26T09:49:31.735Z</time></trkpt><trkpt lat="42.5814464" lon="12.9245152"><ele>907.0</ele><time>2026-04-26T09:49:32.735Z</time></trkpt><trkpt lat="42.5815161" lon="12.924234"><ele>907.0</ele><time>2026-04-26T09:49:33.735Z</time></trkpt><trkpt lat="42.5815754" lon="12.9239427"><ele>907.0</ele><time>2026-04-26T09:49:34.733Z</time></trkpt><trkpt lat="42.5816248" lon="12.9236463"><ele>923.0</ele><time>2026-04-26T09:49:35.735Z</time></trkpt><trkpt lat="42.5816602" lon="12.9233438"><ele>939.0</ele><time>2026-04-26T09:49:36.733Z</time></trkpt><trkpt lat="42.5816797" lon="12.923038"><ele>939.0</ele><time>2026-04-26T09:49:37.735Z</time></trkpt><trkpt lat="42.5816816" lon="12.9227304"><ele>939.0</ele><time>2026-04-26T09:49:38.733Z</time></trkpt><trkpt lat="42.5816708" lon="12.922421"><ele>944.0</ele><time>2026-04-26T09:49:39.735Z</time></trkpt><trkpt lat="42.5816504" lon="12.9221169"><ele>949.0</ele><time>2026-04-26T09:49:40.733Z</time></trkpt><trkpt lat="42.581612" lon="12.9218151"><ele>950.0</ele><time>2026-04-26T09:49:41.734Z</time></trkpt><trkpt lat="42.5815596" lon="12.9215166"><ele>951.0</ele><time>2026-04-26T09:49:42.734Z</time></trkpt><trkpt lat="42.5814941" lon="12.9212244"><ele>951.0</ele><time>2026-04-26T09:49:43.734Z</time></trkpt><trkpt lat="42.5814156" lon="12.9209353"><ele>951.0</ele><time>2026-04-26T09:49:44.733Z</time></trkpt><trkpt lat="42.5813232" lon="12.9206557"><ele>952.5</ele><time>2026-04-26T09:49:45.733Z</time></trkpt><trkpt lat="42.5812204" lon="12.9203829"><ele>954.0</ele><time>2026-04-26T09:49:46.734Z</time></trkpt><trkpt lat="42.5811051" lon="12.9201199"><ele>962.3333333333333</ele><time>2026-04-26T09:49:47.735Z</time></trkpt><trkpt lat="42.5809802" lon="12.9198693"><ele>970.6666666666666</ele><time>2026-04-26T09:49:48.734Z</time></trkpt><trkpt lat="42.5808433" lon="12.9196381"><ele>979.0</ele><time>2026-04-26T09:49:49.733Z</time></trkpt><trkpt lat="42.5806964" lon="12.9194213"><ele>985.5</ele><time>2026-04-26T09:49:50.733Z</time></trkpt><trkpt lat="42.5805329" lon="12.9192114"><ele>992.0</ele><time>2026-04-26T09:49:51.732Z</time></trkpt><trkpt lat="42.5803622" lon="12.9190069"><ele>996.0</ele><time>2026-04-26T09:49:52.733Z</time></trkpt><trkpt lat="42.5801754" lon="12.9188086"><ele>1000.0</ele><time>2026-04-26T09:49:53.733Z</time></trkpt><trkpt lat="42.5799776" lon="12.9186308"><ele>1000.0</ele><time>2026-04-26T09:49:54.734Z</time></trkpt><trkpt lat="42.5797865" lon="12.9184768"><ele>1000.0</ele><time>2026-04-26T09:49:55.733Z</time></trkpt><trkpt lat="42.5796059" lon="12.9183531"><ele>1000.0</ele><time>2026-04-26T09:49:56.734Z</time></trkpt><trkpt lat="42.5794428" lon="12.9182562"><ele>1005.0</ele><time>2026-04-26T09:49:57.734Z</time></trkpt><trkpt lat="42.5792974" lon="12.9181784"><ele>1010.0</ele><time>2026-04-26T09:49:58.733Z</time></trkpt><trkpt lat="42.579164" lon="12.9181167"><ele>1015.0</ele><time>2026-04-26T09:49:59.733Z</time></trkpt><trkpt lat="42.5790477" lon="12.9180688"><ele>1020.0</ele><time>2026-04-26T09:50:00.733Z</time></trkpt><trkpt lat="42.5789462" lon="12.9180323"><ele>1020.0</ele><time>2026-04-26T09:50:01.734Z</time></trkpt><trkpt lat="42.5788588" lon="12.9179974"><ele>1020.0</ele><time>2026-04-26T09:50:02.733Z</time></trkpt><trkpt lat="42.5787913" lon="12.9179779"><ele>1020.0</ele><time>2026-04-26T09:50:03.733Z</time></trkpt><trkpt lat="42.5786971" lon="12.9179592"><ele>1020.0</ele><time>2026-04-26T09:50:05.733Z</time></trkpt><trkpt lat="42.578626" lon="12.9179372"><ele>1020.0</ele><time>2026-04-26T09:50:06.733Z</time></trkpt><trkpt lat="42.5785262" lon="12.9179117"><ele>1020.0</ele><time>2026-04-26T09:50:07.733Z</time></trkpt><trkpt lat="42.5784072" lon="12.9178955"><ele>1019.0</ele><time>2026-04-26T09:50:08.734Z</time></trkpt><trkpt lat="42.5782681" lon="12.9178837"><ele>1018.0</ele><time>2026-04-26T09:50:09.733Z</time></trkpt><trkpt lat="42.5781193" lon="12.9178817"><ele>1017.0</ele><time>2026-04-26T09:50:10.733Z</time></trkpt><trkpt lat="42.5779498" lon="12.9178883"><ele>1019.3333333333333</ele><time>2026-04-26T09:50:11.732Z</time></trkpt><trkpt lat="42.5777603" lon="12.9179042"><ele>1021.6666666666666</ele><time>2026-04-26T09:50:12.732Z</time></trkpt><trkpt lat="42.5775515" lon="12.9179375"><ele>1024.0</ele><time>2026-04-26T09:50:13.732Z</time></trkpt><trkpt lat="42.5773361" lon="12.9179841"><ele>1024.0</ele><time>2026-04-26T09:50:14.733Z</time></trkpt><trkpt lat="42.5771098" lon="12.9180398"><ele>1024.0</ele><time>2026-04-26T09:50:15.733Z</time></trkpt><trkpt lat="42.5768748" lon="12.9180974"><ele>1029.0</ele><time>2026-04-26T09:50:16.734Z</time></trkpt><trkpt lat="42.5766426" lon="12.91815"><ele>1034.0</ele><time>2026-04-26T09:50:17.734Z</time></trkpt><trkpt lat="42.5764102" lon="12.9182025"><ele>1038.0</ele><time>2026-04-26T09:50:18.734Z</time></trkpt><trkpt lat="42.5761705" lon="12.9182593"><ele>1042.0</ele><time>2026-04-26T09:50:19.733Z</time></trkpt><trkpt lat="42.5759307" lon="12.9183172"><ele>1042.0</ele><time>2026-04-26T09:50:20.733Z</time></trkpt><trkpt lat="42.5756927" lon="12.9183848"><ele>1042.0</ele><time>2026-04-26T09:50:21.733Z</time></trkpt><trkpt lat="42.5754602" lon="12.9184495"><ele>1037.0</ele><time>2026-04-26T09:50:22.733Z</time></trkpt><trkpt lat="42.5752325" lon="12.9185144"><ele>1032.0</ele><time>2026-04-26T09:50:23.734Z</time></trkpt><trkpt lat="42.5750083" lon="12.9185717"><ele>1032.0</ele><time>2026-04-26T09:50:24.734Z</time></trkpt><trkpt lat="42.5747913" lon="12.9186308"><ele>1032.0</ele><time>2026-04-26T09:50:25.733Z</time></trkpt><trkpt lat="42.5745788" lon="12.9186803"><ele>1032.0</ele><time>2026-04-26T09:50:26.732Z</time></trkpt><trkpt lat="42.5743747" lon="12.9187212"><ele>1036.0</ele><time>2026-04-26T09:50:27.732Z</time></trkpt><trkpt lat="42.5741751" lon="12.9187476"><ele>1040.0</ele><time>2026-04-26T09:50:28.733Z</time></trkpt><trkpt lat="42.5739816" lon="12.9187583"><ele>1044.0</ele><time>2026-04-26T09:50:29.733Z</time></trkpt><trkpt lat="42.5737954" lon="12.9187568"><ele>1044.6666666666667</ele><time>2026-04-26T09:50:30.732Z</time></trkpt><trkpt lat="42.5736204" lon="12.9187368"><ele>1045.3333333333335</ele><time>2026-04-26T09:50:31.733Z</time></trkpt><trkpt lat="42.5734533" lon="12.9187049"><ele>1046.0</ele><time>2026-04-26T09:50:32.734Z</time></trkpt><trkpt lat="42.5732833" lon="12.9186666"><ele>1046.0</ele><time>2026-04-26T09:50:33.734Z</time></trkpt><trkpt lat="42.5731106" lon="12.9186159"><ele>1046.0</ele><time>2026-04-26T09:50:34.733Z</time></trkpt><trkpt lat="42.5729284" lon="12.9185455"><ele>1046.0</ele><time>2026-04-26T09:50:35.732Z</time></trkpt><trkpt lat="42.5727436" lon="12.9184652"><ele>1052.3333333333335</ele><time>2026-04-26T09:50:36.732Z</time></trkpt><trkpt lat="42.5725608" lon="12.9183813"><ele>1058.6666666666667</ele><time>2026-04-26T09:50:37.734Z</time></trkpt><trkpt lat="42.5723717" lon="12.9182952"><ele>1065.0</ele><time>2026-04-26T09:50:38.733Z</time></trkpt><trkpt lat="42.5721797" lon="12.918214"><ele>1064.3333333333333</ele><time>2026-04-26T09:50:39.734Z</time></trkpt><trkpt lat="42.5719885" lon="12.9181271"><ele>1063.6666666666665</ele><time>2026-04-26T09:50:40.733Z</time></trkpt><trkpt lat="42.5717949" lon="12.9180369"><ele>1063.0</ele><time>2026-04-26T09:50:41.734Z</time></trkpt><trkpt lat="42.5716031" lon="12.9179482"><ele>1063.0</ele><time>2026-04-26T09:50:42.733Z</time></trkpt><trkpt lat="42.5714114" lon="12.9178662"><ele>1063.0</ele><time>2026-04-26T09:50:43.734Z</time></trkpt><trkpt lat="42.5712209" lon="12.9177871"><ele>1063.0</ele><time>2026-04-26T09:50:44.732Z</time></trkpt><trkpt lat="42.571033" lon="12.9177145"><ele>1061.6666666666665</ele><time>2026-04-26T09:50:45.734Z</time></trkpt><trkpt lat="42.5708444" lon="12.9176533"><ele>1060.3333333333333</ele><time>2026-04-26T09:50:46.734Z</time></trkpt><trkpt lat="42.5706548" lon="12.9175997"><ele>1059.0</ele><time>2026-04-26T09:50:47.734Z</time></trkpt><trkpt lat="42.5704657" lon="12.9175528"><ele>1065.3333333333333</ele><time>2026-04-26T09:50:48.732Z</time></trkpt><trkpt lat="42.5702785" lon="12.9175114"><ele>1071.6666666666665</ele><time>2026-04-26T09:50:49.733Z</time></trkpt><trkpt lat="42.5700914" lon="12.9174731"><ele>1078.0</ele><time>2026-04-26T09:50:50.733Z</time></trkpt><trkpt lat="42.5699025" lon="12.9174352"><ele>1078.0</ele><time>2026-04-26T09:50:51.733Z</time></trkpt><trkpt lat="42.5697097" lon="12.9173909"><ele>1078.0</ele><time>2026-04-26T09:50:52.733Z</time></trkpt><trkpt lat="42.5695069" lon="12.9173408"><ele>1078.0</ele><time>2026-04-26T09:50:53.733Z</time></trkpt><trkpt lat="42.5692985" lon="12.9172892"><ele>1078.0</ele><time>2026-04-26T09:50:54.733Z</time></trkpt><trkpt lat="42.5690837" lon="12.9172371"><ele>1078.0</ele><time>2026-04-26T09:50:55.732Z</time></trkpt><trkpt lat="42.5688619" lon="12.9171851"><ele>1078.0</ele><time>2026-04-26T09:50:56.733Z</time></trkpt><trkpt lat="42.568642" lon="12.9171378"><ele>1078.0</ele><time>2026-04-26T09:50:57.734Z</time></trkpt><trkpt lat="42.5684182" lon="12.9170887"><ele>1078.0</ele><time>2026-04-26T09:50:58.734Z</time></trkpt><trkpt lat="42.5681934" lon="12.9170433"><ele>1078.0</ele><time>2026-04-26T09:50:59.732Z</time></trkpt><trkpt lat="42.5679702" lon="12.916998"><ele>1078.0</ele><time>2026-04-26T09:51:00.734Z</time></trkpt><trkpt lat="42.5677447" lon="12.9169495"><ele>1080.0</ele><time>2026-04-26T09:51:01.734Z</time></trkpt><trkpt lat="42.5675269" lon="12.9169004"><ele>1082.0</ele><time>2026-04-26T09:51:02.733Z</time></trkpt><trkpt lat="42.5673241" lon="12.9168343"><ele>1084.0</ele><time>2026-04-26T09:51:03.733Z</time></trkpt><trkpt lat="42.5671336" lon="12.9167584"><ele>1086.3333333333333</ele><time>2026-04-26T09:51:04.734Z</time></trkpt><trkpt lat="42.5669507" lon="12.9166729"><ele>1088.6666666666667</ele><time>2026-04-26T09:51:05.734Z</time></trkpt><trkpt lat="42.566776" lon="12.9165788"><ele>1091.0</ele><time>2026-04-26T09:51:06.733Z</time></trkpt><trkpt lat="42.5666061" lon="12.9164777"><ele>1091.0</ele><time>2026-04-26T09:51:07.733Z</time></trkpt><trkpt lat="42.5664377" lon="12.9163702"><ele>1091.0</ele><time>2026-04-26T09:51:08.733Z</time></trkpt><trkpt lat="42.5662692" lon="12.9162501"><ele>1091.0</ele><time>2026-04-26T09:51:09.733Z</time></trkpt><trkpt lat="42.5661025" lon="12.9161257"><ele>1094.3333333333335</ele><time>2026-04-26T09:51:10.734Z</time></trkpt><trkpt lat="42.5659354" lon="12.916008"><ele>1097.6666666666667</ele><time>2026-04-26T09:51:11.734Z</time></trkpt><trkpt lat="42.5657663" lon="12.9158947"><ele>1101.0</ele><time>2026-04-26T09:51:12.734Z</time></trkpt><trkpt lat="42.5655958" lon="12.9157684"><ele>1101.0</ele><time>2026-04-26T09:51:13.733Z</time></trkpt><trkpt lat="42.5654251" lon="12.91564"><ele>1101.0</ele><time>2026-04-26T09:51:14.734Z</time></trkpt><trkpt lat="42.5652641" lon="12.9155128"><ele>1101.0</ele><time>2026-04-26T09:51:15.734Z</time></trkpt><trkpt lat="42.5651179" lon="12.9153946"><ele>1104.3333333333333</ele><time>2026-04-26T09:51:16.733Z</time></trkpt><trkpt lat="42.5649857" lon="12.9152703"><ele>1107.6666666666665</ele><time>2026-04-26T09:51:17.732Z</time></trkpt><trkpt lat="42.5648682" lon="12.9151377"><ele>1111.0</ele><time>2026-04-26T09:51:18.733Z</time></trkpt><trkpt lat="42.5647658" lon="12.914988"><ele>1111.0</ele><time>2026-04-26T09:51:19.734Z</time></trkpt><trkpt lat="42.5646726" lon="12.9148399"><ele>1111.0</ele><time>2026-04-26T09:51:20.734Z</time></trkpt><trkpt lat="42.5645887" lon="12.9146823"><ele>1111.0</ele><time>2026-04-26T09:51:21.732Z</time></trkpt><trkpt lat="42.5645216" lon="12.9145141"><ele>1111.0</ele><time>2026-04-26T09:51:22.733Z</time></trkpt><trkpt lat="42.5644681" lon="12.9143419"><ele>1106.0</ele><time>2026-04-26T09:51:23.733Z</time></trkpt><trkpt lat="42.5644209" lon="12.9135767"><ele>1102.3333333333335</ele><time>2026-04-26T09:51:27.733Z</time></trkpt><trkpt lat="42.5644487" lon="12.913375"><ele>1098.6666666666667</ele><time>2026-04-26T09:51:28.734Z</time></trkpt><trkpt lat="42.5644911" lon="12.913166"><ele>1095.0</ele><time>2026-04-26T09:51:29.734Z</time></trkpt><trkpt lat="42.5645479" lon="12.9129507"><ele>1102.6666666666667</ele><time>2026-04-26T09:51:30.732Z</time></trkpt><trkpt lat="42.564609" lon="12.9127257"><ele>1110.3333333333335</ele><time>2026-04-26T09:51:31.733Z</time></trkpt><trkpt lat="42.5646651" lon="12.9124749"><ele>1118.0</ele><time>2026-04-26T09:51:32.733Z</time></trkpt><trkpt lat="42.564726" lon="12.9122096"><ele>1118.0</ele><time>2026-04-26T09:51:33.733Z</time></trkpt><trkpt lat="42.5647862" lon="12.9119352"><ele>1118.0</ele><time>2026-04-26T09:51:34.733Z</time></trkpt><trkpt lat="42.5648396" lon="12.9116599"><ele>1118.0</ele><time>2026-04-26T09:51:35.733Z</time></trkpt><trkpt lat="42.5648868" lon="12.9113926"><ele>1113.3333333333335</ele><time>2026-04-26T09:51:36.732Z</time></trkpt><trkpt lat="42.5649333" lon="12.9111291"><ele>1108.6666666666667</ele><time>2026-04-26T09:51:37.733Z</time></trkpt><trkpt lat="42.5649937" lon="12.9108678"><ele>1104.0</ele><time>2026-04-26T09:51:38.733Z</time></trkpt><trkpt lat="42.5650669" lon="12.9106151"><ele>1099.6666666666667</ele><time>2026-04-26T09:51:39.733Z</time></trkpt><trkpt lat="42.5651495" lon="12.9103782"><ele>1095.3333333333335</ele><time>2026-04-26T09:51:40.734Z</time></trkpt><trkpt lat="42.5652312" lon="12.9101447"><ele>1091.0</ele><time>2026-04-26T09:51:41.732Z</time></trkpt><trkpt lat="42.5652908" lon="12.9098969"><ele>1086.6666666666667</ele><time>2026-04-26T09:51:42.734Z</time></trkpt><trkpt lat="42.5653326" lon="12.909664"><ele>1082.3333333333333</ele><time>2026-04-26T09:51:43.733Z</time></trkpt><trkpt lat="42.5653799" lon="12.9094408"><ele>1078.0</ele><time>2026-04-26T09:51:44.734Z</time></trkpt><trkpt lat="42.5654382" lon="12.9092451"><ele>1082.5</ele><time>2026-04-26T09:51:45.733Z</time></trkpt><trkpt lat="42.565496" lon="12.9090845"><ele>1087.0</ele><time>2026-04-26T09:51:46.733Z</time></trkpt><trkpt lat="42.5655261" lon="12.9089254"><ele>1091.5</ele><time>2026-04-26T09:51:47.733Z</time></trkpt><trkpt lat="42.565509" lon="12.9087679"><ele>1096.0</ele><time>2026-04-26T09:51:48.732Z</time></trkpt><trkpt lat="42.5654466" lon="12.9086414"><ele>1090.25</ele><time>2026-04-26T09:51:49.732Z</time></trkpt><trkpt lat="42.5653541" lon="12.9085473"><ele>1084.5</ele><time>2026-04-26T09:51:50.733Z</time></trkpt><trkpt lat="42.5652653" lon="12.9084511"><ele>1078.75</ele><time>2026-04-26T09:51:51.733Z</time></trkpt><trkpt lat="42.5651891" lon="12.9083086"><ele>1073.0</ele><time>2026-04-26T09:51:52.733Z</time></trkpt><trkpt lat="42.5651348" lon="12.9081248"><ele>1073.0</ele><time>2026-04-26T09:51:53.733Z</time></trkpt><trkpt lat="42.5651023" lon="12.9078972"><ele>1073.0</ele><time>2026-04-26T09:51:54.733Z</time></trkpt><trkpt lat="42.5650784" lon="12.9076485"><ele>1073.0</ele><time>2026-04-26T09:51:55.733Z</time></trkpt><trkpt lat="42.5650583" lon="12.9073854"><ele>1073.0</ele><time>2026-04-26T09:51:56.733Z</time></trkpt><trkpt lat="42.5650464" lon="12.9071048"><ele>1073.0</ele><time>2026-04-26T09:51:57.733Z</time></trkpt><trkpt lat="42.5650448" lon="12.9068169"><ele>1073.0</ele><time>2026-04-26T09:51:58.732Z</time></trkpt><trkpt lat="42.5650546" lon="12.9065289"><ele>1072.3333333333335</ele><time>2026-04-26T09:51:59.733Z</time></trkpt><trkpt lat="42.5650502" lon="12.9062523"><ele>1071.6666666666667</ele><time>2026-04-26T09:52:00.734Z</time></trkpt><trkpt lat="42.5650185" lon="12.9059637"><ele>1071.0</ele><time>2026-04-26T09:52:01.734Z</time></trkpt><trkpt lat="42.5649712" lon="12.9056685"><ele>1070.6666666666667</ele><time>2026-04-26T09:52:02.733Z</time></trkpt><trkpt lat="42.5649197" lon="12.9053695"><ele>1070.3333333333335</ele><time>2026-04-26T09:52:03.733Z</time></trkpt><trkpt lat="42.5648675" lon="12.9050806"><ele>1070.0</ele><time>2026-04-26T09:52:04.733Z</time></trkpt><trkpt lat="42.5648152" lon="12.9047975"><ele>1069.3333333333335</ele><time>2026-04-26T09:52:05.733Z</time></trkpt><trkpt lat="42.5647697" lon="12.9045246"><ele>1068.6666666666667</ele><time>2026-04-26T09:52:06.734Z</time></trkpt><trkpt lat="42.5647226" lon="12.904266"><ele>1068.0</ele><time>2026-04-26T09:52:07.733Z</time></trkpt><trkpt lat="42.5646422" lon="12.9040334"><ele>1067.0</ele><time>2026-04-26T09:52:08.734Z</time></trkpt><trkpt lat="42.5645488" lon="12.9038094"><ele>1066.0</ele><time>2026-04-26T09:52:09.733Z</time></trkpt><trkpt lat="42.5644571" lon="12.9035974"><ele>1065.0</ele><time>2026-04-26T09:52:10.734Z</time></trkpt><trkpt lat="42.5643849" lon="12.9033797"><ele>1061.25</ele><time>2026-04-26T09:52:11.734Z</time></trkpt><trkpt lat="42.5643397" lon="12.903175"><ele>1057.5</ele><time>2026-04-26T09:52:12.733Z</time></trkpt><trkpt lat="42.5643146" lon="12.9029957"><ele>1053.75</ele><time>2026-04-26T09:52:13.732Z</time></trkpt><trkpt lat="42.5642789" lon="12.9028376"><ele>1050.0</ele><time>2026-04-26T09:52:14.733Z</time></trkpt><trkpt lat="42.5642089" lon="12.9027042"><ele>1050.0</ele><time>2026-04-26T09:52:15.734Z</time></trkpt><trkpt lat="42.5641016" lon="12.902616"><ele>1050.0</ele><time>2026-04-26T09:52:16.734Z</time></trkpt><trkpt lat="42.563995" lon="12.9025336"><ele>1050.0</ele><time>2026-04-26T09:52:17.734Z</time></trkpt><trkpt lat="42.5639122" lon="12.9024265"><ele>1050.0</ele><time>2026-04-26T09:52:18.733Z</time></trkpt><trkpt lat="42.5638669" lon="12.9022997"><ele>1049.75</ele><time>2026-04-26T09:52:19.734Z</time></trkpt><trkpt lat="42.5638603" lon="12.9021571"><ele>1049.5</ele><time>2026-04-26T09:52:20.733Z</time></trkpt><trkpt lat="42.5638966" lon="12.901996"><ele>1049.25</ele><time>2026-04-26T09:52:21.733Z</time></trkpt><trkpt lat="42.5639407" lon="12.9018253"><ele>1049.0</ele><time>2026-04-26T09:52:22.734Z</time></trkpt><trkpt lat="42.5639557" lon="12.9016294"><ele>1047.3333333333335</ele><time>2026-04-26T09:52:23.732Z</time></trkpt><trkpt lat="42.5639412" lon="12.901418"><ele>1045.6666666666667</ele><time>2026-04-26T09:52:24.731Z</time></trkpt><trkpt lat="42.5638895" lon="12.9012026"><ele>1044.0</ele><time>2026-04-26T09:52:25.732Z</time></trkpt><trkpt lat="42.5638072" lon="12.9009952"><ele>1052.6666666666667</ele><time>2026-04-26T09:52:26.731Z</time></trkpt><trkpt lat="42.5636894" lon="12.9007954"><ele>1061.3333333333335</ele><time>2026-04-26T09:52:27.731Z</time></trkpt><trkpt lat="42.5635659" lon="12.9006005"><ele>1070.0</ele><time>2026-04-26T09:52:28.733Z</time></trkpt><trkpt lat="42.5634507" lon="12.9003915"><ele>1070.0</ele><time>2026-04-26T09:52:29.731Z</time></trkpt><trkpt lat="42.5633489" lon="12.9001913"><ele>1070.0</ele><time>2026-04-26T09:52:30.732Z</time></trkpt><trkpt lat="42.5632581" lon="12.900018"><ele>1070.0</ele><time>2026-04-26T09:52:31.733Z</time></trkpt><trkpt lat="42.5631868" lon="12.8998551"><ele>1065.75</ele><time>2026-04-26T09:52:32.732Z</time></trkpt><trkpt lat="42.5631606" lon="12.899682"><ele>1061.5</ele><time>2026-04-26T09:52:33.732Z</time></trkpt><trkpt lat="42.5631772" lon="12.899499"><ele>1057.25</ele><time>2026-04-26T09:52:34.733Z</time></trkpt><trkpt lat="42.5632342" lon="12.8993104"><ele>1053.0</ele><time>2026-04-26T09:52:35.731Z</time></trkpt><trkpt lat="42.5632943" lon="12.8991139"><ele>1051.3333333333333</ele><time>2026-04-26T09:52:36.733Z</time></trkpt><trkpt lat="42.5633207" lon="12.8989032"><ele>1049.6666666666665</ele><time>2026-04-26T09:52:37.731Z</time></trkpt><trkpt lat="42.5633048" lon="12.8986663"><ele>1048.0</ele><time>2026-04-26T09:52:38.732Z</time></trkpt><trkpt lat="42.5632605" lon="12.8984155"><ele>1047.6666666666665</ele><time>2026-04-26T09:52:39.732Z</time></trkpt><trkpt lat="42.5632017" lon="12.8981658"><ele>1047.3333333333333</ele><time>2026-04-26T09:52:40.732Z</time></trkpt><trkpt lat="42.5631202" lon="12.8979384"><ele>1047.0</ele><time>2026-04-26T09:52:41.732Z</time></trkpt><trkpt lat="42.5630382" lon="12.8977283"><ele>1042.0</ele><time>2026-04-26T09:52:42.732Z</time></trkpt><trkpt lat="42.5629448" lon="12.8975344"><ele>1037.0</ele><time>2026-04-26T09:52:43.732Z</time></trkpt><trkpt lat="42.5628409" lon="12.897366"><ele>1032.0</ele><time>2026-04-26T09:52:44.732Z</time></trkpt><trkpt lat="42.5627253" lon="12.8972327"><ele>1038.0</ele><time>2026-04-26T09:52:45.731Z</time></trkpt><trkpt lat="42.5626129" lon="12.8971148"><ele>1044.0</ele><time>2026-04-26T09:52:46.731Z</time></trkpt><trkpt lat="42.5625184" lon="12.8970016"><ele>1050.0</ele><time>2026-04-26T09:52:47.732Z</time></trkpt><trkpt lat="42.5624586" lon="12.8968597"><ele>1056.0</ele><time>2026-04-26T09:52:48.731Z</time></trkpt><trkpt lat="42.5624306" lon="12.8966917"><ele>1056.0</ele><time>2026-04-26T09:52:49.731Z</time></trkpt><trkpt lat="42.5624209" lon="12.8964972"><ele>1056.0</ele><time>2026-04-26T09:52:50.733Z</time></trkpt><trkpt lat="42.5624239" lon="12.8962738"><ele>1056.0</ele><time>2026-04-26T09:52:51.732Z</time></trkpt><trkpt lat="42.5624414" lon="12.8960589"><ele>1055.5</ele><time>2026-04-26T09:52:52.733Z</time></trkpt><trkpt lat="42.5624643" lon="12.8958441"><ele>1055.0</ele><time>2026-04-26T09:52:53.731Z</time></trkpt><trkpt lat="42.5624742" lon="12.895644"><ele>1054.5</ele><time>2026-04-26T09:52:54.732Z</time></trkpt><trkpt lat="42.562462" lon="12.8954531"><ele>1054.0</ele><time>2026-04-26T09:52:55.733Z</time></trkpt><trkpt lat="42.5624399" lon="12.8952796"><ele>1054.0</ele><time>2026-04-26T09:52:56.733Z</time></trkpt><trkpt lat="42.5624128" lon="12.8951267"><ele>1054.0</ele><time>2026-04-26T09:52:57.733Z</time></trkpt><trkpt lat="42.562398" lon="12.8949767"><ele>1054.0</ele><time>2026-04-26T09:52:58.732Z</time></trkpt><trkpt lat="42.5624136" lon="12.8948208"><ele>1054.0</ele><time>2026-04-26T09:52:59.732Z</time></trkpt><trkpt lat="42.5624549" lon="12.8946555"><ele>1054.0</ele><time>2026-04-26T09:53:00.731Z</time></trkpt><trkpt lat="42.5625188" lon="12.8944889"><ele>1054.0</ele><time>2026-04-26T09:53:01.731Z</time></trkpt><trkpt lat="42.5625695" lon="12.8943295"><ele>1054.0</ele><time>2026-04-26T09:53:02.732Z</time></trkpt><trkpt lat="42.562602" lon="12.8941694"><ele>1054.0</ele><time>2026-04-26T09:53:03.733Z</time></trkpt><trkpt lat="42.5626258" lon="12.8940169"><ele>1054.0</ele><time>2026-04-26T09:53:04.732Z</time></trkpt><trkpt lat="42.5626463" lon="12.893866"><ele>1054.0</ele><time>2026-04-26T09:53:05.731Z</time></trkpt><trkpt lat="42.562665" lon="12.8937159"><ele>1054.0</ele><time>2026-04-26T09:53:06.732Z</time></trkpt><trkpt lat="42.5626792" lon="12.8935779"><ele>1054.0</ele><time>2026-04-26T09:53:07.732Z</time></trkpt><trkpt lat="42.5626964" lon="12.8934454"><ele>1054.0</ele><time>2026-04-26T09:53:08.733Z</time></trkpt><trkpt lat="42.5626989" lon="12.8933202"><ele>1053.4</ele><time>2026-04-26T09:53:09.731Z</time></trkpt><trkpt lat="42.5626677" lon="12.8932061"><ele>1052.8000000000002</ele><time>2026-04-26T09:53:10.732Z</time></trkpt><trkpt lat="42.5625971" lon="12.893132"><ele>1052.1999999999998</ele><time>2026-04-26T09:53:11.732Z</time></trkpt><trkpt lat="42.5625012" lon="12.8930992"><ele>1051.6</ele><time>2026-04-26T09:53:12.732Z</time></trkpt><trkpt lat="42.5623979" lon="12.8930881"><ele>1051.0</ele><time>2026-04-26T09:53:13.732Z</time></trkpt><trkpt lat="42.5623005" lon="12.8930668"><ele>1051.0</ele><time>2026-04-26T09:53:14.732Z</time></trkpt><trkpt lat="42.5622081" lon="12.8930326"><ele>1051.0</ele><time>2026-04-26T09:53:15.732Z</time></trkpt><trkpt lat="42.5621267" lon="12.8929847"><ele>1051.0</ele><time>2026-04-26T09:53:16.732Z</time></trkpt><trkpt lat="42.5620651" lon="12.8929037"><ele>1051.0</ele><time>2026-04-26T09:53:17.733Z</time></trkpt><trkpt lat="42.5620298" lon="12.8927957"><ele>1051.0</ele><time>2026-04-26T09:53:18.733Z</time></trkpt><trkpt lat="42.562032" lon="12.892668"><ele>1048.6</ele><time>2026-04-26T09:53:19.731Z</time></trkpt><trkpt lat="42.5620712" lon="12.8925407"><ele>1046.1999999999998</ele><time>2026-04-26T09:53:20.732Z</time></trkpt><trkpt lat="42.5621436" lon="12.8924356"><ele>1043.8000000000002</ele><time>2026-04-26T09:53:21.732Z</time></trkpt><trkpt lat="42.5622195" lon="12.8923325"><ele>1041.4</ele><time>2026-04-26T09:53:22.732Z</time></trkpt><trkpt lat="42.5622867" lon="12.8922147"><ele>1039.0</ele><time>2026-04-26T09:53:23.732Z</time></trkpt><trkpt lat="42.5623264" lon="12.8920704"><ele>1039.0</ele><time>2026-04-26T09:53:24.733Z</time></trkpt><trkpt lat="42.5623337" lon="12.8919106"><ele>1039.0</ele><time>2026-04-26T09:53:25.733Z</time></trkpt><trkpt lat="42.5623209" lon="12.8917447"><ele>1039.0</ele><time>2026-04-26T09:53:26.733Z</time></trkpt><trkpt lat="42.5623011" lon="12.8915846"><ele>1039.0</ele><time>2026-04-26T09:53:27.733Z</time></trkpt><trkpt lat="42.5622715" lon="12.8914476"><ele>1038.25</ele><time>2026-04-26T09:53:28.733Z</time></trkpt><trkpt lat="42.5622316" lon="12.8913208"><ele>1037.5</ele><time>2026-04-26T09:53:29.733Z</time></trkpt><trkpt lat="42.5621598" lon="12.8911704"><ele>1036.75</ele><time>2026-04-26T09:53:30.732Z</time></trkpt><trkpt lat="42.5620651" lon="12.8910104"><ele>1036.0</ele><time>2026-04-26T09:53:31.731Z</time></trkpt><trkpt lat="42.5619634" lon="12.8908686"><ele>1038.5</ele><time>2026-04-26T09:53:32.732Z</time></trkpt><trkpt lat="42.5618688" lon="12.8907269"><ele>1041.0</ele><time>2026-04-26T09:53:33.732Z</time></trkpt><trkpt lat="42.5618028" lon="12.8905524"><ele>1043.5</ele><time>2026-04-26T09:53:34.733Z</time></trkpt><trkpt lat="42.5617586" lon="12.8903391"><ele>1046.0</ele><time>2026-04-26T09:53:35.732Z</time></trkpt><trkpt lat="42.5617189" lon="12.8900836"><ele>1046.0</ele><time>2026-04-26T09:53:36.733Z</time></trkpt><trkpt lat="42.5616753" lon="12.8898078"><ele>1046.0</ele><time>2026-04-26T09:53:37.732Z</time></trkpt><trkpt lat="42.5616328" lon="12.8895101"><ele>1046.0</ele><time>2026-04-26T09:53:38.732Z</time></trkpt><trkpt lat="42.5615877" lon="12.8891991"><ele>1043.5</ele><time>2026-04-26T09:53:39.732Z</time></trkpt><trkpt lat="42.5615433" lon="12.8888922"><ele>1041.0</ele><time>2026-04-26T09:53:40.732Z</time></trkpt><trkpt lat="42.5615018" lon="12.8885989"><ele>1038.3333333333333</ele><time>2026-04-26T09:53:41.731Z</time></trkpt><trkpt lat="42.561463" lon="12.8883088"><ele>1035.6666666666665</ele><time>2026-04-26T09:53:42.732Z</time></trkpt><trkpt lat="42.5614265" lon="12.8880226"><ele>1033.0</ele><time>2026-04-26T09:53:43.732Z</time></trkpt><trkpt lat="42.56139" lon="12.8877503"><ele>1030.6666666666665</ele><time>2026-04-26T09:53:44.732Z</time></trkpt><trkpt lat="42.5613502" lon="12.8874881"><ele>1028.3333333333333</ele><time>2026-04-26T09:53:45.732Z</time></trkpt><trkpt lat="42.5613134" lon="12.8872406"><ele>1026.0</ele><time>2026-04-26T09:53:46.732Z</time></trkpt><trkpt lat="42.5612724" lon="12.8870025"><ele>1026.0</ele><time>2026-04-26T09:53:47.731Z</time></trkpt><trkpt lat="42.561216" lon="12.8867669"><ele>1026.0</ele><time>2026-04-26T09:53:48.732Z</time></trkpt><trkpt lat="42.561078" lon="12.8865567"><ele>1026.0</ele><time>2026-04-26T09:53:49.732Z</time></trkpt><trkpt lat="42.5609611" lon="12.8863483"><ele>1024.6666666666667</ele><time>2026-04-26T09:53:50.731Z</time></trkpt><trkpt lat="42.560836" lon="12.8861432"><ele>1023.3333333333334</ele><time>2026-04-26T09:53:51.732Z</time></trkpt><trkpt lat="42.5607098" lon="12.8859425"><ele>1022.0</ele><time>2026-04-26T09:53:52.731Z</time></trkpt><trkpt lat="42.5605639" lon="12.8857684"><ele>1022.0</ele><time>2026-04-26T09:53:53.733Z</time></trkpt><trkpt lat="42.5604018" lon="12.8856187"><ele>1022.0</ele><time>2026-04-26T09:53:54.732Z</time></trkpt><trkpt lat="42.5602442" lon="12.8854597"><ele>1022.0</ele><time>2026-04-26T09:53:55.733Z</time></trkpt><trkpt lat="42.5601135" lon="12.885273"><ele>1022.6666666666667</ele><time>2026-04-26T09:53:56.733Z</time></trkpt><trkpt lat="42.5599759" lon="12.8851111"><ele>1023.3333333333333</ele><time>2026-04-26T09:53:57.731Z</time></trkpt><trkpt lat="42.5598348" lon="12.8849722"><ele>1024.0</ele><time>2026-04-26T09:53:58.731Z</time></trkpt><trkpt lat="42.5597016" lon="12.8848441"><ele>1024.0</ele><time>2026-04-26T09:53:59.733Z</time></trkpt><trkpt lat="42.5595955" lon="12.8847179"><ele>1024.0</ele><time>2026-04-26T09:54:00.732Z</time></trkpt><trkpt lat="42.559524" lon="12.884582"><ele>1024.0</ele><time>2026-04-26T09:54:01.732Z</time></trkpt><trkpt lat="42.5594873" lon="12.8844329"><ele>1024.0</ele><time>2026-04-26T09:54:02.732Z</time></trkpt><trkpt lat="42.5594979" lon="12.884274"><ele>1018.75</ele><time>2026-04-26T09:54:03.732Z</time></trkpt><trkpt lat="42.5595562" lon="12.8841016"><ele>1013.5</ele><time>2026-04-26T09:54:04.733Z</time></trkpt><trkpt lat="42.5596455" lon="12.8839473"><ele>1008.25</ele><time>2026-04-26T09:54:05.732Z</time></trkpt><trkpt lat="42.5597303" lon="12.8837648"><ele>1003.0</ele><time>2026-04-26T09:54:06.731Z</time></trkpt><trkpt lat="42.5598222" lon="12.8835899"><ele>1002.3333333333333</ele><time>2026-04-26T09:54:07.733Z</time></trkpt><trkpt lat="42.559795" lon="12.8833368"><ele>1001.6666666666667</ele><time>2026-04-26T09:54:08.733Z</time></trkpt><trkpt lat="42.5597873" lon="12.883101"><ele>1001.0</ele><time>2026-04-26T09:54:09.731Z</time></trkpt><trkpt lat="42.5596855" lon="12.8828537"><ele>998.0</ele><time>2026-04-26T09:54:10.732Z</time></trkpt><trkpt lat="42.5596008" lon="12.8825823"><ele>995.0</ele><time>2026-04-26T09:54:11.732Z</time></trkpt><trkpt lat="42.5595439" lon="12.8822718"><ele>1009.6666666666667</ele><time>2026-04-26T09:54:12.732Z</time></trkpt><trkpt lat="42.5594925" lon="12.8819794"><ele>1024.3333333333333</ele><time>2026-04-26T09:54:13.732Z</time></trkpt><trkpt lat="42.5594372" lon="12.8816968"><ele>1039.0</ele><time>2026-04-26T09:54:14.731Z</time></trkpt><trkpt lat="42.5593966" lon="12.8814246"><ele>1039.0</ele><time>2026-04-26T09:54:15.732Z</time></trkpt><trkpt lat="42.5593639" lon="12.881146"><ele>1039.0</ele><time>2026-04-26T09:54:16.732Z</time></trkpt><trkpt lat="42.5593595" lon="12.8808645"><ele>1039.0</ele><time>2026-04-26T09:54:17.732Z</time></trkpt><trkpt lat="42.5593628" lon="12.8805967"><ele>1037.3333333333333</ele><time>2026-04-26T09:54:18.731Z</time></trkpt><trkpt lat="42.559381" lon="12.8803349"><ele>1035.6666666666667</ele><time>2026-04-26T09:54:19.732Z</time></trkpt><trkpt lat="42.5593966" lon="12.8800852"><ele>1034.0</ele><time>2026-04-26T09:54:20.732Z</time></trkpt><trkpt lat="42.5593894" lon="12.8798304"><ele>1032.0</ele><time>2026-04-26T09:54:21.732Z</time></trkpt><trkpt lat="42.5593551" lon="12.8795688"><ele>1030.0</ele><time>2026-04-26T09:54:22.732Z</time></trkpt><trkpt lat="42.5592956" lon="12.879304"><ele>1028.0</ele><time>2026-04-26T09:54:23.733Z</time></trkpt><trkpt lat="42.5592405" lon="12.8790422"><ele>1024.3333333333335</ele><time>2026-04-26T09:54:24.732Z</time></trkpt><trkpt lat="42.559184" lon="12.87879"><ele>1020.6666666666667</ele><time>2026-04-26T09:54:25.732Z</time></trkpt><trkpt lat="42.5591294" lon="12.8785529"><ele>1017.0</ele><time>2026-04-26T09:54:26.733Z</time></trkpt><trkpt lat="42.5590955" lon="12.8783229"><ele>1010.6666666666667</ele><time>2026-04-26T09:54:27.732Z</time></trkpt><trkpt lat="42.5590649" lon="12.878116"><ele>1004.3333333333334</ele><time>2026-04-26T09:54:28.732Z</time></trkpt><trkpt lat="42.5590221" lon="12.8779217"><ele>998.0</ele><time>2026-04-26T09:54:29.733Z</time></trkpt><trkpt lat="42.5589083" lon="12.8777513"><ele>993.0</ele><time>2026-04-26T09:54:30.732Z</time></trkpt><trkpt lat="42.5588465" lon="12.8775446"><ele>988.0</ele><time>2026-04-26T09:54:31.732Z</time></trkpt><trkpt lat="42.5588134" lon="12.877325"><ele>983.0</ele><time>2026-04-26T09:54:32.733Z</time></trkpt><trkpt lat="42.5587575" lon="12.8770959"><ele>985.3333333333334</ele><time>2026-04-26T09:54:33.732Z</time></trkpt><trkpt lat="42.5586845" lon="12.8769021"><ele>987.6666666666667</ele><time>2026-04-26T09:54:34.731Z</time></trkpt><trkpt lat="42.5585932" lon="12.8767473"><ele>990.0</ele><time>2026-04-26T09:54:35.732Z</time></trkpt><trkpt lat="42.5584785" lon="12.8766269"><ele>990.0</ele><time>2026-04-26T09:54:36.733Z</time></trkpt><trkpt lat="42.5583443" lon="12.8765594"><ele>990.0</ele><time>2026-04-26T09:54:37.731Z</time></trkpt><trkpt lat="42.5581747" lon="12.8765417"><ele>990.0</ele><time>2026-04-26T09:54:38.732Z</time></trkpt><trkpt lat="42.5579868" lon="12.8765546"><ele>987.6666666666667</ele><time>2026-04-26T09:54:39.733Z</time></trkpt><trkpt lat="42.5577838" lon="12.8765806"><ele>985.3333333333334</ele><time>2026-04-26T09:54:40.732Z</time></trkpt><trkpt lat="42.5575833" lon="12.8766089"><ele>983.0</ele><time>2026-04-26T09:54:41.732Z</time></trkpt><trkpt lat="42.5573856" lon="12.8766426"><ele>983.0</ele><time>2026-04-26T09:54:42.731Z</time></trkpt><trkpt lat="42.5571946" lon="12.8766744"><ele>983.0</ele><time>2026-04-26T09:54:43.732Z</time></trkpt><trkpt lat="42.5570086" lon="12.8767063"><ele>983.0</ele><time>2026-04-26T09:54:44.733Z</time></trkpt><trkpt lat="42.5568285" lon="12.8767336"><ele>978.3333333333334</ele><time>2026-04-26T09:54:45.731Z</time></trkpt><trkpt lat="42.5566532" lon="12.8767578"><ele>973.6666666666667</ele><time>2026-04-26T09:54:46.731Z</time></trkpt><trkpt lat="42.5564955" lon="12.8767995"><ele>969.0</ele><time>2026-04-26T09:54:47.731Z</time></trkpt><trkpt lat="42.556353" lon="12.8768904"><ele>974.0</ele><time>2026-04-26T09:54:48.732Z</time></trkpt><trkpt lat="42.5562273" lon="12.8769793"><ele>979.0</ele><time>2026-04-26T09:54:49.732Z</time></trkpt><trkpt lat="42.556104" lon="12.8770481"><ele>984.0</ele><time>2026-04-26T09:54:50.732Z</time></trkpt><trkpt lat="42.5559841" lon="12.8770765"><ele>989.0</ele><time>2026-04-26T09:54:51.731Z</time></trkpt><trkpt lat="42.5558793" lon="12.8770695"><ele>989.0</ele><time>2026-04-26T09:54:52.733Z</time></trkpt><trkpt lat="42.5557917" lon="12.8770197"><ele>989.0000000000001</ele><time>2026-04-26T09:54:53.732Z</time></trkpt><trkpt lat="42.5557241" lon="12.8769137"><ele>989.0000000000001</ele><time>2026-04-26T09:54:54.731Z</time></trkpt><trkpt lat="42.5556856" lon="12.8767699"><ele>989.0</ele><time>2026-04-26T09:54:55.732Z</time></trkpt><trkpt lat="42.5556759" lon="12.8766164"><ele>989.0</ele><time>2026-04-26T09:54:56.732Z</time></trkpt><trkpt lat="42.5556702" lon="12.8764477"><ele>985.0</ele><time>2026-04-26T09:54:57.732Z</time></trkpt><trkpt lat="42.5557925" lon="12.8763137"><ele>981.0</ele><time>2026-04-26T09:54:58.73Z</time></trkpt><trkpt lat="42.5558713" lon="12.8761583"><ele>977.0</ele><time>2026-04-26T09:54:59.731Z</time></trkpt><trkpt lat="42.5559982" lon="12.876029"><ele>981.3333333333334</ele><time>2026-04-26T09:55:00.73Z</time></trkpt><trkpt lat="42.5561161" lon="12.8758822"><ele>985.6666666666667</ele><time>2026-04-26T09:55:01.731Z</time></trkpt><trkpt lat="42.5562338" lon="12.875736"><ele>990.0</ele><time>2026-04-26T09:55:02.732Z</time></trkpt><trkpt lat="42.5563554" lon="12.8755915"><ele>979.3333333333333</ele><time>2026-04-26T09:55:03.731Z</time></trkpt><trkpt lat="42.5564774" lon="12.8754507"><ele>968.6666666666666</ele><time>2026-04-26T09:55:04.731Z</time></trkpt><trkpt lat="42.5566011" lon="12.8753052"><ele>958.0</ele><time>2026-04-26T09:55:05.731Z</time></trkpt><trkpt lat="42.556727" lon="12.8751731"><ele>955.0</ele><time>2026-04-26T09:55:06.73Z</time></trkpt><trkpt lat="42.5568559" lon="12.8750525"><ele>952.0</ele><time>2026-04-26T09:55:07.732Z</time></trkpt><trkpt lat="42.5569855" lon="12.8749435"><ele>949.0</ele><time>2026-04-26T09:55:08.732Z</time></trkpt><trkpt lat="42.5571127" lon="12.8748288"><ele>949.0</ele><time>2026-04-26T09:55:09.731Z</time></trkpt><trkpt lat="42.5572305" lon="12.8747114"><ele>949.0</ele><time>2026-04-26T09:55:10.731Z</time></trkpt><trkpt lat="42.5573494" lon="12.874589"><ele>949.0</ele><time>2026-04-26T09:55:11.731Z</time></trkpt><trkpt lat="42.5574754" lon="12.8744804"><ele>949.0</ele><time>2026-04-26T09:55:12.732Z</time></trkpt><trkpt lat="42.5576041" lon="12.8743865"><ele>949.0</ele><time>2026-04-26T09:55:13.731Z</time></trkpt><trkpt lat="42.5577364" lon="12.8743032"><ele>949.0</ele><time>2026-04-26T09:55:14.732Z</time></trkpt><trkpt lat="42.5578641" lon="12.8742424"><ele>949.0</ele><time>2026-04-26T09:55:15.732Z</time></trkpt><trkpt lat="42.5579844" lon="12.8741989"><ele>949.0</ele><time>2026-04-26T09:55:16.732Z</time></trkpt><trkpt lat="42.5580964" lon="12.8741605"><ele>946.75</ele><time>2026-04-26T09:55:17.732Z</time></trkpt><trkpt lat="42.5581941" lon="12.8740859"><ele>944.5</ele><time>2026-04-26T09:55:18.731Z</time></trkpt><trkpt lat="42.5582686" lon="12.8739719"><ele>942.25</ele><time>2026-04-26T09:55:19.731Z</time></trkpt><trkpt lat="42.5583331" lon="12.8738095"><ele>940.0</ele><time>2026-04-26T09:55:20.732Z</time></trkpt><trkpt lat="42.5584054" lon="12.8736247"><ele>940.0</ele><time>2026-04-26T09:55:21.73Z</time></trkpt><trkpt lat="42.5584664" lon="12.8734586"><ele>940.0</ele><time>2026-04-26T09:55:22.732Z</time></trkpt><trkpt lat="42.5585171" lon="12.8732909"><ele>940.0</ele><time>2026-04-26T09:55:23.731Z</time></trkpt><trkpt lat="42.5585556" lon="12.8731168"><ele>940.0</ele><time>2026-04-26T09:55:24.731Z</time></trkpt><trkpt lat="42.5585877" lon="12.8729472"><ele>944.0</ele><time>2026-04-26T09:55:25.731Z</time></trkpt><trkpt lat="42.5586181" lon="12.8727827"><ele>948.0</ele><time>2026-04-26T09:55:26.732Z</time></trkpt><trkpt lat="42.5586621" lon="12.8726261"><ele>952.0</ele><time>2026-04-26T09:55:27.731Z</time></trkpt><trkpt lat="42.5587137" lon="12.8724783"><ele>956.0</ele><time>2026-04-26T09:55:28.731Z</time></trkpt><trkpt lat="42.5587652" lon="12.8723328"><ele>947.0</ele><time>2026-04-26T09:55:29.731Z</time></trkpt><trkpt lat="42.5588136" lon="12.8721896"><ele>937.9999999999999</ele><time>2026-04-26T09:55:30.73Z</time></trkpt><trkpt lat="42.558861" lon="12.8720509"><ele>928.9999999999999</ele><time>2026-04-26T09:55:31.731Z</time></trkpt><trkpt lat="42.5589056" lon="12.8719094"><ele>920.0</ele><time>2026-04-26T09:55:32.73Z</time></trkpt><trkpt lat="42.5589321" lon="12.8717684"><ele>911.0</ele><time>2026-04-26T09:55:33.731Z</time></trkpt><trkpt lat="42.5588282" lon="12.8716201"><ele>922.75</ele><time>2026-04-26T09:55:34.73Z</time></trkpt><trkpt lat="42.55865" lon="12.8715495"><ele>934.5</ele><time>2026-04-26T09:55:35.731Z</time></trkpt><trkpt lat="42.558548" lon="12.8714569"><ele>946.25</ele><time>2026-04-26T09:55:36.732Z</time></trkpt><trkpt lat="42.5584386" lon="12.8713825"><ele>958.0</ele><time>2026-04-26T09:55:37.731Z</time></trkpt><trkpt lat="42.5583369" lon="12.8712586"><ele>958.0</ele><time>2026-04-26T09:55:38.732Z</time></trkpt><trkpt lat="42.5582457" lon="12.871101"><ele>958.0</ele><time>2026-04-26T09:55:39.731Z</time></trkpt><trkpt lat="42.5581618" lon="12.8709188"><ele>958.0</ele><time>2026-04-26T09:55:40.73Z</time></trkpt><trkpt lat="42.5580906" lon="12.8707467"><ele>955.25</ele><time>2026-04-26T09:55:41.731Z</time></trkpt><trkpt lat="42.558025" lon="12.8705709"><ele>952.5</ele><time>2026-04-26T09:55:42.731Z</time></trkpt><trkpt lat="42.5579623" lon="12.8703896"><ele>949.75</ele><time>2026-04-26T09:55:43.731Z</time></trkpt><trkpt lat="42.5579046" lon="12.8702249"><ele>947.0</ele><time>2026-04-26T09:55:44.732Z</time></trkpt><trkpt lat="42.5578592" lon="12.870053"><ele>947.0</ele><time>2026-04-26T09:55:45.731Z</time></trkpt><trkpt lat="42.5578142" lon="12.8698914"><ele>947.0</ele><time>2026-04-26T09:55:46.73Z</time></trkpt><trkpt lat="42.5577444" lon="12.8697545"><ele>947.0</ele><time>2026-04-26T09:55:47.731Z</time></trkpt><trkpt lat="42.5576604" lon="12.8696439"><ele>947.0</ele><time>2026-04-26T09:55:48.732Z</time></trkpt><trkpt lat="42.5575624" lon="12.8695671"><ele>947.0</ele><time>2026-04-26T09:55:49.732Z</time></trkpt><trkpt lat="42.5574626" lon="12.8695017"><ele>947.0</ele><time>2026-04-26T09:55:50.731Z</time></trkpt><trkpt lat="42.5573705" lon="12.8694402"><ele>947.0</ele><time>2026-04-26T09:55:51.731Z</time></trkpt><trkpt lat="42.5572957" lon="12.8693569"><ele>947.0</ele><time>2026-04-26T09:55:52.732Z</time></trkpt><trkpt lat="42.5572443" lon="12.8692457"><ele>947.0</ele><time>2026-04-26T09:55:53.732Z</time></trkpt><trkpt lat="42.5571944" lon="12.8691236"><ele>939.5</ele><time>2026-04-26T09:55:54.731Z</time></trkpt><trkpt lat="42.5571592" lon="12.8689782"><ele>932.0</ele><time>2026-04-26T09:55:55.732Z</time></trkpt><trkpt lat="42.5571553" lon="12.8688268"><ele>924.5</ele><time>2026-04-26T09:55:56.732Z</time></trkpt><trkpt lat="42.5572531" lon="12.8686807"><ele>917.0</ele><time>2026-04-26T09:55:57.732Z</time></trkpt><trkpt lat="42.5572761" lon="12.8685492"><ele>920.4000000000001</ele><time>2026-04-26T09:55:58.732Z</time></trkpt><trkpt lat="42.5572842" lon="12.8684161"><ele>923.8000000000001</ele><time>2026-04-26T09:55:59.731Z</time></trkpt><trkpt lat="42.5572548" lon="12.8682898"><ele>927.2</ele><time>2026-04-26T09:56:00.73Z</time></trkpt><trkpt lat="42.5571845" lon="12.8681767"><ele>930.6</ele><time>2026-04-26T09:56:01.731Z</time></trkpt><trkpt lat="42.5570858" lon="12.8680903"><ele>934.0</ele><time>2026-04-26T09:56:02.731Z</time></trkpt><trkpt lat="42.5569767" lon="12.8680309"><ele>934.0</ele><time>2026-04-26T09:56:03.732Z</time></trkpt><trkpt lat="42.5568758" lon="12.8679818"><ele>934.0000000000001</ele><time>2026-04-26T09:56:04.732Z</time></trkpt><trkpt lat="42.5567785" lon="12.8679329"><ele>934.0000000000001</ele><time>2026-04-26T09:56:05.73Z</time></trkpt><trkpt lat="42.5566957" lon="12.8678454"><ele>934.0</ele><time>2026-04-26T09:56:06.731Z</time></trkpt><trkpt lat="42.5566292" lon="12.8677273"><ele>934.0</ele><time>2026-04-26T09:56:07.731Z</time></trkpt><trkpt lat="42.5565813" lon="12.8675981"><ele>926.25</ele><time>2026-04-26T09:56:08.732Z</time></trkpt><trkpt lat="42.5565343" lon="12.8674586"><ele>918.5</ele><time>2026-04-26T09:56:09.731Z</time></trkpt><trkpt lat="42.5564651" lon="12.8673367"><ele>910.75</ele><time>2026-04-26T09:56:10.732Z</time></trkpt><trkpt lat="42.556367" lon="12.8672577"><ele>903.0</ele><time>2026-04-26T09:56:11.731Z</time></trkpt><trkpt lat="42.556257" lon="12.8672115"><ele>905.5</ele><time>2026-04-26T09:56:12.731Z</time></trkpt><trkpt lat="42.5561371" lon="12.8672163"><ele>908.0</ele><time>2026-04-26T09:56:13.732Z</time></trkpt><trkpt lat="42.5559992" lon="12.8672649"><ele>910.5</ele><time>2026-04-26T09:56:14.732Z</time></trkpt><trkpt lat="42.5558663" lon="12.8673219"><ele>913.0</ele><time>2026-04-26T09:56:15.732Z</time></trkpt><trkpt lat="42.5557251" lon="12.8673724"><ele>913.0</ele><time>2026-04-26T09:56:16.732Z</time></trkpt><trkpt lat="42.5555872" lon="12.8673972"><ele>913.0</ele><time>2026-04-26T09:56:17.732Z</time></trkpt><trkpt lat="42.5554516" lon="12.8674079"><ele>913.0</ele><time>2026-04-26T09:56:18.731Z</time></trkpt><trkpt lat="42.555319" lon="12.8674181"><ele>913.0</ele><time>2026-04-26T09:56:19.731Z</time></trkpt><trkpt lat="42.5551905" lon="12.867428"><ele>912.8</ele><time>2026-04-26T09:56:20.731Z</time></trkpt><trkpt lat="42.5550707" lon="12.8674522"><ele>912.5999999999999</ele><time>2026-04-26T09:56:21.732Z</time></trkpt><trkpt lat="42.5549722" lon="12.8674807"><ele>912.4000000000001</ele><time>2026-04-26T09:56:22.731Z</time></trkpt><trkpt lat="42.5548802" lon="12.8674868"><ele>912.2</ele><time>2026-04-26T09:56:23.73Z</time></trkpt><trkpt lat="42.5548081" lon="12.867447"><ele>912.0</ele><time>2026-04-26T09:56:24.731Z</time></trkpt><trkpt lat="42.5547592" lon="12.8673685"><ele>912.0</ele><time>2026-04-26T09:56:25.731Z</time></trkpt><trkpt lat="42.5547417" lon="12.8672577"><ele>912.0</ele><time>2026-04-26T09:56:26.731Z</time></trkpt><trkpt lat="42.5547578" lon="12.8671325"><ele>912.0</ele><time>2026-04-26T09:56:27.732Z</time></trkpt><trkpt lat="42.5548034" lon="12.8670041"><ele>912.0</ele><time>2026-04-26T09:56:28.732Z</time></trkpt><trkpt lat="42.5548552" lon="12.8668758"><ele>912.0</ele><time>2026-04-26T09:56:29.731Z</time></trkpt><trkpt lat="42.5549149" lon="12.8667558"><ele>908.4000000000001</ele><time>2026-04-26T09:56:30.732Z</time></trkpt><trkpt lat="42.5549565" lon="12.8666162"><ele>904.8000000000001</ele><time>2026-04-26T09:56:31.732Z</time></trkpt><trkpt lat="42.5549904" lon="12.8664767"><ele>901.2</ele><time>2026-04-26T09:56:32.731Z</time></trkpt><trkpt lat="42.5550135" lon="12.8663385"><ele>897.6</ele><time>2026-04-26T09:56:33.731Z</time></trkpt><trkpt lat="42.5550029" lon="12.8662115"><ele>894.0</ele><time>2026-04-26T09:56:34.731Z</time></trkpt><trkpt lat="42.5549737" lon="12.8661029"><ele>894.0</ele><time>2026-04-26T09:56:35.731Z</time></trkpt><trkpt lat="42.5549033" lon="12.8660172"><ele>894.0000000000001</ele><time>2026-04-26T09:56:36.731Z</time></trkpt><trkpt lat="42.5548008" lon="12.8659812"><ele>894.0000000000001</ele><time>2026-04-26T09:56:37.731Z</time></trkpt><trkpt lat="42.5546832" lon="12.8659918"><ele>894.0</ele><time>2026-04-26T09:56:38.731Z</time></trkpt><trkpt lat="42.5545706" lon="12.8660304"><ele>894.0</ele><time>2026-04-26T09:56:39.732Z</time></trkpt><trkpt lat="42.5544499" lon="12.8660606"><ele>900.25</ele><time>2026-04-26T09:56:40.731Z</time></trkpt><trkpt lat="42.5543211" lon="12.8660705"><ele>906.5</ele><time>2026-04-26T09:56:41.73Z</time></trkpt><trkpt lat="42.5541974" lon="12.8660622"><ele>912.75</ele><time>2026-04-26T09:56:42.731Z</time></trkpt><trkpt lat="42.554071" lon="12.8660478"><ele>919.0</ele><time>2026-04-26T09:56:43.731Z</time></trkpt><trkpt lat="42.5539491" lon="12.8660309"><ele>919.0</ele><time>2026-04-26T09:56:44.731Z</time></trkpt><trkpt lat="42.5538277" lon="12.8660218"><ele>919.0000000000001</ele><time>2026-04-26T09:56:45.732Z</time></trkpt><trkpt lat="42.5537149" lon="12.8660112"><ele>919.0000000000001</ele><time>2026-04-26T09:56:46.731Z</time></trkpt><trkpt lat="42.553613" lon="12.8659844"><ele>919.0</ele><time>2026-04-26T09:56:47.731Z</time></trkpt><trkpt lat="42.5535297" lon="12.8659353"><ele>919.0</ele><time>2026-04-26T09:56:48.732Z</time></trkpt><trkpt lat="42.5534771" lon="12.865856"><ele>917.6</ele><time>2026-04-26T09:56:49.732Z</time></trkpt><trkpt lat="42.5534575" lon="12.8657419"><ele>916.2</ele><time>2026-04-26T09:56:50.731Z</time></trkpt><trkpt lat="42.5534728" lon="12.8656144"><ele>914.8000000000001</ele><time>2026-04-26T09:56:51.732Z</time></trkpt><trkpt lat="42.5535006" lon="12.8654722"><ele>913.4000000000001</ele><time>2026-04-26T09:56:52.731Z</time></trkpt><trkpt lat="42.5535444" lon="12.8653308"><ele>912.0</ele><time>2026-04-26T09:56:53.731Z</time></trkpt><trkpt lat="42.5535864" lon="12.8651833"><ele>910.4000000000001</ele><time>2026-04-26T09:56:54.731Z</time></trkpt><trkpt lat="42.5536231" lon="12.8650452"><ele>908.8000000000001</ele><time>2026-04-26T09:56:55.731Z</time></trkpt><trkpt lat="42.5536524" lon="12.864907"><ele>907.2</ele><time>2026-04-26T09:56:56.731Z</time></trkpt><trkpt lat="42.5536519" lon="12.8647819"><ele>905.6</ele><time>2026-04-26T09:56:57.732Z</time></trkpt><trkpt lat="42.5536193" lon="12.8646502"><ele>904.0</ele><time>2026-04-26T09:56:58.73Z</time></trkpt><trkpt lat="42.5535551" lon="12.8645091"><ele>904.0</ele><time>2026-04-26T09:56:59.73Z</time></trkpt><trkpt lat="42.5534613" lon="12.8643541"><ele>904.0</ele><time>2026-04-26T09:57:00.73Z</time></trkpt><trkpt lat="42.5533559" lon="12.8642142"><ele>904.0</ele><time>2026-04-26T09:57:01.73Z</time></trkpt><trkpt lat="42.5532507" lon="12.8641016"><ele>904.0</ele><time>2026-04-26T09:57:02.731Z</time></trkpt><trkpt lat="42.5531398" lon="12.8640068"><ele>908.25</ele><time>2026-04-26T09:57:03.73Z</time></trkpt><trkpt lat="42.5530304" lon="12.8639148"><ele>912.5</ele><time>2026-04-26T09:57:04.731Z</time></trkpt><trkpt lat="42.5529261" lon="12.8638298"><ele>916.75</ele><time>2026-04-26T09:57:05.731Z</time></trkpt><trkpt lat="42.5528279" lon="12.863748"><ele>921.0</ele><time>2026-04-26T09:57:06.73Z</time></trkpt><trkpt lat="42.5527346" lon="12.8636623"><ele>921.0</ele><time>2026-04-26T09:57:07.731Z</time></trkpt><trkpt lat="42.5526485" lon="12.8635573"><ele>921.0</ele><time>2026-04-26T09:57:08.732Z</time></trkpt><trkpt lat="42.5525691" lon="12.8634203"><ele>921.0</ele><time>2026-04-26T09:57:09.731Z</time></trkpt><trkpt lat="42.552497" lon="12.8632684"><ele>921.0</ele><time>2026-04-26T09:57:10.731Z</time></trkpt><trkpt lat="42.5524374" lon="12.8631128"><ele>912.75</ele><time>2026-04-26T09:57:11.731Z</time></trkpt><trkpt lat="42.5523813" lon="12.8629589"><ele>904.5</ele><time>2026-04-26T09:57:12.731Z</time></trkpt><trkpt lat="42.5523289" lon="12.8628107"><ele>896.25</ele><time>2026-04-26T09:57:13.732Z</time></trkpt><trkpt lat="42.5522808" lon="12.862669"><ele>888.0</ele><time>2026-04-26T09:57:14.731Z</time></trkpt><trkpt lat="42.552244" lon="12.8625291"><ele>885.8</ele><time>2026-04-26T09:57:15.732Z</time></trkpt><trkpt lat="42.5522189" lon="12.8623906"><ele>883.5999999999999</ele><time>2026-04-26T09:57:16.73Z</time></trkpt><trkpt lat="42.5521892" lon="12.8622626"><ele>881.4000000000001</ele><time>2026-04-26T09:57:17.731Z</time></trkpt><trkpt lat="42.5521277" lon="12.8621561"><ele>879.2</ele><time>2026-04-26T09:57:18.73Z</time></trkpt><trkpt lat="42.5520373" lon="12.8620858"><ele>877.0</ele><time>2026-04-26T09:57:19.731Z</time></trkpt><trkpt lat="42.5519252" lon="12.8620747"><ele>877.0</ele><time>2026-04-26T09:57:20.731Z</time></trkpt><trkpt lat="42.5518181" lon="12.8621072"><ele>877.0</ele><time>2026-04-26T09:57:21.732Z</time></trkpt><trkpt lat="42.5517138" lon="12.862179"><ele>877.0</ele><time>2026-04-26T09:57:22.732Z</time></trkpt><trkpt lat="42.5516072" lon="12.8622668"><ele>877.0</ele><time>2026-04-26T09:57:23.73Z</time></trkpt><trkpt lat="42.5514981" lon="12.8623618"><ele>877.0</ele><time>2026-04-26T09:57:24.731Z</time></trkpt><trkpt lat="42.5513888" lon="12.8624541"><ele>877.0</ele><time>2026-04-26T09:57:25.731Z</time></trkpt><trkpt lat="42.5512801" lon="12.862537"><ele>877.0</ele><time>2026-04-26T09:57:26.732Z</time></trkpt><trkpt lat="42.5511798" lon="12.8626168"><ele>877.0</ele><time>2026-04-26T09:57:27.732Z</time></trkpt><trkpt lat="42.5510917" lon="12.8626695"><ele>876.9999999999999</ele><time>2026-04-26T09:57:28.731Z</time></trkpt><trkpt lat="42.5510027" lon="12.8627053"><ele>877.0</ele><time>2026-04-26T09:57:29.732Z</time></trkpt><trkpt lat="42.55092" lon="12.8626795"><ele>877.0</ele><time>2026-04-26T09:57:30.731Z</time></trkpt><trkpt lat="42.550857" lon="12.8626158"><ele>877.0</ele><time>2026-04-26T09:57:31.731Z</time></trkpt><trkpt lat="42.5508225" lon="12.8625165"><ele>876.9999999999999</ele><time>2026-04-26T09:57:32.732Z</time></trkpt><trkpt lat="42.5508173" lon="12.8623827"><ele>877.0</ele><time>2026-04-26T09:57:33.732Z</time></trkpt><trkpt lat="42.5508373" lon="12.8621983"><ele>877.0</ele><time>2026-04-26T09:57:34.731Z</time></trkpt><trkpt lat="42.5508714" lon="12.8619526"><ele>877.0</ele><time>2026-04-26T09:57:35.731Z</time></trkpt><trkpt lat="42.5509199" lon="12.8616952"><ele>877.0</ele><time>2026-04-26T09:57:36.731Z</time></trkpt><trkpt lat="42.5509762" lon="12.8614501"><ele>875.6666666666666</ele><time>2026-04-26T09:57:37.731Z</time></trkpt><trkpt lat="42.5510339" lon="12.8612189"><ele>874.3333333333333</ele><time>2026-04-26T09:57:38.731Z</time></trkpt><trkpt lat="42.5510623" lon="12.8610035"><ele>873.0</ele><time>2026-04-26T09:57:39.731Z</time></trkpt><trkpt lat="42.551066" lon="12.8607984"><ele>871.6666666666667</ele><time>2026-04-26T09:57:40.73Z</time></trkpt><trkpt lat="42.5510277" lon="12.8605994"><ele>870.3333333333334</ele><time>2026-04-26T09:57:41.732Z</time></trkpt><trkpt lat="42.5509584" lon="12.8604136"><ele>869.0</ele><time>2026-04-26T09:57:42.731Z</time></trkpt><trkpt lat="42.5508856" lon="12.860237"><ele>860.6666666666667</ele><time>2026-04-26T09:57:43.73Z</time></trkpt><trkpt lat="42.5507823" lon="12.8600803"><ele>852.3333333333333</ele><time>2026-04-26T09:57:44.73Z</time></trkpt><trkpt lat="42.5506798" lon="12.8599177"><ele>844.0</ele><time>2026-04-26T09:57:45.729Z</time></trkpt><trkpt lat="42.5505702" lon="12.8597786"><ele>844.0</ele><time>2026-04-26T09:57:46.729Z</time></trkpt><trkpt lat="42.5504632" lon="12.859647"><ele>844.0</ele><time>2026-04-26T09:57:47.729Z</time></trkpt><trkpt lat="42.5503541" lon="12.8595378"><ele>844.0</ele><time>2026-04-26T09:57:48.729Z</time></trkpt><trkpt lat="42.5502411" lon="12.859456"><ele>844.0</ele><time>2026-04-26T09:57:49.731Z</time></trkpt><trkpt lat="42.5501084" lon="12.859409"><ele>850.25</ele><time>2026-04-26T09:57:50.731Z</time></trkpt><trkpt lat="42.5499744" lon="12.8593919"><ele>856.5</ele><time>2026-04-26T09:57:51.731Z</time></trkpt><trkpt lat="42.5498405" lon="12.8593871"><ele>862.75</ele><time>2026-04-26T09:57:52.729Z</time></trkpt><trkpt lat="42.5497016" lon="12.8593942"><ele>869.0</ele><time>2026-04-26T09:57:53.731Z</time></trkpt><trkpt lat="42.5495595" lon="12.8594137"><ele>870.25</ele><time>2026-04-26T09:57:54.73Z</time></trkpt><trkpt lat="42.5494132" lon="12.859431"><ele>871.5</ele><time>2026-04-26T09:57:55.731Z</time></trkpt><trkpt lat="42.5492747" lon="12.8594371"><ele>872.75</ele><time>2026-04-26T09:57:56.731Z</time></trkpt><trkpt lat="42.5491412" lon="12.8594456"><ele>874.0</ele><time>2026-04-26T09:57:57.729Z</time></trkpt><trkpt lat="42.5490117" lon="12.859459"><ele>874.0</ele><time>2026-04-26T09:57:58.73Z</time></trkpt><trkpt lat="42.5488943" lon="12.8594711"><ele>874.0000000000001</ele><time>2026-04-26T09:57:59.73Z</time></trkpt><trkpt lat="42.5487883" lon="12.8594757"><ele>874.0000000000001</ele><time>2026-04-26T09:58:00.731Z</time></trkpt><trkpt lat="42.5486906" lon="12.8594577"><ele>874.0</ele><time>2026-04-26T09:58:01.73Z</time></trkpt><trkpt lat="42.5486082" lon="12.8594025"><ele>874.0</ele><time>2026-04-26T09:58:02.731Z</time></trkpt><trkpt lat="42.5485452" lon="12.8593108"><ele>871.5</ele><time>2026-04-26T09:58:03.731Z</time></trkpt><trkpt lat="42.5485105" lon="12.8591949"><ele>869.0</ele><time>2026-04-26T09:58:04.73Z</time></trkpt><trkpt lat="42.5484935" lon="12.8590615"><ele>866.5</ele><time>2026-04-26T09:58:05.73Z</time></trkpt><trkpt lat="42.5485319" lon="12.858897"><ele>864.0</ele><time>2026-04-26T09:58:06.731Z</time></trkpt><trkpt lat="42.548572" lon="12.8587182"><ele>864.0</ele><time>2026-04-26T09:58:07.73Z</time></trkpt><trkpt lat="42.5486222" lon="12.8585337"><ele>864.0</ele><time>2026-04-26T09:58:08.729Z</time></trkpt><trkpt lat="42.548672" lon="12.8583566"><ele>864.0</ele><time>2026-04-26T09:58:09.73Z</time></trkpt><trkpt lat="42.5487132" lon="12.8581845"><ele>864.0</ele><time>2026-04-26T09:58:10.731Z</time></trkpt><trkpt lat="42.5487349" lon="12.8580272"><ele>862.25</ele><time>2026-04-26T09:58:11.73Z</time></trkpt><trkpt lat="42.5487165" lon="12.8578766"><ele>860.5</ele><time>2026-04-26T09:58:12.729Z</time></trkpt><trkpt lat="42.5486493" lon="12.857736"><ele>858.75</ele><time>2026-04-26T09:58:13.731Z</time></trkpt><trkpt lat="42.5485398" lon="12.8576048"><ele>857.0</ele><time>2026-04-26T09:58:14.73Z</time></trkpt><trkpt lat="42.5484081" lon="12.8574838"><ele>851.0</ele><time>2026-04-26T09:58:15.73Z</time></trkpt><trkpt lat="42.5482795" lon="12.8573641"><ele>845.0</ele><time>2026-04-26T09:58:16.73Z</time></trkpt><trkpt lat="42.5481678" lon="12.8572329"><ele>839.0</ele><time>2026-04-26T09:58:17.729Z</time></trkpt><trkpt lat="42.5480923" lon="12.8570521"><ele>839.0</ele><time>2026-04-26T09:58:18.73Z</time></trkpt><trkpt lat="42.5480542" lon="12.8568494"><ele>839.0</ele><time>2026-04-26T09:58:19.73Z</time></trkpt><trkpt lat="42.5480153" lon="12.8566428"><ele>839.0</ele><time>2026-04-26T09:58:20.73Z</time></trkpt><trkpt lat="42.5479318" lon="12.856426"><ele>840.3333333333334</ele><time>2026-04-26T09:58:21.73Z</time></trkpt><trkpt lat="42.5478315" lon="12.8562324"><ele>841.6666666666667</ele><time>2026-04-26T09:58:22.73Z</time></trkpt><trkpt lat="42.5477358" lon="12.8560679"><ele>843.0</ele><time>2026-04-26T09:58:23.731Z</time></trkpt><trkpt lat="42.54765" lon="12.8559299"><ele>843.0</ele><time>2026-04-26T09:58:24.731Z</time></trkpt><trkpt lat="42.5475423" lon="12.8558612"><ele>843.0</ele><time>2026-04-26T09:58:25.73Z</time></trkpt><trkpt lat="42.5474213" lon="12.8558569"><ele>843.0</ele><time>2026-04-26T09:58:26.73Z</time></trkpt><trkpt lat="42.5472891" lon="12.855917"><ele>843.0</ele><time>2026-04-26T09:58:27.729Z</time></trkpt><trkpt lat="42.5471473" lon="12.8559826"><ele>845.5</ele><time>2026-04-26T09:58:28.73Z</time></trkpt><trkpt lat="42.5470024" lon="12.8560118"><ele>848.0</ele><time>2026-04-26T09:58:29.73Z</time></trkpt><trkpt lat="42.546859" lon="12.8559989"><ele>850.5</ele><time>2026-04-26T09:58:30.729Z</time></trkpt><trkpt lat="42.5467128" lon="12.8559299"><ele>853.0</ele><time>2026-04-26T09:58:31.731Z</time></trkpt><trkpt lat="42.5465618" lon="12.8558126"><ele>849.3333333333333</ele><time>2026-04-26T09:58:32.729Z</time></trkpt><trkpt lat="42.5464157" lon="12.8556583"><ele>845.6666666666667</ele><time>2026-04-26T09:58:33.731Z</time></trkpt><trkpt lat="42.5462743" lon="12.8554928"><ele>842.0</ele><time>2026-04-26T09:58:34.731Z</time></trkpt><trkpt lat="42.5461438" lon="12.8553178"><ele>842.0</ele><time>2026-04-26T09:58:35.73Z</time></trkpt><trkpt lat="42.5460249" lon="12.8551295"><ele>842.0</ele><time>2026-04-26T09:58:36.73Z</time></trkpt><trkpt lat="42.5459226" lon="12.8549236"><ele>842.0</ele><time>2026-04-26T09:58:37.731Z</time></trkpt><trkpt lat="42.5458359" lon="12.8547102"><ele>835.6666666666667</ele><time>2026-04-26T09:58:38.73Z</time></trkpt><trkpt lat="42.5457357" lon="12.8544924"><ele>829.3333333333333</ele><time>2026-04-26T09:58:39.731Z</time></trkpt><trkpt lat="42.5456087" lon="12.8543087"><ele>823.0</ele><time>2026-04-26T09:58:40.73Z</time></trkpt><trkpt lat="42.5454825" lon="12.8541356"><ele>825.3333333333333</ele><time>2026-04-26T09:58:41.729Z</time></trkpt><trkpt lat="42.5453646" lon="12.8539724"><ele>827.6666666666667</ele><time>2026-04-26T09:58:42.73Z</time></trkpt><trkpt lat="42.54526" lon="12.8538207"><ele>830.0</ele><time>2026-04-26T09:58:43.73Z</time></trkpt><trkpt lat="42.5451595" lon="12.8536848"><ele>830.0</ele><time>2026-04-26T09:58:44.731Z</time></trkpt><trkpt lat="42.5450301" lon="12.8535872"><ele>830.0</ele><time>2026-04-26T09:58:45.731Z</time></trkpt><trkpt lat="42.5448643" lon="12.8535277"><ele>830.0</ele><time>2026-04-26T09:58:46.73Z</time></trkpt><trkpt lat="42.5446771" lon="12.8534826"><ele>821.0</ele><time>2026-04-26T09:58:47.731Z</time></trkpt><trkpt lat="42.5444776" lon="12.8534247"><ele>812.0</ele><time>2026-04-26T09:58:48.73Z</time></trkpt><trkpt lat="42.5442792" lon="12.8533649"><ele>803.0</ele><time>2026-04-26T09:58:49.729Z</time></trkpt><trkpt lat="42.5440803" lon="12.8533141"><ele>803.0</ele><time>2026-04-26T09:58:50.729Z</time></trkpt><trkpt lat="42.5438887" lon="12.8532677"><ele>803.0</ele><time>2026-04-26T09:58:51.73Z</time></trkpt><trkpt lat="42.54371" lon="12.8532281"><ele>803.0</ele><time>2026-04-26T09:58:52.73Z</time></trkpt><trkpt lat="42.5435536" lon="12.8531865"><ele>808.0</ele><time>2026-04-26T09:58:53.731Z</time></trkpt><trkpt lat="42.5434036" lon="12.8531325"><ele>813.0</ele><time>2026-04-26T09:58:54.73Z</time></trkpt><trkpt lat="42.5432648" lon="12.8530375"><ele>818.0</ele><time>2026-04-26T09:58:55.731Z</time></trkpt><trkpt lat="42.5431303" lon="12.8528918"><ele>818.0</ele><time>2026-04-26T09:58:56.73Z</time></trkpt><trkpt lat="42.5429965" lon="12.8527173"><ele>818.0</ele><time>2026-04-26T09:58:57.731Z</time></trkpt><trkpt lat="42.5428611" lon="12.8525289"><ele>818.0</ele><time>2026-04-26T09:58:58.73Z</time></trkpt><trkpt lat="42.5427302" lon="12.8523211"><ele>817.0</ele><time>2026-04-26T09:58:59.73Z</time></trkpt><trkpt lat="42.5426103" lon="12.8520954"><ele>816.0</ele><time>2026-04-26T09:59:00.73Z</time></trkpt><trkpt lat="42.5424991" lon="12.8518652"><ele>815.0</ele><time>2026-04-26T09:59:01.729Z</time></trkpt><trkpt lat="42.5423904" lon="12.8516392"><ele>807.3333333333334</ele><time>2026-04-26T09:59:02.73Z</time></trkpt><trkpt lat="42.5422812" lon="12.851422"><ele>799.6666666666667</ele><time>2026-04-26T09:59:03.729Z</time></trkpt><trkpt lat="42.5421679" lon="12.8512208"><ele>792.0</ele><time>2026-04-26T09:59:04.729Z</time></trkpt><trkpt lat="42.5420501" lon="12.8510337"><ele>791.6666666666667</ele><time>2026-04-26T09:59:05.73Z</time></trkpt><trkpt lat="42.541926" lon="12.8508665"><ele>791.3333333333334</ele><time>2026-04-26T09:59:06.73Z</time></trkpt><trkpt lat="42.5417916" lon="12.8507141"><ele>791.0</ele><time>2026-04-26T09:59:07.729Z</time></trkpt><trkpt lat="42.5416296" lon="12.8505948"><ele>791.0</ele><time>2026-04-26T09:59:08.73Z</time></trkpt><trkpt lat="42.5414577" lon="12.8504939"><ele>791.0</ele><time>2026-04-26T09:59:09.73Z</time></trkpt><trkpt lat="42.5412818" lon="12.8504047"><ele>791.0</ele><time>2026-04-26T09:59:10.729Z</time></trkpt><trkpt lat="42.5411071" lon="12.8503211"><ele>788.6666666666667</ele><time>2026-04-26T09:59:11.729Z</time></trkpt><trkpt lat="42.5409475" lon="12.8502357"><ele>786.3333333333333</ele><time>2026-04-26T09:59:12.729Z</time></trkpt><trkpt lat="42.5407944" lon="12.8501346"><ele>784.0</ele><time>2026-04-26T09:59:13.73Z</time></trkpt><trkpt lat="42.5406589" lon="12.8499973"><ele>784.0</ele><time>2026-04-26T09:59:14.73Z</time></trkpt><trkpt lat="42.5405335" lon="12.8498511"><ele>784.0</ele><time>2026-04-26T09:59:15.729Z</time></trkpt><trkpt lat="42.5404144" lon="12.8497012"><ele>784.0</ele><time>2026-04-26T09:59:16.729Z</time></trkpt><trkpt lat="42.5402984" lon="12.8495586"><ele>788.6666666666666</ele><time>2026-04-26T09:59:17.73Z</time></trkpt><trkpt lat="42.540171" lon="12.8494449"><ele>793.3333333333333</ele><time>2026-04-26T09:59:18.73Z</time></trkpt><trkpt lat="42.540003" lon="12.8493829"><ele>798.0</ele><time>2026-04-26T09:59:19.731Z</time></trkpt><trkpt lat="42.5398466" lon="12.8493423"><ele>798.0</ele><time>2026-04-26T09:59:20.731Z</time></trkpt><trkpt lat="42.5397014" lon="12.8493473"><ele>798.0</ele><time>2026-04-26T09:59:21.731Z</time></trkpt><trkpt lat="42.539571" lon="12.8493881"><ele>798.0</ele><time>2026-04-26T09:59:22.73Z</time></trkpt><trkpt lat="42.5394449" lon="12.8494589"><ele>798.0</ele><time>2026-04-26T09:59:23.73Z</time></trkpt><trkpt lat="42.5393407" lon="12.849634"><ele>792.0</ele><time>2026-04-26T09:59:24.73Z</time></trkpt><trkpt lat="42.5392571" lon="12.84983"><ele>786.0</ele><time>2026-04-26T09:59:25.73Z</time></trkpt><trkpt lat="42.5391922" lon="12.8500624"><ele>780.0</ele><time>2026-04-26T09:59:26.729Z</time></trkpt><trkpt lat="42.539143" lon="12.8503152"><ele>780.0</ele><time>2026-04-26T09:59:27.729Z</time></trkpt><trkpt lat="42.5390872" lon="12.8505707"><ele>780.0</ele><time>2026-04-26T09:59:28.73Z</time></trkpt><trkpt lat="42.5390096" lon="12.850828"><ele>780.0</ele><time>2026-04-26T09:59:29.73Z</time></trkpt><trkpt lat="42.5389193" lon="12.8510839"><ele>785.0</ele><time>2026-04-26T09:59:30.73Z</time></trkpt><trkpt lat="42.5388254" lon="12.8513426"><ele>790.0</ele><time>2026-04-26T09:59:31.729Z</time></trkpt><trkpt lat="42.5387274" lon="12.8515961"><ele>795.0</ele><time>2026-04-26T09:59:32.73Z</time></trkpt><trkpt lat="42.5386389" lon="12.8518513"><ele>785.6666666666666</ele><time>2026-04-26T09:59:33.729Z</time></trkpt><trkpt lat="42.5385612" lon="12.852116"><ele>776.3333333333333</ele><time>2026-04-26T09:59:34.73Z</time></trkpt><trkpt lat="42.5384968" lon="12.8523827"><ele>767.0</ele><time>2026-04-26T09:59:35.729Z</time></trkpt><trkpt lat="42.5384407" lon="12.8526432"><ele>767.0</ele><time>2026-04-26T09:59:36.729Z</time></trkpt><trkpt lat="42.5383991" lon="12.852885"><ele>767.0</ele><time>2026-04-26T09:59:37.729Z</time></trkpt><trkpt lat="42.5383588" lon="12.8531099"><ele>767.0</ele><time>2026-04-26T09:59:38.729Z</time></trkpt><trkpt lat="42.5383227" lon="12.8533067"><ele>772.25</ele><time>2026-04-26T09:59:39.731Z</time></trkpt><trkpt lat="42.5382706" lon="12.8534844"><ele>777.5</ele><time>2026-04-26T09:59:40.731Z</time></trkpt><trkpt lat="42.5381868" lon="12.853645"><ele>782.75</ele><time>2026-04-26T09:59:41.73Z</time></trkpt><trkpt lat="42.5380706" lon="12.8537724"><ele>788.0</ele><time>2026-04-26T09:59:42.729Z</time></trkpt><trkpt lat="42.5379443" lon="12.8538913"><ele>777.3333333333334</ele><time>2026-04-26T09:59:43.731Z</time></trkpt><trkpt lat="42.5378296" lon="12.8540582"><ele>766.6666666666667</ele><time>2026-04-26T09:59:44.731Z</time></trkpt><trkpt lat="42.5377297" lon="12.8542513"><ele>756.0</ele><time>2026-04-26T09:59:45.73Z</time></trkpt><trkpt lat="42.5376272" lon="12.8544486"><ele>756.0</ele><time>2026-04-26T09:59:46.73Z</time></trkpt><trkpt lat="42.5375795" lon="12.8546462"><ele>756.0</ele><time>2026-04-26T09:59:47.73Z</time></trkpt><trkpt lat="42.5375345" lon="12.8548444"><ele>756.0</ele><time>2026-04-26T09:59:48.73Z</time></trkpt><trkpt lat="42.5374963" lon="12.8550165"><ele>756.0</ele><time>2026-04-26T09:59:49.73Z</time></trkpt><trkpt lat="42.5374231" lon="12.8551628"><ele>764.3333333333333</ele><time>2026-04-26T09:59:50.731Z</time></trkpt><trkpt lat="42.5373134" lon="12.8552858"><ele>772.6666666666666</ele><time>2026-04-26T09:59:51.729Z</time></trkpt><trkpt lat="42.5372" lon="12.8554369"><ele>781.0</ele><time>2026-04-26T09:59:52.73Z</time></trkpt><trkpt lat="42.5370921" lon="12.8556032"><ele>771.3333333333333</ele><time>2026-04-26T09:59:53.731Z</time></trkpt><trkpt lat="42.5369831" lon="12.8557727"><ele>761.6666666666666</ele><time>2026-04-26T09:59:54.729Z</time></trkpt><trkpt lat="42.5368866" lon="12.8559463"><ele>752.0</ele><time>2026-04-26T09:59:55.73Z</time></trkpt><trkpt lat="42.5367963" lon="12.8561188"><ele>752.0</ele><time>2026-04-26T09:59:56.729Z</time></trkpt><trkpt lat="42.5367374" lon="12.8562947"><ele>752.0</ele><time>2026-04-26T09:59:57.73Z</time></trkpt><trkpt lat="42.5367495" lon="12.8565003"><ele>752.0</ele><time>2026-04-26T09:59:58.729Z</time></trkpt><trkpt lat="42.5366831" lon="12.8566757"><ele>752.0</ele><time>2026-04-26T09:59:59.731Z</time></trkpt><trkpt lat="42.536595" lon="12.8568359"><ele>757.25</ele><time>2026-04-26T10:00:00.73Z</time></trkpt><trkpt lat="42.5365098" lon="12.856996"><ele>762.5</ele><time>2026-04-26T10:00:01.73Z</time></trkpt><trkpt lat="42.5364251" lon="12.8571245"><ele>767.75</ele><time>2026-04-26T10:00:02.73Z</time></trkpt><trkpt lat="42.5363312" lon="12.8572345"><ele>773.0</ele><time>2026-04-26T10:00:03.729Z</time></trkpt><trkpt lat="42.5362261" lon="12.8573125"><ele>771.2</ele><time>2026-04-26T10:00:04.73Z</time></trkpt><trkpt lat="42.5361102" lon="12.8573509"><ele>769.4</ele><time>2026-04-26T10:00:05.731Z</time></trkpt><trkpt lat="42.5360139" lon="12.8573625"><ele>767.6</ele><time>2026-04-26T10:00:06.731Z</time></trkpt><trkpt lat="42.5359354" lon="12.8573367"><ele>765.8000000000001</ele><time>2026-04-26T10:00:07.729Z</time></trkpt><trkpt lat="42.5358809" lon="12.8572585"><ele>764.0</ele><time>2026-04-26T10:00:08.73Z</time></trkpt><trkpt lat="42.5358656" lon="12.8571564"><ele>764.0</ele><time>2026-04-26T10:00:09.729Z</time></trkpt><trkpt lat="42.5358953" lon="12.8570366"><ele>764.0</ele><time>2026-04-26T10:00:10.73Z</time></trkpt><trkpt lat="42.5359155" lon="12.8569126"><ele>764.0</ele><time>2026-04-26T10:00:11.73Z</time></trkpt><trkpt lat="42.5359444" lon="12.8567664"><ele>764.0</ele><time>2026-04-26T10:00:12.729Z</time></trkpt><trkpt lat="42.53597" lon="12.8565432"><ele>762.6666666666666</ele><time>2026-04-26T10:00:13.73Z</time></trkpt><trkpt lat="42.5358682" lon="12.8562854"><ele>761.3333333333334</ele><time>2026-04-26T10:00:14.731Z</time></trkpt><trkpt lat="42.5358472" lon="12.8560564"><ele>760.0</ele><time>2026-04-26T10:00:15.731Z</time></trkpt><trkpt lat="42.5358196" lon="12.855828"><ele>760.0</ele><time>2026-04-26T10:00:16.731Z</time></trkpt><trkpt lat="42.5358357" lon="12.8556154"><ele>760.0</ele><time>2026-04-26T10:00:17.73Z</time></trkpt><trkpt lat="42.5358671" lon="12.8553972"><ele>760.0</ele><time>2026-04-26T10:00:18.73Z</time></trkpt><trkpt lat="42.535901" lon="12.8551625"><ele>760.0</ele><time>2026-04-26T10:00:19.729Z</time></trkpt><trkpt lat="42.5359397" lon="12.8549231"><ele>760.0</ele><time>2026-04-26T10:00:20.729Z</time></trkpt><trkpt lat="42.5359306" lon="12.8546136"><ele>760.0</ele><time>2026-04-26T10:00:21.73Z</time></trkpt><trkpt lat="42.5359297" lon="12.8543354"><ele>761.6666666666667</ele><time>2026-04-26T10:00:22.731Z</time></trkpt><trkpt lat="42.535926" lon="12.854046"><ele>763.3333333333334</ele><time>2026-04-26T10:00:23.731Z</time></trkpt><trkpt lat="42.5359292" lon="12.8537584"><ele>765.0</ele><time>2026-04-26T10:00:24.73Z</time></trkpt><trkpt lat="42.5359475" lon="12.8534859"><ele>764.3333333333334</ele><time>2026-04-26T10:00:25.73Z</time></trkpt><trkpt lat="42.5359652" lon="12.8532086"><ele>763.6666666666667</ele><time>2026-04-26T10:00:26.73Z</time></trkpt><trkpt lat="42.5359543" lon="12.852921"><ele>763.0</ele><time>2026-04-26T10:00:27.73Z</time></trkpt><trkpt lat="42.5359323" lon="12.852633"><ele>761.0</ele><time>2026-04-26T10:00:28.731Z</time></trkpt><trkpt lat="42.5359139" lon="12.8523578"><ele>759.0</ele><time>2026-04-26T10:00:29.729Z</time></trkpt><trkpt lat="42.5359076" lon="12.8520943"><ele>757.0</ele><time>2026-04-26T10:00:30.729Z</time></trkpt><trkpt lat="42.5359039" lon="12.8518486"><ele>756.3333333333334</ele><time>2026-04-26T10:00:31.73Z</time></trkpt><trkpt lat="42.5358935" lon="12.8516165"><ele>755.6666666666666</ele><time>2026-04-26T10:00:32.73Z</time></trkpt><trkpt lat="42.5358549" lon="12.8513824"><ele>755.0</ele><time>2026-04-26T10:00:33.731Z</time></trkpt><trkpt lat="42.5357985" lon="12.8511547"><ele>753.0</ele><time>2026-04-26T10:00:34.73Z</time></trkpt><trkpt lat="42.5357563" lon="12.8509156"><ele>751.0</ele><time>2026-04-26T10:00:35.73Z</time></trkpt><trkpt lat="42.5357266" lon="12.8506586"><ele>749.0</ele><time>2026-04-26T10:00:36.729Z</time></trkpt><trkpt lat="42.5357108" lon="12.8503901"><ele>748.0</ele><time>2026-04-26T10:00:37.729Z</time></trkpt><trkpt lat="42.535707" lon="12.8501175"><ele>747.0</ele><time>2026-04-26T10:00:38.729Z</time></trkpt><trkpt lat="42.5357009" lon="12.8498438"><ele>746.0</ele><time>2026-04-26T10:00:39.73Z</time></trkpt><trkpt lat="42.5356859" lon="12.8495674"><ele>746.0</ele><time>2026-04-26T10:00:40.73Z</time></trkpt><trkpt lat="42.5356502" lon="12.8493005"><ele>746.0</ele><time>2026-04-26T10:00:41.729Z</time></trkpt><trkpt lat="42.535608" lon="12.8490351"><ele>746.0</ele><time>2026-04-26T10:00:42.729Z</time></trkpt><trkpt lat="42.5355651" lon="12.8487787"><ele>743.3333333333333</ele><time>2026-04-26T10:00:43.729Z</time></trkpt><trkpt lat="42.535531" lon="12.8485374"><ele>740.6666666666666</ele><time>2026-04-26T10:00:44.73Z</time></trkpt><trkpt lat="42.5355109" lon="12.8482988"><ele>738.0</ele><time>2026-04-26T10:00:45.73Z</time></trkpt><trkpt lat="42.5355096" lon="12.8480553"><ele>736.3333333333334</ele><time>2026-04-26T10:00:46.73Z</time></trkpt><trkpt lat="42.535529" lon="12.8478016"><ele>734.6666666666667</ele><time>2026-04-26T10:00:47.729Z</time></trkpt><trkpt lat="42.535553" lon="12.8475561"><ele>733.0</ele><time>2026-04-26T10:00:48.729Z</time></trkpt><trkpt lat="42.5355784" lon="12.8473248"><ele>733.0</ele><time>2026-04-26T10:00:49.729Z</time></trkpt><trkpt lat="42.5356055" lon="12.8471028"><ele>733.0</ele><time>2026-04-26T10:00:50.729Z</time></trkpt><trkpt lat="42.5356361" lon="12.8468792"><ele>733.0</ele><time>2026-04-26T10:00:51.729Z</time></trkpt><trkpt lat="42.5356495" lon="12.8466488"><ele>734.6666666666667</ele><time>2026-04-26T10:00:52.728Z</time></trkpt><trkpt lat="42.5356314" lon="12.8464137"><ele>736.3333333333334</ele><time>2026-04-26T10:00:53.729Z</time></trkpt><trkpt lat="42.5356035" lon="12.846177"><ele>738.0</ele><time>2026-04-26T10:00:54.729Z</time></trkpt><trkpt lat="42.5356011" lon="12.845943"><ele>738.0</ele><time>2026-04-26T10:00:55.729Z</time></trkpt><trkpt lat="42.5356139" lon="12.8457211"><ele>738.0</ele><time>2026-04-26T10:00:56.728Z</time></trkpt><trkpt lat="42.5356258" lon="12.8455162"><ele>738.0</ele><time>2026-04-26T10:00:57.728Z</time></trkpt><trkpt lat="42.5356367" lon="12.8453426"><ele>738.0</ele><time>2026-04-26T10:00:58.73Z</time></trkpt><trkpt lat="42.5356406" lon="12.845189"><ele>737.0</ele><time>2026-04-26T10:00:59.728Z</time></trkpt><trkpt lat="42.5356121" lon="12.8450605"><ele>736.0</ele><time>2026-04-26T10:01:00.728Z</time></trkpt><trkpt lat="42.5355407" lon="12.8449739"><ele>735.0</ele><time>2026-04-26T10:01:01.73Z</time></trkpt><trkpt lat="42.5354432" lon="12.8449228"><ele>734.0</ele><time>2026-04-26T10:01:02.729Z</time></trkpt><trkpt lat="42.5352926" lon="12.8449356"><ele>738.0</ele><time>2026-04-26T10:01:03.729Z</time></trkpt><trkpt lat="42.5351313" lon="12.8449571"><ele>742.0</ele><time>2026-04-26T10:01:04.729Z</time></trkpt><trkpt lat="42.5349524" lon="12.845017"><ele>746.0</ele><time>2026-04-26T10:01:05.729Z</time></trkpt><trkpt lat="42.5347696" lon="12.845128"><ele>752.3333333333333</ele><time>2026-04-26T10:01:06.728Z</time></trkpt><trkpt lat="42.5345879" lon="12.8452448"><ele>758.6666666666666</ele><time>2026-04-26T10:01:07.73Z</time></trkpt><trkpt lat="42.5344051" lon="12.8453432"><ele>765.0</ele><time>2026-04-26T10:01:08.73Z</time></trkpt><trkpt lat="42.5342356" lon="12.8454381"><ele>765.0</ele><time>2026-04-26T10:01:09.729Z</time></trkpt><trkpt lat="42.5340715" lon="12.8455254"><ele>765.0</ele><time>2026-04-26T10:01:10.73Z</time></trkpt><trkpt lat="42.5339214" lon="12.8456037"><ele>765.0</ele><time>2026-04-26T10:01:11.73Z</time></trkpt><trkpt lat="42.5337816" lon="12.8456586"><ele>764.5</ele><time>2026-04-26T10:01:12.73Z</time></trkpt><trkpt lat="42.5336461" lon="12.8456615"><ele>764.0</ele><time>2026-04-26T10:01:13.729Z</time></trkpt><trkpt lat="42.5335094" lon="12.8456138"><ele>763.5</ele><time>2026-04-26T10:01:14.73Z</time></trkpt><trkpt lat="42.5333689" lon="12.8455178"><ele>763.0</ele><time>2026-04-26T10:01:15.73Z</time></trkpt><trkpt lat="42.5332173" lon="12.8454023"><ele>763.0</ele><time>2026-04-26T10:01:16.73Z</time></trkpt><trkpt lat="42.5330636" lon="12.8452816"><ele>763.0</ele><time>2026-04-26T10:01:17.729Z</time></trkpt><trkpt lat="42.532915" lon="12.8451375"><ele>763.0</ele><time>2026-04-26T10:01:18.728Z</time></trkpt><trkpt lat="42.5327752" lon="12.8449578"><ele>765.0</ele><time>2026-04-26T10:01:19.729Z</time></trkpt><trkpt lat="42.5326435" lon="12.8447553"><ele>767.0</ele><time>2026-04-26T10:01:20.73Z</time></trkpt><trkpt lat="42.5325088" lon="12.8445497"><ele>769.0</ele><time>2026-04-26T10:01:21.729Z</time></trkpt><trkpt lat="42.5323781" lon="12.8443569"><ele>762.3333333333333</ele><time>2026-04-26T10:01:22.73Z</time></trkpt><trkpt lat="42.5322613" lon="12.8441664"><ele>755.6666666666666</ele><time>2026-04-26T10:01:23.728Z</time></trkpt><trkpt lat="42.5321701" lon="12.8439676"><ele>749.0</ele><time>2026-04-26T10:01:24.728Z</time></trkpt><trkpt lat="42.5321099" lon="12.8437409"><ele>749.0</ele><time>2026-04-26T10:01:25.729Z</time></trkpt><trkpt lat="42.5320783" lon="12.8435182"><ele>749.0</ele><time>2026-04-26T10:01:26.729Z</time></trkpt><trkpt lat="42.5320347" lon="12.8432933"><ele>749.0</ele><time>2026-04-26T10:01:27.729Z</time></trkpt><trkpt lat="42.5319569" lon="12.8430822"><ele>755.0</ele><time>2026-04-26T10:01:28.729Z</time></trkpt><trkpt lat="42.5318683" lon="12.8429035"><ele>761.0</ele><time>2026-04-26T10:01:29.73Z</time></trkpt><trkpt lat="42.5317557" lon="12.8427759"><ele>767.0</ele><time>2026-04-26T10:01:30.729Z</time></trkpt><trkpt lat="42.5316105" lon="12.8426866"><ele>767.0</ele><time>2026-04-26T10:01:31.73Z</time></trkpt><trkpt lat="42.5314449" lon="12.8426346"><ele>767.0</ele><time>2026-04-26T10:01:32.73Z</time></trkpt><trkpt lat="42.5312721" lon="12.842628"><ele>767.0</ele><time>2026-04-26T10:01:33.73Z</time></trkpt><trkpt lat="42.5310902" lon="12.8426719"><ele>771.3333333333333</ele><time>2026-04-26T10:01:34.73Z</time></trkpt><trkpt lat="42.5309172" lon="12.8427593"><ele>775.6666666666666</ele><time>2026-04-26T10:01:35.728Z</time></trkpt><trkpt lat="42.5307544" lon="12.8428527"><ele>780.0</ele><time>2026-04-26T10:01:36.729Z</time></trkpt><trkpt lat="42.5305948" lon="12.842911"><ele>780.0</ele><time>2026-04-26T10:01:37.728Z</time></trkpt><trkpt lat="42.5304288" lon="12.8429214"><ele>780.0</ele><time>2026-04-26T10:01:38.728Z</time></trkpt><trkpt lat="42.5302727" lon="12.8428856"><ele>780.0</ele><time>2026-04-26T10:01:39.729Z</time></trkpt><trkpt lat="42.5301338" lon="12.84283"><ele>778.3333333333333</ele><time>2026-04-26T10:01:40.729Z</time></trkpt><trkpt lat="42.5299912" lon="12.8428162"><ele>776.6666666666666</ele><time>2026-04-26T10:01:41.73Z</time></trkpt><trkpt lat="42.52984" lon="12.8428548"><ele>775.0</ele><time>2026-04-26T10:01:42.729Z</time></trkpt><trkpt lat="42.5296892" lon="12.8429388"><ele>769.3333333333333</ele><time>2026-04-26T10:01:43.73Z</time></trkpt><trkpt lat="42.5295401" lon="12.8430569"><ele>763.6666666666666</ele><time>2026-04-26T10:01:44.73Z</time></trkpt><trkpt lat="42.5294097" lon="12.8432077"><ele>758.0</ele><time>2026-04-26T10:01:45.73Z</time></trkpt><trkpt lat="42.5293148" lon="12.8433861"><ele>762.5</ele><time>2026-04-26T10:01:46.73Z</time></trkpt><trkpt lat="42.5292282" lon="12.8435654"><ele>767.0</ele><time>2026-04-26T10:01:47.73Z</time></trkpt><trkpt lat="42.5291533" lon="12.843722"><ele>771.5</ele><time>2026-04-26T10:01:48.73Z</time></trkpt><trkpt lat="42.5290929" lon="12.8438542"><ele>776.0</ele><time>2026-04-26T10:01:49.729Z</time></trkpt><trkpt lat="42.529027" lon="12.8439527"><ele>776.0000000000001</ele><time>2026-04-26T10:01:50.73Z</time></trkpt><trkpt lat="42.5289512" lon="12.8439996"><ele>776.0</ele><time>2026-04-26T10:01:51.728Z</time></trkpt><trkpt lat="42.5288755" lon="12.8439827"><ele>776.0</ele><time>2026-04-26T10:01:52.73Z</time></trkpt><trkpt lat="42.528821" lon="12.8439198"><ele>776.0</ele><time>2026-04-26T10:01:53.73Z</time></trkpt><trkpt lat="42.5288045" lon="12.8438172"><ele>776.0000000000001</ele><time>2026-04-26T10:01:54.729Z</time></trkpt><trkpt lat="42.5288211" lon="12.8436763"><ele>776.0</ele><time>2026-04-26T10:01:55.73Z</time></trkpt><trkpt lat="42.5288517" lon="12.8434857"><ele>770.0</ele><time>2026-04-26T10:01:56.729Z</time></trkpt><trkpt lat="42.5288642" lon="12.8432584"><ele>764.0</ele><time>2026-04-26T10:01:57.728Z</time></trkpt><trkpt lat="42.528878" lon="12.8430071"><ele>758.0</ele><time>2026-04-26T10:01:58.73Z</time></trkpt><trkpt lat="42.5288917" lon="12.8427629"><ele>753.3333333333333</ele><time>2026-04-26T10:01:59.729Z</time></trkpt><trkpt lat="42.5288894" lon="12.8425154"><ele>748.6666666666666</ele><time>2026-04-26T10:02:00.73Z</time></trkpt><trkpt lat="42.5288528" lon="12.8422687"><ele>744.0</ele><time>2026-04-26T10:02:01.73Z</time></trkpt><trkpt lat="42.5287854" lon="12.842019"><ele>753.0</ele><time>2026-04-26T10:02:02.729Z</time></trkpt><trkpt lat="42.5287084" lon="12.8417832"><ele>762.0</ele><time>2026-04-26T10:02:03.729Z</time></trkpt><trkpt lat="42.528616" lon="12.8415614"><ele>771.0</ele><time>2026-04-26T10:02:04.73Z</time></trkpt><trkpt lat="42.5285043" lon="12.8413617"><ele>771.0</ele><time>2026-04-26T10:02:05.729Z</time></trkpt><trkpt lat="42.5283693" lon="12.8411821"><ele>771.0</ele><time>2026-04-26T10:02:06.73Z</time></trkpt><trkpt lat="42.5282335" lon="12.8410298"><ele>771.0</ele><time>2026-04-26T10:02:07.729Z</time></trkpt><trkpt lat="42.5281023" lon="12.8409106"><ele>763.0</ele><time>2026-04-26T10:02:08.73Z</time></trkpt><trkpt lat="42.5279865" lon="12.84082"><ele>755.0</ele><time>2026-04-26T10:02:09.729Z</time></trkpt><trkpt lat="42.5278688" lon="12.8407848"><ele>747.0</ele><time>2026-04-26T10:02:10.73Z</time></trkpt><trkpt lat="42.5277651" lon="12.8408076"><ele>739.0</ele><time>2026-04-26T10:02:11.73Z</time></trkpt><trkpt lat="42.5276719" lon="12.8409166"><ele>743.6666666666667</ele><time>2026-04-26T10:02:12.73Z</time></trkpt><trkpt lat="42.5276002" lon="12.8410858"><ele>748.3333333333334</ele><time>2026-04-26T10:02:13.73Z</time></trkpt><trkpt lat="42.5275549" lon="12.8413082"><ele>753.0</ele><time>2026-04-26T10:02:14.73Z</time></trkpt><trkpt lat="42.5275436" lon="12.8415485"><ele>753.0</ele><time>2026-04-26T10:02:15.729Z</time></trkpt><trkpt lat="42.5275378" lon="12.8417816"><ele>753.0</ele><time>2026-04-26T10:02:16.729Z</time></trkpt><trkpt lat="42.5275113" lon="12.8420052"><ele>753.0</ele><time>2026-04-26T10:02:17.729Z</time></trkpt><trkpt lat="42.5274599" lon="12.8422148"><ele>756.6666666666666</ele><time>2026-04-26T10:02:18.73Z</time></trkpt><trkpt lat="42.5273737" lon="12.842415"><ele>760.3333333333333</ele><time>2026-04-26T10:02:19.73Z</time></trkpt><trkpt lat="42.5272797" lon="12.8426"><ele>764.0</ele><time>2026-04-26T10:02:20.73Z</time></trkpt><trkpt lat="42.5271943" lon="12.8427742"><ele>764.25</ele><time>2026-04-26T10:02:21.729Z</time></trkpt><trkpt lat="42.5270977" lon="12.8429199"><ele>764.5</ele><time>2026-04-26T10:02:22.73Z</time></trkpt><trkpt lat="42.5269773" lon="12.8430301"><ele>764.75</ele><time>2026-04-26T10:02:23.73Z</time></trkpt><trkpt lat="42.5268449" lon="12.8431124"><ele>765.0</ele><time>2026-04-26T10:02:24.728Z</time></trkpt><trkpt lat="42.5267271" lon="12.8431705"><ele>765.0</ele><time>2026-04-26T10:02:25.728Z</time></trkpt><trkpt lat="42.5266124" lon="12.8431865"><ele>765.0</ele><time>2026-04-26T10:02:26.73Z</time></trkpt><trkpt lat="42.5265136" lon="12.8431553"><ele>765.0</ele><time>2026-04-26T10:02:27.729Z</time></trkpt><trkpt lat="42.5264338" lon="12.8430797"><ele>765.0</ele><time>2026-04-26T10:02:28.729Z</time></trkpt><trkpt lat="42.5263677" lon="12.8429542"><ele>765.0</ele><time>2026-04-26T10:02:29.729Z</time></trkpt><trkpt lat="42.5263261" lon="12.8427881"><ele>767.3333333333333</ele><time>2026-04-26T10:02:30.729Z</time></trkpt><trkpt lat="42.526293" lon="12.8425877"><ele>769.6666666666666</ele><time>2026-04-26T10:02:31.729Z</time></trkpt><trkpt lat="42.5262331" lon="12.8423753"><ele>772.0</ele><time>2026-04-26T10:02:32.728Z</time></trkpt><trkpt lat="42.5261408" lon="12.8421738"><ele>772.0</ele><time>2026-04-26T10:02:33.728Z</time></trkpt><trkpt lat="42.5260223" lon="12.8419656"><ele>772.0</ele><time>2026-04-26T10:02:34.73Z</time></trkpt><trkpt lat="42.5259064" lon="12.8417614"><ele>772.0</ele><time>2026-04-26T10:02:35.73Z</time></trkpt><trkpt lat="42.5258012" lon="12.8415568"><ele>765.6666666666666</ele><time>2026-04-26T10:02:36.728Z</time></trkpt><trkpt lat="42.5257021" lon="12.8413588"><ele>759.3333333333333</ele><time>2026-04-26T10:02:37.73Z</time></trkpt><trkpt lat="42.525619" lon="12.8411695"><ele>753.0</ele><time>2026-04-26T10:02:38.729Z</time></trkpt><trkpt lat="42.5255395" lon="12.8410037"><ele>752.0</ele><time>2026-04-26T10:02:39.729Z</time></trkpt><trkpt lat="42.5254445" lon="12.8408819"><ele>751.0</ele><time>2026-04-26T10:02:40.728Z</time></trkpt><trkpt lat="42.5253152" lon="12.8408213"><ele>750.0</ele><time>2026-04-26T10:02:41.73Z</time></trkpt><trkpt lat="42.5251638" lon="12.8408146"><ele>749.0</ele><time>2026-04-26T10:02:42.73Z</time></trkpt><trkpt lat="42.5249878" lon="12.8408455"><ele>749.0</ele><time>2026-04-26T10:02:43.729Z</time></trkpt><trkpt lat="42.5247973" lon="12.8408907"><ele>749.0</ele><time>2026-04-26T10:02:44.73Z</time></trkpt><trkpt lat="42.5246009" lon="12.8409374"><ele>749.0</ele><time>2026-04-26T10:02:45.729Z</time></trkpt><trkpt lat="42.524407" lon="12.8409838"><ele>752.3333333333333</ele><time>2026-04-26T10:02:46.729Z</time></trkpt><trkpt lat="42.5242227" lon="12.8410307"><ele>755.6666666666666</ele><time>2026-04-26T10:02:47.73Z</time></trkpt><trkpt lat="42.524034" lon="12.8410817"><ele>759.0</ele><time>2026-04-26T10:02:48.728Z</time></trkpt><trkpt lat="42.5238519" lon="12.8411297"><ele>757.3333333333334</ele><time>2026-04-26T10:02:49.729Z</time></trkpt><trkpt lat="42.523676" lon="12.8411744"><ele>755.6666666666667</ele><time>2026-04-26T10:02:50.729Z</time></trkpt><trkpt lat="42.5235045" lon="12.8412137"><ele>754.0</ele><time>2026-04-26T10:02:51.729Z</time></trkpt><trkpt lat="42.5233363" lon="12.8412401"><ele>754.0</ele><time>2026-04-26T10:02:52.728Z</time></trkpt><trkpt lat="42.5231655" lon="12.8412424"><ele>754.0</ele><time>2026-04-26T10:02:53.729Z</time></trkpt><trkpt lat="42.5229862" lon="12.841215"><ele>754.0</ele><time>2026-04-26T10:02:54.729Z</time></trkpt><trkpt lat="42.5228154" lon="12.8411689"><ele>754.0</ele><time>2026-04-26T10:02:55.729Z</time></trkpt><trkpt lat="42.522651" lon="12.8410913"><ele>754.0</ele><time>2026-04-26T10:02:56.729Z</time></trkpt><trkpt lat="42.5225017" lon="12.8409843"><ele>754.0</ele><time>2026-04-26T10:02:57.728Z</time></trkpt><trkpt lat="42.5223742" lon="12.8408639"><ele>753.5</ele><time>2026-04-26T10:02:58.729Z</time></trkpt><trkpt lat="42.5222651" lon="12.8407307"><ele>753.0</ele><time>2026-04-26T10:02:59.729Z</time></trkpt><trkpt lat="42.5221766" lon="12.8405999"><ele>752.5</ele><time>2026-04-26T10:03:00.728Z</time></trkpt><trkpt lat="42.5221157" lon="12.8404781"><ele>752.0</ele><time>2026-04-26T10:03:01.728Z</time></trkpt><trkpt lat="42.522061" lon="12.8403695"><ele>752.0</ele><time>2026-04-26T10:03:02.729Z</time></trkpt><trkpt lat="42.5220186" lon="12.8402791"><ele>752.0</ele><time>2026-04-26T10:03:03.73Z</time></trkpt><trkpt lat="42.5219827" lon="12.8402019"><ele>752.0</ele><time>2026-04-26T10:03:04.729Z</time></trkpt><trkpt lat="42.5218978" lon="12.8401324"><ele>752.0</ele><time>2026-04-26T10:03:06.728Z</time></trkpt><trkpt lat="42.5217987" lon="12.840159"><ele>752.0</ele><time>2026-04-26T10:03:08.729Z</time></trkpt><trkpt lat="42.5217251" lon="12.840211"><ele>752.0</ele><time>2026-04-26T10:03:09.729Z</time></trkpt><trkpt lat="42.5216398" lon="12.8402721"><ele>752.0</ele><time>2026-04-26T10:03:10.728Z</time></trkpt><trkpt lat="42.521544" lon="12.8403442"><ele>752.0</ele><time>2026-04-26T10:03:11.73Z</time></trkpt><trkpt lat="42.5214401" lon="12.8403887"><ele>752.0</ele><time>2026-04-26T10:03:12.73Z</time></trkpt><trkpt lat="42.5213107" lon="12.8403888"><ele>752.0</ele><time>2026-04-26T10:03:13.729Z</time></trkpt><trkpt lat="42.521169" lon="12.8403519"><ele>751.0</ele><time>2026-04-26T10:03:14.729Z</time></trkpt><trkpt lat="42.5210236" lon="12.8402932"><ele>750.0</ele><time>2026-04-26T10:03:15.73Z</time></trkpt><trkpt lat="42.520872" lon="12.8402334"><ele>749.0</ele><time>2026-04-26T10:03:16.729Z</time></trkpt><trkpt lat="42.5207223" lon="12.8401689"><ele>746.5</ele><time>2026-04-26T10:03:17.73Z</time></trkpt><trkpt lat="42.5205783" lon="12.8401118"><ele>744.0</ele><time>2026-04-26T10:03:18.728Z</time></trkpt><trkpt lat="42.5204434" lon="12.8400585"><ele>741.5</ele><time>2026-04-26T10:03:19.729Z</time></trkpt><trkpt lat="42.5203217" lon="12.8400091"><ele>739.0</ele><time>2026-04-26T10:03:20.729Z</time></trkpt><trkpt lat="42.5202108" lon="12.8399576"><ele>738.4000000000001</ele><time>2026-04-26T10:03:21.729Z</time></trkpt><trkpt lat="42.5200977" lon="12.8399238"><ele>737.8</ele><time>2026-04-26T10:03:22.729Z</time></trkpt><trkpt lat="42.5199848" lon="12.8399368"><ele>737.2</ele><time>2026-04-26T10:03:23.728Z</time></trkpt><trkpt lat="42.5198879" lon="12.840001"><ele>736.5999999999999</ele><time>2026-04-26T10:03:24.73Z</time></trkpt><trkpt lat="42.5198212" lon="12.8400998"><ele>736.0</ele><time>2026-04-26T10:03:25.73Z</time></trkpt><trkpt lat="42.5197964" lon="12.8402124"><ele>736.0</ele><time>2026-04-26T10:03:26.728Z</time></trkpt><trkpt lat="42.5197992" lon="12.8403364"><ele>736.0</ele><time>2026-04-26T10:03:27.729Z</time></trkpt><trkpt lat="42.5198265" lon="12.8404649"><ele>736.0</ele><time>2026-04-26T10:03:28.728Z</time></trkpt><trkpt lat="42.5198635" lon="12.8405858"><ele>736.0</ele><time>2026-04-26T10:03:29.729Z</time></trkpt><trkpt lat="42.5199048" lon="12.8407026"><ele>736.0</ele><time>2026-04-26T10:03:30.729Z</time></trkpt><trkpt lat="42.519943" lon="12.8408291"><ele>736.0</ele><time>2026-04-26T10:03:31.728Z</time></trkpt><trkpt lat="42.5199843" lon="12.84096"><ele>736.0</ele><time>2026-04-26T10:03:32.728Z</time></trkpt><trkpt lat="42.5200274" lon="12.8411013"><ele>736.0</ele><time>2026-04-26T10:03:33.728Z</time></trkpt><trkpt lat="42.5200548" lon="12.8412548"><ele>736.0</ele><time>2026-04-26T10:03:34.729Z</time></trkpt><trkpt lat="42.5200567" lon="12.8414202"><ele>736.5</ele><time>2026-04-26T10:03:35.729Z</time></trkpt><trkpt lat="42.5200295" lon="12.8415766"><ele>737.0</ele><time>2026-04-26T10:03:36.729Z</time></trkpt><trkpt lat="42.5199724" lon="12.8417235"><ele>737.5</ele><time>2026-04-26T10:03:37.728Z</time></trkpt><trkpt lat="42.5198881" lon="12.8418493"><ele>738.0</ele><time>2026-04-26T10:03:38.727Z</time></trkpt><trkpt lat="42.5197869" lon="12.8419415"><ele>739.5</ele><time>2026-04-26T10:03:39.728Z</time></trkpt><trkpt lat="42.5196822" lon="12.8420145"><ele>741.0</ele><time>2026-04-26T10:03:40.729Z</time></trkpt><trkpt lat="42.5195811" lon="12.8421093"><ele>742.5</ele><time>2026-04-26T10:03:41.728Z</time></trkpt><trkpt lat="42.5195032" lon="12.8422188"><ele>744.0</ele><time>2026-04-26T10:03:42.728Z</time></trkpt><trkpt lat="42.5194433" lon="12.8423474"><ele>739.0</ele><time>2026-04-26T10:03:43.727Z</time></trkpt><trkpt lat="42.519413" lon="12.8424968"><ele>734.0</ele><time>2026-04-26T10:03:44.729Z</time></trkpt><trkpt lat="42.5194215" lon="12.8426516"><ele>729.0</ele><time>2026-04-26T10:03:45.729Z</time></trkpt><trkpt lat="42.519459" lon="12.8427938"><ele>724.0</ele><time>2026-04-26T10:03:46.729Z</time></trkpt><trkpt lat="42.5195089" lon="12.8429276"><ele>722.25</ele><time>2026-04-26T10:03:47.728Z</time></trkpt><trkpt lat="42.519557" lon="12.843057"><ele>720.5</ele><time>2026-04-26T10:03:48.727Z</time></trkpt><trkpt lat="42.5196074" lon="12.8431875"><ele>718.75</ele><time>2026-04-26T10:03:49.727Z</time></trkpt><trkpt lat="42.5196525" lon="12.843327"><ele>717.0</ele><time>2026-04-26T10:03:50.729Z</time></trkpt><trkpt lat="42.5196858" lon="12.8435016"><ele>723.3333333333334</ele><time>2026-04-26T10:03:51.728Z</time></trkpt><trkpt lat="42.5197179" lon="12.8437093"><ele>729.6666666666667</ele><time>2026-04-26T10:03:52.728Z</time></trkpt><trkpt lat="42.5197491" lon="12.8439544"><ele>736.0</ele><time>2026-04-26T10:03:53.729Z</time></trkpt><trkpt lat="42.5197638" lon="12.8442417"><ele>736.0</ele><time>2026-04-26T10:03:54.729Z</time></trkpt><trkpt lat="42.5197661" lon="12.8445286"><ele>736.0</ele><time>2026-04-26T10:03:55.727Z</time></trkpt><trkpt lat="42.5197653" lon="12.8448026"><ele>736.0</ele><time>2026-04-26T10:03:56.727Z</time></trkpt><trkpt lat="42.5197609" lon="12.8450641"><ele>737.0</ele><time>2026-04-26T10:03:57.729Z</time></trkpt><trkpt lat="42.5197512" lon="12.8453111"><ele>738.0</ele><time>2026-04-26T10:03:58.728Z</time></trkpt><trkpt lat="42.5197438" lon="12.8455511"><ele>739.0</ele><time>2026-04-26T10:03:59.728Z</time></trkpt><trkpt lat="42.5197321" lon="12.8457708"><ele>739.0</ele><time>2026-04-26T10:04:00.729Z</time></trkpt><trkpt lat="42.5197154" lon="12.8459799"><ele>739.0</ele><time>2026-04-26T10:04:01.729Z</time></trkpt><trkpt lat="42.5197038" lon="12.8461832"><ele>739.0</ele><time>2026-04-26T10:04:02.729Z</time></trkpt><trkpt lat="42.5196957" lon="12.8463726"><ele>739.0</ele><time>2026-04-26T10:04:03.727Z</time></trkpt><trkpt lat="42.5196953" lon="12.8465569"><ele>739.0</ele><time>2026-04-26T10:04:04.728Z</time></trkpt><trkpt lat="42.5197033" lon="12.8467365"><ele>739.0</ele><time>2026-04-26T10:04:05.727Z</time></trkpt><trkpt lat="42.5197197" lon="12.8469121"><ele>739.0</ele><time>2026-04-26T10:04:06.728Z</time></trkpt><trkpt lat="42.5197303" lon="12.8470912"><ele>739.0</ele><time>2026-04-26T10:04:07.727Z</time></trkpt><trkpt lat="42.5197179" lon="12.8472808"><ele>738.3333333333334</ele><time>2026-04-26T10:04:08.727Z</time></trkpt><trkpt lat="42.5196933" lon="12.847478"><ele>737.6666666666666</ele><time>2026-04-26T10:04:09.728Z</time></trkpt><trkpt lat="42.5196668" lon="12.8476868"><ele>737.0</ele><time>2026-04-26T10:04:10.729Z</time></trkpt><trkpt lat="42.5196577" lon="12.8478954"><ele>736.0</ele><time>2026-04-26T10:04:11.728Z</time></trkpt><trkpt lat="42.5196552" lon="12.8480921"><ele>735.0</ele><time>2026-04-26T10:04:12.728Z</time></trkpt><trkpt lat="42.5196531" lon="12.8482638"><ele>734.0</ele><time>2026-04-26T10:04:13.728Z</time></trkpt><trkpt lat="42.5196446" lon="12.8484138"><ele>733.0</ele><time>2026-04-26T10:04:14.729Z</time></trkpt><trkpt lat="42.5196213" lon="12.8485284"><ele>732.0</ele><time>2026-04-26T10:04:15.727Z</time></trkpt><trkpt lat="42.5195746" lon="12.8486085"><ele>731.0</ele><time>2026-04-26T10:04:16.728Z</time></trkpt><trkpt lat="42.5195051" lon="12.8486365"><ele>730.0</ele><time>2026-04-26T10:04:17.728Z</time></trkpt><trkpt lat="42.5194284" lon="12.8486121"><ele>729.0</ele><time>2026-04-26T10:04:18.727Z</time></trkpt><trkpt lat="42.5193738" lon="12.8485392"><ele>728.0</ele><time>2026-04-26T10:04:19.729Z</time></trkpt><trkpt lat="42.5193484" lon="12.8484379"><ele>727.0</ele><time>2026-04-26T10:04:20.729Z</time></trkpt><trkpt lat="42.5193459" lon="12.8483045"><ele>722.4000000000001</ele><time>2026-04-26T10:04:21.729Z</time></trkpt><trkpt lat="42.5193258" lon="12.8481651"><ele>717.8000000000001</ele><time>2026-04-26T10:04:22.728Z</time></trkpt><trkpt lat="42.5192731" lon="12.8480363"><ele>713.2</ele><time>2026-04-26T10:04:23.728Z</time></trkpt><trkpt lat="42.5191922" lon="12.8479314"><ele>708.6</ele><time>2026-04-26T10:04:24.727Z</time></trkpt><trkpt lat="42.5190889" lon="12.8478753"><ele>704.0</ele><time>2026-04-26T10:04:25.728Z</time></trkpt><trkpt lat="42.5189605" lon="12.8478593"><ele>704.0</ele><time>2026-04-26T10:04:26.727Z</time></trkpt><trkpt lat="42.5188195" lon="12.8478713"><ele>704.0</ele><time>2026-04-26T10:04:27.728Z</time></trkpt><trkpt lat="42.5186773" lon="12.8478816"><ele>704.0</ele><time>2026-04-26T10:04:28.728Z</time></trkpt><trkpt lat="42.518535" lon="12.8478912"><ele>704.0</ele><time>2026-04-26T10:04:29.727Z</time></trkpt><trkpt lat="42.5183985" lon="12.8479109"><ele>701.0</ele><time>2026-04-26T10:04:30.728Z</time></trkpt><trkpt lat="42.5182681" lon="12.8479351"><ele>698.0</ele><time>2026-04-26T10:04:31.728Z</time></trkpt><trkpt lat="42.5181407" lon="12.8479518"><ele>695.0</ele><time>2026-04-26T10:04:32.728Z</time></trkpt><trkpt lat="42.5180225" lon="12.8479568"><ele>692.0</ele><time>2026-04-26T10:04:33.727Z</time></trkpt><trkpt lat="42.5179148" lon="12.8479379"><ele>691.0</ele><time>2026-04-26T10:04:34.729Z</time></trkpt><trkpt lat="42.5178194" lon="12.8478784"><ele>690.0</ele><time>2026-04-26T10:04:35.729Z</time></trkpt><trkpt lat="42.5177496" lon="12.8477789"><ele>689.0</ele><time>2026-04-26T10:04:36.728Z</time></trkpt><trkpt lat="42.5177099" lon="12.8476467"><ele>688.0</ele><time>2026-04-26T10:04:37.729Z</time></trkpt><trkpt lat="42.5176964" lon="12.8474804"><ele>687.0</ele><time>2026-04-26T10:04:38.727Z</time></trkpt><trkpt lat="42.5176937" lon="12.8472943"><ele>687.0</ele><time>2026-04-26T10:04:39.727Z</time></trkpt><trkpt lat="42.5176867" lon="12.8471102"><ele>687.0</ele><time>2026-04-26T10:04:40.729Z</time></trkpt><trkpt lat="42.5176594" lon="12.8469337"><ele>687.0</ele><time>2026-04-26T10:04:41.728Z</time></trkpt><trkpt lat="42.5176003" lon="12.8467631"><ele>687.0</ele><time>2026-04-26T10:04:42.729Z</time></trkpt><trkpt lat="42.5175" lon="12.8466063"><ele>687.75</ele><time>2026-04-26T10:04:43.729Z</time></trkpt><trkpt lat="42.5173967" lon="12.8464659"><ele>688.5</ele><time>2026-04-26T10:04:44.728Z</time></trkpt><trkpt lat="42.5172836" lon="12.8463421"><ele>689.25</ele><time>2026-04-26T10:04:45.728Z</time></trkpt><trkpt lat="42.5171505" lon="12.846262"><ele>690.0</ele><time>2026-04-26T10:04:46.727Z</time></trkpt><trkpt lat="42.5170082" lon="12.8462188"><ele>686.25</ele><time>2026-04-26T10:04:47.728Z</time></trkpt><trkpt lat="42.516866" lon="12.8461898"><ele>682.5</ele><time>2026-04-26T10:04:48.729Z</time></trkpt><trkpt lat="42.516729" lon="12.8461702"><ele>678.75</ele><time>2026-04-26T10:04:49.728Z</time></trkpt><trkpt lat="42.5166004" lon="12.8461509"><ele>675.0</ele><time>2026-04-26T10:04:50.728Z</time></trkpt><trkpt lat="42.516485" lon="12.8461239"><ele>675.0</ele><time>2026-04-26T10:04:51.729Z</time></trkpt><trkpt lat="42.5163796" lon="12.8460766"><ele>675.0</ele><time>2026-04-26T10:04:52.729Z</time></trkpt><trkpt lat="42.5162732" lon="12.846007"><ele>675.0</ele><time>2026-04-26T10:04:53.727Z</time></trkpt><trkpt lat="42.5161779" lon="12.8459136"><ele>675.0</ele><time>2026-04-26T10:04:54.728Z</time></trkpt><trkpt lat="42.5160903" lon="12.8458082"><ele>674.8</ele><time>2026-04-26T10:04:55.728Z</time></trkpt><trkpt lat="42.516009" lon="12.8456932"><ele>674.6</ele><time>2026-04-26T10:04:56.728Z</time></trkpt><trkpt lat="42.515941" lon="12.8455697"><ele>674.4000000000001</ele><time>2026-04-26T10:04:57.727Z</time></trkpt><trkpt lat="42.5158973" lon="12.8454319"><ele>674.2</ele><time>2026-04-26T10:04:58.727Z</time></trkpt><trkpt lat="42.5158602" lon="12.8452947"><ele>674.0</ele><time>2026-04-26T10:04:59.728Z</time></trkpt><trkpt lat="42.5158327" lon="12.8451594"><ele>673.8000000000001</ele><time>2026-04-26T10:05:00.728Z</time></trkpt><trkpt lat="42.5158078" lon="12.8450341"><ele>673.6</ele><time>2026-04-26T10:05:01.727Z</time></trkpt><trkpt lat="42.5157656" lon="12.8449133"><ele>673.4</ele><time>2026-04-26T10:05:02.727Z</time></trkpt><trkpt lat="42.5157167" lon="12.8448027"><ele>673.2</ele><time>2026-04-26T10:05:03.727Z</time></trkpt><trkpt lat="42.5156667" lon="12.844695"><ele>673.0</ele><time>2026-04-26T10:05:04.727Z</time></trkpt><trkpt lat="42.5156122" lon="12.8445947"><ele>673.0</ele><time>2026-04-26T10:05:05.727Z</time></trkpt><trkpt lat="42.5155452" lon="12.844514"><ele>673.0</ele><time>2026-04-26T10:05:06.728Z</time></trkpt><trkpt lat="42.515466" lon="12.8444519"><ele>673.0</ele><time>2026-04-26T10:05:07.729Z</time></trkpt><trkpt lat="42.5153789" lon="12.8444182"><ele>673.0</ele><time>2026-04-26T10:05:08.728Z</time></trkpt><trkpt lat="42.5152823" lon="12.8443935"><ele>673.0</ele><time>2026-04-26T10:05:09.729Z</time></trkpt><trkpt lat="42.5151762" lon="12.8443455"><ele>671.4</ele><time>2026-04-26T10:05:10.728Z</time></trkpt><trkpt lat="42.515068" lon="12.8442814"><ele>669.8</ele><time>2026-04-26T10:05:11.728Z</time></trkpt><trkpt lat="42.5149662" lon="12.8442148"><ele>668.2</ele><time>2026-04-26T10:05:12.729Z</time></trkpt><trkpt lat="42.5148709" lon="12.8441511"><ele>666.6</ele><time>2026-04-26T10:05:13.728Z</time></trkpt><trkpt lat="42.5147817" lon="12.8441104"><ele>665.0</ele><time>2026-04-26T10:05:14.729Z</time></trkpt><trkpt lat="42.5147017" lon="12.8441162"><ele>665.0</ele><time>2026-04-26T10:05:15.728Z</time></trkpt><trkpt lat="42.5146394" lon="12.8441649"><ele>665.0</ele><time>2026-04-26T10:05:16.728Z</time></trkpt><trkpt lat="42.5145913" lon="12.8442493"><ele>665.0</ele><time>2026-04-26T10:05:17.729Z</time></trkpt><trkpt lat="42.5145715" lon="12.8443683"><ele>665.0</ele><time>2026-04-26T10:05:18.728Z</time></trkpt><trkpt lat="42.5145878" lon="12.8444969"><ele>665.0</ele><time>2026-04-26T10:05:19.727Z</time></trkpt><trkpt lat="42.5146241" lon="12.8446331"><ele>665.0</ele><time>2026-04-26T10:05:20.728Z</time></trkpt><trkpt lat="42.5146764" lon="12.8447826"><ele>664.75</ele><time>2026-04-26T10:05:21.728Z</time></trkpt><trkpt lat="42.5147284" lon="12.8449475"><ele>664.5</ele><time>2026-04-26T10:05:22.728Z</time></trkpt><trkpt lat="42.5147863" lon="12.845123"><ele>664.25</ele><time>2026-04-26T10:05:23.728Z</time></trkpt><trkpt lat="42.5148425" lon="12.8453057"><ele>664.0</ele><time>2026-04-26T10:05:24.728Z</time></trkpt><trkpt lat="42.5148886" lon="12.8454828"><ele>662.25</ele><time>2026-04-26T10:05:25.729Z</time></trkpt><trkpt lat="42.5149262" lon="12.8456695"><ele>660.5</ele><time>2026-04-26T10:05:26.728Z</time></trkpt><trkpt lat="42.5149545" lon="12.8458578"><ele>658.75</ele><time>2026-04-26T10:05:27.729Z</time></trkpt><trkpt lat="42.5149838" lon="12.8460417"><ele>657.0</ele><time>2026-04-26T10:05:28.728Z</time></trkpt><trkpt lat="42.5150117" lon="12.8462153"><ele>655.5</ele><time>2026-04-26T10:05:29.727Z</time></trkpt><trkpt lat="42.5150415" lon="12.8463796"><ele>654.0</ele><time>2026-04-26T10:05:30.728Z</time></trkpt><trkpt lat="42.5150946" lon="12.8465326"><ele>652.5</ele><time>2026-04-26T10:05:31.729Z</time></trkpt><trkpt lat="42.5151763" lon="12.8466764"><ele>651.0</ele><time>2026-04-26T10:05:32.728Z</time></trkpt><trkpt lat="42.5152714" lon="12.8468127"><ele>650.25</ele><time>2026-04-26T10:05:33.729Z</time></trkpt><trkpt lat="42.5153712" lon="12.8469561"><ele>649.5</ele><time>2026-04-26T10:05:34.728Z</time></trkpt><trkpt lat="42.5154786" lon="12.8470987"><ele>648.75</ele><time>2026-04-26T10:05:35.728Z</time></trkpt><trkpt lat="42.5155822" lon="12.8472334"><ele>648.0</ele><time>2026-04-26T10:05:36.729Z</time></trkpt><trkpt lat="42.5156879" lon="12.847366"><ele>648.0</ele><time>2026-04-26T10:05:37.727Z</time></trkpt><trkpt lat="42.5157924" lon="12.8474878"><ele>648.0</ele><time>2026-04-26T10:05:38.727Z</time></trkpt><trkpt lat="42.5159063" lon="12.8475856"><ele>648.0</ele><time>2026-04-26T10:05:39.729Z</time></trkpt><trkpt lat="42.5160207" lon="12.8476623"><ele>648.0</ele><time>2026-04-26T10:05:40.728Z</time></trkpt><trkpt lat="42.5161268" lon="12.8477332"><ele>650.0</ele><time>2026-04-26T10:05:41.728Z</time></trkpt><trkpt lat="42.5162198" lon="12.847813"><ele>652.0</ele><time>2026-04-26T10:05:42.728Z</time></trkpt><trkpt lat="42.5162919" lon="12.8479123"><ele>654.0</ele><time>2026-04-26T10:05:43.727Z</time></trkpt><trkpt lat="42.5163325" lon="12.8480321"><ele>656.0</ele><time>2026-04-26T10:05:44.727Z</time></trkpt><trkpt lat="42.5163362" lon="12.8481549"><ele>658.0</ele><time>2026-04-26T10:05:45.729Z</time></trkpt><trkpt lat="42.516302" lon="12.8482846"><ele>654.0</ele><time>2026-04-26T10:05:46.729Z</time></trkpt><trkpt lat="42.5162318" lon="12.8484175"><ele>650.0</ele><time>2026-04-26T10:05:47.729Z</time></trkpt><trkpt lat="42.5161358" lon="12.8485431"><ele>646.0</ele><time>2026-04-26T10:05:48.728Z</time></trkpt><trkpt lat="42.5160237" lon="12.8486565"><ele>642.0</ele><time>2026-04-26T10:05:49.728Z</time></trkpt><trkpt lat="42.5159136" lon="12.8487573"><ele>642.0</ele><time>2026-04-26T10:05:50.727Z</time></trkpt><trkpt lat="42.5158" lon="12.8488654"><ele>642.0</ele><time>2026-04-26T10:05:51.727Z</time></trkpt><trkpt lat="42.5156926" lon="12.8489865"><ele>642.0</ele><time>2026-04-26T10:05:52.728Z</time></trkpt><trkpt lat="42.5155911" lon="12.8491184"><ele>642.0</ele><time>2026-04-26T10:05:53.727Z</time></trkpt><trkpt lat="42.515507" lon="12.8492878"><ele>645.0</ele><time>2026-04-26T10:05:54.728Z</time></trkpt><trkpt lat="42.5154483" lon="12.8494774"><ele>648.0</ele><time>2026-04-26T10:05:55.729Z</time></trkpt><trkpt lat="42.5154085" lon="12.8496829"><ele>651.0</ele><time>2026-04-26T10:05:56.727Z</time></trkpt><trkpt lat="42.5153788" lon="12.8499"><ele>636.0</ele><time>2026-04-26T10:05:57.728Z</time></trkpt><trkpt lat="42.5153556" lon="12.850125"><ele>621.0</ele><time>2026-04-26T10:05:58.728Z</time></trkpt><trkpt lat="42.5153449" lon="12.8503467"><ele>606.0</ele><time>2026-04-26T10:05:59.728Z</time></trkpt><trkpt lat="42.5153422" lon="12.8505668"><ele>606.0</ele><time>2026-04-26T10:06:00.727Z</time></trkpt><trkpt lat="42.5153403" lon="12.8507751"><ele>606.0</ele><time>2026-04-26T10:06:01.728Z</time></trkpt><trkpt lat="42.5153444" lon="12.8509627"><ele>606.0</ele><time>2026-04-26T10:06:02.727Z</time></trkpt><trkpt lat="42.5153476" lon="12.8511427"><ele>606.0</ele><time>2026-04-26T10:06:03.727Z</time></trkpt><trkpt lat="42.5153505" lon="12.8513013"><ele>604.5</ele><time>2026-04-26T10:06:04.728Z</time></trkpt><trkpt lat="42.5153716" lon="12.8514519"><ele>603.0</ele><time>2026-04-26T10:06:05.727Z</time></trkpt><trkpt lat="42.5154189" lon="12.8515899"><ele>601.5</ele><time>2026-04-26T10:06:06.726Z</time></trkpt><trkpt lat="42.5154985" lon="12.8517054"><ele>600.0</ele><time>2026-04-26T10:06:07.728Z</time></trkpt><trkpt lat="42.5155973" lon="12.8517966"><ele>599.5</ele><time>2026-04-26T10:06:08.728Z</time></trkpt><trkpt lat="42.5157087" lon="12.8518558"><ele>599.0</ele><time>2026-04-26T10:06:09.728Z</time></trkpt><trkpt lat="42.5158417" lon="12.8518755"><ele>598.5</ele><time>2026-04-26T10:06:10.727Z</time></trkpt><trkpt lat="42.5159906" lon="12.8518586"><ele>598.0</ele><time>2026-04-26T10:06:11.727Z</time></trkpt><trkpt lat="42.5161433" lon="12.8518261"><ele>605.3333333333334</ele><time>2026-04-26T10:06:12.727Z</time></trkpt><trkpt lat="42.5162993" lon="12.8517858"><ele>612.6666666666666</ele><time>2026-04-26T10:06:13.727Z</time></trkpt><trkpt lat="42.5164525" lon="12.8517393"><ele>620.0</ele><time>2026-04-26T10:06:14.726Z</time></trkpt><trkpt lat="42.5166016" lon="12.8516782"><ele>620.0</ele><time>2026-04-26T10:06:15.726Z</time></trkpt><trkpt lat="42.5167487" lon="12.8516079"><ele>620.0</ele><time>2026-04-26T10:06:16.726Z</time></trkpt><trkpt lat="42.5168923" lon="12.8515315"><ele>620.0</ele><time>2026-04-26T10:06:17.726Z</time></trkpt><trkpt lat="42.5170297" lon="12.8514433"><ele>616.5</ele><time>2026-04-26T10:06:18.727Z</time></trkpt><trkpt lat="42.5171521" lon="12.8513451"><ele>613.0</ele><time>2026-04-26T10:06:19.726Z</time></trkpt><trkpt lat="42.5172585" lon="12.8512535"><ele>609.5</ele><time>2026-04-26T10:06:20.727Z</time></trkpt><trkpt lat="42.5173522" lon="12.8511801"><ele>606.0</ele><time>2026-04-26T10:06:21.727Z</time></trkpt><trkpt lat="42.5174484" lon="12.8511376"><ele>606.0</ele><time>2026-04-26T10:06:22.728Z</time></trkpt><trkpt lat="42.5175453" lon="12.8511383"><ele>606.0</ele><time>2026-04-26T10:06:23.727Z</time></trkpt><trkpt lat="42.5176226" lon="12.8511807"><ele>606.0</ele><time>2026-04-26T10:06:24.728Z</time></trkpt><trkpt lat="42.5176744" lon="12.8512598"><ele>606.0</ele><time>2026-04-26T10:06:25.728Z</time></trkpt><trkpt lat="42.5176987" lon="12.8513772"><ele>606.0</ele><time>2026-04-26T10:06:26.727Z</time></trkpt><trkpt lat="42.5176952" lon="12.8515288"><ele>606.0</ele><time>2026-04-26T10:06:27.728Z</time></trkpt><trkpt lat="42.5176778" lon="12.8517038"><ele>606.0</ele><time>2026-04-26T10:06:28.727Z</time></trkpt><trkpt lat="42.5176423" lon="12.851891"><ele>606.0</ele><time>2026-04-26T10:06:29.728Z</time></trkpt><trkpt lat="42.5175883" lon="12.85207"><ele>606.0</ele><time>2026-04-26T10:06:30.727Z</time></trkpt><trkpt lat="42.5175222" lon="12.8522388"><ele>604.5</ele><time>2026-04-26T10:06:31.727Z</time></trkpt><trkpt lat="42.517455" lon="12.8523996"><ele>603.0</ele><time>2026-04-26T10:06:32.726Z</time></trkpt><trkpt lat="42.5173955" lon="12.852548"><ele>601.5</ele><time>2026-04-26T10:06:33.727Z</time></trkpt><trkpt lat="42.5173548" lon="12.8527093"><ele>600.0</ele><time>2026-04-26T10:06:34.727Z</time></trkpt><trkpt lat="42.5173422" lon="12.8528744"><ele>597.25</ele><time>2026-04-26T10:06:35.727Z</time></trkpt><trkpt lat="42.5173797" lon="12.8530346"><ele>594.5</ele><time>2026-04-26T10:06:36.727Z</time></trkpt><trkpt lat="42.5174511" lon="12.8531972"><ele>591.75</ele><time>2026-04-26T10:06:37.727Z</time></trkpt><trkpt lat="42.5175414" lon="12.8533633"><ele>589.0</ele><time>2026-04-26T10:06:38.726Z</time></trkpt><trkpt lat="42.517633" lon="12.8535279"><ele>589.6666666666667</ele><time>2026-04-26T10:06:39.726Z</time></trkpt><trkpt lat="42.5177218" lon="12.8536885"><ele>590.3333333333334</ele><time>2026-04-26T10:06:40.728Z</time></trkpt><trkpt lat="42.5178167" lon="12.8538422"><ele>591.0</ele><time>2026-04-26T10:06:41.727Z</time></trkpt><trkpt lat="42.5179317" lon="12.8539813"><ele>591.0</ele><time>2026-04-26T10:06:42.728Z</time></trkpt><trkpt lat="42.5180565" lon="12.8541024"><ele>591.0</ele><time>2026-04-26T10:06:43.727Z</time></trkpt><trkpt lat="42.5181797" lon="12.8542157"><ele>591.0</ele><time>2026-04-26T10:06:44.727Z</time></trkpt><trkpt lat="42.5183102" lon="12.8543053"><ele>591.0</ele><time>2026-04-26T10:06:45.728Z</time></trkpt><trkpt lat="42.5184424" lon="12.8543875"><ele>591.5</ele><time>2026-04-26T10:06:46.726Z</time></trkpt><trkpt lat="42.518573" lon="12.8544079"><ele>592.0</ele><time>2026-04-26T10:06:47.728Z</time></trkpt><trkpt lat="42.5186879" lon="12.8544488"><ele>592.5</ele><time>2026-04-26T10:06:48.726Z</time></trkpt><trkpt lat="42.5187954" lon="12.8544932"><ele>593.0</ele><time>2026-04-26T10:06:49.727Z</time></trkpt><trkpt lat="42.5188819" lon="12.8545275"><ele>593.0</ele><time>2026-04-26T10:06:50.727Z</time></trkpt><trkpt lat="42.5189502" lon="12.8545932"><ele>593.0</ele><time>2026-04-26T10:06:51.727Z</time></trkpt><trkpt lat="42.5189959" lon="12.8546746"><ele>593.0</ele><time>2026-04-26T10:06:52.727Z</time></trkpt><trkpt lat="42.5190045" lon="12.8547795"><ele>593.0</ele><time>2026-04-26T10:06:53.727Z</time></trkpt><trkpt lat="42.5189762" lon="12.8548861"><ele>593.0</ele><time>2026-04-26T10:06:54.728Z</time></trkpt><trkpt lat="42.5189126" lon="12.8549725"><ele>593.0</ele><time>2026-04-26T10:06:55.728Z</time></trkpt><trkpt lat="42.5188141" lon="12.8550258"><ele>589.75</ele><time>2026-04-26T10:06:56.728Z</time></trkpt><trkpt lat="42.5186907" lon="12.8550559"><ele>586.5</ele><time>2026-04-26T10:06:57.728Z</time></trkpt><trkpt lat="42.5185668" lon="12.8550915"><ele>583.25</ele><time>2026-04-26T10:06:58.728Z</time></trkpt><trkpt lat="42.5184469" lon="12.8551523"><ele>580.0</ele><time>2026-04-26T10:06:59.728Z</time></trkpt><trkpt lat="42.5183257" lon="12.8552277"><ele>580.25</ele><time>2026-04-26T10:07:00.727Z</time></trkpt><trkpt lat="42.5182079" lon="12.855298"><ele>580.5</ele><time>2026-04-26T10:07:01.727Z</time></trkpt><trkpt lat="42.5180841" lon="12.8553556"><ele>580.75</ele><time>2026-04-26T10:07:02.727Z</time></trkpt><trkpt lat="42.5179635" lon="12.8553863"><ele>581.0</ele><time>2026-04-26T10:07:03.728Z</time></trkpt><trkpt lat="42.517843" lon="12.8553714"><ele>581.0</ele><time>2026-04-26T10:07:04.728Z</time></trkpt><trkpt lat="42.5177324" lon="12.855305"><ele>581.0</ele><time>2026-04-26T10:07:05.728Z</time></trkpt><trkpt lat="42.5176284" lon="12.8552011"><ele>581.0</ele><time>2026-04-26T10:07:06.726Z</time></trkpt><trkpt lat="42.5175204" lon="12.8550763"><ele>581.0</ele><time>2026-04-26T10:07:07.727Z</time></trkpt><trkpt lat="42.5174132" lon="12.8549487"><ele>578.25</ele><time>2026-04-26T10:07:08.727Z</time></trkpt><trkpt lat="42.5173054" lon="12.8548183"><ele>575.5</ele><time>2026-04-26T10:07:09.728Z</time></trkpt><trkpt lat="42.5171989" lon="12.8546855"><ele>572.75</ele><time>2026-04-26T10:07:10.728Z</time></trkpt><trkpt lat="42.5170903" lon="12.8545618"><ele>570.0</ele><time>2026-04-26T10:07:11.727Z</time></trkpt><trkpt lat="42.5169785" lon="12.8544547"><ele>570.0</ele><time>2026-04-26T10:07:12.727Z</time></trkpt><trkpt lat="42.5168622" lon="12.8543786"><ele>570.0</ele><time>2026-04-26T10:07:13.728Z</time></trkpt><trkpt lat="42.5167359" lon="12.8543435"><ele>570.0</ele><time>2026-04-26T10:07:14.728Z</time></trkpt><trkpt lat="42.5165971" lon="12.8543252"><ele>570.0</ele><time>2026-04-26T10:07:15.728Z</time></trkpt><trkpt lat="42.5164484" lon="12.8543573"><ele>570.0</ele><time>2026-04-26T10:07:16.727Z</time></trkpt><trkpt lat="42.5163053" lon="12.854368"><ele>570.0</ele><time>2026-04-26T10:07:17.727Z</time></trkpt><trkpt lat="42.5161654" lon="12.8543915"><ele>570.0</ele><time>2026-04-26T10:07:18.728Z</time></trkpt><trkpt lat="42.5160252" lon="12.8544256"><ele>570.0</ele><time>2026-04-26T10:07:19.726Z</time></trkpt><trkpt lat="42.515884" lon="12.8544841"><ele>567.25</ele><time>2026-04-26T10:07:20.727Z</time></trkpt><trkpt lat="42.5157451" lon="12.8545664"><ele>564.5</ele><time>2026-04-26T10:07:21.728Z</time></trkpt><trkpt lat="42.5156126" lon="12.8546572"><ele>561.75</ele><time>2026-04-26T10:07:22.727Z</time></trkpt><trkpt lat="42.5154858" lon="12.8547451"><ele>559.0</ele><time>2026-04-26T10:07:23.726Z</time></trkpt><trkpt lat="42.5153614" lon="12.8548217"><ele>556.8</ele><time>2026-04-26T10:07:24.726Z</time></trkpt><trkpt lat="42.5152391" lon="12.8548756"><ele>554.5999999999999</ele><time>2026-04-26T10:07:25.727Z</time></trkpt><trkpt lat="42.5151322" lon="12.8549416"><ele>552.4</ele><time>2026-04-26T10:07:26.727Z</time></trkpt><trkpt lat="42.5150489" lon="12.8550249"><ele>550.1999999999999</ele><time>2026-04-26T10:07:27.727Z</time></trkpt><trkpt lat="42.5149866" lon="12.8551065"><ele>548.0</ele><time>2026-04-26T10:07:28.728Z</time></trkpt><trkpt lat="42.5149358" lon="12.8551676"><ele>548.0</ele><time>2026-04-26T10:07:29.727Z</time></trkpt><trkpt lat="42.5148422" lon="12.8551957"><ele>548.0</ele><time>2026-04-26T10:07:31.727Z</time></trkpt><trkpt lat="42.514752" lon="12.8551682"><ele>548.0</ele><time>2026-04-26T10:07:35.726Z</time></trkpt><trkpt lat="42.5146908" lon="12.855267"><ele>548.0</ele><time>2026-04-26T10:07:37.727Z</time></trkpt><trkpt lat="42.5146322" lon="12.8553867"><ele>548.0</ele><time>2026-04-26T10:07:39.727Z</time></trkpt><trkpt lat="42.5145904" lon="12.8555237"><ele>548.0</ele><time>2026-04-26T10:07:41.726Z</time></trkpt><trkpt lat="42.514655" lon="12.8556266"><ele>548.0</ele><time>2026-04-26T10:07:43.728Z</time></trkpt><trkpt lat="42.5147282" lon="12.855657"><ele>548.0</ele><time>2026-04-26T10:07:44.728Z</time></trkpt><trkpt lat="42.5148111" lon="12.855689"><ele>548.0</ele><time>2026-04-26T10:07:45.728Z</time></trkpt><trkpt lat="42.514899" lon="12.8557302"><ele>548.0</ele><time>2026-04-26T10:07:46.727Z</time></trkpt><trkpt lat="42.5149764" lon="12.8557643"><ele>548.0</ele><time>2026-04-26T10:07:47.727Z</time></trkpt><trkpt lat="42.515053" lon="12.855783"><ele>548.0</ele><time>2026-04-26T10:07:48.728Z</time></trkpt><trkpt lat="42.5151358" lon="12.855779"><ele>548.0</ele><time>2026-04-26T10:07:49.727Z</time></trkpt><trkpt lat="42.5152236" lon="12.8557502"><ele>548.0</ele><time>2026-04-26T10:07:50.727Z</time></trkpt><trkpt lat="42.5153067" lon="12.8557224"><ele>548.0</ele><time>2026-04-26T10:07:51.727Z</time></trkpt><trkpt lat="42.5153859" lon="12.8556902"><ele>548.0</ele><time>2026-04-26T10:07:52.726Z</time></trkpt><trkpt lat="42.5154552" lon="12.8556182"><ele>548.0</ele><time>2026-04-26T10:07:53.726Z</time></trkpt><trkpt lat="42.5155315" lon="12.8555708"><ele>548.6666666666666</ele><time>2026-04-26T10:07:54.727Z</time></trkpt><trkpt lat="42.5156087" lon="12.855542"><ele>549.3333333333333</ele><time>2026-04-26T10:07:55.727Z</time></trkpt><trkpt lat="42.5156771" lon="12.8555203"><ele>550.0</ele><time>2026-04-26T10:07:56.728Z</time></trkpt><trkpt lat="42.5157477" lon="12.855496"><ele>550.6666666666666</ele><time>2026-04-26T10:07:57.726Z</time></trkpt><trkpt lat="42.5158102" lon="12.8554515"><ele>551.3333333333334</ele><time>2026-04-26T10:07:58.728Z</time></trkpt><trkpt lat="42.5158958" lon="12.8553381"><ele>552.0</ele><time>2026-04-26T10:08:00.728Z</time></trkpt><trkpt lat="42.5159489" lon="12.8552384"><ele>552.0</ele><time>2026-04-26T10:08:02.727Z</time></trkpt><trkpt lat="42.5160105" lon="12.8551476"><ele>552.0</ele><time>2026-04-26T10:08:05.727Z</time></trkpt><trkpt lat="42.5160978" lon="12.8551107"><ele>552.0</ele><time>2026-04-26T10:08:07.728Z</time></trkpt><trkpt lat="42.5161983" lon="12.8551403"><ele>552.0</ele><time>2026-04-26T10:08:09.727Z</time></trkpt><trkpt lat="42.5162897" lon="12.8551515"><ele>552.0</ele><time>2026-04-26T10:08:11.727Z</time></trkpt><trkpt lat="42.516348" lon="12.8552001"><ele>552.0</ele><time>2026-04-26T10:08:13.728Z</time></trkpt><trkpt lat="42.5164171" lon="12.8552919"><ele>554.1666666666666</ele><time>2026-04-26T10:08:52.725Z</time></trkpt><trkpt lat="42.5164774" lon="12.8553524"><ele>556.3333333333334</ele><time>2026-04-26T10:08:53.726Z</time></trkpt><trkpt lat="42.5165455" lon="12.8554121"><ele>558.5</ele><time>2026-04-26T10:08:54.727Z</time></trkpt><trkpt lat="42.516621" lon="12.8554807"><ele>560.6666666666667</ele><time>2026-04-26T10:08:55.726Z</time></trkpt><trkpt lat="42.5166921" lon="12.8555667"><ele>562.8333333333334</ele><time>2026-04-26T10:08:56.727Z</time></trkpt><trkpt lat="42.5167645" lon="12.855646"><ele>565.0</ele><time>2026-04-26T10:08:57.726Z</time></trkpt><trkpt lat="42.5168284" lon="12.8557275"><ele>565.0</ele><time>2026-04-26T10:08:58.727Z</time></trkpt><trkpt lat="42.5168869" lon="12.8558024"><ele>565.0</ele><time>2026-04-26T10:08:59.726Z</time></trkpt><trkpt lat="42.5169354" lon="12.8559038"><ele>565.0</ele><time>2026-04-26T10:09:00.726Z</time></trkpt><trkpt lat="42.5169888" lon="12.856011"><ele>565.0</ele><time>2026-04-26T10:09:01.727Z</time></trkpt><trkpt lat="42.5170381" lon="12.8561177"><ele>565.0</ele><time>2026-04-26T10:09:02.726Z</time></trkpt><trkpt lat="42.517083" lon="12.8562206"><ele>565.0</ele><time>2026-04-26T10:09:03.725Z</time></trkpt><trkpt lat="42.5171239" lon="12.8563188"><ele>568.6</ele><time>2026-04-26T10:09:04.726Z</time></trkpt><trkpt lat="42.5171681" lon="12.8564289"><ele>572.2</ele><time>2026-04-26T10:09:05.726Z</time></trkpt><trkpt lat="42.5172124" lon="12.8565616"><ele>575.8</ele><time>2026-04-26T10:09:06.727Z</time></trkpt><trkpt lat="42.5172446" lon="12.8567109"><ele>579.4</ele><time>2026-04-26T10:09:07.726Z</time></trkpt><trkpt lat="42.5172513" lon="12.8568626"><ele>583.0</ele><time>2026-04-26T10:09:08.726Z</time></trkpt><trkpt lat="42.5172305" lon="12.8570131"><ele>583.4</ele><time>2026-04-26T10:09:09.726Z</time></trkpt><trkpt lat="42.5171936" lon="12.8571375"><ele>583.8</ele><time>2026-04-26T10:09:10.725Z</time></trkpt><trkpt lat="42.5171603" lon="12.8572683"><ele>584.2</ele><time>2026-04-26T10:09:11.725Z</time></trkpt><trkpt lat="42.5171376" lon="12.8574082"><ele>584.6</ele><time>2026-04-26T10:09:12.726Z</time></trkpt><trkpt lat="42.517119" lon="12.8575555"><ele>585.0</ele><time>2026-04-26T10:09:13.726Z</time></trkpt><trkpt lat="42.5171099" lon="12.8577122"><ele>585.0</ele><time>2026-04-26T10:09:14.726Z</time></trkpt><trkpt lat="42.5171095" lon="12.8578642"><ele>585.0</ele><time>2026-04-26T10:09:15.727Z</time></trkpt><trkpt lat="42.517108" lon="12.8580134"><ele>585.0</ele><time>2026-04-26T10:09:16.726Z</time></trkpt><trkpt lat="42.5171101" lon="12.8581581"><ele>585.0</ele><time>2026-04-26T10:09:17.725Z</time></trkpt><trkpt lat="42.5171117" lon="12.8583075"><ele>585.0</ele><time>2026-04-26T10:09:18.725Z</time></trkpt><trkpt lat="42.5171218" lon="12.8584704"><ele>584.5</ele><time>2026-04-26T10:09:19.726Z</time></trkpt><trkpt lat="42.5171476" lon="12.8586389"><ele>584.0</ele><time>2026-04-26T10:09:20.726Z</time></trkpt><trkpt lat="42.5171773" lon="12.8587965"><ele>583.5</ele><time>2026-04-26T10:09:21.726Z</time></trkpt><trkpt lat="42.5172034" lon="12.8589432"><ele>583.0</ele><time>2026-04-26T10:09:22.726Z</time></trkpt><trkpt lat="42.5172129" lon="12.859074"><ele>583.0</ele><time>2026-04-26T10:09:23.725Z</time></trkpt><trkpt lat="42.5172132" lon="12.8591941"><ele>583.0</ele><time>2026-04-26T10:09:24.725Z</time></trkpt><trkpt lat="42.5171933" lon="12.859301"><ele>583.0</ele><time>2026-04-26T10:09:25.726Z</time></trkpt><trkpt lat="42.5171519" lon="12.8593887"><ele>583.0</ele><time>2026-04-26T10:09:26.726Z</time></trkpt><trkpt lat="42.5170968" lon="12.8594406"><ele>583.0</ele><time>2026-04-26T10:09:27.726Z</time></trkpt><trkpt lat="42.5169913" lon="12.8594831"><ele>583.0</ele><time>2026-04-26T10:09:29.727Z</time></trkpt><trkpt lat="42.5168897" lon="12.8594288"><ele>581.6</ele><time>2026-04-26T10:09:31.727Z</time></trkpt><trkpt lat="42.5168241" lon="12.8593521"><ele>580.1999999999999</ele><time>2026-04-26T10:09:32.726Z</time></trkpt><trkpt lat="42.516759" lon="12.85925"><ele>578.8</ele><time>2026-04-26T10:09:33.726Z</time></trkpt><trkpt lat="42.5166909" lon="12.8591148"><ele>577.4</ele><time>2026-04-26T10:09:34.726Z</time></trkpt><trkpt lat="42.5166252" lon="12.858956"><ele>576.0</ele><time>2026-04-26T10:09:35.726Z</time></trkpt><trkpt lat="42.516562" lon="12.8587789"><ele>576.0</ele><time>2026-04-26T10:09:36.725Z</time></trkpt><trkpt lat="42.5164961" lon="12.8585986"><ele>576.0</ele><time>2026-04-26T10:09:37.726Z</time></trkpt><trkpt lat="42.5164343" lon="12.8584161"><ele>576.0</ele><time>2026-04-26T10:09:38.726Z</time></trkpt><trkpt lat="42.5163827" lon="12.8582177"><ele>573.25</ele><time>2026-04-26T10:09:39.726Z</time></trkpt><trkpt lat="42.5163422" lon="12.858013"><ele>570.5</ele><time>2026-04-26T10:09:40.725Z</time></trkpt><trkpt lat="42.5163108" lon="12.8578289"><ele>567.75</ele><time>2026-04-26T10:09:41.727Z</time></trkpt><trkpt lat="42.5162823" lon="12.8576573"><ele>565.0</ele><time>2026-04-26T10:09:42.726Z</time></trkpt><trkpt lat="42.5162532" lon="12.8575119"><ele>565.2</ele><time>2026-04-26T10:09:43.727Z</time></trkpt><trkpt lat="42.5162048" lon="12.8573987"><ele>565.4</ele><time>2026-04-26T10:09:44.726Z</time></trkpt><trkpt lat="42.5161391" lon="12.8573399"><ele>565.6</ele><time>2026-04-26T10:09:45.725Z</time></trkpt><trkpt lat="42.5160609" lon="12.8573389"><ele>565.8</ele><time>2026-04-26T10:09:46.726Z</time></trkpt><trkpt lat="42.5159696" lon="12.8573962"><ele>566.0</ele><time>2026-04-26T10:09:47.726Z</time></trkpt><trkpt lat="42.5158552" lon="12.8574931"><ele>566.0</ele><time>2026-04-26T10:09:48.725Z</time></trkpt><trkpt lat="42.5157216" lon="12.8575856"><ele>566.0</ele><time>2026-04-26T10:09:49.725Z</time></trkpt><trkpt lat="42.5155662" lon="12.8576925"><ele>566.0</ele><time>2026-04-26T10:09:50.726Z</time></trkpt><trkpt lat="42.5154156" lon="12.8578173"><ele>573.6666666666666</ele><time>2026-04-26T10:09:51.726Z</time></trkpt><trkpt lat="42.5152668" lon="12.8579408"><ele>581.3333333333334</ele><time>2026-04-26T10:09:52.727Z</time></trkpt><trkpt lat="42.5151192" lon="12.8580623"><ele>589.0</ele><time>2026-04-26T10:09:53.726Z</time></trkpt><trkpt lat="42.5149768" lon="12.8581651"><ele>589.0</ele><time>2026-04-26T10:09:54.727Z</time></trkpt><trkpt lat="42.514823" lon="12.8582293"><ele>589.0</ele><time>2026-04-26T10:09:55.727Z</time></trkpt><trkpt lat="42.5146581" lon="12.8582609"><ele>589.0</ele><time>2026-04-26T10:09:56.727Z</time></trkpt><trkpt lat="42.5144909" lon="12.8582702"><ele>587.75</ele><time>2026-04-26T10:09:57.726Z</time></trkpt><trkpt lat="42.5143278" lon="12.8582648"><ele>586.5</ele><time>2026-04-26T10:09:58.726Z</time></trkpt><trkpt lat="42.5141825" lon="12.8582437"><ele>585.25</ele><time>2026-04-26T10:09:59.726Z</time></trkpt><trkpt lat="42.5140489" lon="12.8582131"><ele>584.0</ele><time>2026-04-26T10:10:00.726Z</time></trkpt><trkpt lat="42.5139255" lon="12.8581996"><ele>584.0</ele><time>2026-04-26T10:10:01.727Z</time></trkpt><trkpt lat="42.513807" lon="12.8582091"><ele>584.0</ele><time>2026-04-26T10:10:02.726Z</time></trkpt><trkpt lat="42.5136986" lon="12.8582588"><ele>584.0</ele><time>2026-04-26T10:10:03.727Z</time></trkpt><trkpt lat="42.5136011" lon="12.8583517"><ele>584.0</ele><time>2026-04-26T10:10:04.727Z</time></trkpt><trkpt lat="42.5135134" lon="12.8584814"><ele>586.25</ele><time>2026-04-26T10:10:05.725Z</time></trkpt><trkpt lat="42.5134357" lon="12.8586381"><ele>588.5</ele><time>2026-04-26T10:10:06.726Z</time></trkpt><trkpt lat="42.5133626" lon="12.8588087"><ele>590.75</ele><time>2026-04-26T10:10:07.727Z</time></trkpt><trkpt lat="42.5132905" lon="12.8589874"><ele>593.0</ele><time>2026-04-26T10:10:08.726Z</time></trkpt><trkpt lat="42.5132184" lon="12.8591741"><ele>599.6666666666666</ele><time>2026-04-26T10:10:09.726Z</time></trkpt><trkpt lat="42.5131517" lon="12.859364"><ele>606.3333333333334</ele><time>2026-04-26T10:10:10.726Z</time></trkpt><trkpt lat="42.5130874" lon="12.8595588"><ele>613.0</ele><time>2026-04-26T10:10:11.726Z</time></trkpt><trkpt lat="42.5130222" lon="12.8597533"><ele>613.0</ele><time>2026-04-26T10:10:12.725Z</time></trkpt><trkpt lat="42.5129566" lon="12.8599466"><ele>613.0</ele><time>2026-04-26T10:10:13.727Z</time></trkpt><trkpt lat="42.5128982" lon="12.8601457"><ele>613.0</ele><time>2026-04-26T10:10:14.726Z</time></trkpt><trkpt lat="42.5128513" lon="12.8603517"><ele>606.6666666666667</ele><time>2026-04-26T10:10:15.727Z</time></trkpt><trkpt lat="42.5128079" lon="12.8605518"><ele>600.3333333333334</ele><time>2026-04-26T10:10:16.727Z</time></trkpt><trkpt lat="42.5127535" lon="12.8607402"><ele>594.0</ele><time>2026-04-26T10:10:17.727Z</time></trkpt><trkpt lat="42.5126814" lon="12.8609223"><ele>602.3333333333334</ele><time>2026-04-26T10:10:18.726Z</time></trkpt><trkpt lat="42.5125889" lon="12.8610927"><ele>610.6666666666667</ele><time>2026-04-26T10:10:19.727Z</time></trkpt><trkpt lat="42.5124809" lon="12.8612695"><ele>619.0</ele><time>2026-04-26T10:10:20.725Z</time></trkpt><trkpt lat="42.5123637" lon="12.8614484"><ele>619.0</ele><time>2026-04-26T10:10:21.726Z</time></trkpt><trkpt lat="42.5122415" lon="12.8616285"><ele>619.0</ele><time>2026-04-26T10:10:22.726Z</time></trkpt><trkpt lat="42.5121151" lon="12.8618094"><ele>619.0</ele><time>2026-04-26T10:10:23.726Z</time></trkpt><trkpt lat="42.5119887" lon="12.8619866"><ele>616.3333333333334</ele><time>2026-04-26T10:10:24.727Z</time></trkpt><trkpt lat="42.5118658" lon="12.8621595"><ele>613.6666666666666</ele><time>2026-04-26T10:10:25.727Z</time></trkpt><trkpt lat="42.5117479" lon="12.8623268"><ele>611.0</ele><time>2026-04-26T10:10:26.727Z</time></trkpt><trkpt lat="42.5116377" lon="12.8624941"><ele>617.6666666666666</ele><time>2026-04-26T10:10:27.726Z</time></trkpt><trkpt lat="42.5115346" lon="12.8626758"><ele>624.3333333333334</ele><time>2026-04-26T10:10:28.726Z</time></trkpt><trkpt lat="42.5114431" lon="12.8628876"><ele>631.0</ele><time>2026-04-26T10:10:29.727Z</time></trkpt><trkpt lat="42.5113627" lon="12.8631202"><ele>631.0</ele><time>2026-04-26T10:10:30.726Z</time></trkpt><trkpt lat="42.5112788" lon="12.8633593"><ele>631.0</ele><time>2026-04-26T10:10:31.726Z</time></trkpt><trkpt lat="42.511183" lon="12.8635858"><ele>631.0</ele><time>2026-04-26T10:10:32.725Z</time></trkpt><trkpt lat="42.5110847" lon="12.8638067"><ele>630.0</ele><time>2026-04-26T10:10:33.726Z</time></trkpt><trkpt lat="42.510991" lon="12.8640211"><ele>629.0</ele><time>2026-04-26T10:10:34.726Z</time></trkpt><trkpt lat="42.5109056" lon="12.8642316"><ele>628.0</ele><time>2026-04-26T10:10:35.726Z</time></trkpt><trkpt lat="42.5108366" lon="12.8644533"><ele>628.0</ele><time>2026-04-26T10:10:36.726Z</time></trkpt><trkpt lat="42.5107922" lon="12.8646846"><ele>628.0</ele><time>2026-04-26T10:10:37.726Z</time></trkpt><trkpt lat="42.5107631" lon="12.8649234"><ele>628.0</ele><time>2026-04-26T10:10:38.727Z</time></trkpt><trkpt lat="42.5107357" lon="12.8651593"><ele>632.3333333333334</ele><time>2026-04-26T10:10:39.727Z</time></trkpt><trkpt lat="42.5107155" lon="12.8653837"><ele>636.6666666666666</ele><time>2026-04-26T10:10:40.725Z</time></trkpt><trkpt lat="42.5106951" lon="12.8655983"><ele>641.0</ele><time>2026-04-26T10:10:41.725Z</time></trkpt><trkpt lat="42.5106562" lon="12.8658108"><ele>646.0</ele><time>2026-04-26T10:10:42.727Z</time></trkpt><trkpt lat="42.5106046" lon="12.8660179"><ele>651.0</ele><time>2026-04-26T10:10:43.726Z</time></trkpt><trkpt lat="42.5105346" lon="12.8662127"><ele>656.0</ele><time>2026-04-26T10:10:44.726Z</time></trkpt><trkpt lat="42.5104512" lon="12.8664046"><ele>651.0</ele><time>2026-04-26T10:10:45.725Z</time></trkpt><trkpt lat="42.5103676" lon="12.8665856"><ele>646.0</ele><time>2026-04-26T10:10:46.725Z</time></trkpt><trkpt lat="42.5102791" lon="12.8667629"><ele>641.0</ele><time>2026-04-26T10:10:47.726Z</time></trkpt><trkpt lat="42.5101844" lon="12.8669208"><ele>641.0</ele><time>2026-04-26T10:10:48.726Z</time></trkpt><trkpt lat="42.5100809" lon="12.8670473"><ele>641.0</ele><time>2026-04-26T10:10:49.726Z</time></trkpt><trkpt lat="42.5099722" lon="12.867133"><ele>641.0</ele><time>2026-04-26T10:10:50.726Z</time></trkpt><trkpt lat="42.5098617" lon="12.8671696"><ele>641.0</ele><time>2026-04-26T10:10:51.725Z</time></trkpt><trkpt lat="42.5097465" lon="12.8671606"><ele>641.0</ele><time>2026-04-26T10:10:52.725Z</time></trkpt><trkpt lat="42.5096287" lon="12.8670959"><ele>641.0</ele><time>2026-04-26T10:10:53.726Z</time></trkpt><trkpt lat="42.5095161" lon="12.8669962"><ele>641.0</ele><time>2026-04-26T10:10:54.724Z</time></trkpt><trkpt lat="42.5094023" lon="12.8669045"><ele>641.0</ele><time>2026-04-26T10:10:55.725Z</time></trkpt><trkpt lat="42.5092886" lon="12.8668434"><ele>640.8</ele><time>2026-04-26T10:10:56.726Z</time></trkpt><trkpt lat="42.5091848" lon="12.8668285"><ele>640.5999999999999</ele><time>2026-04-26T10:10:57.726Z</time></trkpt><trkpt lat="42.5090819" lon="12.8668605"><ele>640.4</ele><time>2026-04-26T10:10:58.726Z</time></trkpt><trkpt lat="42.5089865" lon="12.8669368"><ele>640.2</ele><time>2026-04-26T10:10:59.726Z</time></trkpt><trkpt lat="42.5089123" lon="12.8670597"><ele>640.0</ele><time>2026-04-26T10:11:00.726Z</time></trkpt><trkpt lat="42.5088538" lon="12.8672178"><ele>640.0</ele><time>2026-04-26T10:11:01.724Z</time></trkpt><trkpt lat="42.5087975" lon="12.8673809"><ele>640.0</ele><time>2026-04-26T10:11:02.724Z</time></trkpt><trkpt lat="42.508711" lon="12.8675304"><ele>640.0</ele><time>2026-04-26T10:11:03.724Z</time></trkpt><trkpt lat="42.5086031" lon="12.8676652"><ele>640.0</ele><time>2026-04-26T10:11:04.725Z</time></trkpt><trkpt lat="42.5084744" lon="12.8677742"><ele>640.5</ele><time>2026-04-26T10:11:05.725Z</time></trkpt><trkpt lat="42.5083401" lon="12.8678608"><ele>641.0</ele><time>2026-04-26T10:11:06.725Z</time></trkpt><trkpt lat="42.5082137" lon="12.8679499"><ele>641.5</ele><time>2026-04-26T10:11:07.725Z</time></trkpt><trkpt lat="42.5081267" lon="12.8680212"><ele>642.0</ele><time>2026-04-26T10:11:08.726Z</time></trkpt><trkpt lat="42.5080661" lon="12.8680673"><ele>642.0</ele><time>2026-04-26T10:11:09.725Z</time></trkpt><trkpt lat="42.5079966" lon="12.8681057"><ele>642.0</ele><time>2026-04-26T10:11:12.725Z</time></trkpt><trkpt lat="42.5079703" lon="12.8682145"><ele>642.0</ele><time>2026-04-26T10:20:34.721Z</time></trkpt><trkpt lat="42.5079497" lon="12.8683044"><ele>642.0</ele><time>2026-04-26T10:20:35.722Z</time></trkpt><trkpt lat="42.5079273" lon="12.8683989"><ele>642.0</ele><time>2026-04-26T10:20:36.722Z</time></trkpt><trkpt lat="42.5079045" lon="12.8684994"><ele>642.0</ele><time>2026-04-26T10:20:37.722Z</time></trkpt><trkpt lat="42.5078823" lon="12.8686049"><ele>638.25</ele><time>2026-04-26T10:20:38.72Z</time></trkpt><trkpt lat="42.5078611" lon="12.8687272"><ele>634.5</ele><time>2026-04-26T10:20:39.721Z</time></trkpt><trkpt lat="42.5078343" lon="12.8688814"><ele>630.75</ele><time>2026-04-26T10:20:40.722Z</time></trkpt><trkpt lat="42.5078047" lon="12.8690482"><ele>627.0</ele><time>2026-04-26T10:20:41.722Z</time></trkpt><trkpt lat="42.5077664" lon="12.869222"><ele>629.25</ele><time>2026-04-26T10:20:42.722Z</time></trkpt><trkpt lat="42.5077237" lon="12.8694003"><ele>631.5</ele><time>2026-04-26T10:20:43.722Z</time></trkpt><trkpt lat="42.5076793" lon="12.8695718"><ele>633.75</ele><time>2026-04-26T10:20:44.722Z</time></trkpt><trkpt lat="42.5076311" lon="12.8697292"><ele>636.0</ele><time>2026-04-26T10:20:45.721Z</time></trkpt><trkpt lat="42.5075714" lon="12.8698735"><ele>636.0</ele><time>2026-04-26T10:20:46.72Z</time></trkpt><trkpt lat="42.5074933" lon="12.8700104"><ele>636.0</ele><time>2026-04-26T10:20:47.721Z</time></trkpt><trkpt lat="42.5074029" lon="12.8701402"><ele>636.0</ele><time>2026-04-26T10:20:48.721Z</time></trkpt><trkpt lat="42.507312" lon="12.870269"><ele>636.0</ele><time>2026-04-26T10:20:49.721Z</time></trkpt><trkpt lat="42.507224" lon="12.8703946"><ele>634.25</ele><time>2026-04-26T10:20:50.722Z</time></trkpt><trkpt lat="42.5071323" lon="12.870511"><ele>632.5</ele><time>2026-04-26T10:20:51.721Z</time></trkpt><trkpt lat="42.5070366" lon="12.8706002"><ele>630.75</ele><time>2026-04-26T10:20:52.721Z</time></trkpt><trkpt lat="42.506938" lon="12.8706883"><ele>629.0</ele><time>2026-04-26T10:20:53.72Z</time></trkpt><trkpt lat="42.5068502" lon="12.8707958"><ele>629.0</ele><time>2026-04-26T10:20:54.721Z</time></trkpt><trkpt lat="42.5067734" lon="12.8709241"><ele>629.0</ele><time>2026-04-26T10:20:55.722Z</time></trkpt><trkpt lat="42.5067179" lon="12.871063"><ele>629.0</ele><time>2026-04-26T10:20:56.722Z</time></trkpt><trkpt lat="42.506678" lon="12.8712166"><ele>629.0</ele><time>2026-04-26T10:20:57.721Z</time></trkpt><trkpt lat="42.5066541" lon="12.8713794"><ele>628.5</ele><time>2026-04-26T10:20:58.721Z</time></trkpt><trkpt lat="42.5066581" lon="12.8715567"><ele>628.0</ele><time>2026-04-26T10:20:59.722Z</time></trkpt><trkpt lat="42.5066911" lon="12.8717273"><ele>627.5</ele><time>2026-04-26T10:21:00.721Z</time></trkpt><trkpt lat="42.5067413" lon="12.8718839"><ele>627.0</ele><time>2026-04-26T10:21:01.72Z</time></trkpt><trkpt lat="42.5067943" lon="12.8720264"><ele>627.0</ele><time>2026-04-26T10:21:02.721Z</time></trkpt><trkpt lat="42.5068404" lon="12.8721651"><ele>627.0</ele><time>2026-04-26T10:21:03.722Z</time></trkpt><trkpt lat="42.5068832" lon="12.8723056"><ele>627.0</ele><time>2026-04-26T10:21:04.722Z</time></trkpt><trkpt lat="42.5069136" lon="12.8724526"><ele>627.0</ele><time>2026-04-26T10:21:05.722Z</time></trkpt><trkpt lat="42.5069328" lon="12.8726096"><ele>629.25</ele><time>2026-04-26T10:21:06.721Z</time></trkpt><trkpt lat="42.5069306" lon="12.8727704"><ele>631.5</ele><time>2026-04-26T10:21:07.72Z</time></trkpt><trkpt lat="42.5069072" lon="12.8729337"><ele>633.75</ele><time>2026-04-26T10:21:08.721Z</time></trkpt><trkpt lat="42.5068736" lon="12.8730878"><ele>636.0</ele><time>2026-04-26T10:21:09.722Z</time></trkpt><trkpt lat="42.5068241" lon="12.8732122"><ele>636.0</ele><time>2026-04-26T10:21:10.721Z</time></trkpt><trkpt lat="42.5067542" lon="12.873313"><ele>636.0</ele><time>2026-04-26T10:21:11.722Z</time></trkpt><trkpt lat="42.5066654" lon="12.8733796"><ele>636.0</ele><time>2026-04-26T10:21:12.722Z</time></trkpt><trkpt lat="42.5065569" lon="12.8734223"><ele>636.0</ele><time>2026-04-26T10:21:13.72Z</time></trkpt><trkpt lat="42.5064295" lon="12.8734975"><ele>634.0</ele><time>2026-04-26T10:21:14.72Z</time></trkpt><trkpt lat="42.5063044" lon="12.873616"><ele>632.0</ele><time>2026-04-26T10:21:15.722Z</time></trkpt><trkpt lat="42.5061855" lon="12.8737767"><ele>630.0</ele><time>2026-04-26T10:21:16.722Z</time></trkpt><trkpt lat="42.506065" lon="12.8739503"><ele>630.0</ele><time>2026-04-26T10:21:17.721Z</time></trkpt><trkpt lat="42.5059381" lon="12.8741241"><ele>630.0</ele><time>2026-04-26T10:21:18.721Z</time></trkpt><trkpt lat="42.505826" lon="12.874304"><ele>630.0</ele><time>2026-04-26T10:21:19.722Z</time></trkpt><trkpt lat="42.5057281" lon="12.8744889"><ele>634.3333333333334</ele><time>2026-04-26T10:21:20.72Z</time></trkpt><trkpt lat="42.5056392" lon="12.8746639"><ele>638.6666666666667</ele><time>2026-04-26T10:21:21.721Z</time></trkpt><trkpt lat="42.5055406" lon="12.8748248"><ele>643.0</ele><time>2026-04-26T10:21:22.721Z</time></trkpt><trkpt lat="42.5054253" lon="12.8749544"><ele>638.5</ele><time>2026-04-26T10:21:23.722Z</time></trkpt><trkpt lat="42.5053012" lon="12.8750592"><ele>634.0</ele><time>2026-04-26T10:21:24.721Z</time></trkpt><trkpt lat="42.505183" lon="12.8751663"><ele>629.5</ele><time>2026-04-26T10:21:25.721Z</time></trkpt><trkpt lat="42.5050816" lon="12.8752906"><ele>625.0</ele><time>2026-04-26T10:21:26.72Z</time></trkpt><trkpt lat="42.5050146" lon="12.8754477"><ele>625.0</ele><time>2026-04-26T10:21:27.72Z</time></trkpt><trkpt lat="42.5049749" lon="12.8756197"><ele>625.0</ele><time>2026-04-26T10:21:28.721Z</time></trkpt><trkpt lat="42.504933" lon="12.8757896"><ele>625.0</ele><time>2026-04-26T10:21:29.722Z</time></trkpt><trkpt lat="42.504879" lon="12.8759472"><ele>625.0</ele><time>2026-04-26T10:21:30.722Z</time></trkpt><trkpt lat="42.5047995" lon="12.8760723"><ele>626.5</ele><time>2026-04-26T10:21:31.722Z</time></trkpt><trkpt lat="42.5047031" lon="12.8761549"><ele>628.0</ele><time>2026-04-26T10:21:32.721Z</time></trkpt><trkpt lat="42.5045955" lon="12.8761895"><ele>629.5</ele><time>2026-04-26T10:21:33.722Z</time></trkpt><trkpt lat="42.5044747" lon="12.8761726"><ele>631.0</ele><time>2026-04-26T10:21:34.721Z</time></trkpt><trkpt lat="42.5043405" lon="12.8761299"><ele>628.0</ele><time>2026-04-26T10:21:35.722Z</time></trkpt><trkpt lat="42.5042145" lon="12.8760884"><ele>625.0</ele><time>2026-04-26T10:21:36.721Z</time></trkpt><trkpt lat="42.5040948" lon="12.8760481"><ele>622.0</ele><time>2026-04-26T10:21:37.721Z</time></trkpt><trkpt lat="42.5039824" lon="12.8760439"><ele>619.0</ele><time>2026-04-26T10:21:38.722Z</time></trkpt><trkpt lat="42.5038809" lon="12.8760982"><ele>619.0</ele><time>2026-04-26T10:21:39.722Z</time></trkpt><trkpt lat="42.5038042" lon="12.8762095"><ele>619.0</ele><time>2026-04-26T10:21:40.722Z</time></trkpt><trkpt lat="42.5037614" lon="12.8763588"><ele>619.0</ele><time>2026-04-26T10:21:41.72Z</time></trkpt><trkpt lat="42.5037542" lon="12.8765347"><ele>619.0</ele><time>2026-04-26T10:21:42.72Z</time></trkpt><trkpt lat="42.5037567" lon="12.8767048"><ele>617.0</ele><time>2026-04-26T10:21:43.722Z</time></trkpt><trkpt lat="42.5037454" lon="12.8768719"><ele>615.0</ele><time>2026-04-26T10:21:44.722Z</time></trkpt><trkpt lat="42.5037116" lon="12.8770245"><ele>613.0</ele><time>2026-04-26T10:21:45.722Z</time></trkpt><trkpt lat="42.5036403" lon="12.8771635"><ele>611.0</ele><time>2026-04-26T10:21:46.72Z</time></trkpt><trkpt lat="42.5035338" lon="12.8772793"><ele>611.0</ele><time>2026-04-26T10:21:47.721Z</time></trkpt><trkpt lat="42.5034091" lon="12.8773677"><ele>611.0</ele><time>2026-04-26T10:21:48.721Z</time></trkpt><trkpt lat="42.5032788" lon="12.8774501"><ele>611.0</ele><time>2026-04-26T10:21:49.721Z</time></trkpt><trkpt lat="42.5031533" lon="12.8775242"><ele>611.0</ele><time>2026-04-26T10:21:50.72Z</time></trkpt><trkpt lat="42.5030287" lon="12.8775888"><ele>611.25</ele><time>2026-04-26T10:21:51.72Z</time></trkpt><trkpt lat="42.5029027" lon="12.8776429"><ele>611.5</ele><time>2026-04-26T10:21:52.721Z</time></trkpt><trkpt lat="42.5027805" lon="12.8776909"><ele>611.75</ele><time>2026-04-26T10:21:53.722Z</time></trkpt><trkpt lat="42.5026638" lon="12.8777344"><ele>612.0</ele><time>2026-04-26T10:21:54.722Z</time></trkpt><trkpt lat="42.5025504" lon="12.8777795"><ele>612.0</ele><time>2026-04-26T10:21:55.721Z</time></trkpt><trkpt lat="42.5024416" lon="12.8778219"><ele>612.0</ele><time>2026-04-26T10:21:56.72Z</time></trkpt><trkpt lat="42.5023351" lon="12.8778601"><ele>612.0</ele><time>2026-04-26T10:21:57.72Z</time></trkpt><trkpt lat="42.5022322" lon="12.877901"><ele>612.0</ele><time>2026-04-26T10:21:58.72Z</time></trkpt><trkpt lat="42.5021378" lon="12.8779642"><ele>612.0</ele><time>2026-04-26T10:21:59.719Z</time></trkpt><trkpt lat="42.502049" lon="12.8780631"><ele>609.25</ele><time>2026-04-26T10:22:00.72Z</time></trkpt><trkpt lat="42.501973" lon="12.8782014"><ele>606.5</ele><time>2026-04-26T10:22:01.719Z</time></trkpt><trkpt lat="42.5019124" lon="12.8783538"><ele>603.75</ele><time>2026-04-26T10:22:02.72Z</time></trkpt><trkpt lat="42.5018575" lon="12.8785058"><ele>601.0</ele><time>2026-04-26T10:22:03.721Z</time></trkpt><trkpt lat="42.5018113" lon="12.8786509"><ele>601.0</ele><time>2026-04-26T10:22:04.719Z</time></trkpt><trkpt lat="42.5017635" lon="12.8787934"><ele>601.0</ele><time>2026-04-26T10:22:05.72Z</time></trkpt><trkpt lat="42.5017019" lon="12.8789375"><ele>601.0</ele><time>2026-04-26T10:22:06.72Z</time></trkpt><trkpt lat="42.5016262" lon="12.8790686"><ele>601.0</ele><time>2026-04-26T10:22:07.719Z</time></trkpt><trkpt lat="42.5015412" lon="12.8791844"><ele>602.5</ele><time>2026-04-26T10:22:08.719Z</time></trkpt><trkpt lat="42.5014463" lon="12.879302"><ele>604.0</ele><time>2026-04-26T10:22:09.721Z</time></trkpt><trkpt lat="42.5013461" lon="12.8794277"><ele>605.5</ele><time>2026-04-26T10:22:10.721Z</time></trkpt><trkpt lat="42.5012282" lon="12.879579"><ele>607.0</ele><time>2026-04-26T10:22:11.721Z</time></trkpt><trkpt lat="42.5010935" lon="12.8797268"><ele>605.0</ele><time>2026-04-26T10:22:12.72Z</time></trkpt><trkpt lat="42.5009398" lon="12.8798635"><ele>603.0</ele><time>2026-04-26T10:22:13.719Z</time></trkpt><trkpt lat="42.5007813" lon="12.880003"><ele>601.0</ele><time>2026-04-26T10:22:14.72Z</time></trkpt><trkpt lat="42.5006173" lon="12.88015"><ele>601.0</ele><time>2026-04-26T10:22:15.72Z</time></trkpt><trkpt lat="42.5004603" lon="12.8803055"><ele>601.0</ele><time>2026-04-26T10:22:16.72Z</time></trkpt><trkpt lat="42.5003073" lon="12.8804682"><ele>601.0</ele><time>2026-04-26T10:22:17.72Z</time></trkpt><trkpt lat="42.5001591" lon="12.8806301"><ele>596.0</ele><time>2026-04-26T10:22:18.721Z</time></trkpt><trkpt lat="42.500023" lon="12.8808089"><ele>591.0</ele><time>2026-04-26T10:22:19.721Z</time></trkpt><trkpt lat="42.4999008" lon="12.8810059"><ele>586.0</ele><time>2026-04-26T10:22:20.721Z</time></trkpt><trkpt lat="42.4997934" lon="12.8812076"><ele>586.0</ele><time>2026-04-26T10:22:21.72Z</time></trkpt><trkpt lat="42.4996904" lon="12.8814068"><ele>586.0</ele><time>2026-04-26T10:22:22.719Z</time></trkpt><trkpt lat="42.4995953" lon="12.8816065"><ele>586.0</ele><time>2026-04-26T10:22:23.719Z</time></trkpt><trkpt lat="42.4995055" lon="12.8818049"><ele>581.3333333333334</ele><time>2026-04-26T10:22:24.72Z</time></trkpt><trkpt lat="42.4994365" lon="12.8820061"><ele>576.6666666666666</ele><time>2026-04-26T10:22:25.719Z</time></trkpt><trkpt lat="42.4993969" lon="12.8822215"><ele>572.0</ele><time>2026-04-26T10:22:26.72Z</time></trkpt><trkpt lat="42.4993871" lon="12.8824354"><ele>571.3333333333333</ele><time>2026-04-26T10:22:27.72Z</time></trkpt><trkpt lat="42.4993855" lon="12.8826529"><ele>570.6666666666666</ele><time>2026-04-26T10:22:28.72Z</time></trkpt><trkpt lat="42.4993675" lon="12.8828679"><ele>570.0</ele><time>2026-04-26T10:22:29.72Z</time></trkpt><trkpt lat="42.499325" lon="12.883077"><ele>570.0</ele><time>2026-04-26T10:22:30.719Z</time></trkpt><trkpt lat="42.4992504" lon="12.8832683"><ele>570.0</ele><time>2026-04-26T10:22:31.721Z</time></trkpt><trkpt lat="42.4991541" lon="12.883438"><ele>570.0</ele><time>2026-04-26T10:22:32.719Z</time></trkpt><trkpt lat="42.499055" lon="12.8836007"><ele>572.75</ele><time>2026-04-26T10:22:33.721Z</time></trkpt><trkpt lat="42.4989562" lon="12.88376"><ele>575.5</ele><time>2026-04-26T10:22:34.72Z</time></trkpt><trkpt lat="42.4988685" lon="12.8839196"><ele>578.25</ele><time>2026-04-26T10:22:35.719Z</time></trkpt><trkpt lat="42.4988037" lon="12.8840929"><ele>581.0</ele><time>2026-04-26T10:22:36.72Z</time></trkpt><trkpt lat="42.4987702" lon="12.8842781"><ele>582.0</ele><time>2026-04-26T10:22:37.721Z</time></trkpt><trkpt lat="42.4987529" lon="12.8844511"><ele>583.0</ele><time>2026-04-26T10:22:38.721Z</time></trkpt><trkpt lat="42.4987835" lon="12.8846566"><ele>584.0</ele><time>2026-04-26T10:22:39.719Z</time></trkpt><trkpt lat="42.4987677" lon="12.8848213"><ele>585.0</ele><time>2026-04-26T10:22:40.719Z</time></trkpt><trkpt lat="42.4987202" lon="12.8849644"><ele>580.75</ele><time>2026-04-26T10:22:41.721Z</time></trkpt><trkpt lat="42.4986412" lon="12.885075"><ele>576.5</ele><time>2026-04-26T10:22:42.721Z</time></trkpt><trkpt lat="42.4985438" lon="12.8851394"><ele>572.25</ele><time>2026-04-26T10:22:43.719Z</time></trkpt><trkpt lat="42.4984315" lon="12.8851594"><ele>568.0</ele><time>2026-04-26T10:22:44.72Z</time></trkpt><trkpt lat="42.4983072" lon="12.8851321"><ele>565.3333333333334</ele><time>2026-04-26T10:22:45.721Z</time></trkpt><trkpt lat="42.4981672" lon="12.8850738"><ele>562.6666666666666</ele><time>2026-04-26T10:22:46.721Z</time></trkpt><trkpt lat="42.4980141" lon="12.8849868"><ele>560.0</ele><time>2026-04-26T10:22:47.721Z</time></trkpt><trkpt lat="42.4978512" lon="12.8849029"><ele>559.3333333333333</ele><time>2026-04-26T10:22:48.72Z</time></trkpt><trkpt lat="42.4976786" lon="12.8848158"><ele>558.6666666666666</ele><time>2026-04-26T10:22:49.719Z</time></trkpt><trkpt lat="42.4975007" lon="12.884722"><ele>558.0</ele><time>2026-04-26T10:22:50.72Z</time></trkpt><trkpt lat="42.4973171" lon="12.8846194"><ele>558.0</ele><time>2026-04-26T10:22:51.719Z</time></trkpt><trkpt lat="42.4971397" lon="12.8845179"><ele>558.0</ele><time>2026-04-26T10:22:52.719Z</time></trkpt><trkpt lat="42.4969604" lon="12.8844204"><ele>558.0</ele><time>2026-04-26T10:22:53.719Z</time></trkpt><trkpt lat="42.4967864" lon="12.8843282"><ele>554.3333333333334</ele><time>2026-04-26T10:22:54.72Z</time></trkpt><trkpt lat="42.4966166" lon="12.8842294"><ele>550.6666666666667</ele><time>2026-04-26T10:22:55.72Z</time></trkpt><trkpt lat="42.4964572" lon="12.8841151"><ele>547.0</ele><time>2026-04-26T10:22:56.719Z</time></trkpt><trkpt lat="42.4963105" lon="12.8839835"><ele>546.75</ele><time>2026-04-26T10:22:57.721Z</time></trkpt><trkpt lat="42.4961788" lon="12.8838556"><ele>546.5</ele><time>2026-04-26T10:22:58.72Z</time></trkpt><trkpt lat="42.4960673" lon="12.8837391"><ele>546.25</ele><time>2026-04-26T10:22:59.72Z</time></trkpt><trkpt lat="42.4959653" lon="12.8836385"><ele>546.0</ele><time>2026-04-26T10:23:00.72Z</time></trkpt><trkpt lat="42.4958761" lon="12.8835501"><ele>546.0</ele><time>2026-04-26T10:23:01.719Z</time></trkpt><trkpt lat="42.4957965" lon="12.8834748"><ele>546.0</ele><time>2026-04-26T10:23:02.719Z</time></trkpt><trkpt lat="42.4957268" lon="12.8834073"><ele>546.0</ele><time>2026-04-26T10:23:03.72Z</time></trkpt><trkpt lat="42.4956705" lon="12.8833289"><ele>546.0</ele><time>2026-04-26T10:23:04.72Z</time></trkpt><trkpt lat="42.4956329" lon="12.8832486"><ele>546.0</ele><time>2026-04-26T10:23:05.72Z</time></trkpt><trkpt lat="42.4955986" lon="12.8831706"><ele>546.0</ele><time>2026-04-26T10:23:06.721Z</time></trkpt><trkpt lat="42.4955082" lon="12.8830765"><ele>543.8</ele><time>2026-04-26T10:23:08.721Z</time></trkpt><trkpt lat="42.4954394" lon="12.8830727"><ele>541.6</ele><time>2026-04-26T10:23:09.72Z</time></trkpt><trkpt lat="42.4953422" lon="12.8830667"><ele>539.4</ele><time>2026-04-26T10:23:10.719Z</time></trkpt><trkpt lat="42.4952215" lon="12.8830736"><ele>537.2</ele><time>2026-04-26T10:23:11.719Z</time></trkpt><trkpt lat="42.4950954" lon="12.8830929"><ele>535.0</ele><time>2026-04-26T10:23:12.72Z</time></trkpt><trkpt lat="42.4949593" lon="12.8831241"><ele>534.75</ele><time>2026-04-26T10:23:13.72Z</time></trkpt><trkpt lat="42.4948222" lon="12.8831622"><ele>534.5</ele><time>2026-04-26T10:23:14.719Z</time></trkpt><trkpt lat="42.49469" lon="12.8832143"><ele>534.25</ele><time>2026-04-26T10:23:15.72Z</time></trkpt><trkpt lat="42.4945604" lon="12.8832844"><ele>534.0</ele><time>2026-04-26T10:23:16.72Z</time></trkpt><trkpt lat="42.4944394" lon="12.883385"><ele>535.0</ele><time>2026-04-26T10:23:17.719Z</time></trkpt><trkpt lat="42.4943209" lon="12.8835028"><ele>536.0</ele><time>2026-04-26T10:23:18.719Z</time></trkpt><trkpt lat="42.4942022" lon="12.8836224"><ele>537.0</ele><time>2026-04-26T10:23:19.719Z</time></trkpt><trkpt lat="42.4940774" lon="12.883724"><ele>538.0</ele><time>2026-04-26T10:23:20.72Z</time></trkpt><trkpt lat="42.4939402" lon="12.8837925"><ele>538.0</ele><time>2026-04-26T10:23:21.72Z</time></trkpt><trkpt lat="42.4937894" lon="12.8838263"><ele>538.0</ele><time>2026-04-26T10:23:22.72Z</time></trkpt><trkpt lat="42.4936243" lon="12.883836"><ele>538.0</ele><time>2026-04-26T10:23:23.721Z</time></trkpt><trkpt lat="42.4934513" lon="12.8838385"><ele>536.0</ele><time>2026-04-26T10:23:24.721Z</time></trkpt><trkpt lat="42.493278" lon="12.8838378"><ele>534.0</ele><time>2026-04-26T10:23:25.721Z</time></trkpt><trkpt lat="42.4930994" lon="12.8838467"><ele>532.0</ele><time>2026-04-26T10:23:26.72Z</time></trkpt><trkpt lat="42.4929177" lon="12.883862"><ele>530.0</ele><time>2026-04-26T10:23:27.721Z</time></trkpt><trkpt lat="42.4927353" lon="12.8838805"><ele>528.0</ele><time>2026-04-26T10:23:28.719Z</time></trkpt><trkpt lat="42.4925496" lon="12.8839082"><ele>526.0</ele><time>2026-04-26T10:23:29.72Z</time></trkpt><trkpt lat="42.4923723" lon="12.8839318"><ele>526.0</ele><time>2026-04-26T10:23:30.72Z</time></trkpt><trkpt lat="42.4921981" lon="12.8839528"><ele>526.0</ele><time>2026-04-26T10:23:31.72Z</time></trkpt><trkpt lat="42.4920221" lon="12.8839788"><ele>526.0</ele><time>2026-04-26T10:23:32.72Z</time></trkpt><trkpt lat="42.49185" lon="12.8840062"><ele>524.6666666666667</ele><time>2026-04-26T10:23:33.719Z</time></trkpt><trkpt lat="42.4916843" lon="12.8840338"><ele>523.3333333333334</ele><time>2026-04-26T10:23:34.72Z</time></trkpt><trkpt lat="42.4915269" lon="12.8840562"><ele>522.0</ele><time>2026-04-26T10:23:35.72Z</time></trkpt><trkpt lat="42.4913782" lon="12.8840528"><ele>521.0</ele><time>2026-04-26T10:23:36.72Z</time></trkpt><trkpt lat="42.4912407" lon="12.8840099"><ele>520.0</ele><time>2026-04-26T10:23:37.72Z</time></trkpt><trkpt lat="42.4911103" lon="12.8839195"><ele>519.0</ele><time>2026-04-26T10:23:38.719Z</time></trkpt><trkpt lat="42.4909908" lon="12.883793"><ele>518.0</ele><time>2026-04-26T10:23:39.72Z</time></trkpt><trkpt lat="42.4908872" lon="12.883648"><ele>518.0</ele><time>2026-04-26T10:23:40.721Z</time></trkpt><trkpt lat="42.4907876" lon="12.8835033"><ele>518.0</ele><time>2026-04-26T10:23:41.72Z</time></trkpt><trkpt lat="42.4906845" lon="12.8833711"><ele>518.0</ele><time>2026-04-26T10:23:42.719Z</time></trkpt><trkpt lat="42.4905746" lon="12.8832586"><ele>518.0</ele><time>2026-04-26T10:23:43.72Z</time></trkpt><trkpt lat="42.4904502" lon="12.8831643"><ele>516.0</ele><time>2026-04-26T10:23:44.721Z</time></trkpt><trkpt lat="42.4903086" lon="12.8830993"><ele>514.0</ele><time>2026-04-26T10:23:45.721Z</time></trkpt><trkpt lat="42.4901561" lon="12.8830512"><ele>512.0</ele><time>2026-04-26T10:23:46.719Z</time></trkpt><trkpt lat="42.4899924" lon="12.8830173"><ele>512.0</ele><time>2026-04-26T10:23:47.719Z</time></trkpt><trkpt lat="42.4898278" lon="12.8829791"><ele>512.0</ele><time>2026-04-26T10:23:48.719Z</time></trkpt><trkpt lat="42.489665" lon="12.8829225"><ele>512.0</ele><time>2026-04-26T10:23:49.721Z</time></trkpt><trkpt lat="42.4895067" lon="12.8828413"><ele>512.6666666666666</ele><time>2026-04-26T10:23:50.72Z</time></trkpt><trkpt lat="42.4893494" lon="12.8827424"><ele>513.3333333333334</ele><time>2026-04-26T10:23:51.72Z</time></trkpt><trkpt lat="42.4892017" lon="12.8826404"><ele>514.0</ele><time>2026-04-26T10:23:52.72Z</time></trkpt><trkpt lat="42.4890693" lon="12.8825499"><ele>513.0</ele><time>2026-04-26T10:23:53.72Z</time></trkpt><trkpt lat="42.4889433" lon="12.8824819"><ele>512.0</ele><time>2026-04-26T10:23:54.721Z</time></trkpt><trkpt lat="42.4888028" lon="12.8824506"><ele>511.0</ele><time>2026-04-26T10:23:55.72Z</time></trkpt><trkpt lat="42.4886551" lon="12.8824658"><ele>510.0</ele><time>2026-04-26T10:23:56.72Z</time></trkpt><trkpt lat="42.4885041" lon="12.8825261"><ele>509.66666666666663</ele><time>2026-04-26T10:23:57.721Z</time></trkpt><trkpt lat="42.4883485" lon="12.8825961"><ele>509.3333333333333</ele><time>2026-04-26T10:23:58.721Z</time></trkpt><trkpt lat="42.4881845" lon="12.8826424"><ele>509.0</ele><time>2026-04-26T10:23:59.72Z</time></trkpt><trkpt lat="42.488012" lon="12.8826633"><ele>511.66666666666663</ele><time>2026-04-26T10:24:00.718Z</time></trkpt><trkpt lat="42.4878351" lon="12.8826758"><ele>514.3333333333334</ele><time>2026-04-26T10:24:01.72Z</time></trkpt><trkpt lat="42.4876516" lon="12.882686"><ele>517.0</ele><time>2026-04-26T10:24:02.718Z</time></trkpt><trkpt lat="42.4874653" lon="12.8826914"><ele>517.0</ele><time>2026-04-26T10:24:03.718Z</time></trkpt><trkpt lat="42.4872772" lon="12.8826987"><ele>517.0</ele><time>2026-04-26T10:24:04.719Z</time></trkpt><trkpt lat="42.4870877" lon="12.8826968"><ele>517.0</ele><time>2026-04-26T10:24:05.719Z</time></trkpt><trkpt lat="42.4868981" lon="12.8826907"><ele>516.6666666666667</ele><time>2026-04-26T10:24:06.718Z</time></trkpt><trkpt lat="42.4867104" lon="12.8826744"><ele>516.3333333333334</ele><time>2026-04-26T10:24:07.72Z</time></trkpt><trkpt lat="42.4865246" lon="12.882653"><ele>516.0</ele><time>2026-04-26T10:24:08.719Z</time></trkpt><trkpt lat="42.4863449" lon="12.8826174"><ele>512.0</ele><time>2026-04-26T10:24:09.719Z</time></trkpt><trkpt lat="42.4861736" lon="12.8825755"><ele>508.0</ele><time>2026-04-26T10:24:10.719Z</time></trkpt><trkpt lat="42.4860096" lon="12.8825317"><ele>504.0</ele><time>2026-04-26T10:24:11.719Z</time></trkpt><trkpt lat="42.4858508" lon="12.8824878"><ele>504.0</ele><time>2026-04-26T10:24:12.719Z</time></trkpt><trkpt lat="42.485699" lon="12.8824403"><ele>504.0</ele><time>2026-04-26T10:24:13.718Z</time></trkpt><trkpt lat="42.4855558" lon="12.8823969"><ele>504.0</ele><time>2026-04-26T10:24:14.719Z</time></trkpt><trkpt lat="42.4854238" lon="12.8823582"><ele>504.0</ele><time>2026-04-26T10:24:15.718Z</time></trkpt><trkpt lat="42.4852987" lon="12.8823153"><ele>504.2</ele><time>2026-04-26T10:24:16.72Z</time></trkpt><trkpt lat="42.4851904" lon="12.882272"><ele>504.4</ele><time>2026-04-26T10:24:17.719Z</time></trkpt><trkpt lat="42.4851044" lon="12.8822256"><ele>504.6</ele><time>2026-04-26T10:24:18.719Z</time></trkpt><trkpt lat="42.4850198" lon="12.8821821"><ele>504.8</ele><time>2026-04-26T10:24:19.719Z</time></trkpt><trkpt lat="42.4849256" lon="12.8821468"><ele>505.0</ele><time>2026-04-26T10:24:20.719Z</time></trkpt><trkpt lat="42.4848292" lon="12.8821243"><ele>505.0</ele><time>2026-04-26T10:24:21.719Z</time></trkpt><trkpt lat="42.4847146" lon="12.882099"><ele>505.0</ele><time>2026-04-26T10:24:22.719Z</time></trkpt><trkpt lat="42.4845985" lon="12.8820784"><ele>505.0</ele><time>2026-04-26T10:24:23.719Z</time></trkpt><trkpt lat="42.4844859" lon="12.882084"><ele>505.0</ele><time>2026-04-26T10:24:24.72Z</time></trkpt><trkpt lat="42.4843698" lon="12.8821001"><ele>504.2</ele><time>2026-04-26T10:24:25.72Z</time></trkpt><trkpt lat="42.4842568" lon="12.8821398"><ele>503.4</ele><time>2026-04-26T10:24:26.72Z</time></trkpt><trkpt lat="42.4841634" lon="12.8821813"><ele>502.6</ele><time>2026-04-26T10:24:27.719Z</time></trkpt><trkpt lat="42.4840889" lon="12.8822516"><ele>501.8</ele><time>2026-04-26T10:24:28.719Z</time></trkpt><trkpt lat="42.4840437" lon="12.8823482"><ele>501.0</ele><time>2026-04-26T10:24:29.719Z</time></trkpt><trkpt lat="42.4840315" lon="12.8824762"><ele>500.5</ele><time>2026-04-26T10:24:30.719Z</time></trkpt><trkpt lat="42.4840366" lon="12.8826367"><ele>500.0</ele><time>2026-04-26T10:24:31.72Z</time></trkpt><trkpt lat="42.4840585" lon="12.8828217"><ele>499.5</ele><time>2026-04-26T10:24:32.718Z</time></trkpt><trkpt lat="42.4840841" lon="12.8830147"><ele>499.0</ele><time>2026-04-26T10:24:33.72Z</time></trkpt><trkpt lat="42.4841027" lon="12.883204"><ele>499.0</ele><time>2026-04-26T10:24:34.719Z</time></trkpt><trkpt lat="42.4841034" lon="12.8833974"><ele>499.0</ele><time>2026-04-26T10:24:35.719Z</time></trkpt><trkpt lat="42.4840902" lon="12.8836002"><ele>499.0</ele><time>2026-04-26T10:24:36.72Z</time></trkpt><trkpt lat="42.4840664" lon="12.8837983"><ele>499.0</ele><time>2026-04-26T10:24:37.72Z</time></trkpt><trkpt lat="42.4840423" lon="12.8839961"><ele>499.25</ele><time>2026-04-26T10:24:38.72Z</time></trkpt><trkpt lat="42.4840203" lon="12.8842006"><ele>499.5</ele><time>2026-04-26T10:24:39.719Z</time></trkpt><trkpt lat="42.4839839" lon="12.8843975"><ele>499.75</ele><time>2026-04-26T10:24:40.72Z</time></trkpt><trkpt lat="42.4839392" lon="12.8845794"><ele>500.0</ele><time>2026-04-26T10:24:41.72Z</time></trkpt><trkpt lat="42.483891" lon="12.8847527"><ele>500.0</ele><time>2026-04-26T10:24:42.719Z</time></trkpt><trkpt lat="42.4838268" lon="12.8849163"><ele>500.0</ele><time>2026-04-26T10:24:43.719Z</time></trkpt><trkpt lat="42.4837306" lon="12.8850776"><ele>500.0</ele><time>2026-04-26T10:24:44.719Z</time></trkpt><trkpt lat="42.4836225" lon="12.8852269"><ele>500.0</ele><time>2026-04-26T10:24:45.718Z</time></trkpt><trkpt lat="42.4835242" lon="12.885354"><ele>499.2</ele><time>2026-04-26T10:24:46.719Z</time></trkpt><trkpt lat="42.4834396" lon="12.8854577"><ele>498.4</ele><time>2026-04-26T10:24:47.719Z</time></trkpt><trkpt lat="42.4833544" lon="12.8855604"><ele>497.6</ele><time>2026-04-26T10:24:48.719Z</time></trkpt><trkpt lat="42.4833153" lon="12.8856285"><ele>496.8</ele><time>2026-04-26T10:24:49.72Z</time></trkpt><trkpt lat="42.4832482" lon="12.8857077"><ele>496.0</ele><time>2026-04-26T10:24:50.719Z</time></trkpt><trkpt lat="42.4831609" lon="12.8857765"><ele>496.0</ele><time>2026-04-26T10:24:51.72Z</time></trkpt><trkpt lat="42.4830515" lon="12.8858345"><ele>496.0</ele><time>2026-04-26T10:24:52.719Z</time></trkpt><trkpt lat="42.4829325" lon="12.8858945"><ele>496.0</ele><time>2026-04-26T10:24:53.719Z</time></trkpt><trkpt lat="42.4828186" lon="12.885975"><ele>496.0</ele><time>2026-04-26T10:24:54.72Z</time></trkpt><trkpt lat="42.4827129" lon="12.8860797"><ele>495.75</ele><time>2026-04-26T10:24:55.72Z</time></trkpt><trkpt lat="42.4826117" lon="12.8861927"><ele>495.5</ele><time>2026-04-26T10:24:56.72Z</time></trkpt><trkpt lat="42.4825167" lon="12.8863003"><ele>495.25</ele><time>2026-04-26T10:24:57.719Z</time></trkpt><trkpt lat="42.4824388" lon="12.8864268"><ele>495.0</ele><time>2026-04-26T10:24:58.718Z</time></trkpt><trkpt lat="42.4823786" lon="12.8865916"><ele>497.75</ele><time>2026-04-26T10:24:59.719Z</time></trkpt><trkpt lat="42.4823383" lon="12.886767"><ele>500.5</ele><time>2026-04-26T10:25:00.72Z</time></trkpt><trkpt lat="42.4823013" lon="12.8869352"><ele>503.25</ele><time>2026-04-26T10:25:01.719Z</time></trkpt><trkpt lat="42.4822521" lon="12.887088"><ele>506.0</ele><time>2026-04-26T10:25:02.718Z</time></trkpt><trkpt lat="42.4821725" lon="12.8872211"><ele>506.25</ele><time>2026-04-26T10:25:03.719Z</time></trkpt><trkpt lat="42.4820852" lon="12.8873197"><ele>506.5</ele><time>2026-04-26T10:25:04.718Z</time></trkpt><trkpt lat="42.4820061" lon="12.8874464"><ele>506.75</ele><time>2026-04-26T10:25:05.719Z</time></trkpt><trkpt lat="42.4819516" lon="12.8876187"><ele>507.0</ele><time>2026-04-26T10:25:06.72Z</time></trkpt><trkpt lat="42.4819066" lon="12.8878031"><ele>507.0</ele><time>2026-04-26T10:25:07.718Z</time></trkpt><trkpt lat="42.4818493" lon="12.8879841"><ele>507.0</ele><time>2026-04-26T10:25:08.719Z</time></trkpt><trkpt lat="42.4817781" lon="12.8881692"><ele>507.0</ele><time>2026-04-26T10:25:09.718Z</time></trkpt><trkpt lat="42.4816985" lon="12.8883498"><ele>512.0</ele><time>2026-04-26T10:25:10.718Z</time></trkpt><trkpt lat="42.4816136" lon="12.888538"><ele>517.0</ele><time>2026-04-26T10:25:11.72Z</time></trkpt><trkpt lat="42.4815297" lon="12.8887232"><ele>522.0</ele><time>2026-04-26T10:25:12.718Z</time></trkpt><trkpt lat="42.4814599" lon="12.8888957"><ele>522.0</ele><time>2026-04-26T10:25:13.719Z</time></trkpt><trkpt lat="42.4813882" lon="12.8890485"><ele>522.0</ele><time>2026-04-26T10:25:14.72Z</time></trkpt><trkpt lat="42.4813189" lon="12.8891704"><ele>522.0</ele><time>2026-04-26T10:25:15.72Z</time></trkpt><trkpt lat="42.4812405" lon="12.8892602"><ele>522.0</ele><time>2026-04-26T10:25:16.718Z</time></trkpt><trkpt lat="42.4811699" lon="12.8893481"><ele>522.0</ele><time>2026-04-26T10:25:17.719Z</time></trkpt><trkpt lat="42.4810778" lon="12.8893791"><ele>525.25</ele><time>2026-04-26T10:25:18.72Z</time></trkpt><trkpt lat="42.4809484" lon="12.8893784"><ele>528.5</ele><time>2026-04-26T10:25:19.72Z</time></trkpt><trkpt lat="42.4808375" lon="12.8893986"><ele>531.75</ele><time>2026-04-26T10:25:20.72Z</time></trkpt><trkpt lat="42.480725" lon="12.8894443"><ele>535.0</ele><time>2026-04-26T10:25:21.72Z</time></trkpt><trkpt lat="42.4806115" lon="12.8894922"><ele>535.0</ele><time>2026-04-26T10:25:22.719Z</time></trkpt><trkpt lat="42.4805042" lon="12.8895908"><ele>535.0</ele><time>2026-04-26T10:25:23.718Z</time></trkpt><trkpt lat="42.4803926" lon="12.8896783"><ele>535.0</ele><time>2026-04-26T10:25:24.719Z</time></trkpt><trkpt lat="42.4802718" lon="12.8897504"><ele>535.0</ele><time>2026-04-26T10:25:25.718Z</time></trkpt><trkpt lat="42.4801454" lon="12.8897952"><ele>532.25</ele><time>2026-04-26T10:25:26.718Z</time></trkpt><trkpt lat="42.4800244" lon="12.8898267"><ele>529.5</ele><time>2026-04-26T10:25:27.719Z</time></trkpt><trkpt lat="42.4799067" lon="12.8898693"><ele>526.75</ele><time>2026-04-26T10:25:28.719Z</time></trkpt><trkpt lat="42.4798006" lon="12.8899306"><ele>524.0</ele><time>2026-04-26T10:25:29.719Z</time></trkpt><trkpt lat="42.4797046" lon="12.8899966"><ele>524.0</ele><time>2026-04-26T10:25:30.72Z</time></trkpt><trkpt lat="42.4796198" lon="12.8900625"><ele>524.0</ele><time>2026-04-26T10:25:31.72Z</time></trkpt><trkpt lat="42.4795462" lon="12.8901211"><ele>524.0</ele><time>2026-04-26T10:25:32.72Z</time></trkpt><trkpt lat="42.4794801" lon="12.890174"><ele>524.0</ele><time>2026-04-26T10:25:33.719Z</time></trkpt><trkpt lat="42.4794161" lon="12.8902228"><ele>524.0</ele><time>2026-04-26T10:25:34.719Z</time></trkpt><trkpt lat="42.4793427" lon="12.8902605"><ele>524.0</ele><time>2026-04-26T10:25:35.719Z</time></trkpt><trkpt lat="42.479262" lon="12.8902893"><ele>524.5</ele><time>2026-04-26T10:25:36.719Z</time></trkpt><trkpt lat="42.4791877" lon="12.89034"><ele>525.0</ele><time>2026-04-26T10:25:37.72Z</time></trkpt><trkpt lat="42.4791319" lon="12.890434"><ele>525.5</ele><time>2026-04-26T10:25:38.719Z</time></trkpt><trkpt lat="42.4790895" lon="12.8905366"><ele>526.0</ele><time>2026-04-26T10:25:39.719Z</time></trkpt><trkpt lat="42.4790466" lon="12.8906369"><ele>526.5</ele><time>2026-04-26T10:25:40.72Z</time></trkpt><trkpt lat="42.478998" lon="12.8907352"><ele>527.0</ele><time>2026-04-26T10:25:41.72Z</time></trkpt><trkpt lat="42.4789262" lon="12.8908164"><ele>527.0</ele><time>2026-04-26T10:25:42.719Z</time></trkpt><trkpt lat="42.4788442" lon="12.8908914"><ele>527.0</ele><time>2026-04-26T10:25:43.719Z</time></trkpt><trkpt lat="42.4787629" lon="12.8909799"><ele>527.0</ele><time>2026-04-26T10:25:44.719Z</time></trkpt><trkpt lat="42.478683" lon="12.891076"><ele>527.0</ele><time>2026-04-26T10:25:45.719Z</time></trkpt><trkpt lat="42.4786061" lon="12.8911739"><ele>527.0</ele><time>2026-04-26T10:25:46.72Z</time></trkpt><trkpt lat="42.4785198" lon="12.8912494"><ele>526.0</ele><time>2026-04-26T10:25:47.719Z</time></trkpt><trkpt lat="42.4784179" lon="12.8912966"><ele>525.0</ele><time>2026-04-26T10:25:48.719Z</time></trkpt><trkpt lat="42.4783077" lon="12.8913185"><ele>524.0</ele><time>2026-04-26T10:25:49.719Z</time></trkpt><trkpt lat="42.4781911" lon="12.8913331"><ele>523.0</ele><time>2026-04-26T10:25:50.719Z</time></trkpt><trkpt lat="42.4780755" lon="12.8913484"><ele>523.0</ele><time>2026-04-26T10:25:51.718Z</time></trkpt><trkpt lat="42.4779606" lon="12.8913572"><ele>523.0</ele><time>2026-04-26T10:25:52.72Z</time></trkpt><trkpt lat="42.4778463" lon="12.8913631"><ele>523.0</ele><time>2026-04-26T10:25:53.72Z</time></trkpt><trkpt lat="42.4777311" lon="12.8913694"><ele>523.0</ele><time>2026-04-26T10:25:54.72Z</time></trkpt><trkpt lat="42.4776071" lon="12.891382"><ele>519.0</ele><time>2026-04-26T10:25:55.719Z</time></trkpt><trkpt lat="42.4774645" lon="12.8914382"><ele>515.0</ele><time>2026-04-26T10:25:56.718Z</time></trkpt><trkpt lat="42.4773049" lon="12.8915437"><ele>511.0</ele><time>2026-04-26T10:25:57.719Z</time></trkpt><trkpt lat="42.4771555" lon="12.8916381"><ele>513.0</ele><time>2026-04-26T10:25:58.718Z</time></trkpt><trkpt lat="42.4770038" lon="12.8916992"><ele>515.0</ele><time>2026-04-26T10:25:59.718Z</time></trkpt><trkpt lat="42.4768566" lon="12.8917507"><ele>517.0</ele><time>2026-04-26T10:26:00.719Z</time></trkpt><trkpt lat="42.4767155" lon="12.8917884"><ele>517.0</ele><time>2026-04-26T10:26:01.719Z</time></trkpt><trkpt lat="42.4765865" lon="12.8918192"><ele>517.0</ele><time>2026-04-26T10:26:02.718Z</time></trkpt><trkpt lat="42.4764837" lon="12.891865"><ele>517.0</ele><time>2026-04-26T10:26:03.718Z</time></trkpt><trkpt lat="42.4763834" lon="12.8919476"><ele>517.0</ele><time>2026-04-26T10:26:04.719Z</time></trkpt><trkpt lat="42.4762894" lon="12.892047"><ele>516.25</ele><time>2026-04-26T10:26:05.719Z</time></trkpt><trkpt lat="42.476193" lon="12.8921537"><ele>515.5</ele><time>2026-04-26T10:26:06.72Z</time></trkpt><trkpt lat="42.476094" lon="12.8922392"><ele>514.75</ele><time>2026-04-26T10:26:07.718Z</time></trkpt><trkpt lat="42.4759962" lon="12.892286"><ele>514.0</ele><time>2026-04-26T10:26:08.718Z</time></trkpt><trkpt lat="42.4758912" lon="12.8922996"><ele>514.0</ele><time>2026-04-26T10:26:09.719Z</time></trkpt><trkpt lat="42.475773" lon="12.8922895"><ele>514.0</ele><time>2026-04-26T10:26:10.718Z</time></trkpt><trkpt lat="42.4756517" lon="12.8922933"><ele>514.0</ele><time>2026-04-26T10:26:11.718Z</time></trkpt><trkpt lat="42.4755368" lon="12.8923302"><ele>514.0</ele><time>2026-04-26T10:26:12.717Z</time></trkpt><trkpt lat="42.4754369" lon="12.8923785"><ele>516.2</ele><time>2026-04-26T10:26:13.719Z</time></trkpt><trkpt lat="42.4753525" lon="12.8923997"><ele>518.4</ele><time>2026-04-26T10:26:14.718Z</time></trkpt><trkpt lat="42.4752636" lon="12.8923898"><ele>520.6</ele><time>2026-04-26T10:26:15.718Z</time></trkpt><trkpt lat="42.4751618" lon="12.8923571"><ele>522.8</ele><time>2026-04-26T10:26:16.718Z</time></trkpt><trkpt lat="42.475056" lon="12.8923377"><ele>525.0</ele><time>2026-04-26T10:26:17.718Z</time></trkpt><trkpt lat="42.4749525" lon="12.8923204"><ele>525.0</ele><time>2026-04-26T10:26:18.718Z</time></trkpt><trkpt lat="42.474858" lon="12.8923012"><ele>525.0</ele><time>2026-04-26T10:26:19.719Z</time></trkpt><trkpt lat="42.4747664" lon="12.8922855"><ele>525.0</ele><time>2026-04-26T10:26:20.718Z</time></trkpt><trkpt lat="42.4746785" lon="12.892264"><ele>525.0</ele><time>2026-04-26T10:26:21.717Z</time></trkpt><trkpt lat="42.4745924" lon="12.8922376"><ele>525.0</ele><time>2026-04-26T10:26:22.718Z</time></trkpt><trkpt lat="42.4744988" lon="12.8922099"><ele>525.5</ele><time>2026-04-26T10:26:23.718Z</time></trkpt><trkpt lat="42.4743952" lon="12.8921827"><ele>526.0</ele><time>2026-04-26T10:26:24.717Z</time></trkpt><trkpt lat="42.4742835" lon="12.892154"><ele>526.5</ele><time>2026-04-26T10:26:25.719Z</time></trkpt><trkpt lat="42.4741688" lon="12.8921225"><ele>527.0</ele><time>2026-04-26T10:26:26.718Z</time></trkpt><trkpt lat="42.4740553" lon="12.8920875"><ele>527.0</ele><time>2026-04-26T10:26:27.718Z</time></trkpt><trkpt lat="42.4739438" lon="12.8920436"><ele>527.0</ele><time>2026-04-26T10:26:28.718Z</time></trkpt><trkpt lat="42.4738436" lon="12.8920019"><ele>527.0</ele><time>2026-04-26T10:26:29.718Z</time></trkpt><trkpt lat="42.4737524" lon="12.8919704"><ele>527.0</ele><time>2026-04-26T10:26:30.718Z</time></trkpt><trkpt lat="42.4736666" lon="12.8919364"><ele>527.0</ele><time>2026-04-26T10:26:31.718Z</time></trkpt><trkpt lat="42.4735964" lon="12.8918745"><ele>527.0</ele><time>2026-04-26T10:26:32.718Z</time></trkpt><trkpt lat="42.4735505" lon="12.891781"><ele>527.0</ele><time>2026-04-26T10:26:33.718Z</time></trkpt><trkpt lat="42.473526" lon="12.8916516"><ele>527.0</ele><time>2026-04-26T10:26:34.718Z</time></trkpt><trkpt lat="42.473501" lon="12.8915295"><ele>527.0</ele><time>2026-04-26T10:26:35.719Z</time></trkpt><trkpt lat="42.4734738" lon="12.8914199"><ele>527.0</ele><time>2026-04-26T10:26:36.717Z</time></trkpt><trkpt lat="42.473427" lon="12.8913304"><ele>527.0</ele><time>2026-04-26T10:26:37.718Z</time></trkpt><trkpt lat="42.4733666" lon="12.8912652"><ele>524.6</ele><time>2026-04-26T10:26:38.718Z</time></trkpt><trkpt lat="42.4733032" lon="12.891209"><ele>522.2</ele><time>2026-04-26T10:26:39.718Z</time></trkpt><trkpt lat="42.4732134" lon="12.8911297"><ele>519.8</ele><time>2026-04-26T10:26:41.717Z</time></trkpt><trkpt lat="42.4731015" lon="12.8911148"><ele>517.4</ele><time>2026-04-26T10:26:43.718Z</time></trkpt><trkpt lat="42.4730165" lon="12.8911198"><ele>515.0</ele><time>2026-04-26T10:26:44.718Z</time></trkpt><trkpt lat="42.4729204" lon="12.8911092"><ele>515.0</ele><time>2026-04-26T10:26:45.717Z</time></trkpt><trkpt lat="42.4728222" lon="12.8910642"><ele>515.0</ele><time>2026-04-26T10:26:46.719Z</time></trkpt><trkpt lat="42.4727192" lon="12.8909767"><ele>515.0</ele><time>2026-04-26T10:26:47.719Z</time></trkpt><trkpt lat="42.472604" lon="12.8908645"><ele>515.0</ele><time>2026-04-26T10:26:48.718Z</time></trkpt><trkpt lat="42.4724888" lon="12.8907493"><ele>513.75</ele><time>2026-04-26T10:26:49.719Z</time></trkpt><trkpt lat="42.4723676" lon="12.8906353"><ele>512.5</ele><time>2026-04-26T10:26:50.719Z</time></trkpt><trkpt lat="42.4722544" lon="12.8905177"><ele>511.25</ele><time>2026-04-26T10:26:51.718Z</time></trkpt><trkpt lat="42.4721412" lon="12.8904007"><ele>510.0</ele><time>2026-04-26T10:26:52.719Z</time></trkpt><trkpt lat="42.4720326" lon="12.8902875"><ele>510.0</ele><time>2026-04-26T10:26:53.718Z</time></trkpt><trkpt lat="42.4719346" lon="12.8901845"><ele>510.0</ele><time>2026-04-26T10:26:54.718Z</time></trkpt><trkpt lat="42.4718429" lon="12.890089"><ele>510.0</ele><time>2026-04-26T10:26:55.718Z</time></trkpt><trkpt lat="42.4717581" lon="12.8900213"><ele>510.0</ele><time>2026-04-26T10:26:56.717Z</time></trkpt><trkpt lat="42.4716726" lon="12.8899983"><ele>510.0</ele><time>2026-04-26T10:26:57.717Z</time></trkpt><trkpt lat="42.4715997" lon="12.8900417"><ele>510.0</ele><time>2026-04-26T10:26:58.719Z</time></trkpt><trkpt lat="42.4715589" lon="12.8901374"><ele>510.0</ele><time>2026-04-26T10:26:59.718Z</time></trkpt><trkpt lat="42.4715582" lon="12.8902679"><ele>510.0</ele><time>2026-04-26T10:27:00.719Z</time></trkpt><trkpt lat="42.4715958" lon="12.8904254"><ele>510.0</ele><time>2026-04-26T10:27:01.719Z</time></trkpt><trkpt lat="42.4716604" lon="12.8906109"><ele>510.0</ele><time>2026-04-26T10:27:02.719Z</time></trkpt><trkpt lat="42.4717297" lon="12.8908153"><ele>510.0</ele><time>2026-04-26T10:27:03.718Z</time></trkpt><trkpt lat="42.4718073" lon="12.8910448"><ele>510.0</ele><time>2026-04-26T10:27:04.718Z</time></trkpt><trkpt lat="42.4718863" lon="12.8912711"><ele>511.66666666666663</ele><time>2026-04-26T10:27:05.717Z</time></trkpt><trkpt lat="42.4719619" lon="12.8914778"><ele>513.3333333333333</ele><time>2026-04-26T10:27:06.718Z</time></trkpt><trkpt lat="42.4720352" lon="12.8916722"><ele>515.0</ele><time>2026-04-26T10:27:07.718Z</time></trkpt><trkpt lat="42.4720992" lon="12.8918533"><ele>517.75</ele><time>2026-04-26T10:27:08.718Z</time></trkpt><trkpt lat="42.4721596" lon="12.8920139"><ele>520.5</ele><time>2026-04-26T10:27:09.718Z</time></trkpt><trkpt lat="42.4722099" lon="12.892163"><ele>523.25</ele><time>2026-04-26T10:27:10.718Z</time></trkpt><trkpt lat="42.4722344" lon="12.892315"><ele>526.0</ele><time>2026-04-26T10:27:11.718Z</time></trkpt><trkpt lat="42.472222" lon="12.8924564"><ele>526.0</ele><time>2026-04-26T10:27:12.719Z</time></trkpt><trkpt lat="42.4721671" lon="12.8925798"><ele>526.0</ele><time>2026-04-26T10:27:13.718Z</time></trkpt><trkpt lat="42.4720748" lon="12.8926911"><ele>526.0</ele><time>2026-04-26T10:27:14.718Z</time></trkpt><trkpt lat="42.4719552" lon="12.8927953"><ele>526.0</ele><time>2026-04-26T10:27:15.718Z</time></trkpt><trkpt lat="42.4718155" lon="12.8929108"><ele>529.0</ele><time>2026-04-26T10:27:16.719Z</time></trkpt><trkpt lat="42.4716794" lon="12.8930344"><ele>532.0</ele><time>2026-04-26T10:27:17.719Z</time></trkpt><trkpt lat="42.4715463" lon="12.8931539"><ele>535.0</ele><time>2026-04-26T10:27:18.718Z</time></trkpt><trkpt lat="42.4714169" lon="12.8932671"><ele>535.0</ele><time>2026-04-26T10:27:19.718Z</time></trkpt><trkpt lat="42.4712829" lon="12.8933702"><ele>535.0</ele><time>2026-04-26T10:27:20.719Z</time></trkpt><trkpt lat="42.4711347" lon="12.8934468"><ele>535.0</ele><time>2026-04-26T10:27:21.718Z</time></trkpt><trkpt lat="42.4709817" lon="12.8934981"><ele>543.3333333333334</ele><time>2026-04-26T10:27:22.718Z</time></trkpt><trkpt lat="42.4708231" lon="12.8935429"><ele>551.6666666666666</ele><time>2026-04-26T10:27:23.719Z</time></trkpt><trkpt lat="42.4706623" lon="12.8935454"><ele>560.0</ele><time>2026-04-26T10:27:24.718Z</time></trkpt><trkpt lat="42.4705022" lon="12.8935382"><ele>560.3333333333333</ele><time>2026-04-26T10:27:25.717Z</time></trkpt><trkpt lat="42.4703419" lon="12.8935294"><ele>560.6666666666666</ele><time>2026-04-26T10:27:26.718Z</time></trkpt><trkpt lat="42.470183" lon="12.8935161"><ele>561.0</ele><time>2026-04-26T10:27:27.718Z</time></trkpt><trkpt lat="42.4700332" lon="12.8934857"><ele>561.0</ele><time>2026-04-26T10:27:28.718Z</time></trkpt><trkpt lat="42.4698899" lon="12.8934258"><ele>561.0</ele><time>2026-04-26T10:27:29.717Z</time></trkpt><trkpt lat="42.4697725" lon="12.8933263"><ele>561.0</ele><time>2026-04-26T10:27:30.717Z</time></trkpt><trkpt lat="42.4696627" lon="12.8932263"><ele>561.0</ele><time>2026-04-26T10:27:31.718Z</time></trkpt><trkpt lat="42.4695585" lon="12.8931243"><ele>560.0</ele><time>2026-04-26T10:27:32.718Z</time></trkpt><trkpt lat="42.4694597" lon="12.8930363"><ele>559.0</ele><time>2026-04-26T10:27:33.718Z</time></trkpt><trkpt lat="42.4693603" lon="12.892965"><ele>558.0</ele><time>2026-04-26T10:27:34.718Z</time></trkpt><trkpt lat="42.4692511" lon="12.8929345"><ele>557.0</ele><time>2026-04-26T10:27:35.718Z</time></trkpt><trkpt lat="42.4691229" lon="12.8929622"><ele>557.0</ele><time>2026-04-26T10:27:36.719Z</time></trkpt><trkpt lat="42.4689958" lon="12.8930242"><ele>557.0</ele><time>2026-04-26T10:27:37.718Z</time></trkpt><trkpt lat="42.4688656" lon="12.8931079"><ele>557.0</ele><time>2026-04-26T10:27:38.719Z</time></trkpt><trkpt lat="42.4687419" lon="12.8932056"><ele>557.0</ele><time>2026-04-26T10:27:39.719Z</time></trkpt><trkpt lat="42.4686284" lon="12.8933281"><ele>555.75</ele><time>2026-04-26T10:27:40.718Z</time></trkpt><trkpt lat="42.4685384" lon="12.8934552"><ele>554.5</ele><time>2026-04-26T10:27:41.718Z</time></trkpt><trkpt lat="42.4684676" lon="12.893582"><ele>553.25</ele><time>2026-04-26T10:27:42.718Z</time></trkpt><trkpt lat="42.4684221" lon="12.8937376"><ele>552.0</ele><time>2026-04-26T10:27:43.717Z</time></trkpt><trkpt lat="42.4684158" lon="12.8939182"><ele>552.0</ele><time>2026-04-26T10:27:44.718Z</time></trkpt><trkpt lat="42.468442" lon="12.8941168"><ele>552.0</ele><time>2026-04-26T10:27:45.718Z</time></trkpt><trkpt lat="42.4684835" lon="12.8943225"><ele>552.0</ele><time>2026-04-26T10:27:46.717Z</time></trkpt><trkpt lat="42.4685286" lon="12.8945068"><ele>552.0</ele><time>2026-04-26T10:27:47.718Z</time></trkpt><trkpt lat="42.468565" lon="12.8946805"><ele>553.25</ele><time>2026-04-26T10:27:48.719Z</time></trkpt><trkpt lat="42.4685711" lon="12.8948492"><ele>554.5</ele><time>2026-04-26T10:27:49.718Z</time></trkpt><trkpt lat="42.4685507" lon="12.8950187"><ele>555.75</ele><time>2026-04-26T10:27:50.718Z</time></trkpt><trkpt lat="42.468516" lon="12.8951699"><ele>557.0</ele><time>2026-04-26T10:27:51.717Z</time></trkpt><trkpt lat="42.4684161" lon="12.8952958"><ele>559.25</ele><time>2026-04-26T10:27:52.718Z</time></trkpt><trkpt lat="42.4683518" lon="12.8954218"><ele>561.5</ele><time>2026-04-26T10:27:53.718Z</time></trkpt><trkpt lat="42.4683168" lon="12.8955895"><ele>563.75</ele><time>2026-04-26T10:27:54.718Z</time></trkpt><trkpt lat="42.4683101" lon="12.8957849"><ele>566.0</ele><time>2026-04-26T10:27:55.719Z</time></trkpt><trkpt lat="42.4683252" lon="12.8959888"><ele>569.6666666666666</ele><time>2026-04-26T10:27:56.719Z</time></trkpt><trkpt lat="42.4683485" lon="12.89619"><ele>573.3333333333334</ele><time>2026-04-26T10:27:57.718Z</time></trkpt><trkpt lat="42.4683641" lon="12.8963917"><ele>577.0</ele><time>2026-04-26T10:27:58.717Z</time></trkpt><trkpt lat="42.4683688" lon="12.8966059"><ele>581.0</ele><time>2026-04-26T10:27:59.718Z</time></trkpt><trkpt lat="42.4683627" lon="12.8968302"><ele>585.0</ele><time>2026-04-26T10:28:00.719Z</time></trkpt><trkpt lat="42.4683406" lon="12.8970487"><ele>589.0</ele><time>2026-04-26T10:28:01.719Z</time></trkpt><trkpt lat="42.4682935" lon="12.897263"><ele>589.0</ele><time>2026-04-26T10:28:02.718Z</time></trkpt><trkpt lat="42.46822" lon="12.8974578"><ele>589.0</ele><time>2026-04-26T10:28:03.717Z</time></trkpt><trkpt lat="42.4681443" lon="12.8976331"><ele>589.0</ele><time>2026-04-26T10:28:04.718Z</time></trkpt><trkpt lat="42.4680805" lon="12.8977976"><ele>589.0</ele><time>2026-04-26T10:28:05.719Z</time></trkpt><trkpt lat="42.4680463" lon="12.8979583"><ele>592.75</ele><time>2026-04-26T10:28:06.718Z</time></trkpt><trkpt lat="42.4680623" lon="12.8981244"><ele>596.5</ele><time>2026-04-26T10:28:07.718Z</time></trkpt><trkpt lat="42.4680787" lon="12.8983046"><ele>600.25</ele><time>2026-04-26T10:28:08.718Z</time></trkpt><trkpt lat="42.4680565" lon="12.8984799"><ele>604.0</ele><time>2026-04-26T10:28:09.718Z</time></trkpt><trkpt lat="42.4679994" lon="12.8986459"><ele>607.5</ele><time>2026-04-26T10:28:10.719Z</time></trkpt><trkpt lat="42.4679434" lon="12.8988154"><ele>611.0</ele><time>2026-04-26T10:28:11.718Z</time></trkpt><trkpt lat="42.4679165" lon="12.8990111"><ele>614.5</ele><time>2026-04-26T10:28:12.719Z</time></trkpt><trkpt lat="42.4679013" lon="12.8992159"><ele>618.0</ele><time>2026-04-26T10:28:13.718Z</time></trkpt><trkpt lat="42.4678832" lon="12.8994062"><ele>614.0</ele><time>2026-04-26T10:28:14.718Z</time></trkpt><trkpt lat="42.4678482" lon="12.8995912"><ele>610.0</ele><time>2026-04-26T10:28:15.719Z</time></trkpt><trkpt lat="42.4677998" lon="12.8997766"><ele>606.0</ele><time>2026-04-26T10:28:16.718Z</time></trkpt><trkpt lat="42.4677545" lon="12.8999716"><ele>602.0</ele><time>2026-04-26T10:28:17.717Z</time></trkpt><trkpt lat="42.4676885" lon="12.9001558"><ele>602.0</ele><time>2026-04-26T10:28:18.718Z</time></trkpt><trkpt lat="42.4676308" lon="12.9003311"><ele>602.0</ele><time>2026-04-26T10:28:19.719Z</time></trkpt><trkpt lat="42.4675716" lon="12.9004936"><ele>602.0</ele><time>2026-04-26T10:28:20.718Z</time></trkpt><trkpt lat="42.4675232" lon="12.9006572"><ele>602.0</ele><time>2026-04-26T10:28:21.716Z</time></trkpt><trkpt lat="42.46749" lon="12.9008176"><ele>603.2</ele><time>2026-04-26T10:28:22.717Z</time></trkpt><trkpt lat="42.4674601" lon="12.9009731"><ele>604.4000000000001</ele><time>2026-04-26T10:28:23.718Z</time></trkpt><trkpt lat="42.4674271" lon="12.9011207"><ele>605.5999999999999</ele><time>2026-04-26T10:28:24.716Z</time></trkpt><trkpt lat="42.4673901" lon="12.9012554"><ele>606.8</ele><time>2026-04-26T10:28:25.717Z</time></trkpt><trkpt lat="42.467353" lon="12.9013816"><ele>608.0</ele><time>2026-04-26T10:28:26.718Z</time></trkpt><trkpt lat="42.4673147" lon="12.9015044"><ele>608.0</ele><time>2026-04-26T10:28:27.717Z</time></trkpt><trkpt lat="42.4672793" lon="12.9016202"><ele>608.0</ele><time>2026-04-26T10:28:28.718Z</time></trkpt><trkpt lat="42.4672604" lon="12.9017268"><ele>608.0</ele><time>2026-04-26T10:28:29.717Z</time></trkpt><trkpt lat="42.4672588" lon="12.9018166"><ele>608.0</ele><time>2026-04-26T10:28:30.718Z</time></trkpt><trkpt lat="42.467259" lon="12.9019041"><ele>608.0</ele><time>2026-04-26T10:28:31.717Z</time></trkpt><trkpt lat="42.4672662" lon="12.9020409"><ele>608.0</ele><time>2026-04-26T10:28:33.717Z</time></trkpt><trkpt lat="42.4672888" lon="12.9021327"><ele>606.8</ele><time>2026-04-26T10:28:42.718Z</time></trkpt><trkpt lat="42.4674231" lon="12.9021749"><ele>605.5999999999999</ele><time>2026-04-26T10:29:36.718Z</time></trkpt><trkpt lat="42.4675111" lon="12.9021824"><ele>604.4000000000001</ele><time>2026-04-26T10:29:37.717Z</time></trkpt><trkpt lat="42.4676009" lon="12.9021821"><ele>603.2</ele><time>2026-04-26T10:29:38.717Z</time></trkpt><trkpt lat="42.4676795" lon="12.9021781"><ele>602.0</ele><time>2026-04-26T10:29:39.716Z</time></trkpt><trkpt lat="42.4677518" lon="12.902173"><ele>602.0</ele><time>2026-04-26T10:29:40.717Z</time></trkpt><trkpt lat="42.4678308" lon="12.9021788"><ele>602.0</ele><time>2026-04-26T10:29:41.717Z</time></trkpt><trkpt lat="42.4679177" lon="12.9021875"><ele>602.0</ele><time>2026-04-26T10:29:42.718Z</time></trkpt><trkpt lat="42.4679964" lon="12.9022242"><ele>602.0</ele><time>2026-04-26T10:29:43.718Z</time></trkpt><trkpt lat="42.4680675" lon="12.9022724"><ele>602.0</ele><time>2026-04-26T10:29:44.717Z</time></trkpt><trkpt lat="42.4681387" lon="12.9023411"><ele>602.0</ele><time>2026-04-26T10:29:45.718Z</time></trkpt><trkpt lat="42.4682085" lon="12.9024226"><ele>603.6666666666666</ele><time>2026-04-26T10:29:46.718Z</time></trkpt><trkpt lat="42.4682705" lon="12.9025204"><ele>605.3333333333333</ele><time>2026-04-26T10:29:47.718Z</time></trkpt><trkpt lat="42.4683218" lon="12.9026239"><ele>607.0</ele><time>2026-04-26T10:29:48.717Z</time></trkpt><trkpt lat="42.4683517" lon="12.9027178"><ele>608.6666666666666</ele><time>2026-04-26T10:29:49.717Z</time></trkpt><trkpt lat="42.4683709" lon="12.9028098"><ele>610.3333333333334</ele><time>2026-04-26T10:29:50.717Z</time></trkpt><trkpt lat="42.468385" lon="12.9029026"><ele>612.0</ele><time>2026-04-26T10:29:51.716Z</time></trkpt><trkpt lat="42.4683955" lon="12.9030014"><ele>612.3333333333334</ele><time>2026-04-26T10:29:52.717Z</time></trkpt><trkpt lat="42.4683994" lon="12.9031085"><ele>612.6666666666666</ele><time>2026-04-26T10:29:53.717Z</time></trkpt><trkpt lat="42.4684018" lon="12.9032087"><ele>613.0</ele><time>2026-04-26T10:29:54.717Z</time></trkpt><trkpt lat="42.4683961" lon="12.9032956"><ele>613.3333333333333</ele><time>2026-04-26T10:29:55.718Z</time></trkpt><trkpt lat="42.4683581" lon="12.9034367"><ele>613.6666666666666</ele><time>2026-04-26T10:29:57.717Z</time></trkpt><trkpt lat="42.4682891" lon="12.9035193"><ele>614.0</ele><time>2026-04-26T10:29:59.717Z</time></trkpt><trkpt lat="42.4681872" lon="12.9035714"><ele>614.8333333333333</ele><time>2026-04-26T10:30:01.717Z</time></trkpt><trkpt lat="42.4680789" lon="12.9036143"><ele>615.6666666666666</ele><time>2026-04-26T10:30:03.717Z</time></trkpt><trkpt lat="42.4680157" lon="12.9036274"><ele>616.5</ele><time>2026-04-26T10:30:04.717Z</time></trkpt><trkpt lat="42.4679411" lon="12.9036331"><ele>617.3333333333334</ele><time>2026-04-26T10:30:05.716Z</time></trkpt><trkpt lat="42.4678623" lon="12.9036368"><ele>618.1666666666667</ele><time>2026-04-26T10:30:06.717Z</time></trkpt><trkpt lat="42.4677865" lon="12.9036338"><ele>619.0</ele><time>2026-04-26T10:30:07.717Z</time></trkpt><trkpt lat="42.4677178" lon="12.9036342"><ele>622.0</ele><time>2026-04-26T10:30:08.716Z</time></trkpt><trkpt lat="42.4676228" lon="12.9036219"><ele>625.0</ele><time>2026-04-26T10:30:10.716Z</time></trkpt><trkpt lat="42.4675646" lon="12.9035807"><ele>628.0</ele><time>2026-04-26T10:30:13.717Z</time></trkpt><trkpt lat="42.4675355" lon="12.9036658"><ele>631.0</ele><time>2026-04-26T10:34:18.715Z</time></trkpt><trkpt lat="42.4674297" lon="12.9037005"><ele>634.0</ele><time>2026-04-26T10:34:22.715Z</time></trkpt><trkpt lat="42.4673232" lon="12.903699"><ele>637.0</ele><time>2026-04-26T10:34:24.715Z</time></trkpt><trkpt lat="42.467233" lon="12.9036961"><ele>637.0</ele><time>2026-04-26T10:34:26.714Z</time></trkpt><trkpt lat="42.4671583" lon="12.9037079"><ele>637.0</ele><time>2026-04-26T10:34:28.715Z</time></trkpt><trkpt lat="42.4670254" lon="12.9037262"><ele>637.0</ele><time>2026-04-26T10:34:30.715Z</time></trkpt><trkpt lat="42.4669451" lon="12.9037246"><ele>637.0</ele><time>2026-04-26T10:34:31.716Z</time></trkpt><trkpt lat="42.4668644" lon="12.903728"><ele>637.0</ele><time>2026-04-26T10:34:32.716Z</time></trkpt><trkpt lat="42.4667879" lon="12.9037271"><ele>637.0</ele><time>2026-04-26T10:34:33.715Z</time></trkpt><trkpt lat="42.4666835" lon="12.9037353"><ele>637.6666666666667</ele><time>2026-04-26T10:34:35.715Z</time></trkpt><trkpt lat="42.4667195" lon="12.9036445"><ele>638.3333333333334</ele><time>2026-04-26T10:34:41.716Z</time></trkpt><trkpt lat="42.4667875" lon="12.9036035"><ele>639.0</ele><time>2026-04-26T10:34:43.714Z</time></trkpt><trkpt lat="42.4668375" lon="12.9034868"><ele>639.6666666666666</ele><time>2026-04-26T10:34:45.715Z</time></trkpt><trkpt lat="42.4668571" lon="12.9033207"><ele>640.3333333333333</ele><time>2026-04-26T10:34:47.713Z</time></trkpt><trkpt lat="42.466867" lon="12.9032293"><ele>641.0</ele><time>2026-04-26T10:34:48.714Z</time></trkpt><trkpt lat="42.4668826" lon="12.9031288"><ele>635.5</ele><time>2026-04-26T10:34:49.715Z</time></trkpt><trkpt lat="42.4668998" lon="12.9030304"><ele>630.0</ele><time>2026-04-26T10:34:50.715Z</time></trkpt><trkpt lat="42.4669157" lon="12.9029256"><ele>624.5</ele><time>2026-04-26T10:34:51.713Z</time></trkpt><trkpt lat="42.4669405" lon="12.9028142"><ele>619.0</ele><time>2026-04-26T10:34:52.713Z</time></trkpt><trkpt lat="42.4669692" lon="12.9027059"><ele>613.5</ele><time>2026-04-26T10:34:53.713Z</time></trkpt><trkpt lat="42.4669965" lon="12.9026192"><ele>608.0</ele><time>2026-04-26T10:34:54.713Z</time></trkpt><trkpt lat="42.4670339" lon="12.9025153"><ele>605.5</ele><time>2026-04-26T10:34:56.715Z</time></trkpt><trkpt lat="42.4670309" lon="12.9023952"><ele>603.0</ele><time>2026-04-26T10:34:59.714Z</time></trkpt><trkpt lat="42.46698" lon="12.9022927"><ele>600.5</ele><time>2026-04-26T10:35:01.715Z</time></trkpt><trkpt lat="42.4669055" lon="12.9021742"><ele>598.0</ele><time>2026-04-26T10:35:03.714Z</time></trkpt><trkpt lat="42.4668626" lon="12.9021082"><ele>595.5</ele><time>2026-04-26T10:35:04.715Z</time></trkpt><trkpt lat="42.4668144" lon="12.9020184"><ele>593.0</ele><time>2026-04-26T10:35:05.715Z</time></trkpt><trkpt lat="42.4667649" lon="12.9019123"><ele>593.0</ele><time>2026-04-26T10:35:06.714Z</time></trkpt><trkpt lat="42.4667274" lon="12.9017885"><ele>593.0</ele><time>2026-04-26T10:35:07.715Z</time></trkpt><trkpt lat="42.4667043" lon="12.9016581"><ele>593.0</ele><time>2026-04-26T10:35:08.714Z</time></trkpt><trkpt lat="42.4666893" lon="12.9015246"><ele>593.0</ele><time>2026-04-26T10:35:09.715Z</time></trkpt><trkpt lat="42.466681" lon="12.9013932"><ele>593.0</ele><time>2026-04-26T10:35:10.715Z</time></trkpt><trkpt lat="42.4666812" lon="12.9012803"><ele>591.6666666666666</ele><time>2026-04-26T10:35:11.714Z</time></trkpt><trkpt lat="42.4666884" lon="12.9011903"><ele>590.3333333333333</ele><time>2026-04-26T10:35:12.713Z</time></trkpt><trkpt lat="42.4666984" lon="12.9010593"><ele>589.0</ele><time>2026-04-26T10:35:14.714Z</time></trkpt><trkpt lat="42.4667149" lon="12.9009738"><ele>587.6666666666666</ele><time>2026-04-26T10:35:16.715Z</time></trkpt><trkpt lat="42.4667411" lon="12.9008617"><ele>586.3333333333334</ele><time>2026-04-26T10:35:18.714Z</time></trkpt><trkpt lat="42.4667816" lon="12.9007379"><ele>585.0</ele><time>2026-04-26T10:35:20.713Z</time></trkpt><trkpt lat="42.4668202" lon="12.9006363"><ele>584.2857142857143</ele><time>2026-04-26T10:35:22.715Z</time></trkpt><trkpt lat="42.4668922" lon="12.9006293"><ele>583.5714285714286</ele><time>2026-04-26T10:35:27.714Z</time></trkpt><trkpt lat="42.4669638" lon="12.900682"><ele>582.8571428571429</ele><time>2026-04-26T10:35:30.715Z</time></trkpt><trkpt lat="42.4670259" lon="12.9007021"><ele>582.1428571428571</ele><time>2026-04-26T10:35:34.713Z</time></trkpt><trkpt lat="42.466957" lon="12.9006915"><ele>581.4285714285714</ele><time>2026-04-26T10:37:13.712Z</time></trkpt><trkpt lat="42.4669058" lon="12.900762"><ele>580.7142857142858</ele><time>2026-04-26T10:37:20.712Z</time></trkpt><trkpt lat="42.4668607" lon="12.9008233"><ele>580.0</ele><time>2026-04-26T10:37:27.723Z</time></trkpt><trkpt lat="42.4668138" lon="12.9008866"><ele>580.0</ele><time>2026-04-26T10:37:37.714Z</time></trkpt><trkpt lat="42.4667901" lon="12.9007981"><ele>580.0</ele><time>2026-04-26T10:38:02.713Z</time></trkpt></trkseg><trkseg><trkpt lat="42.4668812" lon="12.9008367"><ele>580.0</ele><time>2026-04-26T11:34:07.692Z</time></trkpt><trkpt lat="42.4669278" lon="12.9007589"><ele>580.0</ele><time>2026-04-26T11:34:13.691Z</time></trkpt><trkpt lat="42.4669513" lon="12.9006774"><ele>580.0</ele><time>2026-04-26T11:34:18.691Z</time></trkpt><trkpt lat="42.4670138" lon="12.9007032"><ele>580.0</ele><time>2026-04-26T11:34:23.692Z</time></trkpt><trkpt lat="42.4669328" lon="12.9006534"><ele>580.0</ele><time>2026-04-26T11:37:05.692Z</time></trkpt><trkpt lat="42.4668759" lon="12.9006166"><ele>580.0</ele><time>2026-04-26T11:37:09.691Z</time></trkpt><trkpt lat="42.4667865" lon="12.9007269"><ele>580.0</ele><time>2026-04-26T11:37:15.691Z</time></trkpt><trkpt lat="42.4667381" lon="12.9008924"><ele>580.0</ele><time>2026-04-26T11:37:16.69Z</time></trkpt><trkpt lat="42.4667081" lon="12.9010359"><ele>580.0</ele><time>2026-04-26T11:37:17.69Z</time></trkpt><trkpt lat="42.4666895" lon="12.9011814"><ele>580.0</ele><time>2026-04-26T11:37:18.692Z</time></trkpt><trkpt lat="42.4666812" lon="12.9013057"><ele>580.0</ele><time>2026-04-26T11:37:19.69Z</time></trkpt><trkpt lat="42.4666786" lon="12.9014132"><ele>581.0</ele><time>2026-04-26T11:37:20.692Z</time></trkpt><trkpt lat="42.4666817" lon="12.9015017"><ele>582.0</ele><time>2026-04-26T11:37:21.691Z</time></trkpt><trkpt lat="42.4666868" lon="12.9016503"><ele>583.0</ele><time>2026-04-26T11:37:23.692Z</time></trkpt><trkpt lat="42.4667039" lon="12.9017781"><ele>584.0</ele><time>2026-04-26T11:37:25.691Z</time></trkpt><trkpt lat="42.4667366" lon="12.9018725"><ele>585.0</ele><time>2026-04-26T11:37:29.691Z</time></trkpt><trkpt lat="42.4667894" lon="12.902008"><ele>586.3333333333334</ele><time>2026-04-26T11:37:32.692Z</time></trkpt><trkpt lat="42.4668312" lon="12.9020764"><ele>587.6666666666666</ele><time>2026-04-26T11:37:33.692Z</time></trkpt><trkpt lat="42.4668749" lon="12.9021547"><ele>589.0</ele><time>2026-04-26T11:37:34.692Z</time></trkpt><trkpt lat="42.4669229" lon="12.9022278"><ele>590.3333333333333</ele><time>2026-04-26T11:37:35.691Z</time></trkpt><trkpt lat="42.4669926" lon="12.9023433"><ele>591.6666666666666</ele><time>2026-04-26T11:37:37.692Z</time></trkpt><trkpt lat="42.4670722" lon="12.9024355"><ele>593.0</ele><time>2026-04-26T11:37:39.691Z</time></trkpt><trkpt lat="42.4671304" lon="12.9024867"><ele>594.5</ele><time>2026-04-26T11:37:40.692Z</time></trkpt><trkpt lat="42.467198" lon="12.902541"><ele>596.0</ele><time>2026-04-26T11:37:41.692Z</time></trkpt><trkpt lat="42.4672701" lon="12.9026"><ele>597.5</ele><time>2026-04-26T11:37:42.692Z</time></trkpt><trkpt lat="42.4673487" lon="12.9026597"><ele>599.0</ele><time>2026-04-26T11:37:43.691Z</time></trkpt><trkpt lat="42.4674272" lon="12.9027185"><ele>600.5</ele><time>2026-04-26T11:37:44.692Z</time></trkpt><trkpt lat="42.4674939" lon="12.9027654"><ele>602.0</ele><time>2026-04-26T11:37:45.691Z</time></trkpt><trkpt lat="42.4675622" lon="12.9028027"><ele>603.0</ele><time>2026-04-26T11:37:46.691Z</time></trkpt><trkpt lat="42.4676212" lon="12.9028329"><ele>604.0</ele><time>2026-04-26T11:37:47.691Z</time></trkpt><trkpt lat="42.4676826" lon="12.9028621"><ele>605.0</ele><time>2026-04-26T11:37:48.691Z</time></trkpt><trkpt lat="42.4677431" lon="12.9028866"><ele>606.0</ele><time>2026-04-26T11:37:49.69Z</time></trkpt><trkpt lat="42.4678463" lon="12.9029328"><ele>607.0</ele><time>2026-04-26T11:37:51.691Z</time></trkpt><trkpt lat="42.4679133" lon="12.9029487"><ele>608.0</ele><time>2026-04-26T11:37:52.69Z</time></trkpt><trkpt lat="42.467991" lon="12.9029563"><ele>609.0</ele><time>2026-04-26T11:37:53.69Z</time></trkpt><trkpt lat="42.4680789" lon="12.9029499"><ele>610.0</ele><time>2026-04-26T11:37:54.69Z</time></trkpt><trkpt lat="42.4681513" lon="12.9029405"><ele>611.0</ele><time>2026-04-26T11:37:55.692Z</time></trkpt><trkpt lat="42.4682556" lon="12.9029118"><ele>612.0</ele><time>2026-04-26T11:37:57.691Z</time></trkpt><trkpt lat="42.4683356" lon="12.902899"><ele>613.0</ele><time>2026-04-26T11:37:59.692Z</time></trkpt><trkpt lat="42.4683859" lon="12.9029729"><ele>614.0</ele><time>2026-04-26T11:38:01.691Z</time></trkpt><trkpt lat="42.4683948" lon="12.9031447"><ele>614.0</ele><time>2026-04-26T11:38:03.691Z</time></trkpt><trkpt lat="42.4683946" lon="12.9032335"><ele>614.0</ele><time>2026-04-26T11:38:04.691Z</time></trkpt><trkpt lat="42.4683864" lon="12.9033248"><ele>614.0</ele><time>2026-04-26T11:38:05.692Z</time></trkpt><trkpt lat="42.4683383" lon="12.9034621"><ele>614.0</ele><time>2026-04-26T11:38:07.691Z</time></trkpt><trkpt lat="42.4682338" lon="12.9035467"><ele>614.0</ele><time>2026-04-26T11:38:09.691Z</time></trkpt><trkpt lat="42.4681665" lon="12.9035824"><ele>614.0</ele><time>2026-04-26T11:38:10.692Z</time></trkpt><trkpt lat="42.4680952" lon="12.9036144"><ele>615.0</ele><time>2026-04-26T11:38:11.691Z</time></trkpt><trkpt lat="42.468012" lon="12.90363"><ele>616.0</ele><time>2026-04-26T11:38:12.691Z</time></trkpt><trkpt lat="42.4679197" lon="12.9036315"><ele>617.0</ele><time>2026-04-26T11:38:13.691Z</time></trkpt><trkpt lat="42.467825" lon="12.9036337"><ele>618.0</ele><time>2026-04-26T11:38:14.691Z</time></trkpt><trkpt lat="42.4677354" lon="12.9036355"><ele>619.0</ele><time>2026-04-26T11:38:15.69Z</time></trkpt><trkpt lat="42.4676335" lon="12.9036296"><ele>623.5</ele><time>2026-04-26T11:38:16.692Z</time></trkpt><trkpt lat="42.4675192" lon="12.9036351"><ele>628.0</ele><time>2026-04-26T11:38:17.691Z</time></trkpt><trkpt lat="42.467392" lon="12.9036478"><ele>632.5</ele><time>2026-04-26T11:38:18.691Z</time></trkpt><trkpt lat="42.4672634" lon="12.9036575"><ele>637.0</ele><time>2026-04-26T11:38:19.69Z</time></trkpt><trkpt lat="42.4671297" lon="12.903676"><ele>638.0</ele><time>2026-04-26T11:38:20.69Z</time></trkpt><trkpt lat="42.4670027" lon="12.9036882"><ele>639.0</ele><time>2026-04-26T11:38:21.691Z</time></trkpt><trkpt lat="42.4668844" lon="12.903709"><ele>640.0</ele><time>2026-04-26T11:38:22.691Z</time></trkpt><trkpt lat="42.466769" lon="12.903726"><ele>641.0</ele><time>2026-04-26T11:38:23.691Z</time></trkpt><trkpt lat="42.4666555" lon="12.9037289"><ele>641.0</ele><time>2026-04-26T11:38:24.692Z</time></trkpt><trkpt lat="42.4665362" lon="12.9037081"><ele>641.0</ele><time>2026-04-26T11:38:25.691Z</time></trkpt><trkpt lat="42.4664189" lon="12.9036703"><ele>641.0</ele><time>2026-04-26T11:38:26.69Z</time></trkpt><trkpt lat="42.4663024" lon="12.903597"><ele>641.0</ele><time>2026-04-26T11:38:27.69Z</time></trkpt><trkpt lat="42.4661929" lon="12.9035024"><ele>637.5</ele><time>2026-04-26T11:38:28.691Z</time></trkpt><trkpt lat="42.4660745" lon="12.9034174"><ele>634.0</ele><time>2026-04-26T11:38:29.691Z</time></trkpt><trkpt lat="42.4659471" lon="12.9033446"><ele>630.5</ele><time>2026-04-26T11:38:30.691Z</time></trkpt><trkpt lat="42.4658416" lon="12.9032888"><ele>627.0</ele><time>2026-04-26T11:38:31.692Z</time></trkpt><trkpt lat="42.4657421" lon="12.9031858"><ele>627.0</ele><time>2026-04-26T11:38:32.691Z</time></trkpt><trkpt lat="42.4656537" lon="12.9030529"><ele>627.0</ele><time>2026-04-26T11:38:33.691Z</time></trkpt><trkpt lat="42.4655755" lon="12.9029077"><ele>627.0</ele><time>2026-04-26T11:38:34.691Z</time></trkpt><trkpt lat="42.4654802" lon="12.9027728"><ele>627.0</ele><time>2026-04-26T11:38:35.691Z</time></trkpt><trkpt lat="42.4653639" lon="12.9026666"><ele>633.0</ele><time>2026-04-26T11:38:36.692Z</time></trkpt><trkpt lat="42.465261" lon="12.9025724"><ele>639.0</ele><time>2026-04-26T11:38:37.692Z</time></trkpt><trkpt lat="42.4651679" lon="12.9024854"><ele>645.0</ele><time>2026-04-26T11:38:38.69Z</time></trkpt><trkpt lat="42.4650893" lon="12.9023618"><ele>651.0</ele><time>2026-04-26T11:38:39.69Z</time></trkpt><trkpt lat="42.4650413" lon="12.9022086"><ele>651.0</ele><time>2026-04-26T11:38:40.691Z</time></trkpt><trkpt lat="42.4650186" lon="12.9020307"><ele>651.0</ele><time>2026-04-26T11:38:41.691Z</time></trkpt><trkpt lat="42.4650096" lon="12.9018392"><ele>651.0</ele><time>2026-04-26T11:38:42.689Z</time></trkpt><trkpt lat="42.4650077" lon="12.9016416"><ele>651.0</ele><time>2026-04-26T11:38:43.69Z</time></trkpt><trkpt lat="42.4650154" lon="12.9014496"><ele>649.5</ele><time>2026-04-26T11:38:44.691Z</time></trkpt><trkpt lat="42.4650303" lon="12.9012775"><ele>648.0</ele><time>2026-04-26T11:38:45.689Z</time></trkpt><trkpt lat="42.4650639" lon="12.9011148"><ele>646.5</ele><time>2026-04-26T11:38:46.69Z</time></trkpt><trkpt lat="42.465098" lon="12.9009375"><ele>645.0</ele><time>2026-04-26T11:38:47.69Z</time></trkpt><trkpt lat="42.4651327" lon="12.9007452"><ele>645.0</ele><time>2026-04-26T11:38:48.69Z</time></trkpt><trkpt lat="42.4651705" lon="12.9005444"><ele>645.0</ele><time>2026-04-26T11:38:49.691Z</time></trkpt><trkpt lat="42.4652121" lon="12.9003416"><ele>645.0</ele><time>2026-04-26T11:38:50.691Z</time></trkpt><trkpt lat="42.4652435" lon="12.9001502"><ele>648.5</ele><time>2026-04-26T11:38:51.69Z</time></trkpt><trkpt lat="42.465271" lon="12.8999624"><ele>652.0</ele><time>2026-04-26T11:38:52.69Z</time></trkpt><trkpt lat="42.4652947" lon="12.8997788"><ele>655.5</ele><time>2026-04-26T11:38:53.689Z</time></trkpt><trkpt lat="42.4653136" lon="12.8995938"><ele>659.0</ele><time>2026-04-26T11:38:54.69Z</time></trkpt><trkpt lat="42.4653223" lon="12.8994039"><ele>659.3333333333333</ele><time>2026-04-26T11:38:55.69Z</time></trkpt><trkpt lat="42.4653016" lon="12.8992085"><ele>659.6666666666666</ele><time>2026-04-26T11:38:56.69Z</time></trkpt><trkpt lat="42.4652689" lon="12.8990093"><ele>660.0</ele><time>2026-04-26T11:38:57.691Z</time></trkpt><trkpt lat="42.4652349" lon="12.898798"><ele>660.0</ele><time>2026-04-26T11:38:58.691Z</time></trkpt><trkpt lat="42.4652062" lon="12.8985795"><ele>660.0</ele><time>2026-04-26T11:38:59.69Z</time></trkpt><trkpt lat="42.4651919" lon="12.8983476"><ele>660.0</ele><time>2026-04-26T11:39:00.69Z</time></trkpt><trkpt lat="42.4651846" lon="12.8981154"><ele>658.0</ele><time>2026-04-26T11:39:01.691Z</time></trkpt><trkpt lat="42.4651748" lon="12.8978915"><ele>656.0</ele><time>2026-04-26T11:39:02.691Z</time></trkpt><trkpt lat="42.4651572" lon="12.8976726"><ele>654.0</ele><time>2026-04-26T11:39:03.69Z</time></trkpt><trkpt lat="42.4651291" lon="12.8974599"><ele>652.5</ele><time>2026-04-26T11:39:04.69Z</time></trkpt><trkpt lat="42.4650971" lon="12.8972705"><ele>651.0</ele><time>2026-04-26T11:39:05.69Z</time></trkpt><trkpt lat="42.4650597" lon="12.8970937"><ele>649.5</ele><time>2026-04-26T11:39:06.69Z</time></trkpt><trkpt lat="42.4650235" lon="12.8969464"><ele>648.0</ele><time>2026-04-26T11:39:07.69Z</time></trkpt><trkpt lat="42.4649728" lon="12.8968242"><ele>648.2</ele><time>2026-04-26T11:39:08.689Z</time></trkpt><trkpt lat="42.4648915" lon="12.8967163"><ele>648.4</ele><time>2026-04-26T11:39:09.69Z</time></trkpt><trkpt lat="42.4647979" lon="12.8966641"><ele>648.6</ele><time>2026-04-26T11:39:10.691Z</time></trkpt><trkpt lat="42.4647026" lon="12.8966329"><ele>648.8000000000001</ele><time>2026-04-26T11:39:11.69Z</time></trkpt><trkpt lat="42.4645909" lon="12.8966159"><ele>649.0</ele><time>2026-04-26T11:39:12.689Z</time></trkpt><trkpt lat="42.4644686" lon="12.8966095"><ele>649.0</ele><time>2026-04-26T11:39:13.689Z</time></trkpt><trkpt lat="42.4643302" lon="12.8966093"><ele>649.0</ele><time>2026-04-26T11:39:14.69Z</time></trkpt><trkpt lat="42.4641737" lon="12.89662"><ele>649.0</ele><time>2026-04-26T11:39:15.69Z</time></trkpt><trkpt lat="42.464005" lon="12.8966235"><ele>649.0</ele><time>2026-04-26T11:39:16.691Z</time></trkpt><trkpt lat="42.4638316" lon="12.8966198"><ele>649.0</ele><time>2026-04-26T11:39:17.689Z</time></trkpt><trkpt lat="42.4636521" lon="12.8966245"><ele>649.0</ele><time>2026-04-26T11:39:18.691Z</time></trkpt><trkpt lat="42.4634888" lon="12.8966311"><ele>649.5</ele><time>2026-04-26T11:39:19.691Z</time></trkpt><trkpt lat="42.463335" lon="12.8966355"><ele>650.0</ele><time>2026-04-26T11:39:20.689Z</time></trkpt><trkpt lat="42.4631946" lon="12.8966423"><ele>650.5</ele><time>2026-04-26T11:39:21.69Z</time></trkpt><trkpt lat="42.4630686" lon="12.8966557"><ele>651.0</ele><time>2026-04-26T11:39:22.69Z</time></trkpt><trkpt lat="42.4629625" lon="12.8966798"><ele>656.5999999999999</ele><time>2026-04-26T11:39:23.691Z</time></trkpt><trkpt lat="42.4628818" lon="12.896754"><ele>662.2</ele><time>2026-04-26T11:39:24.689Z</time></trkpt><trkpt lat="42.4628244" lon="12.896859"><ele>667.8</ele><time>2026-04-26T11:39:25.689Z</time></trkpt><trkpt lat="42.4628119" lon="12.8969747"><ele>673.4000000000001</ele><time>2026-04-26T11:39:26.69Z</time></trkpt><trkpt lat="42.4628414" lon="12.8970842"><ele>679.0</ele><time>2026-04-26T11:39:27.69Z</time></trkpt><trkpt lat="42.4629157" lon="12.8971716"><ele>676.5</ele><time>2026-04-26T11:39:28.69Z</time></trkpt><trkpt lat="42.4630231" lon="12.8972374"><ele>674.0</ele><time>2026-04-26T11:39:29.69Z</time></trkpt><trkpt lat="42.4631579" lon="12.8972894"><ele>671.5</ele><time>2026-04-26T11:39:30.69Z</time></trkpt><trkpt lat="42.4633039" lon="12.8973429"><ele>669.0</ele><time>2026-04-26T11:39:31.689Z</time></trkpt><trkpt lat="42.463462" lon="12.8973975"><ele>669.0</ele><time>2026-04-26T11:39:32.691Z</time></trkpt><trkpt lat="42.463628" lon="12.8974542"><ele>669.0</ele><time>2026-04-26T11:39:33.691Z</time></trkpt><trkpt lat="42.4637944" lon="12.8975179"><ele>669.0</ele><time>2026-04-26T11:39:34.69Z</time></trkpt><trkpt lat="42.4639546" lon="12.8975881"><ele>672.25</ele><time>2026-04-26T11:39:35.69Z</time></trkpt><trkpt lat="42.4641022" lon="12.8976582"><ele>675.5</ele><time>2026-04-26T11:39:36.69Z</time></trkpt><trkpt lat="42.4642357" lon="12.8977322"><ele>678.75</ele><time>2026-04-26T11:39:37.69Z</time></trkpt><trkpt lat="42.4643531" lon="12.8978139"><ele>682.0</ele><time>2026-04-26T11:39:38.69Z</time></trkpt><trkpt lat="42.4644505" lon="12.8979037"><ele>682.0</ele><time>2026-04-26T11:39:39.691Z</time></trkpt><trkpt lat="42.4645185" lon="12.8980103"><ele>682.0</ele><time>2026-04-26T11:39:40.69Z</time></trkpt><trkpt lat="42.4645523" lon="12.8981243"><ele>682.0</ele><time>2026-04-26T11:39:41.689Z</time></trkpt><trkpt lat="42.4645533" lon="12.8982627"><ele>682.0</ele><time>2026-04-26T11:39:42.69Z</time></trkpt><trkpt lat="42.4645375" lon="12.8984208"><ele>682.0</ele><time>2026-04-26T11:39:43.69Z</time></trkpt><trkpt lat="42.4645204" lon="12.8985991"><ele>684.0</ele><time>2026-04-26T11:39:44.69Z</time></trkpt><trkpt lat="42.4645035" lon="12.898782"><ele>686.0</ele><time>2026-04-26T11:39:45.69Z</time></trkpt><trkpt lat="42.4645069" lon="12.8989738"><ele>688.0</ele><time>2026-04-26T11:39:46.69Z</time></trkpt><trkpt lat="42.4645271" lon="12.8991649"><ele>690.0</ele><time>2026-04-26T11:39:47.691Z</time></trkpt><trkpt lat="42.4645547" lon="12.8993532"><ele>690.0</ele><time>2026-04-26T11:39:48.689Z</time></trkpt><trkpt lat="42.4645738" lon="12.8995243"><ele>690.0</ele><time>2026-04-26T11:39:49.69Z</time></trkpt><trkpt lat="42.4645797" lon="12.8996868"><ele>690.0</ele><time>2026-04-26T11:39:50.691Z</time></trkpt><trkpt lat="42.4645634" lon="12.8998563"><ele>690.0</ele><time>2026-04-26T11:39:51.69Z</time></trkpt><trkpt lat="42.4645203" lon="12.9000255"><ele>687.75</ele><time>2026-04-26T11:39:52.691Z</time></trkpt><trkpt lat="42.4644557" lon="12.9001849"><ele>685.5</ele><time>2026-04-26T11:39:53.689Z</time></trkpt><trkpt lat="42.4643831" lon="12.9003313"><ele>683.25</ele><time>2026-04-26T11:39:54.689Z</time></trkpt><trkpt lat="42.4643227" lon="12.9004611"><ele>681.0</ele><time>2026-04-26T11:39:55.69Z</time></trkpt><trkpt lat="42.4642625" lon="12.9005861"><ele>681.0</ele><time>2026-04-26T11:39:56.689Z</time></trkpt><trkpt lat="42.46421" lon="12.9007122"><ele>681.0</ele><time>2026-04-26T11:39:57.69Z</time></trkpt><trkpt lat="42.4641693" lon="12.9008455"><ele>681.0</ele><time>2026-04-26T11:39:58.689Z</time></trkpt><trkpt lat="42.4641448" lon="12.9009819"><ele>681.0</ele><time>2026-04-26T11:39:59.69Z</time></trkpt><trkpt lat="42.4641405" lon="12.9011346"><ele>681.0</ele><time>2026-04-26T11:40:00.69Z</time></trkpt><trkpt lat="42.4641454" lon="12.9012913"><ele>680.75</ele><time>2026-04-26T11:40:01.689Z</time></trkpt><trkpt lat="42.464146" lon="12.9014606"><ele>680.5</ele><time>2026-04-26T11:40:02.69Z</time></trkpt><trkpt lat="42.4641551" lon="12.9016281"><ele>680.25</ele><time>2026-04-26T11:40:03.69Z</time></trkpt><trkpt lat="42.464164" lon="12.9017866"><ele>680.0</ele><time>2026-04-26T11:40:04.69Z</time></trkpt><trkpt lat="42.4641729" lon="12.9019336"><ele>680.8</ele><time>2026-04-26T11:40:05.689Z</time></trkpt><trkpt lat="42.4641822" lon="12.9020671"><ele>681.6</ele><time>2026-04-26T11:40:06.69Z</time></trkpt><trkpt lat="42.4641904" lon="12.9021936"><ele>682.4000000000001</ele><time>2026-04-26T11:40:07.691Z</time></trkpt><trkpt lat="42.4641854" lon="12.902305"><ele>683.2</ele><time>2026-04-26T11:40:08.69Z</time></trkpt><trkpt lat="42.4641755" lon="12.9023943"><ele>684.0</ele><time>2026-04-26T11:40:09.691Z</time></trkpt><trkpt lat="42.464087" lon="12.9024931"><ele>684.0</ele><time>2026-04-26T11:40:11.691Z</time></trkpt><trkpt lat="42.4640169" lon="12.9024973"><ele>684.0</ele><time>2026-04-26T11:40:12.691Z</time></trkpt><trkpt lat="42.4639287" lon="12.9024702"><ele>684.0</ele><time>2026-04-26T11:40:13.691Z</time></trkpt><trkpt lat="42.4638275" lon="12.9024198"><ele>684.0</ele><time>2026-04-26T11:40:14.69Z</time></trkpt><trkpt lat="42.463717" lon="12.9023593"><ele>684.0</ele><time>2026-04-26T11:40:15.69Z</time></trkpt><trkpt lat="42.4635939" lon="12.9022892"><ele>683.3333333333334</ele><time>2026-04-26T11:40:16.691Z</time></trkpt><trkpt lat="42.4634572" lon="12.902214"><ele>682.6666666666667</ele><time>2026-04-26T11:40:17.69Z</time></trkpt><trkpt lat="42.4633138" lon="12.902131"><ele>682.0</ele><time>2026-04-26T11:40:18.689Z</time></trkpt><trkpt lat="42.4631566" lon="12.9020474"><ele>682.0</ele><time>2026-04-26T11:40:19.691Z</time></trkpt><trkpt lat="42.4629971" lon="12.9019598"><ele>682.0</ele><time>2026-04-26T11:40:20.69Z</time></trkpt><trkpt lat="42.4628342" lon="12.9018654"><ele>682.0</ele><time>2026-04-26T11:40:21.689Z</time></trkpt><trkpt lat="42.4626734" lon="12.9017735"><ele>679.3333333333334</ele><time>2026-04-26T11:40:22.689Z</time></trkpt><trkpt lat="42.4625163" lon="12.9016839"><ele>676.6666666666666</ele><time>2026-04-26T11:40:23.691Z</time></trkpt><trkpt lat="42.4623617" lon="12.9015928"><ele>674.0</ele><time>2026-04-26T11:40:24.69Z</time></trkpt><trkpt lat="42.4622079" lon="12.9015089"><ele>671.6666666666666</ele><time>2026-04-26T11:40:25.69Z</time></trkpt><trkpt lat="42.4620628" lon="12.9014314"><ele>669.3333333333334</ele><time>2026-04-26T11:40:26.69Z</time></trkpt><trkpt lat="42.4619242" lon="12.9013274"><ele>667.0</ele><time>2026-04-26T11:40:27.69Z</time></trkpt><trkpt lat="42.4617911" lon="12.9011952"><ele>667.0</ele><time>2026-04-26T11:40:28.689Z</time></trkpt><trkpt lat="42.4616557" lon="12.9010534"><ele>667.0</ele><time>2026-04-26T11:40:29.691Z</time></trkpt><trkpt lat="42.4615239" lon="12.9009126"><ele>667.0</ele><time>2026-04-26T11:40:30.69Z</time></trkpt><trkpt lat="42.4613952" lon="12.900779"><ele>665.25</ele><time>2026-04-26T11:40:31.69Z</time></trkpt><trkpt lat="42.4612702" lon="12.900648"><ele>663.5</ele><time>2026-04-26T11:40:32.69Z</time></trkpt><trkpt lat="42.4611538" lon="12.9005314"><ele>661.75</ele><time>2026-04-26T11:40:33.689Z</time></trkpt><trkpt lat="42.4610552" lon="12.9004266"><ele>660.0</ele><time>2026-04-26T11:40:34.69Z</time></trkpt><trkpt lat="42.460962" lon="12.9003285"><ele>660.0</ele><time>2026-04-26T11:40:35.691Z</time></trkpt><trkpt lat="42.4608842" lon="12.9002126"><ele>660.0</ele><time>2026-04-26T11:40:36.689Z</time></trkpt><trkpt lat="42.4608277" lon="12.9000755"><ele>660.0</ele><time>2026-04-26T11:40:37.69Z</time></trkpt><trkpt lat="42.4607907" lon="12.8999067"><ele>660.0</ele><time>2026-04-26T11:40:38.69Z</time></trkpt><trkpt lat="42.4607701" lon="12.8997181"><ele>659.75</ele><time>2026-04-26T11:40:39.69Z</time></trkpt><trkpt lat="42.4607559" lon="12.8995133"><ele>659.5</ele><time>2026-04-26T11:40:40.689Z</time></trkpt><trkpt lat="42.4607444" lon="12.8993086"><ele>659.25</ele><time>2026-04-26T11:40:41.69Z</time></trkpt><trkpt lat="42.4607325" lon="12.8991203"><ele>659.0</ele><time>2026-04-26T11:40:42.69Z</time></trkpt><trkpt lat="42.460716" lon="12.8989441"><ele>659.0</ele><time>2026-04-26T11:40:43.691Z</time></trkpt><trkpt lat="42.4606705" lon="12.8987828"><ele>659.0</ele><time>2026-04-26T11:40:44.691Z</time></trkpt><trkpt lat="42.4605897" lon="12.8986581"><ele>659.0</ele><time>2026-04-26T11:40:45.69Z</time></trkpt><trkpt lat="42.4604802" lon="12.8985672"><ele>659.0</ele><time>2026-04-26T11:40:46.689Z</time></trkpt><trkpt lat="42.4603661" lon="12.8984854"><ele>656.5</ele><time>2026-04-26T11:40:47.691Z</time></trkpt><trkpt lat="42.460248" lon="12.8983839"><ele>654.0</ele><time>2026-04-26T11:40:48.691Z</time></trkpt><trkpt lat="42.4601407" lon="12.8982645"><ele>651.5</ele><time>2026-04-26T11:40:49.691Z</time></trkpt><trkpt lat="42.4600414" lon="12.8981406"><ele>649.0</ele><time>2026-04-26T11:40:50.69Z</time></trkpt><trkpt lat="42.4599486" lon="12.8980156"><ele>649.0</ele><time>2026-04-26T11:40:51.69Z</time></trkpt><trkpt lat="42.4598603" lon="12.897905"><ele>649.0</ele><time>2026-04-26T11:40:52.691Z</time></trkpt><trkpt lat="42.4597816" lon="12.8978149"><ele>649.0</ele><time>2026-04-26T11:40:53.69Z</time></trkpt><trkpt lat="42.4596939" lon="12.8977633"><ele>649.0</ele><time>2026-04-26T11:40:54.691Z</time></trkpt><trkpt lat="42.4595946" lon="12.8977657"><ele>649.0</ele><time>2026-04-26T11:40:55.689Z</time></trkpt><trkpt lat="42.4594908" lon="12.8978143"><ele>647.5</ele><time>2026-04-26T11:40:56.689Z</time></trkpt><trkpt lat="42.459383" lon="12.8978719"><ele>646.0</ele><time>2026-04-26T11:40:57.689Z</time></trkpt><trkpt lat="42.4592652" lon="12.8979426"><ele>644.5</ele><time>2026-04-26T11:40:58.689Z</time></trkpt><trkpt lat="42.4591364" lon="12.8980155"><ele>643.0</ele><time>2026-04-26T11:40:59.689Z</time></trkpt><trkpt lat="42.4590127" lon="12.8980932"><ele>643.0</ele><time>2026-04-26T11:41:00.688Z</time></trkpt><trkpt lat="42.4588904" lon="12.8981693"><ele>643.0</ele><time>2026-04-26T11:41:01.69Z</time></trkpt><trkpt lat="42.4587718" lon="12.8982391"><ele>643.0</ele><time>2026-04-26T11:41:02.688Z</time></trkpt><trkpt lat="42.4586401" lon="12.8983028"><ele>643.0</ele><time>2026-04-26T11:41:03.69Z</time></trkpt><trkpt lat="42.4585019" lon="12.8983625"><ele>639.0</ele><time>2026-04-26T11:41:04.689Z</time></trkpt><trkpt lat="42.4583595" lon="12.8984207"><ele>635.0</ele><time>2026-04-26T11:41:05.69Z</time></trkpt><trkpt lat="42.4582076" lon="12.8984867"><ele>631.0</ele><time>2026-04-26T11:41:06.688Z</time></trkpt><trkpt lat="42.4580558" lon="12.8985439"><ele>630.6666666666667</ele><time>2026-04-26T11:41:07.689Z</time></trkpt><trkpt lat="42.4579092" lon="12.8986051"><ele>630.3333333333334</ele><time>2026-04-26T11:41:08.688Z</time></trkpt><trkpt lat="42.4577648" lon="12.8986606"><ele>630.0</ele><time>2026-04-26T11:41:09.69Z</time></trkpt><trkpt lat="42.4576229" lon="12.8987145"><ele>630.0</ele><time>2026-04-26T11:41:10.689Z</time></trkpt><trkpt lat="42.4574841" lon="12.8987693"><ele>630.0</ele><time>2026-04-26T11:41:11.689Z</time></trkpt><trkpt lat="42.4573493" lon="12.8988219"><ele>630.0</ele><time>2026-04-26T11:41:12.689Z</time></trkpt><trkpt lat="42.4572095" lon="12.8988694"><ele>630.0</ele><time>2026-04-26T11:41:13.69Z</time></trkpt><trkpt lat="42.4570665" lon="12.8989169"><ele>630.0</ele><time>2026-04-26T11:41:14.689Z</time></trkpt><trkpt lat="42.4569205" lon="12.8989451"><ele>630.0</ele><time>2026-04-26T11:41:15.689Z</time></trkpt><trkpt lat="42.4567776" lon="12.8989605"><ele>630.0</ele><time>2026-04-26T11:41:16.688Z</time></trkpt><trkpt lat="42.4566388" lon="12.8989667"><ele>630.0</ele><time>2026-04-26T11:41:17.69Z</time></trkpt><trkpt lat="42.4565137" lon="12.8989756"><ele>630.0</ele><time>2026-04-26T11:41:18.689Z</time></trkpt><trkpt lat="42.4564069" lon="12.8990218"><ele>630.0</ele><time>2026-04-26T11:41:19.69Z</time></trkpt><trkpt lat="42.4563136" lon="12.8991102"><ele>630.0</ele><time>2026-04-26T11:41:20.689Z</time></trkpt><trkpt lat="42.4562426" lon="12.8992334"><ele>630.0</ele><time>2026-04-26T11:41:21.689Z</time></trkpt><trkpt lat="42.4561793" lon="12.8993774"><ele>628.0</ele><time>2026-04-26T11:41:22.689Z</time></trkpt><trkpt lat="42.4561085" lon="12.8995176"><ele>626.0</ele><time>2026-04-26T11:41:23.689Z</time></trkpt><trkpt lat="42.4560209" lon="12.8996469"><ele>624.0</ele><time>2026-04-26T11:41:24.69Z</time></trkpt><trkpt lat="42.4559107" lon="12.8997626"><ele>622.0</ele><time>2026-04-26T11:41:25.689Z</time></trkpt><trkpt lat="42.455784" lon="12.8998537"><ele>622.0</ele><time>2026-04-26T11:41:26.69Z</time></trkpt><trkpt lat="42.4556407" lon="12.89993"><ele>622.0</ele><time>2026-04-26T11:41:27.69Z</time></trkpt><trkpt lat="42.4554921" lon="12.9000006"><ele>622.0</ele><time>2026-04-26T11:41:28.689Z</time></trkpt><trkpt lat="42.4553561" lon="12.9000717"><ele>618.75</ele><time>2026-04-26T11:41:29.69Z</time></trkpt><trkpt lat="42.4552405" lon="12.9001601"><ele>615.5</ele><time>2026-04-26T11:41:30.689Z</time></trkpt><trkpt lat="42.4551415" lon="12.9002709"><ele>612.25</ele><time>2026-04-26T11:41:31.69Z</time></trkpt><trkpt lat="42.4550565" lon="12.9003893"><ele>609.0</ele><time>2026-04-26T11:41:32.69Z</time></trkpt><trkpt lat="42.4549669" lon="12.900481"><ele>609.0</ele><time>2026-04-26T11:41:33.689Z</time></trkpt><trkpt lat="42.454862" lon="12.9005138"><ele>609.0</ele><time>2026-04-26T11:41:34.688Z</time></trkpt><trkpt lat="42.4547499" lon="12.9004969"><ele>609.0</ele><time>2026-04-26T11:41:35.688Z</time></trkpt><trkpt lat="42.454635" lon="12.9004361"><ele>609.0</ele><time>2026-04-26T11:41:36.688Z</time></trkpt><trkpt lat="42.4545066" lon="12.9003845"><ele>607.75</ele><time>2026-04-26T11:41:37.689Z</time></trkpt><trkpt lat="42.4543771" lon="12.9003748"><ele>606.5</ele><time>2026-04-26T11:41:38.69Z</time></trkpt><trkpt lat="42.4542535" lon="12.9004016"><ele>605.25</ele><time>2026-04-26T11:41:39.688Z</time></trkpt><trkpt lat="42.4541491" lon="12.9004221"><ele>604.0</ele><time>2026-04-26T11:41:40.688Z</time></trkpt><trkpt lat="42.4540512" lon="12.9004106"><ele>604.0</ele><time>2026-04-26T11:41:41.689Z</time></trkpt><trkpt lat="42.4539772" lon="12.9003509"><ele>604.0</ele><time>2026-04-26T11:41:42.69Z</time></trkpt><trkpt lat="42.453941" lon="12.9002603"><ele>604.0</ele><time>2026-04-26T11:41:43.69Z</time></trkpt><trkpt lat="42.4539451" lon="12.9001441"><ele>604.0</ele><time>2026-04-26T11:41:44.689Z</time></trkpt><trkpt lat="42.4539744" lon="12.8999969"><ele>604.0</ele><time>2026-04-26T11:41:45.689Z</time></trkpt><trkpt lat="42.454007" lon="12.899832"><ele>607.0</ele><time>2026-04-26T11:41:46.689Z</time></trkpt><trkpt lat="42.454043" lon="12.8996527"><ele>610.0</ele><time>2026-04-26T11:41:47.688Z</time></trkpt><trkpt lat="42.4540778" lon="12.8994841"><ele>613.0</ele><time>2026-04-26T11:41:48.689Z</time></trkpt><trkpt lat="42.4541063" lon="12.8993162"><ele>616.0</ele><time>2026-04-26T11:41:49.688Z</time></trkpt><trkpt lat="42.4541127" lon="12.8991617"><ele>616.6</ele><time>2026-04-26T11:41:50.689Z</time></trkpt><trkpt lat="42.4541031" lon="12.8990242"><ele>617.2</ele><time>2026-04-26T11:41:51.689Z</time></trkpt><trkpt lat="42.4540812" lon="12.8988998"><ele>617.8</ele><time>2026-04-26T11:41:52.689Z</time></trkpt><trkpt lat="42.4539923" lon="12.8988487"><ele>618.4</ele><time>2026-04-26T11:41:53.689Z</time></trkpt><trkpt lat="42.4539049" lon="12.8988409"><ele>619.0</ele><time>2026-04-26T11:41:54.688Z</time></trkpt><trkpt lat="42.4538192" lon="12.8988524"><ele>620.75</ele><time>2026-04-26T11:41:55.689Z</time></trkpt><trkpt lat="42.4537428" lon="12.8989262"><ele>622.5</ele><time>2026-04-26T11:41:56.689Z</time></trkpt><trkpt lat="42.4536248" lon="12.8990325"><ele>624.25</ele><time>2026-04-26T11:41:57.689Z</time></trkpt><trkpt lat="42.4535641" lon="12.8992661"><ele>626.0</ele><time>2026-04-26T11:41:58.689Z</time></trkpt><trkpt lat="42.4534742" lon="12.8994005"><ele>621.5</ele><time>2026-04-26T11:41:59.689Z</time></trkpt><trkpt lat="42.4533713" lon="12.8995362"><ele>617.0</ele><time>2026-04-26T11:42:00.689Z</time></trkpt><trkpt lat="42.4532401" lon="12.8996353"><ele>612.5</ele><time>2026-04-26T11:42:01.689Z</time></trkpt><trkpt lat="42.4531113" lon="12.8997129"><ele>608.0</ele><time>2026-04-26T11:42:02.689Z</time></trkpt><trkpt lat="42.4529967" lon="12.89979"><ele>607.5</ele><time>2026-04-26T11:42:03.69Z</time></trkpt><trkpt lat="42.4528957" lon="12.8999115"><ele>607.0</ele><time>2026-04-26T11:42:04.689Z</time></trkpt><trkpt lat="42.4528191" lon="12.9000654"><ele>606.5</ele><time>2026-04-26T11:42:05.688Z</time></trkpt><trkpt lat="42.4527391" lon="12.9002294"><ele>606.0</ele><time>2026-04-26T11:42:06.689Z</time></trkpt><trkpt lat="42.4526522" lon="12.9003832"><ele>606.0</ele><time>2026-04-26T11:42:07.689Z</time></trkpt><trkpt lat="42.4525662" lon="12.9005174"><ele>606.0</ele><time>2026-04-26T11:42:08.689Z</time></trkpt><trkpt lat="42.4524724" lon="12.9006368"><ele>606.0</ele><time>2026-04-26T11:42:09.69Z</time></trkpt><trkpt lat="42.4523677" lon="12.9007306"><ele>606.0</ele><time>2026-04-26T11:42:10.689Z</time></trkpt><trkpt lat="42.45224" lon="12.9007958"><ele>609.25</ele><time>2026-04-26T11:42:11.688Z</time></trkpt><trkpt lat="42.4520989" lon="12.9008415"><ele>612.5</ele><time>2026-04-26T11:42:12.688Z</time></trkpt><trkpt lat="42.4519535" lon="12.9008901"><ele>615.75</ele><time>2026-04-26T11:42:13.688Z</time></trkpt><trkpt lat="42.4518174" lon="12.900951"><ele>619.0</ele><time>2026-04-26T11:42:14.689Z</time></trkpt><trkpt lat="42.4516984" lon="12.901046"><ele>610.75</ele><time>2026-04-26T11:42:15.69Z</time></trkpt><trkpt lat="42.4515843" lon="12.9011447"><ele>602.5</ele><time>2026-04-26T11:42:16.688Z</time></trkpt><trkpt lat="42.4514726" lon="12.901233"><ele>594.25</ele><time>2026-04-26T11:42:17.689Z</time></trkpt><trkpt lat="42.4513463" lon="12.9012924"><ele>586.0</ele><time>2026-04-26T11:42:18.69Z</time></trkpt><trkpt lat="42.4512045" lon="12.9013209"><ele>586.0</ele><time>2026-04-26T11:42:19.689Z</time></trkpt><trkpt lat="42.451057" lon="12.9013"><ele>586.0</ele><time>2026-04-26T11:42:20.688Z</time></trkpt><trkpt lat="42.4509037" lon="12.9012492"><ele>586.0</ele><time>2026-04-26T11:42:21.689Z</time></trkpt><trkpt lat="42.4507581" lon="12.9011789"><ele>586.0</ele><time>2026-04-26T11:42:22.69Z</time></trkpt><trkpt lat="42.4506187" lon="12.9011109"><ele>586.0</ele><time>2026-04-26T11:42:23.688Z</time></trkpt><trkpt lat="42.4504737" lon="12.9010811"><ele>586.0</ele><time>2026-04-26T11:42:24.689Z</time></trkpt><trkpt lat="42.4503229" lon="12.9011069"><ele>586.0</ele><time>2026-04-26T11:42:25.69Z</time></trkpt><trkpt lat="42.4501776" lon="12.9011648"><ele>585.0</ele><time>2026-04-26T11:42:26.69Z</time></trkpt><trkpt lat="42.4500363" lon="12.9012216"><ele>584.0</ele><time>2026-04-26T11:42:27.69Z</time></trkpt><trkpt lat="42.4498945" lon="12.9012907"><ele>583.0</ele><time>2026-04-26T11:42:28.689Z</time></trkpt><trkpt lat="42.4497538" lon="12.9013431"><ele>582.0</ele><time>2026-04-26T11:42:29.69Z</time></trkpt><trkpt lat="42.4496044" lon="12.9013794"><ele>580.0</ele><time>2026-04-26T11:42:30.69Z</time></trkpt><trkpt lat="42.4494396" lon="12.9013909"><ele>578.0</ele><time>2026-04-26T11:42:31.689Z</time></trkpt><trkpt lat="42.4492742" lon="12.90137"><ele>576.0</ele><time>2026-04-26T11:42:32.69Z</time></trkpt><trkpt lat="42.4491114" lon="12.9013623"><ele>576.0</ele><time>2026-04-26T11:42:33.69Z</time></trkpt><trkpt lat="42.4489685" lon="12.9013591"><ele>576.0</ele><time>2026-04-26T11:42:34.688Z</time></trkpt><trkpt lat="42.4488469" lon="12.9013439"><ele>576.0</ele><time>2026-04-26T11:42:35.689Z</time></trkpt><trkpt lat="42.4487464" lon="12.9013185"><ele>576.0</ele><time>2026-04-26T11:42:36.69Z</time></trkpt><trkpt lat="42.4486652" lon="12.9012657"><ele>576.0</ele><time>2026-04-26T11:42:37.69Z</time></trkpt><trkpt lat="42.4486127" lon="12.9011775"><ele>576.0</ele><time>2026-04-26T11:42:38.688Z</time></trkpt><trkpt lat="42.4486054" lon="12.9010647"><ele>576.0</ele><time>2026-04-26T11:42:39.689Z</time></trkpt><trkpt lat="42.4486397" lon="12.9009329"><ele>576.0</ele><time>2026-04-26T11:42:40.69Z</time></trkpt><trkpt lat="42.4486997" lon="12.9007899"><ele>576.0</ele><time>2026-04-26T11:42:41.69Z</time></trkpt><trkpt lat="42.4487726" lon="12.9006193"><ele>578.25</ele><time>2026-04-26T11:42:42.688Z</time></trkpt><trkpt lat="42.4488408" lon="12.9004554"><ele>580.5</ele><time>2026-04-26T11:42:43.688Z</time></trkpt><trkpt lat="42.4489036" lon="12.9002991"><ele>582.75</ele><time>2026-04-26T11:42:44.688Z</time></trkpt><trkpt lat="42.4489511" lon="12.9001535"><ele>585.0</ele><time>2026-04-26T11:42:45.689Z</time></trkpt><trkpt lat="42.4489652" lon="12.9000066"><ele>585.0</ele><time>2026-04-26T11:42:46.69Z</time></trkpt><trkpt lat="42.4489515" lon="12.899878"><ele>585.0</ele><time>2026-04-26T11:42:47.689Z</time></trkpt><trkpt lat="42.4489175" lon="12.8997659"><ele>585.0</ele><time>2026-04-26T11:42:48.689Z</time></trkpt><trkpt lat="42.4488145" lon="12.8996949"><ele>585.0</ele><time>2026-04-26T11:42:49.689Z</time></trkpt><trkpt lat="42.4486936" lon="12.8997437"><ele>585.0</ele><time>2026-04-26T11:42:50.69Z</time></trkpt><trkpt lat="42.4486039" lon="12.8998133"><ele>585.0</ele><time>2026-04-26T11:42:51.689Z</time></trkpt><trkpt lat="42.4485158" lon="12.8999392"><ele>585.0</ele><time>2026-04-26T11:42:52.69Z</time></trkpt><trkpt lat="42.4484217" lon="12.9000835"><ele>585.0</ele><time>2026-04-26T11:42:53.689Z</time></trkpt><trkpt lat="42.4483165" lon="12.9002444"><ele>585.0</ele><time>2026-04-26T11:42:54.688Z</time></trkpt><trkpt lat="42.4482166" lon="12.9004065"><ele>582.0</ele><time>2026-04-26T11:42:55.688Z</time></trkpt><trkpt lat="42.4481181" lon="12.9005687"><ele>579.0</ele><time>2026-04-26T11:42:56.689Z</time></trkpt><trkpt lat="42.4480237" lon="12.9007304"><ele>576.0</ele><time>2026-04-26T11:42:57.69Z</time></trkpt><trkpt lat="42.4479257" lon="12.9008737"><ele>571.5</ele><time>2026-04-26T11:42:58.69Z</time></trkpt><trkpt lat="42.447808" lon="12.9009918"><ele>567.0</ele><time>2026-04-26T11:42:59.69Z</time></trkpt><trkpt lat="42.4476754" lon="12.9010783"><ele>562.5</ele><time>2026-04-26T11:43:00.69Z</time></trkpt><trkpt lat="42.4475326" lon="12.9011466"><ele>558.0</ele><time>2026-04-26T11:43:01.689Z</time></trkpt><trkpt lat="42.4473755" lon="12.9011206"><ele>558.0</ele><time>2026-04-26T11:43:02.689Z</time></trkpt><trkpt lat="42.4472127" lon="12.9010855"><ele>558.0</ele><time>2026-04-26T11:43:03.69Z</time></trkpt><trkpt lat="42.4470578" lon="12.9010444"><ele>558.0</ele><time>2026-04-26T11:43:04.69Z</time></trkpt><trkpt lat="42.4469042" lon="12.9010167"><ele>555.6666666666666</ele><time>2026-04-26T11:43:05.69Z</time></trkpt><trkpt lat="42.4467432" lon="12.9009718"><ele>553.3333333333333</ele><time>2026-04-26T11:43:06.688Z</time></trkpt><trkpt lat="42.446595" lon="12.9009063"><ele>551.0</ele><time>2026-04-26T11:43:07.689Z</time></trkpt><trkpt lat="42.4464602" lon="12.900812"><ele>550.75</ele><time>2026-04-26T11:43:08.69Z</time></trkpt><trkpt lat="42.4463425" lon="12.9006883"><ele>550.5</ele><time>2026-04-26T11:43:09.69Z</time></trkpt><trkpt lat="42.4462513" lon="12.9005369"><ele>550.25</ele><time>2026-04-26T11:43:10.689Z</time></trkpt><trkpt lat="42.4461829" lon="12.9003525"><ele>550.0</ele><time>2026-04-26T11:43:11.689Z</time></trkpt><trkpt lat="42.4461248" lon="12.9001701"><ele>552.0</ele><time>2026-04-26T11:43:12.69Z</time></trkpt><trkpt lat="42.4460755" lon="12.8999888"><ele>554.0</ele><time>2026-04-26T11:43:13.69Z</time></trkpt><trkpt lat="42.4460399" lon="12.8998094"><ele>556.0</ele><time>2026-04-26T11:43:14.689Z</time></trkpt><trkpt lat="42.4460191" lon="12.8996442"><ele>558.0</ele><time>2026-04-26T11:43:15.688Z</time></trkpt><trkpt lat="42.446007" lon="12.8994961"><ele>558.0</ele><time>2026-04-26T11:43:16.69Z</time></trkpt><trkpt lat="42.4459858" lon="12.8993737"><ele>558.0</ele><time>2026-04-26T11:43:17.689Z</time></trkpt><trkpt lat="42.4459321" lon="12.8992852"><ele>558.0</ele><time>2026-04-26T11:43:18.688Z</time></trkpt><trkpt lat="42.4458613" lon="12.8992578"><ele>558.0</ele><time>2026-04-26T11:43:19.688Z</time></trkpt><trkpt lat="42.4457917" lon="12.899295"><ele>558.0</ele><time>2026-04-26T11:43:20.689Z</time></trkpt><trkpt lat="42.4457542" lon="12.8993799"><ele>558.0</ele><time>2026-04-26T11:43:21.688Z</time></trkpt><trkpt lat="42.4457519" lon="12.899515"><ele>558.0</ele><time>2026-04-26T11:43:22.689Z</time></trkpt><trkpt lat="42.4457834" lon="12.8996821"><ele>558.0</ele><time>2026-04-26T11:43:23.688Z</time></trkpt><trkpt lat="42.4458293" lon="12.8998676"><ele>558.0</ele><time>2026-04-26T11:43:24.688Z</time></trkpt><trkpt lat="42.445874" lon="12.9000718"><ele>558.0</ele><time>2026-04-26T11:43:25.688Z</time></trkpt><trkpt lat="42.4459108" lon="12.9002728"><ele>555.3333333333334</ele><time>2026-04-26T11:43:26.689Z</time></trkpt><trkpt lat="42.4459541" lon="12.9004724"><ele>552.6666666666667</ele><time>2026-04-26T11:43:27.688Z</time></trkpt><trkpt lat="42.4460057" lon="12.9006646"><ele>550.0</ele><time>2026-04-26T11:43:28.688Z</time></trkpt><trkpt lat="42.4460891" lon="12.9008403"><ele>550.25</ele><time>2026-04-26T11:43:29.689Z</time></trkpt><trkpt lat="42.446191" lon="12.9009841"><ele>550.5</ele><time>2026-04-26T11:43:30.688Z</time></trkpt><trkpt lat="42.446298" lon="12.9011147"><ele>550.75</ele><time>2026-04-26T11:43:31.687Z</time></trkpt><trkpt lat="42.4464051" lon="12.9012461"><ele>551.0</ele><time>2026-04-26T11:43:32.688Z</time></trkpt><trkpt lat="42.4464591" lon="12.9013894"><ele>551.0</ele><time>2026-04-26T11:43:33.689Z</time></trkpt><trkpt lat="42.4464984" lon="12.9015435"><ele>551.0</ele><time>2026-04-26T11:43:34.687Z</time></trkpt><trkpt lat="42.4464954" lon="12.9017209"><ele>551.0</ele><time>2026-04-26T11:43:35.688Z</time></trkpt><trkpt lat="42.4464613" lon="12.9019108"><ele>551.0</ele><time>2026-04-26T11:43:36.688Z</time></trkpt><trkpt lat="42.4464157" lon="12.9021132"><ele>548.3333333333333</ele><time>2026-04-26T11:43:37.688Z</time></trkpt><trkpt lat="42.4463691" lon="12.9023222"><ele>545.6666666666666</ele><time>2026-04-26T11:43:38.687Z</time></trkpt><trkpt lat="42.4463244" lon="12.9025276"><ele>543.0</ele><time>2026-04-26T11:43:39.689Z</time></trkpt><trkpt lat="42.4462748" lon="12.9027238"><ele>542.3333333333334</ele><time>2026-04-26T11:43:40.688Z</time></trkpt><trkpt lat="42.4462077" lon="12.9029063"><ele>541.6666666666667</ele><time>2026-04-26T11:43:41.689Z</time></trkpt><trkpt lat="42.4461099" lon="12.9030709"><ele>541.0</ele><time>2026-04-26T11:43:42.688Z</time></trkpt><trkpt lat="42.4459994" lon="12.9032241"><ele>541.0</ele><time>2026-04-26T11:43:43.688Z</time></trkpt><trkpt lat="42.4458804" lon="12.9033931"><ele>541.0</ele><time>2026-04-26T11:43:44.689Z</time></trkpt><trkpt lat="42.4457473" lon="12.9035626"><ele>541.0</ele><time>2026-04-26T11:43:45.688Z</time></trkpt><trkpt lat="42.445602" lon="12.9037188"><ele>540.0</ele><time>2026-04-26T11:43:46.689Z</time></trkpt><trkpt lat="42.4454404" lon="12.9038668"><ele>539.0</ele><time>2026-04-26T11:43:47.688Z</time></trkpt><trkpt lat="42.4452651" lon="12.9039973"><ele>538.0</ele><time>2026-04-26T11:43:48.689Z</time></trkpt><trkpt lat="42.4450742" lon="12.9041207"><ele>543.0</ele><time>2026-04-26T11:43:49.688Z</time></trkpt><trkpt lat="42.4448738" lon="12.9042473"><ele>548.0</ele><time>2026-04-26T11:43:50.688Z</time></trkpt><trkpt lat="42.4446616" lon="12.9043758"><ele>540.5</ele><time>2026-04-26T11:43:51.688Z</time></trkpt><trkpt lat="42.4444493" lon="12.9045112"><ele>533.0</ele><time>2026-04-26T11:43:52.688Z</time></trkpt><trkpt lat="42.4442352" lon="12.9046445"><ele>533.0</ele><time>2026-04-26T11:43:53.687Z</time></trkpt><trkpt lat="42.4440162" lon="12.9047826"><ele>533.0</ele><time>2026-04-26T11:43:54.687Z</time></trkpt><trkpt lat="42.4437968" lon="12.9049204"><ele>532.0</ele><time>2026-04-26T11:43:55.688Z</time></trkpt><trkpt lat="42.4435768" lon="12.9050559"><ele>531.0</ele><time>2026-04-26T11:43:56.688Z</time></trkpt><trkpt lat="42.4433588" lon="12.9051929"><ele>531.0</ele><time>2026-04-26T11:43:57.689Z</time></trkpt><trkpt lat="42.443142" lon="12.9053295"><ele>531.0</ele><time>2026-04-26T11:43:58.687Z</time></trkpt><trkpt lat="42.4429237" lon="12.9054658"><ele>528.0</ele><time>2026-04-26T11:43:59.688Z</time></trkpt><trkpt lat="42.4427062" lon="12.9055989"><ele>525.0</ele><time>2026-04-26T11:44:00.689Z</time></trkpt><trkpt lat="42.4424849" lon="12.9057322"><ele>525.0</ele><time>2026-04-26T11:44:01.688Z</time></trkpt><trkpt lat="42.4422653" lon="12.9058681"><ele>525.0</ele><time>2026-04-26T11:44:02.687Z</time></trkpt><trkpt lat="42.4420481" lon="12.9060055"><ele>525.0</ele><time>2026-04-26T11:44:03.688Z</time></trkpt><trkpt lat="42.4418287" lon="12.9061418"><ele>525.0</ele><time>2026-04-26T11:44:04.689Z</time></trkpt><trkpt lat="42.4416089" lon="12.9062763"><ele>525.0</ele><time>2026-04-26T11:44:05.689Z</time></trkpt><trkpt lat="42.4413904" lon="12.9064106"><ele>525.0</ele><time>2026-04-26T11:44:06.688Z</time></trkpt><trkpt lat="42.4411747" lon="12.90654"><ele>524.0</ele><time>2026-04-26T11:44:07.688Z</time></trkpt><trkpt lat="42.4409604" lon="12.9066657"><ele>523.0</ele><time>2026-04-26T11:44:08.688Z</time></trkpt><trkpt lat="42.4407498" lon="12.9067945"><ele>523.0</ele><time>2026-04-26T11:44:09.688Z</time></trkpt><trkpt lat="42.4405411" lon="12.906921"><ele>523.0</ele><time>2026-04-26T11:44:10.689Z</time></trkpt><trkpt lat="42.4403334" lon="12.9070505"><ele>519.5</ele><time>2026-04-26T11:44:11.689Z</time></trkpt><trkpt lat="42.4401266" lon="12.9071822"><ele>516.0</ele><time>2026-04-26T11:44:12.688Z</time></trkpt><trkpt lat="42.439921" lon="12.9073105"><ele>516.0</ele><time>2026-04-26T11:44:13.687Z</time></trkpt><trkpt lat="42.4397166" lon="12.9074345"><ele>516.0</ele><time>2026-04-26T11:44:14.687Z</time></trkpt><trkpt lat="42.439514" lon="12.9075558"><ele>516.0</ele><time>2026-04-26T11:44:15.688Z</time></trkpt><trkpt lat="42.4393115" lon="12.9076745"><ele>516.0</ele><time>2026-04-26T11:44:16.688Z</time></trkpt><trkpt lat="42.4391106" lon="12.9077987"><ele>516.0</ele><time>2026-04-26T11:44:17.689Z</time></trkpt><trkpt lat="42.4389128" lon="12.9079246"><ele>516.0</ele><time>2026-04-26T11:44:18.688Z</time></trkpt><trkpt lat="42.4387157" lon="12.9080509"><ele>516.0</ele><time>2026-04-26T11:44:19.688Z</time></trkpt><trkpt lat="42.438524" lon="12.9081731"><ele>516.0</ele><time>2026-04-26T11:44:20.688Z</time></trkpt><trkpt lat="42.4383366" lon="12.9082928"><ele>516.0</ele><time>2026-04-26T11:44:21.688Z</time></trkpt><trkpt lat="42.4381563" lon="12.9084106"><ele>516.0</ele><time>2026-04-26T11:44:22.688Z</time></trkpt><trkpt lat="42.4379827" lon="12.9085195"><ele>516.0</ele><time>2026-04-26T11:44:23.688Z</time></trkpt><trkpt lat="42.4378065" lon="12.9086245"><ele>516.0</ele><time>2026-04-26T11:44:24.688Z</time></trkpt><trkpt lat="42.4376331" lon="12.9087276"><ele>516.0</ele><time>2026-04-26T11:44:25.688Z</time></trkpt><trkpt lat="42.437462" lon="12.9088333"><ele>516.0</ele><time>2026-04-26T11:44:26.689Z</time></trkpt><trkpt lat="42.4372974" lon="12.9089387"><ele>516.0</ele><time>2026-04-26T11:44:27.689Z</time></trkpt><trkpt lat="42.437139" lon="12.9090373"><ele>516.3333333333334</ele><time>2026-04-26T11:44:28.688Z</time></trkpt><trkpt lat="42.4369869" lon="12.9091378"><ele>516.6666666666667</ele><time>2026-04-26T11:44:29.688Z</time></trkpt><trkpt lat="42.4368455" lon="12.9092417"><ele>517.0</ele><time>2026-04-26T11:44:30.689Z</time></trkpt><trkpt lat="42.4367106" lon="12.9093519"><ele>517.0</ele><time>2026-04-26T11:44:31.689Z</time></trkpt><trkpt lat="42.4365869" lon="12.9094679"><ele>517.0</ele><time>2026-04-26T11:44:32.689Z</time></trkpt><trkpt lat="42.4364694" lon="12.9095858"><ele>517.0</ele><time>2026-04-26T11:44:33.688Z</time></trkpt><trkpt lat="42.4363636" lon="12.9097067"><ele>517.0</ele><time>2026-04-26T11:44:34.689Z</time></trkpt><trkpt lat="42.4362605" lon="12.9098271"><ele>516.25</ele><time>2026-04-26T11:44:35.687Z</time></trkpt><trkpt lat="42.4361608" lon="12.9099441"><ele>515.5</ele><time>2026-04-26T11:44:36.688Z</time></trkpt><trkpt lat="42.4360609" lon="12.9100617"><ele>514.75</ele><time>2026-04-26T11:44:37.687Z</time></trkpt><trkpt lat="42.4359605" lon="12.9101765"><ele>514.0</ele><time>2026-04-26T11:44:38.687Z</time></trkpt><trkpt lat="42.4358627" lon="12.9102873"><ele>514.0</ele><time>2026-04-26T11:44:39.688Z</time></trkpt><trkpt lat="42.4357723" lon="12.9103939"><ele>514.0</ele><time>2026-04-26T11:44:40.688Z</time></trkpt><trkpt lat="42.4356834" lon="12.9104992"><ele>514.0</ele><time>2026-04-26T11:44:41.688Z</time></trkpt><trkpt lat="42.4355972" lon="12.9105988"><ele>514.0</ele><time>2026-04-26T11:44:42.688Z</time></trkpt><trkpt lat="42.4355164" lon="12.91069"><ele>513.5</ele><time>2026-04-26T11:44:43.689Z</time></trkpt><trkpt lat="42.4354441" lon="12.9107784"><ele>513.0</ele><time>2026-04-26T11:44:44.687Z</time></trkpt><trkpt lat="42.4353749" lon="12.910858"><ele>512.5</ele><time>2026-04-26T11:44:45.689Z</time></trkpt><trkpt lat="42.4353147" lon="12.9109292"><ele>512.0</ele><time>2026-04-26T11:44:46.688Z</time></trkpt><trkpt lat="42.4352637" lon="12.9109909"><ele>511.50000000000006</ele><time>2026-04-26T11:44:47.687Z</time></trkpt><trkpt lat="42.4351739" lon="12.9110776"><ele>511.0</ele><time>2026-04-26T11:44:49.689Z</time></trkpt><trkpt lat="42.4351218" lon="12.9111293"><ele>511.0</ele><time>2026-04-26T11:44:50.688Z</time></trkpt><trkpt lat="42.4350644" lon="12.9112014"><ele>511.0</ele><time>2026-04-26T11:44:51.689Z</time></trkpt><trkpt lat="42.4349977" lon="12.9112837"><ele>511.0</ele><time>2026-04-26T11:44:52.687Z</time></trkpt><trkpt lat="42.4349238" lon="12.9113705"><ele>511.0</ele><time>2026-04-26T11:44:53.687Z</time></trkpt><trkpt lat="42.4348434" lon="12.9114666"><ele>511.0</ele><time>2026-04-26T11:44:54.688Z</time></trkpt><trkpt lat="42.4347582" lon="12.9115609"><ele>511.0</ele><time>2026-04-26T11:44:55.688Z</time></trkpt><trkpt lat="42.4346743" lon="12.9116598"><ele>511.0</ele><time>2026-04-26T11:44:56.687Z</time></trkpt><trkpt lat="42.4345876" lon="12.9117566"><ele>511.0</ele><time>2026-04-26T11:44:57.688Z</time></trkpt><trkpt lat="42.4344994" lon="12.9118535"><ele>511.0</ele><time>2026-04-26T11:44:58.689Z</time></trkpt><trkpt lat="42.4344177" lon="12.9119463"><ele>511.0</ele><time>2026-04-26T11:44:59.687Z</time></trkpt><trkpt lat="42.4343346" lon="12.9120428"><ele>510.6</ele><time>2026-04-26T11:45:00.688Z</time></trkpt><trkpt lat="42.4342557" lon="12.9121342"><ele>510.20000000000005</ele><time>2026-04-26T11:45:01.688Z</time></trkpt><trkpt lat="42.4341841" lon="12.9122349"><ele>509.79999999999995</ele><time>2026-04-26T11:45:02.688Z</time></trkpt><trkpt lat="42.4341218" lon="12.9123549"><ele>509.4</ele><time>2026-04-26T11:45:03.688Z</time></trkpt><trkpt lat="42.4340681" lon="12.9125012"><ele>509.0</ele><time>2026-04-26T11:45:04.688Z</time></trkpt><trkpt lat="42.4340232" lon="12.9126613"><ele>508.75</ele><time>2026-04-26T11:45:05.687Z</time></trkpt><trkpt lat="42.4339718" lon="12.9128377"><ele>508.5</ele><time>2026-04-26T11:45:06.689Z</time></trkpt><trkpt lat="42.4339178" lon="12.9130197"><ele>508.25</ele><time>2026-04-26T11:45:07.689Z</time></trkpt><trkpt lat="42.4338608" lon="12.9132035"><ele>508.0</ele><time>2026-04-26T11:45:08.687Z</time></trkpt><trkpt lat="42.4338079" lon="12.9133817"><ele>506.75</ele><time>2026-04-26T11:45:09.688Z</time></trkpt><trkpt lat="42.4337569" lon="12.9135511"><ele>505.5</ele><time>2026-04-26T11:45:10.689Z</time></trkpt><trkpt lat="42.4337082" lon="12.9137164"><ele>504.25</ele><time>2026-04-26T11:45:11.689Z</time></trkpt><trkpt lat="42.4336594" lon="12.9138871"><ele>503.0</ele><time>2026-04-26T11:45:12.687Z</time></trkpt><trkpt lat="42.4336091" lon="12.9140619"><ele>503.25</ele><time>2026-04-26T11:45:13.688Z</time></trkpt><trkpt lat="42.4335583" lon="12.9142411"><ele>503.5</ele><time>2026-04-26T11:45:14.688Z</time></trkpt><trkpt lat="42.433507" lon="12.9144286"><ele>503.75</ele><time>2026-04-26T11:45:15.689Z</time></trkpt><trkpt lat="42.4334529" lon="12.9146219"><ele>504.0</ele><time>2026-04-26T11:45:16.687Z</time></trkpt><trkpt lat="42.4333939" lon="12.9148201"><ele>504.0</ele><time>2026-04-26T11:45:17.687Z</time></trkpt><trkpt lat="42.4333336" lon="12.9150203"><ele>504.0</ele><time>2026-04-26T11:45:18.688Z</time></trkpt><trkpt lat="42.4332748" lon="12.9152187"><ele>504.0</ele><time>2026-04-26T11:45:19.688Z</time></trkpt><trkpt lat="42.433223" lon="12.9153968"><ele>504.0</ele><time>2026-04-26T11:45:20.688Z</time></trkpt><trkpt lat="42.433176" lon="12.9155625"><ele>504.0</ele><time>2026-04-26T11:45:21.688Z</time></trkpt><trkpt lat="42.4331363" lon="12.9157056"><ele>504.0</ele><time>2026-04-26T11:45:22.688Z</time></trkpt><trkpt lat="42.4330984" lon="12.9158284"><ele>504.0</ele><time>2026-04-26T11:45:23.688Z</time></trkpt><trkpt lat="42.4330681" lon="12.9159381"><ele>504.0</ele><time>2026-04-26T11:45:24.688Z</time></trkpt><trkpt lat="42.4330743" lon="12.9160757"><ele>504.0</ele><time>2026-04-26T11:45:26.687Z</time></trkpt><trkpt lat="42.4331597" lon="12.916093"><ele>504.0</ele><time>2026-04-26T11:45:29.689Z</time></trkpt><trkpt lat="42.4331228" lon="12.9159801"><ele>504.0</ele><time>2026-04-26T11:45:33.688Z</time></trkpt><trkpt lat="42.4331225" lon="12.9158263"><ele>504.0</ele><time>2026-04-26T11:45:35.687Z</time></trkpt><trkpt lat="42.4331454" lon="12.9157354"><ele>504.0</ele><time>2026-04-26T11:45:36.687Z</time></trkpt><trkpt lat="42.4331692" lon="12.9156534"><ele>504.0</ele><time>2026-04-26T11:45:37.687Z</time></trkpt><trkpt lat="42.4332141" lon="12.9155164"><ele>503.8333333333333</ele><time>2026-04-26T11:45:39.688Z</time></trkpt><trkpt lat="42.4332531" lon="12.9154034"><ele>503.66666666666663</ele><time>2026-04-26T11:45:41.687Z</time></trkpt><trkpt lat="42.4332967" lon="12.9152883"><ele>503.5</ele><time>2026-04-26T11:45:43.687Z</time></trkpt><trkpt lat="42.4332879" lon="12.9152006"><ele>503.3333333333333</ele><time>2026-04-26T11:45:45.687Z</time></trkpt><trkpt lat="42.4332249" lon="12.9152573"><ele>503.16666666666663</ele><time>2026-04-26T11:45:47.687Z</time></trkpt><trkpt lat="42.433192" lon="12.9153712"><ele>503.0</ele><time>2026-04-26T11:45:48.687Z</time></trkpt><trkpt lat="42.433154" lon="12.9155132"><ele>503.0</ele><time>2026-04-26T11:45:49.687Z</time></trkpt><trkpt lat="42.4331043" lon="12.9156858"><ele>503.0</ele><time>2026-04-26T11:45:50.688Z</time></trkpt><trkpt lat="42.4330522" lon="12.9158744"><ele>503.0</ele><time>2026-04-26T11:45:51.687Z</time></trkpt><trkpt lat="42.4329992" lon="12.9160718"><ele>503.0</ele><time>2026-04-26T11:45:52.688Z</time></trkpt><trkpt lat="42.4329453" lon="12.9162731"><ele>502.3333333333333</ele><time>2026-04-26T11:45:53.688Z</time></trkpt><trkpt lat="42.4328942" lon="12.9164748"><ele>501.66666666666663</ele><time>2026-04-26T11:45:54.687Z</time></trkpt><trkpt lat="42.4328433" lon="12.9166776"><ele>501.0</ele><time>2026-04-26T11:45:55.686Z</time></trkpt><trkpt lat="42.4327858" lon="12.916881"><ele>501.0</ele><time>2026-04-26T11:45:56.688Z</time></trkpt><trkpt lat="42.4327167" lon="12.9170752"><ele>501.0</ele><time>2026-04-26T11:45:57.687Z</time></trkpt><trkpt lat="42.4326296" lon="12.9172688"><ele>501.0</ele><time>2026-04-26T11:45:58.686Z</time></trkpt><trkpt lat="42.4325304" lon="12.9174511"><ele>501.0</ele><time>2026-04-26T11:45:59.688Z</time></trkpt><trkpt lat="42.4324167" lon="12.9176139"><ele>501.0</ele><time>2026-04-26T11:46:00.688Z</time></trkpt><trkpt lat="42.4322848" lon="12.9177569"><ele>501.0</ele><time>2026-04-26T11:46:01.688Z</time></trkpt><trkpt lat="42.4321397" lon="12.9178837"><ele>500.0</ele><time>2026-04-26T11:46:02.688Z</time></trkpt><trkpt lat="42.431987" lon="12.9179915"><ele>499.0</ele><time>2026-04-26T11:46:03.687Z</time></trkpt><trkpt lat="42.4318295" lon="12.9180956"><ele>498.0</ele><time>2026-04-26T11:46:04.687Z</time></trkpt><trkpt lat="42.4316708" lon="12.918194"><ele>498.0</ele><time>2026-04-26T11:46:05.687Z</time></trkpt><trkpt lat="42.4315104" lon="12.9182934"><ele>498.0</ele><time>2026-04-26T11:46:06.688Z</time></trkpt><trkpt lat="42.4313502" lon="12.9183893"><ele>498.0</ele><time>2026-04-26T11:46:07.688Z</time></trkpt><trkpt lat="42.431193" lon="12.9184872"><ele>499.0</ele><time>2026-04-26T11:46:08.688Z</time></trkpt><trkpt lat="42.4310398" lon="12.918583"><ele>500.0</ele><time>2026-04-26T11:46:09.688Z</time></trkpt><trkpt lat="42.4308915" lon="12.918678"><ele>501.0</ele><time>2026-04-26T11:46:10.688Z</time></trkpt><trkpt lat="42.4307394" lon="12.9187716"><ele>501.0</ele><time>2026-04-26T11:46:11.687Z</time></trkpt><trkpt lat="42.4305913" lon="12.9188595"><ele>501.0</ele><time>2026-04-26T11:46:12.688Z</time></trkpt><trkpt lat="42.4304454" lon="12.9189428"><ele>501.0</ele><time>2026-04-26T11:46:13.686Z</time></trkpt><trkpt lat="42.4302984" lon="12.9190265"><ele>500.0</ele><time>2026-04-26T11:46:14.687Z</time></trkpt><trkpt lat="42.4301517" lon="12.9191062"><ele>499.0</ele><time>2026-04-26T11:46:15.686Z</time></trkpt><trkpt lat="42.4300032" lon="12.9191849"><ele>498.0</ele><time>2026-04-26T11:46:16.687Z</time></trkpt><trkpt lat="42.4298523" lon="12.919271"><ele>497.66666666666663</ele><time>2026-04-26T11:46:17.686Z</time></trkpt><trkpt lat="42.4296953" lon="12.9193549"><ele>497.3333333333333</ele><time>2026-04-26T11:46:18.687Z</time></trkpt><trkpt lat="42.4295378" lon="12.9194351"><ele>497.0</ele><time>2026-04-26T11:46:19.686Z</time></trkpt><trkpt lat="42.429379" lon="12.9195191"><ele>497.0</ele><time>2026-04-26T11:46:20.688Z</time></trkpt><trkpt lat="42.4292173" lon="12.9196022"><ele>497.0</ele><time>2026-04-26T11:46:21.688Z</time></trkpt><trkpt lat="42.4290575" lon="12.9196829"><ele>497.0</ele><time>2026-04-26T11:46:22.687Z</time></trkpt><trkpt lat="42.4288991" lon="12.9197632"><ele>496.3333333333333</ele><time>2026-04-26T11:46:23.687Z</time></trkpt><trkpt lat="42.4287414" lon="12.9198453"><ele>495.66666666666663</ele><time>2026-04-26T11:46:24.688Z</time></trkpt><trkpt lat="42.4285818" lon="12.9199228"><ele>495.0</ele><time>2026-04-26T11:46:25.687Z</time></trkpt><trkpt lat="42.4284182" lon="12.9200039"><ele>495.0</ele><time>2026-04-26T11:46:26.688Z</time></trkpt><trkpt lat="42.4282529" lon="12.9200915"><ele>495.0</ele><time>2026-04-26T11:46:27.688Z</time></trkpt><trkpt lat="42.4280833" lon="12.9201778"><ele>495.0</ele><time>2026-04-26T11:46:28.687Z</time></trkpt><trkpt lat="42.4279128" lon="12.9202697"><ele>493.66666666666663</ele><time>2026-04-26T11:46:29.688Z</time></trkpt><trkpt lat="42.4277385" lon="12.9203608"><ele>492.3333333333333</ele><time>2026-04-26T11:46:30.687Z</time></trkpt><trkpt lat="42.427559" lon="12.9204494"><ele>491.0</ele><time>2026-04-26T11:46:31.687Z</time></trkpt><trkpt lat="42.4273769" lon="12.9205422"><ele>491.0</ele><time>2026-04-26T11:46:32.688Z</time></trkpt><trkpt lat="42.4271915" lon="12.9206389"><ele>491.0</ele><time>2026-04-26T11:46:33.687Z</time></trkpt><trkpt lat="42.427008" lon="12.9207387"><ele>491.0</ele><time>2026-04-26T11:46:34.687Z</time></trkpt><trkpt lat="42.4268184" lon="12.920838"><ele>491.0</ele><time>2026-04-26T11:46:35.688Z</time></trkpt><trkpt lat="42.42663" lon="12.9209356"><ele>491.0</ele><time>2026-04-26T11:46:36.688Z</time></trkpt><trkpt lat="42.4264404" lon="12.921032"><ele>491.0</ele><time>2026-04-26T11:46:37.688Z</time></trkpt><trkpt lat="42.4262485" lon="12.9211278"><ele>489.3333333333333</ele><time>2026-04-26T11:46:38.687Z</time></trkpt><trkpt lat="42.4260554" lon="12.9212291"><ele>487.66666666666663</ele><time>2026-04-26T11:46:39.686Z</time></trkpt><trkpt lat="42.4258608" lon="12.9213312"><ele>486.0</ele><time>2026-04-26T11:46:40.686Z</time></trkpt><trkpt lat="42.4256667" lon="12.9214336"><ele>486.0</ele><time>2026-04-26T11:46:41.688Z</time></trkpt><trkpt lat="42.4254766" lon="12.9215369"><ele>486.0</ele><time>2026-04-26T11:46:42.688Z</time></trkpt><trkpt lat="42.4252882" lon="12.9216481"><ele>486.0</ele><time>2026-04-26T11:46:43.687Z</time></trkpt><trkpt lat="42.4251035" lon="12.9217657"><ele>486.33333333333337</ele><time>2026-04-26T11:46:44.688Z</time></trkpt><trkpt lat="42.4249329" lon="12.9218878"><ele>486.6666666666667</ele><time>2026-04-26T11:46:45.688Z</time></trkpt><trkpt lat="42.4247718" lon="12.922012"><ele>487.0</ele><time>2026-04-26T11:46:46.687Z</time></trkpt><trkpt lat="42.4246188" lon="12.9221313"><ele>487.0</ele><time>2026-04-26T11:46:47.687Z</time></trkpt><trkpt lat="42.4244729" lon="12.9222446"><ele>487.0</ele><time>2026-04-26T11:46:48.687Z</time></trkpt><trkpt lat="42.4243295" lon="12.9223489"><ele>487.0</ele><time>2026-04-26T11:46:49.686Z</time></trkpt><trkpt lat="42.4241936" lon="12.9224382"><ele>487.0</ele><time>2026-04-26T11:46:50.687Z</time></trkpt><trkpt lat="42.4240607" lon="12.9225116"><ele>487.0</ele><time>2026-04-26T11:46:51.688Z</time></trkpt><trkpt lat="42.4239204" lon="12.9225529"><ele>487.0</ele><time>2026-04-26T11:46:52.687Z</time></trkpt><trkpt lat="42.4237653" lon="12.9225634"><ele>487.0</ele><time>2026-04-26T11:46:53.688Z</time></trkpt><trkpt lat="42.4235956" lon="12.9225559"><ele>486.0</ele><time>2026-04-26T11:46:54.687Z</time></trkpt><trkpt lat="42.4234129" lon="12.9225368"><ele>485.0</ele><time>2026-04-26T11:46:55.688Z</time></trkpt><trkpt lat="42.4232167" lon="12.9225175"><ele>484.0</ele><time>2026-04-26T11:46:56.687Z</time></trkpt><trkpt lat="42.4230171" lon="12.9224998"><ele>483.0</ele><time>2026-04-26T11:46:57.687Z</time></trkpt><trkpt lat="42.422811" lon="12.9224805"><ele>482.0</ele><time>2026-04-26T11:46:58.687Z</time></trkpt><trkpt lat="42.4226014" lon="12.9224578"><ele>481.0</ele><time>2026-04-26T11:46:59.688Z</time></trkpt><trkpt lat="42.4223875" lon="12.9224344"><ele>481.0</ele><time>2026-04-26T11:47:00.687Z</time></trkpt><trkpt lat="42.4221696" lon="12.922411"><ele>481.0</ele><time>2026-04-26T11:47:01.688Z</time></trkpt><trkpt lat="42.4219514" lon="12.9223873"><ele>481.0</ele><time>2026-04-26T11:47:02.687Z</time></trkpt><trkpt lat="42.4217304" lon="12.9223633"><ele>479.5</ele><time>2026-04-26T11:47:03.687Z</time></trkpt><trkpt lat="42.4215022" lon="12.92234"><ele>478.0</ele><time>2026-04-26T11:47:04.687Z</time></trkpt><trkpt lat="42.421275" lon="12.9223209"><ele>477.0</ele><time>2026-04-26T11:47:05.687Z</time></trkpt><trkpt lat="42.4210453" lon="12.9222972"><ele>476.0</ele><time>2026-04-26T11:47:06.688Z</time></trkpt><trkpt lat="42.4208185" lon="12.922276"><ele>476.0</ele><time>2026-04-26T11:47:07.688Z</time></trkpt><trkpt lat="42.4205919" lon="12.9222544"><ele>476.0</ele><time>2026-04-26T11:47:08.688Z</time></trkpt><trkpt lat="42.4203696" lon="12.9222293"><ele>475.3333333333333</ele><time>2026-04-26T11:47:09.688Z</time></trkpt><trkpt lat="42.4201462" lon="12.9222037"><ele>474.66666666666663</ele><time>2026-04-26T11:47:10.688Z</time></trkpt><trkpt lat="42.4199265" lon="12.9221801"><ele>474.0</ele><time>2026-04-26T11:47:11.688Z</time></trkpt><trkpt lat="42.4197068" lon="12.922155"><ele>473.66666666666663</ele><time>2026-04-26T11:47:12.688Z</time></trkpt><trkpt lat="42.4194891" lon="12.9221309"><ele>473.3333333333333</ele><time>2026-04-26T11:47:13.687Z</time></trkpt><trkpt lat="42.4192741" lon="12.9221081"><ele>473.0</ele><time>2026-04-26T11:47:14.687Z</time></trkpt><trkpt lat="42.41906" lon="12.9220865"><ele>473.0</ele><time>2026-04-26T11:47:15.687Z</time></trkpt><trkpt lat="42.4188491" lon="12.9220661"><ele>473.0</ele><time>2026-04-26T11:47:16.687Z</time></trkpt><trkpt lat="42.4186411" lon="12.9220453"><ele>473.0</ele><time>2026-04-26T11:47:17.688Z</time></trkpt><trkpt lat="42.418435" lon="12.922024"><ele>473.0</ele><time>2026-04-26T11:47:18.688Z</time></trkpt><trkpt lat="42.418232" lon="12.9220037"><ele>473.0</ele><time>2026-04-26T11:47:19.688Z</time></trkpt><trkpt lat="42.418031" lon="12.9219818"><ele>473.0</ele><time>2026-04-26T11:47:20.686Z</time></trkpt><trkpt lat="42.4178305" lon="12.92196"><ele>473.0</ele><time>2026-04-26T11:47:21.688Z</time></trkpt><trkpt lat="42.4176297" lon="12.9219406"><ele>473.0</ele><time>2026-04-26T11:47:22.688Z</time></trkpt><trkpt lat="42.4174288" lon="12.921922"><ele>473.0</ele><time>2026-04-26T11:47:23.688Z</time></trkpt><trkpt lat="42.4172253" lon="12.921902"><ele>473.3333333333333</ele><time>2026-04-26T11:47:24.687Z</time></trkpt><trkpt lat="42.4170207" lon="12.9218796"><ele>473.66666666666663</ele><time>2026-04-26T11:47:25.688Z</time></trkpt><trkpt lat="42.4168129" lon="12.9218598"><ele>474.0</ele><time>2026-04-26T11:47:26.688Z</time></trkpt><trkpt lat="42.4166022" lon="12.9218402"><ele>474.0</ele><time>2026-04-26T11:47:27.686Z</time></trkpt><trkpt lat="42.416393" lon="12.9218185"><ele>474.0</ele><time>2026-04-26T11:47:28.686Z</time></trkpt><trkpt lat="42.4161823" lon="12.9217986"><ele>474.0</ele><time>2026-04-26T11:47:29.687Z</time></trkpt><trkpt lat="42.4159709" lon="12.9217797"><ele>473.33333333333337</ele><time>2026-04-26T11:47:30.687Z</time></trkpt><trkpt lat="42.4157586" lon="12.9217607"><ele>472.6666666666667</ele><time>2026-04-26T11:47:31.686Z</time></trkpt><trkpt lat="42.4155453" lon="12.9217383"><ele>472.0</ele><time>2026-04-26T11:47:32.686Z</time></trkpt><trkpt lat="42.4153348" lon="12.9217161"><ele>470.33333333333337</ele><time>2026-04-26T11:47:33.687Z</time></trkpt><trkpt lat="42.4151233" lon="12.9216918"><ele>468.66666666666663</ele><time>2026-04-26T11:47:34.686Z</time></trkpt><trkpt lat="42.4149132" lon="12.9216677"><ele>467.0</ele><time>2026-04-26T11:47:35.686Z</time></trkpt><trkpt lat="42.4147066" lon="12.9216456"><ele>466.66666666666663</ele><time>2026-04-26T11:47:36.687Z</time></trkpt><trkpt lat="42.4145038" lon="12.9216256"><ele>466.33333333333337</ele><time>2026-04-26T11:47:37.687Z</time></trkpt><trkpt lat="42.4143022" lon="12.9216085"><ele>466.0</ele><time>2026-04-26T11:47:38.687Z</time></trkpt><trkpt lat="42.4141133" lon="12.9215896"><ele>466.0</ele><time>2026-04-26T11:47:39.687Z</time></trkpt><trkpt lat="42.4139324" lon="12.9215705"><ele>466.0</ele><time>2026-04-26T11:47:40.688Z</time></trkpt><trkpt lat="42.4137617" lon="12.9215544"><ele>466.0</ele><time>2026-04-26T11:47:41.686Z</time></trkpt><trkpt lat="42.4135992" lon="12.9215379"><ele>466.0</ele><time>2026-04-26T11:47:42.686Z</time></trkpt><trkpt lat="42.4134487" lon="12.9215208"><ele>466.0</ele><time>2026-04-26T11:47:43.686Z</time></trkpt><trkpt lat="42.4133065" lon="12.9215066"><ele>466.0</ele><time>2026-04-26T11:47:44.687Z</time></trkpt><trkpt lat="42.4131765" lon="12.9214926"><ele>466.0</ele><time>2026-04-26T11:47:45.686Z</time></trkpt><trkpt lat="42.4130539" lon="12.921482"><ele>466.20000000000005</ele><time>2026-04-26T11:47:46.688Z</time></trkpt><trkpt lat="42.412946" lon="12.9214714"><ele>466.40000000000003</ele><time>2026-04-26T11:47:47.687Z</time></trkpt><trkpt lat="42.4128543" lon="12.9214715"><ele>466.6</ele><time>2026-04-26T11:47:48.688Z</time></trkpt><trkpt lat="42.4127795" lon="12.9215025"><ele>466.8</ele><time>2026-04-26T11:47:49.688Z</time></trkpt><trkpt lat="42.4127166" lon="12.9215743"><ele>467.0</ele><time>2026-04-26T11:47:50.687Z</time></trkpt><trkpt lat="42.4126634" lon="12.9216804"><ele>468.5</ele><time>2026-04-26T11:47:51.686Z</time></trkpt><trkpt lat="42.4126061" lon="12.9218074"><ele>470.0</ele><time>2026-04-26T11:47:52.686Z</time></trkpt><trkpt lat="42.4125351" lon="12.921945"><ele>471.5</ele><time>2026-04-26T11:47:53.686Z</time></trkpt><trkpt lat="42.4124557" lon="12.9220805"><ele>473.0</ele><time>2026-04-26T11:47:54.686Z</time></trkpt><trkpt lat="42.4123813" lon="12.9221966"><ele>473.0</ele><time>2026-04-26T11:47:55.687Z</time></trkpt><trkpt lat="42.4123173" lon="12.922294"><ele>472.99999999999994</ele><time>2026-04-26T11:47:56.686Z</time></trkpt><trkpt lat="42.4122712" lon="12.9223662"><ele>472.99999999999994</ele><time>2026-04-26T11:47:57.685Z</time></trkpt><trkpt lat="42.4122184" lon="12.9224533"><ele>473.0</ele><time>2026-04-26T11:47:59.686Z</time></trkpt><trkpt lat="42.4121424" lon="12.9225429"><ele>473.0</ele><time>2026-04-26T11:48:28.686Z</time></trkpt><trkpt lat="42.4120066" lon="12.9225781"><ele>472.75</ele><time>2026-04-26T11:48:30.686Z</time></trkpt><trkpt lat="42.4119118" lon="12.9225607"><ele>472.5</ele><time>2026-04-26T11:48:31.687Z</time></trkpt><trkpt lat="42.4118011" lon="12.9225488"><ele>472.25</ele><time>2026-04-26T11:48:32.686Z</time></trkpt><trkpt lat="42.4116684" lon="12.9225424"><ele>472.0</ele><time>2026-04-26T11:48:33.687Z</time></trkpt><trkpt lat="42.4115322" lon="12.922542"><ele>472.0</ele><time>2026-04-26T11:48:34.686Z</time></trkpt><trkpt lat="42.4113951" lon="12.9225551"><ele>472.0</ele><time>2026-04-26T11:48:35.686Z</time></trkpt><trkpt lat="42.411262" lon="12.9226027"><ele>472.0</ele><time>2026-04-26T11:48:36.686Z</time></trkpt><trkpt lat="42.4111315" lon="12.9226896"><ele>472.0</ele><time>2026-04-26T11:48:37.686Z</time></trkpt><trkpt lat="42.4110124" lon="12.922811"><ele>472.75</ele><time>2026-04-26T11:48:38.687Z</time></trkpt><trkpt lat="42.4109077" lon="12.9229537"><ele>473.5</ele><time>2026-04-26T11:48:39.686Z</time></trkpt><trkpt lat="42.410827" lon="12.9231135"><ele>474.25</ele><time>2026-04-26T11:48:40.686Z</time></trkpt><trkpt lat="42.4107716" lon="12.9232858"><ele>475.0</ele><time>2026-04-26T11:48:41.687Z</time></trkpt><trkpt lat="42.4107469" lon="12.9234699"><ele>475.5</ele><time>2026-04-26T11:48:42.687Z</time></trkpt><trkpt lat="42.4107551" lon="12.9236586"><ele>476.0</ele><time>2026-04-26T11:48:43.686Z</time></trkpt><trkpt lat="42.4107837" lon="12.9238335"><ele>476.5</ele><time>2026-04-26T11:48:44.686Z</time></trkpt><trkpt lat="42.4108102" lon="12.9239929"><ele>477.0</ele><time>2026-04-26T11:48:45.687Z</time></trkpt><trkpt lat="42.4108157" lon="12.9241434"><ele>477.25</ele><time>2026-04-26T11:48:46.687Z</time></trkpt><trkpt lat="42.4107966" lon="12.9242863"><ele>477.5</ele><time>2026-04-26T11:48:47.686Z</time></trkpt><trkpt lat="42.4107395" lon="12.9244292"><ele>477.75</ele><time>2026-04-26T11:48:48.687Z</time></trkpt><trkpt lat="42.4106567" lon="12.9245564"><ele>478.0</ele><time>2026-04-26T11:48:49.686Z</time></trkpt><trkpt lat="42.4105595" lon="12.9246759"><ele>478.75</ele><time>2026-04-26T11:48:50.687Z</time></trkpt><trkpt lat="42.4104497" lon="12.9248009"><ele>479.5</ele><time>2026-04-26T11:48:51.687Z</time></trkpt><trkpt lat="42.4103418" lon="12.9249276"><ele>480.25</ele><time>2026-04-26T11:48:52.687Z</time></trkpt><trkpt lat="42.4102461" lon="12.9250492"><ele>481.0</ele><time>2026-04-26T11:48:53.686Z</time></trkpt><trkpt lat="42.4101602" lon="12.9251654"><ele>481.4</ele><time>2026-04-26T11:48:54.686Z</time></trkpt><trkpt lat="42.4100844" lon="12.9252734"><ele>481.8</ele><time>2026-04-26T11:48:55.687Z</time></trkpt><trkpt lat="42.4100187" lon="12.9253635"><ele>482.19999999999993</ele><time>2026-04-26T11:48:56.686Z</time></trkpt><trkpt lat="42.4099631" lon="12.9254445"><ele>482.59999999999997</ele><time>2026-04-26T11:48:57.686Z</time></trkpt><trkpt lat="42.4099114" lon="12.9255259"><ele>483.0</ele><time>2026-04-26T11:48:58.686Z</time></trkpt><trkpt lat="42.4098553" lon="12.9256199"><ele>483.0</ele><time>2026-04-26T11:48:59.686Z</time></trkpt><trkpt lat="42.4097976" lon="12.9257338"><ele>483.0</ele><time>2026-04-26T11:49:00.687Z</time></trkpt><trkpt lat="42.4097405" lon="12.9258819"><ele>483.0</ele><time>2026-04-26T11:49:01.686Z</time></trkpt><trkpt lat="42.4096859" lon="12.9260523"><ele>483.0</ele><time>2026-04-26T11:49:02.687Z</time></trkpt><trkpt lat="42.4096302" lon="12.926236"><ele>484.0</ele><time>2026-04-26T11:49:03.686Z</time></trkpt><trkpt lat="42.4095756" lon="12.9264245"><ele>485.0</ele><time>2026-04-26T11:49:04.686Z</time></trkpt><trkpt lat="42.4095327" lon="12.9266203"><ele>486.0</ele><time>2026-04-26T11:49:05.687Z</time></trkpt><trkpt lat="42.4094982" lon="12.9268187"><ele>486.5</ele><time>2026-04-26T11:49:06.686Z</time></trkpt><trkpt lat="42.4094758" lon="12.9270108"><ele>487.0</ele><time>2026-04-26T11:49:07.686Z</time></trkpt><trkpt lat="42.4094689" lon="12.9272011"><ele>487.5</ele><time>2026-04-26T11:49:08.687Z</time></trkpt><trkpt lat="42.4094779" lon="12.9273811"><ele>488.0</ele><time>2026-04-26T11:49:09.687Z</time></trkpt><trkpt lat="42.4094922" lon="12.9275486"><ele>488.59999999999997</ele><time>2026-04-26T11:49:10.687Z</time></trkpt><trkpt lat="42.4095099" lon="12.9277009"><ele>489.19999999999993</ele><time>2026-04-26T11:49:11.686Z</time></trkpt><trkpt lat="42.4095259" lon="12.9278345"><ele>489.8</ele><time>2026-04-26T11:49:12.686Z</time></trkpt><trkpt lat="42.4095387" lon="12.9279576"><ele>490.4</ele><time>2026-04-26T11:49:13.687Z</time></trkpt><trkpt lat="42.4095468" lon="12.9280713"><ele>491.0</ele><time>2026-04-26T11:49:14.687Z</time></trkpt><trkpt lat="42.4095553" lon="12.9281898"><ele>490.99999999999994</ele><time>2026-04-26T11:49:15.687Z</time></trkpt><trkpt lat="42.4095663" lon="12.9283023"><ele>491.0</ele><time>2026-04-26T11:49:16.687Z</time></trkpt><trkpt lat="42.4095745" lon="12.9284122"><ele>491.0</ele><time>2026-04-26T11:49:17.686Z</time></trkpt><trkpt lat="42.4095816" lon="12.928516"><ele>491.0</ele><time>2026-04-26T11:49:18.687Z</time></trkpt><trkpt lat="42.4095818" lon="12.9286158"><ele>490.99999999999994</ele><time>2026-04-26T11:49:19.687Z</time></trkpt><trkpt lat="42.4095694" lon="12.9287761"><ele>491.0</ele><time>2026-04-26T11:49:21.687Z</time></trkpt><trkpt lat="42.4095329" lon="12.9289161"><ele>491.8</ele><time>2026-04-26T11:49:23.685Z</time></trkpt><trkpt lat="42.4094875" lon="12.9289888"><ele>492.6</ele><time>2026-04-26T11:49:25.685Z</time></trkpt><trkpt lat="42.4094426" lon="12.9290595"><ele>493.4</ele><time>2026-04-26T11:49:27.685Z</time></trkpt><trkpt lat="42.409423" lon="12.9292335"><ele>494.2</ele><time>2026-04-26T11:49:29.686Z</time></trkpt><trkpt lat="42.409387" lon="12.9293422"><ele>495.0</ele><time>2026-04-26T11:49:30.686Z</time></trkpt><trkpt lat="42.409327" lon="12.929439"><ele>496.25</ele><time>2026-04-26T11:49:31.686Z</time></trkpt><trkpt lat="42.4092464" lon="12.929532"><ele>497.5</ele><time>2026-04-26T11:49:32.686Z</time></trkpt><trkpt lat="42.4091432" lon="12.9296211"><ele>498.75</ele><time>2026-04-26T11:49:33.685Z</time></trkpt><trkpt lat="42.4090305" lon="12.929705"><ele>500.0</ele><time>2026-04-26T11:49:34.687Z</time></trkpt><trkpt lat="42.4089228" lon="12.9298033"><ele>500.0</ele><time>2026-04-26T11:49:35.687Z</time></trkpt><trkpt lat="42.4088301" lon="12.9298967"><ele>500.0</ele><time>2026-04-26T11:49:36.686Z</time></trkpt><trkpt lat="42.4087544" lon="12.9299898"><ele>500.0</ele><time>2026-04-26T11:49:37.687Z</time></trkpt><trkpt lat="42.4087002" lon="12.9300722"><ele>500.0</ele><time>2026-04-26T11:49:38.687Z</time></trkpt><trkpt lat="42.4086425" lon="12.9301663"><ele>500.0</ele><time>2026-04-26T11:49:40.686Z</time></trkpt><trkpt lat="42.4085868" lon="12.9302194"><ele>499.4</ele><time>2026-04-26T11:49:43.686Z</time></trkpt><trkpt lat="42.408524" lon="12.9302284"><ele>498.8</ele><time>2026-04-26T11:49:44.687Z</time></trkpt><trkpt lat="42.4084472" lon="12.9302082"><ele>498.20000000000005</ele><time>2026-04-26T11:49:45.686Z</time></trkpt><trkpt lat="42.408356" lon="12.9301644"><ele>497.6</ele><time>2026-04-26T11:49:46.686Z</time></trkpt><trkpt lat="42.4082591" lon="12.9301058"><ele>497.0</ele><time>2026-04-26T11:49:47.687Z</time></trkpt><trkpt lat="42.4081576" lon="12.9300401"><ele>497.0</ele><time>2026-04-26T11:49:48.687Z</time></trkpt><trkpt lat="42.4080563" lon="12.9299788"><ele>497.00000000000006</ele><time>2026-04-26T11:49:49.686Z</time></trkpt><trkpt lat="42.4079572" lon="12.9299201"><ele>497.00000000000006</ele><time>2026-04-26T11:49:50.687Z</time></trkpt><trkpt lat="42.4078604" lon="12.9298659"><ele>497.0</ele><time>2026-04-26T11:49:51.687Z</time></trkpt><trkpt lat="42.4077615" lon="12.9298099"><ele>497.0</ele><time>2026-04-26T11:49:52.685Z</time></trkpt><trkpt lat="42.4076627" lon="12.929752"><ele>496.20000000000005</ele><time>2026-04-26T11:49:53.686Z</time></trkpt><trkpt lat="42.407562" lon="12.9296967"><ele>495.40000000000003</ele><time>2026-04-26T11:49:54.686Z</time></trkpt><trkpt lat="42.4074666" lon="12.9296409"><ele>494.59999999999997</ele><time>2026-04-26T11:49:55.685Z</time></trkpt><trkpt lat="42.4073775" lon="12.9295843"><ele>493.79999999999995</ele><time>2026-04-26T11:49:56.686Z</time></trkpt><trkpt lat="42.4072919" lon="12.9295309"><ele>493.0</ele><time>2026-04-26T11:49:57.685Z</time></trkpt><trkpt lat="42.4072093" lon="12.929474"><ele>492.33333333333337</ele><time>2026-04-26T11:49:58.686Z</time></trkpt><trkpt lat="42.407128" lon="12.9294152"><ele>491.6666666666667</ele><time>2026-04-26T11:49:59.685Z</time></trkpt><trkpt lat="42.4070539" lon="12.9293586"><ele>491.0</ele><time>2026-04-26T11:50:00.686Z</time></trkpt><trkpt lat="42.4069974" lon="12.9293072"><ele>490.33333333333337</ele><time>2026-04-26T11:50:01.684Z</time></trkpt><trkpt lat="42.4069177" lon="12.9292291"><ele>489.6666666666667</ele><time>2026-04-26T11:50:03.686Z</time></trkpt><trkpt lat="42.4068534" lon="12.9292034"><ele>489.0</ele><time>2026-04-26T11:50:05.686Z</time></trkpt><trkpt lat="42.4067879" lon="12.92924"><ele>488.2</ele><time>2026-04-26T11:50:09.685Z</time></trkpt><trkpt lat="42.4066964" lon="12.9292019"><ele>487.4</ele><time>2026-04-26T11:50:22.685Z</time></trkpt><trkpt lat="42.4066187" lon="12.9291531"><ele>486.6</ele><time>2026-04-26T11:50:23.686Z</time></trkpt><trkpt lat="42.4065316" lon="12.9290956"><ele>485.8</ele><time>2026-04-26T11:50:24.686Z</time></trkpt><trkpt lat="42.4064408" lon="12.9290399"><ele>485.0</ele><time>2026-04-26T11:50:25.686Z</time></trkpt><trkpt lat="42.406355" lon="12.9289873"><ele>485.0</ele><time>2026-04-26T11:50:26.686Z</time></trkpt><trkpt lat="42.4062637" lon="12.9289384"><ele>485.0</ele><time>2026-04-26T11:50:27.685Z</time></trkpt><trkpt lat="42.4061679" lon="12.9288891"><ele>485.0</ele><time>2026-04-26T11:50:28.685Z</time></trkpt><trkpt lat="42.4060699" lon="12.9288436"><ele>485.0</ele><time>2026-04-26T11:50:29.685Z</time></trkpt><trkpt lat="42.4059668" lon="12.9288015"><ele>485.0</ele><time>2026-04-26T11:50:30.685Z</time></trkpt><trkpt lat="42.4058653" lon="12.9287568"><ele>485.0</ele><time>2026-04-26T11:50:31.685Z</time></trkpt><trkpt lat="42.4057675" lon="12.928715"><ele>485.0</ele><time>2026-04-26T11:50:32.686Z</time></trkpt><trkpt lat="42.405673" lon="12.9286729"><ele>485.0</ele><time>2026-04-26T11:50:33.685Z</time></trkpt><trkpt lat="42.405581" lon="12.928636"><ele>485.0</ele><time>2026-04-26T11:50:34.685Z</time></trkpt><trkpt lat="42.4054962" lon="12.9285947"><ele>485.0</ele><time>2026-04-26T11:50:35.685Z</time></trkpt><trkpt lat="42.4054133" lon="12.9285517"><ele>485.0</ele><time>2026-04-26T11:50:36.685Z</time></trkpt><trkpt lat="42.4053274" lon="12.928512"><ele>485.0</ele><time>2026-04-26T11:50:37.685Z</time></trkpt><trkpt lat="42.4052339" lon="12.9284684"><ele>485.0</ele><time>2026-04-26T11:50:38.685Z</time></trkpt><trkpt lat="42.4051242" lon="12.928414"><ele>485.0</ele><time>2026-04-26T11:50:39.685Z</time></trkpt><trkpt lat="42.4050118" lon="12.9283442"><ele>485.0</ele><time>2026-04-26T11:50:40.685Z</time></trkpt><trkpt lat="42.4048954" lon="12.9282704"><ele>485.0</ele><time>2026-04-26T11:50:41.686Z</time></trkpt><trkpt lat="42.4047786" lon="12.9281893"><ele>485.0</ele><time>2026-04-26T11:50:42.685Z</time></trkpt><trkpt lat="42.404664" lon="12.9281136"><ele>485.0</ele><time>2026-04-26T11:50:43.686Z</time></trkpt><trkpt lat="42.4045561" lon="12.9280472"><ele>485.0</ele><time>2026-04-26T11:50:44.685Z</time></trkpt><trkpt lat="42.4044509" lon="12.9279768"><ele>484.4</ele><time>2026-04-26T11:50:45.686Z</time></trkpt><trkpt lat="42.404353" lon="12.9279058"><ele>483.8</ele><time>2026-04-26T11:50:46.686Z</time></trkpt><trkpt lat="42.4042598" lon="12.9278243"><ele>483.20000000000005</ele><time>2026-04-26T11:50:47.686Z</time></trkpt><trkpt lat="42.4041753" lon="12.9277351"><ele>482.6</ele><time>2026-04-26T11:50:48.685Z</time></trkpt><trkpt lat="42.4040986" lon="12.9276423"><ele>482.0</ele><time>2026-04-26T11:50:49.685Z</time></trkpt><trkpt lat="42.4040333" lon="12.9275391"><ele>481.99999999999994</ele><time>2026-04-26T11:50:50.685Z</time></trkpt><trkpt lat="42.4039793" lon="12.9274404"><ele>482.0</ele><time>2026-04-26T11:50:51.685Z</time></trkpt><trkpt lat="42.4039281" lon="12.9273606"><ele>482.0</ele><time>2026-04-26T11:50:52.686Z</time></trkpt><trkpt lat="42.4038659" lon="12.9272921"><ele>482.0</ele><time>2026-04-26T11:50:53.686Z</time></trkpt><trkpt lat="42.4037945" lon="12.9272332"><ele>481.99999999999994</ele><time>2026-04-26T11:50:54.686Z</time></trkpt><trkpt lat="42.4037137" lon="12.9271896"><ele>482.0</ele><time>2026-04-26T11:50:55.686Z</time></trkpt><trkpt lat="42.4036268" lon="12.9271534"><ele>482.99999999999994</ele><time>2026-04-26T11:50:56.686Z</time></trkpt><trkpt lat="42.4035369" lon="12.9271261"><ele>484.0</ele><time>2026-04-26T11:50:57.685Z</time></trkpt><trkpt lat="42.4034435" lon="12.9271002"><ele>485.0</ele><time>2026-04-26T11:50:58.685Z</time></trkpt><trkpt lat="42.4033656" lon="12.9270725"><ele>486.0</ele><time>2026-04-26T11:50:59.686Z</time></trkpt><trkpt lat="42.403299" lon="12.9270486"><ele>486.99999999999994</ele><time>2026-04-26T11:51:00.686Z</time></trkpt><trkpt lat="42.4032065" lon="12.9270162"><ele>488.0</ele><time>2026-04-26T11:51:02.686Z</time></trkpt><trkpt lat="42.4030882" lon="12.9269796"><ele>487.99999999999994</ele><time>2026-04-26T11:51:11.685Z</time></trkpt><trkpt lat="42.4030226" lon="12.9269481"><ele>488.0</ele><time>2026-04-26T11:51:12.684Z</time></trkpt><trkpt lat="42.4029475" lon="12.9269019"><ele>488.0</ele><time>2026-04-26T11:51:13.685Z</time></trkpt><trkpt lat="42.4028742" lon="12.9268356"><ele>488.0</ele><time>2026-04-26T11:51:14.686Z</time></trkpt><trkpt lat="42.4028057" lon="12.9267389"><ele>487.99999999999994</ele><time>2026-04-26T11:51:15.685Z</time></trkpt><trkpt lat="42.4027374" lon="12.9266467"><ele>488.0</ele><time>2026-04-26T11:51:16.685Z</time></trkpt><trkpt lat="42.402652" lon="12.9265576"><ele>488.2</ele><time>2026-04-26T11:51:17.686Z</time></trkpt><trkpt lat="42.4025749" lon="12.9264736"><ele>488.4</ele><time>2026-04-26T11:51:18.686Z</time></trkpt><trkpt lat="42.4025018" lon="12.9263941"><ele>488.59999999999997</ele><time>2026-04-26T11:51:19.685Z</time></trkpt><trkpt lat="42.4024271" lon="12.9263291"><ele>488.79999999999995</ele><time>2026-04-26T11:51:20.685Z</time></trkpt><trkpt lat="42.4023618" lon="12.926265"><ele>489.0</ele><time>2026-04-26T11:51:21.684Z</time></trkpt><trkpt lat="42.4022757" lon="12.9262356"><ele>489.0</ele><time>2026-04-26T11:51:23.686Z</time></trkpt><trkpt lat="42.4022071" lon="12.9262594"><ele>489.0</ele><time>2026-04-26T11:51:25.686Z</time></trkpt><trkpt lat="42.4021093" lon="12.926254"><ele>489.0</ele><time>2026-04-26T11:51:27.686Z</time></trkpt><trkpt lat="42.40204" lon="12.9262608"><ele>489.0</ele><time>2026-04-26T11:51:28.684Z</time></trkpt><trkpt lat="42.4019246" lon="12.9262653"><ele>489.0</ele><time>2026-04-26T11:51:30.684Z</time></trkpt><trkpt lat="42.4018053" lon="12.9262744"><ele>490.6666666666667</ele><time>2026-04-26T11:51:32.685Z</time></trkpt><trkpt lat="42.4017119" lon="12.9262972"><ele>492.33333333333337</ele><time>2026-04-26T11:51:33.685Z</time></trkpt><trkpt lat="42.401629" lon="12.9263002"><ele>494.0</ele><time>2026-04-26T11:51:34.685Z</time></trkpt><trkpt lat="42.4015479" lon="12.9263041"><ele>495.6666666666667</ele><time>2026-04-26T11:51:35.684Z</time></trkpt><trkpt lat="42.401468" lon="12.9263212"><ele>497.33333333333337</ele><time>2026-04-26T11:51:36.685Z</time></trkpt><trkpt lat="42.4013909" lon="12.9263251"><ele>499.0</ele><time>2026-04-26T11:51:37.684Z</time></trkpt><trkpt lat="42.4012985" lon="12.9263327"><ele>499.50000000000006</ele><time>2026-04-26T11:51:38.685Z</time></trkpt><trkpt lat="42.4012127" lon="12.9263375"><ele>500.0</ele><time>2026-04-26T11:51:39.686Z</time></trkpt><trkpt lat="42.401134" lon="12.9263456"><ele>500.5</ele><time>2026-04-26T11:51:40.685Z</time></trkpt><trkpt lat="42.4010494" lon="12.9263505"><ele>501.0</ele><time>2026-04-26T11:51:41.685Z</time></trkpt><trkpt lat="42.4009514" lon="12.9263736"><ele>501.50000000000006</ele><time>2026-04-26T11:51:42.685Z</time></trkpt><trkpt lat="42.4008619" lon="12.9263909"><ele>502.0</ele><time>2026-04-26T11:51:43.686Z</time></trkpt><trkpt lat="42.4007915" lon="12.9264036"><ele>502.00000000000006</ele><time>2026-04-26T11:51:44.685Z</time></trkpt><trkpt lat="42.4006862" lon="12.9264443"><ele>502.0</ele><time>2026-04-26T11:51:46.685Z</time></trkpt><trkpt lat="42.4006045" lon="12.9264943"><ele>502.0</ele><time>2026-04-26T11:51:48.685Z</time></trkpt><trkpt lat="42.4005542" lon="12.9266161"><ele>502.0</ele><time>2026-04-26T11:51:50.685Z</time></trkpt><trkpt lat="42.4005332" lon="12.9267045"><ele>502.00000000000006</ele><time>2026-04-26T11:51:51.686Z</time></trkpt><trkpt lat="42.4005199" lon="12.9267918"><ele>502.0</ele><time>2026-04-26T11:51:52.686Z</time></trkpt><trkpt lat="42.4005096" lon="12.926885"><ele>501.33333333333337</ele><time>2026-04-26T11:51:53.686Z</time></trkpt><trkpt lat="42.4005022" lon="12.9269828"><ele>500.6666666666667</ele><time>2026-04-26T11:51:54.686Z</time></trkpt><trkpt lat="42.4004957" lon="12.9270909"><ele>500.0</ele><time>2026-04-26T11:51:55.685Z</time></trkpt><trkpt lat="42.4004831" lon="12.9271938"><ele>499.33333333333337</ele><time>2026-04-26T11:51:56.686Z</time></trkpt><trkpt lat="42.4004559" lon="12.9272908"><ele>498.6666666666667</ele><time>2026-04-26T11:51:57.685Z</time></trkpt><trkpt lat="42.4004218" lon="12.9273745"><ele>498.0</ele><time>2026-04-26T11:51:58.685Z</time></trkpt><trkpt lat="42.4003837" lon="12.9274673"><ele>498.0</ele><time>2026-04-26T11:51:59.684Z</time></trkpt><trkpt lat="42.400336" lon="12.9275471"><ele>497.99999999999994</ele><time>2026-04-26T11:52:00.684Z</time></trkpt><trkpt lat="42.400286" lon="12.927626"><ele>498.0</ele><time>2026-04-26T11:52:01.686Z</time></trkpt><trkpt lat="42.4002246" lon="12.9276922"><ele>498.0</ele><time>2026-04-26T11:52:02.686Z</time></trkpt><trkpt lat="42.4001617" lon="12.9277451"><ele>497.99999999999994</ele><time>2026-04-26T11:52:03.685Z</time></trkpt><trkpt lat="42.4001003" lon="12.9277781"><ele>498.0</ele><time>2026-04-26T11:52:04.684Z</time></trkpt><trkpt lat="42.4000269" lon="12.9278077"><ele>498.0</ele><time>2026-04-26T11:52:05.685Z</time></trkpt><trkpt lat="42.3999551" lon="12.9278307"><ele>499.6666666666667</ele><time>2026-04-26T11:52:06.685Z</time></trkpt><trkpt lat="42.3998715" lon="12.9278492"><ele>501.33333333333337</ele><time>2026-04-26T11:52:07.686Z</time></trkpt><trkpt lat="42.3997844" lon="12.9278686"><ele>503.0</ele><time>2026-04-26T11:52:08.683Z</time></trkpt><trkpt lat="42.3996984" lon="12.9278794"><ele>504.6666666666667</ele><time>2026-04-26T11:52:09.684Z</time></trkpt><trkpt lat="42.3996112" lon="12.927892"><ele>506.33333333333337</ele><time>2026-04-26T11:52:10.683Z</time></trkpt><trkpt lat="42.3995425" lon="12.9278857"><ele>508.0</ele><time>2026-04-26T11:52:11.685Z</time></trkpt><trkpt lat="42.3994437" lon="12.9279104"><ele>508.33333333333337</ele><time>2026-04-26T11:52:13.685Z</time></trkpt><trkpt lat="42.3993491" lon="12.9279126"><ele>508.6666666666667</ele><time>2026-04-26T11:52:15.685Z</time></trkpt><trkpt lat="42.3992657" lon="12.9279223"><ele>509.0</ele><time>2026-04-26T11:52:17.684Z</time></trkpt><trkpt lat="42.399202" lon="12.9279827"><ele>509.33333333333337</ele><time>2026-04-26T11:52:19.685Z</time></trkpt><trkpt lat="42.3991406" lon="12.9280312"><ele>509.6666666666667</ele><time>2026-04-26T11:52:21.685Z</time></trkpt><trkpt lat="42.3990696" lon="12.928104"><ele>510.0</ele><time>2026-04-26T11:52:26.685Z</time></trkpt><trkpt lat="42.3990336" lon="12.9281838"><ele>510.0</ele><time>2026-04-26T11:52:28.684Z</time></trkpt><trkpt lat="42.3990322" lon="12.9282904"><ele>510.0</ele><time>2026-04-26T11:52:31.685Z</time></trkpt><trkpt lat="42.3990805" lon="12.9283558"><ele>510.0</ele><time>2026-04-26T11:52:40.683Z</time></trkpt><trkpt lat="42.3990148" lon="12.928316"><ele>510.0</ele><time>2026-04-26T11:54:17.685Z</time></trkpt><trkpt lat="42.399017" lon="12.9282035"><ele>510.0</ele><time>2026-04-26T11:54:20.684Z</time></trkpt><trkpt lat="42.3990707" lon="12.9281195"><ele>510.0</ele><time>2026-04-26T11:54:22.683Z</time></trkpt><trkpt lat="42.3991621" lon="12.9280269"><ele>510.0</ele><time>2026-04-26T11:54:24.683Z</time></trkpt><trkpt lat="42.3992269" lon="12.9279609"><ele>510.0</ele><time>2026-04-26T11:54:26.684Z</time></trkpt><trkpt lat="42.3992886" lon="12.9279214"><ele>510.0</ele><time>2026-04-26T11:54:28.683Z</time></trkpt><trkpt lat="42.3993755" lon="12.927909"><ele>510.0</ele><time>2026-04-26T11:54:30.683Z</time></trkpt><trkpt lat="42.3994835" lon="12.9278934"><ele>510.0</ele><time>2026-04-26T11:54:32.683Z</time></trkpt><trkpt lat="42.3996117" lon="12.927878"><ele>509.6666666666667</ele><time>2026-04-26T11:54:34.684Z</time></trkpt><trkpt lat="42.3996832" lon="12.9278778"><ele>509.33333333333337</ele><time>2026-04-26T11:54:35.683Z</time></trkpt><trkpt lat="42.3997599" lon="12.9278602"><ele>509.0</ele><time>2026-04-26T11:54:36.683Z</time></trkpt><trkpt lat="42.3998382" lon="12.9278491"><ele>508.6666666666667</ele><time>2026-04-26T11:54:37.683Z</time></trkpt><trkpt lat="42.399916" lon="12.9278302"><ele>508.33333333333337</ele><time>2026-04-26T11:54:38.683Z</time></trkpt><trkpt lat="42.3999951" lon="12.9278095"><ele>508.0</ele><time>2026-04-26T11:54:39.683Z</time></trkpt><trkpt lat="42.4000733" lon="12.9277857"><ele>508.0</ele><time>2026-04-26T11:54:40.682Z</time></trkpt><trkpt lat="42.4001391" lon="12.9277573"><ele>508.0</ele><time>2026-04-26T11:54:41.683Z</time></trkpt><trkpt lat="42.4001998" lon="12.9277203"><ele>508.0</ele><time>2026-04-26T11:54:42.682Z</time></trkpt><trkpt lat="42.4002502" lon="12.9276683"><ele>508.0</ele><time>2026-04-26T11:54:43.684Z</time></trkpt><trkpt lat="42.4003024" lon="12.9276023"><ele>508.0</ele><time>2026-04-26T11:54:44.684Z</time></trkpt><trkpt lat="42.4003495" lon="12.9275321"><ele>508.0</ele><time>2026-04-26T11:54:45.683Z</time></trkpt><trkpt lat="42.400396" lon="12.9274432"><ele>508.0</ele><time>2026-04-26T11:54:46.684Z</time></trkpt><trkpt lat="42.400432" lon="12.9273492"><ele>508.6666666666667</ele><time>2026-04-26T11:54:47.683Z</time></trkpt><trkpt lat="42.400467" lon="12.9272577"><ele>509.33333333333337</ele><time>2026-04-26T11:54:48.683Z</time></trkpt><trkpt lat="42.4004857" lon="12.9271631"><ele>510.0</ele><time>2026-04-26T11:54:49.684Z</time></trkpt><trkpt lat="42.4005124" lon="12.9270687"><ele>510.66666666666663</ele><time>2026-04-26T11:54:50.684Z</time></trkpt><trkpt lat="42.4005173" lon="12.9269532"><ele>511.3333333333333</ele><time>2026-04-26T11:54:51.682Z</time></trkpt><trkpt lat="42.4005297" lon="12.9268472"><ele>512.0</ele><time>2026-04-26T11:54:52.682Z</time></trkpt><trkpt lat="42.4005418" lon="12.926745"><ele>510.3333333333333</ele><time>2026-04-26T11:54:53.683Z</time></trkpt><trkpt lat="42.4005629" lon="12.9266613"><ele>508.66666666666663</ele><time>2026-04-26T11:54:54.682Z</time></trkpt><trkpt lat="42.4005863" lon="12.9265793"><ele>507.0</ele><time>2026-04-26T11:54:55.682Z</time></trkpt><trkpt lat="42.4006559" lon="12.9264726"><ele>505.33333333333337</ele><time>2026-04-26T11:54:57.683Z</time></trkpt><trkpt lat="42.4007625" lon="12.9264032"><ele>503.6666666666667</ele><time>2026-04-26T11:54:59.683Z</time></trkpt><trkpt lat="42.4008559" lon="12.926388"><ele>502.0</ele><time>2026-04-26T11:55:00.683Z</time></trkpt><trkpt lat="42.4009708" lon="12.9263727"><ele>502.0</ele><time>2026-04-26T11:55:01.682Z</time></trkpt><trkpt lat="42.4010723" lon="12.9263548"><ele>502.00000000000006</ele><time>2026-04-26T11:55:02.683Z</time></trkpt><trkpt lat="42.4011599" lon="12.9263404"><ele>502.00000000000006</ele><time>2026-04-26T11:55:03.683Z</time></trkpt><trkpt lat="42.4012542" lon="12.9263297"><ele>502.0</ele><time>2026-04-26T11:55:04.684Z</time></trkpt><trkpt lat="42.401335" lon="12.9263241"><ele>502.0</ele><time>2026-04-26T11:55:05.684Z</time></trkpt><trkpt lat="42.4014369" lon="12.9263092"><ele>501.50000000000006</ele><time>2026-04-26T11:55:06.684Z</time></trkpt><trkpt lat="42.4015242" lon="12.9262948"><ele>501.0</ele><time>2026-04-26T11:55:07.683Z</time></trkpt><trkpt lat="42.401598" lon="12.9262774"><ele>500.5</ele><time>2026-04-26T11:55:08.684Z</time></trkpt><trkpt lat="42.4016913" lon="12.9262751"><ele>500.0</ele><time>2026-04-26T11:55:09.683Z</time></trkpt><trkpt lat="42.4017805" lon="12.9262689"><ele>499.50000000000006</ele><time>2026-04-26T11:55:10.683Z</time></trkpt><trkpt lat="42.4018688" lon="12.9262569"><ele>499.0</ele><time>2026-04-26T11:55:11.684Z</time></trkpt><trkpt lat="42.401955" lon="12.9262394"><ele>499.00000000000006</ele><time>2026-04-26T11:55:12.684Z</time></trkpt><trkpt lat="42.4020303" lon="12.9262398"><ele>499.0</ele><time>2026-04-26T11:55:13.684Z</time></trkpt><trkpt lat="42.4021091" lon="12.9262363"><ele>499.0</ele><time>2026-04-26T11:55:14.683Z</time></trkpt><trkpt lat="42.4021888" lon="12.9262177"><ele>499.0</ele><time>2026-04-26T11:55:15.683Z</time></trkpt><trkpt lat="42.4022588" lon="12.9262267"><ele>499.00000000000006</ele><time>2026-04-26T11:55:16.682Z</time></trkpt><trkpt lat="42.4023766" lon="12.9262843"><ele>499.0</ele><time>2026-04-26T11:55:18.684Z</time></trkpt><trkpt lat="42.4024432" lon="12.9263306"><ele>499.1666666666667</ele><time>2026-04-26T11:55:19.684Z</time></trkpt><trkpt lat="42.4025059" lon="12.9263855"><ele>499.33333333333337</ele><time>2026-04-26T11:55:20.683Z</time></trkpt><trkpt lat="42.4025759" lon="12.9264543"><ele>499.5</ele><time>2026-04-26T11:55:21.684Z</time></trkpt><trkpt lat="42.4026455" lon="12.9265292"><ele>499.66666666666663</ele><time>2026-04-26T11:55:22.683Z</time></trkpt><trkpt lat="42.4027079" lon="12.9266023"><ele>499.8333333333333</ele><time>2026-04-26T11:55:23.684Z</time></trkpt><trkpt lat="42.4027667" lon="12.9266712"><ele>500.0</ele><time>2026-04-26T11:55:24.684Z</time></trkpt><trkpt lat="42.4028263" lon="12.9267402"><ele>500.0</ele><time>2026-04-26T11:55:25.683Z</time></trkpt><trkpt lat="42.4028825" lon="12.9268166"><ele>500.0</ele><time>2026-04-26T11:55:26.683Z</time></trkpt><trkpt lat="42.4029398" lon="12.9268814"><ele>500.0</ele><time>2026-04-26T11:55:27.684Z</time></trkpt><trkpt lat="42.4030019" lon="12.9269323"><ele>500.0</ele><time>2026-04-26T11:55:28.683Z</time></trkpt><trkpt lat="42.4030639" lon="12.9269741"><ele>500.0</ele><time>2026-04-26T11:55:29.684Z</time></trkpt><trkpt lat="42.4031273" lon="12.9270097"><ele>500.0</ele><time>2026-04-26T11:55:30.684Z</time></trkpt><trkpt lat="42.4031945" lon="12.9270371"><ele>500.0</ele><time>2026-04-26T11:55:31.683Z</time></trkpt><trkpt lat="42.4032685" lon="12.927065"><ele>497.99999999999994</ele><time>2026-04-26T11:55:32.683Z</time></trkpt><trkpt lat="42.4033415" lon="12.9270923"><ele>496.0</ele><time>2026-04-26T11:55:33.684Z</time></trkpt><trkpt lat="42.4034077" lon="12.9271174"><ele>494.0</ele><time>2026-04-26T11:55:34.684Z</time></trkpt><trkpt lat="42.403471" lon="12.927138"><ele>492.0</ele><time>2026-04-26T11:55:35.682Z</time></trkpt><trkpt lat="42.4035848" lon="12.927168"><ele>489.99999999999994</ele><time>2026-04-26T11:55:37.683Z</time></trkpt><trkpt lat="42.4036978" lon="12.9271925"><ele>488.0</ele><time>2026-04-26T11:55:39.683Z</time></trkpt><trkpt lat="42.4037631" lon="12.927223"><ele>487.99999999999994</ele><time>2026-04-26T11:55:40.683Z</time></trkpt><trkpt lat="42.4038206" lon="12.9272584"><ele>488.0</ele><time>2026-04-26T11:55:41.682Z</time></trkpt><trkpt lat="42.4039067" lon="12.9273296"><ele>488.0</ele><time>2026-04-26T11:55:43.682Z</time></trkpt><trkpt lat="42.4039884" lon="12.9273048"><ele>488.0</ele><time>2026-04-26T11:55:47.684Z</time></trkpt><trkpt lat="42.4040292" lon="12.927165"><ele>487.99999999999994</ele><time>2026-04-26T11:55:49.683Z</time></trkpt><trkpt lat="42.4040508" lon="12.927047"><ele>488.0</ele><time>2026-04-26T11:55:50.682Z</time></trkpt><trkpt lat="42.4040729" lon="12.9269093"><ele>486.79999999999995</ele><time>2026-04-26T11:55:51.682Z</time></trkpt><trkpt lat="42.4040933" lon="12.9267738"><ele>485.59999999999997</ele><time>2026-04-26T11:55:52.682Z</time></trkpt><trkpt lat="42.4041066" lon="12.9266315"><ele>484.40000000000003</ele><time>2026-04-26T11:55:53.683Z</time></trkpt><trkpt lat="42.4041077" lon="12.9264862"><ele>483.20000000000005</ele><time>2026-04-26T11:55:54.683Z</time></trkpt><trkpt lat="42.4041012" lon="12.9263378"><ele>482.0</ele><time>2026-04-26T11:55:55.683Z</time></trkpt><trkpt lat="42.4041077" lon="12.9262011"><ele>480.8333333333333</ele><time>2026-04-26T11:55:56.683Z</time></trkpt><trkpt lat="42.4041088" lon="12.9260707"><ele>479.66666666666663</ele><time>2026-04-26T11:55:57.683Z</time></trkpt><trkpt lat="42.4041155" lon="12.9259478"><ele>478.5</ele><time>2026-04-26T11:55:58.683Z</time></trkpt><trkpt lat="42.4041225" lon="12.9258356"><ele>477.33333333333337</ele><time>2026-04-26T11:55:59.682Z</time></trkpt><trkpt lat="42.404143" lon="12.9257438"><ele>476.1666666666667</ele><time>2026-04-26T11:56:00.683Z</time></trkpt><trkpt lat="42.4041707" lon="12.9256587"><ele>475.0</ele><time>2026-04-26T11:56:01.682Z</time></trkpt><trkpt lat="42.4042044" lon="12.92556"><ele>474.83333333333337</ele><time>2026-04-26T11:56:03.683Z</time></trkpt><trkpt lat="42.4041964" lon="12.9254449"><ele>474.6666666666667</ele><time>2026-04-26T11:56:10.682Z</time></trkpt><trkpt lat="42.4040884" lon="12.9253996"><ele>474.5</ele><time>2026-04-26T11:56:12.683Z</time></trkpt><trkpt lat="42.4040103" lon="12.9253876"><ele>474.33333333333337</ele><time>2026-04-26T11:56:13.682Z</time></trkpt><trkpt lat="42.4039239" lon="12.92537"><ele>474.1666666666667</ele><time>2026-04-26T11:56:14.682Z</time></trkpt><trkpt lat="42.4038398" lon="12.9253551"><ele>474.0</ele><time>2026-04-26T11:56:15.684Z</time></trkpt><trkpt lat="42.4037639" lon="12.9253396"><ele>474.0</ele><time>2026-04-26T11:56:16.683Z</time></trkpt><trkpt lat="42.4036925" lon="12.9253247"><ele>474.0</ele><time>2026-04-26T11:56:17.683Z</time></trkpt><trkpt lat="42.4036293" lon="12.9253019"><ele>474.0</ele><time>2026-04-26T11:56:18.682Z</time></trkpt><trkpt lat="42.4035385" lon="12.9251908"><ele>474.0</ele><time>2026-04-26T11:56:20.682Z</time></trkpt><trkpt lat="42.4035123" lon="12.9250991"><ele>474.0</ele><time>2026-04-26T11:56:21.683Z</time></trkpt><trkpt lat="42.4035021" lon="12.9249849"><ele>474.0</ele><time>2026-04-26T11:56:22.683Z</time></trkpt><trkpt lat="42.4035001" lon="12.92485"><ele>473.2</ele><time>2026-04-26T11:56:23.682Z</time></trkpt><trkpt lat="42.4034998" lon="12.924704"><ele>472.4</ele><time>2026-04-26T11:56:24.684Z</time></trkpt><trkpt lat="42.4034966" lon="12.9245598"><ele>471.6</ele><time>2026-04-26T11:56:25.684Z</time></trkpt><trkpt lat="42.4034882" lon="12.924418"><ele>470.8</ele><time>2026-04-26T11:56:26.684Z</time></trkpt><trkpt lat="42.4034851" lon="12.9242853"><ele>470.0</ele><time>2026-04-26T11:56:27.682Z</time></trkpt><trkpt lat="42.4034812" lon="12.9241621"><ele>469.8333333333333</ele><time>2026-04-26T11:56:28.683Z</time></trkpt><trkpt lat="42.4034762" lon="12.9240444"><ele>469.66666666666663</ele><time>2026-04-26T11:56:29.681Z</time></trkpt><trkpt lat="42.4034741" lon="12.9239414"><ele>469.5</ele><time>2026-04-26T11:56:30.681Z</time></trkpt><trkpt lat="42.4034754" lon="12.9238524"><ele>469.33333333333337</ele><time>2026-04-26T11:56:31.681Z</time></trkpt><trkpt lat="42.403471" lon="12.9237255"><ele>469.1666666666667</ele><time>2026-04-26T11:56:33.683Z</time></trkpt><trkpt lat="42.4034356" lon="12.9236327"><ele>469.0</ele><time>2026-04-26T11:56:39.682Z</time></trkpt><trkpt lat="42.4033835" lon="12.9235828"><ele>469.0</ele><time>2026-04-26T11:56:40.682Z</time></trkpt><trkpt lat="42.4032992" lon="12.9235539"><ele>469.0</ele><time>2026-04-26T11:56:41.683Z</time></trkpt><trkpt lat="42.403191" lon="12.9235355"><ele>469.0</ele><time>2026-04-26T11:56:42.682Z</time></trkpt><trkpt lat="42.4030733" lon="12.9235129"><ele>469.0</ele><time>2026-04-26T11:56:43.683Z</time></trkpt><trkpt lat="42.4029432" lon="12.9234867"><ele>469.0</ele><time>2026-04-26T11:56:44.682Z</time></trkpt><trkpt lat="42.4028007" lon="12.92346"><ele>468.6666666666667</ele><time>2026-04-26T11:56:45.682Z</time></trkpt><trkpt lat="42.4026551" lon="12.9234339"><ele>468.33333333333337</ele><time>2026-04-26T11:56:46.683Z</time></trkpt><trkpt lat="42.4025039" lon="12.9234055"><ele>468.0</ele><time>2026-04-26T11:56:47.682Z</time></trkpt><trkpt lat="42.4023502" lon="12.923374"><ele>467.33333333333337</ele><time>2026-04-26T11:56:48.682Z</time></trkpt><trkpt lat="42.4021873" lon="12.9233405"><ele>466.6666666666667</ele><time>2026-04-26T11:56:49.682Z</time></trkpt><trkpt lat="42.4020214" lon="12.9233071"><ele>466.0</ele><time>2026-04-26T11:56:50.682Z</time></trkpt><trkpt lat="42.401853" lon="12.9232736"><ele>465.33333333333337</ele><time>2026-04-26T11:56:51.683Z</time></trkpt><trkpt lat="42.4016823" lon="12.9232411"><ele>464.66666666666663</ele><time>2026-04-26T11:56:52.682Z</time></trkpt><trkpt lat="42.4015125" lon="12.9232096"><ele>464.0</ele><time>2026-04-26T11:56:53.683Z</time></trkpt><trkpt lat="42.4013425" lon="12.923179"><ele>464.3333333333333</ele><time>2026-04-26T11:56:54.683Z</time></trkpt><trkpt lat="42.4011739" lon="12.9231489"><ele>464.66666666666663</ele><time>2026-04-26T11:56:55.683Z</time></trkpt><trkpt lat="42.4010114" lon="12.9231179"><ele>465.0</ele><time>2026-04-26T11:56:56.682Z</time></trkpt><trkpt lat="42.4008472" lon="12.9230859"><ele>465.0</ele><time>2026-04-26T11:56:57.682Z</time></trkpt><trkpt lat="42.4006872" lon="12.9230578"><ele>465.0</ele><time>2026-04-26T11:56:58.682Z</time></trkpt><trkpt lat="42.400534" lon="12.9230304"><ele>465.0</ele><time>2026-04-26T11:56:59.682Z</time></trkpt><trkpt lat="42.4003851" lon="12.9230032"><ele>464.75</ele><time>2026-04-26T11:57:00.682Z</time></trkpt><trkpt lat="42.4002425" lon="12.9229772"><ele>464.5</ele><time>2026-04-26T11:57:01.683Z</time></trkpt><trkpt lat="42.4000984" lon="12.9229499"><ele>464.25</ele><time>2026-04-26T11:57:02.683Z</time></trkpt><trkpt lat="42.399954" lon="12.92292"><ele>464.0</ele><time>2026-04-26T11:57:03.683Z</time></trkpt><trkpt lat="42.3998074" lon="12.9228908"><ele>463.66666666666663</ele><time>2026-04-26T11:57:04.683Z</time></trkpt><trkpt lat="42.3996589" lon="12.9228632"><ele>463.33333333333337</ele><time>2026-04-26T11:57:05.683Z</time></trkpt><trkpt lat="42.3995094" lon="12.9228377"><ele>463.0</ele><time>2026-04-26T11:57:06.683Z</time></trkpt><trkpt lat="42.3993559" lon="12.922812"><ele>463.0</ele><time>2026-04-26T11:57:07.683Z</time></trkpt><trkpt lat="42.3991998" lon="12.9227863"><ele>463.0</ele><time>2026-04-26T11:57:08.683Z</time></trkpt><trkpt lat="42.3990386" lon="12.9227552"><ele>463.0</ele><time>2026-04-26T11:57:09.682Z</time></trkpt><trkpt lat="42.3988737" lon="12.9227245"><ele>463.33333333333337</ele><time>2026-04-26T11:57:10.682Z</time></trkpt><trkpt lat="42.3987061" lon="12.9226936"><ele>463.66666666666663</ele><time>2026-04-26T11:57:11.682Z</time></trkpt><trkpt lat="42.3985366" lon="12.9226618"><ele>464.0</ele><time>2026-04-26T11:57:12.683Z</time></trkpt><trkpt lat="42.3983655" lon="12.9226283"><ele>464.0</ele><time>2026-04-26T11:57:13.682Z</time></trkpt><trkpt lat="42.3981911" lon="12.9225958"><ele>464.0</ele><time>2026-04-26T11:57:14.682Z</time></trkpt><trkpt lat="42.3980077" lon="12.9225647"><ele>464.0</ele><time>2026-04-26T11:57:15.682Z</time></trkpt><trkpt lat="42.3978191" lon="12.9225289"><ele>460.3333333333333</ele><time>2026-04-26T11:57:16.683Z</time></trkpt><trkpt lat="42.3976267" lon="12.9224936"><ele>456.66666666666663</ele><time>2026-04-26T11:57:17.682Z</time></trkpt><trkpt lat="42.3974329" lon="12.922459"><ele>453.0</ele><time>2026-04-26T11:57:18.683Z</time></trkpt><trkpt lat="42.3972427" lon="12.9224236"><ele>454.0</ele><time>2026-04-26T11:57:19.683Z</time></trkpt><trkpt lat="42.3970588" lon="12.9223878"><ele>455.0</ele><time>2026-04-26T11:57:20.682Z</time></trkpt><trkpt lat="42.3968823" lon="12.9223545"><ele>456.0</ele><time>2026-04-26T11:57:21.683Z</time></trkpt><trkpt lat="42.3967094" lon="12.9223242"><ele>456.0</ele><time>2026-04-26T11:57:22.683Z</time></trkpt><trkpt lat="42.3965419" lon="12.9222959"><ele>456.0</ele><time>2026-04-26T11:57:23.682Z</time></trkpt><trkpt lat="42.3963753" lon="12.9222658"><ele>456.0</ele><time>2026-04-26T11:57:24.682Z</time></trkpt><trkpt lat="42.3962079" lon="12.9222388"><ele>456.0</ele><time>2026-04-26T11:57:25.682Z</time></trkpt><trkpt lat="42.3960444" lon="12.9222102"><ele>456.0</ele><time>2026-04-26T11:57:26.682Z</time></trkpt><trkpt lat="42.3958827" lon="12.9221796"><ele>456.0</ele><time>2026-04-26T11:57:27.681Z</time></trkpt><trkpt lat="42.3957225" lon="12.9221467"><ele>456.0</ele><time>2026-04-26T11:57:28.682Z</time></trkpt><trkpt lat="42.3955634" lon="12.9221173"><ele>456.0</ele><time>2026-04-26T11:57:29.681Z</time></trkpt><trkpt lat="42.3954049" lon="12.9220948"><ele>456.0</ele><time>2026-04-26T11:57:30.681Z</time></trkpt><trkpt lat="42.3952454" lon="12.922078"><ele>453.33333333333337</ele><time>2026-04-26T11:57:31.682Z</time></trkpt><trkpt lat="42.3950872" lon="12.9220678"><ele>450.6666666666667</ele><time>2026-04-26T11:57:32.682Z</time></trkpt><trkpt lat="42.3949318" lon="12.9220696"><ele>448.0</ele><time>2026-04-26T11:57:33.682Z</time></trkpt><trkpt lat="42.3947845" lon="12.9220913"><ele>444.75</ele><time>2026-04-26T11:57:34.682Z</time></trkpt><trkpt lat="42.3946503" lon="12.9221414"><ele>441.5</ele><time>2026-04-26T11:57:35.681Z</time></trkpt><trkpt lat="42.3945282" lon="12.9222286"><ele>438.25</ele><time>2026-04-26T11:57:36.683Z</time></trkpt><trkpt lat="42.3944298" lon="12.9223516"><ele>435.0</ele><time>2026-04-26T11:57:37.682Z</time></trkpt><trkpt lat="42.3943564" lon="12.9225056"><ele>434.5</ele><time>2026-04-26T11:57:38.683Z</time></trkpt><trkpt lat="42.3943119" lon="12.9226855"><ele>434.0</ele><time>2026-04-26T11:57:39.681Z</time></trkpt><trkpt lat="42.3942828" lon="12.922879"><ele>433.5</ele><time>2026-04-26T11:57:40.682Z</time></trkpt><trkpt lat="42.3942605" lon="12.9230779"><ele>433.0</ele><time>2026-04-26T11:57:41.682Z</time></trkpt><trkpt lat="42.3942403" lon="12.9232696"><ele>432.0</ele><time>2026-04-26T11:57:42.681Z</time></trkpt><trkpt lat="42.3942354" lon="12.923449"><ele>430.99999999999994</ele><time>2026-04-26T11:57:43.682Z</time></trkpt><trkpt lat="42.3942446" lon="12.9236018"><ele>429.99999999999994</ele><time>2026-04-26T11:57:44.683Z</time></trkpt><trkpt lat="42.3942588" lon="12.9237306"><ele>429.0</ele><time>2026-04-26T11:57:45.682Z</time></trkpt><trkpt lat="42.3942718" lon="12.923834"><ele>428.0</ele><time>2026-04-26T11:57:46.682Z</time></trkpt><trkpt lat="42.3942858" lon="12.9239178"><ele>428.0</ele><time>2026-04-26T11:57:47.682Z</time></trkpt><trkpt lat="42.3943248" lon="12.9240879"><ele>428.0</ele><time>2026-04-26T11:57:49.681Z</time></trkpt><trkpt lat="42.3943567" lon="12.9242031"><ele>428.0</ele><time>2026-04-26T11:57:50.682Z</time></trkpt><trkpt lat="42.3943964" lon="12.9243431"><ele>428.0</ele><time>2026-04-26T11:57:51.683Z</time></trkpt><trkpt lat="42.3944359" lon="12.9244966"><ele>427.59999999999997</ele><time>2026-04-26T11:57:52.682Z</time></trkpt><trkpt lat="42.3944588" lon="12.9246113"><ele>427.19999999999993</ele><time>2026-04-26T11:57:53.681Z</time></trkpt><trkpt lat="42.3944764" lon="12.924737"><ele>426.8</ele><time>2026-04-26T11:57:55.682Z</time></trkpt><trkpt lat="42.3944516" lon="12.9248875"><ele>426.4</ele><time>2026-04-26T11:58:06.682Z</time></trkpt><trkpt lat="42.3943992" lon="12.9249637"><ele>426.0</ele><time>2026-04-26T11:58:07.683Z</time></trkpt><trkpt lat="42.3943251" lon="12.9250147"><ele>425.99999999999994</ele><time>2026-04-26T11:58:08.683Z</time></trkpt><trkpt lat="42.3942538" lon="12.9250392"><ele>426.0</ele><time>2026-04-26T11:58:09.682Z</time></trkpt><trkpt lat="42.3941835" lon="12.9250292"><ele>426.0</ele><time>2026-04-26T11:58:10.682Z</time></trkpt><trkpt lat="42.3941209" lon="12.9249865"><ele>426.0</ele><time>2026-04-26T11:58:11.683Z</time></trkpt><trkpt lat="42.3940577" lon="12.9249172"><ele>426.0</ele><time>2026-04-26T11:58:12.683Z</time></trkpt><trkpt lat="42.3940175" lon="12.9248317"><ele>425.99999999999994</ele><time>2026-04-26T11:58:13.682Z</time></trkpt><trkpt lat="42.393997" lon="12.9247432"><ele>426.0</ele><time>2026-04-26T11:58:14.682Z</time></trkpt><trkpt lat="42.3939831" lon="12.9246474"><ele>426.0</ele><time>2026-04-26T11:58:15.683Z</time></trkpt><trkpt lat="42.3939632" lon="12.9245412"><ele>426.0</ele><time>2026-04-26T11:58:16.683Z</time></trkpt><trkpt lat="42.3939452" lon="12.9244252"><ele>426.0</ele><time>2026-04-26T11:58:17.683Z</time></trkpt><trkpt lat="42.3939226" lon="12.9242935"><ele>426.0</ele><time>2026-04-26T11:58:18.682Z</time></trkpt><trkpt lat="42.3938949" lon="12.9241459"><ele>426.0</ele><time>2026-04-26T11:58:19.683Z</time></trkpt><trkpt lat="42.3938379" lon="12.9238199"><ele>423.66666666666663</ele><time>2026-04-26T11:58:21.682Z</time></trkpt><trkpt lat="42.3938064" lon="12.9236333"><ele>421.3333333333333</ele><time>2026-04-26T11:58:22.682Z</time></trkpt><trkpt lat="42.3937827" lon="12.9234257"><ele>419.0</ele><time>2026-04-26T11:58:23.682Z</time></trkpt><trkpt lat="42.3937649" lon="12.9232085"><ele>419.0</ele><time>2026-04-26T11:58:24.681Z</time></trkpt><trkpt lat="42.3937466" lon="12.9229735"><ele>419.0</ele><time>2026-04-26T11:58:25.682Z</time></trkpt><trkpt lat="42.3937348" lon="12.9227279"><ele>419.0</ele><time>2026-04-26T11:58:26.682Z</time></trkpt><trkpt lat="42.3937282" lon="12.9224807"><ele>417.66666666666663</ele><time>2026-04-26T11:58:27.682Z</time></trkpt><trkpt lat="42.3937279" lon="12.9222294"><ele>416.33333333333337</ele><time>2026-04-26T11:58:28.682Z</time></trkpt><trkpt lat="42.3937312" lon="12.9219762"><ele>415.0</ele><time>2026-04-26T11:58:29.682Z</time></trkpt><trkpt lat="42.3937339" lon="12.9217394"><ele>414.5</ele><time>2026-04-26T11:58:30.683Z</time></trkpt><trkpt lat="42.3937477" lon="12.921291"><ele>414.0</ele><time>2026-04-26T11:58:32.682Z</time></trkpt><trkpt lat="42.393756" lon="12.9210628"><ele>413.66666666666663</ele><time>2026-04-26T11:58:33.682Z</time></trkpt><trkpt lat="42.3937702" lon="12.9208303"><ele>413.3333333333333</ele><time>2026-04-26T11:58:34.683Z</time></trkpt><trkpt lat="42.3937844" lon="12.9205886"><ele>413.0</ele><time>2026-04-26T11:58:35.681Z</time></trkpt><trkpt lat="42.3937998" lon="12.9203234"><ele>413.66666666666663</ele><time>2026-04-26T11:58:36.681Z</time></trkpt><trkpt lat="42.3938123" lon="12.9200375"><ele>414.33333333333337</ele><time>2026-04-26T11:58:37.681Z</time></trkpt><trkpt lat="42.3938244" lon="12.9197433"><ele>415.0</ele><time>2026-04-26T11:58:38.681Z</time></trkpt><trkpt lat="42.3938397" lon="12.9194401"><ele>421.5</ele><time>2026-04-26T11:58:39.681Z</time></trkpt><trkpt lat="42.393856" lon="12.919129"><ele>428.0</ele><time>2026-04-26T11:58:40.681Z</time></trkpt><trkpt lat="42.393871" lon="12.918814"><ele>428.0</ele><time>2026-04-26T11:58:41.681Z</time></trkpt><trkpt lat="42.3938864" lon="12.9184981"><ele>428.0</ele><time>2026-04-26T11:58:42.68Z</time></trkpt><trkpt lat="42.3939049" lon="12.9181824"><ele>428.0</ele><time>2026-04-26T11:58:43.681Z</time></trkpt><trkpt lat="42.3939239" lon="12.9178672"><ele>428.0</ele><time>2026-04-26T11:58:44.681Z</time></trkpt><trkpt lat="42.3939438" lon="12.9175488"><ele>428.0</ele><time>2026-04-26T11:58:45.682Z</time></trkpt><trkpt lat="42.3939622" lon="12.9172318"><ele>428.0</ele><time>2026-04-26T11:58:46.68Z</time></trkpt><trkpt lat="42.3939799" lon="12.916911"><ele>424.5</ele><time>2026-04-26T11:58:47.681Z</time></trkpt><trkpt lat="42.3939944" lon="12.9165866"><ele>421.0</ele><time>2026-04-26T11:58:48.681Z</time></trkpt><trkpt lat="42.3940109" lon="12.9162637"><ele>421.0</ele><time>2026-04-26T11:58:49.681Z</time></trkpt><trkpt lat="42.3940303" lon="12.9159461"><ele>421.0</ele><time>2026-04-26T11:58:50.681Z</time></trkpt><trkpt lat="42.3940471" lon="12.9156312"><ele>408.0</ele><time>2026-04-26T11:58:51.682Z</time></trkpt><trkpt lat="42.3940865" lon="12.91501"><ele>408.0</ele><time>2026-04-26T11:58:53.681Z</time></trkpt><trkpt lat="42.3941052" lon="12.914705"><ele>408.0</ele><time>2026-04-26T11:58:54.682Z</time></trkpt><trkpt lat="42.3941235" lon="12.9144019"><ele>406.33333333333337</ele><time>2026-04-26T11:58:55.682Z</time></trkpt><trkpt lat="42.3941373" lon="12.914104"><ele>404.6666666666667</ele><time>2026-04-26T11:58:56.681Z</time></trkpt><trkpt lat="42.3941449" lon="12.913804"><ele>403.0</ele><time>2026-04-26T11:58:57.682Z</time></trkpt><trkpt lat="42.3941474" lon="12.913504"><ele>401.33333333333337</ele><time>2026-04-26T11:58:58.681Z</time></trkpt><trkpt lat="42.3941448" lon="12.9132046"><ele>399.66666666666663</ele><time>2026-04-26T11:58:59.682Z</time></trkpt><trkpt lat="42.3941387" lon="12.9129054"><ele>398.0</ele><time>2026-04-26T11:59:00.682Z</time></trkpt><trkpt lat="42.3941264" lon="12.9126073"><ele>398.0</ele><time>2026-04-26T11:59:01.682Z</time></trkpt><trkpt lat="42.3941096" lon="12.9123104"><ele>398.0</ele><time>2026-04-26T11:59:02.681Z</time></trkpt><trkpt lat="42.3940885" lon="12.9120167"><ele>398.0</ele><time>2026-04-26T11:59:03.681Z</time></trkpt><trkpt lat="42.3940614" lon="12.9117233"><ele>398.0</ele><time>2026-04-26T11:59:04.682Z</time></trkpt><trkpt lat="42.3940299" lon="12.911432"><ele>398.0</ele><time>2026-04-26T11:59:05.681Z</time></trkpt><trkpt lat="42.3939977" lon="12.9111384"><ele>398.0</ele><time>2026-04-26T11:59:06.682Z</time></trkpt><trkpt lat="42.3939616" lon="12.9108341"><ele>399.0</ele><time>2026-04-26T11:59:07.681Z</time></trkpt><trkpt lat="42.393924" lon="12.9105297"><ele>400.0</ele><time>2026-04-26T11:59:08.682Z</time></trkpt><trkpt lat="42.393888" lon="12.9102253"><ele>400.5</ele><time>2026-04-26T11:59:09.681Z</time></trkpt><trkpt lat="42.39385" lon="12.9099187"><ele>401.0</ele><time>2026-04-26T11:59:10.681Z</time></trkpt><trkpt lat="42.3938123" lon="12.909611"><ele>423.5</ele><time>2026-04-26T11:59:11.682Z</time></trkpt><trkpt lat="42.3937732" lon="12.9093011"><ele>446.0</ele><time>2026-04-26T11:59:12.681Z</time></trkpt><trkpt lat="42.3937367" lon="12.90899"><ele>446.0</ele><time>2026-04-26T11:59:13.682Z</time></trkpt><trkpt lat="42.3937074" lon="12.9086775"><ele>446.0</ele><time>2026-04-26T11:59:14.681Z</time></trkpt><trkpt lat="42.3936951" lon="12.9083652"><ele>446.5</ele><time>2026-04-26T11:59:15.682Z</time></trkpt><trkpt lat="42.3937019" lon="12.9080537"><ele>447.0</ele><time>2026-04-26T11:59:16.681Z</time></trkpt><trkpt lat="42.3937245" lon="12.9077489"><ele>448.0</ele><time>2026-04-26T11:59:17.682Z</time></trkpt><trkpt lat="42.3937563" lon="12.9074503"><ele>449.0</ele><time>2026-04-26T11:59:18.682Z</time></trkpt><trkpt lat="42.3937939" lon="12.907154"><ele>450.0</ele><time>2026-04-26T11:59:19.681Z</time></trkpt><trkpt lat="42.3938349" lon="12.9068578"><ele>431.66666666666663</ele><time>2026-04-26T11:59:20.681Z</time></trkpt><trkpt lat="42.3938773" lon="12.906563"><ele>413.3333333333333</ele><time>2026-04-26T11:59:21.681Z</time></trkpt><trkpt lat="42.3939186" lon="12.906272"><ele>395.0</ele><time>2026-04-26T11:59:22.681Z</time></trkpt><trkpt lat="42.3939556" lon="12.9059805"><ele>396.3333333333333</ele><time>2026-04-26T11:59:23.682Z</time></trkpt><trkpt lat="42.3939848" lon="12.9056881"><ele>397.66666666666663</ele><time>2026-04-26T11:59:24.681Z</time></trkpt><trkpt lat="42.3940021" lon="12.9053966"><ele>399.0</ele><time>2026-04-26T11:59:25.682Z</time></trkpt><trkpt lat="42.3940046" lon="12.9051045"><ele>400.33333333333337</ele><time>2026-04-26T11:59:26.681Z</time></trkpt><trkpt lat="42.3939915" lon="12.904814"><ele>401.6666666666667</ele><time>2026-04-26T11:59:27.682Z</time></trkpt><trkpt lat="42.3939635" lon="12.9045277"><ele>403.0</ele><time>2026-04-26T11:59:28.682Z</time></trkpt><trkpt lat="42.3939199" lon="12.9042469"><ele>402.0</ele><time>2026-04-26T11:59:29.681Z</time></trkpt><trkpt lat="42.393861" lon="12.9039667"><ele>401.0</ele><time>2026-04-26T11:59:30.681Z</time></trkpt><trkpt lat="42.3937901" lon="12.9036873"><ele>400.0</ele><time>2026-04-26T11:59:31.681Z</time></trkpt><trkpt lat="42.3937134" lon="12.9034006"><ele>408.5</ele><time>2026-04-26T11:59:32.681Z</time></trkpt><trkpt lat="42.3936324" lon="12.9031098"><ele>417.0</ele><time>2026-04-26T11:59:33.682Z</time></trkpt><trkpt lat="42.3935448" lon="12.9028138"><ele>410.5</ele><time>2026-04-26T11:59:34.68Z</time></trkpt><trkpt lat="42.3934589" lon="12.9025125"><ele>404.0</ele><time>2026-04-26T11:59:35.681Z</time></trkpt><trkpt lat="42.3933706" lon="12.9022079"><ele>404.0</ele><time>2026-04-26T11:59:36.681Z</time></trkpt><trkpt lat="42.3932815" lon="12.9018982"><ele>404.0</ele><time>2026-04-26T11:59:37.681Z</time></trkpt><trkpt lat="42.3931899" lon="12.9015901"><ele>400.5</ele><time>2026-04-26T11:59:38.681Z</time></trkpt><trkpt lat="42.3930975" lon="12.9012813"><ele>397.0</ele><time>2026-04-26T11:59:39.682Z</time></trkpt><trkpt lat="42.3930042" lon="12.9009743"><ele>401.0</ele><time>2026-04-26T11:59:40.681Z</time></trkpt><trkpt lat="42.3929079" lon="12.9006654"><ele>405.0</ele><time>2026-04-26T11:59:41.681Z</time></trkpt><trkpt lat="42.392815" lon="12.900357"><ele>400.5</ele><time>2026-04-26T11:59:42.68Z</time></trkpt><trkpt lat="42.3927202" lon="12.9000473"><ele>396.0</ele><time>2026-04-26T11:59:43.681Z</time></trkpt><trkpt lat="42.3926265" lon="12.8997384"><ele>396.0</ele><time>2026-04-26T11:59:44.68Z</time></trkpt><trkpt lat="42.3925314" lon="12.8994311"><ele>396.0</ele><time>2026-04-26T11:59:45.682Z</time></trkpt><trkpt lat="42.3924415" lon="12.8991238"><ele>396.0</ele><time>2026-04-26T11:59:46.68Z</time></trkpt><trkpt lat="42.3923495" lon="12.8988202"><ele>396.0</ele><time>2026-04-26T11:59:47.682Z</time></trkpt><trkpt lat="42.3922577" lon="12.8985175"><ele>395.0</ele><time>2026-04-26T11:59:48.681Z</time></trkpt><trkpt lat="42.3921666" lon="12.8982188"><ele>394.0</ele><time>2026-04-26T11:59:49.682Z</time></trkpt><trkpt lat="42.3920769" lon="12.8979218"><ele>394.0</ele><time>2026-04-26T11:59:50.681Z</time></trkpt><trkpt lat="42.3919913" lon="12.8976312"><ele>394.0</ele><time>2026-04-26T11:59:51.681Z</time></trkpt><trkpt lat="42.3919103" lon="12.8973433"><ele>393.5</ele><time>2026-04-26T11:59:52.68Z</time></trkpt><trkpt lat="42.3918361" lon="12.8970542"><ele>393.0</ele><time>2026-04-26T11:59:53.681Z</time></trkpt><trkpt lat="42.3917693" lon="12.8967607"><ele>393.5</ele><time>2026-04-26T11:59:54.681Z</time></trkpt><trkpt lat="42.3917058" lon="12.896464"><ele>394.0</ele><time>2026-04-26T11:59:55.681Z</time></trkpt><trkpt lat="42.3916494" lon="12.8961642"><ele>395.0</ele><time>2026-04-26T11:59:56.681Z</time></trkpt><trkpt lat="42.3916007" lon="12.8958626"><ele>396.0</ele><time>2026-04-26T11:59:57.68Z</time></trkpt><trkpt lat="42.3915632" lon="12.8955583"><ele>396.0</ele><time>2026-04-26T11:59:58.681Z</time></trkpt><trkpt lat="42.3915339" lon="12.8952541"><ele>396.0</ele><time>2026-04-26T11:59:59.682Z</time></trkpt><trkpt lat="42.3915099" lon="12.8949469"><ele>399.5</ele><time>2026-04-26T12:00:00.682Z</time></trkpt><trkpt lat="42.3914949" lon="12.8946392"><ele>403.0</ele><time>2026-04-26T12:00:01.681Z</time></trkpt><trkpt lat="42.3914864" lon="12.8943332"><ele>402.33333333333337</ele><time>2026-04-26T12:00:02.68Z</time></trkpt><trkpt lat="42.391484" lon="12.8940281"><ele>401.66666666666663</ele><time>2026-04-26T12:00:03.682Z</time></trkpt><trkpt lat="42.3914896" lon="12.8937263"><ele>401.0</ele><time>2026-04-26T12:00:04.681Z</time></trkpt><trkpt lat="42.3915026" lon="12.8934227"><ele>400.3333333333333</ele><time>2026-04-26T12:00:05.681Z</time></trkpt><trkpt lat="42.3915224" lon="12.893124"><ele>399.66666666666663</ele><time>2026-04-26T12:00:06.682Z</time></trkpt><trkpt lat="42.3915506" lon="12.8928299"><ele>399.0</ele><time>2026-04-26T12:00:07.682Z</time></trkpt><trkpt lat="42.3915863" lon="12.8925403"><ele>398.33333333333337</ele><time>2026-04-26T12:00:08.682Z</time></trkpt><trkpt lat="42.3916295" lon="12.8922532"><ele>397.6666666666667</ele><time>2026-04-26T12:00:09.682Z</time></trkpt><trkpt lat="42.3916784" lon="12.8919705"><ele>397.0</ele><time>2026-04-26T12:00:10.68Z</time></trkpt><trkpt lat="42.3917336" lon="12.8916917"><ele>396.33333333333337</ele><time>2026-04-26T12:00:11.681Z</time></trkpt><trkpt lat="42.3917942" lon="12.8914176"><ele>395.66666666666663</ele><time>2026-04-26T12:00:12.681Z</time></trkpt><trkpt lat="42.3918589" lon="12.8911464"><ele>395.0</ele><time>2026-04-26T12:00:13.681Z</time></trkpt><trkpt lat="42.3919298" lon="12.8908866"><ele>394.66666666666663</ele><time>2026-04-26T12:00:14.682Z</time></trkpt><trkpt lat="42.3920035" lon="12.8906351"><ele>394.33333333333337</ele><time>2026-04-26T12:00:15.681Z</time></trkpt><trkpt lat="42.3920818" lon="12.8903958"><ele>394.0</ele><time>2026-04-26T12:00:16.681Z</time></trkpt><trkpt lat="42.392164" lon="12.8901571"><ele>394.6666666666667</ele><time>2026-04-26T12:00:17.681Z</time></trkpt><trkpt lat="42.3922512" lon="12.8899135"><ele>395.33333333333337</ele><time>2026-04-26T12:00:18.68Z</time></trkpt><trkpt lat="42.3923416" lon="12.889667"><ele>396.0</ele><time>2026-04-26T12:00:19.682Z</time></trkpt><trkpt lat="42.3924337" lon="12.8894126"><ele>395.0</ele><time>2026-04-26T12:00:20.681Z</time></trkpt><trkpt lat="42.3925306" lon="12.8891474"><ele>394.0</ele><time>2026-04-26T12:00:21.682Z</time></trkpt><trkpt lat="42.392634" lon="12.8888761"><ele>393.0</ele><time>2026-04-26T12:00:22.681Z</time></trkpt><trkpt lat="42.392737" lon="12.8885972"><ele>392.5</ele><time>2026-04-26T12:00:23.682Z</time></trkpt><trkpt lat="42.3928396" lon="12.8883201"><ele>392.0</ele><time>2026-04-26T12:00:24.682Z</time></trkpt><trkpt lat="42.3929373" lon="12.8880493"><ele>392.0</ele><time>2026-04-26T12:00:25.682Z</time></trkpt><trkpt lat="42.3930338" lon="12.8877797"><ele>392.0</ele><time>2026-04-26T12:00:26.682Z</time></trkpt><trkpt lat="42.393128" lon="12.8875164"><ele>392.0</ele><time>2026-04-26T12:00:27.682Z</time></trkpt><trkpt lat="42.3932206" lon="12.8872602"><ele>392.0</ele><time>2026-04-26T12:00:28.681Z</time></trkpt><trkpt lat="42.3933128" lon="12.8870082"><ele>392.0</ele><time>2026-04-26T12:00:29.681Z</time></trkpt><trkpt lat="42.3934035" lon="12.8867672"><ele>392.0</ele><time>2026-04-26T12:00:30.682Z</time></trkpt><trkpt lat="42.3934913" lon="12.8865401"><ele>392.0</ele><time>2026-04-26T12:00:31.682Z</time></trkpt><trkpt lat="42.3935759" lon="12.8863256"><ele>392.0</ele><time>2026-04-26T12:00:32.682Z</time></trkpt><trkpt lat="42.393653" lon="12.8861164"><ele>392.0</ele><time>2026-04-26T12:00:33.68Z</time></trkpt><trkpt lat="42.3937246" lon="12.8859184"><ele>392.0</ele><time>2026-04-26T12:00:34.68Z</time></trkpt><trkpt lat="42.3937913" lon="12.8857283"><ele>392.0</ele><time>2026-04-26T12:00:35.681Z</time></trkpt><trkpt lat="42.3938546" lon="12.8855502"><ele>392.0</ele><time>2026-04-26T12:00:36.681Z</time></trkpt><trkpt lat="42.3939204" lon="12.8853861"><ele>392.0</ele><time>2026-04-26T12:00:37.68Z</time></trkpt><trkpt lat="42.3939873" lon="12.885236"><ele>393.0</ele><time>2026-04-26T12:00:38.682Z</time></trkpt><trkpt lat="42.3940581" lon="12.8851031"><ele>394.0</ele><time>2026-04-26T12:00:39.681Z</time></trkpt><trkpt lat="42.3941411" lon="12.8849845"><ele>395.0</ele><time>2026-04-26T12:00:40.681Z</time></trkpt><trkpt lat="42.3942358" lon="12.8848857"><ele>396.0</ele><time>2026-04-26T12:00:41.68Z</time></trkpt><trkpt lat="42.3943395" lon="12.8848121"><ele>396.0</ele><time>2026-04-26T12:00:42.681Z</time></trkpt><trkpt lat="42.3944542" lon="12.8847734"><ele>396.0</ele><time>2026-04-26T12:00:43.681Z</time></trkpt><trkpt lat="42.3945824" lon="12.884772"><ele>396.0</ele><time>2026-04-26T12:00:44.68Z</time></trkpt><trkpt lat="42.3947108" lon="12.8848065"><ele>396.0</ele><time>2026-04-26T12:00:45.679Z</time></trkpt><trkpt lat="42.3948371" lon="12.8848669"><ele>397.0</ele><time>2026-04-26T12:00:46.679Z</time></trkpt><trkpt lat="42.3949572" lon="12.8849543"><ele>398.0</ele><time>2026-04-26T12:00:47.68Z</time></trkpt><trkpt lat="42.3950726" lon="12.8850678"><ele>399.0</ele><time>2026-04-26T12:00:48.679Z</time></trkpt><trkpt lat="42.3951907" lon="12.885196"><ele>400.0</ele><time>2026-04-26T12:00:49.68Z</time></trkpt><trkpt lat="42.3953186" lon="12.8853461"><ele>400.0</ele><time>2026-04-26T12:00:50.68Z</time></trkpt><trkpt lat="42.3954623" lon="12.8855111"><ele>400.0</ele><time>2026-04-26T12:00:51.679Z</time></trkpt><trkpt lat="42.3956081" lon="12.8856797"><ele>400.0</ele><time>2026-04-26T12:00:52.68Z</time></trkpt><trkpt lat="42.3957621" lon="12.8858585"><ele>400.0</ele><time>2026-04-26T12:00:53.681Z</time></trkpt><trkpt lat="42.3959163" lon="12.8860443"><ele>400.0</ele><time>2026-04-26T12:00:54.681Z</time></trkpt><trkpt lat="42.3960844" lon="12.8862187"><ele>400.0</ele><time>2026-04-26T12:00:55.681Z</time></trkpt><trkpt lat="42.3962477" lon="12.886386"><ele>400.33333333333337</ele><time>2026-04-26T12:00:56.681Z</time></trkpt><trkpt lat="42.3964188" lon="12.8865423"><ele>400.66666666666663</ele><time>2026-04-26T12:00:57.681Z</time></trkpt><trkpt lat="42.3965886" lon="12.8866954"><ele>401.0</ele><time>2026-04-26T12:00:58.68Z</time></trkpt><trkpt lat="42.3967625" lon="12.8868366"><ele>401.0</ele><time>2026-04-26T12:00:59.68Z</time></trkpt><trkpt lat="42.3969373" lon="12.8869674"><ele>401.0</ele><time>2026-04-26T12:01:00.68Z</time></trkpt><trkpt lat="42.3971157" lon="12.8870843"><ele>401.0</ele><time>2026-04-26T12:01:01.679Z</time></trkpt><trkpt lat="42.3972958" lon="12.8871861"><ele>402.3333333333333</ele><time>2026-04-26T12:01:02.68Z</time></trkpt><trkpt lat="42.397477" lon="12.8872745"><ele>403.66666666666663</ele><time>2026-04-26T12:01:03.679Z</time></trkpt><trkpt lat="42.3976518" lon="12.8873523"><ele>405.0</ele><time>2026-04-26T12:01:04.68Z</time></trkpt><trkpt lat="42.3978182" lon="12.8874227"><ele>405.0</ele><time>2026-04-26T12:01:05.681Z</time></trkpt><trkpt lat="42.3979755" lon="12.8874885"><ele>405.0</ele><time>2026-04-26T12:01:06.681Z</time></trkpt><trkpt lat="42.3981134" lon="12.88755"><ele>405.0</ele><time>2026-04-26T12:01:07.68Z</time></trkpt><trkpt lat="42.398228" lon="12.887601"><ele>405.0</ele><time>2026-04-26T12:01:08.68Z</time></trkpt><trkpt lat="42.3983281" lon="12.8876423"><ele>404.8</ele><time>2026-04-26T12:01:09.679Z</time></trkpt><trkpt lat="42.398406" lon="12.8876767"><ele>404.6</ele><time>2026-04-26T12:01:10.679Z</time></trkpt><trkpt lat="42.3984973" lon="12.8877085"><ele>404.4</ele><time>2026-04-26T12:01:12.68Z</time></trkpt><trkpt lat="42.3984663" lon="12.8876102"><ele>404.2</ele><time>2026-04-26T12:01:15.679Z</time></trkpt><trkpt lat="42.3983713" lon="12.8875863"><ele>404.0</ele><time>2026-04-26T12:01:16.68Z</time></trkpt><trkpt lat="42.3982649" lon="12.8875531"><ele>404.0</ele><time>2026-04-26T12:01:17.68Z</time></trkpt><trkpt lat="42.3981411" lon="12.8875032"><ele>404.0</ele><time>2026-04-26T12:01:18.681Z</time></trkpt><trkpt lat="42.3980094" lon="12.8874502"><ele>404.0</ele><time>2026-04-26T12:01:19.679Z</time></trkpt><trkpt lat="42.3978744" lon="12.8873961"><ele>404.0</ele><time>2026-04-26T12:01:20.68Z</time></trkpt><trkpt lat="42.3977431" lon="12.8873438"><ele>404.25</ele><time>2026-04-26T12:01:21.68Z</time></trkpt><trkpt lat="42.3976117" lon="12.8872935"><ele>404.5</ele><time>2026-04-26T12:01:22.681Z</time></trkpt><trkpt lat="42.3974825" lon="12.88724"><ele>404.75</ele><time>2026-04-26T12:01:23.68Z</time></trkpt><trkpt lat="42.3973598" lon="12.8871755"><ele>405.0</ele><time>2026-04-26T12:01:24.68Z</time></trkpt><trkpt lat="42.3972378" lon="12.8870996"><ele>403.66666666666663</ele><time>2026-04-26T12:01:25.681Z</time></trkpt><trkpt lat="42.3971075" lon="12.8870122"><ele>402.3333333333333</ele><time>2026-04-26T12:01:26.68Z</time></trkpt><trkpt lat="42.3969697" lon="12.8869133"><ele>401.0</ele><time>2026-04-26T12:01:27.679Z</time></trkpt><trkpt lat="42.3968304" lon="12.8868109"><ele>403.0</ele><time>2026-04-26T12:01:28.68Z</time></trkpt><trkpt lat="42.3966934" lon="12.886702"><ele>405.0</ele><time>2026-04-26T12:01:29.68Z</time></trkpt><trkpt lat="42.3965659" lon="12.886592"><ele>407.0</ele><time>2026-04-26T12:01:30.68Z</time></trkpt><trkpt lat="42.3964468" lon="12.8864792"><ele>405.25</ele><time>2026-04-26T12:01:31.679Z</time></trkpt><trkpt lat="42.3963308" lon="12.8863626"><ele>403.5</ele><time>2026-04-26T12:01:32.679Z</time></trkpt><trkpt lat="42.3962174" lon="12.8862431"><ele>401.75</ele><time>2026-04-26T12:01:33.679Z</time></trkpt><trkpt lat="42.3961099" lon="12.8861164"><ele>400.0</ele><time>2026-04-26T12:01:34.679Z</time></trkpt><trkpt lat="42.3960016" lon="12.8859819"><ele>400.25</ele><time>2026-04-26T12:01:35.681Z</time></trkpt><trkpt lat="42.3958921" lon="12.8858469"><ele>400.5</ele><time>2026-04-26T12:01:36.68Z</time></trkpt><trkpt lat="42.3957847" lon="12.8857142"><ele>400.75</ele><time>2026-04-26T12:01:37.68Z</time></trkpt><trkpt lat="42.3956812" lon="12.8855873"><ele>401.0</ele><time>2026-04-26T12:01:38.68Z</time></trkpt><trkpt lat="42.3955761" lon="12.8854584"><ele>400.66666666666663</ele><time>2026-04-26T12:01:39.68Z</time></trkpt><trkpt lat="42.3954723" lon="12.8853298"><ele>400.33333333333337</ele><time>2026-04-26T12:01:40.681Z</time></trkpt><trkpt lat="42.3953553" lon="12.8851888"><ele>400.0</ele><time>2026-04-26T12:01:41.681Z</time></trkpt><trkpt lat="42.3952396" lon="12.8850434"><ele>400.0</ele><time>2026-04-26T12:01:42.68Z</time></trkpt><trkpt lat="42.3951178" lon="12.8848916"><ele>400.0</ele><time>2026-04-26T12:01:43.681Z</time></trkpt><trkpt lat="42.3950006" lon="12.884743"><ele>400.0</ele><time>2026-04-26T12:01:44.681Z</time></trkpt><trkpt lat="42.3948846" lon="12.8845975"><ele>400.0</ele><time>2026-04-26T12:01:45.681Z</time></trkpt><trkpt lat="42.3947687" lon="12.8844542"><ele>400.0</ele><time>2026-04-26T12:01:46.679Z</time></trkpt><trkpt lat="42.3946555" lon="12.8843176"><ele>400.0</ele><time>2026-04-26T12:01:47.68Z</time></trkpt><trkpt lat="42.3945435" lon="12.8841802"><ele>399.5</ele><time>2026-04-26T12:01:48.681Z</time></trkpt><trkpt lat="42.3944287" lon="12.884041"><ele>399.0</ele><time>2026-04-26T12:01:49.68Z</time></trkpt><trkpt lat="42.3943166" lon="12.8839031"><ele>398.5</ele><time>2026-04-26T12:01:50.681Z</time></trkpt><trkpt lat="42.3942113" lon="12.8837749"><ele>398.0</ele><time>2026-04-26T12:01:51.68Z</time></trkpt><trkpt lat="42.3941115" lon="12.8836551"><ele>398.0</ele><time>2026-04-26T12:01:52.679Z</time></trkpt><trkpt lat="42.3940188" lon="12.8835353"><ele>398.0</ele><time>2026-04-26T12:01:53.68Z</time></trkpt><trkpt lat="42.3939363" lon="12.8834147"><ele>398.0</ele><time>2026-04-26T12:01:54.68Z</time></trkpt><trkpt lat="42.3938674" lon="12.8832763"><ele>398.0</ele><time>2026-04-26T12:01:55.681Z</time></trkpt><trkpt lat="42.3938182" lon="12.883129"><ele>397.79999999999995</ele><time>2026-04-26T12:01:56.679Z</time></trkpt><trkpt lat="42.3937964" lon="12.8829944"><ele>397.6</ele><time>2026-04-26T12:01:57.68Z</time></trkpt><trkpt lat="42.3938036" lon="12.8828641"><ele>397.4</ele><time>2026-04-26T12:01:58.679Z</time></trkpt><trkpt lat="42.3938313" lon="12.8827469"><ele>397.20000000000005</ele><time>2026-04-26T12:01:59.681Z</time></trkpt><trkpt lat="42.3938761" lon="12.8826417"><ele>397.0</ele><time>2026-04-26T12:02:00.681Z</time></trkpt><trkpt lat="42.3939337" lon="12.8825562"><ele>396.20000000000005</ele><time>2026-04-26T12:02:01.679Z</time></trkpt><trkpt lat="42.3940133" lon="12.8824865"><ele>395.4</ele><time>2026-04-26T12:02:02.68Z</time></trkpt><trkpt lat="42.3941044" lon="12.882442"><ele>394.6</ele><time>2026-04-26T12:02:03.68Z</time></trkpt><trkpt lat="42.3941958" lon="12.882425"><ele>393.79999999999995</ele><time>2026-04-26T12:02:04.68Z</time></trkpt><trkpt lat="42.394285" lon="12.8824527"><ele>393.0</ele><time>2026-04-26T12:02:05.68Z</time></trkpt><trkpt lat="42.3943754" lon="12.8824977"><ele>393.0</ele><time>2026-04-26T12:02:06.68Z</time></trkpt><trkpt lat="42.3944464" lon="12.8825718"><ele>393.0</ele><time>2026-04-26T12:02:07.68Z</time></trkpt><trkpt lat="42.3945021" lon="12.8826661"><ele>393.0</ele><time>2026-04-26T12:02:08.68Z</time></trkpt><trkpt lat="42.3945462" lon="12.8827804"><ele>393.0</ele><time>2026-04-26T12:02:09.681Z</time></trkpt><trkpt lat="42.3945637" lon="12.8829048"><ele>393.0</ele><time>2026-04-26T12:02:10.681Z</time></trkpt><trkpt lat="42.39456" lon="12.8830349"><ele>394.0</ele><time>2026-04-26T12:02:11.681Z</time></trkpt><trkpt lat="42.3945291" lon="12.8831795"><ele>395.0</ele><time>2026-04-26T12:02:12.679Z</time></trkpt><trkpt lat="42.3944719" lon="12.8833475"><ele>396.0</ele><time>2026-04-26T12:02:13.681Z</time></trkpt><trkpt lat="42.394411" lon="12.8835297"><ele>397.0</ele><time>2026-04-26T12:02:14.68Z</time></trkpt><trkpt lat="42.3943496" lon="12.8837158"><ele>397.33333333333337</ele><time>2026-04-26T12:02:15.679Z</time></trkpt><trkpt lat="42.3942892" lon="12.8839158"><ele>397.66666666666663</ele><time>2026-04-26T12:02:16.681Z</time></trkpt><trkpt lat="42.3942267" lon="12.8841202"><ele>398.0</ele><time>2026-04-26T12:02:17.68Z</time></trkpt><trkpt lat="42.3941559" lon="12.8843242"><ele>397.3333333333333</ele><time>2026-04-26T12:02:18.68Z</time></trkpt><trkpt lat="42.3940784" lon="12.8845359"><ele>396.66666666666663</ele><time>2026-04-26T12:02:19.68Z</time></trkpt><trkpt lat="42.3939962" lon="12.8847502"><ele>396.0</ele><time>2026-04-26T12:02:20.681Z</time></trkpt><trkpt lat="42.3939153" lon="12.8849697"><ele>394.66666666666663</ele><time>2026-04-26T12:02:21.681Z</time></trkpt><trkpt lat="42.3938359" lon="12.8851927"><ele>393.3333333333333</ele><time>2026-04-26T12:02:22.68Z</time></trkpt><trkpt lat="42.3937548" lon="12.8854189"><ele>392.0</ele><time>2026-04-26T12:02:23.681Z</time></trkpt><trkpt lat="42.3936741" lon="12.8856511"><ele>392.0</ele><time>2026-04-26T12:02:24.68Z</time></trkpt><trkpt lat="42.3935901" lon="12.8858791"><ele>392.0</ele><time>2026-04-26T12:02:25.679Z</time></trkpt><trkpt lat="42.3935066" lon="12.8861086"><ele>392.0</ele><time>2026-04-26T12:02:26.68Z</time></trkpt><trkpt lat="42.3934128" lon="12.8863532"><ele>392.0</ele><time>2026-04-26T12:02:27.679Z</time></trkpt><trkpt lat="42.3933116" lon="12.8866208"><ele>392.0</ele><time>2026-04-26T12:02:28.68Z</time></trkpt><trkpt lat="42.3932067" lon="12.8869004"><ele>392.0</ele><time>2026-04-26T12:02:29.68Z</time></trkpt><trkpt lat="42.3931023" lon="12.8871812"><ele>392.0</ele><time>2026-04-26T12:02:30.681Z</time></trkpt><trkpt lat="42.3929962" lon="12.8874686"><ele>392.0</ele><time>2026-04-26T12:02:31.681Z</time></trkpt><trkpt lat="42.392888" lon="12.8877615"><ele>392.0</ele><time>2026-04-26T12:02:32.679Z</time></trkpt><trkpt lat="42.3927809" lon="12.8880524"><ele>392.0</ele><time>2026-04-26T12:02:33.68Z</time></trkpt><trkpt lat="42.3926728" lon="12.8883453"><ele>392.0</ele><time>2026-04-26T12:02:34.68Z</time></trkpt><trkpt lat="42.3925645" lon="12.8886383"><ele>392.5</ele><time>2026-04-26T12:02:35.681Z</time></trkpt><trkpt lat="42.3924565" lon="12.8889333"><ele>393.0</ele><time>2026-04-26T12:02:36.679Z</time></trkpt><trkpt lat="42.3923507" lon="12.8892302"><ele>392.5</ele><time>2026-04-26T12:02:37.679Z</time></trkpt><trkpt lat="42.3922439" lon="12.889522"><ele>392.0</ele><time>2026-04-26T12:02:38.681Z</time></trkpt><trkpt lat="42.392139" lon="12.8898119"><ele>392.0</ele><time>2026-04-26T12:02:39.679Z</time></trkpt><trkpt lat="42.3920422" lon="12.8900893"><ele>392.0</ele><time>2026-04-26T12:02:40.679Z</time></trkpt><trkpt lat="42.39195" lon="12.8903593"><ele>392.0</ele><time>2026-04-26T12:02:41.679Z</time></trkpt><trkpt lat="42.3918621" lon="12.8906274"><ele>392.66666666666663</ele><time>2026-04-26T12:02:42.679Z</time></trkpt><trkpt lat="42.3917847" lon="12.8908968"><ele>393.33333333333337</ele><time>2026-04-26T12:02:43.679Z</time></trkpt><trkpt lat="42.3917159" lon="12.8911705"><ele>394.0</ele><time>2026-04-26T12:02:44.679Z</time></trkpt><trkpt lat="42.391655" lon="12.8914439"><ele>394.33333333333337</ele><time>2026-04-26T12:02:45.679Z</time></trkpt><trkpt lat="42.3915993" lon="12.8917175"><ele>394.66666666666663</ele><time>2026-04-26T12:02:46.679Z</time></trkpt><trkpt lat="42.3915462" lon="12.8919917"><ele>395.0</ele><time>2026-04-26T12:02:47.679Z</time></trkpt><trkpt lat="42.3914981" lon="12.8922674"><ele>395.66666666666663</ele><time>2026-04-26T12:02:48.679Z</time></trkpt><trkpt lat="42.3914556" lon="12.8925436"><ele>396.33333333333337</ele><time>2026-04-26T12:02:49.679Z</time></trkpt><trkpt lat="42.3914187" lon="12.8928226"><ele>397.0</ele><time>2026-04-26T12:02:50.68Z</time></trkpt><trkpt lat="42.3913893" lon="12.8931073"><ele>397.6666666666667</ele><time>2026-04-26T12:02:51.679Z</time></trkpt><trkpt lat="42.3913665" lon="12.8933963"><ele>398.33333333333337</ele><time>2026-04-26T12:02:52.679Z</time></trkpt><trkpt lat="42.3913535" lon="12.8936946"><ele>399.0</ele><time>2026-04-26T12:02:53.679Z</time></trkpt><trkpt lat="42.3913502" lon="12.8939985"><ele>401.0</ele><time>2026-04-26T12:02:54.679Z</time></trkpt><trkpt lat="42.3913542" lon="12.8943038"><ele>403.0</ele><time>2026-04-26T12:02:55.68Z</time></trkpt><trkpt lat="42.3913647" lon="12.8946096"><ele>403.0</ele><time>2026-04-26T12:02:56.678Z</time></trkpt><trkpt lat="42.3913798" lon="12.8949171"><ele>403.0</ele><time>2026-04-26T12:02:57.68Z</time></trkpt><trkpt lat="42.391405" lon="12.8952263"><ele>399.5</ele><time>2026-04-26T12:02:58.679Z</time></trkpt><trkpt lat="42.3914379" lon="12.8955385"><ele>396.0</ele><time>2026-04-26T12:02:59.679Z</time></trkpt><trkpt lat="42.3914791" lon="12.8958496"><ele>395.0</ele><time>2026-04-26T12:03:00.68Z</time></trkpt><trkpt lat="42.3915274" lon="12.896159"><ele>394.0</ele><time>2026-04-26T12:03:01.678Z</time></trkpt><trkpt lat="42.3915848" lon="12.8964669"><ele>393.5</ele><time>2026-04-26T12:03:02.678Z</time></trkpt><trkpt lat="42.3916468" lon="12.8967739"><ele>393.0</ele><time>2026-04-26T12:03:03.68Z</time></trkpt><trkpt lat="42.3917176" lon="12.897076"><ele>393.0</ele><time>2026-04-26T12:03:04.679Z</time></trkpt><trkpt lat="42.3917949" lon="12.897372"><ele>393.0</ele><time>2026-04-26T12:03:05.679Z</time></trkpt><trkpt lat="42.3918774" lon="12.8976637"><ele>393.5</ele><time>2026-04-26T12:03:06.68Z</time></trkpt><trkpt lat="42.3919627" lon="12.8979533"><ele>394.0</ele><time>2026-04-26T12:03:07.679Z</time></trkpt><trkpt lat="42.3920469" lon="12.8982419"><ele>395.0</ele><time>2026-04-26T12:03:08.679Z</time></trkpt><trkpt lat="42.3921344" lon="12.898528"><ele>396.0</ele><time>2026-04-26T12:03:09.679Z</time></trkpt><trkpt lat="42.3922214" lon="12.8988152"><ele>396.0</ele><time>2026-04-26T12:03:10.678Z</time></trkpt><trkpt lat="42.392307" lon="12.8991066"><ele>396.0</ele><time>2026-04-26T12:03:11.678Z</time></trkpt><trkpt lat="42.392393" lon="12.8993997"><ele>396.0</ele><time>2026-04-26T12:03:12.679Z</time></trkpt><trkpt lat="42.392479" lon="12.8996935"><ele>396.0</ele><time>2026-04-26T12:03:13.679Z</time></trkpt><trkpt lat="42.3925675" lon="12.8999832"><ele>400.5</ele><time>2026-04-26T12:03:14.68Z</time></trkpt><trkpt lat="42.3926546" lon="12.9002727"><ele>405.0</ele><time>2026-04-26T12:03:15.68Z</time></trkpt><trkpt lat="42.3927421" lon="12.9005615"><ele>405.0</ele><time>2026-04-26T12:03:16.68Z</time></trkpt><trkpt lat="42.3928292" lon="12.9008528"><ele>405.0</ele><time>2026-04-26T12:03:17.68Z</time></trkpt><trkpt lat="42.3929147" lon="12.9011421"><ele>401.0</ele><time>2026-04-26T12:03:18.68Z</time></trkpt><trkpt lat="42.3929983" lon="12.9014296"><ele>397.0</ele><time>2026-04-26T12:03:19.68Z</time></trkpt><trkpt lat="42.3930837" lon="12.901716"><ele>400.5</ele><time>2026-04-26T12:03:20.68Z</time></trkpt><trkpt lat="42.3931715" lon="12.9020021"><ele>404.0</ele><time>2026-04-26T12:03:21.679Z</time></trkpt><trkpt lat="42.3932596" lon="12.902286"><ele>404.0</ele><time>2026-04-26T12:03:22.68Z</time></trkpt><trkpt lat="42.3933475" lon="12.9025692"><ele>404.0</ele><time>2026-04-26T12:03:23.679Z</time></trkpt><trkpt lat="42.3934366" lon="12.9028555"><ele>410.5</ele><time>2026-04-26T12:03:24.678Z</time></trkpt><trkpt lat="42.3935265" lon="12.9031423"><ele>417.0</ele><time>2026-04-26T12:03:25.679Z</time></trkpt><trkpt lat="42.3936136" lon="12.9034296"><ele>423.33333333333337</ele><time>2026-04-26T12:03:26.678Z</time></trkpt><trkpt lat="42.3936949" lon="12.9037166"><ele>429.6666666666667</ele><time>2026-04-26T12:03:27.679Z</time></trkpt><trkpt lat="42.3937636" lon="12.9040011"><ele>436.0</ele><time>2026-04-26T12:03:28.68Z</time></trkpt><trkpt lat="42.3938172" lon="12.9042915"><ele>425.0</ele><time>2026-04-26T12:03:29.679Z</time></trkpt><trkpt lat="42.3938548" lon="12.9045838"><ele>414.0</ele><time>2026-04-26T12:03:30.679Z</time></trkpt><trkpt lat="42.3938783" lon="12.9048742"><ele>403.0</ele><time>2026-04-26T12:03:31.679Z</time></trkpt><trkpt lat="42.3938855" lon="12.9051634"><ele>401.6666666666667</ele><time>2026-04-26T12:03:32.678Z</time></trkpt><trkpt lat="42.3938761" lon="12.905453"><ele>400.33333333333337</ele><time>2026-04-26T12:03:33.678Z</time></trkpt><trkpt lat="42.3938537" lon="12.9057397"><ele>399.0</ele><time>2026-04-26T12:03:34.679Z</time></trkpt><trkpt lat="42.3938208" lon="12.9060271"><ele>416.0</ele><time>2026-04-26T12:03:35.679Z</time></trkpt><trkpt lat="42.3937841" lon="12.906306"><ele>433.0</ele><time>2026-04-26T12:03:36.679Z</time></trkpt><trkpt lat="42.393745" lon="12.906581"><ele>450.0</ele><time>2026-04-26T12:03:37.68Z</time></trkpt><trkpt lat="42.3937051" lon="12.9068556"><ele>450.0</ele><time>2026-04-26T12:03:38.679Z</time></trkpt><trkpt lat="42.3936653" lon="12.907128"><ele>450.0</ele><time>2026-04-26T12:03:39.679Z</time></trkpt><trkpt lat="42.3936256" lon="12.9074041"><ele>450.0</ele><time>2026-04-26T12:03:40.679Z</time></trkpt><trkpt lat="42.3935901" lon="12.9076863"><ele>449.0</ele><time>2026-04-26T12:03:41.679Z</time></trkpt><trkpt lat="42.3935709" lon="12.9079733"><ele>448.0</ele><time>2026-04-26T12:03:42.679Z</time></trkpt><trkpt lat="42.3935664" lon="12.9082691"><ele>447.0</ele><time>2026-04-26T12:03:43.679Z</time></trkpt><trkpt lat="42.3935773" lon="12.908566"><ele>446.66666666666663</ele><time>2026-04-26T12:03:44.679Z</time></trkpt><trkpt lat="42.3936011" lon="12.9088637"><ele>446.3333333333333</ele><time>2026-04-26T12:03:45.679Z</time></trkpt><trkpt lat="42.3936313" lon="12.909163"><ele>446.0</ele><time>2026-04-26T12:03:46.679Z</time></trkpt><trkpt lat="42.3936652" lon="12.9094621"><ele>445.66666666666663</ele><time>2026-04-26T12:03:47.678Z</time></trkpt><trkpt lat="42.3937002" lon="12.9097612"><ele>445.33333333333337</ele><time>2026-04-26T12:03:48.68Z</time></trkpt><trkpt lat="42.3937345" lon="12.9100591"><ele>445.0</ele><time>2026-04-26T12:03:49.679Z</time></trkpt><trkpt lat="42.3937693" lon="12.9103542"><ele>445.0</ele><time>2026-04-26T12:03:50.68Z</time></trkpt><trkpt lat="42.3938032" lon="12.910648"><ele>445.0</ele><time>2026-04-26T12:03:51.679Z</time></trkpt><trkpt lat="42.3938385" lon="12.9109392"><ele>445.0</ele><time>2026-04-26T12:03:52.678Z</time></trkpt><trkpt lat="42.3938709" lon="12.9112283"><ele>429.6666666666667</ele><time>2026-04-26T12:03:53.678Z</time></trkpt><trkpt lat="42.3939042" lon="12.9115159"><ele>414.33333333333337</ele><time>2026-04-26T12:03:54.68Z</time></trkpt><trkpt lat="42.3939332" lon="12.9118049"><ele>399.0</ele><time>2026-04-26T12:03:55.68Z</time></trkpt><trkpt lat="42.3939614" lon="12.9120979"><ele>399.0</ele><time>2026-04-26T12:03:56.679Z</time></trkpt><trkpt lat="42.3939822" lon="12.9123925"><ele>399.0</ele><time>2026-04-26T12:03:57.678Z</time></trkpt><trkpt lat="42.3939978" lon="12.9126881"><ele>399.0</ele><time>2026-04-26T12:03:58.68Z</time></trkpt><trkpt lat="42.3940093" lon="12.9129862"><ele>401.0</ele><time>2026-04-26T12:03:59.68Z</time></trkpt><trkpt lat="42.3940191" lon="12.9135838"><ele>403.0</ele><time>2026-04-26T12:04:01.679Z</time></trkpt><trkpt lat="42.3940153" lon="12.9138848"><ele>403.0</ele><time>2026-04-26T12:04:02.679Z</time></trkpt><trkpt lat="42.394008" lon="12.9141842"><ele>403.0</ele><time>2026-04-26T12:04:03.679Z</time></trkpt><trkpt lat="42.3939955" lon="12.9144818"><ele>403.0</ele><time>2026-04-26T12:04:04.679Z</time></trkpt><trkpt lat="42.3939815" lon="12.914778"><ele>409.0</ele><time>2026-04-26T12:04:05.68Z</time></trkpt><trkpt lat="42.3939661" lon="12.9150731"><ele>415.0</ele><time>2026-04-26T12:04:06.678Z</time></trkpt><trkpt lat="42.393936" lon="12.915656"><ele>417.0</ele><time>2026-04-26T12:04:08.678Z</time></trkpt><trkpt lat="42.393918" lon="12.915949"><ele>419.0</ele><time>2026-04-26T12:04:09.678Z</time></trkpt><trkpt lat="42.3939021" lon="12.9162421"><ele>421.0</ele><time>2026-04-26T12:04:10.679Z</time></trkpt><trkpt lat="42.3938847" lon="12.9165353"><ele>423.33333333333337</ele><time>2026-04-26T12:04:11.678Z</time></trkpt><trkpt lat="42.3938674" lon="12.9168293"><ele>425.66666666666663</ele><time>2026-04-26T12:04:12.679Z</time></trkpt><trkpt lat="42.3938512" lon="12.9171214"><ele>428.0</ele><time>2026-04-26T12:04:13.678Z</time></trkpt><trkpt lat="42.3938339" lon="12.9174133"><ele>422.66666666666663</ele><time>2026-04-26T12:04:14.678Z</time></trkpt><trkpt lat="42.3938165" lon="12.9177067"><ele>417.33333333333337</ele><time>2026-04-26T12:04:15.679Z</time></trkpt><trkpt lat="42.3938007" lon="12.918006"><ele>412.0</ele><time>2026-04-26T12:04:16.679Z</time></trkpt><trkpt lat="42.3937857" lon="12.9183028"><ele>412.6666666666667</ele><time>2026-04-26T12:04:17.679Z</time></trkpt><trkpt lat="42.3937693" lon="12.9185973"><ele>413.33333333333337</ele><time>2026-04-26T12:04:18.678Z</time></trkpt><trkpt lat="42.3937518" lon="12.9188912"><ele>414.0</ele><time>2026-04-26T12:04:19.68Z</time></trkpt><trkpt lat="42.3937342" lon="12.9191852"><ele>414.33333333333337</ele><time>2026-04-26T12:04:20.679Z</time></trkpt><trkpt lat="42.3937184" lon="12.9194766"><ele>414.6666666666667</ele><time>2026-04-26T12:04:21.679Z</time></trkpt><trkpt lat="42.3937028" lon="12.9197658"><ele>415.0</ele><time>2026-04-26T12:04:22.68Z</time></trkpt><trkpt lat="42.3936868" lon="12.9200552"><ele>414.6666666666667</ele><time>2026-04-26T12:04:23.679Z</time></trkpt><trkpt lat="42.3936747" lon="12.9203507"><ele>414.33333333333337</ele><time>2026-04-26T12:04:24.68Z</time></trkpt><trkpt lat="42.3936636" lon="12.9206489"><ele>414.0</ele><time>2026-04-26T12:04:25.68Z</time></trkpt><trkpt lat="42.3936519" lon="12.9209451"><ele>414.0</ele><time>2026-04-26T12:04:26.679Z</time></trkpt><trkpt lat="42.3936402" lon="12.9212395"><ele>414.0</ele><time>2026-04-26T12:04:27.679Z</time></trkpt><trkpt lat="42.3936279" lon="12.9215325"><ele>414.0</ele><time>2026-04-26T12:04:28.679Z</time></trkpt><trkpt lat="42.3936157" lon="12.921825"><ele>414.33333333333337</ele><time>2026-04-26T12:04:29.679Z</time></trkpt><trkpt lat="42.3936093" lon="12.9221174"><ele>414.6666666666667</ele><time>2026-04-26T12:04:30.68Z</time></trkpt><trkpt lat="42.3936092" lon="12.922408"><ele>415.0</ele><time>2026-04-26T12:04:31.68Z</time></trkpt><trkpt lat="42.393614" lon="12.9226988"><ele>416.33333333333337</ele><time>2026-04-26T12:04:32.679Z</time></trkpt><trkpt lat="42.3936289" lon="12.9229879"><ele>417.66666666666663</ele><time>2026-04-26T12:04:33.68Z</time></trkpt><trkpt lat="42.3936544" lon="12.9232736"><ele>419.0</ele><time>2026-04-26T12:04:34.679Z</time></trkpt><trkpt lat="42.3936847" lon="12.923553"><ele>419.0</ele><time>2026-04-26T12:04:35.679Z</time></trkpt><trkpt lat="42.3937167" lon="12.9238302"><ele>419.0</ele><time>2026-04-26T12:04:36.68Z</time></trkpt><trkpt lat="42.3937519" lon="12.924108"><ele>419.0</ele><time>2026-04-26T12:04:37.68Z</time></trkpt><trkpt lat="42.3937899" lon="12.9243867"><ele>418.66666666666663</ele><time>2026-04-26T12:04:38.679Z</time></trkpt><trkpt lat="42.3938318" lon="12.9246668"><ele>418.33333333333337</ele><time>2026-04-26T12:04:39.68Z</time></trkpt><trkpt lat="42.3938773" lon="12.9249493"><ele>418.0</ele><time>2026-04-26T12:04:40.68Z</time></trkpt><trkpt lat="42.39393" lon="12.9252287"><ele>418.0</ele><time>2026-04-26T12:04:41.679Z</time></trkpt><trkpt lat="42.3939867" lon="12.9255097"><ele>418.0</ele><time>2026-04-26T12:04:42.68Z</time></trkpt><trkpt lat="42.3940494" lon="12.9257863"><ele>418.0</ele><time>2026-04-26T12:04:43.68Z</time></trkpt><trkpt lat="42.3941147" lon="12.9260637"><ele>418.0</ele><time>2026-04-26T12:04:44.678Z</time></trkpt><trkpt lat="42.3941839" lon="12.9263389"><ele>418.0</ele><time>2026-04-26T12:04:45.679Z</time></trkpt><trkpt lat="42.3942566" lon="12.9266137"><ele>418.0</ele><time>2026-04-26T12:04:46.679Z</time></trkpt><trkpt lat="42.3943345" lon="12.92689"><ele>415.33333333333337</ele><time>2026-04-26T12:04:47.678Z</time></trkpt><trkpt lat="42.3944154" lon="12.9271673"><ele>412.66666666666663</ele><time>2026-04-26T12:04:48.679Z</time></trkpt><trkpt lat="42.3944966" lon="12.927443"><ele>410.0</ele><time>2026-04-26T12:04:49.678Z</time></trkpt><trkpt lat="42.3945761" lon="12.9277178"><ele>408.66666666666663</ele><time>2026-04-26T12:04:50.679Z</time></trkpt><trkpt lat="42.3946564" lon="12.9279892"><ele>407.33333333333337</ele><time>2026-04-26T12:04:51.679Z</time></trkpt><trkpt lat="42.3947337" lon="12.9282581"><ele>406.0</ele><time>2026-04-26T12:04:52.679Z</time></trkpt><trkpt lat="42.3948098" lon="12.9285194"><ele>409.33333333333337</ele><time>2026-04-26T12:04:53.679Z</time></trkpt><trkpt lat="42.394881" lon="12.9287701"><ele>412.66666666666663</ele><time>2026-04-26T12:04:54.68Z</time></trkpt><trkpt lat="42.3949449" lon="12.9290132"><ele>416.0</ele><time>2026-04-26T12:04:55.678Z</time></trkpt><trkpt lat="42.3950006" lon="12.9292545"><ele>416.0</ele><time>2026-04-26T12:04:56.678Z</time></trkpt><trkpt lat="42.3950405" lon="12.9295053"><ele>416.0</ele><time>2026-04-26T12:04:57.679Z</time></trkpt><trkpt lat="42.3950667" lon="12.9297632"><ele>416.0</ele><time>2026-04-26T12:04:58.679Z</time></trkpt><trkpt lat="42.3950781" lon="12.9300286"><ele>416.3333333333333</ele><time>2026-04-26T12:04:59.679Z</time></trkpt><trkpt lat="42.3950742" lon="12.9302842"><ele>416.66666666666663</ele><time>2026-04-26T12:05:00.678Z</time></trkpt><trkpt lat="42.3950559" lon="12.9305291"><ele>417.0</ele><time>2026-04-26T12:05:01.678Z</time></trkpt><trkpt lat="42.3950215" lon="12.9307641"><ele>418.0</ele><time>2026-04-26T12:05:02.678Z</time></trkpt><trkpt lat="42.3949746" lon="12.9309927"><ele>419.0</ele><time>2026-04-26T12:05:03.678Z</time></trkpt><trkpt lat="42.3949207" lon="12.9312256"><ele>420.0</ele><time>2026-04-26T12:05:04.677Z</time></trkpt><trkpt lat="42.3948577" lon="12.9314614"><ele>420.0</ele><time>2026-04-26T12:05:05.679Z</time></trkpt><trkpt lat="42.3947842" lon="12.9316997"><ele>420.0</ele><time>2026-04-26T12:05:06.679Z</time></trkpt><trkpt lat="42.3946929" lon="12.9319311"><ele>420.0</ele><time>2026-04-26T12:05:07.679Z</time></trkpt><trkpt lat="42.3945844" lon="12.932152"><ele>419.0</ele><time>2026-04-26T12:05:08.679Z</time></trkpt><trkpt lat="42.394464" lon="12.9323717"><ele>418.0</ele><time>2026-04-26T12:05:09.679Z</time></trkpt><trkpt lat="42.394348" lon="12.9326012"><ele>417.0</ele><time>2026-04-26T12:05:10.678Z</time></trkpt><trkpt lat="42.3942418" lon="12.9328473"><ele>417.0</ele><time>2026-04-26T12:05:11.678Z</time></trkpt><trkpt lat="42.3941504" lon="12.9331037"><ele>417.0</ele><time>2026-04-26T12:05:12.677Z</time></trkpt><trkpt lat="42.3940755" lon="12.933372"><ele>417.0</ele><time>2026-04-26T12:05:13.679Z</time></trkpt><trkpt lat="42.3940123" lon="12.9336426"><ele>420.0</ele><time>2026-04-26T12:05:14.678Z</time></trkpt><trkpt lat="42.3939587" lon="12.9339188"><ele>423.0</ele><time>2026-04-26T12:05:15.678Z</time></trkpt><trkpt lat="42.3939086" lon="12.9341943"><ele>426.0</ele><time>2026-04-26T12:05:16.677Z</time></trkpt><trkpt lat="42.3938564" lon="12.9344687"><ele>421.33333333333337</ele><time>2026-04-26T12:05:17.678Z</time></trkpt><trkpt lat="42.3937993" lon="12.9347391"><ele>416.6666666666667</ele><time>2026-04-26T12:05:18.679Z</time></trkpt><trkpt lat="42.3937381" lon="12.9350104"><ele>412.0</ele><time>2026-04-26T12:05:19.678Z</time></trkpt><trkpt lat="42.3936693" lon="12.9352745"><ele>412.0</ele><time>2026-04-26T12:05:20.677Z</time></trkpt><trkpt lat="42.3935962" lon="12.9355336"><ele>412.0</ele><time>2026-04-26T12:05:21.678Z</time></trkpt><trkpt lat="42.3935214" lon="12.9357943"><ele>412.0</ele><time>2026-04-26T12:05:22.679Z</time></trkpt><trkpt lat="42.3934495" lon="12.9360587"><ele>413.6666666666667</ele><time>2026-04-26T12:05:23.679Z</time></trkpt><trkpt lat="42.3933898" lon="12.9363295"><ele>415.33333333333337</ele><time>2026-04-26T12:05:24.679Z</time></trkpt><trkpt lat="42.3933441" lon="12.9366057"><ele>417.0</ele><time>2026-04-26T12:05:25.677Z</time></trkpt><trkpt lat="42.3933064" lon="12.9368832"><ele>418.33333333333337</ele><time>2026-04-26T12:05:26.677Z</time></trkpt><trkpt lat="42.3932757" lon="12.9371623"><ele>419.6666666666667</ele><time>2026-04-26T12:05:27.679Z</time></trkpt><trkpt lat="42.3932402" lon="12.9374408"><ele>421.0</ele><time>2026-04-26T12:05:28.679Z</time></trkpt><trkpt lat="42.3931949" lon="12.9377143"><ele>421.6666666666667</ele><time>2026-04-26T12:05:29.679Z</time></trkpt><trkpt lat="42.3931391" lon="12.9379811"><ele>422.33333333333337</ele><time>2026-04-26T12:05:30.679Z</time></trkpt><trkpt lat="42.3930728" lon="12.9382397"><ele>423.0</ele><time>2026-04-26T12:05:31.678Z</time></trkpt><trkpt lat="42.3930002" lon="12.9384926"><ele>421.33333333333337</ele><time>2026-04-26T12:05:32.679Z</time></trkpt><trkpt lat="42.3929208" lon="12.9387437"><ele>419.6666666666667</ele><time>2026-04-26T12:05:33.678Z</time></trkpt><trkpt lat="42.3928376" lon="12.9389928"><ele>418.0</ele><time>2026-04-26T12:05:34.679Z</time></trkpt><trkpt lat="42.3927544" lon="12.9392397"><ele>418.0</ele><time>2026-04-26T12:05:35.679Z</time></trkpt><trkpt lat="42.3926744" lon="12.939491"><ele>418.0</ele><time>2026-04-26T12:05:36.678Z</time></trkpt><trkpt lat="42.3925936" lon="12.9397457"><ele>418.0</ele><time>2026-04-26T12:05:37.678Z</time></trkpt><trkpt lat="42.3925121" lon="12.9399986"><ele>424.6666666666667</ele><time>2026-04-26T12:05:38.678Z</time></trkpt><trkpt lat="42.3924287" lon="12.9402527"><ele>431.33333333333337</ele><time>2026-04-26T12:05:39.679Z</time></trkpt><trkpt lat="42.3923421" lon="12.9405057"><ele>438.0</ele><time>2026-04-26T12:05:40.678Z</time></trkpt><trkpt lat="42.3922457" lon="12.9407514"><ele>432.66666666666663</ele><time>2026-04-26T12:05:41.679Z</time></trkpt><trkpt lat="42.3921336" lon="12.9409865"><ele>427.3333333333333</ele><time>2026-04-26T12:05:42.679Z</time></trkpt><trkpt lat="42.3920104" lon="12.9412125"><ele>422.0</ele><time>2026-04-26T12:05:43.679Z</time></trkpt><trkpt lat="42.3918733" lon="12.9414203"><ele>422.0</ele><time>2026-04-26T12:05:44.678Z</time></trkpt><trkpt lat="42.3917328" lon="12.9416168"><ele>422.0</ele><time>2026-04-26T12:05:45.679Z</time></trkpt><trkpt lat="42.3915876" lon="12.9417919"><ele>422.0</ele><time>2026-04-26T12:05:46.678Z</time></trkpt><trkpt lat="42.3914376" lon="12.9419447"><ele>422.66666666666663</ele><time>2026-04-26T12:05:47.678Z</time></trkpt><trkpt lat="42.3912777" lon="12.9420808"><ele>423.33333333333337</ele><time>2026-04-26T12:05:48.678Z</time></trkpt><trkpt lat="42.3911123" lon="12.9421985"><ele>424.0</ele><time>2026-04-26T12:05:49.679Z</time></trkpt><trkpt lat="42.3909387" lon="12.9423006"><ele>424.0</ele><time>2026-04-26T12:05:50.679Z</time></trkpt><trkpt lat="42.3907588" lon="12.9423917"><ele>424.0</ele><time>2026-04-26T12:05:51.677Z</time></trkpt><trkpt lat="42.3905747" lon="12.9424804"><ele>424.0</ele><time>2026-04-26T12:05:52.678Z</time></trkpt><trkpt lat="42.3903869" lon="12.9425683"><ele>425.6666666666667</ele><time>2026-04-26T12:05:53.678Z</time></trkpt><trkpt lat="42.3901983" lon="12.9426527"><ele>427.33333333333337</ele><time>2026-04-26T12:05:54.678Z</time></trkpt><trkpt lat="42.3900061" lon="12.9427387"><ele>429.0</ele><time>2026-04-26T12:05:55.678Z</time></trkpt><trkpt lat="42.3898126" lon="12.9428277"><ele>424.33333333333337</ele><time>2026-04-26T12:05:56.677Z</time></trkpt><trkpt lat="42.3896184" lon="12.942919"><ele>419.6666666666667</ele><time>2026-04-26T12:05:57.678Z</time></trkpt><trkpt lat="42.3894226" lon="12.9430031"><ele>415.0</ele><time>2026-04-26T12:05:58.678Z</time></trkpt><trkpt lat="42.3892267" lon="12.9430809"><ele>415.0</ele><time>2026-04-26T12:05:59.678Z</time></trkpt><trkpt lat="42.3890253" lon="12.9431478"><ele>415.0</ele><time>2026-04-26T12:06:00.678Z</time></trkpt><trkpt lat="42.3888222" lon="12.9432047"><ele>415.0</ele><time>2026-04-26T12:06:01.678Z</time></trkpt><trkpt lat="42.3886152" lon="12.9432531"><ele>415.6666666666667</ele><time>2026-04-26T12:06:02.678Z</time></trkpt><trkpt lat="42.388404" lon="12.9432991"><ele>416.33333333333337</ele><time>2026-04-26T12:06:03.677Z</time></trkpt><trkpt lat="42.3881943" lon="12.9433482"><ele>417.0</ele><time>2026-04-26T12:06:04.678Z</time></trkpt><trkpt lat="42.387984" lon="12.9433941"><ele>417.0</ele><time>2026-04-26T12:06:05.678Z</time></trkpt><trkpt lat="42.3877727" lon="12.9434391"><ele>417.0</ele><time>2026-04-26T12:06:06.679Z</time></trkpt><trkpt lat="42.3875615" lon="12.9434837"><ele>417.0</ele><time>2026-04-26T12:06:07.679Z</time></trkpt><trkpt lat="42.3873497" lon="12.9435323"><ele>420.0</ele><time>2026-04-26T12:06:08.679Z</time></trkpt><trkpt lat="42.3871378" lon="12.943581"><ele>423.0</ele><time>2026-04-26T12:06:09.679Z</time></trkpt><trkpt lat="42.3869268" lon="12.9436365"><ele>426.0</ele><time>2026-04-26T12:06:10.678Z</time></trkpt><trkpt lat="42.386722" lon="12.9437097"><ele>426.0</ele><time>2026-04-26T12:06:11.678Z</time></trkpt><trkpt lat="42.3865221" lon="12.9438033"><ele>426.0</ele><time>2026-04-26T12:06:12.678Z</time></trkpt><trkpt lat="42.386328" lon="12.9439105"><ele>426.0</ele><time>2026-04-26T12:06:13.678Z</time></trkpt><trkpt lat="42.3861393" lon="12.9440344"><ele>428.33333333333337</ele><time>2026-04-26T12:06:14.677Z</time></trkpt><trkpt lat="42.3859542" lon="12.9441689"><ele>430.6666666666667</ele><time>2026-04-26T12:06:15.679Z</time></trkpt><trkpt lat="42.3857742" lon="12.9443138"><ele>433.0</ele><time>2026-04-26T12:06:16.678Z</time></trkpt><trkpt lat="42.385596" lon="12.9444645"><ele>425.33333333333337</ele><time>2026-04-26T12:06:17.678Z</time></trkpt><trkpt lat="42.3854238" lon="12.9446265"><ele>417.66666666666663</ele><time>2026-04-26T12:06:18.679Z</time></trkpt><trkpt lat="42.3852575" lon="12.9447971"><ele>410.0</ele><time>2026-04-26T12:06:19.679Z</time></trkpt><trkpt lat="42.3850961" lon="12.9449781"><ele>409.3333333333333</ele><time>2026-04-26T12:06:20.679Z</time></trkpt><trkpt lat="42.3849416" lon="12.9451708"><ele>408.66666666666663</ele><time>2026-04-26T12:06:21.679Z</time></trkpt><trkpt lat="42.3847945" lon="12.9453751"><ele>408.0</ele><time>2026-04-26T12:06:22.677Z</time></trkpt><trkpt lat="42.3846561" lon="12.945591"><ele>408.0</ele><time>2026-04-26T12:06:23.678Z</time></trkpt><trkpt lat="42.384527" lon="12.9458217"><ele>408.0</ele><time>2026-04-26T12:06:24.679Z</time></trkpt><trkpt lat="42.3844009" lon="12.9460625"><ele>408.0</ele><time>2026-04-26T12:06:25.679Z</time></trkpt><trkpt lat="42.3842797" lon="12.9463067"><ele>411.0</ele><time>2026-04-26T12:06:26.678Z</time></trkpt><trkpt lat="42.3841576" lon="12.9465529"><ele>414.0</ele><time>2026-04-26T12:06:27.678Z</time></trkpt><trkpt lat="42.3840355" lon="12.9468019"><ele>417.0</ele><time>2026-04-26T12:06:28.678Z</time></trkpt><trkpt lat="42.3839141" lon="12.9470495"><ele>415.66666666666663</ele><time>2026-04-26T12:06:29.679Z</time></trkpt><trkpt lat="42.3837933" lon="12.9472951"><ele>414.3333333333333</ele><time>2026-04-26T12:06:30.679Z</time></trkpt><trkpt lat="42.3836723" lon="12.9475424"><ele>413.0</ele><time>2026-04-26T12:06:31.677Z</time></trkpt><trkpt lat="42.3835512" lon="12.9477886"><ele>413.0</ele><time>2026-04-26T12:06:32.678Z</time></trkpt><trkpt lat="42.3834302" lon="12.9480325"><ele>413.0</ele><time>2026-04-26T12:06:33.679Z</time></trkpt><trkpt lat="42.3833122" lon="12.9482755"><ele>413.0</ele><time>2026-04-26T12:06:34.679Z</time></trkpt><trkpt lat="42.3831976" lon="12.9485178"><ele>413.3333333333333</ele><time>2026-04-26T12:06:35.679Z</time></trkpt><trkpt lat="42.3830828" lon="12.9487563"><ele>413.66666666666663</ele><time>2026-04-26T12:06:36.678Z</time></trkpt><trkpt lat="42.3829654" lon="12.9489906"><ele>414.0</ele><time>2026-04-26T12:06:37.677Z</time></trkpt><trkpt lat="42.3828484" lon="12.9492226"><ele>414.0</ele><time>2026-04-26T12:06:38.678Z</time></trkpt><trkpt lat="42.3827316" lon="12.9494556"><ele>414.0</ele><time>2026-04-26T12:06:39.677Z</time></trkpt><trkpt lat="42.3826143" lon="12.9496952"><ele>414.0</ele><time>2026-04-26T12:06:40.678Z</time></trkpt><trkpt lat="42.3824979" lon="12.9499368"><ele>412.33333333333337</ele><time>2026-04-26T12:06:41.678Z</time></trkpt><trkpt lat="42.3823799" lon="12.95018"><ele>410.6666666666667</ele><time>2026-04-26T12:06:42.678Z</time></trkpt><trkpt lat="42.3822606" lon="12.9504257"><ele>409.0</ele><time>2026-04-26T12:06:43.679Z</time></trkpt><trkpt lat="42.3821404" lon="12.9506726"><ele>412.0</ele><time>2026-04-26T12:06:44.678Z</time></trkpt><trkpt lat="42.3820207" lon="12.9509202"><ele>415.0</ele><time>2026-04-26T12:06:45.678Z</time></trkpt><trkpt lat="42.3818966" lon="12.951166"><ele>418.0</ele><time>2026-04-26T12:06:46.678Z</time></trkpt><trkpt lat="42.3817728" lon="12.9514104"><ele>418.0</ele><time>2026-04-26T12:06:47.678Z</time></trkpt><trkpt lat="42.381649" lon="12.9516586"><ele>418.0</ele><time>2026-04-26T12:06:48.678Z</time></trkpt><trkpt lat="42.3815268" lon="12.9519086"><ele>418.0</ele><time>2026-04-26T12:06:49.678Z</time></trkpt><trkpt lat="42.3814037" lon="12.9521598"><ele>417.6666666666667</ele><time>2026-04-26T12:06:50.679Z</time></trkpt><trkpt lat="42.3812802" lon="12.952413"><ele>417.33333333333337</ele><time>2026-04-26T12:06:51.677Z</time></trkpt><trkpt lat="42.381157" lon="12.9526652"><ele>417.0</ele><time>2026-04-26T12:06:52.679Z</time></trkpt><trkpt lat="42.3810332" lon="12.9529148"><ele>417.0</ele><time>2026-04-26T12:06:53.678Z</time></trkpt><trkpt lat="42.3809151" lon="12.9531616"><ele>417.0</ele><time>2026-04-26T12:06:54.678Z</time></trkpt><trkpt lat="42.380802" lon="12.9534095"><ele>417.0</ele><time>2026-04-26T12:06:55.678Z</time></trkpt><trkpt lat="42.3807018" lon="12.9536636"><ele>414.0</ele><time>2026-04-26T12:06:56.677Z</time></trkpt><trkpt lat="42.3806155" lon="12.9539261"><ele>411.0</ele><time>2026-04-26T12:06:57.678Z</time></trkpt><trkpt lat="42.3805444" lon="12.9541977"><ele>408.0</ele><time>2026-04-26T12:06:58.678Z</time></trkpt><trkpt lat="42.3804888" lon="12.9544765"><ele>408.0</ele><time>2026-04-26T12:06:59.678Z</time></trkpt><trkpt lat="42.3804447" lon="12.9547604"><ele>408.0</ele><time>2026-04-26T12:07:00.679Z</time></trkpt><trkpt lat="42.3804116" lon="12.9550474"><ele>408.0</ele><time>2026-04-26T12:07:01.678Z</time></trkpt><trkpt lat="42.3803874" lon="12.9553375"><ele>408.66666666666663</ele><time>2026-04-26T12:07:02.677Z</time></trkpt><trkpt lat="42.3803654" lon="12.9556275"><ele>409.3333333333333</ele><time>2026-04-26T12:07:03.678Z</time></trkpt><trkpt lat="42.3803373" lon="12.9559147"><ele>410.0</ele><time>2026-04-26T12:07:04.678Z</time></trkpt><trkpt lat="42.3803099" lon="12.9561967"><ele>410.0</ele><time>2026-04-26T12:07:05.676Z</time></trkpt><trkpt lat="42.3802961" lon="12.9564805"><ele>410.0</ele><time>2026-04-26T12:07:06.676Z</time></trkpt><trkpt lat="42.3802983" lon="12.9567663"><ele>410.0</ele><time>2026-04-26T12:07:07.677Z</time></trkpt><trkpt lat="42.3803161" lon="12.957048"><ele>410.0</ele><time>2026-04-26T12:07:08.678Z</time></trkpt><trkpt lat="42.3803489" lon="12.9573301"><ele>410.0</ele><time>2026-04-26T12:07:09.677Z</time></trkpt><trkpt lat="42.3803995" lon="12.9576071"><ele>410.0</ele><time>2026-04-26T12:07:10.677Z</time></trkpt><trkpt lat="42.3804645" lon="12.9578822"><ele>415.3333333333333</ele><time>2026-04-26T12:07:11.677Z</time></trkpt><trkpt lat="42.3805421" lon="12.958153"><ele>420.66666666666663</ele><time>2026-04-26T12:07:12.677Z</time></trkpt><trkpt lat="42.3806264" lon="12.9584192"><ele>426.0</ele><time>2026-04-26T12:07:13.677Z</time></trkpt><trkpt lat="42.3807106" lon="12.9586865"><ele>426.0</ele><time>2026-04-26T12:07:14.678Z</time></trkpt><trkpt lat="42.3807966" lon="12.9589526"><ele>426.0</ele><time>2026-04-26T12:07:15.678Z</time></trkpt><trkpt lat="42.3808796" lon="12.9592158"><ele>426.0</ele><time>2026-04-26T12:07:16.676Z</time></trkpt><trkpt lat="42.3809634" lon="12.9594742"><ele>422.0</ele><time>2026-04-26T12:07:17.677Z</time></trkpt><trkpt lat="42.3810508" lon="12.959731"><ele>418.0</ele><time>2026-04-26T12:07:18.676Z</time></trkpt><trkpt lat="42.3811386" lon="12.9599867"><ele>414.0</ele><time>2026-04-26T12:07:19.678Z</time></trkpt><trkpt lat="42.3812202" lon="12.9602436"><ele>412.33333333333337</ele><time>2026-04-26T12:07:20.677Z</time></trkpt><trkpt lat="42.3812981" lon="12.9605006"><ele>410.6666666666667</ele><time>2026-04-26T12:07:21.677Z</time></trkpt><trkpt lat="42.3813741" lon="12.9607593"><ele>409.0</ele><time>2026-04-26T12:07:22.676Z</time></trkpt><trkpt lat="42.3814411" lon="12.9610206"><ele>416.0</ele><time>2026-04-26T12:07:23.677Z</time></trkpt><trkpt lat="42.381491" lon="12.9612851"><ele>423.0</ele><time>2026-04-26T12:07:24.677Z</time></trkpt><trkpt lat="42.3815212" lon="12.9615568"><ele>430.0</ele><time>2026-04-26T12:07:25.678Z</time></trkpt><trkpt lat="42.381533" lon="12.9618353"><ele>432.0</ele><time>2026-04-26T12:07:26.677Z</time></trkpt><trkpt lat="42.3815234" lon="12.9621134"><ele>434.0</ele><time>2026-04-26T12:07:27.677Z</time></trkpt><trkpt lat="42.3814968" lon="12.9623904"><ele>436.0</ele><time>2026-04-26T12:07:28.677Z</time></trkpt><trkpt lat="42.38145" lon="12.9626666"><ele>437.6666666666667</ele><time>2026-04-26T12:07:29.677Z</time></trkpt><trkpt lat="42.381384" lon="12.962939"><ele>439.33333333333337</ele><time>2026-04-26T12:07:30.676Z</time></trkpt><trkpt lat="42.3812992" lon="12.9632081"><ele>441.0</ele><time>2026-04-26T12:07:31.676Z</time></trkpt><trkpt lat="42.3812038" lon="12.9634797"><ele>430.0</ele><time>2026-04-26T12:07:32.676Z</time></trkpt><trkpt lat="42.3811028" lon="12.9637531"><ele>419.0</ele><time>2026-04-26T12:07:33.678Z</time></trkpt><trkpt lat="42.3810051" lon="12.964029"><ele>424.0</ele><time>2026-04-26T12:07:34.677Z</time></trkpt><trkpt lat="42.3809057" lon="12.9643059"><ele>429.0</ele><time>2026-04-26T12:07:35.678Z</time></trkpt><trkpt lat="42.3808089" lon="12.9645876"><ele>429.0</ele><time>2026-04-26T12:07:36.676Z</time></trkpt><trkpt lat="42.3807117" lon="12.9648671"><ele>429.0</ele><time>2026-04-26T12:07:37.677Z</time></trkpt><trkpt lat="42.3806153" lon="12.9651453"><ele>427.66666666666663</ele><time>2026-04-26T12:07:38.678Z</time></trkpt><trkpt lat="42.3805143" lon="12.9654192"><ele>426.3333333333333</ele><time>2026-04-26T12:07:39.678Z</time></trkpt><trkpt lat="42.380414" lon="12.9656879"><ele>425.0</ele><time>2026-04-26T12:07:40.677Z</time></trkpt><trkpt lat="42.3803164" lon="12.9659454"><ele>425.0</ele><time>2026-04-26T12:07:41.678Z</time></trkpt><trkpt lat="42.3802223" lon="12.966195"><ele>425.0</ele><time>2026-04-26T12:07:42.678Z</time></trkpt><trkpt lat="42.3801311" lon="12.9664411"><ele>425.0</ele><time>2026-04-26T12:07:43.678Z</time></trkpt><trkpt lat="42.380043" lon="12.9666809"><ele>428.66666666666663</ele><time>2026-04-26T12:07:44.676Z</time></trkpt><trkpt lat="42.3799572" lon="12.9669217"><ele>432.33333333333337</ele><time>2026-04-26T12:07:45.678Z</time></trkpt><trkpt lat="42.3798685" lon="12.9671646"><ele>436.0</ele><time>2026-04-26T12:07:46.677Z</time></trkpt><trkpt lat="42.3797821" lon="12.9674053"><ele>438.6666666666667</ele><time>2026-04-26T12:07:47.676Z</time></trkpt><trkpt lat="42.3796938" lon="12.967647"><ele>441.33333333333337</ele><time>2026-04-26T12:07:48.676Z</time></trkpt><trkpt lat="42.3796058" lon="12.9678866"><ele>444.0</ele><time>2026-04-26T12:07:49.677Z</time></trkpt><trkpt lat="42.3795203" lon="12.9681189"><ele>440.0</ele><time>2026-04-26T12:07:50.677Z</time></trkpt><trkpt lat="42.3794381" lon="12.9683449"><ele>436.0</ele><time>2026-04-26T12:07:51.677Z</time></trkpt><trkpt lat="42.3793579" lon="12.9685655"><ele>432.0</ele><time>2026-04-26T12:07:52.677Z</time></trkpt><trkpt lat="42.3792804" lon="12.9687822"><ele>432.0</ele><time>2026-04-26T12:07:53.677Z</time></trkpt><trkpt lat="42.3792064" lon="12.9689952"><ele>432.0</ele><time>2026-04-26T12:07:54.678Z</time></trkpt><trkpt lat="42.3791357" lon="12.9692009"><ele>432.0</ele><time>2026-04-26T12:07:55.678Z</time></trkpt><trkpt lat="42.3790645" lon="12.9694032"><ele>433.33333333333337</ele><time>2026-04-26T12:07:56.676Z</time></trkpt><trkpt lat="42.3789908" lon="12.9696061"><ele>434.6666666666667</ele><time>2026-04-26T12:07:57.677Z</time></trkpt><trkpt lat="42.3789161" lon="12.9698072"><ele>436.0</ele><time>2026-04-26T12:07:58.677Z</time></trkpt><trkpt lat="42.3788434" lon="12.9700073"><ele>434.33333333333337</ele><time>2026-04-26T12:07:59.677Z</time></trkpt><trkpt lat="42.3787704" lon="12.9702015"><ele>432.66666666666663</ele><time>2026-04-26T12:08:00.678Z</time></trkpt><trkpt lat="42.3786997" lon="12.9703841"><ele>431.0</ele><time>2026-04-26T12:08:01.677Z</time></trkpt><trkpt lat="42.3786344" lon="12.9705643"><ele>431.0</ele><time>2026-04-26T12:08:02.677Z</time></trkpt><trkpt lat="42.3785692" lon="12.9707347"><ele>431.0</ele><time>2026-04-26T12:08:03.678Z</time></trkpt><trkpt lat="42.378508" lon="12.9708979"><ele>431.0</ele><time>2026-04-26T12:08:04.678Z</time></trkpt><trkpt lat="42.3784437" lon="12.9710676"><ele>431.0</ele><time>2026-04-26T12:08:05.678Z</time></trkpt><trkpt lat="42.378385" lon="12.9712382"><ele>431.75</ele><time>2026-04-26T12:08:06.678Z</time></trkpt><trkpt lat="42.3783281" lon="12.971401"><ele>432.5</ele><time>2026-04-26T12:08:07.677Z</time></trkpt><trkpt lat="42.3782724" lon="12.9715574"><ele>433.25</ele><time>2026-04-26T12:08:08.677Z</time></trkpt><trkpt lat="42.3782185" lon="12.9717064"><ele>434.0</ele><time>2026-04-26T12:08:09.677Z</time></trkpt><trkpt lat="42.3781665" lon="12.9718437"><ele>433.99999999999994</ele><time>2026-04-26T12:08:10.676Z</time></trkpt><trkpt lat="42.3781222" lon="12.971957"><ele>434.0</ele><time>2026-04-26T12:08:11.678Z</time></trkpt><trkpt lat="42.3780759" lon="12.9720434"><ele>434.0</ele><time>2026-04-26T12:08:12.678Z</time></trkpt><trkpt lat="42.3780238" lon="12.9721081"><ele>434.0</ele><time>2026-04-26T12:08:13.677Z</time></trkpt><trkpt lat="42.3779699" lon="12.9721566"><ele>433.99999999999994</ele><time>2026-04-26T12:08:14.677Z</time></trkpt><trkpt lat="42.3778513" lon="12.9721901"><ele>434.0</ele><time>2026-04-26T12:08:16.677Z</time></trkpt><trkpt lat="42.3777788" lon="12.9721679"><ele>432.5</ele><time>2026-04-26T12:08:17.678Z</time></trkpt><trkpt lat="42.3776884" lon="12.9721149"><ele>431.0</ele><time>2026-04-26T12:08:18.678Z</time></trkpt><trkpt lat="42.3775893" lon="12.9720439"><ele>429.5</ele><time>2026-04-26T12:08:19.676Z</time></trkpt><trkpt lat="42.3774693" lon="12.9719582"><ele>428.0</ele><time>2026-04-26T12:08:20.677Z</time></trkpt><trkpt lat="42.3773264" lon="12.9718561"><ele>426.0</ele><time>2026-04-26T12:08:21.677Z</time></trkpt><trkpt lat="42.3771696" lon="12.9717511"><ele>424.0</ele><time>2026-04-26T12:08:22.676Z</time></trkpt><trkpt lat="42.37701" lon="12.9716418"><ele>422.0</ele><time>2026-04-26T12:08:23.677Z</time></trkpt><trkpt lat="42.3768462" lon="12.9715286"><ele>422.0</ele><time>2026-04-26T12:08:24.677Z</time></trkpt><trkpt lat="42.3766794" lon="12.9714045"><ele>422.0</ele><time>2026-04-26T12:08:25.676Z</time></trkpt><trkpt lat="42.376507" lon="12.9712784"><ele>422.0</ele><time>2026-04-26T12:08:26.676Z</time></trkpt><trkpt lat="42.3763296" lon="12.9711502"><ele>420.66666666666663</ele><time>2026-04-26T12:08:27.678Z</time></trkpt><trkpt lat="42.3761529" lon="12.9710283"><ele>419.33333333333337</ele><time>2026-04-26T12:08:28.678Z</time></trkpt><trkpt lat="42.3759829" lon="12.9709136"><ele>418.0</ele><time>2026-04-26T12:08:29.678Z</time></trkpt><trkpt lat="42.3758195" lon="12.9708051"><ele>418.0</ele><time>2026-04-26T12:08:30.676Z</time></trkpt><trkpt lat="42.3756638" lon="12.9706964"><ele>418.0</ele><time>2026-04-26T12:08:31.676Z</time></trkpt><trkpt lat="42.3755133" lon="12.9705889"><ele>418.0</ele><time>2026-04-26T12:08:32.678Z</time></trkpt><trkpt lat="42.3753689" lon="12.9704873"><ele>417.0</ele><time>2026-04-26T12:08:33.678Z</time></trkpt><trkpt lat="42.3752273" lon="12.9703892"><ele>416.0</ele><time>2026-04-26T12:08:34.677Z</time></trkpt><trkpt lat="42.3750915" lon="12.9702954"><ele>415.0</ele><time>2026-04-26T12:08:35.677Z</time></trkpt><trkpt lat="42.3749601" lon="12.970206"><ele>415.0</ele><time>2026-04-26T12:08:36.676Z</time></trkpt><trkpt lat="42.3748328" lon="12.9701205"><ele>415.0</ele><time>2026-04-26T12:08:37.677Z</time></trkpt><trkpt lat="42.3747131" lon="12.9700414"><ele>415.0</ele><time>2026-04-26T12:08:38.677Z</time></trkpt><trkpt lat="42.3745983" lon="12.9699686"><ele>415.0</ele><time>2026-04-26T12:08:39.677Z</time></trkpt><trkpt lat="42.3744917" lon="12.9698975"><ele>414.0</ele><time>2026-04-26T12:08:40.677Z</time></trkpt><trkpt lat="42.3743928" lon="12.9698248"><ele>413.0</ele><time>2026-04-26T12:08:41.677Z</time></trkpt><trkpt lat="42.3743015" lon="12.9697497"><ele>412.0</ele><time>2026-04-26T12:08:42.677Z</time></trkpt><trkpt lat="42.3742115" lon="12.9696611"><ele>411.0</ele><time>2026-04-26T12:08:43.677Z</time></trkpt><trkpt lat="42.3741218" lon="12.9695664"><ele>410.0</ele><time>2026-04-26T12:08:44.676Z</time></trkpt><trkpt lat="42.3740393" lon="12.9694694"><ele>410.0</ele><time>2026-04-26T12:08:45.677Z</time></trkpt><trkpt lat="42.3739699" lon="12.9693655"><ele>410.0</ele><time>2026-04-26T12:08:46.678Z</time></trkpt><trkpt lat="42.3739041" lon="12.9692612"><ele>410.0</ele><time>2026-04-26T12:08:47.678Z</time></trkpt><trkpt lat="42.3738346" lon="12.9691707"><ele>410.0</ele><time>2026-04-26T12:08:48.677Z</time></trkpt><trkpt lat="42.3737528" lon="12.9690916"><ele>410.0</ele><time>2026-04-26T12:08:49.677Z</time></trkpt><trkpt lat="42.3736584" lon="12.9690262"><ele>409.25</ele><time>2026-04-26T12:08:50.677Z</time></trkpt><trkpt lat="42.3735491" lon="12.9689661"><ele>408.5</ele><time>2026-04-26T12:08:51.677Z</time></trkpt><trkpt lat="42.3734278" lon="12.968901"><ele>407.75</ele><time>2026-04-26T12:08:52.678Z</time></trkpt><trkpt lat="42.3733066" lon="12.9688386"><ele>407.0</ele><time>2026-04-26T12:08:53.678Z</time></trkpt><trkpt lat="42.3731906" lon="12.9687828"><ele>407.0</ele><time>2026-04-26T12:08:54.678Z</time></trkpt><trkpt lat="42.3730811" lon="12.9687266"><ele>407.0</ele><time>2026-04-26T12:08:55.676Z</time></trkpt><trkpt lat="42.3729838" lon="12.9686759"><ele>407.0</ele><time>2026-04-26T12:08:56.678Z</time></trkpt><trkpt lat="42.3728956" lon="12.9686359"><ele>407.0</ele><time>2026-04-26T12:08:57.677Z</time></trkpt><trkpt lat="42.3728169" lon="12.9686011"><ele>407.0</ele><time>2026-04-26T12:08:58.677Z</time></trkpt><trkpt lat="42.3727487" lon="12.9685563"><ele>406.99999999999994</ele><time>2026-04-26T12:08:59.678Z</time></trkpt><trkpt lat="42.3726883" lon="12.9685167"><ele>407.0</ele><time>2026-04-26T12:09:00.677Z</time></trkpt><trkpt lat="42.3726278" lon="12.9684873"><ele>407.0</ele><time>2026-04-26T12:09:01.677Z</time></trkpt><trkpt lat="42.3725009" lon="12.9684819"><ele>407.0</ele><time>2026-04-26T12:09:03.677Z</time></trkpt><trkpt lat="42.3724362" lon="12.9685235"><ele>406.99999999999994</ele><time>2026-04-26T12:09:04.677Z</time></trkpt><trkpt lat="42.3723788" lon="12.9686061"><ele>407.0</ele><time>2026-04-26T12:09:05.678Z</time></trkpt><trkpt lat="42.3723251" lon="12.9687292"><ele>407.0</ele><time>2026-04-26T12:09:06.676Z</time></trkpt><trkpt lat="42.372273" lon="12.9688692"><ele>407.0</ele><time>2026-04-26T12:09:07.678Z</time></trkpt><trkpt lat="42.3722068" lon="12.9690424"><ele>407.0</ele><time>2026-04-26T12:09:08.678Z</time></trkpt><trkpt lat="42.3721357" lon="12.9692328"><ele>407.0</ele><time>2026-04-26T12:09:09.678Z</time></trkpt><trkpt lat="42.3720578" lon="12.9694234"><ele>409.3333333333333</ele><time>2026-04-26T12:09:10.677Z</time></trkpt><trkpt lat="42.3719743" lon="12.9696126"><ele>411.66666666666663</ele><time>2026-04-26T12:09:11.676Z</time></trkpt><trkpt lat="42.3718815" lon="12.9697958"><ele>414.0</ele><time>2026-04-26T12:09:12.676Z</time></trkpt><trkpt lat="42.3717868" lon="12.9699704"><ele>411.66666666666663</ele><time>2026-04-26T12:09:13.676Z</time></trkpt><trkpt lat="42.3716882" lon="12.9701369"><ele>409.3333333333333</ele><time>2026-04-26T12:09:14.676Z</time></trkpt><trkpt lat="42.3715814" lon="12.9702938"><ele>407.0</ele><time>2026-04-26T12:09:15.676Z</time></trkpt><trkpt lat="42.3714724" lon="12.970447"><ele>407.0</ele><time>2026-04-26T12:09:16.677Z</time></trkpt><trkpt lat="42.3713573" lon="12.9705934"><ele>407.0</ele><time>2026-04-26T12:09:17.676Z</time></trkpt><trkpt lat="42.3712372" lon="12.9707341"><ele>407.0</ele><time>2026-04-26T12:09:18.675Z</time></trkpt><trkpt lat="42.3711091" lon="12.9708697"><ele>407.66666666666663</ele><time>2026-04-26T12:09:19.676Z</time></trkpt><trkpt lat="42.3709746" lon="12.9710013"><ele>408.33333333333337</ele><time>2026-04-26T12:09:20.677Z</time></trkpt><trkpt lat="42.3708346" lon="12.9711282"><ele>409.0</ele><time>2026-04-26T12:09:21.676Z</time></trkpt><trkpt lat="42.3706903" lon="12.9712561"><ele>409.0</ele><time>2026-04-26T12:09:22.675Z</time></trkpt><trkpt lat="42.3705507" lon="12.9713875"><ele>409.0</ele><time>2026-04-26T12:09:23.676Z</time></trkpt><trkpt lat="42.3704126" lon="12.9715244"><ele>409.0</ele><time>2026-04-26T12:09:24.677Z</time></trkpt><trkpt lat="42.3702835" lon="12.9716714"><ele>411.6666666666667</ele><time>2026-04-26T12:09:25.677Z</time></trkpt><trkpt lat="42.3701646" lon="12.9718331"><ele>414.33333333333337</ele><time>2026-04-26T12:09:26.677Z</time></trkpt><trkpt lat="42.3700607" lon="12.9719941"><ele>417.0</ele><time>2026-04-26T12:09:27.676Z</time></trkpt><trkpt lat="42.3699726" lon="12.9721598"><ele>417.0</ele><time>2026-04-26T12:09:28.675Z</time></trkpt><trkpt lat="42.3698984" lon="12.9723416"><ele>417.0</ele><time>2026-04-26T12:09:29.677Z</time></trkpt><trkpt lat="42.369846" lon="12.9725332"><ele>417.0</ele><time>2026-04-26T12:09:30.676Z</time></trkpt><trkpt lat="42.3698037" lon="12.9727341"><ele>414.66666666666663</ele><time>2026-04-26T12:09:31.676Z</time></trkpt><trkpt lat="42.3697627" lon="12.9729358"><ele>412.3333333333333</ele><time>2026-04-26T12:09:32.676Z</time></trkpt><trkpt lat="42.3697178" lon="12.9731334"><ele>410.0</ele><time>2026-04-26T12:09:33.677Z</time></trkpt><trkpt lat="42.369668" lon="12.9733248"><ele>411.5</ele><time>2026-04-26T12:09:34.676Z</time></trkpt><trkpt lat="42.3696014" lon="12.9734999"><ele>413.0</ele><time>2026-04-26T12:09:35.676Z</time></trkpt><trkpt lat="42.3695287" lon="12.973656"><ele>414.5</ele><time>2026-04-26T12:09:36.675Z</time></trkpt><trkpt lat="42.3694465" lon="12.9737819"><ele>416.0</ele><time>2026-04-26T12:09:37.676Z</time></trkpt><trkpt lat="42.3693474" lon="12.9738778"><ele>416.0</ele><time>2026-04-26T12:09:38.676Z</time></trkpt><trkpt lat="42.3692313" lon="12.9739497"><ele>416.0</ele><time>2026-04-26T12:09:39.676Z</time></trkpt><trkpt lat="42.3691006" lon="12.9740085"><ele>416.0</ele><time>2026-04-26T12:09:40.676Z</time></trkpt><trkpt lat="42.3689582" lon="12.9740717"><ele>416.0</ele><time>2026-04-26T12:09:41.676Z</time></trkpt><trkpt lat="42.3688129" lon="12.9741496"><ele>415.3333333333333</ele><time>2026-04-26T12:09:42.676Z</time></trkpt><trkpt lat="42.3686682" lon="12.9742521"><ele>414.66666666666663</ele><time>2026-04-26T12:09:43.677Z</time></trkpt><trkpt lat="42.368525" lon="12.9743759"><ele>414.0</ele><time>2026-04-26T12:09:44.675Z</time></trkpt><trkpt lat="42.3683744" lon="12.9745048"><ele>414.0</ele><time>2026-04-26T12:09:45.675Z</time></trkpt><trkpt lat="42.3682171" lon="12.9746275"><ele>414.0</ele><time>2026-04-26T12:09:46.677Z</time></trkpt><trkpt lat="42.3680568" lon="12.9747417"><ele>414.0</ele><time>2026-04-26T12:09:47.676Z</time></trkpt><trkpt lat="42.3678997" lon="12.9748457"><ele>415.0</ele><time>2026-04-26T12:09:48.676Z</time></trkpt><trkpt lat="42.3677547" lon="12.974952"><ele>416.0</ele><time>2026-04-26T12:09:49.676Z</time></trkpt><trkpt lat="42.3676251" lon="12.9750696"><ele>417.0</ele><time>2026-04-26T12:09:50.677Z</time></trkpt><trkpt lat="42.367508" lon="12.9751947"><ele>417.0</ele><time>2026-04-26T12:09:51.677Z</time></trkpt><trkpt lat="42.3673953" lon="12.9753333"><ele>417.0</ele><time>2026-04-26T12:09:52.676Z</time></trkpt><trkpt lat="42.3672824" lon="12.9754838"><ele>417.0</ele><time>2026-04-26T12:09:53.677Z</time></trkpt><trkpt lat="42.3671724" lon="12.9756428"><ele>421.0</ele><time>2026-04-26T12:09:54.675Z</time></trkpt><trkpt lat="42.3670633" lon="12.9758089"><ele>425.0</ele><time>2026-04-26T12:09:55.676Z</time></trkpt><trkpt lat="42.366957" lon="12.9759779"><ele>429.0</ele><time>2026-04-26T12:09:56.676Z</time></trkpt><trkpt lat="42.3668496" lon="12.9761561"><ele>429.0</ele><time>2026-04-26T12:09:57.676Z</time></trkpt><trkpt lat="42.3667438" lon="12.9763336"><ele>429.0</ele><time>2026-04-26T12:09:58.675Z</time></trkpt><trkpt lat="42.3666372" lon="12.9765164"><ele>429.0</ele><time>2026-04-26T12:09:59.676Z</time></trkpt><trkpt lat="42.3665413" lon="12.9767005"><ele>424.0</ele><time>2026-04-26T12:10:00.677Z</time></trkpt><trkpt lat="42.3664553" lon="12.976896"><ele>419.0</ele><time>2026-04-26T12:10:01.676Z</time></trkpt><trkpt lat="42.3663766" lon="12.9770964"><ele>414.0</ele><time>2026-04-26T12:10:02.675Z</time></trkpt><trkpt lat="42.3663025" lon="12.9772923"><ele>428.0</ele><time>2026-04-26T12:10:03.677Z</time></trkpt><trkpt lat="42.3662385" lon="12.9774783"><ele>442.0</ele><time>2026-04-26T12:10:04.676Z</time></trkpt><trkpt lat="42.3661903" lon="12.9776759"><ele>456.0</ele><time>2026-04-26T12:10:05.676Z</time></trkpt><trkpt lat="42.3661606" lon="12.9778789"><ele>456.0</ele><time>2026-04-26T12:10:06.676Z</time></trkpt><trkpt lat="42.3661351" lon="12.978079"><ele>456.0</ele><time>2026-04-26T12:10:07.676Z</time></trkpt><trkpt lat="42.3660911" lon="12.9782737"><ele>456.0</ele><time>2026-04-26T12:10:08.677Z</time></trkpt><trkpt lat="42.3660266" lon="12.9784665"><ele>449.33333333333337</ele><time>2026-04-26T12:10:09.677Z</time></trkpt><trkpt lat="42.3659469" lon="12.9786573"><ele>442.6666666666667</ele><time>2026-04-26T12:10:10.677Z</time></trkpt><trkpt lat="42.3658685" lon="12.978858"><ele>436.0</ele><time>2026-04-26T12:10:11.677Z</time></trkpt><trkpt lat="42.3658001" lon="12.979071"><ele>430.6666666666667</ele><time>2026-04-26T12:10:12.676Z</time></trkpt><trkpt lat="42.365736" lon="12.9792781"><ele>425.33333333333337</ele><time>2026-04-26T12:10:13.676Z</time></trkpt><trkpt lat="42.36568" lon="12.9794765"><ele>420.0</ele><time>2026-04-26T12:10:14.675Z</time></trkpt><trkpt lat="42.3656333" lon="12.9796674"><ele>420.0</ele><time>2026-04-26T12:10:15.677Z</time></trkpt><trkpt lat="42.3655975" lon="12.9798498"><ele>420.0</ele><time>2026-04-26T12:10:16.676Z</time></trkpt><trkpt lat="42.3655573" lon="12.9800245"><ele>420.0</ele><time>2026-04-26T12:10:17.675Z</time></trkpt><trkpt lat="42.3655011" lon="12.9801998"><ele>420.0</ele><time>2026-04-26T12:10:18.676Z</time></trkpt><trkpt lat="42.365432" lon="12.9803745"><ele>418.0</ele><time>2026-04-26T12:10:19.676Z</time></trkpt><trkpt lat="42.3653568" lon="12.9805376"><ele>416.0</ele><time>2026-04-26T12:10:20.677Z</time></trkpt><trkpt lat="42.3652728" lon="12.980687"><ele>414.0</ele><time>2026-04-26T12:10:21.675Z</time></trkpt><trkpt lat="42.3651741" lon="12.9808141"><ele>412.0</ele><time>2026-04-26T12:10:22.677Z</time></trkpt><trkpt lat="42.3650552" lon="12.9809274"><ele>412.0</ele><time>2026-04-26T12:10:23.677Z</time></trkpt><trkpt lat="42.3649194" lon="12.9810342"><ele>412.0</ele><time>2026-04-26T12:10:24.677Z</time></trkpt><trkpt lat="42.3647684" lon="12.9811266"><ele>412.0</ele><time>2026-04-26T12:10:25.677Z</time></trkpt><trkpt lat="42.3646226" lon="12.9812088"><ele>416.25</ele><time>2026-04-26T12:10:26.677Z</time></trkpt><trkpt lat="42.3644826" lon="12.981275"><ele>420.5</ele><time>2026-04-26T12:10:27.677Z</time></trkpt><trkpt lat="42.3643474" lon="12.981333"><ele>424.75</ele><time>2026-04-26T12:10:28.677Z</time></trkpt><trkpt lat="42.3642082" lon="12.9813631"><ele>429.0</ele><time>2026-04-26T12:10:29.677Z</time></trkpt><trkpt lat="42.3640623" lon="12.9813683"><ele>429.0</ele><time>2026-04-26T12:10:30.676Z</time></trkpt><trkpt lat="42.3639148" lon="12.9813539"><ele>429.0</ele><time>2026-04-26T12:10:31.676Z</time></trkpt><trkpt lat="42.3637758" lon="12.9813245"><ele>429.0</ele><time>2026-04-26T12:10:32.676Z</time></trkpt><trkpt lat="42.3636417" lon="12.9812744"><ele>429.0</ele><time>2026-04-26T12:10:33.677Z</time></trkpt><trkpt lat="42.3635096" lon="12.9811918"><ele>430.75</ele><time>2026-04-26T12:10:34.676Z</time></trkpt><trkpt lat="42.3633845" lon="12.9810949"><ele>432.5</ele><time>2026-04-26T12:10:35.677Z</time></trkpt><trkpt lat="42.3632699" lon="12.9810119"><ele>434.25</ele><time>2026-04-26T12:10:36.676Z</time></trkpt><trkpt lat="42.3631712" lon="12.9809519"><ele>436.0</ele><time>2026-04-26T12:10:37.676Z</time></trkpt><trkpt lat="42.3630837" lon="12.980926"><ele>443.0</ele><time>2026-04-26T12:10:38.677Z</time></trkpt><trkpt lat="42.3630002" lon="12.9809426"><ele>450.0</ele><time>2026-04-26T12:10:39.675Z</time></trkpt><trkpt lat="42.3629197" lon="12.9809992"><ele>457.0</ele><time>2026-04-26T12:10:40.676Z</time></trkpt><trkpt lat="42.3628499" lon="12.9810931"><ele>464.0</ele><time>2026-04-26T12:10:41.676Z</time></trkpt><trkpt lat="42.3628057" lon="12.9812146"><ele>471.0</ele><time>2026-04-26T12:10:42.676Z</time></trkpt><trkpt lat="42.3627926" lon="12.9813615"><ele>471.0</ele><time>2026-04-26T12:10:43.676Z</time></trkpt><trkpt lat="42.3628125" lon="12.981517"><ele>471.0</ele><time>2026-04-26T12:10:44.676Z</time></trkpt><trkpt lat="42.3628524" lon="12.9816776"><ele>471.0</ele><time>2026-04-26T12:10:45.677Z</time></trkpt><trkpt lat="42.3628987" lon="12.9818462"><ele>471.0</ele><time>2026-04-26T12:10:46.677Z</time></trkpt><trkpt lat="42.3629395" lon="12.9820126"><ele>468.8</ele><time>2026-04-26T12:10:47.677Z</time></trkpt><trkpt lat="42.3629728" lon="12.9821705"><ele>466.6</ele><time>2026-04-26T12:10:48.677Z</time></trkpt><trkpt lat="42.362995" lon="12.9823233"><ele>464.4</ele><time>2026-04-26T12:10:49.676Z</time></trkpt><trkpt lat="42.3629923" lon="12.9824646"><ele>462.2</ele><time>2026-04-26T12:10:50.676Z</time></trkpt><trkpt lat="42.3629541" lon="12.9825847"><ele>460.0</ele><time>2026-04-26T12:10:51.677Z</time></trkpt><trkpt lat="42.3628813" lon="12.9826791"><ele>453.75</ele><time>2026-04-26T12:10:52.676Z</time></trkpt><trkpt lat="42.3627789" lon="12.9827573"><ele>447.5</ele><time>2026-04-26T12:10:53.677Z</time></trkpt><trkpt lat="42.3626479" lon="12.9828032"><ele>441.25</ele><time>2026-04-26T12:10:54.677Z</time></trkpt><trkpt lat="42.3625051" lon="12.9827908"><ele>435.0</ele><time>2026-04-26T12:10:55.676Z</time></trkpt><trkpt lat="42.3623589" lon="12.9827561"><ele>435.0</ele><time>2026-04-26T12:10:56.677Z</time></trkpt><trkpt lat="42.3622238" lon="12.9827276"><ele>435.0</ele><time>2026-04-26T12:10:57.677Z</time></trkpt><trkpt lat="42.3620756" lon="12.9827403"><ele>435.0</ele><time>2026-04-26T12:10:58.676Z</time></trkpt><trkpt lat="42.3619434" lon="12.9827673"><ele>435.0</ele><time>2026-04-26T12:10:59.676Z</time></trkpt><trkpt lat="42.3618197" lon="12.9828169"><ele>438.5</ele><time>2026-04-26T12:11:00.677Z</time></trkpt><trkpt lat="42.3617017" lon="12.9828984"><ele>442.0</ele><time>2026-04-26T12:11:01.677Z</time></trkpt><trkpt lat="42.3616097" lon="12.983019"><ele>445.5</ele><time>2026-04-26T12:11:02.675Z</time></trkpt><trkpt lat="42.3615474" lon="12.9831685"><ele>449.0</ele><time>2026-04-26T12:11:03.675Z</time></trkpt><trkpt lat="42.3615201" lon="12.9833304"><ele>447.75</ele><time>2026-04-26T12:11:04.676Z</time></trkpt><trkpt lat="42.361514" lon="12.9834991"><ele>446.5</ele><time>2026-04-26T12:11:05.677Z</time></trkpt><trkpt lat="42.361485" lon="12.9836689"><ele>445.25</ele><time>2026-04-26T12:11:06.677Z</time></trkpt><trkpt lat="42.3614336" lon="12.9838331"><ele>444.0</ele><time>2026-04-26T12:11:07.675Z</time></trkpt><trkpt lat="42.3614019" lon="12.9840074"><ele>441.5</ele><time>2026-04-26T12:11:08.676Z</time></trkpt><trkpt lat="42.3614148" lon="12.9841908"><ele>439.0</ele><time>2026-04-26T12:11:09.677Z</time></trkpt><trkpt lat="42.3614292" lon="12.9843513"><ele>436.5</ele><time>2026-04-26T12:11:10.676Z</time></trkpt><trkpt lat="42.361436" lon="12.9845087"><ele>434.0</ele><time>2026-04-26T12:11:11.677Z</time></trkpt><trkpt lat="42.3614215" lon="12.9846532"><ele>434.0</ele><time>2026-04-26T12:11:12.675Z</time></trkpt><trkpt lat="42.36137" lon="12.984789"><ele>434.0</ele><time>2026-04-26T12:11:13.675Z</time></trkpt><trkpt lat="42.3613013" lon="12.984905"><ele>434.0</ele><time>2026-04-26T12:11:14.676Z</time></trkpt><trkpt lat="42.3612245" lon="12.9849904"><ele>434.0</ele><time>2026-04-26T12:11:15.675Z</time></trkpt><trkpt lat="42.3611373" lon="12.9850449"><ele>434.0</ele><time>2026-04-26T12:11:16.675Z</time></trkpt><trkpt lat="42.361037" lon="12.98507"><ele>432.75</ele><time>2026-04-26T12:11:17.675Z</time></trkpt><trkpt lat="42.3609201" lon="12.9850833"><ele>431.5</ele><time>2026-04-26T12:11:18.675Z</time></trkpt><trkpt lat="42.3607958" lon="12.9850855"><ele>430.25</ele><time>2026-04-26T12:11:19.676Z</time></trkpt><trkpt lat="42.3606636" lon="12.9850806"><ele>429.0</ele><time>2026-04-26T12:11:20.676Z</time></trkpt><trkpt lat="42.360527" lon="12.9850713"><ele>433.0</ele><time>2026-04-26T12:11:21.675Z</time></trkpt><trkpt lat="42.3603903" lon="12.9850391"><ele>437.0</ele><time>2026-04-26T12:11:22.675Z</time></trkpt><trkpt lat="42.3602563" lon="12.984995"><ele>441.0</ele><time>2026-04-26T12:11:23.676Z</time></trkpt><trkpt lat="42.3601238" lon="12.9849722"><ele>445.0</ele><time>2026-04-26T12:11:24.676Z</time></trkpt><trkpt lat="42.3599907" lon="12.9849789"><ele>445.0</ele><time>2026-04-26T12:11:25.676Z</time></trkpt><trkpt lat="42.359857" lon="12.9850251"><ele>445.0</ele><time>2026-04-26T12:11:26.675Z</time></trkpt><trkpt lat="42.359734" lon="12.9850953"><ele>445.0</ele><time>2026-04-26T12:11:27.674Z</time></trkpt><trkpt lat="42.3596147" lon="12.9851869"><ele>445.0</ele><time>2026-04-26T12:11:28.676Z</time></trkpt><trkpt lat="42.3595015" lon="12.9852837"><ele>448.5</ele><time>2026-04-26T12:11:29.676Z</time></trkpt><trkpt lat="42.3593987" lon="12.9853804"><ele>452.0</ele><time>2026-04-26T12:11:30.675Z</time></trkpt><trkpt lat="42.359302" lon="12.9854746"><ele>455.5</ele><time>2026-04-26T12:11:31.675Z</time></trkpt><trkpt lat="42.3592128" lon="12.9855639"><ele>459.0</ele><time>2026-04-26T12:11:32.676Z</time></trkpt><trkpt lat="42.3591332" lon="12.9856458"><ele>459.0</ele><time>2026-04-26T12:11:33.676Z</time></trkpt><trkpt lat="42.3590734" lon="12.9857257"><ele>459.0</ele><time>2026-04-26T12:11:34.676Z</time></trkpt><trkpt lat="42.3590289" lon="12.9857948"><ele>459.0</ele><time>2026-04-26T12:11:35.675Z</time></trkpt><trkpt lat="42.358968" lon="12.985892"><ele>459.0</ele><time>2026-04-26T12:11:37.675Z</time></trkpt><trkpt lat="42.3589409" lon="12.985976"><ele>459.0</ele><time>2026-04-26T12:11:41.676Z</time></trkpt><trkpt lat="42.3589992" lon="12.9860524"><ele>459.0</ele><time>2026-04-26T12:19:10.672Z</time></trkpt><trkpt lat="42.3590584" lon="12.9862032"><ele>461.2</ele><time>2026-04-26T12:19:12.672Z</time></trkpt><trkpt lat="42.3591244" lon="12.9862666"><ele>463.4</ele><time>2026-04-26T12:19:13.672Z</time></trkpt><trkpt lat="42.3592041" lon="12.9863304"><ele>465.6</ele><time>2026-04-26T12:19:14.673Z</time></trkpt><trkpt lat="42.3592898" lon="12.9863896"><ele>467.8</ele><time>2026-04-26T12:19:15.671Z</time></trkpt><trkpt lat="42.3593637" lon="12.9864588"><ele>470.0</ele><time>2026-04-26T12:19:16.673Z</time></trkpt><trkpt lat="42.3594311" lon="12.9865508"><ele>470.0</ele><time>2026-04-26T12:19:17.672Z</time></trkpt><trkpt lat="42.3594828" lon="12.9866668"><ele>470.0</ele><time>2026-04-26T12:19:18.672Z</time></trkpt><trkpt lat="42.3595194" lon="12.9867858"><ele>470.0</ele><time>2026-04-26T12:19:19.672Z</time></trkpt><trkpt lat="42.3595435" lon="12.9869047"><ele>470.0</ele><time>2026-04-26T12:19:20.672Z</time></trkpt><trkpt lat="42.3595619" lon="12.987021"><ele>470.0</ele><time>2026-04-26T12:19:21.671Z</time></trkpt><trkpt lat="42.3595632" lon="12.9871286"><ele>470.2</ele><time>2026-04-26T12:19:22.672Z</time></trkpt><trkpt lat="42.3595465" lon="12.9872342"><ele>470.4</ele><time>2026-04-26T12:19:23.673Z</time></trkpt><trkpt lat="42.3595079" lon="12.9873274"><ele>470.6</ele><time>2026-04-26T12:19:24.672Z</time></trkpt><trkpt lat="42.3594397" lon="12.9874079"><ele>470.8</ele><time>2026-04-26T12:19:25.672Z</time></trkpt><trkpt lat="42.3593537" lon="12.9874653"><ele>471.0</ele><time>2026-04-26T12:19:26.672Z</time></trkpt><trkpt lat="42.3592609" lon="12.9875317"><ele>470.0</ele><time>2026-04-26T12:19:27.672Z</time></trkpt><trkpt lat="42.3591768" lon="12.9876275"><ele>469.0</ele><time>2026-04-26T12:19:28.671Z</time></trkpt><trkpt lat="42.3591177" lon="12.9877472"><ele>468.0</ele><time>2026-04-26T12:19:29.672Z</time></trkpt><trkpt lat="42.3590913" lon="12.9878959"><ele>467.0</ele><time>2026-04-26T12:19:30.672Z</time></trkpt><trkpt lat="42.3591022" lon="12.9880719"><ele>467.0</ele><time>2026-04-26T12:19:31.673Z</time></trkpt><trkpt lat="42.3591334" lon="12.9882607"><ele>467.0</ele><time>2026-04-26T12:19:32.672Z</time></trkpt><trkpt lat="42.3591682" lon="12.9884541"><ele>467.0</ele><time>2026-04-26T12:19:33.672Z</time></trkpt><trkpt lat="42.3592087" lon="12.9886466"><ele>467.0</ele><time>2026-04-26T12:19:34.671Z</time></trkpt><trkpt lat="42.3592634" lon="12.9888143"><ele>468.25</ele><time>2026-04-26T12:19:35.672Z</time></trkpt><trkpt lat="42.3593308" lon="12.9889655"><ele>469.5</ele><time>2026-04-26T12:19:36.673Z</time></trkpt><trkpt lat="42.3594008" lon="12.9890969"><ele>470.75</ele><time>2026-04-26T12:19:37.672Z</time></trkpt><trkpt lat="42.3594701" lon="12.9892155"><ele>472.0</ele><time>2026-04-26T12:19:38.673Z</time></trkpt><trkpt lat="42.3595322" lon="12.9893266"><ele>469.6</ele><time>2026-04-26T12:19:39.673Z</time></trkpt><trkpt lat="42.3595653" lon="12.9894412"><ele>467.20000000000005</ele><time>2026-04-26T12:19:40.672Z</time></trkpt><trkpt lat="42.3595651" lon="12.9895607"><ele>464.8</ele><time>2026-04-26T12:19:41.673Z</time></trkpt><trkpt lat="42.3595235" lon="12.9896675"><ele>462.4</ele><time>2026-04-26T12:19:42.673Z</time></trkpt><trkpt lat="42.3594477" lon="12.9897457"><ele>460.0</ele><time>2026-04-26T12:19:43.672Z</time></trkpt><trkpt lat="42.359336" lon="12.9897965"><ele>460.0</ele><time>2026-04-26T12:19:44.671Z</time></trkpt><trkpt lat="42.3592097" lon="12.989824"><ele>460.0</ele><time>2026-04-26T12:19:45.672Z</time></trkpt><trkpt lat="42.3590847" lon="12.9898415"><ele>460.0</ele><time>2026-04-26T12:19:46.673Z</time></trkpt><trkpt lat="42.3589551" lon="12.9898507"><ele>460.0</ele><time>2026-04-26T12:19:47.672Z</time></trkpt><trkpt lat="42.3588242" lon="12.9898565"><ele>462.75</ele><time>2026-04-26T12:19:48.672Z</time></trkpt><trkpt lat="42.3586844" lon="12.9898507"><ele>465.5</ele><time>2026-04-26T12:19:49.673Z</time></trkpt><trkpt lat="42.358532" lon="12.9898285"><ele>468.25</ele><time>2026-04-26T12:19:50.673Z</time></trkpt><trkpt lat="42.358377" lon="12.9898011"><ele>471.0</ele><time>2026-04-26T12:19:51.673Z</time></trkpt><trkpt lat="42.3582194" lon="12.9897792"><ele>471.0</ele><time>2026-04-26T12:19:52.673Z</time></trkpt><trkpt lat="42.3580696" lon="12.989757"><ele>471.0</ele><time>2026-04-26T12:19:53.672Z</time></trkpt><trkpt lat="42.3579235" lon="12.9897494"><ele>471.0</ele><time>2026-04-26T12:19:54.673Z</time></trkpt><trkpt lat="42.3577751" lon="12.9897728"><ele>471.0</ele><time>2026-04-26T12:19:55.671Z</time></trkpt><trkpt lat="42.3576364" lon="12.9898161"><ele>474.4</ele><time>2026-04-26T12:19:56.672Z</time></trkpt><trkpt lat="42.3575117" lon="12.9898594"><ele>477.8</ele><time>2026-04-26T12:19:57.673Z</time></trkpt><trkpt lat="42.3574085" lon="12.9899126"><ele>481.19999999999993</ele><time>2026-04-26T12:19:58.673Z</time></trkpt><trkpt lat="42.3573291" lon="12.9899819"><ele>484.59999999999997</ele><time>2026-04-26T12:19:59.673Z</time></trkpt><trkpt lat="42.3572741" lon="12.9900688"><ele>488.0</ele><time>2026-04-26T12:20:00.672Z</time></trkpt><trkpt lat="42.3572517" lon="12.9901776"><ele>488.25</ele><time>2026-04-26T12:20:01.671Z</time></trkpt><trkpt lat="42.3572689" lon="12.9903094"><ele>488.5</ele><time>2026-04-26T12:20:02.671Z</time></trkpt><trkpt lat="42.3573153" lon="12.9904537"><ele>488.75</ele><time>2026-04-26T12:20:03.671Z</time></trkpt><trkpt lat="42.3573801" lon="12.9906092"><ele>489.0</ele><time>2026-04-26T12:20:04.67Z</time></trkpt><trkpt lat="42.3574497" lon="12.9907635"><ele>488.79999999999995</ele><time>2026-04-26T12:20:05.671Z</time></trkpt><trkpt lat="42.3575369" lon="12.9908834"><ele>488.59999999999997</ele><time>2026-04-26T12:20:06.671Z</time></trkpt><trkpt lat="42.3576103" lon="12.9909966"><ele>488.4</ele><time>2026-04-26T12:20:07.672Z</time></trkpt><trkpt lat="42.3576584" lon="12.9911254"><ele>488.2</ele><time>2026-04-26T12:20:08.671Z</time></trkpt><trkpt lat="42.3576705" lon="12.9912486"><ele>488.0</ele><time>2026-04-26T12:20:09.671Z</time></trkpt><trkpt lat="42.3576387" lon="12.9913614"><ele>488.0</ele><time>2026-04-26T12:20:10.67Z</time></trkpt><trkpt lat="42.3575693" lon="12.9914664"><ele>488.0</ele><time>2026-04-26T12:20:11.671Z</time></trkpt><trkpt lat="42.3574666" lon="12.9915512"><ele>488.0</ele><time>2026-04-26T12:20:12.67Z</time></trkpt><trkpt lat="42.3573316" lon="12.9916277"><ele>488.0</ele><time>2026-04-26T12:20:13.671Z</time></trkpt><trkpt lat="42.3571833" lon="12.9916883"><ele>493.0</ele><time>2026-04-26T12:20:14.67Z</time></trkpt><trkpt lat="42.3570262" lon="12.9917387"><ele>498.0</ele><time>2026-04-26T12:20:15.67Z</time></trkpt><trkpt lat="42.3568826" lon="12.9917707"><ele>503.0</ele><time>2026-04-26T12:20:16.672Z</time></trkpt><trkpt lat="42.3567512" lon="12.9917885"><ele>508.0</ele><time>2026-04-26T12:20:17.672Z</time></trkpt><trkpt lat="42.356631" lon="12.991791"><ele>508.00000000000006</ele><time>2026-04-26T12:20:18.671Z</time></trkpt><trkpt lat="42.3565285" lon="12.9917961"><ele>508.0</ele><time>2026-04-26T12:20:19.672Z</time></trkpt><trkpt lat="42.3564446" lon="12.9918273"><ele>508.0</ele><time>2026-04-26T12:20:20.67Z</time></trkpt><trkpt lat="42.3563856" lon="12.9919038"><ele>508.0</ele><time>2026-04-26T12:20:21.67Z</time></trkpt><trkpt lat="42.3563687" lon="12.9920239"><ele>508.00000000000006</ele><time>2026-04-26T12:20:22.671Z</time></trkpt><trkpt lat="42.3563523" lon="12.9921323"><ele>508.0</ele><time>2026-04-26T12:20:23.671Z</time></trkpt><trkpt lat="42.3564506" lon="12.9922461"><ele>508.0</ele><time>2026-04-26T12:20:24.671Z</time></trkpt><trkpt lat="42.3565256" lon="12.9923749"><ele>508.0</ele><time>2026-04-26T12:20:25.672Z</time></trkpt><trkpt lat="42.3566205" lon="12.9925204"><ele>508.0</ele><time>2026-04-26T12:20:26.672Z</time></trkpt><trkpt lat="42.3567213" lon="12.9926734"><ele>508.0</ele><time>2026-04-26T12:20:27.672Z</time></trkpt><trkpt lat="42.3568157" lon="12.9928356"><ele>513.75</ele><time>2026-04-26T12:20:28.671Z</time></trkpt><trkpt lat="42.3568995" lon="12.9930063"><ele>519.5</ele><time>2026-04-26T12:20:29.672Z</time></trkpt><trkpt lat="42.356984" lon="12.9931642"><ele>525.25</ele><time>2026-04-26T12:20:30.671Z</time></trkpt><trkpt lat="42.357089" lon="12.9932916"><ele>531.0</ele><time>2026-04-26T12:20:31.67Z</time></trkpt><trkpt lat="42.3572316" lon="12.9933849"><ele>532.0</ele><time>2026-04-26T12:20:32.671Z</time></trkpt><trkpt lat="42.3573799" lon="12.993472"><ele>533.0</ele><time>2026-04-26T12:20:33.672Z</time></trkpt><trkpt lat="42.3575214" lon="12.9935916"><ele>534.0</ele><time>2026-04-26T12:20:34.671Z</time></trkpt><trkpt lat="42.3576529" lon="12.993733"><ele>534.0</ele><time>2026-04-26T12:20:35.671Z</time></trkpt><trkpt lat="42.3577796" lon="12.9938875"><ele>534.0</ele><time>2026-04-26T12:20:36.672Z</time></trkpt><trkpt lat="42.3578987" lon="12.9940592"><ele>534.0</ele><time>2026-04-26T12:20:37.672Z</time></trkpt><trkpt lat="42.3580002" lon="12.9942321"><ele>529.0</ele><time>2026-04-26T12:20:38.67Z</time></trkpt><trkpt lat="42.3580848" lon="12.9943987"><ele>524.0</ele><time>2026-04-26T12:20:39.67Z</time></trkpt><trkpt lat="42.3581486" lon="12.9945784"><ele>519.0</ele><time>2026-04-26T12:20:40.672Z</time></trkpt><trkpt lat="42.3581942" lon="12.9947838"><ele>519.0</ele><time>2026-04-26T12:20:41.672Z</time></trkpt><trkpt lat="42.3582318" lon="12.9949864"><ele>519.0</ele><time>2026-04-26T12:20:42.671Z</time></trkpt><trkpt lat="42.3582597" lon="12.9951806"><ele>519.0</ele><time>2026-04-26T12:20:43.67Z</time></trkpt><trkpt lat="42.3582666" lon="12.9953692"><ele>519.0</ele><time>2026-04-26T12:20:44.671Z</time></trkpt><trkpt lat="42.3582523" lon="12.9955579"><ele>519.0</ele><time>2026-04-26T12:20:45.671Z</time></trkpt><trkpt lat="42.3582037" lon="12.9957337"><ele>519.0</ele><time>2026-04-26T12:20:46.672Z</time></trkpt><trkpt lat="42.3581255" lon="12.9958999"><ele>519.0</ele><time>2026-04-26T12:20:47.671Z</time></trkpt><trkpt lat="42.3580323" lon="12.9960464"><ele>519.0</ele><time>2026-04-26T12:20:48.671Z</time></trkpt><trkpt lat="42.357942" lon="12.9961707"><ele>519.0</ele><time>2026-04-26T12:20:49.672Z</time></trkpt><trkpt lat="42.3578476" lon="12.9962705"><ele>519.0</ele><time>2026-04-26T12:20:50.672Z</time></trkpt><trkpt lat="42.357739" lon="12.9963342"><ele>519.0</ele><time>2026-04-26T12:20:51.672Z</time></trkpt><trkpt lat="42.3576279" lon="12.9963557"><ele>519.0</ele><time>2026-04-26T12:20:52.672Z</time></trkpt><trkpt lat="42.3575139" lon="12.9963384"><ele>519.0</ele><time>2026-04-26T12:20:53.671Z</time></trkpt><trkpt lat="42.3574027" lon="12.9962775"><ele>519.0</ele><time>2026-04-26T12:20:54.67Z</time></trkpt><trkpt lat="42.357283" lon="12.996218"><ele>519.0</ele><time>2026-04-26T12:20:55.671Z</time></trkpt><trkpt lat="42.3571551" lon="12.9962101"><ele>519.0</ele><time>2026-04-26T12:20:56.671Z</time></trkpt><trkpt lat="42.3570384" lon="12.9962272"><ele>521.0</ele><time>2026-04-26T12:20:57.672Z</time></trkpt><trkpt lat="42.3569203" lon="12.9962071"><ele>523.0</ele><time>2026-04-26T12:20:58.671Z</time></trkpt><trkpt lat="42.3568132" lon="12.9961384"><ele>525.0</ele><time>2026-04-26T12:20:59.671Z</time></trkpt><trkpt lat="42.356712" lon="12.99603"><ele>527.0</ele><time>2026-04-26T12:21:00.671Z</time></trkpt><trkpt lat="42.3566206" lon="12.9958918"><ele>531.0</ele><time>2026-04-26T12:21:01.671Z</time></trkpt><trkpt lat="42.3565418" lon="12.9957351"><ele>535.0</ele><time>2026-04-26T12:21:02.671Z</time></trkpt><trkpt lat="42.356466" lon="12.9955772"><ele>539.0</ele><time>2026-04-26T12:21:03.671Z</time></trkpt><trkpt lat="42.3563701" lon="12.9954308"><ele>543.0</ele><time>2026-04-26T12:21:04.671Z</time></trkpt><trkpt lat="42.3562367" lon="12.9953219"><ele>546.0</ele><time>2026-04-26T12:21:05.67Z</time></trkpt><trkpt lat="42.3560956" lon="12.9952209"><ele>549.0</ele><time>2026-04-26T12:21:06.67Z</time></trkpt><trkpt lat="42.3559491" lon="12.9951251"><ele>552.0</ele><time>2026-04-26T12:21:07.672Z</time></trkpt><trkpt lat="42.3558034" lon="12.995042"><ele>552.0</ele><time>2026-04-26T12:21:08.672Z</time></trkpt><trkpt lat="42.3556638" lon="12.9949842"><ele>552.0</ele><time>2026-04-26T12:21:09.671Z</time></trkpt><trkpt lat="42.3555415" lon="12.9949788"><ele>552.0</ele><time>2026-04-26T12:21:10.671Z</time></trkpt><trkpt lat="42.3554443" lon="12.9949826"><ele>552.0</ele><time>2026-04-26T12:21:11.671Z</time></trkpt><trkpt lat="42.3553669" lon="12.9950234"><ele>552.0</ele><time>2026-04-26T12:21:12.672Z</time></trkpt><trkpt lat="42.3553117" lon="12.995092"><ele>555.1666666666666</ele><time>2026-04-26T12:21:13.671Z</time></trkpt><trkpt lat="42.3552708" lon="12.9951991"><ele>558.3333333333334</ele><time>2026-04-26T12:21:14.67Z</time></trkpt><trkpt lat="42.3552623" lon="12.9953056"><ele>561.5</ele><time>2026-04-26T12:21:15.671Z</time></trkpt><trkpt lat="42.3552932" lon="12.9954002"><ele>564.6666666666667</ele><time>2026-04-26T12:21:16.671Z</time></trkpt><trkpt lat="42.3553537" lon="12.9954655"><ele>567.8333333333334</ele><time>2026-04-26T12:21:17.672Z</time></trkpt><trkpt lat="42.3554278" lon="12.9955217"><ele>571.0</ele><time>2026-04-26T12:21:18.672Z</time></trkpt><trkpt lat="42.3555226" lon="12.9955634"><ele>568.8</ele><time>2026-04-26T12:21:19.672Z</time></trkpt><trkpt lat="42.3556191" lon="12.9956262"><ele>566.6</ele><time>2026-04-26T12:21:20.67Z</time></trkpt><trkpt lat="42.3557051" lon="12.9957188"><ele>564.4</ele><time>2026-04-26T12:21:21.671Z</time></trkpt><trkpt lat="42.3557757" lon="12.9958418"><ele>562.2</ele><time>2026-04-26T12:21:22.672Z</time></trkpt><trkpt lat="42.3558241" lon="12.995985"><ele>560.0</ele><time>2026-04-26T12:21:23.671Z</time></trkpt><trkpt lat="42.3558461" lon="12.9961403"><ele>560.0</ele><time>2026-04-26T12:21:24.672Z</time></trkpt><trkpt lat="42.3558367" lon="12.9962937"><ele>560.0</ele><time>2026-04-26T12:21:25.671Z</time></trkpt><trkpt lat="42.3557987" lon="12.9964434"><ele>560.0</ele><time>2026-04-26T12:21:26.672Z</time></trkpt><trkpt lat="42.3557555" lon="12.9965844"><ele>560.0</ele><time>2026-04-26T12:21:27.67Z</time></trkpt><trkpt lat="42.3557406" lon="12.9967347"><ele>564.5</ele><time>2026-04-26T12:21:28.671Z</time></trkpt><trkpt lat="42.3557655" lon="12.9968923"><ele>569.0</ele><time>2026-04-26T12:21:29.671Z</time></trkpt><trkpt lat="42.3558224" lon="12.9970561"><ele>573.5</ele><time>2026-04-26T12:21:30.671Z</time></trkpt><trkpt lat="42.3558921" lon="12.9972254"><ele>578.0</ele><time>2026-04-26T12:21:31.671Z</time></trkpt><trkpt lat="42.3559717" lon="12.9974069"><ele>582.25</ele><time>2026-04-26T12:21:32.671Z</time></trkpt><trkpt lat="42.3560476" lon="12.9975891"><ele>586.5</ele><time>2026-04-26T12:21:33.672Z</time></trkpt><trkpt lat="42.3561065" lon="12.9977758"><ele>590.75</ele><time>2026-04-26T12:21:34.671Z</time></trkpt><trkpt lat="42.3561636" lon="12.9979528"><ele>595.0</ele><time>2026-04-26T12:21:35.671Z</time></trkpt><trkpt lat="42.3562413" lon="12.9981138"><ele>595.0</ele><time>2026-04-26T12:21:36.672Z</time></trkpt><trkpt lat="42.3563188" lon="12.9982556"><ele>595.0</ele><time>2026-04-26T12:21:37.671Z</time></trkpt><trkpt lat="42.3564724" lon="12.9983188"><ele>595.0</ele><time>2026-04-26T12:21:38.671Z</time></trkpt><trkpt lat="42.3565923" lon="12.9983949"><ele>595.0</ele><time>2026-04-26T12:21:39.67Z</time></trkpt><trkpt lat="42.3566883" lon="12.998491"><ele>591.4</ele><time>2026-04-26T12:21:40.672Z</time></trkpt><trkpt lat="42.3567659" lon="12.9986044"><ele>587.8</ele><time>2026-04-26T12:21:41.671Z</time></trkpt><trkpt lat="42.3568202" lon="12.9987231"><ele>584.2</ele><time>2026-04-26T12:21:42.672Z</time></trkpt><trkpt lat="42.3568335" lon="12.9988465"><ele>580.6</ele><time>2026-04-26T12:21:43.67Z</time></trkpt><trkpt lat="42.3568094" lon="12.9989839"><ele>577.0</ele><time>2026-04-26T12:21:44.671Z</time></trkpt><trkpt lat="42.3567507" lon="12.9991303"><ele>572.75</ele><time>2026-04-26T12:21:45.672Z</time></trkpt><trkpt lat="42.3566721" lon="12.9992852"><ele>568.5</ele><time>2026-04-26T12:21:46.671Z</time></trkpt><trkpt lat="42.3565927" lon="12.999439"><ele>564.25</ele><time>2026-04-26T12:21:47.67Z</time></trkpt><trkpt lat="42.3565128" lon="12.9995839"><ele>560.0</ele><time>2026-04-26T12:21:48.67Z</time></trkpt><trkpt lat="42.3564316" lon="12.999704"><ele>561.8</ele><time>2026-04-26T12:21:49.672Z</time></trkpt><trkpt lat="42.3563425" lon="12.9998007"><ele>563.6</ele><time>2026-04-26T12:21:50.672Z</time></trkpt><trkpt lat="42.3562471" lon="12.9998641"><ele>565.4</ele><time>2026-04-26T12:21:51.672Z</time></trkpt><trkpt lat="42.3561465" lon="12.999882"><ele>567.2</ele><time>2026-04-26T12:21:52.672Z</time></trkpt><trkpt lat="42.3560406" lon="12.9998497"><ele>569.0</ele><time>2026-04-26T12:21:53.671Z</time></trkpt><trkpt lat="42.3559263" lon="12.9997686"><ele>569.0</ele><time>2026-04-26T12:21:54.672Z</time></trkpt><trkpt lat="42.3558176" lon="12.9996557"><ele>569.0</ele><time>2026-04-26T12:21:55.67Z</time></trkpt><trkpt lat="42.3557138" lon="12.9995152"><ele>569.0</ele><time>2026-04-26T12:21:56.671Z</time></trkpt><trkpt lat="42.3556101" lon="12.9993569"><ele>569.0</ele><time>2026-04-26T12:21:57.671Z</time></trkpt><trkpt lat="42.3554909" lon="12.9991943"><ele>573.0</ele><time>2026-04-26T12:21:58.672Z</time></trkpt><trkpt lat="42.3553683" lon="12.9990383"><ele>577.0</ele><time>2026-04-26T12:21:59.671Z</time></trkpt><trkpt lat="42.3552456" lon="12.9988898"><ele>581.0</ele><time>2026-04-26T12:22:00.671Z</time></trkpt><trkpt lat="42.355122" lon="12.9987526"><ele>581.0</ele><time>2026-04-26T12:22:01.671Z</time></trkpt><trkpt lat="42.354985" lon="12.998638"><ele>581.0</ele><time>2026-04-26T12:22:02.672Z</time></trkpt><trkpt lat="42.3548447" lon="12.9985515"><ele>581.0</ele><time>2026-04-26T12:22:03.671Z</time></trkpt><trkpt lat="42.3547079" lon="12.9984944"><ele>583.5</ele><time>2026-04-26T12:22:04.671Z</time></trkpt><trkpt lat="42.3545771" lon="12.998441"><ele>586.0</ele><time>2026-04-26T12:22:05.671Z</time></trkpt><trkpt lat="42.3544592" lon="12.9983722"><ele>588.5</ele><time>2026-04-26T12:22:06.671Z</time></trkpt><trkpt lat="42.3543516" lon="12.9982649"><ele>591.0</ele><time>2026-04-26T12:22:07.672Z</time></trkpt><trkpt lat="42.3542699" lon="12.9981353"><ele>592.0</ele><time>2026-04-26T12:22:08.671Z</time></trkpt><trkpt lat="42.3542097" lon="12.9980039"><ele>593.0</ele><time>2026-04-26T12:22:09.671Z</time></trkpt><trkpt lat="42.3541418" lon="12.9978946"><ele>594.0</ele><time>2026-04-26T12:22:10.67Z</time></trkpt><trkpt lat="42.3540647" lon="12.997812"><ele>595.0</ele><time>2026-04-26T12:22:11.67Z</time></trkpt><trkpt lat="42.3539757" lon="12.9977733"><ele>596.0</ele><time>2026-04-26T12:22:12.671Z</time></trkpt><trkpt lat="42.3538747" lon="12.9977873"><ele>598.75</ele><time>2026-04-26T12:22:13.67Z</time></trkpt><trkpt lat="42.3537744" lon="12.9978419"><ele>601.5</ele><time>2026-04-26T12:22:14.67Z</time></trkpt><trkpt lat="42.3536559" lon="12.9978965"><ele>604.25</ele><time>2026-04-26T12:22:15.67Z</time></trkpt><trkpt lat="42.3535212" lon="12.9979241"><ele>607.0</ele><time>2026-04-26T12:22:16.671Z</time></trkpt><trkpt lat="42.3533838" lon="12.9979456"><ele>607.0</ele><time>2026-04-26T12:22:17.67Z</time></trkpt><trkpt lat="42.3532532" lon="12.9979381"><ele>607.0</ele><time>2026-04-26T12:22:18.67Z</time></trkpt><trkpt lat="42.3531403" lon="12.9979385"><ele>607.0</ele><time>2026-04-26T12:22:19.67Z</time></trkpt><trkpt lat="42.3530452" lon="12.9979528"><ele>607.0</ele><time>2026-04-26T12:22:20.671Z</time></trkpt><trkpt lat="42.3529711" lon="12.9980012"><ele>607.0</ele><time>2026-04-26T12:22:21.669Z</time></trkpt><trkpt lat="42.3529261" lon="12.9980857"><ele>609.0</ele><time>2026-04-26T12:22:22.67Z</time></trkpt><trkpt lat="42.3529174" lon="12.9981851"><ele>611.0</ele><time>2026-04-26T12:22:23.671Z</time></trkpt><trkpt lat="42.3529479" lon="12.9982926"><ele>613.0</ele><time>2026-04-26T12:22:24.67Z</time></trkpt><trkpt lat="42.3530152" lon="12.998397"><ele>615.0</ele><time>2026-04-26T12:22:25.67Z</time></trkpt><trkpt lat="42.3530952" lon="12.9985045"><ele>617.0</ele><time>2026-04-26T12:22:26.669Z</time></trkpt><trkpt lat="42.3531819" lon="12.998632"><ele>617.0</ele><time>2026-04-26T12:22:27.671Z</time></trkpt><trkpt lat="42.3532665" lon="12.998772"><ele>617.0</ele><time>2026-04-26T12:22:28.669Z</time></trkpt><trkpt lat="42.3533476" lon="12.9989178"><ele>617.0</ele><time>2026-04-26T12:22:29.67Z</time></trkpt><trkpt lat="42.3534078" lon="12.9990883"><ele>617.0</ele><time>2026-04-26T12:22:30.67Z</time></trkpt><trkpt lat="42.3534508" lon="12.9992805"><ele>618.0</ele><time>2026-04-26T12:22:31.671Z</time></trkpt><trkpt lat="42.3534863" lon="12.9994577"><ele>619.0</ele><time>2026-04-26T12:22:32.67Z</time></trkpt><trkpt lat="42.3535174" lon="12.9996218"><ele>620.0</ele><time>2026-04-26T12:22:33.67Z</time></trkpt><trkpt lat="42.3535348" lon="12.9997742"><ele>621.0</ele><time>2026-04-26T12:22:34.67Z</time></trkpt><trkpt lat="42.353533" lon="12.9999021"><ele>621.0</ele><time>2026-04-26T12:22:35.671Z</time></trkpt><trkpt lat="42.3535026" lon="13.000011"><ele>621.0</ele><time>2026-04-26T12:22:36.671Z</time></trkpt><trkpt lat="42.353443" lon="13.0000968"><ele>621.0</ele><time>2026-04-26T12:22:37.671Z</time></trkpt><trkpt lat="42.3533558" lon="13.0001482"><ele>621.0</ele><time>2026-04-26T12:22:38.669Z</time></trkpt><trkpt lat="42.3532474" lon="13.0001897"><ele>621.0</ele><time>2026-04-26T12:22:39.67Z</time></trkpt><trkpt lat="42.3531331" lon="13.0002286"><ele>625.0</ele><time>2026-04-26T12:22:40.669Z</time></trkpt><trkpt lat="42.3530246" lon="13.0002665"><ele>629.0</ele><time>2026-04-26T12:22:41.671Z</time></trkpt><trkpt lat="42.3529292" lon="13.0003018"><ele>633.0</ele><time>2026-04-26T12:22:42.671Z</time></trkpt><trkpt lat="42.3528508" lon="13.0003686"><ele>637.0</ele><time>2026-04-26T12:22:43.67Z</time></trkpt><trkpt lat="42.3527995" lon="13.0004718"><ele>641.0</ele><time>2026-04-26T12:22:44.67Z</time></trkpt><trkpt lat="42.3527699" lon="13.0006133"><ele>641.0</ele><time>2026-04-26T12:22:45.67Z</time></trkpt><trkpt lat="42.3527425" lon="13.0007753"><ele>641.0</ele><time>2026-04-26T12:22:46.67Z</time></trkpt><trkpt lat="42.3527205" lon="13.0009455"><ele>641.0</ele><time>2026-04-26T12:22:47.67Z</time></trkpt><trkpt lat="42.3527072" lon="13.001133"><ele>641.0</ele><time>2026-04-26T12:22:48.671Z</time></trkpt><trkpt lat="42.3527024" lon="13.0013385"><ele>639.6666666666666</ele><time>2026-04-26T12:22:49.669Z</time></trkpt><trkpt lat="42.3527135" lon="13.001555"><ele>638.3333333333334</ele><time>2026-04-26T12:22:50.669Z</time></trkpt><trkpt lat="42.3527356" lon="13.0017816"><ele>637.0</ele><time>2026-04-26T12:22:51.67Z</time></trkpt><trkpt lat="42.35276" lon="13.002006"><ele>637.0</ele><time>2026-04-26T12:22:52.669Z</time></trkpt><trkpt lat="42.3527776" lon="13.0022347"><ele>637.0</ele><time>2026-04-26T12:22:53.67Z</time></trkpt><trkpt lat="42.352794" lon="13.0024624"><ele>637.0</ele><time>2026-04-26T12:22:54.671Z</time></trkpt><trkpt lat="42.3528091" lon="13.0026902"><ele>638.0</ele><time>2026-04-26T12:22:55.67Z</time></trkpt><trkpt lat="42.3528371" lon="13.0029136"><ele>639.0</ele><time>2026-04-26T12:22:56.67Z</time></trkpt><trkpt lat="42.3528889" lon="13.0031247"><ele>640.0</ele><time>2026-04-26T12:22:57.671Z</time></trkpt><trkpt lat="42.3529497" lon="13.0033258"><ele>641.25</ele><time>2026-04-26T12:22:58.671Z</time></trkpt><trkpt lat="42.3530179" lon="13.0035183"><ele>642.5</ele><time>2026-04-26T12:22:59.67Z</time></trkpt><trkpt lat="42.3530768" lon="13.0036927"><ele>643.75</ele><time>2026-04-26T12:23:00.67Z</time></trkpt><trkpt lat="42.3531155" lon="13.003859"><ele>645.0</ele><time>2026-04-26T12:23:01.67Z</time></trkpt><trkpt lat="42.3531239" lon="13.0040185"><ele>646.75</ele><time>2026-04-26T12:23:02.669Z</time></trkpt><trkpt lat="42.3530956" lon="13.0041587"><ele>648.5</ele><time>2026-04-26T12:23:03.67Z</time></trkpt><trkpt lat="42.3530359" lon="13.0042812"><ele>650.25</ele><time>2026-04-26T12:23:04.669Z</time></trkpt><trkpt lat="42.3529399" lon="13.0043805"><ele>652.0</ele><time>2026-04-26T12:23:05.671Z</time></trkpt><trkpt lat="42.3528263" lon="13.0044667"><ele>652.0</ele><time>2026-04-26T12:23:06.671Z</time></trkpt><trkpt lat="42.3527023" lon="13.0045592"><ele>652.0</ele><time>2026-04-26T12:23:07.669Z</time></trkpt><trkpt lat="42.3525791" lon="13.004647"><ele>652.0</ele><time>2026-04-26T12:23:08.669Z</time></trkpt><trkpt lat="42.35245" lon="13.004698"><ele>652.0</ele><time>2026-04-26T12:23:09.671Z</time></trkpt><trkpt lat="42.3523154" lon="13.0047398"><ele>655.6666666666667</ele><time>2026-04-26T12:23:10.671Z</time></trkpt><trkpt lat="42.352167" lon="13.0047019"><ele>659.3333333333334</ele><time>2026-04-26T12:23:11.67Z</time></trkpt><trkpt lat="42.3520151" lon="13.0046559"><ele>663.0</ele><time>2026-04-26T12:23:12.67Z</time></trkpt><trkpt lat="42.3518672" lon="13.0045955"><ele>663.0</ele><time>2026-04-26T12:23:13.67Z</time></trkpt><trkpt lat="42.3517301" lon="13.0045297"><ele>663.0</ele><time>2026-04-26T12:23:14.669Z</time></trkpt><trkpt lat="42.3516058" lon="13.0044629"><ele>663.0</ele><time>2026-04-26T12:23:15.671Z</time></trkpt><trkpt lat="42.3514976" lon="13.0043996"><ele>663.0</ele><time>2026-04-26T12:23:16.67Z</time></trkpt><trkpt lat="42.3514024" lon="13.0043441"><ele>664.0</ele><time>2026-04-26T12:23:17.67Z</time></trkpt><trkpt lat="42.3513132" lon="13.0043143"><ele>665.0</ele><time>2026-04-26T12:23:18.67Z</time></trkpt><trkpt lat="42.3512129" lon="13.0043356"><ele>666.0</ele><time>2026-04-26T12:23:19.67Z</time></trkpt><trkpt lat="42.3511126" lon="13.0044041"><ele>667.0</ele><time>2026-04-26T12:23:20.67Z</time></trkpt><trkpt lat="42.3510352" lon="13.0045001"><ele>668.0</ele><time>2026-04-26T12:23:21.67Z</time></trkpt><trkpt lat="42.3509865" lon="13.0046295"><ele>668.0</ele><time>2026-04-26T12:23:22.67Z</time></trkpt><trkpt lat="42.3509606" lon="13.0047779"><ele>668.0</ele><time>2026-04-26T12:23:23.67Z</time></trkpt><trkpt lat="42.350934" lon="13.0049411"><ele>668.0</ele><time>2026-04-26T12:23:24.671Z</time></trkpt><trkpt lat="42.3508773" lon="13.0051011"><ele>668.0</ele><time>2026-04-26T12:23:25.67Z</time></trkpt><trkpt lat="42.3507954" lon="13.0052546"><ele>667.25</ele><time>2026-04-26T12:23:26.67Z</time></trkpt><trkpt lat="42.3507042" lon="13.0053987"><ele>666.5</ele><time>2026-04-26T12:23:27.67Z</time></trkpt><trkpt lat="42.3506247" lon="13.0055367"><ele>665.75</ele><time>2026-04-26T12:23:28.67Z</time></trkpt><trkpt lat="42.3505438" lon="13.0056547"><ele>665.0</ele><time>2026-04-26T12:23:29.67Z</time></trkpt><trkpt lat="42.3504566" lon="13.0057373"><ele>668.0</ele><time>2026-04-26T12:23:30.67Z</time></trkpt><trkpt lat="42.3503627" lon="13.005783"><ele>671.0</ele><time>2026-04-26T12:23:31.67Z</time></trkpt><trkpt lat="42.3502518" lon="13.005774"><ele>674.0</ele><time>2026-04-26T12:23:32.67Z</time></trkpt><trkpt lat="42.3501396" lon="13.0057218"><ele>677.0</ele><time>2026-04-26T12:23:33.671Z</time></trkpt><trkpt lat="42.3500296" lon="13.0056513"><ele>677.0</ele><time>2026-04-26T12:23:34.671Z</time></trkpt><trkpt lat="42.3499312" lon="13.0055829"><ele>677.0</ele><time>2026-04-26T12:23:35.671Z</time></trkpt><trkpt lat="42.3498412" lon="13.0055359"><ele>677.0</ele><time>2026-04-26T12:23:36.671Z</time></trkpt><trkpt lat="42.3497501" lon="13.0055277"><ele>677.0</ele><time>2026-04-26T12:23:37.67Z</time></trkpt><trkpt lat="42.3496698" lon="13.0055664"><ele>677.0</ele><time>2026-04-26T12:23:38.671Z</time></trkpt><trkpt lat="42.349602" lon="13.0056574"><ele>678.0</ele><time>2026-04-26T12:23:39.67Z</time></trkpt><trkpt lat="42.3495647" lon="13.0057901"><ele>679.0</ele><time>2026-04-26T12:23:40.671Z</time></trkpt><trkpt lat="42.3495523" lon="13.0059398"><ele>680.0</ele><time>2026-04-26T12:23:41.669Z</time></trkpt><trkpt lat="42.3495288" lon="13.0060966"><ele>681.0</ele><time>2026-04-26T12:23:42.67Z</time></trkpt><trkpt lat="42.3494783" lon="13.0062645"><ele>681.5</ele><time>2026-04-26T12:23:43.671Z</time></trkpt><trkpt lat="42.3494042" lon="13.0064223"><ele>682.0</ele><time>2026-04-26T12:23:44.669Z</time></trkpt><trkpt lat="42.3493264" lon="13.0065778"><ele>682.5</ele><time>2026-04-26T12:23:45.67Z</time></trkpt><trkpt lat="42.349264" lon="13.0067289"><ele>683.0</ele><time>2026-04-26T12:23:46.671Z</time></trkpt><trkpt lat="42.3492198" lon="13.006868"><ele>683.2</ele><time>2026-04-26T12:23:47.669Z</time></trkpt><trkpt lat="42.3492087" lon="13.0070036"><ele>683.4</ele><time>2026-04-26T12:23:48.671Z</time></trkpt><trkpt lat="42.3492335" lon="13.0071342"><ele>683.6</ele><time>2026-04-26T12:23:49.669Z</time></trkpt><trkpt lat="42.3492952" lon="13.0072503"><ele>683.8000000000001</ele><time>2026-04-26T12:23:50.67Z</time></trkpt><trkpt lat="42.3493702" lon="13.0073646"><ele>684.0</ele><time>2026-04-26T12:23:51.671Z</time></trkpt><trkpt lat="42.3494161" lon="13.0074845"><ele>684.25</ele><time>2026-04-26T12:23:52.67Z</time></trkpt><trkpt lat="42.3494392" lon="13.007612"><ele>684.5</ele><time>2026-04-26T12:23:53.67Z</time></trkpt><trkpt lat="42.3494277" lon="13.0077575"><ele>684.75</ele><time>2026-04-26T12:23:54.67Z</time></trkpt><trkpt lat="42.3493925" lon="13.007919"><ele>685.0</ele><time>2026-04-26T12:23:55.67Z</time></trkpt><trkpt lat="42.3493381" lon="13.0080893"><ele>685.0</ele><time>2026-04-26T12:23:56.671Z</time></trkpt><trkpt lat="42.349268" lon="13.0082614"><ele>685.0</ele><time>2026-04-26T12:23:57.67Z</time></trkpt><trkpt lat="42.349183" lon="13.0084378"><ele>685.0</ele><time>2026-04-26T12:23:58.67Z</time></trkpt><trkpt lat="42.3490975" lon="13.0086174"><ele>685.0</ele><time>2026-04-26T12:23:59.669Z</time></trkpt><trkpt lat="42.3490181" lon="13.0087899"><ele>685.0</ele><time>2026-04-26T12:24:00.669Z</time></trkpt><trkpt lat="42.3489477" lon="13.0089707"><ele>685.0</ele><time>2026-04-26T12:24:01.671Z</time></trkpt><trkpt lat="42.348897" lon="13.0091616"><ele>689.0</ele><time>2026-04-26T12:24:02.669Z</time></trkpt><trkpt lat="42.3488718" lon="13.009365"><ele>693.0</ele><time>2026-04-26T12:24:03.67Z</time></trkpt><trkpt lat="42.3488592" lon="13.0095811"><ele>697.0</ele><time>2026-04-26T12:24:04.67Z</time></trkpt><trkpt lat="42.3488495" lon="13.0098006"><ele>694.0</ele><time>2026-04-26T12:24:05.671Z</time></trkpt><trkpt lat="42.3488456" lon="13.0100157"><ele>691.0</ele><time>2026-04-26T12:24:06.671Z</time></trkpt><trkpt lat="42.3488528" lon="13.0102185"><ele>688.0</ele><time>2026-04-26T12:24:07.671Z</time></trkpt><trkpt lat="42.3488686" lon="13.0104138"><ele>686.25</ele><time>2026-04-26T12:24:08.67Z</time></trkpt><trkpt lat="42.3488826" lon="13.0105974"><ele>684.5</ele><time>2026-04-26T12:24:09.669Z</time></trkpt><trkpt lat="42.3488973" lon="13.0107683"><ele>682.75</ele><time>2026-04-26T12:24:10.67Z</time></trkpt><trkpt lat="42.3489114" lon="13.0109296"><ele>681.0</ele><time>2026-04-26T12:24:11.669Z</time></trkpt><trkpt lat="42.3489122" lon="13.0110712"><ele>681.0</ele><time>2026-04-26T12:24:12.669Z</time></trkpt><trkpt lat="42.3488974" lon="13.0111963"><ele>681.0</ele><time>2026-04-26T12:24:13.671Z</time></trkpt><trkpt lat="42.3488633" lon="13.0113096"><ele>681.0</ele><time>2026-04-26T12:24:14.671Z</time></trkpt><trkpt lat="42.3488083" lon="13.011422"><ele>681.0</ele><time>2026-04-26T12:24:15.671Z</time></trkpt><trkpt lat="42.3487294" lon="13.0115272"><ele>681.0</ele><time>2026-04-26T12:24:16.67Z</time></trkpt><trkpt lat="42.3486365" lon="13.0116146"><ele>682.75</ele><time>2026-04-26T12:24:17.67Z</time></trkpt><trkpt lat="42.3485284" lon="13.0116834"><ele>684.5</ele><time>2026-04-26T12:24:18.671Z</time></trkpt><trkpt lat="42.3484134" lon="13.0117241"><ele>686.25</ele><time>2026-04-26T12:24:19.669Z</time></trkpt><trkpt lat="42.348287" lon="13.0117214"><ele>688.0</ele><time>2026-04-26T12:24:20.671Z</time></trkpt><trkpt lat="42.3481542" lon="13.0116751"><ele>686.5</ele><time>2026-04-26T12:24:21.67Z</time></trkpt><trkpt lat="42.3480183" lon="13.0116018"><ele>685.0</ele><time>2026-04-26T12:24:22.671Z</time></trkpt><trkpt lat="42.3478795" lon="13.0115343"><ele>683.5</ele><time>2026-04-26T12:24:23.67Z</time></trkpt><trkpt lat="42.3477281" lon="13.0114967"><ele>682.0</ele><time>2026-04-26T12:24:24.669Z</time></trkpt><trkpt lat="42.3475746" lon="13.0114891"><ele>682.0</ele><time>2026-04-26T12:24:25.67Z</time></trkpt><trkpt lat="42.3474352" lon="13.0114979"><ele>682.0</ele><time>2026-04-26T12:24:26.669Z</time></trkpt><trkpt lat="42.3473104" lon="13.0115173"><ele>682.0</ele><time>2026-04-26T12:24:27.669Z</time></trkpt><trkpt lat="42.3472084" lon="13.0115505"><ele>682.0</ele><time>2026-04-26T12:24:28.669Z</time></trkpt><trkpt lat="42.3471317" lon="13.011621"><ele>681.0</ele><time>2026-04-26T12:24:29.669Z</time></trkpt><trkpt lat="42.3470931" lon="13.0117291"><ele>680.0</ele><time>2026-04-26T12:24:30.669Z</time></trkpt><trkpt lat="42.3471079" lon="13.0118575"><ele>679.0</ele><time>2026-04-26T12:24:31.669Z</time></trkpt><trkpt lat="42.3471696" lon="13.0119802"><ele>678.0</ele><time>2026-04-26T12:24:32.669Z</time></trkpt><trkpt lat="42.3472614" lon="13.0120956"><ele>677.0</ele><time>2026-04-26T12:24:33.669Z</time></trkpt><trkpt lat="42.3473615" lon="13.0122157"><ele>680.25</ele><time>2026-04-26T12:24:34.669Z</time></trkpt><trkpt lat="42.3474629" lon="13.0123491"><ele>683.5</ele><time>2026-04-26T12:24:35.668Z</time></trkpt><trkpt lat="42.3475468" lon="13.0124944"><ele>686.75</ele><time>2026-04-26T12:24:36.668Z</time></trkpt><trkpt lat="42.3476081" lon="13.0126372"><ele>690.0</ele><time>2026-04-26T12:24:37.669Z</time></trkpt><trkpt lat="42.3476481" lon="13.0127711"><ele>691.0</ele><time>2026-04-26T12:24:38.669Z</time></trkpt><trkpt lat="42.34766" lon="13.012897"><ele>692.0</ele><time>2026-04-26T12:24:39.669Z</time></trkpt><trkpt lat="42.347631" lon="13.01302"><ele>693.0</ele><time>2026-04-26T12:24:40.669Z</time></trkpt><trkpt lat="42.3475634" lon="13.0131298"><ele>694.0</ele><time>2026-04-26T12:24:41.668Z</time></trkpt><trkpt lat="42.3474764" lon="13.0132271"><ele>695.0</ele><time>2026-04-26T12:24:42.669Z</time></trkpt><trkpt lat="42.3473966" lon="13.0133395"><ele>696.5</ele><time>2026-04-26T12:24:43.669Z</time></trkpt><trkpt lat="42.3473443" lon="13.0134813"><ele>698.0</ele><time>2026-04-26T12:24:44.67Z</time></trkpt><trkpt lat="42.3473129" lon="13.0136477"><ele>699.5</ele><time>2026-04-26T12:24:45.67Z</time></trkpt><trkpt lat="42.3472507" lon="13.0138176"><ele>701.0</ele><time>2026-04-26T12:24:46.669Z</time></trkpt><trkpt lat="42.347158" lon="13.0139716"><ele>700.0</ele><time>2026-04-26T12:24:47.669Z</time></trkpt><trkpt lat="42.3470647" lon="13.0141009"><ele>699.0</ele><time>2026-04-26T12:24:48.669Z</time></trkpt><trkpt lat="42.3469895" lon="13.0142326"><ele>698.0</ele><time>2026-04-26T12:24:49.669Z</time></trkpt><trkpt lat="42.346953" lon="13.0143866"><ele>697.0</ele><time>2026-04-26T12:24:50.669Z</time></trkpt><trkpt lat="42.3469501" lon="13.0145722"><ele>697.0</ele><time>2026-04-26T12:24:51.669Z</time></trkpt><trkpt lat="42.3469803" lon="13.0147672"><ele>697.0</ele><time>2026-04-26T12:24:52.669Z</time></trkpt><trkpt lat="42.3470398" lon="13.014945"><ele>697.0</ele><time>2026-04-26T12:24:53.67Z</time></trkpt><trkpt lat="42.3471207" lon="13.015096"><ele>697.0</ele><time>2026-04-26T12:24:54.669Z</time></trkpt><trkpt lat="42.3472255" lon="13.015221"><ele>701.6666666666667</ele><time>2026-04-26T12:24:55.67Z</time></trkpt><trkpt lat="42.347349" lon="13.0153173"><ele>706.3333333333334</ele><time>2026-04-26T12:24:56.669Z</time></trkpt><trkpt lat="42.3474925" lon="13.0153767"><ele>711.0</ele><time>2026-04-26T12:24:57.669Z</time></trkpt><trkpt lat="42.3476455" lon="13.0154248"><ele>711.0</ele><time>2026-04-26T12:24:58.669Z</time></trkpt><trkpt lat="42.3478011" lon="13.0154667"><ele>711.0</ele><time>2026-04-26T12:24:59.669Z</time></trkpt><trkpt lat="42.34796" lon="13.0154734"><ele>711.0</ele><time>2026-04-26T12:25:00.67Z</time></trkpt><trkpt lat="42.3481064" lon="13.0154649"><ele>713.5</ele><time>2026-04-26T12:25:01.668Z</time></trkpt><trkpt lat="42.3482515" lon="13.01547"><ele>716.0</ele><time>2026-04-26T12:25:02.669Z</time></trkpt><trkpt lat="42.3483943" lon="13.0154727"><ele>718.5</ele><time>2026-04-26T12:25:03.668Z</time></trkpt><trkpt lat="42.3485326" lon="13.0154726"><ele>721.0</ele><time>2026-04-26T12:25:04.67Z</time></trkpt><trkpt lat="42.3486915" lon="13.0154627"><ele>721.0</ele><time>2026-04-26T12:25:05.67Z</time></trkpt><trkpt lat="42.3488021" lon="13.0153394"><ele>721.0</ele><time>2026-04-26T12:25:06.67Z</time></trkpt><trkpt lat="42.3489326" lon="13.015247"><ele>721.0</ele><time>2026-04-26T12:25:07.669Z</time></trkpt><trkpt lat="42.3490674" lon="13.0151614"><ele>721.0</ele><time>2026-04-26T12:25:08.669Z</time></trkpt><trkpt lat="42.3492036" lon="13.0151104"><ele>719.5</ele><time>2026-04-26T12:25:09.669Z</time></trkpt><trkpt lat="42.3493268" lon="13.0150837"><ele>718.0</ele><time>2026-04-26T12:25:10.669Z</time></trkpt><trkpt lat="42.3494423" lon="13.0150965"><ele>716.5</ele><time>2026-04-26T12:25:11.67Z</time></trkpt><trkpt lat="42.3495423" lon="13.0151391"><ele>715.0</ele><time>2026-04-26T12:25:12.669Z</time></trkpt><trkpt lat="42.349634" lon="13.01523"><ele>717.25</ele><time>2026-04-26T12:25:13.668Z</time></trkpt><trkpt lat="42.3497311" lon="13.015355"><ele>719.5</ele><time>2026-04-26T12:25:14.67Z</time></trkpt><trkpt lat="42.3498399" lon="13.0154746"><ele>721.75</ele><time>2026-04-26T12:25:15.668Z</time></trkpt><trkpt lat="42.349963" lon="13.0155927"><ele>724.0</ele><time>2026-04-26T12:25:16.67Z</time></trkpt><trkpt lat="42.3500774" lon="13.0157143"><ele>721.25</ele><time>2026-04-26T12:25:17.669Z</time></trkpt><trkpt lat="42.3501815" lon="13.0158329"><ele>718.5</ele><time>2026-04-26T12:25:18.669Z</time></trkpt><trkpt lat="42.3502742" lon="13.0159562"><ele>715.75</ele><time>2026-04-26T12:25:19.669Z</time></trkpt><trkpt lat="42.3503528" lon="13.0160812"><ele>713.0</ele><time>2026-04-26T12:25:20.669Z</time></trkpt><trkpt lat="42.3504011" lon="13.016222"><ele>713.0</ele><time>2026-04-26T12:25:21.668Z</time></trkpt><trkpt lat="42.3504137" lon="13.0163764"><ele>713.0</ele><time>2026-04-26T12:25:22.668Z</time></trkpt><trkpt lat="42.3503985" lon="13.0165401"><ele>713.0</ele><time>2026-04-26T12:25:23.668Z</time></trkpt><trkpt lat="42.3503601" lon="13.0167214"><ele>713.0</ele><time>2026-04-26T12:25:24.67Z</time></trkpt><trkpt lat="42.3503075" lon="13.0169117"><ele>711.5</ele><time>2026-04-26T12:25:25.668Z</time></trkpt><trkpt lat="42.3502636" lon="13.0170973"><ele>710.0</ele><time>2026-04-26T12:25:26.669Z</time></trkpt><trkpt lat="42.3502294" lon="13.0172846"><ele>708.5</ele><time>2026-04-26T12:25:27.67Z</time></trkpt><trkpt lat="42.3501863" lon="13.017456"><ele>707.0</ele><time>2026-04-26T12:25:28.669Z</time></trkpt><trkpt lat="42.3501253" lon="13.0176061"><ele>710.25</ele><time>2026-04-26T12:25:29.67Z</time></trkpt><trkpt lat="42.350048" lon="13.0177235"><ele>713.5</ele><time>2026-04-26T12:25:30.67Z</time></trkpt><trkpt lat="42.3499593" lon="13.0178024"><ele>716.75</ele><time>2026-04-26T12:25:31.669Z</time></trkpt><trkpt lat="42.3498643" lon="13.0178749"><ele>720.0</ele><time>2026-04-26T12:25:32.669Z</time></trkpt><trkpt lat="42.3497216" lon="13.017851"><ele>713.3333333333334</ele><time>2026-04-26T12:25:33.669Z</time></trkpt><trkpt lat="42.3495847" lon="13.0178563"><ele>706.6666666666667</ele><time>2026-04-26T12:25:34.669Z</time></trkpt><trkpt lat="42.349427" lon="13.0178915"><ele>700.0</ele><time>2026-04-26T12:25:35.67Z</time></trkpt><trkpt lat="42.3492761" lon="13.0179543"><ele>700.0</ele><time>2026-04-26T12:25:36.67Z</time></trkpt><trkpt lat="42.3491333" lon="13.0180446"><ele>700.0</ele><time>2026-04-26T12:25:37.67Z</time></trkpt><trkpt lat="42.3490029" lon="13.0181659"><ele>700.0</ele><time>2026-04-26T12:25:38.67Z</time></trkpt><trkpt lat="42.3488998" lon="13.0183096"><ele>701.75</ele><time>2026-04-26T12:25:39.669Z</time></trkpt><trkpt lat="42.3488239" lon="13.0184654"><ele>703.5</ele><time>2026-04-26T12:25:40.669Z</time></trkpt><trkpt lat="42.3487572" lon="13.0186165"><ele>705.25</ele><time>2026-04-26T12:25:41.669Z</time></trkpt><trkpt lat="42.3486758" lon="13.0187428"><ele>707.0</ele><time>2026-04-26T12:25:42.67Z</time></trkpt><trkpt lat="42.3485847" lon="13.018824"><ele>707.0</ele><time>2026-04-26T12:25:43.67Z</time></trkpt><trkpt lat="42.3484894" lon="13.018869"><ele>707.0</ele><time>2026-04-26T12:25:44.668Z</time></trkpt><trkpt lat="42.348392" lon="13.0189185"><ele>707.0</ele><time>2026-04-26T12:25:45.67Z</time></trkpt><trkpt lat="42.3483098" lon="13.0189931"><ele>707.0</ele><time>2026-04-26T12:25:46.668Z</time></trkpt><trkpt lat="42.3482389" lon="13.0191154"><ele>707.0</ele><time>2026-04-26T12:25:47.669Z</time></trkpt><trkpt lat="42.3481845" lon="13.0192778"><ele>707.3333333333333</ele><time>2026-04-26T12:25:48.669Z</time></trkpt><trkpt lat="42.3481403" lon="13.0194617"><ele>707.6666666666666</ele><time>2026-04-26T12:25:49.668Z</time></trkpt><trkpt lat="42.3480915" lon="13.0196587"><ele>708.0</ele><time>2026-04-26T12:25:50.669Z</time></trkpt><trkpt lat="42.3480407" lon="13.0198666"><ele>708.6666666666666</ele><time>2026-04-26T12:25:51.668Z</time></trkpt><trkpt lat="42.3479958" lon="13.0200834"><ele>709.3333333333333</ele><time>2026-04-26T12:25:52.67Z</time></trkpt><trkpt lat="42.3479544" lon="13.0203016"><ele>710.0</ele><time>2026-04-26T12:25:53.669Z</time></trkpt><trkpt lat="42.3479154" lon="13.0205261"><ele>710.0</ele><time>2026-04-26T12:25:54.67Z</time></trkpt><trkpt lat="42.3478789" lon="13.0207481"><ele>710.0</ele><time>2026-04-26T12:25:55.669Z</time></trkpt><trkpt lat="42.3478301" lon="13.0209682"><ele>710.0</ele><time>2026-04-26T12:25:56.668Z</time></trkpt><trkpt lat="42.3477635" lon="13.0211844"><ele>712.6666666666666</ele><time>2026-04-26T12:25:57.669Z</time></trkpt><trkpt lat="42.3476867" lon="13.0213979"><ele>715.3333333333334</ele><time>2026-04-26T12:25:58.67Z</time></trkpt><trkpt lat="42.3476089" lon="13.0216171"><ele>718.0</ele><time>2026-04-26T12:25:59.669Z</time></trkpt><trkpt lat="42.3475273" lon="13.021844"><ele>721.6666666666667</ele><time>2026-04-26T12:26:00.668Z</time></trkpt><trkpt lat="42.3474472" lon="13.0220726"><ele>725.3333333333334</ele><time>2026-04-26T12:26:01.668Z</time></trkpt><trkpt lat="42.3473659" lon="13.0222962"><ele>729.0</ele><time>2026-04-26T12:26:02.669Z</time></trkpt><trkpt lat="42.3472859" lon="13.0225119"><ele>721.6666666666666</ele><time>2026-04-26T12:26:03.67Z</time></trkpt><trkpt lat="42.3472106" lon="13.0227131"><ele>714.3333333333333</ele><time>2026-04-26T12:26:04.668Z</time></trkpt><trkpt lat="42.3471392" lon="13.0229075"><ele>707.0</ele><time>2026-04-26T12:26:05.67Z</time></trkpt><trkpt lat="42.3470801" lon="13.0230914"><ele>707.0</ele><time>2026-04-26T12:26:06.669Z</time></trkpt><trkpt lat="42.3470272" lon="13.0232789"><ele>707.0</ele><time>2026-04-26T12:26:07.669Z</time></trkpt><trkpt lat="42.3469852" lon="13.0234616"><ele>707.0</ele><time>2026-04-26T12:26:08.669Z</time></trkpt><trkpt lat="42.3469535" lon="13.0236418"><ele>707.0</ele><time>2026-04-26T12:26:09.67Z</time></trkpt><trkpt lat="42.3469195" lon="13.0238179"><ele>710.0</ele><time>2026-04-26T12:26:10.669Z</time></trkpt><trkpt lat="42.3468855" lon="13.0239795"><ele>713.0</ele><time>2026-04-26T12:26:11.67Z</time></trkpt><trkpt lat="42.3468536" lon="13.0241302"><ele>716.0</ele><time>2026-04-26T12:26:12.669Z</time></trkpt><trkpt lat="42.3468247" lon="13.0242762"><ele>719.0</ele><time>2026-04-26T12:26:13.668Z</time></trkpt><trkpt lat="42.3467978" lon="13.0244201"><ele>721.25</ele><time>2026-04-26T12:26:14.669Z</time></trkpt><trkpt lat="42.3467726" lon="13.0245614"><ele>723.5</ele><time>2026-04-26T12:26:15.67Z</time></trkpt><trkpt lat="42.3467279" lon="13.0247139"><ele>725.75</ele><time>2026-04-26T12:26:16.67Z</time></trkpt><trkpt lat="42.3466626" lon="13.0248798"><ele>728.0</ele><time>2026-04-26T12:26:17.669Z</time></trkpt><trkpt lat="42.3465827" lon="13.0250456"><ele>725.0</ele><time>2026-04-26T12:26:18.669Z</time></trkpt><trkpt lat="42.3464982" lon="13.025197"><ele>722.0</ele><time>2026-04-26T12:26:19.668Z</time></trkpt><trkpt lat="42.3464234" lon="13.0253445"><ele>719.0</ele><time>2026-04-26T12:26:20.67Z</time></trkpt><trkpt lat="42.3463693" lon="13.0255202"><ele>716.0</ele><time>2026-04-26T12:26:21.669Z</time></trkpt><trkpt lat="42.3463431" lon="13.0257174"><ele>718.25</ele><time>2026-04-26T12:26:22.669Z</time></trkpt><trkpt lat="42.3463306" lon="13.0259216"><ele>720.5</ele><time>2026-04-26T12:26:23.67Z</time></trkpt><trkpt lat="42.3463233" lon="13.0261211"><ele>722.75</ele><time>2026-04-26T12:26:24.67Z</time></trkpt><trkpt lat="42.3463057" lon="13.0263115"><ele>725.0</ele><time>2026-04-26T12:26:25.669Z</time></trkpt><trkpt lat="42.3462778" lon="13.0264851"><ele>728.5</ele><time>2026-04-26T12:26:26.669Z</time></trkpt><trkpt lat="42.3462318" lon="13.0266574"><ele>732.0</ele><time>2026-04-26T12:26:27.67Z</time></trkpt><trkpt lat="42.3461681" lon="13.0268196"><ele>735.5</ele><time>2026-04-26T12:26:28.67Z</time></trkpt><trkpt lat="42.3460889" lon="13.0269599"><ele>739.0</ele><time>2026-04-26T12:26:29.669Z</time></trkpt><trkpt lat="42.3459857" lon="13.0270672"><ele>739.0</ele><time>2026-04-26T12:26:30.67Z</time></trkpt><trkpt lat="42.3458641" lon="13.0271457"><ele>739.0</ele><time>2026-04-26T12:26:31.67Z</time></trkpt><trkpt lat="42.3457396" lon="13.0271916"><ele>739.0</ele><time>2026-04-26T12:26:32.67Z</time></trkpt><trkpt lat="42.3456118" lon="13.0271889"><ele>739.0</ele><time>2026-04-26T12:26:33.67Z</time></trkpt><trkpt lat="42.345486" lon="13.0271553"><ele>737.0</ele><time>2026-04-26T12:26:34.668Z</time></trkpt><trkpt lat="42.3453711" lon="13.0271238"><ele>735.0</ele><time>2026-04-26T12:26:35.669Z</time></trkpt><trkpt lat="42.3452727" lon="13.0271384"><ele>733.0</ele><time>2026-04-26T12:26:36.669Z</time></trkpt><trkpt lat="42.3451843" lon="13.0272008"><ele>731.0</ele><time>2026-04-26T12:26:37.67Z</time></trkpt><trkpt lat="42.3451241" lon="13.0273171"><ele>729.0</ele><time>2026-04-26T12:26:38.669Z</time></trkpt><trkpt lat="42.3450899" lon="13.0274629"><ele>732.0</ele><time>2026-04-26T12:26:39.669Z</time></trkpt><trkpt lat="42.3450699" lon="13.0276157"><ele>735.0</ele><time>2026-04-26T12:26:40.668Z</time></trkpt><trkpt lat="42.3450475" lon="13.0277573"><ele>738.0</ele><time>2026-04-26T12:26:41.668Z</time></trkpt><trkpt lat="42.3450293" lon="13.0278898"><ele>741.0</ele><time>2026-04-26T12:26:42.668Z</time></trkpt><trkpt lat="42.3450085" lon="13.0280149"><ele>744.0</ele><time>2026-04-26T12:26:43.668Z</time></trkpt><trkpt lat="42.3449877" lon="13.0281336"><ele>744.0</ele><time>2026-04-26T12:26:44.669Z</time></trkpt><trkpt lat="42.3449665" lon="13.0282538"><ele>744.0</ele><time>2026-04-26T12:26:45.669Z</time></trkpt><trkpt lat="42.3449425" lon="13.0283745"><ele>744.0</ele><time>2026-04-26T12:26:46.669Z</time></trkpt><trkpt lat="42.3449164" lon="13.0285003"><ele>744.0</ele><time>2026-04-26T12:26:47.668Z</time></trkpt><trkpt lat="42.3448856" lon="13.0286287"><ele>744.0</ele><time>2026-04-26T12:26:48.667Z</time></trkpt><trkpt lat="42.3448486" lon="13.0287634"><ele>744.25</ele><time>2026-04-26T12:26:49.669Z</time></trkpt><trkpt lat="42.3448087" lon="13.0289111"><ele>744.5</ele><time>2026-04-26T12:26:50.667Z</time></trkpt><trkpt lat="42.3447597" lon="13.0290567"><ele>744.75</ele><time>2026-04-26T12:26:51.667Z</time></trkpt><trkpt lat="42.3446973" lon="13.0291995"><ele>745.0</ele><time>2026-04-26T12:26:52.667Z</time></trkpt><trkpt lat="42.3446306" lon="13.0293393"><ele>745.0</ele><time>2026-04-26T12:26:53.668Z</time></trkpt><trkpt lat="42.3445675" lon="13.0294787"><ele>745.0</ele><time>2026-04-26T12:26:54.668Z</time></trkpt><trkpt lat="42.3445075" lon="13.0296199"><ele>745.0</ele><time>2026-04-26T12:26:55.668Z</time></trkpt><trkpt lat="42.3444485" lon="13.02976"><ele>745.0</ele><time>2026-04-26T12:26:56.668Z</time></trkpt><trkpt lat="42.3443914" lon="13.0298887"><ele>746.8</ele><time>2026-04-26T12:26:57.669Z</time></trkpt><trkpt lat="42.3443258" lon="13.0299997"><ele>748.6</ele><time>2026-04-26T12:26:58.668Z</time></trkpt><trkpt lat="42.3442483" lon="13.0300837"><ele>750.4000000000001</ele><time>2026-04-26T12:26:59.669Z</time></trkpt><trkpt lat="42.3441662" lon="13.0301331"><ele>752.2</ele><time>2026-04-26T12:27:00.669Z</time></trkpt><trkpt lat="42.3440719" lon="13.0301384"><ele>754.0</ele><time>2026-04-26T12:27:01.668Z</time></trkpt><trkpt lat="42.3439628" lon="13.0301167"><ele>752.6</ele><time>2026-04-26T12:27:02.669Z</time></trkpt><trkpt lat="42.3438479" lon="13.0300866"><ele>751.2</ele><time>2026-04-26T12:27:03.667Z</time></trkpt><trkpt lat="42.3437451" lon="13.0300778"><ele>749.8000000000001</ele><time>2026-04-26T12:27:04.667Z</time></trkpt><trkpt lat="42.343649" lon="13.0300962"><ele>748.4000000000001</ele><time>2026-04-26T12:27:05.668Z</time></trkpt><trkpt lat="42.3435641" lon="13.0301639"><ele>747.0</ele><time>2026-04-26T12:27:06.669Z</time></trkpt><trkpt lat="42.3434977" lon="13.0302815"><ele>747.0</ele><time>2026-04-26T12:27:07.668Z</time></trkpt><trkpt lat="42.3434448" lon="13.0304317"><ele>747.0</ele><time>2026-04-26T12:27:08.668Z</time></trkpt><trkpt lat="42.343385" lon="13.030597"><ele>747.0</ele><time>2026-04-26T12:27:09.669Z</time></trkpt><trkpt lat="42.3433134" lon="13.0307632"><ele>747.0</ele><time>2026-04-26T12:27:10.668Z</time></trkpt><trkpt lat="42.3432372" lon="13.030932"><ele>749.25</ele><time>2026-04-26T12:27:11.669Z</time></trkpt><trkpt lat="42.3431595" lon="13.0310916"><ele>751.5</ele><time>2026-04-26T12:27:12.668Z</time></trkpt><trkpt lat="42.3430726" lon="13.0312278"><ele>753.75</ele><time>2026-04-26T12:27:13.668Z</time></trkpt><trkpt lat="42.3429752" lon="13.0313327"><ele>756.0</ele><time>2026-04-26T12:27:14.667Z</time></trkpt><trkpt lat="42.3428603" lon="13.0314012"><ele>750.75</ele><time>2026-04-26T12:27:15.668Z</time></trkpt><trkpt lat="42.3427299" lon="13.0314348"><ele>745.5</ele><time>2026-04-26T12:27:16.668Z</time></trkpt><trkpt lat="42.3425814" lon="13.0314567"><ele>740.25</ele><time>2026-04-26T12:27:17.668Z</time></trkpt><trkpt lat="42.3424249" lon="13.0314764"><ele>735.0</ele><time>2026-04-26T12:27:18.668Z</time></trkpt><trkpt lat="42.3422626" lon="13.0314995"><ele>732.0</ele><time>2026-04-26T12:27:19.668Z</time></trkpt><trkpt lat="42.3421066" lon="13.031512"><ele>729.0</ele><time>2026-04-26T12:27:20.668Z</time></trkpt><trkpt lat="42.3419536" lon="13.0315263"><ele>726.0</ele><time>2026-04-26T12:27:21.669Z</time></trkpt><trkpt lat="42.3417988" lon="13.0315508"><ele>726.0</ele><time>2026-04-26T12:27:22.668Z</time></trkpt><trkpt lat="42.3416359" lon="13.0315656"><ele>726.0</ele><time>2026-04-26T12:27:23.668Z</time></trkpt><trkpt lat="42.3414695" lon="13.0315366"><ele>726.0</ele><time>2026-04-26T12:27:24.668Z</time></trkpt><trkpt lat="42.3413173" lon="13.0315019"><ele>726.25</ele><time>2026-04-26T12:27:25.667Z</time></trkpt><trkpt lat="42.3411665" lon="13.0314647"><ele>726.5</ele><time>2026-04-26T12:27:26.668Z</time></trkpt><trkpt lat="42.341025" lon="13.0314325"><ele>726.75</ele><time>2026-04-26T12:27:27.668Z</time></trkpt><trkpt lat="42.3408821" lon="13.0314141"><ele>727.0</ele><time>2026-04-26T12:27:28.669Z</time></trkpt><trkpt lat="42.340741" lon="13.0314242"><ele>727.0</ele><time>2026-04-26T12:27:29.669Z</time></trkpt><trkpt lat="42.3405953" lon="13.0314631"><ele>727.0</ele><time>2026-04-26T12:27:30.669Z</time></trkpt><trkpt lat="42.3404535" lon="13.0315207"><ele>727.0</ele><time>2026-04-26T12:27:31.668Z</time></trkpt><trkpt lat="42.3403175" lon="13.0315705"><ele>727.0</ele><time>2026-04-26T12:27:32.668Z</time></trkpt><trkpt lat="42.340184" lon="13.0316148"><ele>727.0</ele><time>2026-04-26T12:27:33.668Z</time></trkpt><trkpt lat="42.3400643" lon="13.0316493"><ele>727.0</ele><time>2026-04-26T12:27:34.668Z</time></trkpt><trkpt lat="42.3399564" lon="13.0316559"><ele>727.0</ele><time>2026-04-26T12:27:35.668Z</time></trkpt><trkpt lat="42.3398609" lon="13.0316261"><ele>727.0</ele><time>2026-04-26T12:27:36.667Z</time></trkpt><trkpt lat="42.3397725" lon="13.0315603"><ele>727.0</ele><time>2026-04-26T12:27:37.667Z</time></trkpt><trkpt lat="42.3396945" lon="13.0314642"><ele>734.0</ele><time>2026-04-26T12:27:38.669Z</time></trkpt><trkpt lat="42.3396248" lon="13.0313394"><ele>741.0</ele><time>2026-04-26T12:27:39.668Z</time></trkpt><trkpt lat="42.3395628" lon="13.0311936"><ele>748.0</ele><time>2026-04-26T12:27:40.668Z</time></trkpt><trkpt lat="42.3394973" lon="13.0310279"><ele>755.0</ele><time>2026-04-26T12:27:41.668Z</time></trkpt><trkpt lat="42.3394271" lon="13.0308472"><ele>749.6666666666666</ele><time>2026-04-26T12:27:42.669Z</time></trkpt><trkpt lat="42.3393496" lon="13.0306615"><ele>744.3333333333334</ele><time>2026-04-26T12:27:43.669Z</time></trkpt><trkpt lat="42.3392784" lon="13.0304712"><ele>739.0</ele><time>2026-04-26T12:27:44.668Z</time></trkpt><trkpt lat="42.3391968" lon="13.0302826"><ele>739.0</ele><time>2026-04-26T12:27:45.668Z</time></trkpt><trkpt lat="42.3390881" lon="13.0301144"><ele>739.0</ele><time>2026-04-26T12:27:46.669Z</time></trkpt><trkpt lat="42.3389619" lon="13.0299588"><ele>739.0</ele><time>2026-04-26T12:27:47.668Z</time></trkpt><trkpt lat="42.338826" lon="13.0298086"><ele>736.3333333333334</ele><time>2026-04-26T12:27:48.668Z</time></trkpt><trkpt lat="42.3386957" lon="13.0296675"><ele>733.6666666666666</ele><time>2026-04-26T12:27:49.668Z</time></trkpt><trkpt lat="42.338568" lon="13.0295378"><ele>731.0</ele><time>2026-04-26T12:27:50.668Z</time></trkpt><trkpt lat="42.3384381" lon="13.0294259"><ele>731.0</ele><time>2026-04-26T12:27:51.667Z</time></trkpt><trkpt lat="42.3382939" lon="13.0293468"><ele>731.0</ele><time>2026-04-26T12:27:52.669Z</time></trkpt><trkpt lat="42.3381394" lon="13.0293054"><ele>731.0</ele><time>2026-04-26T12:27:53.667Z</time></trkpt><trkpt lat="42.337979" lon="13.0292614"><ele>733.3333333333333</ele><time>2026-04-26T12:27:54.668Z</time></trkpt><trkpt lat="42.3378243" lon="13.0292191"><ele>735.6666666666666</ele><time>2026-04-26T12:27:55.668Z</time></trkpt><trkpt lat="42.3376661" lon="13.0291615"><ele>738.0</ele><time>2026-04-26T12:27:56.667Z</time></trkpt><trkpt lat="42.3375189" lon="13.0290775"><ele>731.6666666666666</ele><time>2026-04-26T12:27:57.668Z</time></trkpt><trkpt lat="42.3373805" lon="13.0289775"><ele>725.3333333333333</ele><time>2026-04-26T12:27:58.668Z</time></trkpt><trkpt lat="42.3372438" lon="13.028882"><ele>719.0</ele><time>2026-04-26T12:27:59.668Z</time></trkpt><trkpt lat="42.3370996" lon="13.0288074"><ele>719.0</ele><time>2026-04-26T12:28:00.668Z</time></trkpt><trkpt lat="42.3369434" lon="13.0287475"><ele>719.0</ele><time>2026-04-26T12:28:01.669Z</time></trkpt><trkpt lat="42.3367824" lon="13.0287013"><ele>719.0</ele><time>2026-04-26T12:28:02.668Z</time></trkpt><trkpt lat="42.3366242" lon="13.0286757"><ele>719.0</ele><time>2026-04-26T12:28:03.668Z</time></trkpt><trkpt lat="42.3364605" lon="13.0286572"><ele>719.0</ele><time>2026-04-26T12:28:04.669Z</time></trkpt><trkpt lat="42.3363009" lon="13.0286275"><ele>719.0</ele><time>2026-04-26T12:28:05.669Z</time></trkpt><trkpt lat="42.3361483" lon="13.0285713"><ele>720.0</ele><time>2026-04-26T12:28:06.669Z</time></trkpt><trkpt lat="42.336006" lon="13.0284922"><ele>721.0</ele><time>2026-04-26T12:28:07.669Z</time></trkpt><trkpt lat="42.335877" lon="13.0284122"><ele>722.0</ele><time>2026-04-26T12:28:08.668Z</time></trkpt><trkpt lat="42.3357517" lon="13.0283593"><ele>723.0</ele><time>2026-04-26T12:28:09.669Z</time></trkpt><trkpt lat="42.3356296" lon="13.0283368"><ele>720.0</ele><time>2026-04-26T12:28:10.669Z</time></trkpt><trkpt lat="42.3355054" lon="13.028357"><ele>717.0</ele><time>2026-04-26T12:28:11.669Z</time></trkpt><trkpt lat="42.335381" lon="13.0284372"><ele>714.0</ele><time>2026-04-26T12:28:12.668Z</time></trkpt><trkpt lat="42.3352627" lon="13.0285496"><ele>711.0</ele><time>2026-04-26T12:28:13.667Z</time></trkpt><trkpt lat="42.3351413" lon="13.0286714"><ele>711.0</ele><time>2026-04-26T12:28:14.668Z</time></trkpt><trkpt lat="42.3349982" lon="13.0287669"><ele>711.0</ele><time>2026-04-26T12:28:15.668Z</time></trkpt><trkpt lat="42.3348435" lon="13.0288338"><ele>711.0</ele><time>2026-04-26T12:28:16.668Z</time></trkpt><trkpt lat="42.3346879" lon="13.0288862"><ele>706.3333333333334</ele><time>2026-04-26T12:28:17.668Z</time></trkpt><trkpt lat="42.3345223" lon="13.0289085"><ele>701.6666666666667</ele><time>2026-04-26T12:28:18.669Z</time></trkpt><trkpt lat="42.3343428" lon="13.0289114"><ele>697.0</ele><time>2026-04-26T12:28:19.668Z</time></trkpt><trkpt lat="42.3341568" lon="13.0288915"><ele>697.0</ele><time>2026-04-26T12:28:20.668Z</time></trkpt><trkpt lat="42.3339685" lon="13.0288605"><ele>697.0</ele><time>2026-04-26T12:28:21.669Z</time></trkpt><trkpt lat="42.3337816" lon="13.028831"><ele>697.0</ele><time>2026-04-26T12:28:22.669Z</time></trkpt><trkpt lat="42.3335982" lon="13.0288087"><ele>695.6666666666667</ele><time>2026-04-26T12:28:23.669Z</time></trkpt><trkpt lat="42.333418" lon="13.0287874"><ele>694.3333333333334</ele><time>2026-04-26T12:28:24.669Z</time></trkpt><trkpt lat="42.3332484" lon="13.028776"><ele>693.0</ele><time>2026-04-26T12:28:25.669Z</time></trkpt><trkpt lat="42.3330792" lon="13.028783"><ele>689.0</ele><time>2026-04-26T12:28:26.669Z</time></trkpt><trkpt lat="42.3329185" lon="13.0288146"><ele>685.0</ele><time>2026-04-26T12:28:27.668Z</time></trkpt><trkpt lat="42.3327581" lon="13.02886"><ele>681.0</ele><time>2026-04-26T12:28:28.668Z</time></trkpt><trkpt lat="42.3326012" lon="13.0289104"><ele>681.0</ele><time>2026-04-26T12:28:29.667Z</time></trkpt><trkpt lat="42.3324506" lon="13.0289753"><ele>681.0</ele><time>2026-04-26T12:28:30.669Z</time></trkpt><trkpt lat="42.3323136" lon="13.0290669"><ele>681.0</ele><time>2026-04-26T12:28:31.669Z</time></trkpt><trkpt lat="42.332182" lon="13.0291689"><ele>685.0</ele><time>2026-04-26T12:28:32.668Z</time></trkpt><trkpt lat="42.3320586" lon="13.0292586"><ele>689.0</ele><time>2026-04-26T12:28:33.668Z</time></trkpt><trkpt lat="42.3319423" lon="13.0293186"><ele>693.0</ele><time>2026-04-26T12:28:34.668Z</time></trkpt><trkpt lat="42.3318375" lon="13.0293464"><ele>697.0</ele><time>2026-04-26T12:28:35.668Z</time></trkpt><trkpt lat="42.3317321" lon="13.0293353"><ele>697.0</ele><time>2026-04-26T12:28:36.669Z</time></trkpt><trkpt lat="42.331629" lon="13.0292819"><ele>697.0</ele><time>2026-04-26T12:28:37.669Z</time></trkpt><trkpt lat="42.3315295" lon="13.0291956"><ele>697.0</ele><time>2026-04-26T12:28:38.668Z</time></trkpt><trkpt lat="42.3314286" lon="13.0290758"><ele>697.0</ele><time>2026-04-26T12:28:39.667Z</time></trkpt><trkpt lat="42.3313233" lon="13.0289265"><ele>695.0</ele><time>2026-04-26T12:28:40.669Z</time></trkpt><trkpt lat="42.3312139" lon="13.028771"><ele>693.0</ele><time>2026-04-26T12:28:41.669Z</time></trkpt><trkpt lat="42.3311138" lon="13.0286079"><ele>691.0</ele><time>2026-04-26T12:28:42.669Z</time></trkpt><trkpt lat="42.3310171" lon="13.0284436"><ele>686.5</ele><time>2026-04-26T12:28:43.669Z</time></trkpt><trkpt lat="42.3309347" lon="13.0282746"><ele>682.0</ele><time>2026-04-26T12:28:44.667Z</time></trkpt><trkpt lat="42.3308545" lon="13.0281074"><ele>677.5</ele><time>2026-04-26T12:28:45.667Z</time></trkpt><trkpt lat="42.3307793" lon="13.0279361"><ele>673.0</ele><time>2026-04-26T12:28:46.668Z</time></trkpt><trkpt lat="42.330711" lon="13.0277737"><ele>673.5</ele><time>2026-04-26T12:28:47.667Z</time></trkpt><trkpt lat="42.3304644" lon="13.0274792"><ele>674.0</ele><time>2026-04-26T12:28:50.668Z</time></trkpt><trkpt lat="42.3303392" lon="13.0274736"><ele>674.0</ele><time>2026-04-26T12:28:51.669Z</time></trkpt><trkpt lat="42.3302065" lon="13.0275117"><ele>674.0</ele><time>2026-04-26T12:28:52.667Z</time></trkpt><trkpt lat="42.33007" lon="13.0275831"><ele>674.0</ele><time>2026-04-26T12:28:53.666Z</time></trkpt><trkpt lat="42.3299387" lon="13.0276739"><ele>674.0</ele><time>2026-04-26T12:28:54.667Z</time></trkpt><trkpt lat="42.3298143" lon="13.0277556"><ele>674.0</ele><time>2026-04-26T12:28:55.667Z</time></trkpt><trkpt lat="42.3297024" lon="13.02783"><ele>674.0</ele><time>2026-04-26T12:28:56.667Z</time></trkpt><trkpt lat="42.3296004" lon="13.0278923"><ele>674.0</ele><time>2026-04-26T12:28:57.668Z</time></trkpt><trkpt lat="42.3295049" lon="13.0279412"><ele>674.0</ele><time>2026-04-26T12:28:58.668Z</time></trkpt><trkpt lat="42.3294125" lon="13.0279229"><ele>674.0</ele><time>2026-04-26T12:28:59.668Z</time></trkpt><trkpt lat="42.3293396" lon="13.0278765"><ele>674.0</ele><time>2026-04-26T12:29:00.668Z</time></trkpt><trkpt lat="42.3292717" lon="13.0277869"><ele>674.0</ele><time>2026-04-26T12:29:01.668Z</time></trkpt><trkpt lat="42.329225" lon="13.0276499"><ele>674.0</ele><time>2026-04-26T12:29:02.667Z</time></trkpt><trkpt lat="42.3291776" lon="13.0275101"><ele>674.0</ele><time>2026-04-26T12:29:03.666Z</time></trkpt><trkpt lat="42.3291238" lon="13.0273813"><ele>674.0</ele><time>2026-04-26T12:29:04.667Z</time></trkpt><trkpt lat="42.3290595" lon="13.027267"><ele>671.8333333333333</ele><time>2026-04-26T12:29:05.667Z</time></trkpt><trkpt lat="42.3289988" lon="13.0271819"><ele>669.6666666666666</ele><time>2026-04-26T12:29:06.667Z</time></trkpt><trkpt lat="42.3289296" lon="13.0271353"><ele>667.5</ele><time>2026-04-26T12:29:07.668Z</time></trkpt><trkpt lat="42.3288632" lon="13.0271193"><ele>665.3333333333334</ele><time>2026-04-26T12:29:08.668Z</time></trkpt><trkpt lat="42.3287956" lon="13.0271335"><ele>663.1666666666667</ele><time>2026-04-26T12:29:09.667Z</time></trkpt><trkpt lat="42.3287347" lon="13.027184"><ele>661.0</ele><time>2026-04-26T12:29:10.666Z</time></trkpt><trkpt lat="42.3286775" lon="13.0272743"><ele>659.5</ele><time>2026-04-26T12:29:11.667Z</time></trkpt><trkpt lat="42.3286192" lon="13.0274017"><ele>658.0</ele><time>2026-04-26T12:29:12.667Z</time></trkpt><trkpt lat="42.3285494" lon="13.0275443"><ele>656.5</ele><time>2026-04-26T12:29:13.666Z</time></trkpt><trkpt lat="42.3284743" lon="13.0276857"><ele>655.0</ele><time>2026-04-26T12:29:14.667Z</time></trkpt><trkpt lat="42.3283936" lon="13.027828"><ele>655.5</ele><time>2026-04-26T12:29:15.666Z</time></trkpt><trkpt lat="42.3283148" lon="13.027961"><ele>656.0</ele><time>2026-04-26T12:29:16.667Z</time></trkpt><trkpt lat="42.3282301" lon="13.0280747"><ele>656.5</ele><time>2026-04-26T12:29:17.668Z</time></trkpt><trkpt lat="42.3281331" lon="13.0281721"><ele>657.0</ele><time>2026-04-26T12:29:18.668Z</time></trkpt><trkpt lat="42.3280231" lon="13.0282546"><ele>662.5</ele><time>2026-04-26T12:29:19.667Z</time></trkpt><trkpt lat="42.3279031" lon="13.0283243"><ele>668.0</ele><time>2026-04-26T12:29:20.666Z</time></trkpt><trkpt lat="42.3277766" lon="13.0283704"><ele>673.5</ele><time>2026-04-26T12:29:21.666Z</time></trkpt><trkpt lat="42.327646" lon="13.0283978"><ele>679.0</ele><time>2026-04-26T12:29:22.666Z</time></trkpt><trkpt lat="42.3275223" lon="13.0284004"><ele>679.0</ele><time>2026-04-26T12:29:23.667Z</time></trkpt><trkpt lat="42.3274034" lon="13.0283695"><ele>679.0</ele><time>2026-04-26T12:29:24.667Z</time></trkpt><trkpt lat="42.3272851" lon="13.0283145"><ele>679.0</ele><time>2026-04-26T12:29:25.668Z</time></trkpt><trkpt lat="42.3271985" lon="13.0282202"><ele>679.0</ele><time>2026-04-26T12:29:26.668Z</time></trkpt><trkpt lat="42.3271049" lon="13.0281531"><ele>675.25</ele><time>2026-04-26T12:29:27.668Z</time></trkpt><trkpt lat="42.3269923" lon="13.0281246"><ele>671.5</ele><time>2026-04-26T12:29:28.667Z</time></trkpt><trkpt lat="42.3268662" lon="13.0281418"><ele>667.75</ele><time>2026-04-26T12:29:29.667Z</time></trkpt><trkpt lat="42.3267469" lon="13.0281815"><ele>664.0</ele><time>2026-04-26T12:29:30.667Z</time></trkpt><trkpt lat="42.3266293" lon="13.028258"><ele>667.75</ele><time>2026-04-26T12:29:31.668Z</time></trkpt><trkpt lat="42.3265351" lon="13.0283676"><ele>671.5</ele><time>2026-04-26T12:29:32.667Z</time></trkpt><trkpt lat="42.3264575" lon="13.0284936"><ele>675.25</ele><time>2026-04-26T12:29:33.668Z</time></trkpt><trkpt lat="42.3263708" lon="13.0286118"><ele>679.0</ele><time>2026-04-26T12:29:34.668Z</time></trkpt><trkpt lat="42.3262726" lon="13.0287007"><ele>679.0</ele><time>2026-04-26T12:29:35.667Z</time></trkpt><trkpt lat="42.3261627" lon="13.0287374"><ele>679.0</ele><time>2026-04-26T12:29:36.668Z</time></trkpt><trkpt lat="42.3260497" lon="13.0287403"><ele>679.0</ele><time>2026-04-26T12:29:37.667Z</time></trkpt><trkpt lat="42.3259491" lon="13.0287431"><ele>679.0</ele><time>2026-04-26T12:29:38.668Z</time></trkpt><trkpt lat="42.3258567" lon="13.0287822"><ele>679.0</ele><time>2026-04-26T12:29:39.667Z</time></trkpt><trkpt lat="42.3257833" lon="13.0288574"><ele>679.0</ele><time>2026-04-26T12:29:40.667Z</time></trkpt><trkpt lat="42.3257364" lon="13.0289665"><ele>679.0</ele><time>2026-04-26T12:29:41.667Z</time></trkpt><trkpt lat="42.3257273" lon="13.0291175"><ele>679.0</ele><time>2026-04-26T12:29:42.667Z</time></trkpt><trkpt lat="42.3257437" lon="13.0293007"><ele>679.0</ele><time>2026-04-26T12:29:43.667Z</time></trkpt><trkpt lat="42.3257719" lon="13.0294923"><ele>681.75</ele><time>2026-04-26T12:29:44.667Z</time></trkpt><trkpt lat="42.3258025" lon="13.0296931"><ele>684.5</ele><time>2026-04-26T12:29:45.667Z</time></trkpt><trkpt lat="42.3258333" lon="13.0298972"><ele>687.25</ele><time>2026-04-26T12:29:46.667Z</time></trkpt><trkpt lat="42.3258639" lon="13.0300863"><ele>690.0</ele><time>2026-04-26T12:29:47.667Z</time></trkpt><trkpt lat="42.3258913" lon="13.0302559"><ele>690.0</ele><time>2026-04-26T12:29:48.668Z</time></trkpt><trkpt lat="42.3259145" lon="13.0304178"><ele>690.0</ele><time>2026-04-26T12:29:49.667Z</time></trkpt><trkpt lat="42.3259161" lon="13.0305761"><ele>690.0</ele><time>2026-04-26T12:29:50.667Z</time></trkpt><trkpt lat="42.3258965" lon="13.03073"><ele>690.0</ele><time>2026-04-26T12:29:51.667Z</time></trkpt><trkpt lat="42.3258452" lon="13.0308711"><ele>690.5</ele><time>2026-04-26T12:29:52.666Z</time></trkpt><trkpt lat="42.3257659" lon="13.0310022"><ele>691.0</ele><time>2026-04-26T12:29:53.666Z</time></trkpt><trkpt lat="42.3256705" lon="13.0311243"><ele>691.5</ele><time>2026-04-26T12:29:54.667Z</time></trkpt><trkpt lat="42.3255596" lon="13.0312383"><ele>692.0</ele><time>2026-04-26T12:29:55.668Z</time></trkpt><trkpt lat="42.3254424" lon="13.0313358"><ele>689.75</ele><time>2026-04-26T12:29:56.668Z</time></trkpt><trkpt lat="42.3253183" lon="13.0314159"><ele>687.5</ele><time>2026-04-26T12:29:57.668Z</time></trkpt><trkpt lat="42.3251888" lon="13.0314781"><ele>685.25</ele><time>2026-04-26T12:29:58.667Z</time></trkpt><trkpt lat="42.325067" lon="13.0315202"><ele>683.0</ele><time>2026-04-26T12:29:59.667Z</time></trkpt><trkpt lat="42.3249628" lon="13.031543"><ele>683.0</ele><time>2026-04-26T12:30:00.667Z</time></trkpt><trkpt lat="42.3248756" lon="13.0315429"><ele>683.0</ele><time>2026-04-26T12:30:01.667Z</time></trkpt><trkpt lat="42.3247988" lon="13.0315066"><ele>683.0</ele><time>2026-04-26T12:30:02.667Z</time></trkpt><trkpt lat="42.3247148" lon="13.0314521"><ele>683.0</ele><time>2026-04-26T12:30:03.666Z</time></trkpt><trkpt lat="42.324616" lon="13.0313973"><ele>683.0</ele><time>2026-04-26T12:30:04.667Z</time></trkpt><trkpt lat="42.3244901" lon="13.0313625"><ele>682.5</ele><time>2026-04-26T12:30:05.667Z</time></trkpt><trkpt lat="42.3243612" lon="13.0313461"><ele>682.0</ele><time>2026-04-26T12:30:06.667Z</time></trkpt><trkpt lat="42.3242302" lon="13.0313379"><ele>681.5</ele><time>2026-04-26T12:30:07.667Z</time></trkpt><trkpt lat="42.3241115" lon="13.0313326"><ele>681.0</ele><time>2026-04-26T12:30:08.668Z</time></trkpt><trkpt lat="42.3239984" lon="13.031326"><ele>680.0</ele><time>2026-04-26T12:30:09.668Z</time></trkpt><trkpt lat="42.3238953" lon="13.0313215"><ele>679.0</ele><time>2026-04-26T12:30:10.667Z</time></trkpt><trkpt lat="42.323805" lon="13.0313369"><ele>678.0</ele><time>2026-04-26T12:30:11.667Z</time></trkpt><trkpt lat="42.3237161" lon="13.0313668"><ele>677.0</ele><time>2026-04-26T12:30:12.668Z</time></trkpt><trkpt lat="42.32365" lon="13.0314028"><ele>676.0</ele><time>2026-04-26T12:30:13.667Z</time></trkpt><trkpt lat="42.3236355" lon="13.0315528"><ele>677.5999999999999</ele><time>2026-04-26T12:30:14.667Z</time></trkpt><trkpt lat="42.3236063" lon="13.0316457"><ele>679.2</ele><time>2026-04-26T12:30:15.668Z</time></trkpt><trkpt lat="42.3235947" lon="13.0317841"><ele>680.8</ele><time>2026-04-26T12:30:16.667Z</time></trkpt><trkpt lat="42.3236794" lon="13.0319347"><ele>682.4000000000001</ele><time>2026-04-26T12:30:17.667Z</time></trkpt><trkpt lat="42.3237034" lon="13.032098"><ele>684.0</ele><time>2026-04-26T12:30:18.667Z</time></trkpt><trkpt lat="42.3237042" lon="13.0322657"><ele>684.0</ele><time>2026-04-26T12:30:19.668Z</time></trkpt><trkpt lat="42.3236895" lon="13.0324501"><ele>684.0</ele><time>2026-04-26T12:30:20.667Z</time></trkpt><trkpt lat="42.3236371" lon="13.0326415"><ele>684.0</ele><time>2026-04-26T12:30:21.668Z</time></trkpt><trkpt lat="42.3235855" lon="13.032835"><ele>684.0</ele><time>2026-04-26T12:30:22.667Z</time></trkpt><trkpt lat="42.3235298" lon="13.0330322"><ele>685.0</ele><time>2026-04-26T12:30:23.667Z</time></trkpt><trkpt lat="42.3234623" lon="13.0332185"><ele>686.0</ele><time>2026-04-26T12:30:24.667Z</time></trkpt><trkpt lat="42.3233856" lon="13.0334057"><ele>687.0</ele><time>2026-04-26T12:30:25.668Z</time></trkpt><trkpt lat="42.3233054" lon="13.0335912"><ele>685.6666666666666</ele><time>2026-04-26T12:30:26.668Z</time></trkpt><trkpt lat="42.3232127" lon="13.0337754"><ele>684.3333333333333</ele><time>2026-04-26T12:30:27.668Z</time></trkpt><trkpt lat="42.323109" lon="13.0339541"><ele>683.0</ele><time>2026-04-26T12:30:28.668Z</time></trkpt><trkpt lat="42.3230044" lon="13.03413"><ele>685.6666666666666</ele><time>2026-04-26T12:30:29.668Z</time></trkpt><trkpt lat="42.3228953" lon="13.0342985"><ele>688.3333333333334</ele><time>2026-04-26T12:30:30.668Z</time></trkpt><trkpt lat="42.3227967" lon="13.0344592"><ele>691.0</ele><time>2026-04-26T12:30:31.667Z</time></trkpt><trkpt lat="42.3227015" lon="13.0346099"><ele>691.0</ele><time>2026-04-26T12:30:32.668Z</time></trkpt><trkpt lat="42.3226077" lon="13.0347532"><ele>691.0</ele><time>2026-04-26T12:30:33.668Z</time></trkpt><trkpt lat="42.3225151" lon="13.0348877"><ele>691.0</ele><time>2026-04-26T12:30:34.667Z</time></trkpt><trkpt lat="42.3224183" lon="13.0350057"><ele>691.0</ele><time>2026-04-26T12:30:35.666Z</time></trkpt><trkpt lat="42.3223151" lon="13.0350873"><ele>694.75</ele><time>2026-04-26T12:30:36.668Z</time></trkpt><trkpt lat="42.3221961" lon="13.0351317"><ele>698.5</ele><time>2026-04-26T12:30:37.667Z</time></trkpt><trkpt lat="42.3220639" lon="13.0351448"><ele>702.25</ele><time>2026-04-26T12:30:38.668Z</time></trkpt><trkpt lat="42.3219233" lon="13.0351353"><ele>706.0</ele><time>2026-04-26T12:30:39.667Z</time></trkpt><trkpt lat="42.3217815" lon="13.035097"><ele>706.0</ele><time>2026-04-26T12:30:40.667Z</time></trkpt><trkpt lat="42.3216395" lon="13.0350271"><ele>706.0</ele><time>2026-04-26T12:30:41.668Z</time></trkpt><trkpt lat="42.3214972" lon="13.0349387"><ele>706.0</ele><time>2026-04-26T12:30:42.667Z</time></trkpt><trkpt lat="42.3213589" lon="13.0348509"><ele>703.75</ele><time>2026-04-26T12:30:43.667Z</time></trkpt><trkpt lat="42.3212166" lon="13.0347625"><ele>701.5</ele><time>2026-04-26T12:30:44.667Z</time></trkpt><trkpt lat="42.3210825" lon="13.0346799"><ele>699.25</ele><time>2026-04-26T12:30:45.667Z</time></trkpt><trkpt lat="42.3209598" lon="13.0346017"><ele>697.0</ele><time>2026-04-26T12:30:46.666Z</time></trkpt><trkpt lat="42.3208396" lon="13.0345222"><ele>697.0</ele><time>2026-04-26T12:30:47.668Z</time></trkpt><trkpt lat="42.3207229" lon="13.0344396"><ele>697.0</ele><time>2026-04-26T12:30:48.668Z</time></trkpt><trkpt lat="42.3206094" lon="13.0343736"><ele>697.0</ele><time>2026-04-26T12:30:49.667Z</time></trkpt><trkpt lat="42.3204844" lon="13.0343299"><ele>697.0</ele><time>2026-04-26T12:30:50.667Z</time></trkpt><trkpt lat="42.3203477" lon="13.0343256"><ele>698.5</ele><time>2026-04-26T12:30:51.667Z</time></trkpt><trkpt lat="42.3202108" lon="13.0343344"><ele>700.0</ele><time>2026-04-26T12:30:52.668Z</time></trkpt><trkpt lat="42.3200874" lon="13.0343606"><ele>701.5</ele><time>2026-04-26T12:30:53.668Z</time></trkpt><trkpt lat="42.3199802" lon="13.0344151"><ele>703.0</ele><time>2026-04-26T12:30:54.667Z</time></trkpt><trkpt lat="42.3198862" lon="13.0345189"><ele>703.0</ele><time>2026-04-26T12:30:55.667Z</time></trkpt><trkpt lat="42.3198101" lon="13.0346684"><ele>703.0</ele><time>2026-04-26T12:30:56.667Z</time></trkpt><trkpt lat="42.3197448" lon="13.0348481"><ele>703.0</ele><time>2026-04-26T12:30:57.668Z</time></trkpt><trkpt lat="42.3196787" lon="13.0350398"><ele>703.0</ele><time>2026-04-26T12:30:58.668Z</time></trkpt><trkpt lat="42.3196126" lon="13.0352408"><ele>702.3333333333334</ele><time>2026-04-26T12:30:59.667Z</time></trkpt><trkpt lat="42.3195443" lon="13.0354533"><ele>701.6666666666666</ele><time>2026-04-26T12:31:00.667Z</time></trkpt><trkpt lat="42.319478" lon="13.0356596"><ele>701.0</ele><time>2026-04-26T12:31:01.667Z</time></trkpt><trkpt lat="42.3194204" lon="13.0358547"><ele>703.0</ele><time>2026-04-26T12:31:02.668Z</time></trkpt><trkpt lat="42.3193663" lon="13.0360442"><ele>705.0</ele><time>2026-04-26T12:31:03.666Z</time></trkpt><trkpt lat="42.3193265" lon="13.036225"><ele>707.0</ele><time>2026-04-26T12:31:04.666Z</time></trkpt><trkpt lat="42.3193044" lon="13.0363963"><ele>709.0</ele><time>2026-04-26T12:31:05.667Z</time></trkpt><trkpt lat="42.3193103" lon="13.0365687"><ele>709.25</ele><time>2026-04-26T12:31:06.667Z</time></trkpt><trkpt lat="42.3193371" lon="13.0367485"><ele>709.5</ele><time>2026-04-26T12:31:07.668Z</time></trkpt><trkpt lat="42.3193684" lon="13.0369375"><ele>709.75</ele><time>2026-04-26T12:31:08.667Z</time></trkpt><trkpt lat="42.3193979" lon="13.037124"><ele>710.0</ele><time>2026-04-26T12:31:09.666Z</time></trkpt><trkpt lat="42.3194296" lon="13.037301"><ele>710.0</ele><time>2026-04-26T12:31:10.666Z</time></trkpt><trkpt lat="42.3194593" lon="13.0374726"><ele>710.0</ele><time>2026-04-26T12:31:11.667Z</time></trkpt><trkpt lat="42.3194871" lon="13.0376408"><ele>710.0</ele><time>2026-04-26T12:31:12.666Z</time></trkpt><trkpt lat="42.319504" lon="13.0377923"><ele>710.0</ele><time>2026-04-26T12:31:13.666Z</time></trkpt><trkpt lat="42.3195006" lon="13.0379273"><ele>710.0</ele><time>2026-04-26T12:31:14.667Z</time></trkpt><trkpt lat="42.3194766" lon="13.0380512"><ele>710.0</ele><time>2026-04-26T12:31:15.667Z</time></trkpt><trkpt lat="42.3194325" lon="13.0381523"><ele>710.0</ele><time>2026-04-26T12:31:16.667Z</time></trkpt><trkpt lat="42.3193762" lon="13.0382375"><ele>710.0</ele><time>2026-04-26T12:31:17.667Z</time></trkpt><trkpt lat="42.3192868" lon="13.0382488"><ele>710.0</ele><time>2026-04-26T12:31:18.666Z</time></trkpt><trkpt lat="42.3191927" lon="13.0382353"><ele>710.0</ele><time>2026-04-26T12:31:19.665Z</time></trkpt><trkpt lat="42.3190748" lon="13.0381916"><ele>710.0</ele><time>2026-04-26T12:31:20.666Z</time></trkpt><trkpt lat="42.3189587" lon="13.0381683"><ele>710.0</ele><time>2026-04-26T12:31:21.665Z</time></trkpt><trkpt lat="42.3188371" lon="13.0381329"><ele>710.0</ele><time>2026-04-26T12:31:22.666Z</time></trkpt><trkpt lat="42.3187337" lon="13.0380618"><ele>710.0</ele><time>2026-04-26T12:31:23.665Z</time></trkpt><trkpt lat="42.3186427" lon="13.0379507"><ele>710.0</ele><time>2026-04-26T12:31:24.666Z</time></trkpt><trkpt lat="42.318542" lon="13.0378155"><ele>710.0</ele><time>2026-04-26T12:31:25.665Z</time></trkpt><trkpt lat="42.3184417" lon="13.0376788"><ele>710.0</ele><time>2026-04-26T12:31:26.667Z</time></trkpt><trkpt lat="42.3183405" lon="13.0375275"><ele>707.0</ele><time>2026-04-26T12:31:27.666Z</time></trkpt><trkpt lat="42.3182547" lon="13.0373695"><ele>704.0</ele><time>2026-04-26T12:31:28.667Z</time></trkpt><trkpt lat="42.3181637" lon="13.0372435"><ele>701.0</ele><time>2026-04-26T12:31:29.666Z</time></trkpt><trkpt lat="42.3180729" lon="13.0371227"><ele>698.0</ele><time>2026-04-26T12:31:30.667Z</time></trkpt><trkpt lat="42.3179566" lon="13.0370449"><ele>696.5999999999999</ele><time>2026-04-26T12:31:31.667Z</time></trkpt><trkpt lat="42.3178431" lon="13.0370006"><ele>695.1999999999999</ele><time>2026-04-26T12:31:32.667Z</time></trkpt><trkpt lat="42.3177317" lon="13.0370031"><ele>693.8</ele><time>2026-04-26T12:31:33.666Z</time></trkpt><trkpt lat="42.3176337" lon="13.0370559"><ele>692.4</ele><time>2026-04-26T12:31:34.666Z</time></trkpt><trkpt lat="42.3175692" lon="13.0371541"><ele>691.0</ele><time>2026-04-26T12:31:35.666Z</time></trkpt><trkpt lat="42.3175409" lon="13.037295"><ele>691.0</ele><time>2026-04-26T12:31:36.665Z</time></trkpt><trkpt lat="42.3175312" lon="13.0374324"><ele>691.0</ele><time>2026-04-26T12:31:37.666Z</time></trkpt><trkpt lat="42.3175828" lon="13.0376231"><ele>691.0</ele><time>2026-04-26T12:31:38.667Z</time></trkpt><trkpt lat="42.3176149" lon="13.0377933"><ele>691.0</ele><time>2026-04-26T12:31:39.665Z</time></trkpt><trkpt lat="42.3176274" lon="13.0379766"><ele>692.25</ele><time>2026-04-26T12:31:40.665Z</time></trkpt><trkpt lat="42.3176534" lon="13.0381573"><ele>693.5</ele><time>2026-04-26T12:31:41.665Z</time></trkpt><trkpt lat="42.3176183" lon="13.0383489"><ele>694.75</ele><time>2026-04-26T12:31:42.665Z</time></trkpt><trkpt lat="42.3176091" lon="13.0385333"><ele>696.0</ele><time>2026-04-26T12:31:43.667Z</time></trkpt><trkpt lat="42.3176047" lon="13.0386978"><ele>696.1666666666666</ele><time>2026-04-26T12:31:44.666Z</time></trkpt><trkpt lat="42.317599" lon="13.038852"><ele>696.3333333333334</ele><time>2026-04-26T12:31:45.666Z</time></trkpt><trkpt lat="42.3175662" lon="13.0389599"><ele>696.5</ele><time>2026-04-26T12:31:46.667Z</time></trkpt><trkpt lat="42.3175339" lon="13.0390638"><ele>696.6666666666667</ele><time>2026-04-26T12:31:47.666Z</time></trkpt><trkpt lat="42.3174764" lon="13.039122"><ele>696.8333333333334</ele><time>2026-04-26T12:31:48.666Z</time></trkpt><trkpt lat="42.3173996" lon="13.0391594"><ele>697.0</ele><time>2026-04-26T12:31:49.667Z</time></trkpt><trkpt lat="42.3173071" lon="13.0391945"><ele>700.2</ele><time>2026-04-26T12:31:50.666Z</time></trkpt><trkpt lat="42.3172015" lon="13.039231"><ele>703.4000000000001</ele><time>2026-04-26T12:31:51.665Z</time></trkpt><trkpt lat="42.3171025" lon="13.0392587"><ele>706.5999999999999</ele><time>2026-04-26T12:31:52.666Z</time></trkpt><trkpt lat="42.3170049" lon="13.0392585"><ele>709.8</ele><time>2026-04-26T12:31:53.666Z</time></trkpt><trkpt lat="42.316921" lon="13.0392286"><ele>713.0</ele><time>2026-04-26T12:31:54.666Z</time></trkpt><trkpt lat="42.3168449" lon="13.0391555"><ele>709.75</ele><time>2026-04-26T12:31:55.665Z</time></trkpt><trkpt lat="42.3167789" lon="13.039034"><ele>706.5</ele><time>2026-04-26T12:31:56.666Z</time></trkpt><trkpt lat="42.3167282" lon="13.0388721"><ele>703.25</ele><time>2026-04-26T12:31:57.666Z</time></trkpt><trkpt lat="42.316684" lon="13.038685"><ele>700.0</ele><time>2026-04-26T12:31:58.666Z</time></trkpt><trkpt lat="42.3166319" lon="13.0384875"><ele>697.0</ele><time>2026-04-26T12:31:59.667Z</time></trkpt><trkpt lat="42.3165851" lon="13.0382812"><ele>694.0</ele><time>2026-04-26T12:32:00.667Z</time></trkpt><trkpt lat="42.3165252" lon="13.0380716"><ele>691.0</ele><time>2026-04-26T12:32:01.665Z</time></trkpt><trkpt lat="42.3164755" lon="13.0378595"><ele>691.0</ele><time>2026-04-26T12:32:02.667Z</time></trkpt><trkpt lat="42.3164222" lon="13.0376407"><ele>691.0</ele><time>2026-04-26T12:32:03.665Z</time></trkpt><trkpt lat="42.3163678" lon="13.0374177"><ele>691.0</ele><time>2026-04-26T12:32:04.665Z</time></trkpt><trkpt lat="42.3163078" lon="13.0372025"><ele>698.6666666666667</ele><time>2026-04-26T12:32:05.666Z</time></trkpt><trkpt lat="42.316228" lon="13.0369856"><ele>706.3333333333334</ele><time>2026-04-26T12:32:06.666Z</time></trkpt><trkpt lat="42.3161391" lon="13.0367751"><ele>714.0</ele><time>2026-04-26T12:32:07.666Z</time></trkpt><trkpt lat="42.3160474" lon="13.0365697"><ele>714.0</ele><time>2026-04-26T12:32:08.665Z</time></trkpt><trkpt lat="42.315959" lon="13.0363661"><ele>714.0</ele><time>2026-04-26T12:32:09.666Z</time></trkpt><trkpt lat="42.3158686" lon="13.036163"><ele>714.0</ele><time>2026-04-26T12:32:10.667Z</time></trkpt><trkpt lat="42.3157689" lon="13.0359682"><ele>715.6666666666666</ele><time>2026-04-26T12:32:11.667Z</time></trkpt><trkpt lat="42.3156671" lon="13.0357828"><ele>717.3333333333333</ele><time>2026-04-26T12:32:12.665Z</time></trkpt><trkpt lat="42.3155699" lon="13.0356108"><ele>719.0</ele><time>2026-04-26T12:32:13.666Z</time></trkpt><trkpt lat="42.3154848" lon="13.0354442"><ele>719.0</ele><time>2026-04-26T12:32:14.666Z</time></trkpt><trkpt lat="42.315416" lon="13.0352796"><ele>719.0</ele><time>2026-04-26T12:32:15.667Z</time></trkpt><trkpt lat="42.3153612" lon="13.0351208"><ele>719.0</ele><time>2026-04-26T12:32:16.667Z</time></trkpt><trkpt lat="42.3153044" lon="13.0349836"><ele>719.0</ele><time>2026-04-26T12:32:17.666Z</time></trkpt><trkpt lat="42.3152313" lon="13.0348661"><ele>713.25</ele><time>2026-04-26T12:32:18.666Z</time></trkpt><trkpt lat="42.3151239" lon="13.034801"><ele>707.5</ele><time>2026-04-26T12:32:19.666Z</time></trkpt><trkpt lat="42.3150306" lon="13.0347527"><ele>701.75</ele><time>2026-04-26T12:32:20.667Z</time></trkpt><trkpt lat="42.3149069" lon="13.0347864"><ele>696.0</ele><time>2026-04-26T12:32:21.666Z</time></trkpt><trkpt lat="42.3148029" lon="13.0348549"><ele>694.5</ele><time>2026-04-26T12:32:22.667Z</time></trkpt><trkpt lat="42.3146827" lon="13.034944"><ele>693.0</ele><time>2026-04-26T12:32:23.665Z</time></trkpt><trkpt lat="42.3145518" lon="13.0350225"><ele>691.5</ele><time>2026-04-26T12:32:24.665Z</time></trkpt><trkpt lat="42.314408" lon="13.0350777"><ele>690.0</ele><time>2026-04-26T12:32:25.666Z</time></trkpt><trkpt lat="42.314256" lon="13.0351139"><ele>696.25</ele><time>2026-04-26T12:32:26.666Z</time></trkpt><trkpt lat="42.3141009" lon="13.0351161"><ele>702.5</ele><time>2026-04-26T12:32:27.665Z</time></trkpt><trkpt lat="42.3139551" lon="13.0351082"><ele>708.75</ele><time>2026-04-26T12:32:28.666Z</time></trkpt><trkpt lat="42.3138166" lon="13.0350985"><ele>715.0</ele><time>2026-04-26T12:32:29.665Z</time></trkpt><trkpt lat="42.3136745" lon="13.0351322"><ele>715.0</ele><time>2026-04-26T12:32:30.666Z</time></trkpt><trkpt lat="42.3135338" lon="13.0352079"><ele>715.0</ele><time>2026-04-26T12:32:31.666Z</time></trkpt><trkpt lat="42.3133812" lon="13.0352825"><ele>715.0</ele><time>2026-04-26T12:32:32.665Z</time></trkpt><trkpt lat="42.3132232" lon="13.0353342"><ele>715.25</ele><time>2026-04-26T12:32:33.667Z</time></trkpt><trkpt lat="42.3130721" lon="13.0353616"><ele>715.5</ele><time>2026-04-26T12:32:34.666Z</time></trkpt><trkpt lat="42.312928" lon="13.0353858"><ele>715.75</ele><time>2026-04-26T12:32:35.666Z</time></trkpt><trkpt lat="42.3127938" lon="13.0354229"><ele>716.0</ele><time>2026-04-26T12:32:36.667Z</time></trkpt><trkpt lat="42.3126698" lon="13.0355131"><ele>716.0</ele><time>2026-04-26T12:32:37.667Z</time></trkpt><trkpt lat="42.3125447" lon="13.035603"><ele>716.0</ele><time>2026-04-26T12:32:38.666Z</time></trkpt><trkpt lat="42.312438" lon="13.0357683"><ele>716.0</ele><time>2026-04-26T12:32:39.665Z</time></trkpt><trkpt lat="42.312315" lon="13.0358874"><ele>715.3333333333333</ele><time>2026-04-26T12:32:40.666Z</time></trkpt><trkpt lat="42.3121805" lon="13.0359867"><ele>714.6666666666666</ele><time>2026-04-26T12:32:41.667Z</time></trkpt><trkpt lat="42.3120428" lon="13.0360682"><ele>714.0</ele><time>2026-04-26T12:32:42.665Z</time></trkpt><trkpt lat="42.3119072" lon="13.0361633"><ele>714.0</ele><time>2026-04-26T12:32:43.667Z</time></trkpt><trkpt lat="42.3117875" lon="13.0362933"><ele>714.0</ele><time>2026-04-26T12:32:44.665Z</time></trkpt><trkpt lat="42.3116806" lon="13.0364415"><ele>714.0</ele><time>2026-04-26T12:32:45.666Z</time></trkpt><trkpt lat="42.3115822" lon="13.0366063"><ele>712.0</ele><time>2026-04-26T12:32:46.666Z</time></trkpt><trkpt lat="42.311496" lon="13.0367925"><ele>710.0</ele><time>2026-04-26T12:32:47.667Z</time></trkpt><trkpt lat="42.3114168" lon="13.0369891"><ele>708.0</ele><time>2026-04-26T12:32:48.665Z</time></trkpt><trkpt lat="42.3113381" lon="13.0371911"><ele>708.0</ele><time>2026-04-26T12:32:49.666Z</time></trkpt><trkpt lat="42.3112549" lon="13.0373889"><ele>708.0</ele><time>2026-04-26T12:32:50.666Z</time></trkpt><trkpt lat="42.3111623" lon="13.0375819"><ele>708.0</ele><time>2026-04-26T12:32:51.666Z</time></trkpt><trkpt lat="42.3110584" lon="13.0377649"><ele>711.0</ele><time>2026-04-26T12:32:52.666Z</time></trkpt><trkpt lat="42.310951" lon="13.0379359"><ele>714.0</ele><time>2026-04-26T12:32:53.666Z</time></trkpt><trkpt lat="42.310849" lon="13.0380988"><ele>717.0</ele><time>2026-04-26T12:32:54.667Z</time></trkpt><trkpt lat="42.3107526" lon="13.0382513"><ele>717.0</ele><time>2026-04-26T12:32:55.666Z</time></trkpt><trkpt lat="42.3106638" lon="13.0384019"><ele>717.0</ele><time>2026-04-26T12:32:56.666Z</time></trkpt><trkpt lat="42.3105875" lon="13.0385457"><ele>717.0</ele><time>2026-04-26T12:32:57.667Z</time></trkpt><trkpt lat="42.3105229" lon="13.0386891"><ele>717.0</ele><time>2026-04-26T12:32:58.666Z</time></trkpt><trkpt lat="42.3104745" lon="13.0388506"><ele>717.0</ele><time>2026-04-26T12:32:59.666Z</time></trkpt><trkpt lat="42.3104459" lon="13.0390367"><ele>717.0</ele><time>2026-04-26T12:33:00.665Z</time></trkpt><trkpt lat="42.3104275" lon="13.0392363"><ele>717.0</ele><time>2026-04-26T12:33:01.667Z</time></trkpt><trkpt lat="42.3104007" lon="13.0394409"><ele>717.0</ele><time>2026-04-26T12:33:02.666Z</time></trkpt><trkpt lat="42.310354" lon="13.0396389"><ele>717.6666666666666</ele><time>2026-04-26T12:33:03.667Z</time></trkpt><trkpt lat="42.3102904" lon="13.0398281"><ele>718.3333333333333</ele><time>2026-04-26T12:33:04.666Z</time></trkpt><trkpt lat="42.3102101" lon="13.0400074"><ele>719.0</ele><time>2026-04-26T12:33:05.666Z</time></trkpt><trkpt lat="42.310112" lon="13.040177"><ele>721.3333333333333</ele><time>2026-04-26T12:33:06.666Z</time></trkpt><trkpt lat="42.3100022" lon="13.0403322"><ele>723.6666666666666</ele><time>2026-04-26T12:33:07.667Z</time></trkpt><trkpt lat="42.3098901" lon="13.040467"><ele>726.0</ele><time>2026-04-26T12:33:08.666Z</time></trkpt><trkpt lat="42.3097749" lon="13.0405783"><ele>725.75</ele><time>2026-04-26T12:33:09.666Z</time></trkpt><trkpt lat="42.3096698" lon="13.0406885"><ele>725.5</ele><time>2026-04-26T12:33:10.667Z</time></trkpt><trkpt lat="42.3095797" lon="13.0408069"><ele>725.25</ele><time>2026-04-26T12:33:11.667Z</time></trkpt><trkpt lat="42.3094919" lon="13.0409372"><ele>725.0</ele><time>2026-04-26T12:33:12.666Z</time></trkpt><trkpt lat="42.3094255" lon="13.0410945"><ele>725.0</ele><time>2026-04-26T12:33:13.667Z</time></trkpt><trkpt lat="42.3093673" lon="13.0412382"><ele>725.0</ele><time>2026-04-26T12:33:14.667Z</time></trkpt><trkpt lat="42.3092888" lon="13.0413384"><ele>725.0</ele><time>2026-04-26T12:33:15.666Z</time></trkpt><trkpt lat="42.309191" lon="13.0414213"><ele>725.0</ele><time>2026-04-26T12:33:16.665Z</time></trkpt><trkpt lat="42.3090715" lon="13.0414826"><ele>725.0</ele><time>2026-04-26T12:33:17.666Z</time></trkpt><trkpt lat="42.3089472" lon="13.0415499"><ele>725.0</ele><time>2026-04-26T12:33:18.667Z</time></trkpt><trkpt lat="42.3088364" lon="13.0416491"><ele>725.0</ele><time>2026-04-26T12:33:19.666Z</time></trkpt><trkpt lat="42.3087369" lon="13.0417491"><ele>725.0</ele><time>2026-04-26T12:33:20.666Z</time></trkpt><trkpt lat="42.3086395" lon="13.0418277"><ele>728.25</ele><time>2026-04-26T12:33:21.667Z</time></trkpt><trkpt lat="42.3085268" lon="13.0418713"><ele>731.5</ele><time>2026-04-26T12:33:22.667Z</time></trkpt><trkpt lat="42.3084088" lon="13.0418952"><ele>734.75</ele><time>2026-04-26T12:33:23.666Z</time></trkpt><trkpt lat="42.3082934" lon="13.0419001"><ele>738.0</ele><time>2026-04-26T12:33:24.666Z</time></trkpt><trkpt lat="42.3081739" lon="13.0418917"><ele>735.5</ele><time>2026-04-26T12:33:25.666Z</time></trkpt><trkpt lat="42.308052" lon="13.041917"><ele>733.0</ele><time>2026-04-26T12:33:26.666Z</time></trkpt><trkpt lat="42.3079351" lon="13.0419644"><ele>730.5</ele><time>2026-04-26T12:33:27.665Z</time></trkpt><trkpt lat="42.3078264" lon="13.0420356"><ele>728.0</ele><time>2026-04-26T12:33:28.665Z</time></trkpt><trkpt lat="42.3077175" lon="13.0421366"><ele>728.0</ele><time>2026-04-26T12:33:29.666Z</time></trkpt><trkpt lat="42.3076046" lon="13.042259"><ele>728.0</ele><time>2026-04-26T12:33:30.666Z</time></trkpt><trkpt lat="42.3074982" lon="13.0423939"><ele>728.0</ele><time>2026-04-26T12:33:31.666Z</time></trkpt><trkpt lat="42.3074089" lon="13.0425481"><ele>728.0</ele><time>2026-04-26T12:33:32.666Z</time></trkpt><trkpt lat="42.3073409" lon="13.0427079"><ele>731.25</ele><time>2026-04-26T12:33:33.665Z</time></trkpt><trkpt lat="42.3072999" lon="13.0428803"><ele>734.5</ele><time>2026-04-26T12:33:34.665Z</time></trkpt><trkpt lat="42.3072739" lon="13.043063"><ele>737.75</ele><time>2026-04-26T12:33:35.664Z</time></trkpt><trkpt lat="42.3073043" lon="13.0432718"><ele>741.0</ele><time>2026-04-26T12:33:36.665Z</time></trkpt><trkpt lat="42.3073377" lon="13.0434933"><ele>744.3333333333334</ele><time>2026-04-26T12:33:37.665Z</time></trkpt><trkpt lat="42.3073683" lon="13.0437245"><ele>747.6666666666667</ele><time>2026-04-26T12:33:38.665Z</time></trkpt><trkpt lat="42.3073949" lon="13.0439577"><ele>751.0</ele><time>2026-04-26T12:33:39.666Z</time></trkpt><trkpt lat="42.3074188" lon="13.0441905"><ele>751.6666666666667</ele><time>2026-04-26T12:33:40.664Z</time></trkpt><trkpt lat="42.3074386" lon="13.0444232"><ele>752.3333333333334</ele><time>2026-04-26T12:33:41.664Z</time></trkpt><trkpt lat="42.3074395" lon="13.0446582"><ele>753.0</ele><time>2026-04-26T12:33:42.666Z</time></trkpt><trkpt lat="42.3074394" lon="13.0448918"><ele>753.0</ele><time>2026-04-26T12:33:43.666Z</time></trkpt><trkpt lat="42.3074154" lon="13.0451102"><ele>753.0</ele><time>2026-04-26T12:33:44.664Z</time></trkpt><trkpt lat="42.3073997" lon="13.045315"><ele>753.0</ele><time>2026-04-26T12:33:45.666Z</time></trkpt><trkpt lat="42.307381" lon="13.0455042"><ele>753.0</ele><time>2026-04-26T12:33:46.665Z</time></trkpt><trkpt lat="42.3073627" lon="13.0456825"><ele>753.0</ele><time>2026-04-26T12:33:47.666Z</time></trkpt><trkpt lat="42.3073405" lon="13.0458587"><ele>753.0</ele><time>2026-04-26T12:33:48.666Z</time></trkpt><trkpt lat="42.307288" lon="13.0462129"><ele>755.3333333333334</ele><time>2026-04-26T12:33:50.665Z</time></trkpt><trkpt lat="42.3072559" lon="13.0463886"><ele>757.6666666666667</ele><time>2026-04-26T12:33:51.664Z</time></trkpt><trkpt lat="42.307201" lon="13.0467892"><ele>760.0</ele><time>2026-04-26T12:33:53.666Z</time></trkpt><trkpt lat="42.3071819" lon="13.0470143"><ele>755.0</ele><time>2026-04-26T12:33:54.664Z</time></trkpt><trkpt lat="42.307161" lon="13.0472548"><ele>750.0</ele><time>2026-04-26T12:33:55.664Z</time></trkpt><trkpt lat="42.3071425" lon="13.0474896"><ele>745.0</ele><time>2026-04-26T12:33:56.665Z</time></trkpt><trkpt lat="42.3071215" lon="13.0477063"><ele>745.0</ele><time>2026-04-26T12:33:57.665Z</time></trkpt><trkpt lat="42.3070868" lon="13.0479197"><ele>745.0</ele><time>2026-04-26T12:33:58.666Z</time></trkpt><trkpt lat="42.3070369" lon="13.0481272"><ele>745.0</ele><time>2026-04-26T12:33:59.665Z</time></trkpt><trkpt lat="42.3069726" lon="13.0483221"><ele>747.5</ele><time>2026-04-26T12:34:00.665Z</time></trkpt><trkpt lat="42.3068906" lon="13.0484956"><ele>750.0</ele><time>2026-04-26T12:34:01.665Z</time></trkpt><trkpt lat="42.3068031" lon="13.0486594"><ele>752.5</ele><time>2026-04-26T12:34:02.665Z</time></trkpt><trkpt lat="42.3067179" lon="13.0488198"><ele>755.0</ele><time>2026-04-26T12:34:03.665Z</time></trkpt><trkpt lat="42.3066386" lon="13.048986"><ele>757.0</ele><time>2026-04-26T12:34:04.664Z</time></trkpt><trkpt lat="42.3065639" lon="13.0491578"><ele>759.0</ele><time>2026-04-26T12:34:05.665Z</time></trkpt><trkpt lat="42.3064984" lon="13.0493379"><ele>761.0</ele><time>2026-04-26T12:34:06.665Z</time></trkpt><trkpt lat="42.306455" lon="13.049522"><ele>763.0</ele><time>2026-04-26T12:34:07.664Z</time></trkpt><trkpt lat="42.3064355" lon="13.0497227"><ele>763.0</ele><time>2026-04-26T12:34:08.666Z</time></trkpt><trkpt lat="42.3064472" lon="13.0499277"><ele>763.0</ele><time>2026-04-26T12:34:09.665Z</time></trkpt><trkpt lat="42.3064739" lon="13.0501385"><ele>763.0</ele><time>2026-04-26T12:34:10.666Z</time></trkpt><trkpt lat="42.3065065" lon="13.0503564"><ele>762.6666666666667</ele><time>2026-04-26T12:34:11.666Z</time></trkpt><trkpt lat="42.3065416" lon="13.0505707"><ele>762.3333333333334</ele><time>2026-04-26T12:34:12.664Z</time></trkpt><trkpt lat="42.3065796" lon="13.0507753"><ele>762.0</ele><time>2026-04-26T12:34:13.665Z</time></trkpt><trkpt lat="42.3066104" lon="13.0509728"><ele>762.0</ele><time>2026-04-26T12:34:14.665Z</time></trkpt><trkpt lat="42.3066275" lon="13.0511547"><ele>762.0</ele><time>2026-04-26T12:34:15.666Z</time></trkpt><trkpt lat="42.3066208" lon="13.0513263"><ele>762.0</ele><time>2026-04-26T12:34:16.666Z</time></trkpt><trkpt lat="42.3065889" lon="13.0514741"><ele>762.0</ele><time>2026-04-26T12:34:17.665Z</time></trkpt><trkpt lat="42.3065397" lon="13.0516059"><ele>763.25</ele><time>2026-04-26T12:34:18.665Z</time></trkpt><trkpt lat="42.3064895" lon="13.0517193"><ele>764.5</ele><time>2026-04-26T12:34:19.664Z</time></trkpt><trkpt lat="42.3064357" lon="13.0518138"><ele>765.75</ele><time>2026-04-26T12:34:20.666Z</time></trkpt><trkpt lat="42.3062908" lon="13.0518743"><ele>767.0</ele><time>2026-04-26T12:34:21.665Z</time></trkpt><trkpt lat="42.3061729" lon="13.0519816"><ele>762.0</ele><time>2026-04-26T12:34:22.665Z</time></trkpt><trkpt lat="42.3060253" lon="13.0520359"><ele>757.0</ele><time>2026-04-26T12:34:23.664Z</time></trkpt><trkpt lat="42.305876" lon="13.0520899"><ele>752.0</ele><time>2026-04-26T12:34:24.664Z</time></trkpt><trkpt lat="42.3057127" lon="13.052086"><ele>749.6666666666666</ele><time>2026-04-26T12:34:25.665Z</time></trkpt><trkpt lat="42.3055496" lon="13.0520853"><ele>747.3333333333334</ele><time>2026-04-26T12:34:26.665Z</time></trkpt><trkpt lat="42.30539" lon="13.0520736"><ele>745.0</ele><time>2026-04-26T12:34:27.665Z</time></trkpt><trkpt lat="42.3052294" lon="13.0520376"><ele>745.0</ele><time>2026-04-26T12:34:28.665Z</time></trkpt><trkpt lat="42.3050739" lon="13.0519817"><ele>745.0</ele><time>2026-04-26T12:34:29.666Z</time></trkpt><trkpt lat="42.3049343" lon="13.0519059"><ele>745.0</ele><time>2026-04-26T12:34:30.665Z</time></trkpt><trkpt lat="42.3047932" lon="13.051829"><ele>744.75</ele><time>2026-04-26T12:34:31.665Z</time></trkpt><trkpt lat="42.3046581" lon="13.051779"><ele>744.5</ele><time>2026-04-26T12:34:32.666Z</time></trkpt><trkpt lat="42.3045214" lon="13.0517651"><ele>744.25</ele><time>2026-04-26T12:34:33.666Z</time></trkpt><trkpt lat="42.3043888" lon="13.0517755"><ele>744.0</ele><time>2026-04-26T12:34:34.665Z</time></trkpt><trkpt lat="42.304256" lon="13.0517949"><ele>744.0</ele><time>2026-04-26T12:34:35.666Z</time></trkpt><trkpt lat="42.3041568" lon="13.0519328"><ele>744.0</ele><time>2026-04-26T12:34:36.665Z</time></trkpt><trkpt lat="42.3040539" lon="13.0520622"><ele>744.0</ele><time>2026-04-26T12:34:37.665Z</time></trkpt><trkpt lat="42.3039449" lon="13.0521988"><ele>744.0</ele><time>2026-04-26T12:34:38.664Z</time></trkpt><trkpt lat="42.303829" lon="13.0523362"><ele>745.0</ele><time>2026-04-26T12:34:39.665Z</time></trkpt><trkpt lat="42.303696" lon="13.0524544"><ele>746.0</ele><time>2026-04-26T12:34:40.666Z</time></trkpt><trkpt lat="42.3035648" lon="13.0525534"><ele>747.0</ele><time>2026-04-26T12:34:41.665Z</time></trkpt><trkpt lat="42.3034331" lon="13.0526364"><ele>747.0</ele><time>2026-04-26T12:34:42.665Z</time></trkpt><trkpt lat="42.3033112" lon="13.0527316"><ele>747.0</ele><time>2026-04-26T12:34:43.664Z</time></trkpt><trkpt lat="42.3032014" lon="13.0528624"><ele>747.0</ele><time>2026-04-26T12:34:44.665Z</time></trkpt><trkpt lat="42.3031139" lon="13.0530275"><ele>747.0</ele><time>2026-04-26T12:34:45.665Z</time></trkpt><trkpt lat="42.3030512" lon="13.0531943"><ele>741.75</ele><time>2026-04-26T12:34:46.666Z</time></trkpt><trkpt lat="42.3030055" lon="13.0533501"><ele>736.5</ele><time>2026-04-26T12:34:47.666Z</time></trkpt><trkpt lat="42.3029859" lon="13.0534979"><ele>731.25</ele><time>2026-04-26T12:34:48.666Z</time></trkpt><trkpt lat="42.302993" lon="13.0536429"><ele>726.0</ele><time>2026-04-26T12:34:49.666Z</time></trkpt><trkpt lat="42.3030573" lon="13.0537693"><ele>730.25</ele><time>2026-04-26T12:34:50.664Z</time></trkpt><trkpt lat="42.3031533" lon="13.053876"><ele>734.5</ele><time>2026-04-26T12:34:51.664Z</time></trkpt><trkpt lat="42.3032799" lon="13.0539654"><ele>738.75</ele><time>2026-04-26T12:34:52.665Z</time></trkpt><trkpt lat="42.3034127" lon="13.0540604"><ele>743.0</ele><time>2026-04-26T12:34:53.665Z</time></trkpt><trkpt lat="42.3035589" lon="13.054145"><ele>743.0</ele><time>2026-04-26T12:34:54.665Z</time></trkpt><trkpt lat="42.3037182" lon="13.0542171"><ele>743.0</ele><time>2026-04-26T12:34:55.665Z</time></trkpt><trkpt lat="42.303873" lon="13.0542728"><ele>743.0</ele><time>2026-04-26T12:34:56.665Z</time></trkpt><trkpt lat="42.3040241" lon="13.054337"><ele>748.6666666666666</ele><time>2026-04-26T12:34:57.666Z</time></trkpt><trkpt lat="42.3041648" lon="13.0544153"><ele>754.3333333333334</ele><time>2026-04-26T12:34:58.665Z</time></trkpt><trkpt lat="42.3043051" lon="13.0544994"><ele>760.0</ele><time>2026-04-26T12:34:59.665Z</time></trkpt><trkpt lat="42.3044457" lon="13.0545865"><ele>760.0</ele><time>2026-04-26T12:35:00.664Z</time></trkpt><trkpt lat="42.3045805" lon="13.0546715"><ele>760.0</ele><time>2026-04-26T12:35:01.666Z</time></trkpt><trkpt lat="42.3047066" lon="13.0547534"><ele>760.0</ele><time>2026-04-26T12:35:02.666Z</time></trkpt><trkpt lat="42.3048295" lon="13.0548493"><ele>760.0</ele><time>2026-04-26T12:35:03.664Z</time></trkpt><trkpt lat="42.3049401" lon="13.0549704"><ele>757.75</ele><time>2026-04-26T12:35:04.664Z</time></trkpt><trkpt lat="42.3050421" lon="13.0551186"><ele>755.5</ele><time>2026-04-26T12:35:05.665Z</time></trkpt><trkpt lat="42.305138" lon="13.0552776"><ele>753.25</ele><time>2026-04-26T12:35:06.665Z</time></trkpt><trkpt lat="42.3052219" lon="13.0554293"><ele>751.0</ele><time>2026-04-26T12:35:07.665Z</time></trkpt><trkpt lat="42.3052842" lon="13.0555693"><ele>751.0</ele><time>2026-04-26T12:35:08.665Z</time></trkpt><trkpt lat="42.3053207" lon="13.0557042"><ele>751.0</ele><time>2026-04-26T12:35:09.666Z</time></trkpt><trkpt lat="42.3053284" lon="13.0558349"><ele>751.0</ele><time>2026-04-26T12:35:10.666Z</time></trkpt><trkpt lat="42.3053112" lon="13.0559745"><ele>751.0</ele><time>2026-04-26T12:35:11.665Z</time></trkpt><trkpt lat="42.3052672" lon="13.0561226"><ele>751.0</ele><time>2026-04-26T12:35:12.665Z</time></trkpt><trkpt lat="42.3051974" lon="13.0562701"><ele>751.25</ele><time>2026-04-26T12:35:13.665Z</time></trkpt><trkpt lat="42.3051062" lon="13.0564055"><ele>751.5</ele><time>2026-04-26T12:35:14.664Z</time></trkpt><trkpt lat="42.3049999" lon="13.056535"><ele>751.75</ele><time>2026-04-26T12:35:15.665Z</time></trkpt><trkpt lat="42.30488" lon="13.0566471"><ele>752.0</ele><time>2026-04-26T12:35:16.665Z</time></trkpt><trkpt lat="42.3047457" lon="13.0567524"><ele>751.0</ele><time>2026-04-26T12:35:17.666Z</time></trkpt><trkpt lat="42.3046114" lon="13.0568668"><ele>750.0</ele><time>2026-04-26T12:35:18.665Z</time></trkpt><trkpt lat="42.3044784" lon="13.0569979"><ele>749.0</ele><time>2026-04-26T12:35:19.665Z</time></trkpt><trkpt lat="42.3043495" lon="13.0571414"><ele>749.0</ele><time>2026-04-26T12:35:20.665Z</time></trkpt><trkpt lat="42.3042239" lon="13.05728"><ele>749.0</ele><time>2026-04-26T12:35:21.665Z</time></trkpt><trkpt lat="42.3041094" lon="13.0574149"><ele>749.0</ele><time>2026-04-26T12:35:22.666Z</time></trkpt><trkpt lat="42.3040033" lon="13.0575536"><ele>753.0</ele><time>2026-04-26T12:35:23.666Z</time></trkpt><trkpt lat="42.303916" lon="13.0577036"><ele>757.0</ele><time>2026-04-26T12:35:24.666Z</time></trkpt><trkpt lat="42.3038492" lon="13.0578848"><ele>761.0</ele><time>2026-04-26T12:35:25.664Z</time></trkpt><trkpt lat="42.3037893" lon="13.0580902"><ele>759.3333333333333</ele><time>2026-04-26T12:35:26.665Z</time></trkpt><trkpt lat="42.3037341" lon="13.0583162"><ele>757.6666666666666</ele><time>2026-04-26T12:35:27.665Z</time></trkpt><trkpt lat="42.3036741" lon="13.0585464"><ele>756.0</ele><time>2026-04-26T12:35:28.666Z</time></trkpt><trkpt lat="42.3036079" lon="13.0587713"><ele>756.0</ele><time>2026-04-26T12:35:29.665Z</time></trkpt><trkpt lat="42.3035315" lon="13.0590021"><ele>756.0</ele><time>2026-04-26T12:35:30.664Z</time></trkpt><trkpt lat="42.3034436" lon="13.0592282"><ele>756.0</ele><time>2026-04-26T12:35:31.666Z</time></trkpt><trkpt lat="42.3033501" lon="13.059445"><ele>757.3333333333334</ele><time>2026-04-26T12:35:32.666Z</time></trkpt><trkpt lat="42.3032545" lon="13.0596463"><ele>758.6666666666667</ele><time>2026-04-26T12:35:33.666Z</time></trkpt><trkpt lat="42.3031587" lon="13.0598346"><ele>760.0</ele><time>2026-04-26T12:35:34.665Z</time></trkpt><trkpt lat="42.3030908" lon="13.0600383"><ele>754.0</ele><time>2026-04-26T12:35:35.665Z</time></trkpt><trkpt lat="42.3030323" lon="13.060243"><ele>748.0</ele><time>2026-04-26T12:35:36.665Z</time></trkpt><trkpt lat="42.3029588" lon="13.060443"><ele>742.0</ele><time>2026-04-26T12:35:37.664Z</time></trkpt><trkpt lat="42.3028595" lon="13.0606229"><ele>742.0</ele><time>2026-04-26T12:35:38.665Z</time></trkpt><trkpt lat="42.302745" lon="13.0607784"><ele>742.0</ele><time>2026-04-26T12:35:39.666Z</time></trkpt><trkpt lat="42.3026141" lon="13.0609135"><ele>742.0</ele><time>2026-04-26T12:35:40.665Z</time></trkpt><trkpt lat="42.3024702" lon="13.0610279"><ele>742.6666666666667</ele><time>2026-04-26T12:35:41.665Z</time></trkpt><trkpt lat="42.3023171" lon="13.0611267"><ele>743.3333333333334</ele><time>2026-04-26T12:35:42.665Z</time></trkpt><trkpt lat="42.3021683" lon="13.0612148"><ele>744.0</ele><time>2026-04-26T12:35:43.665Z</time></trkpt><trkpt lat="42.3020295" lon="13.0612939"><ele>744.0</ele><time>2026-04-26T12:35:44.666Z</time></trkpt><trkpt lat="42.301889" lon="13.0613455"><ele>744.0</ele><time>2026-04-26T12:35:45.665Z</time></trkpt><trkpt lat="42.3017554" lon="13.0613703"><ele>744.0</ele><time>2026-04-26T12:35:46.664Z</time></trkpt><trkpt lat="42.3016396" lon="13.0613819"><ele>744.0</ele><time>2026-04-26T12:35:47.664Z</time></trkpt><trkpt lat="42.3015503" lon="13.0614211"><ele>744.0</ele><time>2026-04-26T12:35:48.664Z</time></trkpt><trkpt lat="42.3015001" lon="13.0614791"><ele>744.0</ele><time>2026-04-26T12:35:49.664Z</time></trkpt><trkpt lat="42.3014611" lon="13.0615665"><ele>744.0</ele><time>2026-04-26T12:35:51.664Z</time></trkpt><trkpt lat="42.3014776" lon="13.0617086"><ele>744.0</ele><time>2026-04-26T12:35:54.664Z</time></trkpt><trkpt lat="42.3015018" lon="13.0617953"><ele>744.0</ele><time>2026-04-26T12:35:55.663Z</time></trkpt><trkpt lat="42.3015331" lon="13.0618916"><ele>744.0</ele><time>2026-04-26T12:35:56.665Z</time></trkpt><trkpt lat="42.3015661" lon="13.0619933"><ele>748.0</ele><time>2026-04-26T12:35:57.665Z</time></trkpt><trkpt lat="42.3016023" lon="13.0621223"><ele>752.0</ele><time>2026-04-26T12:35:58.665Z</time></trkpt><trkpt lat="42.3016449" lon="13.0622722"><ele>756.0</ele><time>2026-04-26T12:35:59.663Z</time></trkpt><trkpt lat="42.3017174" lon="13.0624111"><ele>760.0</ele><time>2026-04-26T12:36:00.665Z</time></trkpt><trkpt lat="42.3018234" lon="13.0625201"><ele>760.0</ele><time>2026-04-26T12:36:01.663Z</time></trkpt><trkpt lat="42.3019352" lon="13.0625962"><ele>760.0</ele><time>2026-04-26T12:36:02.664Z</time></trkpt><trkpt lat="42.3020249" lon="13.0626746"><ele>760.0</ele><time>2026-04-26T12:36:03.664Z</time></trkpt><trkpt lat="42.3020813" lon="13.0627867"><ele>760.0</ele><time>2026-04-26T12:36:04.664Z</time></trkpt><trkpt lat="42.3021066" lon="13.0629319"><ele>760.0</ele><time>2026-04-26T12:36:05.663Z</time></trkpt><trkpt lat="42.302116" lon="13.0630974"><ele>760.0</ele><time>2026-04-26T12:36:06.664Z</time></trkpt><trkpt lat="42.3021329" lon="13.0632666"><ele>760.0</ele><time>2026-04-26T12:36:07.664Z</time></trkpt><trkpt lat="42.3021546" lon="13.0634276"><ele>760.0</ele><time>2026-04-26T12:36:08.664Z</time></trkpt><trkpt lat="42.3021546" lon="13.0635784"><ele>760.0</ele><time>2026-04-26T12:36:09.665Z</time></trkpt><trkpt lat="42.302119" lon="13.0637239"><ele>759.25</ele><time>2026-04-26T12:36:10.665Z</time></trkpt><trkpt lat="42.3020627" lon="13.0638497"><ele>758.5</ele><time>2026-04-26T12:36:11.664Z</time></trkpt><trkpt lat="42.3019901" lon="13.0639655"><ele>757.75</ele><time>2026-04-26T12:36:12.664Z</time></trkpt><trkpt lat="42.3018926" lon="13.0640347"><ele>757.0</ele><time>2026-04-26T12:36:13.665Z</time></trkpt><trkpt lat="42.3017752" lon="13.0640889"><ele>754.75</ele><time>2026-04-26T12:36:14.665Z</time></trkpt><trkpt lat="42.3016546" lon="13.0641285"><ele>752.5</ele><time>2026-04-26T12:36:15.664Z</time></trkpt><trkpt lat="42.301543" lon="13.0642189"><ele>750.25</ele><time>2026-04-26T12:36:16.664Z</time></trkpt><trkpt lat="42.3014508" lon="13.0643472"><ele>748.0</ele><time>2026-04-26T12:36:17.664Z</time></trkpt><trkpt lat="42.3013796" lon="13.0645095"><ele>748.0</ele><time>2026-04-26T12:36:18.665Z</time></trkpt><trkpt lat="42.3013356" lon="13.0647055"><ele>748.0</ele><time>2026-04-26T12:36:19.665Z</time></trkpt><trkpt lat="42.3013021" lon="13.064913"><ele>748.0</ele><time>2026-04-26T12:36:20.665Z</time></trkpt><trkpt lat="42.3012674" lon="13.0651195"><ele>752.0</ele><time>2026-04-26T12:36:21.665Z</time></trkpt><trkpt lat="42.3012263" lon="13.0653177"><ele>756.0</ele><time>2026-04-26T12:36:22.664Z</time></trkpt><trkpt lat="42.3011716" lon="13.0655078"><ele>760.0</ele><time>2026-04-26T12:36:23.664Z</time></trkpt><trkpt lat="42.301099" lon="13.0656903"><ele>763.6666666666667</ele><time>2026-04-26T12:36:24.664Z</time></trkpt><trkpt lat="42.3010149" lon="13.0658686"><ele>767.3333333333334</ele><time>2026-04-26T12:36:25.664Z</time></trkpt><trkpt lat="42.3009309" lon="13.0660443"><ele>771.0</ele><time>2026-04-26T12:36:26.664Z</time></trkpt><trkpt lat="42.3008524" lon="13.0662092"><ele>771.0</ele><time>2026-04-26T12:36:27.665Z</time></trkpt><trkpt lat="42.3007858" lon="13.0663747"><ele>771.0</ele><time>2026-04-26T12:36:28.665Z</time></trkpt><trkpt lat="42.3007467" lon="13.0665401"><ele>771.0</ele><time>2026-04-26T12:36:29.664Z</time></trkpt><trkpt lat="42.3007237" lon="13.0667227"><ele>771.0</ele><time>2026-04-26T12:36:30.664Z</time></trkpt><trkpt lat="42.3007283" lon="13.0669092"><ele>771.75</ele><time>2026-04-26T12:36:31.664Z</time></trkpt><trkpt lat="42.300751" lon="13.0670921"><ele>772.5</ele><time>2026-04-26T12:36:32.664Z</time></trkpt><trkpt lat="42.3007873" lon="13.0672645"><ele>773.25</ele><time>2026-04-26T12:36:33.665Z</time></trkpt><trkpt lat="42.3008259" lon="13.06743"><ele>774.0</ele><time>2026-04-26T12:36:34.665Z</time></trkpt><trkpt lat="42.3008663" lon="13.0675829"><ele>774.0</ele><time>2026-04-26T12:36:35.664Z</time></trkpt><trkpt lat="42.3008977" lon="13.0677153"><ele>774.0</ele><time>2026-04-26T12:36:36.664Z</time></trkpt><trkpt lat="42.3009125" lon="13.0678337"><ele>774.0</ele><time>2026-04-26T12:36:37.663Z</time></trkpt><trkpt lat="42.3008941" lon="13.0679379"><ele>774.0</ele><time>2026-04-26T12:36:38.664Z</time></trkpt><trkpt lat="42.300845" lon="13.0680362"><ele>774.0</ele><time>2026-04-26T12:36:39.665Z</time></trkpt><trkpt lat="42.3007763" lon="13.0681365"><ele>774.0</ele><time>2026-04-26T12:36:40.664Z</time></trkpt><trkpt lat="42.3006935" lon="13.068228"><ele>774.0</ele><time>2026-04-26T12:36:41.664Z</time></trkpt><trkpt lat="42.3005898" lon="13.0682951"><ele>774.0</ele><time>2026-04-26T12:36:42.665Z</time></trkpt><trkpt lat="42.300468" lon="13.0683345"><ele>774.0</ele><time>2026-04-26T12:36:43.665Z</time></trkpt><trkpt lat="42.300334" lon="13.0683621"><ele>774.0</ele><time>2026-04-26T12:36:44.665Z</time></trkpt><trkpt lat="42.3002015" lon="13.0684015"><ele>774.0</ele><time>2026-04-26T12:36:45.664Z</time></trkpt><trkpt lat="42.3000754" lon="13.0684373"><ele>774.0</ele><time>2026-04-26T12:36:46.665Z</time></trkpt><trkpt lat="42.299949" lon="13.0684505"><ele>774.0</ele><time>2026-04-26T12:36:47.665Z</time></trkpt><trkpt lat="42.2998148" lon="13.0684215"><ele>774.75</ele><time>2026-04-26T12:36:48.665Z</time></trkpt><trkpt lat="42.2996968" lon="13.0683362"><ele>775.5</ele><time>2026-04-26T12:36:49.664Z</time></trkpt><trkpt lat="42.2995842" lon="13.068253"><ele>776.25</ele><time>2026-04-26T12:36:50.665Z</time></trkpt><trkpt lat="42.2994505" lon="13.0682018"><ele>777.0</ele><time>2026-04-26T12:36:51.665Z</time></trkpt><trkpt lat="42.2993052" lon="13.0681823"><ele>771.3333333333334</ele><time>2026-04-26T12:36:52.664Z</time></trkpt><trkpt lat="42.2991552" lon="13.0681883"><ele>765.6666666666667</ele><time>2026-04-26T12:36:53.664Z</time></trkpt><trkpt lat="42.2990003" lon="13.0681963"><ele>760.0</ele><time>2026-04-26T12:36:54.664Z</time></trkpt><trkpt lat="42.2988442" lon="13.0682018"><ele>759.6666666666667</ele><time>2026-04-26T12:36:55.663Z</time></trkpt><trkpt lat="42.2986848" lon="13.0681881"><ele>759.3333333333334</ele><time>2026-04-26T12:36:56.664Z</time></trkpt><trkpt lat="42.2985206" lon="13.068141"><ele>759.0</ele><time>2026-04-26T12:36:57.663Z</time></trkpt><trkpt lat="42.2983573" lon="13.0680755"><ele>759.0</ele><time>2026-04-26T12:36:58.664Z</time></trkpt><trkpt lat="42.2982038" lon="13.0679955"><ele>759.0</ele><time>2026-04-26T12:36:59.664Z</time></trkpt><trkpt lat="42.2980585" lon="13.0679284"><ele>759.0</ele><time>2026-04-26T12:37:00.663Z</time></trkpt><trkpt lat="42.2979267" lon="13.0678727"><ele>758.5</ele><time>2026-04-26T12:37:01.664Z</time></trkpt><trkpt lat="42.297812" lon="13.0678044"><ele>758.0</ele><time>2026-04-26T12:37:02.664Z</time></trkpt><trkpt lat="42.2977147" lon="13.0677091"><ele>757.5</ele><time>2026-04-26T12:37:03.665Z</time></trkpt><trkpt lat="42.2976495" lon="13.0675696"><ele>757.0</ele><time>2026-04-26T12:37:04.665Z</time></trkpt><trkpt lat="42.2976092" lon="13.0674216"><ele>757.0</ele><time>2026-04-26T12:37:05.664Z</time></trkpt><trkpt lat="42.2975734" lon="13.0672889"><ele>757.0</ele><time>2026-04-26T12:37:06.664Z</time></trkpt><trkpt lat="42.29751" lon="13.0671782"><ele>757.0</ele><time>2026-04-26T12:37:07.665Z</time></trkpt><trkpt lat="42.2974202" lon="13.0670951"><ele>757.0</ele><time>2026-04-26T12:37:08.664Z</time></trkpt><trkpt lat="42.2973075" lon="13.0670397"><ele>757.0</ele><time>2026-04-26T12:37:09.665Z</time></trkpt><trkpt lat="42.2971808" lon="13.0669806"><ele>759.75</ele><time>2026-04-26T12:37:10.664Z</time></trkpt><trkpt lat="42.297052" lon="13.0669138"><ele>762.5</ele><time>2026-04-26T12:37:11.664Z</time></trkpt><trkpt lat="42.2969185" lon="13.0668509"><ele>765.25</ele><time>2026-04-26T12:37:12.665Z</time></trkpt><trkpt lat="42.2967808" lon="13.0667814"><ele>768.0</ele><time>2026-04-26T12:37:13.664Z</time></trkpt><trkpt lat="42.2966492" lon="13.0667003"><ele>768.0</ele><time>2026-04-26T12:37:14.665Z</time></trkpt><trkpt lat="42.2965326" lon="13.0666205"><ele>768.0</ele><time>2026-04-26T12:37:15.665Z</time></trkpt><trkpt lat="42.2964214" lon="13.0665579"><ele>768.0</ele><time>2026-04-26T12:37:16.665Z</time></trkpt><trkpt lat="42.2963231" lon="13.0665145"><ele>768.0</ele><time>2026-04-26T12:37:17.664Z</time></trkpt><trkpt lat="42.2962337" lon="13.0664885"><ele>768.0</ele><time>2026-04-26T12:37:18.665Z</time></trkpt><trkpt lat="42.2961655" lon="13.0664896"><ele>767.5999999999999</ele><time>2026-04-26T12:37:19.665Z</time></trkpt><trkpt lat="42.2960767" lon="13.0665459"><ele>767.1999999999999</ele><time>2026-04-26T12:37:21.663Z</time></trkpt><trkpt lat="42.2960276" lon="13.0666632"><ele>766.8</ele><time>2026-04-26T12:37:23.663Z</time></trkpt><trkpt lat="42.2959689" lon="13.0668401"><ele>766.4</ele><time>2026-04-26T12:37:25.665Z</time></trkpt><trkpt lat="42.2959379" lon="13.0669322"><ele>766.0</ele><time>2026-04-26T12:37:26.663Z</time></trkpt><trkpt lat="42.2959021" lon="13.067037"><ele>766.0</ele><time>2026-04-26T12:37:27.664Z</time></trkpt><trkpt lat="42.295854" lon="13.06714"><ele>766.0</ele><time>2026-04-26T12:37:28.665Z</time></trkpt><trkpt lat="42.2957807" lon="13.0672145"><ele>766.0</ele><time>2026-04-26T12:37:29.664Z</time></trkpt><trkpt lat="42.2956942" lon="13.0672731"><ele>766.0</ele><time>2026-04-26T12:37:30.663Z</time></trkpt><trkpt lat="42.2955997" lon="13.0673282"><ele>766.0</ele><time>2026-04-26T12:37:31.663Z</time></trkpt><trkpt lat="42.2955114" lon="13.0673807"><ele>766.25</ele><time>2026-04-26T12:37:32.664Z</time></trkpt><trkpt lat="42.2954347" lon="13.0674307"><ele>766.5</ele><time>2026-04-26T12:37:33.664Z</time></trkpt><trkpt lat="42.2952999" lon="13.0675222"><ele>766.75</ele><time>2026-04-26T12:37:35.665Z</time></trkpt><trkpt lat="42.2952438" lon="13.0675624"><ele>767.0</ele><time>2026-04-26T12:37:36.665Z</time></trkpt><trkpt lat="42.295062" lon="13.0677127"><ele>767.0</ele><time>2026-04-26T12:37:39.663Z</time></trkpt><trkpt lat="42.2949876" lon="13.0677773"><ele>767.0</ele><time>2026-04-26T12:37:40.664Z</time></trkpt><trkpt lat="42.2949077" lon="13.0678496"><ele>767.0</ele><time>2026-04-26T12:37:41.665Z</time></trkpt><trkpt lat="42.2948257" lon="13.0679225"><ele>767.0</ele><time>2026-04-26T12:37:42.664Z</time></trkpt><trkpt lat="42.2947491" lon="13.0679847"><ele>767.0</ele><time>2026-04-26T12:37:43.664Z</time></trkpt><trkpt lat="42.2946801" lon="13.0680404"><ele>766.2</ele><time>2026-04-26T12:37:44.665Z</time></trkpt><trkpt lat="42.294561" lon="13.06814"><ele>765.4000000000001</ele><time>2026-04-26T12:37:46.664Z</time></trkpt><trkpt lat="42.2944604" lon="13.0682229"><ele>764.5999999999999</ele><time>2026-04-26T12:37:48.663Z</time></trkpt><trkpt lat="42.2943899" lon="13.0682838"><ele>763.8</ele><time>2026-04-26T12:37:50.664Z</time></trkpt><trkpt lat="42.2943361" lon="13.0683552"><ele>763.0</ele><time>2026-04-26T12:37:54.663Z</time></trkpt><trkpt lat="42.2943415" lon="13.0684583"><ele>765.5</ele><time>2026-04-26T12:37:56.665Z</time></trkpt><trkpt lat="42.2943611" lon="13.0685752"><ele>768.0</ele><time>2026-04-26T12:37:58.665Z</time></trkpt><trkpt lat="42.2943832" lon="13.0686724"><ele>770.5</ele><time>2026-04-26T12:38:00.663Z</time></trkpt><trkpt lat="42.2944404" lon="13.0687798"><ele>773.0</ele><time>2026-04-26T12:38:02.664Z</time></trkpt><trkpt lat="42.2944959" lon="13.0688724"><ele>775.4999999999999</ele><time>2026-04-26T12:38:04.662Z</time></trkpt><trkpt lat="42.2945352" lon="13.0689389"><ele>778.0</ele><time>2026-04-26T12:38:05.664Z</time></trkpt><trkpt lat="42.294585" lon="13.0690258"><ele>778.0</ele><time>2026-04-26T12:38:06.662Z</time></trkpt><trkpt lat="42.2946426" lon="13.0691288"><ele>778.0</ele><time>2026-04-26T12:38:07.663Z</time></trkpt><trkpt lat="42.2946982" lon="13.0692387"><ele>778.0</ele><time>2026-04-26T12:38:08.663Z</time></trkpt><trkpt lat="42.2947582" lon="13.069372"><ele>778.0</ele><time>2026-04-26T12:38:09.662Z</time></trkpt><trkpt lat="42.2948169" lon="13.0695197"><ele>778.0</ele><time>2026-04-26T12:38:10.663Z</time></trkpt><trkpt lat="42.294865" lon="13.0696653"><ele>778.0</ele><time>2026-04-26T12:38:11.663Z</time></trkpt><trkpt lat="42.2948917" lon="13.0697984"><ele>778.0</ele><time>2026-04-26T12:38:12.662Z</time></trkpt><trkpt lat="42.2948972" lon="13.0699251"><ele>778.0</ele><time>2026-04-26T12:38:13.664Z</time></trkpt><trkpt lat="42.2948715" lon="13.0700289"><ele>778.0</ele><time>2026-04-26T12:38:14.663Z</time></trkpt><trkpt lat="42.2948156" lon="13.0701109"><ele>778.0</ele><time>2026-04-26T12:38:15.664Z</time></trkpt><trkpt lat="42.2947205" lon="13.0701705"><ele>778.0</ele><time>2026-04-26T12:38:16.664Z</time></trkpt><trkpt lat="42.2945994" lon="13.0701903"><ele>778.0</ele><time>2026-04-26T12:38:17.664Z</time></trkpt><trkpt lat="42.2944821" lon="13.0701777"><ele>778.0</ele><time>2026-04-26T12:38:18.662Z</time></trkpt><trkpt lat="42.2943848" lon="13.0701638"><ele>778.0</ele><time>2026-04-26T12:38:19.663Z</time></trkpt><trkpt lat="42.2943008" lon="13.0701918"><ele>778.0</ele><time>2026-04-26T12:38:20.662Z</time></trkpt><trkpt lat="42.2942396" lon="13.0702614"><ele>778.0</ele><time>2026-04-26T12:38:21.662Z</time></trkpt><trkpt lat="42.2942064" lon="13.0703786"><ele>778.0</ele><time>2026-04-26T12:38:22.663Z</time></trkpt><trkpt lat="42.2941964" lon="13.0705338"><ele>778.0</ele><time>2026-04-26T12:38:23.663Z</time></trkpt><trkpt lat="42.2941963" lon="13.070697"><ele>778.0</ele><time>2026-04-26T12:38:24.663Z</time></trkpt><trkpt lat="42.2941846" lon="13.0708708"><ele>781.4</ele><time>2026-04-26T12:38:25.663Z</time></trkpt><trkpt lat="42.2941671" lon="13.0710435"><ele>784.8</ele><time>2026-04-26T12:38:26.664Z</time></trkpt><trkpt lat="42.2941441" lon="13.0711932"><ele>788.2</ele><time>2026-04-26T12:38:27.664Z</time></trkpt><trkpt lat="42.2941161" lon="13.0713108"><ele>791.6</ele><time>2026-04-26T12:38:28.664Z</time></trkpt><trkpt lat="42.2940702" lon="13.0714005"><ele>795.0</ele><time>2026-04-26T12:38:29.663Z</time></trkpt><trkpt lat="42.2940039" lon="13.0714376"><ele>792.0</ele><time>2026-04-26T12:38:30.663Z</time></trkpt><trkpt lat="42.2939211" lon="13.0714202"><ele>789.0</ele><time>2026-04-26T12:38:31.663Z</time></trkpt><trkpt lat="42.2938401" lon="13.0714119"><ele>786.0</ele><time>2026-04-26T12:38:32.662Z</time></trkpt><trkpt lat="42.2937385" lon="13.0713677"><ele>783.0</ele><time>2026-04-26T12:38:33.664Z</time></trkpt><trkpt lat="42.293589" lon="13.0713438"><ele>780.0</ele><time>2026-04-26T12:38:34.664Z</time></trkpt><trkpt lat="42.2934563" lon="13.0713538"><ele>780.0</ele><time>2026-04-26T12:38:35.664Z</time></trkpt><trkpt lat="42.2933049" lon="13.0713941"><ele>780.0</ele><time>2026-04-26T12:38:36.664Z</time></trkpt><trkpt lat="42.2931484" lon="13.0714227"><ele>780.0</ele><time>2026-04-26T12:38:37.664Z</time></trkpt><trkpt lat="42.292996" lon="13.0714718"><ele>778.0</ele><time>2026-04-26T12:38:38.663Z</time></trkpt><trkpt lat="42.2928461" lon="13.0715184"><ele>776.0</ele><time>2026-04-26T12:38:39.664Z</time></trkpt><trkpt lat="42.2927081" lon="13.0715746"><ele>774.0</ele><time>2026-04-26T12:38:40.663Z</time></trkpt><trkpt lat="42.2925681" lon="13.0716304"><ele>772.0</ele><time>2026-04-26T12:38:41.663Z</time></trkpt><trkpt lat="42.2924302" lon="13.0716806"><ele>776.5</ele><time>2026-04-26T12:38:42.663Z</time></trkpt><trkpt lat="42.2922943" lon="13.0717286"><ele>781.0</ele><time>2026-04-26T12:38:43.663Z</time></trkpt><trkpt lat="42.2921604" lon="13.0717942"><ele>785.5</ele><time>2026-04-26T12:38:44.663Z</time></trkpt><trkpt lat="42.292044" lon="13.0718795"><ele>790.0</ele><time>2026-04-26T12:38:45.664Z</time></trkpt><trkpt lat="42.2919381" lon="13.0719661"><ele>790.0</ele><time>2026-04-26T12:38:46.664Z</time></trkpt><trkpt lat="42.2918407" lon="13.0720692"><ele>790.0</ele><time>2026-04-26T12:38:47.663Z</time></trkpt><trkpt lat="42.2917467" lon="13.0721869"><ele>790.0</ele><time>2026-04-26T12:38:48.664Z</time></trkpt><trkpt lat="42.2916581" lon="13.0723254"><ele>790.0</ele><time>2026-04-26T12:38:49.662Z</time></trkpt><trkpt lat="42.2915864" lon="13.0725011"><ele>787.0</ele><time>2026-04-26T12:38:50.663Z</time></trkpt><trkpt lat="42.2915218" lon="13.0726981"><ele>784.0</ele><time>2026-04-26T12:38:51.662Z</time></trkpt><trkpt lat="42.291444" lon="13.0728885"><ele>781.0</ele><time>2026-04-26T12:38:52.663Z</time></trkpt><trkpt lat="42.2913459" lon="13.0730612"><ele>781.0</ele><time>2026-04-26T12:38:53.663Z</time></trkpt><trkpt lat="42.2912213" lon="13.073219"><ele>781.0</ele><time>2026-04-26T12:38:54.663Z</time></trkpt><trkpt lat="42.2910817" lon="13.0733658"><ele>781.0</ele><time>2026-04-26T12:38:55.663Z</time></trkpt><trkpt lat="42.2909479" lon="13.0735198"><ele>788.6666666666666</ele><time>2026-04-26T12:38:56.662Z</time></trkpt><trkpt lat="42.2908211" lon="13.0736658"><ele>796.3333333333333</ele><time>2026-04-26T12:38:57.663Z</time></trkpt><trkpt lat="42.2907034" lon="13.0738075"><ele>804.0</ele><time>2026-04-26T12:38:58.663Z</time></trkpt><trkpt lat="42.2905915" lon="13.0739393"><ele>800.25</ele><time>2026-04-26T12:38:59.663Z</time></trkpt><trkpt lat="42.2904837" lon="13.0740542"><ele>796.5</ele><time>2026-04-26T12:39:00.663Z</time></trkpt><trkpt lat="42.2903786" lon="13.0741575"><ele>792.75</ele><time>2026-04-26T12:39:01.662Z</time></trkpt><trkpt lat="42.2902817" lon="13.0742473"><ele>789.0</ele><time>2026-04-26T12:39:02.663Z</time></trkpt><trkpt lat="42.2901835" lon="13.0743003"><ele>789.0</ele><time>2026-04-26T12:39:03.663Z</time></trkpt><trkpt lat="42.2900861" lon="13.0743056"><ele>789.0</ele><time>2026-04-26T12:39:04.663Z</time></trkpt><trkpt lat="42.2899862" lon="13.0742519"><ele>789.0</ele><time>2026-04-26T12:39:05.664Z</time></trkpt><trkpt lat="42.2898829" lon="13.0741583"><ele>789.0</ele><time>2026-04-26T12:39:06.663Z</time></trkpt><trkpt lat="42.2897692" lon="13.0740669"><ele>789.25</ele><time>2026-04-26T12:39:07.663Z</time></trkpt><trkpt lat="42.2896569" lon="13.0739942"><ele>789.5</ele><time>2026-04-26T12:39:08.662Z</time></trkpt><trkpt lat="42.2895446" lon="13.0739619"><ele>789.75</ele><time>2026-04-26T12:39:09.662Z</time></trkpt><trkpt lat="42.2894373" lon="13.0739674"><ele>790.0</ele><time>2026-04-26T12:39:10.662Z</time></trkpt><trkpt lat="42.2893407" lon="13.0740297"><ele>796.0</ele><time>2026-04-26T12:39:11.663Z</time></trkpt><trkpt lat="42.2892682" lon="13.0741459"><ele>802.0</ele><time>2026-04-26T12:39:12.663Z</time></trkpt><trkpt lat="42.289202" lon="13.0742937"><ele>808.0</ele><time>2026-04-26T12:39:13.662Z</time></trkpt><trkpt lat="42.2891214" lon="13.0744529"><ele>814.0</ele><time>2026-04-26T12:39:14.663Z</time></trkpt><trkpt lat="42.2890419" lon="13.0746262"><ele>814.0</ele><time>2026-04-26T12:39:15.662Z</time></trkpt><trkpt lat="42.2889783" lon="13.0748167"><ele>814.0</ele><time>2026-04-26T12:39:16.663Z</time></trkpt><trkpt lat="42.2889245" lon="13.0750229"><ele>814.0</ele><time>2026-04-26T12:39:17.662Z</time></trkpt><trkpt lat="42.2888732" lon="13.0752412"><ele>811.3333333333333</ele><time>2026-04-26T12:39:18.662Z</time></trkpt><trkpt lat="42.2888282" lon="13.0754643"><ele>808.6666666666667</ele><time>2026-04-26T12:39:19.663Z</time></trkpt><trkpt lat="42.2887946" lon="13.0756912"><ele>806.0</ele><time>2026-04-26T12:39:20.662Z</time></trkpt><trkpt lat="42.2887746" lon="13.0759182"><ele>806.0</ele><time>2026-04-26T12:39:21.663Z</time></trkpt><trkpt lat="42.2887763" lon="13.076148"><ele>806.0</ele><time>2026-04-26T12:39:22.664Z</time></trkpt><trkpt lat="42.2887914" lon="13.0763703"><ele>806.0</ele><time>2026-04-26T12:39:23.663Z</time></trkpt><trkpt lat="42.2888076" lon="13.0765912"><ele>808.6666666666667</ele><time>2026-04-26T12:39:24.664Z</time></trkpt><trkpt lat="42.2888061" lon="13.0768144"><ele>811.3333333333333</ele><time>2026-04-26T12:39:25.662Z</time></trkpt><trkpt lat="42.288797" lon="13.0770421"><ele>814.0</ele><time>2026-04-26T12:39:26.663Z</time></trkpt><trkpt lat="42.2887766" lon="13.0772638"><ele>817.3333333333333</ele><time>2026-04-26T12:39:27.663Z</time></trkpt><trkpt lat="42.2887445" lon="13.0774775"><ele>820.6666666666667</ele><time>2026-04-26T12:39:28.664Z</time></trkpt><trkpt lat="42.2886967" lon="13.0776801"><ele>824.0</ele><time>2026-04-26T12:39:29.664Z</time></trkpt><trkpt lat="42.2886256" lon="13.0778597"><ele>824.0</ele><time>2026-04-26T12:39:30.662Z</time></trkpt><trkpt lat="42.2885378" lon="13.0780107"><ele>824.0</ele><time>2026-04-26T12:39:31.663Z</time></trkpt><trkpt lat="42.2884277" lon="13.0781345"><ele>824.0</ele><time>2026-04-26T12:39:32.663Z</time></trkpt><trkpt lat="42.2883025" lon="13.0782349"><ele>824.0</ele><time>2026-04-26T12:39:33.663Z</time></trkpt><trkpt lat="42.288183" lon="13.0783553"><ele>827.0</ele><time>2026-04-26T12:39:34.663Z</time></trkpt><trkpt lat="42.2880887" lon="13.0784962"><ele>830.0</ele><time>2026-04-26T12:39:35.662Z</time></trkpt><trkpt lat="42.2880107" lon="13.0786344"><ele>833.0</ele><time>2026-04-26T12:39:36.663Z</time></trkpt><trkpt lat="42.2879345" lon="13.078752"><ele>836.0</ele><time>2026-04-26T12:39:37.662Z</time></trkpt><trkpt lat="42.2878553" lon="13.0788347"><ele>836.0000000000001</ele><time>2026-04-26T12:39:38.664Z</time></trkpt><trkpt lat="42.2877709" lon="13.0788818"><ele>836.0</ele><time>2026-04-26T12:39:39.663Z</time></trkpt><trkpt lat="42.2876902" lon="13.0788959"><ele>836.0</ele><time>2026-04-26T12:39:40.662Z</time></trkpt><trkpt lat="42.2876137" lon="13.0788722"><ele>836.0</ele><time>2026-04-26T12:39:41.662Z</time></trkpt><trkpt lat="42.2875575" lon="13.0788171"><ele>836.0000000000001</ele><time>2026-04-26T12:39:42.663Z</time></trkpt><trkpt lat="42.287523" lon="13.0787138"><ele>836.0</ele><time>2026-04-26T12:39:43.662Z</time></trkpt><trkpt lat="42.2874935" lon="13.0785677"><ele>836.0</ele><time>2026-04-26T12:39:44.663Z</time></trkpt><trkpt lat="42.2874538" lon="13.0784273"><ele>836.0</ele><time>2026-04-26T12:39:45.664Z</time></trkpt><trkpt lat="42.287378" lon="13.0782651"><ele>836.0</ele><time>2026-04-26T12:39:46.663Z</time></trkpt><trkpt lat="42.2873098" lon="13.0781199"><ele>836.0</ele><time>2026-04-26T12:39:47.662Z</time></trkpt><trkpt lat="42.287209" lon="13.0779985"><ele>834.0</ele><time>2026-04-26T12:39:48.662Z</time></trkpt><trkpt lat="42.2871158" lon="13.0779117"><ele>832.0</ele><time>2026-04-26T12:39:49.662Z</time></trkpt><trkpt lat="42.2869897" lon="13.0778419"><ele>830.0</ele><time>2026-04-26T12:39:50.664Z</time></trkpt><trkpt lat="42.2868732" lon="13.0778128"><ele>828.0</ele><time>2026-04-26T12:39:51.664Z</time></trkpt><trkpt lat="42.2867518" lon="13.0778113"><ele>828.0</ele><time>2026-04-26T12:39:52.663Z</time></trkpt><trkpt lat="42.2866164" lon="13.0778273"><ele>828.0</ele><time>2026-04-26T12:39:53.664Z</time></trkpt><trkpt lat="42.2864865" lon="13.0778299"><ele>828.0</ele><time>2026-04-26T12:39:54.664Z</time></trkpt><trkpt lat="42.2863473" lon="13.0777975"><ele>828.0</ele><time>2026-04-26T12:39:55.663Z</time></trkpt><trkpt lat="42.286253" lon="13.0776754"><ele>826.75</ele><time>2026-04-26T12:39:56.664Z</time></trkpt><trkpt lat="42.2861291" lon="13.0776093"><ele>825.5</ele><time>2026-04-26T12:39:57.663Z</time></trkpt><trkpt lat="42.2860717" lon="13.0774372"><ele>824.25</ele><time>2026-04-26T12:39:58.663Z</time></trkpt><trkpt lat="42.2859893" lon="13.0773102"><ele>823.0</ele><time>2026-04-26T12:39:59.662Z</time></trkpt><trkpt lat="42.2859132" lon="13.0771957"><ele>823.0</ele><time>2026-04-26T12:40:00.664Z</time></trkpt><trkpt lat="42.2858643" lon="13.0770969"><ele>823.0</ele><time>2026-04-26T12:40:01.663Z</time></trkpt><trkpt lat="42.285807" lon="13.0770402"><ele>823.0</ele><time>2026-04-26T12:40:02.663Z</time></trkpt><trkpt lat="42.2857315" lon="13.0769651"><ele>823.0</ele><time>2026-04-26T12:40:04.663Z</time></trkpt><trkpt lat="42.2856088" lon="13.0769846"><ele>823.0</ele><time>2026-04-26T12:42:43.662Z</time></trkpt><trkpt lat="42.2855293" lon="13.0770149"><ele>821.5999999999999</ele><time>2026-04-26T12:42:44.66Z</time></trkpt><trkpt lat="42.2854555" lon="13.0770446"><ele>820.1999999999999</ele><time>2026-04-26T12:42:45.66Z</time></trkpt><trkpt lat="42.2853778" lon="13.0770928"><ele>818.8</ele><time>2026-04-26T12:42:46.661Z</time></trkpt><trkpt lat="42.2852988" lon="13.0771746"><ele>817.4</ele><time>2026-04-26T12:42:47.661Z</time></trkpt><trkpt lat="42.2852286" lon="13.0772768"><ele>816.0</ele><time>2026-04-26T12:42:48.661Z</time></trkpt><trkpt lat="42.2851835" lon="13.0773993"><ele>819.5</ele><time>2026-04-26T12:42:49.662Z</time></trkpt><trkpt lat="42.2851966" lon="13.0775506"><ele>823.0</ele><time>2026-04-26T12:42:50.662Z</time></trkpt><trkpt lat="42.2852272" lon="13.0776983"><ele>826.5</ele><time>2026-04-26T12:42:51.66Z</time></trkpt><trkpt lat="42.2852524" lon="13.077847"><ele>830.0</ele><time>2026-04-26T12:42:52.661Z</time></trkpt><trkpt lat="42.2852549" lon="13.0779985"><ele>830.0</ele><time>2026-04-26T12:42:53.662Z</time></trkpt><trkpt lat="42.2852314" lon="13.0781484"><ele>830.0</ele><time>2026-04-26T12:42:54.661Z</time></trkpt><trkpt lat="42.2851924" lon="13.0782972"><ele>830.0</ele><time>2026-04-26T12:42:55.662Z</time></trkpt><trkpt lat="42.2851435" lon="13.0784204"><ele>830.0</ele><time>2026-04-26T12:42:56.662Z</time></trkpt><trkpt lat="42.2850654" lon="13.0785028"><ele>830.0</ele><time>2026-04-26T12:42:57.662Z</time></trkpt><trkpt lat="42.2849818" lon="13.0785529"><ele>830.2</ele><time>2026-04-26T12:42:58.661Z</time></trkpt><trkpt lat="42.284886" lon="13.0785444"><ele>830.4</ele><time>2026-04-26T12:42:59.66Z</time></trkpt><trkpt lat="42.2847811" lon="13.0784979"><ele>830.5999999999999</ele><time>2026-04-26T12:43:00.661Z</time></trkpt><trkpt lat="42.2846906" lon="13.0784243"><ele>830.8</ele><time>2026-04-26T12:43:01.66Z</time></trkpt><trkpt lat="42.2845858" lon="13.0784061"><ele>831.0</ele><time>2026-04-26T12:43:02.661Z</time></trkpt><trkpt lat="42.2844804" lon="13.078432"><ele>831.0</ele><time>2026-04-26T12:43:03.661Z</time></trkpt><trkpt lat="42.2843858" lon="13.0785063"><ele>831.0</ele><time>2026-04-26T12:43:04.662Z</time></trkpt><trkpt lat="42.2842932" lon="13.078599"><ele>831.0</ele><time>2026-04-26T12:43:05.662Z</time></trkpt><trkpt lat="42.2841828" lon="13.0786525"><ele>831.0</ele><time>2026-04-26T12:43:06.662Z</time></trkpt><trkpt lat="42.2840638" lon="13.078669"><ele>831.0</ele><time>2026-04-26T12:43:07.662Z</time></trkpt><trkpt lat="42.2839405" lon="13.078635"><ele>831.0</ele><time>2026-04-26T12:43:08.662Z</time></trkpt><trkpt lat="42.2838211" lon="13.0785711"><ele>831.0</ele><time>2026-04-26T12:43:09.66Z</time></trkpt><trkpt lat="42.2837053" lon="13.0784753"><ele>831.0</ele><time>2026-04-26T12:43:10.661Z</time></trkpt><trkpt lat="42.283571" lon="13.0783826"><ele>832.75</ele><time>2026-04-26T12:43:11.662Z</time></trkpt><trkpt lat="42.283426" lon="13.0783156"><ele>834.5</ele><time>2026-04-26T12:43:12.662Z</time></trkpt><trkpt lat="42.2832848" lon="13.0782711"><ele>836.25</ele><time>2026-04-26T12:43:13.661Z</time></trkpt><trkpt lat="42.2831539" lon="13.0782337"><ele>838.0</ele><time>2026-04-26T12:43:14.662Z</time></trkpt><trkpt lat="42.2830333" lon="13.0781943"><ele>836.0</ele><time>2026-04-26T12:43:15.662Z</time></trkpt><trkpt lat="42.2829321" lon="13.0781748"><ele>834.0</ele><time>2026-04-26T12:43:16.66Z</time></trkpt><trkpt lat="42.2828256" lon="13.0781606"><ele>832.0</ele><time>2026-04-26T12:43:17.661Z</time></trkpt><trkpt lat="42.2827485" lon="13.0782648"><ele>830.0</ele><time>2026-04-26T12:43:18.661Z</time></trkpt><trkpt lat="42.282687" lon="13.0783835"><ele>828.0</ele><time>2026-04-26T12:43:19.662Z</time></trkpt><trkpt lat="42.2826095" lon="13.0785216"><ele>828.0</ele><time>2026-04-26T12:43:20.662Z</time></trkpt><trkpt lat="42.2825128" lon="13.0786361"><ele>828.0</ele><time>2026-04-26T12:43:21.661Z</time></trkpt><trkpt lat="42.2824023" lon="13.078713"><ele>828.0</ele><time>2026-04-26T12:43:22.661Z</time></trkpt><trkpt lat="42.2822756" lon="13.078748"><ele>828.0</ele><time>2026-04-26T12:43:23.662Z</time></trkpt><trkpt lat="42.2821412" lon="13.0787383"><ele>826.25</ele><time>2026-04-26T12:43:24.66Z</time></trkpt><trkpt lat="42.2820073" lon="13.0786874"><ele>824.5</ele><time>2026-04-26T12:43:25.661Z</time></trkpt><trkpt lat="42.281878" lon="13.0786349"><ele>822.75</ele><time>2026-04-26T12:43:26.661Z</time></trkpt><trkpt lat="42.281754" lon="13.0785789"><ele>821.0</ele><time>2026-04-26T12:43:27.662Z</time></trkpt><trkpt lat="42.2816224" lon="13.0785622"><ele>821.0</ele><time>2026-04-26T12:43:28.661Z</time></trkpt><trkpt lat="42.2814896" lon="13.0785481"><ele>821.0</ele><time>2026-04-26T12:43:29.66Z</time></trkpt><trkpt lat="42.2813687" lon="13.0786608"><ele>821.0</ele><time>2026-04-26T12:43:30.661Z</time></trkpt><trkpt lat="42.2812402" lon="13.0787228"><ele>821.0</ele><time>2026-04-26T12:43:31.662Z</time></trkpt><trkpt lat="42.2810786" lon="13.0787806"><ele>817.6666666666667</ele><time>2026-04-26T12:43:32.661Z</time></trkpt><trkpt lat="42.2809352" lon="13.0788486"><ele>814.3333333333333</ele><time>2026-04-26T12:43:33.661Z</time></trkpt><trkpt lat="42.2808012" lon="13.0789453"><ele>811.0</ele><time>2026-04-26T12:43:34.662Z</time></trkpt><trkpt lat="42.2806547" lon="13.0789966"><ele>812.5</ele><time>2026-04-26T12:43:35.66Z</time></trkpt><trkpt lat="42.280502" lon="13.0790208"><ele>814.0</ele><time>2026-04-26T12:43:36.66Z</time></trkpt><trkpt lat="42.2803663" lon="13.0790517"><ele>815.5</ele><time>2026-04-26T12:43:37.661Z</time></trkpt><trkpt lat="42.2802451" lon="13.0791161"><ele>817.0</ele><time>2026-04-26T12:43:38.661Z</time></trkpt><trkpt lat="42.2801403" lon="13.079231"><ele>817.0</ele><time>2026-04-26T12:43:39.661Z</time></trkpt><trkpt lat="42.2800612" lon="13.0793889"><ele>817.0</ele><time>2026-04-26T12:43:40.662Z</time></trkpt><trkpt lat="42.2799933" lon="13.0795706"><ele>817.0</ele><time>2026-04-26T12:43:41.661Z</time></trkpt><trkpt lat="42.2799297" lon="13.079762"><ele>817.0</ele><time>2026-04-26T12:43:42.66Z</time></trkpt><trkpt lat="42.279859" lon="13.0799465"><ele>821.25</ele><time>2026-04-26T12:43:43.66Z</time></trkpt><trkpt lat="42.2797934" lon="13.0801145"><ele>825.5</ele><time>2026-04-26T12:43:44.661Z</time></trkpt><trkpt lat="42.2797431" lon="13.0802664"><ele>829.75</ele><time>2026-04-26T12:43:45.661Z</time></trkpt><trkpt lat="42.2796966" lon="13.0804237"><ele>834.0</ele><time>2026-04-26T12:43:46.661Z</time></trkpt><trkpt lat="42.2797167" lon="13.0806023"><ele>826.25</ele><time>2026-04-26T12:43:47.661Z</time></trkpt><trkpt lat="42.279726" lon="13.0807969"><ele>818.5</ele><time>2026-04-26T12:43:48.662Z</time></trkpt><trkpt lat="42.2797282" lon="13.0809967"><ele>810.75</ele><time>2026-04-26T12:43:49.662Z</time></trkpt><trkpt lat="42.2797116" lon="13.0811875"><ele>803.0</ele><time>2026-04-26T12:43:50.661Z</time></trkpt><trkpt lat="42.2796779" lon="13.0813671"><ele>803.0</ele><time>2026-04-26T12:43:51.661Z</time></trkpt><trkpt lat="42.2796149" lon="13.0815384"><ele>803.0</ele><time>2026-04-26T12:43:52.661Z</time></trkpt><trkpt lat="42.279536" lon="13.0816974"><ele>803.0</ele><time>2026-04-26T12:43:53.662Z</time></trkpt><trkpt lat="42.2794562" lon="13.0818545"><ele>803.0</ele><time>2026-04-26T12:43:54.662Z</time></trkpt><trkpt lat="42.2793778" lon="13.0820081"><ele>806.0</ele><time>2026-04-26T12:43:55.661Z</time></trkpt><trkpt lat="42.2793047" lon="13.0821435"><ele>809.0</ele><time>2026-04-26T12:43:56.662Z</time></trkpt><trkpt lat="42.2792213" lon="13.0822417"><ele>812.0</ele><time>2026-04-26T12:43:57.662Z</time></trkpt><trkpt lat="42.279138" lon="13.0822928"><ele>815.0</ele><time>2026-04-26T12:43:58.661Z</time></trkpt><trkpt lat="42.2790569" lon="13.0822869"><ele>818.0</ele><time>2026-04-26T12:43:59.661Z</time></trkpt><trkpt lat="42.2789796" lon="13.0822356"><ele>818.0</ele><time>2026-04-26T12:44:00.66Z</time></trkpt><trkpt lat="42.2788899" lon="13.0821473"><ele>818.0</ele><time>2026-04-26T12:44:01.661Z</time></trkpt><trkpt lat="42.2787874" lon="13.0820644"><ele>818.0</ele><time>2026-04-26T12:44:02.662Z</time></trkpt><trkpt lat="42.27866" lon="13.0820039"><ele>818.0</ele><time>2026-04-26T12:44:03.662Z</time></trkpt><trkpt lat="42.2785228" lon="13.0819637"><ele>818.0</ele><time>2026-04-26T12:44:04.661Z</time></trkpt><trkpt lat="42.2783923" lon="13.081927"><ele>818.0</ele><time>2026-04-26T12:44:05.661Z</time></trkpt><trkpt lat="42.2782673" lon="13.0818952"><ele>818.0</ele><time>2026-04-26T12:44:06.662Z</time></trkpt><trkpt lat="42.2781542" lon="13.0818687"><ele>818.0</ele><time>2026-04-26T12:44:07.662Z</time></trkpt><trkpt lat="42.2780569" lon="13.0818623"><ele>815.5999999999999</ele><time>2026-04-26T12:44:08.661Z</time></trkpt><trkpt lat="42.2779737" lon="13.081884"><ele>813.1999999999999</ele><time>2026-04-26T12:44:09.661Z</time></trkpt><trkpt lat="42.2778946" lon="13.0819391"><ele>810.8</ele><time>2026-04-26T12:44:10.661Z</time></trkpt><trkpt lat="42.2778353" lon="13.0820383"><ele>808.4</ele><time>2026-04-26T12:44:11.66Z</time></trkpt><trkpt lat="42.2777987" lon="13.0821839"><ele>806.0</ele><time>2026-04-26T12:44:12.661Z</time></trkpt><trkpt lat="42.2777852" lon="13.0823531"><ele>806.6666666666667</ele><time>2026-04-26T12:44:13.662Z</time></trkpt><trkpt lat="42.2777841" lon="13.0825421"><ele>807.3333333333333</ele><time>2026-04-26T12:44:14.662Z</time></trkpt><trkpt lat="42.2777729" lon="13.0827569"><ele>808.0</ele><time>2026-04-26T12:44:15.662Z</time></trkpt><trkpt lat="42.2777559" lon="13.082984"><ele>808.0</ele><time>2026-04-26T12:44:16.661Z</time></trkpt><trkpt lat="42.2777383" lon="13.0832154"><ele>808.0</ele><time>2026-04-26T12:44:17.662Z</time></trkpt><trkpt lat="42.2776994" lon="13.0834468"><ele>808.0</ele><time>2026-04-26T12:44:18.66Z</time></trkpt><trkpt lat="42.27765" lon="13.0836697"><ele>810.6666666666666</ele><time>2026-04-26T12:44:19.662Z</time></trkpt><trkpt lat="42.2776192" lon="13.0838982"><ele>813.3333333333333</ele><time>2026-04-26T12:44:20.662Z</time></trkpt><trkpt lat="42.2776067" lon="13.084108"><ele>816.0</ele><time>2026-04-26T12:44:21.662Z</time></trkpt><trkpt lat="42.277585" lon="13.0843041"><ele>820.0</ele><time>2026-04-26T12:44:22.66Z</time></trkpt><trkpt lat="42.2775383" lon="13.08449"><ele>824.0</ele><time>2026-04-26T12:44:23.661Z</time></trkpt><trkpt lat="42.2774627" lon="13.0846712"><ele>828.0</ele><time>2026-04-26T12:44:24.66Z</time></trkpt><trkpt lat="42.2773825" lon="13.0848502"><ele>824.6666666666667</ele><time>2026-04-26T12:44:25.661Z</time></trkpt><trkpt lat="42.2773133" lon="13.0850353"><ele>821.3333333333334</ele><time>2026-04-26T12:44:26.661Z</time></trkpt><trkpt lat="42.2772653" lon="13.0852215"><ele>818.0</ele><time>2026-04-26T12:44:27.661Z</time></trkpt><trkpt lat="42.2772384" lon="13.0854252"><ele>818.0</ele><time>2026-04-26T12:44:28.66Z</time></trkpt><trkpt lat="42.2772404" lon="13.0856402"><ele>818.0</ele><time>2026-04-26T12:44:29.661Z</time></trkpt><trkpt lat="42.2772559" lon="13.0858592"><ele>818.0</ele><time>2026-04-26T12:44:30.661Z</time></trkpt><trkpt lat="42.2772877" lon="13.0860764"><ele>828.3333333333334</ele><time>2026-04-26T12:44:31.661Z</time></trkpt><trkpt lat="42.277323" lon="13.0862898"><ele>838.6666666666667</ele><time>2026-04-26T12:44:32.66Z</time></trkpt><trkpt lat="42.2773551" lon="13.0864933"><ele>849.0</ele><time>2026-04-26T12:44:33.661Z</time></trkpt><trkpt lat="42.2773777" lon="13.0866887"><ele>850.0</ele><time>2026-04-26T12:44:34.662Z</time></trkpt><trkpt lat="42.2773809" lon="13.0868733"><ele>851.0</ele><time>2026-04-26T12:44:35.661Z</time></trkpt><trkpt lat="42.2773721" lon="13.0870402"><ele>852.0</ele><time>2026-04-26T12:44:36.662Z</time></trkpt><trkpt lat="42.2773478" lon="13.087188"><ele>853.0</ele><time>2026-04-26T12:44:37.661Z</time></trkpt><trkpt lat="42.2772945" lon="13.0873262"><ele>855.5999999999999</ele><time>2026-04-26T12:44:38.662Z</time></trkpt><trkpt lat="42.2772187" lon="13.0874418"><ele>858.1999999999999</ele><time>2026-04-26T12:44:39.66Z</time></trkpt><trkpt lat="42.2771395" lon="13.087517"><ele>860.8</ele><time>2026-04-26T12:44:40.66Z</time></trkpt><trkpt lat="42.2770661" lon="13.0875365"><ele>863.4</ele><time>2026-04-26T12:44:41.661Z</time></trkpt><trkpt lat="42.2769806" lon="13.0875052"><ele>866.0</ele><time>2026-04-26T12:44:42.661Z</time></trkpt><trkpt lat="42.2768941" lon="13.0874442"><ele>860.25</ele><time>2026-04-26T12:44:43.661Z</time></trkpt><trkpt lat="42.2767826" lon="13.0873151"><ele>854.5</ele><time>2026-04-26T12:44:44.66Z</time></trkpt><trkpt lat="42.2766675" lon="13.0872152"><ele>848.75</ele><time>2026-04-26T12:44:45.659Z</time></trkpt><trkpt lat="42.2765491" lon="13.0870881"><ele>843.0</ele><time>2026-04-26T12:44:46.66Z</time></trkpt><trkpt lat="42.27645" lon="13.0869303"><ele>843.0</ele><time>2026-04-26T12:44:47.659Z</time></trkpt><trkpt lat="42.2763692" lon="13.0867579"><ele>843.0</ele><time>2026-04-26T12:44:48.66Z</time></trkpt><trkpt lat="42.2762846" lon="13.0865934"><ele>843.0</ele><time>2026-04-26T12:44:49.66Z</time></trkpt><trkpt lat="42.2762053" lon="13.0864426"><ele>843.0</ele><time>2026-04-26T12:44:50.661Z</time></trkpt><trkpt lat="42.2761249" lon="13.0863149"><ele>843.0</ele><time>2026-04-26T12:44:51.661Z</time></trkpt><trkpt lat="42.27602" lon="13.0862363"><ele>843.0</ele><time>2026-04-26T12:44:52.661Z</time></trkpt><trkpt lat="42.2759046" lon="13.0862588"><ele>843.0</ele><time>2026-04-26T12:44:53.659Z</time></trkpt><trkpt lat="42.2757874" lon="13.0862665"><ele>843.0</ele><time>2026-04-26T12:44:54.66Z</time></trkpt><trkpt lat="42.2756612" lon="13.0863105"><ele>844.0</ele><time>2026-04-26T12:44:55.66Z</time></trkpt><trkpt lat="42.2755373" lon="13.0863689"><ele>845.0</ele><time>2026-04-26T12:44:56.66Z</time></trkpt><trkpt lat="42.2754208" lon="13.0864606"><ele>846.0</ele><time>2026-04-26T12:44:57.659Z</time></trkpt><trkpt lat="42.2753097" lon="13.0865712"><ele>847.0</ele><time>2026-04-26T12:44:58.66Z</time></trkpt><trkpt lat="42.2751978" lon="13.0866621"><ele>853.3333333333333</ele><time>2026-04-26T12:44:59.659Z</time></trkpt><trkpt lat="42.2750692" lon="13.0867152"><ele>859.6666666666667</ele><time>2026-04-26T12:45:00.66Z</time></trkpt><trkpt lat="42.274921" lon="13.0867415"><ele>866.0</ele><time>2026-04-26T12:45:01.659Z</time></trkpt><trkpt lat="42.2747532" lon="13.0867422"><ele>868.0</ele><time>2026-04-26T12:45:02.66Z</time></trkpt><trkpt lat="42.2745891" lon="13.0867527"><ele>870.0</ele><time>2026-04-26T12:45:03.661Z</time></trkpt><trkpt lat="42.2744258" lon="13.0867654"><ele>872.0</ele><time>2026-04-26T12:45:04.66Z</time></trkpt><trkpt lat="42.2742759" lon="13.0867816"><ele>872.0</ele><time>2026-04-26T12:45:05.659Z</time></trkpt><trkpt lat="42.2741354" lon="13.0867966"><ele>872.0</ele><time>2026-04-26T12:45:06.66Z</time></trkpt><trkpt lat="42.2739994" lon="13.0868248"><ele>872.0</ele><time>2026-04-26T12:45:07.659Z</time></trkpt><trkpt lat="42.2738785" lon="13.0868338"><ele>872.0</ele><time>2026-04-26T12:45:08.66Z</time></trkpt><trkpt lat="42.2737814" lon="13.0867165"><ele>871.6</ele><time>2026-04-26T12:45:10.66Z</time></trkpt><trkpt lat="42.2737682" lon="13.0866268"><ele>871.2</ele><time>2026-04-26T12:45:11.661Z</time></trkpt><trkpt lat="42.2737867" lon="13.0865142"><ele>870.8</ele><time>2026-04-26T12:45:12.661Z</time></trkpt><trkpt lat="42.2738338" lon="13.0863827"><ele>870.4</ele><time>2026-04-26T12:45:13.661Z</time></trkpt><trkpt lat="42.2739021" lon="13.0862427"><ele>870.0</ele><time>2026-04-26T12:45:14.66Z</time></trkpt><trkpt lat="42.2739633" lon="13.0860827"><ele>870.0</ele><time>2026-04-26T12:45:15.66Z</time></trkpt><trkpt lat="42.2740012" lon="13.0858828"><ele>870.0</ele><time>2026-04-26T12:45:16.66Z</time></trkpt><trkpt lat="42.2740256" lon="13.0856668"><ele>870.0</ele><time>2026-04-26T12:45:17.66Z</time></trkpt><trkpt lat="42.2740594" lon="13.0854408"><ele>873.0</ele><time>2026-04-26T12:45:18.66Z</time></trkpt><trkpt lat="42.2741213" lon="13.0852092"><ele>876.0</ele><time>2026-04-26T12:45:19.661Z</time></trkpt><trkpt lat="42.2741879" lon="13.0849887"><ele>879.0</ele><time>2026-04-26T12:45:20.66Z</time></trkpt><trkpt lat="42.2742513" lon="13.0847777"><ele>880.5</ele><time>2026-04-26T12:45:21.66Z</time></trkpt><trkpt lat="42.2743045" lon="13.0845991"><ele>882.0</ele><time>2026-04-26T12:45:22.659Z</time></trkpt><trkpt lat="42.2743458" lon="13.0844487"><ele>883.5</ele><time>2026-04-26T12:45:23.66Z</time></trkpt><trkpt lat="42.2743676" lon="13.0843167"><ele>885.0</ele><time>2026-04-26T12:45:24.66Z</time></trkpt><trkpt lat="42.2743544" lon="13.0841915"><ele>883.0</ele><time>2026-04-26T12:45:25.659Z</time></trkpt><trkpt lat="42.2743143" lon="13.0840646"><ele>881.0</ele><time>2026-04-26T12:45:26.66Z</time></trkpt><trkpt lat="42.2742571" lon="13.0839256"><ele>879.0</ele><time>2026-04-26T12:45:27.66Z</time></trkpt><trkpt lat="42.2742021" lon="13.0837727"><ele>877.0</ele><time>2026-04-26T12:45:28.66Z</time></trkpt><trkpt lat="42.2741552" lon="13.08363"><ele>877.0</ele><time>2026-04-26T12:45:29.66Z</time></trkpt><trkpt lat="42.2741175" lon="13.0835005"><ele>877.0</ele><time>2026-04-26T12:45:30.66Z</time></trkpt><trkpt lat="42.2740675" lon="13.0833923"><ele>877.0</ele><time>2026-04-26T12:45:31.66Z</time></trkpt><trkpt lat="42.2739902" lon="13.0833346"><ele>877.0</ele><time>2026-04-26T12:45:32.66Z</time></trkpt><trkpt lat="42.2738914" lon="13.0833106"><ele>877.0</ele><time>2026-04-26T12:45:33.661Z</time></trkpt><trkpt lat="42.2737788" lon="13.0833361"><ele>876.25</ele><time>2026-04-26T12:45:34.66Z</time></trkpt><trkpt lat="42.2736555" lon="13.0834045"><ele>875.5</ele><time>2026-04-26T12:45:35.661Z</time></trkpt><trkpt lat="42.273529" lon="13.0834788"><ele>874.75</ele><time>2026-04-26T12:45:36.659Z</time></trkpt><trkpt lat="42.2733935" lon="13.0835527"><ele>874.0</ele><time>2026-04-26T12:45:37.66Z</time></trkpt><trkpt lat="42.2732545" lon="13.0836241"><ele>874.0</ele><time>2026-04-26T12:45:38.66Z</time></trkpt><trkpt lat="42.2731208" lon="13.083692"><ele>874.0</ele><time>2026-04-26T12:45:39.66Z</time></trkpt><trkpt lat="42.2729988" lon="13.0837521"><ele>874.0</ele><time>2026-04-26T12:45:40.661Z</time></trkpt><trkpt lat="42.2728928" lon="13.0838032"><ele>874.0</ele><time>2026-04-26T12:45:41.66Z</time></trkpt><trkpt lat="42.2728041" lon="13.0838681"><ele>872.9999999999999</ele><time>2026-04-26T12:45:42.661Z</time></trkpt><trkpt lat="42.2727323" lon="13.0839699"><ele>872.0</ele><time>2026-04-26T12:45:43.659Z</time></trkpt><trkpt lat="42.2726851" lon="13.0840794"><ele>871.0</ele><time>2026-04-26T12:45:44.66Z</time></trkpt><trkpt lat="42.2726521" lon="13.0841787"><ele>870.0</ele><time>2026-04-26T12:45:45.66Z</time></trkpt><trkpt lat="42.272617" lon="13.0842776"><ele>868.9999999999999</ele><time>2026-04-26T12:45:46.66Z</time></trkpt><trkpt lat="42.2725861" lon="13.0843837"><ele>868.0</ele><time>2026-04-26T12:45:47.659Z</time></trkpt><trkpt lat="42.2725553" lon="13.0844929"><ele>871.8</ele><time>2026-04-26T12:45:48.66Z</time></trkpt><trkpt lat="42.272518" lon="13.0846176"><ele>875.5999999999999</ele><time>2026-04-26T12:45:49.661Z</time></trkpt><trkpt lat="42.2724786" lon="13.0847575"><ele>879.4000000000001</ele><time>2026-04-26T12:45:50.659Z</time></trkpt><trkpt lat="42.2724369" lon="13.0848996"><ele>883.2</ele><time>2026-04-26T12:45:51.66Z</time></trkpt><trkpt lat="42.2723975" lon="13.0850379"><ele>887.0</ele><time>2026-04-26T12:45:52.66Z</time></trkpt><trkpt lat="42.2723617" lon="13.0851656"><ele>886.5000000000001</ele><time>2026-04-26T12:45:53.66Z</time></trkpt><trkpt lat="42.2723191" lon="13.0852722"><ele>886.0</ele><time>2026-04-26T12:45:54.659Z</time></trkpt><trkpt lat="42.2722656" lon="13.0853546"><ele>885.5</ele><time>2026-04-26T12:45:55.659Z</time></trkpt><trkpt lat="42.2721958" lon="13.0854084"><ele>885.0</ele><time>2026-04-26T12:45:56.66Z</time></trkpt><trkpt lat="42.2721147" lon="13.0854253"><ele>884.5000000000001</ele><time>2026-04-26T12:45:57.66Z</time></trkpt><trkpt lat="42.272022" lon="13.0854148"><ele>884.0</ele><time>2026-04-26T12:45:58.66Z</time></trkpt><trkpt lat="42.2719159" lon="13.0853816"><ele>884.0</ele><time>2026-04-26T12:45:59.66Z</time></trkpt><trkpt lat="42.2718152" lon="13.085353"><ele>884.0000000000001</ele><time>2026-04-26T12:46:00.659Z</time></trkpt><trkpt lat="42.2717199" lon="13.0853238"><ele>884.0000000000001</ele><time>2026-04-26T12:46:01.66Z</time></trkpt><trkpt lat="42.2716293" lon="13.0852989"><ele>884.0</ele><time>2026-04-26T12:46:02.66Z</time></trkpt><trkpt lat="42.2715475" lon="13.0852899"><ele>884.0</ele><time>2026-04-26T12:46:03.661Z</time></trkpt><trkpt lat="42.2714668" lon="13.0852765"><ele>881.8333333333334</ele><time>2026-04-26T12:46:04.659Z</time></trkpt><trkpt lat="42.2714048" lon="13.0852945"><ele>879.6666666666667</ele><time>2026-04-26T12:46:05.659Z</time></trkpt><trkpt lat="42.2713747" lon="13.0854053"><ele>877.5</ele><time>2026-04-26T12:46:08.659Z</time></trkpt><trkpt lat="42.2713627" lon="13.0855437"><ele>875.3333333333333</ele><time>2026-04-26T12:46:10.66Z</time></trkpt><trkpt lat="42.2713774" lon="13.0856626"><ele>873.1666666666666</ele><time>2026-04-26T12:46:11.661Z</time></trkpt><trkpt lat="42.2713813" lon="13.0857861"><ele>871.0</ele><time>2026-04-26T12:46:12.66Z</time></trkpt><trkpt lat="42.2713617" lon="13.0859364"><ele>870.0</ele><time>2026-04-26T12:46:13.661Z</time></trkpt><trkpt lat="42.2713264" lon="13.0860657"><ele>869.0</ele><time>2026-04-26T12:46:14.66Z</time></trkpt><trkpt lat="42.2712473" lon="13.0862096"><ele>868.0</ele><time>2026-04-26T12:46:15.66Z</time></trkpt><trkpt lat="42.2711683" lon="13.0863272"><ele>867.0</ele><time>2026-04-26T12:46:16.66Z</time></trkpt><trkpt lat="42.2710864" lon="13.0864646"><ele>869.75</ele><time>2026-04-26T12:46:17.66Z</time></trkpt><trkpt lat="42.2709935" lon="13.0866154"><ele>872.5</ele><time>2026-04-26T12:46:18.66Z</time></trkpt><trkpt lat="42.2709222" lon="13.0867572"><ele>875.25</ele><time>2026-04-26T12:46:19.66Z</time></trkpt><trkpt lat="42.2708455" lon="13.0868949"><ele>878.0</ele><time>2026-04-26T12:46:20.66Z</time></trkpt><trkpt lat="42.2707795" lon="13.0870279"><ele>878.0</ele><time>2026-04-26T12:46:21.66Z</time></trkpt><trkpt lat="42.2707129" lon="13.0871542"><ele>878.0</ele><time>2026-04-26T12:46:22.66Z</time></trkpt><trkpt lat="42.2706713" lon="13.0872793"><ele>878.0</ele><time>2026-04-26T12:46:23.66Z</time></trkpt><trkpt lat="42.2706636" lon="13.0874161"><ele>878.0</ele><time>2026-04-26T12:46:24.66Z</time></trkpt><trkpt lat="42.2706785" lon="13.0875581"><ele>878.0</ele><time>2026-04-26T12:46:25.659Z</time></trkpt><trkpt lat="42.2706734" lon="13.0876979"><ele>879.8</ele><time>2026-04-26T12:46:26.659Z</time></trkpt><trkpt lat="42.2706402" lon="13.087829"><ele>881.5999999999999</ele><time>2026-04-26T12:46:27.659Z</time></trkpt><trkpt lat="42.2705875" lon="13.0879212"><ele>883.4000000000001</ele><time>2026-04-26T12:46:28.66Z</time></trkpt><trkpt lat="42.2705153" lon="13.0879704"><ele>885.2</ele><time>2026-04-26T12:46:29.66Z</time></trkpt><trkpt lat="42.2704253" lon="13.0879848"><ele>887.0</ele><time>2026-04-26T12:46:30.659Z</time></trkpt><trkpt lat="42.2703214" lon="13.0879888"><ele>884.4000000000001</ele><time>2026-04-26T12:46:31.659Z</time></trkpt><trkpt lat="42.2702195" lon="13.0880089"><ele>881.8000000000001</ele><time>2026-04-26T12:46:32.66Z</time></trkpt><trkpt lat="42.2701152" lon="13.0880462"><ele>879.2</ele><time>2026-04-26T12:46:33.66Z</time></trkpt><trkpt lat="42.2700182" lon="13.0881133"><ele>876.6</ele><time>2026-04-26T12:46:34.66Z</time></trkpt><trkpt lat="42.2699241" lon="13.0882021"><ele>874.0</ele><time>2026-04-26T12:46:35.661Z</time></trkpt><trkpt lat="42.2698347" lon="13.088308"><ele>869.5</ele><time>2026-04-26T12:46:36.66Z</time></trkpt><trkpt lat="42.2697511" lon="13.0884194"><ele>865.0</ele><time>2026-04-26T12:46:37.66Z</time></trkpt><trkpt lat="42.2696702" lon="13.0885315"><ele>860.5</ele><time>2026-04-26T12:46:38.659Z</time></trkpt><trkpt lat="42.2695925" lon="13.0886444"><ele>856.0</ele><time>2026-04-26T12:46:39.66Z</time></trkpt><trkpt lat="42.2695157" lon="13.0887534"><ele>856.0</ele><time>2026-04-26T12:46:40.66Z</time></trkpt><trkpt lat="42.2694453" lon="13.0888575"><ele>855.9999999999999</ele><time>2026-04-26T12:46:41.659Z</time></trkpt><trkpt lat="42.2693747" lon="13.08896"><ele>855.9999999999999</ele><time>2026-04-26T12:46:42.661Z</time></trkpt><trkpt lat="42.2693059" lon="13.0890556"><ele>856.0</ele><time>2026-04-26T12:46:43.661Z</time></trkpt><trkpt lat="42.2692435" lon="13.0891401"><ele>856.0</ele><time>2026-04-26T12:46:44.659Z</time></trkpt><trkpt lat="42.2691969" lon="13.0892228"><ele>857.8</ele><time>2026-04-26T12:46:45.659Z</time></trkpt><trkpt lat="42.2691649" lon="13.0893111"><ele>859.5999999999999</ele><time>2026-04-26T12:46:46.66Z</time></trkpt><trkpt lat="42.2691682" lon="13.0893974"><ele>861.4</ele><time>2026-04-26T12:46:47.659Z</time></trkpt><trkpt lat="42.2692686" lon="13.0895261"><ele>863.2</ele><time>2026-04-26T12:46:49.661Z</time></trkpt><trkpt lat="42.2693604" lon="13.0895622"><ele>865.0</ele><time>2026-04-26T12:46:50.66Z</time></trkpt><trkpt lat="42.2694614" lon="13.0895951"><ele>865.0</ele><time>2026-04-26T12:46:51.661Z</time></trkpt><trkpt lat="42.2695695" lon="13.0896301"><ele>865.0</ele><time>2026-04-26T12:46:52.661Z</time></trkpt><trkpt lat="42.2696781" lon="13.0896666"><ele>865.0</ele><time>2026-04-26T12:46:53.658Z</time></trkpt><trkpt lat="42.269775" lon="13.0897062"><ele>865.0</ele><time>2026-04-26T12:46:54.66Z</time></trkpt><trkpt lat="42.269855" lon="13.0897607"><ele>865.0</ele><time>2026-04-26T12:46:55.658Z</time></trkpt><trkpt lat="42.2699419" lon="13.0898168"><ele>866.0</ele><time>2026-04-26T12:46:56.66Z</time></trkpt><trkpt lat="42.2699758" lon="13.0899645"><ele>867.0</ele><time>2026-04-26T12:46:57.659Z</time></trkpt><trkpt lat="42.2700096" lon="13.0900787"><ele>868.0</ele><time>2026-04-26T12:46:58.659Z</time></trkpt><trkpt lat="42.2700134" lon="13.0902197"><ele>869.0</ele><time>2026-04-26T12:46:59.659Z</time></trkpt><trkpt lat="42.2700102" lon="13.0903787"><ele>870.0</ele><time>2026-04-26T12:47:00.659Z</time></trkpt><trkpt lat="42.2700023" lon="13.090559"><ele>870.75</ele><time>2026-04-26T12:47:01.66Z</time></trkpt><trkpt lat="42.2699977" lon="13.0907579"><ele>871.5</ele><time>2026-04-26T12:47:02.659Z</time></trkpt><trkpt lat="42.2699923" lon="13.0909618"><ele>872.25</ele><time>2026-04-26T12:47:03.659Z</time></trkpt><trkpt lat="42.269979" lon="13.0911603"><ele>873.0</ele><time>2026-04-26T12:47:04.66Z</time></trkpt><trkpt lat="42.2699643" lon="13.0913501"><ele>873.0</ele><time>2026-04-26T12:47:05.66Z</time></trkpt><trkpt lat="42.2699509" lon="13.0915318"><ele>873.0</ele><time>2026-04-26T12:47:06.66Z</time></trkpt><trkpt lat="42.2699366" lon="13.0916941"><ele>873.0</ele><time>2026-04-26T12:47:07.658Z</time></trkpt><trkpt lat="42.2699305" lon="13.0918366"><ele>873.0</ele><time>2026-04-26T12:47:08.66Z</time></trkpt><trkpt lat="42.2699646" lon="13.09196"><ele>874.0</ele><time>2026-04-26T12:47:09.659Z</time></trkpt><trkpt lat="42.2700362" lon="13.0920787"><ele>875.0</ele><time>2026-04-26T12:47:10.66Z</time></trkpt><trkpt lat="42.2701261" lon="13.0921925"><ele>876.0</ele><time>2026-04-26T12:47:11.66Z</time></trkpt><trkpt lat="42.2702311" lon="13.092311"><ele>877.0</ele><time>2026-04-26T12:47:12.659Z</time></trkpt><trkpt lat="42.2703393" lon="13.0924331"><ele>873.75</ele><time>2026-04-26T12:47:13.66Z</time></trkpt><trkpt lat="42.2704516" lon="13.0925545"><ele>870.5</ele><time>2026-04-26T12:47:14.658Z</time></trkpt><trkpt lat="42.2705593" lon="13.0926622"><ele>867.25</ele><time>2026-04-26T12:47:15.66Z</time></trkpt><trkpt lat="42.2706648" lon="13.0927639"><ele>864.0</ele><time>2026-04-26T12:47:16.659Z</time></trkpt><trkpt lat="42.2707636" lon="13.0928709"><ele>866.5</ele><time>2026-04-26T12:47:17.66Z</time></trkpt><trkpt lat="42.2708502" lon="13.0929894"><ele>869.0</ele><time>2026-04-26T12:47:18.659Z</time></trkpt><trkpt lat="42.2709178" lon="13.0931238"><ele>871.5</ele><time>2026-04-26T12:47:19.659Z</time></trkpt><trkpt lat="42.2709606" lon="13.0932825"><ele>874.0</ele><time>2026-04-26T12:47:20.659Z</time></trkpt><trkpt lat="42.2709764" lon="13.0934557"><ele>874.0</ele><time>2026-04-26T12:47:21.66Z</time></trkpt><trkpt lat="42.2709824" lon="13.0936363"><ele>874.0</ele><time>2026-04-26T12:47:22.659Z</time></trkpt><trkpt lat="42.2709888" lon="13.0938153"><ele>874.0</ele><time>2026-04-26T12:47:23.659Z</time></trkpt><trkpt lat="42.270987" lon="13.0939829"><ele>874.0</ele><time>2026-04-26T12:47:24.659Z</time></trkpt><trkpt lat="42.2709683" lon="13.0941373"><ele>873.75</ele><time>2026-04-26T12:47:25.659Z</time></trkpt><trkpt lat="42.2709212" lon="13.0942724"><ele>873.5</ele><time>2026-04-26T12:47:26.659Z</time></trkpt><trkpt lat="42.270842" lon="13.0943856"><ele>873.25</ele><time>2026-04-26T12:47:27.66Z</time></trkpt><trkpt lat="42.2707434" lon="13.094464"><ele>873.0</ele><time>2026-04-26T12:47:28.659Z</time></trkpt><trkpt lat="42.2706376" lon="13.0945182"><ele>869.5</ele><time>2026-04-26T12:47:29.66Z</time></trkpt><trkpt lat="42.2705313" lon="13.0945896"><ele>866.0</ele><time>2026-04-26T12:47:30.659Z</time></trkpt><trkpt lat="42.2704276" lon="13.0946955"><ele>862.5</ele><time>2026-04-26T12:47:31.66Z</time></trkpt><trkpt lat="42.2703389" lon="13.0948406"><ele>859.0</ele><time>2026-04-26T12:47:32.658Z</time></trkpt><trkpt lat="42.2702628" lon="13.095006"><ele>859.0</ele><time>2026-04-26T12:47:33.659Z</time></trkpt><trkpt lat="42.270218" lon="13.095184"><ele>859.0</ele><time>2026-04-26T12:47:34.659Z</time></trkpt><trkpt lat="42.2701972" lon="13.0953672"><ele>859.0</ele><time>2026-04-26T12:47:35.659Z</time></trkpt><trkpt lat="42.2701827" lon="13.0955478"><ele>859.0</ele><time>2026-04-26T12:47:36.659Z</time></trkpt><trkpt lat="42.2701555" lon="13.0957149"><ele>860.2</ele><time>2026-04-26T12:47:37.66Z</time></trkpt><trkpt lat="42.2701024" lon="13.09585"><ele>861.4000000000001</ele><time>2026-04-26T12:47:38.658Z</time></trkpt><trkpt lat="42.2700192" lon="13.0959528"><ele>862.6</ele><time>2026-04-26T12:47:39.66Z</time></trkpt><trkpt lat="42.2699273" lon="13.0960324"><ele>863.8</ele><time>2026-04-26T12:47:40.659Z</time></trkpt><trkpt lat="42.2698397" lon="13.096129"><ele>865.0</ele><time>2026-04-26T12:47:41.66Z</time></trkpt><trkpt lat="42.2697658" lon="13.0962594"><ele>861.5</ele><time>2026-04-26T12:47:42.659Z</time></trkpt><trkpt lat="42.2697151" lon="13.0964174"><ele>858.0</ele><time>2026-04-26T12:47:43.658Z</time></trkpt><trkpt lat="42.2696849" lon="13.0965797"><ele>854.5</ele><time>2026-04-26T12:47:44.659Z</time></trkpt><trkpt lat="42.2696615" lon="13.096739"><ele>851.0</ele><time>2026-04-26T12:47:45.659Z</time></trkpt><trkpt lat="42.2696407" lon="13.0968825"><ele>851.0</ele><time>2026-04-26T12:47:46.659Z</time></trkpt><trkpt lat="42.2696187" lon="13.0970083"><ele>851.0</ele><time>2026-04-26T12:47:47.659Z</time></trkpt><trkpt lat="42.2696174" lon="13.0971271"><ele>851.0</ele><time>2026-04-26T12:47:48.659Z</time></trkpt><trkpt lat="42.2696313" lon="13.0972423"><ele>851.0</ele><time>2026-04-26T12:47:49.659Z</time></trkpt><trkpt lat="42.2696667" lon="13.0973577"><ele>851.0</ele><time>2026-04-26T12:47:50.659Z</time></trkpt><trkpt lat="42.2697265" lon="13.0974669"><ele>853.75</ele><time>2026-04-26T12:47:51.659Z</time></trkpt><trkpt lat="42.2698101" lon="13.0975772"><ele>856.5</ele><time>2026-04-26T12:47:52.66Z</time></trkpt><trkpt lat="42.2699019" lon="13.0976849"><ele>859.25</ele><time>2026-04-26T12:47:53.659Z</time></trkpt><trkpt lat="42.2700058" lon="13.0977868"><ele>862.0</ele><time>2026-04-26T12:47:54.659Z</time></trkpt><trkpt lat="42.270107" lon="13.0978937"><ele>862.0</ele><time>2026-04-26T12:47:55.659Z</time></trkpt><trkpt lat="42.2701927" lon="13.0980111"><ele>862.0</ele><time>2026-04-26T12:47:56.66Z</time></trkpt><trkpt lat="42.2702629" lon="13.0981576"><ele>862.0</ele><time>2026-04-26T12:47:57.659Z</time></trkpt><trkpt lat="42.2703134" lon="13.0983237"><ele>862.0</ele><time>2026-04-26T12:47:58.66Z</time></trkpt><trkpt lat="42.2703484" lon="13.0984913"><ele>859.5</ele><time>2026-04-26T12:47:59.66Z</time></trkpt><trkpt lat="42.270367" lon="13.0986454"><ele>857.0</ele><time>2026-04-26T12:48:00.659Z</time></trkpt><trkpt lat="42.2703554" lon="13.0987966"><ele>854.5</ele><time>2026-04-26T12:48:01.659Z</time></trkpt><trkpt lat="42.2703171" lon="13.0989531"><ele>852.0</ele><time>2026-04-26T12:48:02.659Z</time></trkpt><trkpt lat="42.2702554" lon="13.0991161"><ele>851.0</ele><time>2026-04-26T12:48:03.658Z</time></trkpt><trkpt lat="42.2701787" lon="13.0992926"><ele>850.0</ele><time>2026-04-26T12:48:04.659Z</time></trkpt><trkpt lat="42.270102" lon="13.0994619"><ele>849.0</ele><time>2026-04-26T12:48:05.659Z</time></trkpt><trkpt lat="42.2700264" lon="13.0996259"><ele>848.0</ele><time>2026-04-26T12:48:06.658Z</time></trkpt><trkpt lat="42.2699502" lon="13.0997811"><ele>849.2</ele><time>2026-04-26T12:48:07.659Z</time></trkpt><trkpt lat="42.2698847" lon="13.0999216"><ele>850.4</ele><time>2026-04-26T12:48:08.658Z</time></trkpt><trkpt lat="42.2698506" lon="13.1000513"><ele>851.6000000000001</ele><time>2026-04-26T12:48:09.659Z</time></trkpt><trkpt lat="42.2698452" lon="13.1001832"><ele>852.8000000000001</ele><time>2026-04-26T12:48:10.66Z</time></trkpt><trkpt lat="42.2698834" lon="13.1003103"><ele>854.0</ele><time>2026-04-26T12:48:11.66Z</time></trkpt><trkpt lat="42.2699562" lon="13.1004303"><ele>854.0</ele><time>2026-04-26T12:48:12.659Z</time></trkpt><trkpt lat="42.2700437" lon="13.1005549"><ele>854.0</ele><time>2026-04-26T12:48:13.659Z</time></trkpt><trkpt lat="42.2701228" lon="13.1006989"><ele>854.0</ele><time>2026-04-26T12:48:14.659Z</time></trkpt><trkpt lat="42.2701848" lon="13.100862"><ele>854.0</ele><time>2026-04-26T12:48:15.659Z</time></trkpt><trkpt lat="42.2702348" lon="13.1010418"><ele>852.3333333333334</ele><time>2026-04-26T12:48:16.659Z</time></trkpt><trkpt lat="42.2702796" lon="13.1012351"><ele>850.6666666666667</ele><time>2026-04-26T12:48:17.659Z</time></trkpt><trkpt lat="42.2703276" lon="13.1014342"><ele>849.0</ele><time>2026-04-26T12:48:18.66Z</time></trkpt><trkpt lat="42.2703777" lon="13.1016322"><ele>846.3333333333333</ele><time>2026-04-26T12:48:19.66Z</time></trkpt><trkpt lat="42.2704163" lon="13.1018359"><ele>843.6666666666666</ele><time>2026-04-26T12:48:20.659Z</time></trkpt><trkpt lat="42.2704403" lon="13.1020477"><ele>841.0</ele><time>2026-04-26T12:48:21.658Z</time></trkpt><trkpt lat="42.2704464" lon="13.1022644"><ele>841.3333333333333</ele><time>2026-04-26T12:48:22.659Z</time></trkpt><trkpt lat="42.2704462" lon="13.102478"><ele>841.6666666666667</ele><time>2026-04-26T12:48:23.66Z</time></trkpt><trkpt lat="42.2704429" lon="13.1026915"><ele>842.0</ele><time>2026-04-26T12:48:24.66Z</time></trkpt><trkpt lat="42.270443" lon="13.102898"><ele>842.0</ele><time>2026-04-26T12:48:25.66Z</time></trkpt><trkpt lat="42.2704395" lon="13.1030932"><ele>842.0</ele><time>2026-04-26T12:48:26.66Z</time></trkpt><trkpt lat="42.2704337" lon="13.1032772"><ele>842.0</ele><time>2026-04-26T12:48:27.659Z</time></trkpt><trkpt lat="42.2704315" lon="13.1034378"><ele>842.0</ele><time>2026-04-26T12:48:28.659Z</time></trkpt><trkpt lat="42.270426" lon="13.1035816"><ele>843.0</ele><time>2026-04-26T12:48:29.66Z</time></trkpt><trkpt lat="42.2703936" lon="13.1037136"><ele>844.0</ele><time>2026-04-26T12:48:30.66Z</time></trkpt><trkpt lat="42.2703337" lon="13.103827"><ele>845.0</ele><time>2026-04-26T12:48:31.658Z</time></trkpt><trkpt lat="42.2702415" lon="13.103929"><ele>846.0</ele><time>2026-04-26T12:48:32.659Z</time></trkpt><trkpt lat="42.2701437" lon="13.1040363"><ele>849.25</ele><time>2026-04-26T12:48:33.66Z</time></trkpt><trkpt lat="42.2700555" lon="13.1041523"><ele>852.5</ele><time>2026-04-26T12:48:34.66Z</time></trkpt><trkpt lat="42.2699754" lon="13.1042746"><ele>855.75</ele><time>2026-04-26T12:48:35.659Z</time></trkpt><trkpt lat="42.2699183" lon="13.10442"><ele>859.0</ele><time>2026-04-26T12:48:36.659Z</time></trkpt><trkpt lat="42.2698834" lon="13.104581"><ele>859.0</ele><time>2026-04-26T12:48:37.66Z</time></trkpt><trkpt lat="42.2698487" lon="13.1047473"><ele>859.0</ele><time>2026-04-26T12:48:38.66Z</time></trkpt><trkpt lat="42.2697809" lon="13.1049056"><ele>859.0</ele><time>2026-04-26T12:48:39.658Z</time></trkpt><trkpt lat="42.2696918" lon="13.1050434"><ele>859.0</ele><time>2026-04-26T12:48:40.659Z</time></trkpt><trkpt lat="42.2696031" lon="13.1051572"><ele>857.5</ele><time>2026-04-26T12:48:41.658Z</time></trkpt><trkpt lat="42.2695119" lon="13.1052789"><ele>856.0</ele><time>2026-04-26T12:48:42.659Z</time></trkpt><trkpt lat="42.2694425" lon="13.1054189"><ele>854.5</ele><time>2026-04-26T12:48:43.658Z</time></trkpt><trkpt lat="42.269435" lon="13.1056374"><ele>853.0</ele><time>2026-04-26T12:48:44.659Z</time></trkpt><trkpt lat="42.2693628" lon="13.1058143"><ele>858.3333333333333</ele><time>2026-04-26T12:48:45.66Z</time></trkpt><trkpt lat="42.2692933" lon="13.1060005"><ele>863.6666666666667</ele><time>2026-04-26T12:48:46.66Z</time></trkpt><trkpt lat="42.2692279" lon="13.1061921"><ele>869.0</ele><time>2026-04-26T12:48:47.66Z</time></trkpt><trkpt lat="42.2691676" lon="13.1063853"><ele>869.0</ele><time>2026-04-26T12:48:48.659Z</time></trkpt><trkpt lat="42.2691187" lon="13.1065672"><ele>869.0</ele><time>2026-04-26T12:48:49.658Z</time></trkpt><trkpt lat="42.2690706" lon="13.1067342"><ele>869.0</ele><time>2026-04-26T12:48:50.659Z</time></trkpt><trkpt lat="42.2690246" lon="13.1069004"><ele>869.0</ele><time>2026-04-26T12:48:51.659Z</time></trkpt><trkpt lat="42.2689791" lon="13.1070667"><ele>867.75</ele><time>2026-04-26T12:48:52.659Z</time></trkpt><trkpt lat="42.2689342" lon="13.107238"><ele>866.5</ele><time>2026-04-26T12:48:53.659Z</time></trkpt><trkpt lat="42.2688926" lon="13.1074051"><ele>865.25</ele><time>2026-04-26T12:48:54.659Z</time></trkpt><trkpt lat="42.2688447" lon="13.1075766"><ele>864.0</ele><time>2026-04-26T12:48:55.659Z</time></trkpt><trkpt lat="42.2687944" lon="13.1077421"><ele>864.0</ele><time>2026-04-26T12:48:56.659Z</time></trkpt><trkpt lat="42.2687456" lon="13.1079075"><ele>864.0</ele><time>2026-04-26T12:48:57.659Z</time></trkpt><trkpt lat="42.2686999" lon="13.1080725"><ele>864.0</ele><time>2026-04-26T12:48:58.658Z</time></trkpt><trkpt lat="42.2686555" lon="13.1082374"><ele>864.0</ele><time>2026-04-26T12:48:59.659Z</time></trkpt><trkpt lat="42.2686323" lon="13.1084056"><ele>865.0</ele><time>2026-04-26T12:49:00.66Z</time></trkpt><trkpt lat="42.2686451" lon="13.1085759"><ele>866.0</ele><time>2026-04-26T12:49:01.659Z</time></trkpt><trkpt lat="42.2686806" lon="13.1087544"><ele>867.0</ele><time>2026-04-26T12:49:02.659Z</time></trkpt><trkpt lat="42.2687286" lon="13.1089446"><ele>868.0</ele><time>2026-04-26T12:49:03.659Z</time></trkpt><trkpt lat="42.268771" lon="13.1091527"><ele>868.0</ele><time>2026-04-26T12:49:04.659Z</time></trkpt><trkpt lat="42.2688061" lon="13.1093656"><ele>868.0</ele><time>2026-04-26T12:49:05.659Z</time></trkpt><trkpt lat="42.2688457" lon="13.1095791"><ele>868.0</ele><time>2026-04-26T12:49:06.658Z</time></trkpt><trkpt lat="42.2688832" lon="13.1097751"><ele>868.5</ele><time>2026-04-26T12:49:07.658Z</time></trkpt><trkpt lat="42.2689117" lon="13.1099548"><ele>869.0</ele><time>2026-04-26T12:49:08.658Z</time></trkpt><trkpt lat="42.2689309" lon="13.1101195"><ele>869.5</ele><time>2026-04-26T12:49:09.658Z</time></trkpt><trkpt lat="42.2689339" lon="13.1102824"><ele>870.0</ele><time>2026-04-26T12:49:10.658Z</time></trkpt><trkpt lat="42.2689087" lon="13.110449"><ele>870.0</ele><time>2026-04-26T12:49:11.659Z</time></trkpt><trkpt lat="42.2688629" lon="13.1106085"><ele>870.0</ele><time>2026-04-26T12:49:12.658Z</time></trkpt><trkpt lat="42.268806" lon="13.1107686"><ele>870.0</ele><time>2026-04-26T12:49:13.659Z</time></trkpt><trkpt lat="42.2687433" lon="13.1109315"><ele>870.0</ele><time>2026-04-26T12:49:14.659Z</time></trkpt><trkpt lat="42.2686741" lon="13.1110919"><ele>875.3333333333333</ele><time>2026-04-26T12:49:15.659Z</time></trkpt><trkpt lat="42.2686007" lon="13.1112511"><ele>880.6666666666666</ele><time>2026-04-26T12:49:16.658Z</time></trkpt><trkpt lat="42.2685255" lon="13.1114274"><ele>886.0</ele><time>2026-04-26T12:49:17.657Z</time></trkpt><trkpt lat="42.2684608" lon="13.1116341"><ele>892.0</ele><time>2026-04-26T12:49:18.657Z</time></trkpt><trkpt lat="42.2684071" lon="13.1118527"><ele>898.0</ele><time>2026-04-26T12:49:19.658Z</time></trkpt><trkpt lat="42.2683498" lon="13.1120788"><ele>904.0</ele><time>2026-04-26T12:49:20.658Z</time></trkpt><trkpt lat="42.2682952" lon="13.1123178"><ele>909.3333333333333</ele><time>2026-04-26T12:49:21.658Z</time></trkpt><trkpt lat="42.2682352" lon="13.1125589"><ele>914.6666666666667</ele><time>2026-04-26T12:49:22.659Z</time></trkpt><trkpt lat="42.2681669" lon="13.1127912"><ele>920.0</ele><time>2026-04-26T12:49:23.658Z</time></trkpt><trkpt lat="42.2680941" lon="13.1130258"><ele>912.0</ele><time>2026-04-26T12:49:24.658Z</time></trkpt><trkpt lat="42.2680161" lon="13.1132525"><ele>904.0</ele><time>2026-04-26T12:49:25.658Z</time></trkpt><trkpt lat="42.267939" lon="13.1134708"><ele>896.0</ele><time>2026-04-26T12:49:26.658Z</time></trkpt><trkpt lat="42.2678658" lon="13.1136822"><ele>896.0</ele><time>2026-04-26T12:49:27.659Z</time></trkpt><trkpt lat="42.267793" lon="13.1138867"><ele>896.0</ele><time>2026-04-26T12:49:28.658Z</time></trkpt><trkpt lat="42.2677221" lon="13.1140845"><ele>896.0</ele><time>2026-04-26T12:49:29.659Z</time></trkpt><trkpt lat="42.2676509" lon="13.1142666"><ele>900.75</ele><time>2026-04-26T12:49:30.657Z</time></trkpt><trkpt lat="42.2675662" lon="13.1144342"><ele>905.5</ele><time>2026-04-26T12:49:31.658Z</time></trkpt><trkpt lat="42.2674738" lon="13.1145749"><ele>910.25</ele><time>2026-04-26T12:49:32.658Z</time></trkpt><trkpt lat="42.2673897" lon="13.1146817"><ele>915.0</ele><time>2026-04-26T12:49:33.659Z</time></trkpt><trkpt lat="42.2673209" lon="13.1147601"><ele>914.0</ele><time>2026-04-26T12:49:34.657Z</time></trkpt><trkpt lat="42.2672726" lon="13.1148208"><ele>913.0</ele><time>2026-04-26T12:49:35.657Z</time></trkpt><trkpt lat="42.2672213" lon="13.1148852"><ele>912.0</ele><time>2026-04-26T12:49:37.657Z</time></trkpt><trkpt lat="42.267165" lon="13.1149905"><ele>911.0</ele><time>2026-04-26T12:52:41.658Z</time></trkpt><trkpt lat="42.2670999" lon="13.1150831"><ele>910.0</ele><time>2026-04-26T12:52:43.657Z</time></trkpt><trkpt lat="42.2670542" lon="13.1151442"><ele>909.0</ele><time>2026-04-26T12:52:44.657Z</time></trkpt><trkpt lat="42.2670036" lon="13.1152103"><ele>909.0</ele><time>2026-04-26T12:52:45.657Z</time></trkpt><trkpt lat="42.2669567" lon="13.1152874"><ele>909.0</ele><time>2026-04-26T12:52:46.658Z</time></trkpt><trkpt lat="42.2669072" lon="13.1153636"><ele>909.0</ele><time>2026-04-26T12:52:47.657Z</time></trkpt><trkpt lat="42.2668623" lon="13.1154376"><ele>909.0</ele><time>2026-04-26T12:52:48.657Z</time></trkpt><trkpt lat="42.2668143" lon="13.1155177"><ele>909.0</ele><time>2026-04-26T12:52:49.657Z</time></trkpt><trkpt lat="42.2667646" lon="13.1155921"><ele>909.0</ele><time>2026-04-26T12:52:50.656Z</time></trkpt><trkpt lat="42.2667165" lon="13.1156678"><ele>909.0</ele><time>2026-04-26T12:52:51.657Z</time></trkpt><trkpt lat="42.2666699" lon="13.1157457"><ele>909.5</ele><time>2026-04-26T12:52:52.657Z</time></trkpt><trkpt lat="42.2666253" lon="13.1158277"><ele>910.0</ele><time>2026-04-26T12:52:53.657Z</time></trkpt><trkpt lat="42.2665763" lon="13.1159039"><ele>910.5</ele><time>2026-04-26T12:52:54.656Z</time></trkpt><trkpt lat="42.2665255" lon="13.1159836"><ele>911.0</ele><time>2026-04-26T12:52:55.656Z</time></trkpt><trkpt lat="42.2664802" lon="13.1160649"><ele>911.5</ele><time>2026-04-26T12:52:56.657Z</time></trkpt><trkpt lat="42.2664368" lon="13.1161677"><ele>912.0</ele><time>2026-04-26T12:52:57.657Z</time></trkpt><trkpt lat="42.2664053" lon="13.1162867"><ele>912.0</ele><time>2026-04-26T12:52:58.657Z</time></trkpt><trkpt lat="42.2663815" lon="13.1164246"><ele>912.0</ele><time>2026-04-26T12:52:59.656Z</time></trkpt><trkpt lat="42.2663629" lon="13.1165768"><ele>912.0</ele><time>2026-04-26T12:53:00.656Z</time></trkpt><trkpt lat="42.2663378" lon="13.1167364"><ele>912.0</ele><time>2026-04-26T12:53:01.656Z</time></trkpt><trkpt lat="42.2663169" lon="13.1169045"><ele>915.25</ele><time>2026-04-26T12:53:02.658Z</time></trkpt><trkpt lat="42.2662873" lon="13.1170658"><ele>918.5</ele><time>2026-04-26T12:53:03.658Z</time></trkpt><trkpt lat="42.2662347" lon="13.1172277"><ele>921.75</ele><time>2026-04-26T12:53:04.658Z</time></trkpt><trkpt lat="42.2661644" lon="13.117377"><ele>925.0</ele><time>2026-04-26T12:53:05.657Z</time></trkpt><trkpt lat="42.2660856" lon="13.1175256"><ele>928.5</ele><time>2026-04-26T12:53:06.656Z</time></trkpt><trkpt lat="42.2659953" lon="13.1176683"><ele>932.0</ele><time>2026-04-26T12:53:07.658Z</time></trkpt><trkpt lat="42.2659145" lon="13.1178055"><ele>935.5</ele><time>2026-04-26T12:53:08.657Z</time></trkpt><trkpt lat="42.2658304" lon="13.1179343"><ele>939.0</ele><time>2026-04-26T12:53:09.656Z</time></trkpt><trkpt lat="42.2657291" lon="13.118041"><ele>939.0</ele><time>2026-04-26T12:53:10.657Z</time></trkpt><trkpt lat="42.2656215" lon="13.1181345"><ele>939.0</ele><time>2026-04-26T12:53:11.658Z</time></trkpt><trkpt lat="42.2655084" lon="13.1182203"><ele>939.0</ele><time>2026-04-26T12:53:12.657Z</time></trkpt><trkpt lat="42.2654117" lon="13.1183235"><ele>939.0</ele><time>2026-04-26T12:53:13.657Z</time></trkpt><trkpt lat="42.2653187" lon="13.1184502"><ele>939.0</ele><time>2026-04-26T12:53:14.658Z</time></trkpt><trkpt lat="42.2652352" lon="13.1185967"><ele>939.0</ele><time>2026-04-26T12:53:15.658Z</time></trkpt><trkpt lat="42.2651613" lon="13.1187513"><ele>939.0</ele><time>2026-04-26T12:53:16.657Z</time></trkpt><trkpt lat="42.2650925" lon="13.1189131"><ele>939.0</ele><time>2026-04-26T12:53:17.657Z</time></trkpt><trkpt lat="42.2650338" lon="13.1190822"><ele>943.25</ele><time>2026-04-26T12:53:18.658Z</time></trkpt><trkpt lat="42.2649829" lon="13.1192607"><ele>947.5</ele><time>2026-04-26T12:53:19.658Z</time></trkpt><trkpt lat="42.2649336" lon="13.1194398"><ele>951.75</ele><time>2026-04-26T12:53:20.656Z</time></trkpt><trkpt lat="42.2649003" lon="13.1196237"><ele>956.0</ele><time>2026-04-26T12:53:21.655Z</time></trkpt><trkpt lat="42.2648719" lon="13.1198085"><ele>958.1999999999999</ele><time>2026-04-26T12:53:22.656Z</time></trkpt><trkpt lat="42.264848" lon="13.1199753"><ele>960.3999999999999</ele><time>2026-04-26T12:53:23.656Z</time></trkpt><trkpt lat="42.2648259" lon="13.1201276"><ele>962.6</ele><time>2026-04-26T12:53:24.657Z</time></trkpt><trkpt lat="42.2648057" lon="13.1202558"><ele>964.8</ele><time>2026-04-26T12:53:25.657Z</time></trkpt><trkpt lat="42.2647914" lon="13.1203652"><ele>967.0</ele><time>2026-04-26T12:53:26.656Z</time></trkpt><trkpt lat="42.2647681" lon="13.120485"><ele>962.4000000000001</ele><time>2026-04-26T12:53:27.656Z</time></trkpt><trkpt lat="42.2647485" lon="13.1206161"><ele>957.8000000000001</ele><time>2026-04-26T12:53:28.655Z</time></trkpt><trkpt lat="42.2647277" lon="13.1207539"><ele>953.2</ele><time>2026-04-26T12:53:29.656Z</time></trkpt><trkpt lat="42.2647018" lon="13.1208901"><ele>948.6</ele><time>2026-04-26T12:53:30.655Z</time></trkpt><trkpt lat="42.2646761" lon="13.1210263"><ele>944.0</ele><time>2026-04-26T12:53:31.656Z</time></trkpt><trkpt lat="42.2646519" lon="13.1211569"><ele>944.0</ele><time>2026-04-26T12:53:32.656Z</time></trkpt><trkpt lat="42.2646264" lon="13.1212835"><ele>944.0000000000001</ele><time>2026-04-26T12:53:33.656Z</time></trkpt><trkpt lat="42.2646029" lon="13.1214083"><ele>944.0000000000001</ele><time>2026-04-26T12:53:34.655Z</time></trkpt><trkpt lat="42.2645753" lon="13.1215346"><ele>944.0</ele><time>2026-04-26T12:53:35.656Z</time></trkpt><trkpt lat="42.2645474" lon="13.1216611"><ele>944.0</ele><time>2026-04-26T12:53:36.657Z</time></trkpt><trkpt lat="42.2645216" lon="13.1217852"><ele>945.6666666666667</ele><time>2026-04-26T12:53:37.655Z</time></trkpt><trkpt lat="42.2644974" lon="13.1218999"><ele>947.3333333333334</ele><time>2026-04-26T12:53:38.657Z</time></trkpt><trkpt lat="42.2644836" lon="13.1220046"><ele>949.0</ele><time>2026-04-26T12:53:39.656Z</time></trkpt><trkpt lat="42.2644737" lon="13.1221031"><ele>950.6666666666667</ele><time>2026-04-26T12:53:40.657Z</time></trkpt><trkpt lat="42.2644766" lon="13.1222032"><ele>952.3333333333334</ele><time>2026-04-26T12:53:41.656Z</time></trkpt><trkpt lat="42.2645005" lon="13.1223068"><ele>954.0</ele><time>2026-04-26T12:53:42.655Z</time></trkpt><trkpt lat="42.2645404" lon="13.1224134"><ele>954.6666666666666</ele><time>2026-04-26T12:53:43.656Z</time></trkpt><trkpt lat="42.2645853" lon="13.1225191"><ele>955.3333333333333</ele><time>2026-04-26T12:53:44.656Z</time></trkpt><trkpt lat="42.2646294" lon="13.1226252"><ele>956.0</ele><time>2026-04-26T12:53:45.656Z</time></trkpt><trkpt lat="42.2646689" lon="13.1227284"><ele>956.6666666666666</ele><time>2026-04-26T12:53:46.656Z</time></trkpt><trkpt lat="42.264701" lon="13.1228245"><ele>957.3333333333333</ele><time>2026-04-26T12:53:47.657Z</time></trkpt><trkpt lat="42.2647286" lon="13.1229114"><ele>958.0</ele><time>2026-04-26T12:53:48.656Z</time></trkpt><trkpt lat="42.2647519" lon="13.1230041"><ele>957.9999999999999</ele><time>2026-04-26T12:53:49.655Z</time></trkpt><trkpt lat="42.2647705" lon="13.1230971"><ele>958.0</ele><time>2026-04-26T12:53:50.655Z</time></trkpt><trkpt lat="42.2647835" lon="13.123186"><ele>958.0</ele><time>2026-04-26T12:53:51.656Z</time></trkpt><trkpt lat="42.2647877" lon="13.1233416"><ele>958.0</ele><time>2026-04-26T12:53:53.657Z</time></trkpt><trkpt lat="42.2647793" lon="13.123469"><ele>957.9999999999999</ele><time>2026-04-26T12:53:55.655Z</time></trkpt><trkpt lat="42.2647616" lon="13.1235933"><ele>958.0</ele><time>2026-04-26T12:53:57.656Z</time></trkpt><trkpt lat="42.2647428" lon="13.1236863"><ele>958.5714285714286</ele><time>2026-04-26T12:53:58.656Z</time></trkpt><trkpt lat="42.2647149" lon="13.1237762"><ele>959.1428571428571</ele><time>2026-04-26T12:53:59.655Z</time></trkpt><trkpt lat="42.2646744" lon="13.1238793"><ele>959.7142857142857</ele><time>2026-04-26T12:54:01.656Z</time></trkpt><trkpt lat="42.2646502" lon="13.1239625"><ele>960.2857142857142</ele><time>2026-04-26T12:54:04.656Z</time></trkpt><trkpt lat="42.2646535" lon="13.1240522"><ele>960.8571428571429</ele><time>2026-04-26T12:54:24.656Z</time></trkpt><trkpt lat="42.2646226" lon="13.124135"><ele>961.4285714285713</ele><time>2026-04-26T12:54:25.657Z</time></trkpt><trkpt lat="42.2646004" lon="13.1242248"><ele>961.9999999999999</ele><time>2026-04-26T12:54:26.657Z</time></trkpt><trkpt lat="42.2645831" lon="13.1243185"><ele>964.0000000000001</ele><time>2026-04-26T12:54:27.657Z</time></trkpt><trkpt lat="42.2645621" lon="13.1244099"><ele>966.0</ele><time>2026-04-26T12:54:28.657Z</time></trkpt><trkpt lat="42.2645647" lon="13.1245009"><ele>968.0</ele><time>2026-04-26T12:54:29.657Z</time></trkpt><trkpt lat="42.2645855" lon="13.1245984"><ele>970.0</ele><time>2026-04-26T12:54:30.657Z</time></trkpt><trkpt lat="42.2646097" lon="13.1247006"><ele>972.0000000000001</ele><time>2026-04-26T12:54:31.656Z</time></trkpt><trkpt lat="42.2646379" lon="13.1248065"><ele>974.0</ele><time>2026-04-26T12:54:32.657Z</time></trkpt><trkpt lat="42.2646631" lon="13.124908"><ele>974.0000000000001</ele><time>2026-04-26T12:54:33.656Z</time></trkpt><trkpt lat="42.2646856" lon="13.1250054"><ele>974.0</ele><time>2026-04-26T12:54:34.656Z</time></trkpt><trkpt lat="42.2647074" lon="13.1250932"><ele>974.0</ele><time>2026-04-26T12:54:35.657Z</time></trkpt><trkpt lat="42.264729" lon="13.1251762"><ele>974.0</ele><time>2026-04-26T12:54:36.656Z</time></trkpt><trkpt lat="42.2647598" lon="13.125323"><ele>974.0000000000001</ele><time>2026-04-26T12:54:38.656Z</time></trkpt><trkpt lat="42.2647919" lon="13.1254348"><ele>974.0</ele><time>2026-04-26T12:54:40.657Z</time></trkpt><trkpt lat="42.2648375" lon="13.125524"><ele>977.3333333333334</ele><time>2026-04-26T12:54:42.656Z</time></trkpt><trkpt lat="42.2648886" lon="13.1256136"><ele>980.6666666666667</ele><time>2026-04-26T12:54:45.655Z</time></trkpt><trkpt lat="42.2648481" lon="13.1255407"><ele>984.0</ele><time>2026-04-26T12:54:52.657Z</time></trkpt><trkpt lat="42.2648307" lon="13.1254497"><ele>987.3333333333333</ele><time>2026-04-26T12:54:55.657Z</time></trkpt><trkpt lat="42.2648805" lon="13.1255615"><ele>990.6666666666666</ele><time>2026-04-26T12:58:11.654Z</time></trkpt><trkpt lat="42.2649896" lon="13.1256111"><ele>994.0</ele><time>2026-04-26T12:58:13.655Z</time></trkpt><trkpt lat="42.2650978" lon="13.1256503"><ele>994.0</ele><time>2026-04-26T12:58:15.655Z</time></trkpt><trkpt lat="42.2652038" lon="13.1257203"><ele>994.0000000000001</ele><time>2026-04-26T12:58:17.654Z</time></trkpt><trkpt lat="42.2653041" lon="13.1258347"><ele>994.0000000000001</ele><time>2026-04-26T12:58:19.653Z</time></trkpt><trkpt lat="42.2653561" lon="13.1258988"><ele>994.0</ele><time>2026-04-26T12:58:20.653Z</time></trkpt><trkpt lat="42.2653985" lon="13.1259672"><ele>994.0</ele><time>2026-04-26T12:58:21.653Z</time></trkpt><trkpt lat="42.265454" lon="13.1260953"><ele>992.6</ele><time>2026-04-26T12:58:23.654Z</time></trkpt><trkpt lat="42.2654707" lon="13.1262107"><ele>991.2</ele><time>2026-04-26T12:58:26.654Z</time></trkpt><trkpt lat="42.2654859" lon="13.1263676"><ele>989.8000000000001</ele><time>2026-04-26T12:58:29.655Z</time></trkpt><trkpt lat="42.2654953" lon="13.126462"><ele>988.4000000000001</ele><time>2026-04-26T12:58:30.655Z</time></trkpt><trkpt lat="42.2655046" lon="13.1265757"><ele>987.0</ele><time>2026-04-26T12:58:31.654Z</time></trkpt><trkpt lat="42.2655159" lon="13.1266993"><ele>985.5</ele><time>2026-04-26T12:58:32.653Z</time></trkpt><trkpt lat="42.265523" lon="13.1268345"><ele>984.0</ele><time>2026-04-26T12:58:33.653Z</time></trkpt><trkpt lat="42.2655296" lon="13.1269683"><ele>982.5</ele><time>2026-04-26T12:58:34.654Z</time></trkpt><trkpt lat="42.2655426" lon="13.1270875"><ele>981.0</ele><time>2026-04-26T12:58:35.654Z</time></trkpt><trkpt lat="42.2655621" lon="13.1271883"><ele>979.5</ele><time>2026-04-26T12:58:36.654Z</time></trkpt><trkpt lat="42.2655915" lon="13.1272688"><ele>978.0</ele><time>2026-04-26T12:58:37.654Z</time></trkpt><trkpt lat="42.2656712" lon="13.1273325"><ele>981.5999999999999</ele><time>2026-04-26T12:58:39.655Z</time></trkpt><trkpt lat="42.2657586" lon="13.1273681"><ele>985.1999999999999</ele><time>2026-04-26T12:58:41.653Z</time></trkpt><trkpt lat="42.2658515" lon="13.1274421"><ele>988.8</ele><time>2026-04-26T12:58:43.655Z</time></trkpt><trkpt lat="42.2659325" lon="13.1274862"><ele>992.4</ele><time>2026-04-26T12:58:46.653Z</time></trkpt><trkpt lat="42.2660382" lon="13.1273708"><ele>996.0</ele><time>2026-04-26T12:58:48.654Z</time></trkpt><trkpt lat="42.266086" lon="13.1272513"><ele>996.1999999999999</ele><time>2026-04-26T12:58:49.653Z</time></trkpt><trkpt lat="42.2661354" lon="13.1271312"><ele>996.3999999999999</ele><time>2026-04-26T12:58:50.654Z</time></trkpt><trkpt lat="42.2661758" lon="13.12702"><ele>996.6</ele><time>2026-04-26T12:58:51.653Z</time></trkpt><trkpt lat="42.2662178" lon="13.1269077"><ele>996.8</ele><time>2026-04-26T12:58:52.655Z</time></trkpt><trkpt lat="42.266246" lon="13.126783"><ele>997.0</ele><time>2026-04-26T12:58:53.653Z</time></trkpt><trkpt lat="42.2662525" lon="13.1266692"><ele>996.9999999999999</ele><time>2026-04-26T12:58:54.654Z</time></trkpt><trkpt lat="42.266261" lon="13.1265663"><ele>997.0</ele><time>2026-04-26T12:58:55.653Z</time></trkpt><trkpt lat="42.2662672" lon="13.1264672"><ele>997.0</ele><time>2026-04-26T12:58:56.653Z</time></trkpt><trkpt lat="42.266276" lon="13.1263639"><ele>997.0</ele><time>2026-04-26T12:58:57.653Z</time></trkpt><trkpt lat="42.2662663" lon="13.1262678"><ele>996.9999999999999</ele><time>2026-04-26T12:58:58.653Z</time></trkpt><trkpt lat="42.2662426" lon="13.1261645"><ele>997.0</ele><time>2026-04-26T12:58:59.655Z</time></trkpt><trkpt lat="42.2661985" lon="13.1260552"><ele>998.75</ele><time>2026-04-26T12:59:00.655Z</time></trkpt><trkpt lat="42.2661376" lon="13.1259432"><ele>1000.5</ele><time>2026-04-26T12:59:01.654Z</time></trkpt><trkpt lat="42.2660698" lon="13.1258262"><ele>1002.25</ele><time>2026-04-26T12:59:02.654Z</time></trkpt><trkpt lat="42.2659955" lon="13.1257066"><ele>1004.0</ele><time>2026-04-26T12:59:03.655Z</time></trkpt><trkpt lat="42.2659195" lon="13.1255767"><ele>1002.0</ele><time>2026-04-26T12:59:04.654Z</time></trkpt><trkpt lat="42.2658436" lon="13.1254477"><ele>1000.0000000000001</ele><time>2026-04-26T12:59:05.653Z</time></trkpt><trkpt lat="42.2657745" lon="13.1253346"><ele>998.0000000000001</ele><time>2026-04-26T12:59:06.653Z</time></trkpt><trkpt lat="42.2657122" lon="13.1252299"><ele>996.0</ele><time>2026-04-26T12:59:07.653Z</time></trkpt><trkpt lat="42.2656509" lon="13.1251321"><ele>994.0</ele><time>2026-04-26T12:59:08.654Z</time></trkpt><trkpt lat="42.2656025" lon="13.1250281"><ele>993.9999999999999</ele><time>2026-04-26T12:59:09.655Z</time></trkpt><trkpt lat="42.2655703" lon="13.1249095"><ele>994.0</ele><time>2026-04-26T12:59:10.654Z</time></trkpt><trkpt lat="42.2655481" lon="13.1247967"><ele>994.0</ele><time>2026-04-26T12:59:11.655Z</time></trkpt><trkpt lat="42.2655325" lon="13.1247018"><ele>994.0</ele><time>2026-04-26T12:59:12.654Z</time></trkpt><trkpt lat="42.2655151" lon="13.1246124"><ele>993.9999999999999</ele><time>2026-04-26T12:59:13.655Z</time></trkpt><trkpt lat="42.2654906" lon="13.1244944"><ele>994.0</ele><time>2026-04-26T12:59:15.655Z</time></trkpt><trkpt lat="42.2654712" lon="13.1244006"><ele>994.2</ele><time>2026-04-26T12:59:17.655Z</time></trkpt><trkpt lat="42.2654452" lon="13.1242449"><ele>994.4000000000001</ele><time>2026-04-26T12:59:19.654Z</time></trkpt><trkpt lat="42.2654288" lon="13.1241432"><ele>994.6</ele><time>2026-04-26T12:59:20.655Z</time></trkpt><trkpt lat="42.2654091" lon="13.1240245"><ele>994.8</ele><time>2026-04-26T12:59:21.653Z</time></trkpt><trkpt lat="42.2653967" lon="13.1239052"><ele>995.0</ele><time>2026-04-26T12:59:22.655Z</time></trkpt><trkpt lat="42.2653856" lon="13.1237976"><ele>994.6666666666667</ele><time>2026-04-26T12:59:23.655Z</time></trkpt><trkpt lat="42.2653795" lon="13.1236931"><ele>994.3333333333334</ele><time>2026-04-26T12:59:24.655Z</time></trkpt><trkpt lat="42.2653763" lon="13.123583"><ele>994.0</ele><time>2026-04-26T12:59:25.654Z</time></trkpt><trkpt lat="42.2653613" lon="13.1234656"><ele>993.6666666666667</ele><time>2026-04-26T12:59:26.653Z</time></trkpt><trkpt lat="42.2653364" lon="13.1233514"><ele>993.3333333333334</ele><time>2026-04-26T12:59:27.655Z</time></trkpt><trkpt lat="42.2653109" lon="13.1232367"><ele>993.0</ele><time>2026-04-26T12:59:28.654Z</time></trkpt><trkpt lat="42.2652851" lon="13.1231301"><ele>993.8333333333334</ele><time>2026-04-26T12:59:29.653Z</time></trkpt><trkpt lat="42.2652604" lon="13.1230314"><ele>994.6666666666667</ele><time>2026-04-26T12:59:30.654Z</time></trkpt><trkpt lat="42.2652393" lon="13.1229391"><ele>995.5</ele><time>2026-04-26T12:59:31.653Z</time></trkpt><trkpt lat="42.2652287" lon="13.1228488"><ele>996.3333333333334</ele><time>2026-04-26T12:59:32.653Z</time></trkpt><trkpt lat="42.2652293" lon="13.1226938"><ele>997.1666666666667</ele><time>2026-04-26T12:59:34.654Z</time></trkpt><trkpt lat="42.2652429" lon="13.1226101"><ele>998.0</ele><time>2026-04-26T12:59:35.655Z</time></trkpt><trkpt lat="42.2652618" lon="13.1225275"><ele>996.0</ele><time>2026-04-26T12:59:36.654Z</time></trkpt><trkpt lat="42.2652924" lon="13.1223643"><ele>994.0</ele><time>2026-04-26T12:59:38.654Z</time></trkpt><trkpt lat="42.2653122" lon="13.1222524"><ele>992.0</ele><time>2026-04-26T12:59:39.653Z</time></trkpt><trkpt lat="42.2653421" lon="13.1221401"><ele>990.0</ele><time>2026-04-26T12:59:40.653Z</time></trkpt><trkpt lat="42.2653877" lon="13.1220257"><ele>988.0</ele><time>2026-04-26T12:59:41.653Z</time></trkpt><trkpt lat="42.2654389" lon="13.1219145"><ele>988.0</ele><time>2026-04-26T12:59:42.654Z</time></trkpt><trkpt lat="42.2654971" lon="13.1218105"><ele>988.0</ele><time>2026-04-26T12:59:43.655Z</time></trkpt><trkpt lat="42.265557" lon="13.1217138"><ele>988.0</ele><time>2026-04-26T12:59:44.655Z</time></trkpt><trkpt lat="42.2656081" lon="13.1216142"><ele>988.0</ele><time>2026-04-26T12:59:45.653Z</time></trkpt><trkpt lat="42.2656597" lon="13.1215126"><ele>988.0</ele><time>2026-04-26T12:59:46.654Z</time></trkpt><trkpt lat="42.2657196" lon="13.1214004"><ele>991.5</ele><time>2026-04-26T12:59:47.654Z</time></trkpt><trkpt lat="42.2657908" lon="13.1212862"><ele>995.0</ele><time>2026-04-26T12:59:48.654Z</time></trkpt><trkpt lat="42.2658663" lon="13.1211613"><ele>998.5</ele><time>2026-04-26T12:59:49.654Z</time></trkpt><trkpt lat="42.2659374" lon="13.1210099"><ele>1002.0</ele><time>2026-04-26T12:59:50.653Z</time></trkpt><trkpt lat="42.265997" lon="13.1208351"><ele>1000.5</ele><time>2026-04-26T12:59:51.654Z</time></trkpt><trkpt lat="42.2660471" lon="13.1206533"><ele>999.0</ele><time>2026-04-26T12:59:52.654Z</time></trkpt><trkpt lat="42.2660958" lon="13.1204845"><ele>997.5</ele><time>2026-04-26T12:59:53.652Z</time></trkpt><trkpt lat="42.2661404" lon="13.1203382"><ele>996.0</ele><time>2026-04-26T12:59:54.654Z</time></trkpt><trkpt lat="42.266178" lon="13.1201982"><ele>996.0</ele><time>2026-04-26T12:59:55.653Z</time></trkpt><trkpt lat="42.2662202" lon="13.1200693"><ele>996.0</ele><time>2026-04-26T12:59:56.654Z</time></trkpt><trkpt lat="42.2662732" lon="13.1199368"><ele>996.0</ele><time>2026-04-26T12:59:57.653Z</time></trkpt><trkpt lat="42.2663369" lon="13.1198058"><ele>996.0</ele><time>2026-04-26T12:59:58.653Z</time></trkpt><trkpt lat="42.2664052" lon="13.119671"><ele>1000.5</ele><time>2026-04-26T12:59:59.654Z</time></trkpt><trkpt lat="42.2664734" lon="13.119539"><ele>1005.0</ele><time>2026-04-26T13:00:00.653Z</time></trkpt><trkpt lat="42.2665393" lon="13.1194143"><ele>1009.5</ele><time>2026-04-26T13:00:01.653Z</time></trkpt><trkpt lat="42.2666071" lon="13.1192882"><ele>1014.0</ele><time>2026-04-26T13:00:02.654Z</time></trkpt><trkpt lat="42.2666807" lon="13.1191714"><ele>1014.0</ele><time>2026-04-26T13:00:03.654Z</time></trkpt><trkpt lat="42.2667604" lon="13.1190685"><ele>1014.0000000000001</ele><time>2026-04-26T13:00:04.653Z</time></trkpt><trkpt lat="42.2668402" lon="13.1189713"><ele>1014.0000000000001</ele><time>2026-04-26T13:00:05.653Z</time></trkpt><trkpt lat="42.2669199" lon="13.1188758"><ele>1014.0</ele><time>2026-04-26T13:00:06.654Z</time></trkpt><trkpt lat="42.2669978" lon="13.1187819"><ele>1014.0</ele><time>2026-04-26T13:00:07.653Z</time></trkpt><trkpt lat="42.2670652" lon="13.1186857"><ele>1015.0</ele><time>2026-04-26T13:00:08.652Z</time></trkpt><trkpt lat="42.2671233" lon="13.1186008"><ele>1016.0</ele><time>2026-04-26T13:00:09.653Z</time></trkpt><trkpt lat="42.2671804" lon="13.1185314"><ele>1017.0</ele><time>2026-04-26T13:00:10.652Z</time></trkpt><trkpt lat="42.2672463" lon="13.1184765"><ele>1018.0</ele><time>2026-04-26T13:00:11.652Z</time></trkpt><trkpt lat="42.2673115" lon="13.1184326"><ele>1019.0</ele><time>2026-04-26T13:00:12.653Z</time></trkpt><trkpt lat="42.2673789" lon="13.1183913"><ele>1020.0</ele><time>2026-04-26T13:00:13.652Z</time></trkpt><trkpt lat="42.2674599" lon="13.1183391"><ele>1020.0</ele><time>2026-04-26T13:00:14.652Z</time></trkpt><trkpt lat="42.2675475" lon="13.1182893"><ele>1020.0</ele><time>2026-04-26T13:00:15.653Z</time></trkpt><trkpt lat="42.2676306" lon="13.1182489"><ele>1020.0</ele><time>2026-04-26T13:00:16.652Z</time></trkpt><trkpt lat="42.2677016" lon="13.1181984"><ele>1020.0</ele><time>2026-04-26T13:00:17.652Z</time></trkpt><trkpt lat="42.2677564" lon="13.1181254"><ele>1020.0</ele><time>2026-04-26T13:00:18.652Z</time></trkpt><trkpt lat="42.2677979" lon="13.1180331"><ele>1020.0</ele><time>2026-04-26T13:00:19.654Z</time></trkpt><trkpt lat="42.267813" lon="13.1179346"><ele>1017.3333333333334</ele><time>2026-04-26T13:00:20.653Z</time></trkpt><trkpt lat="42.2678086" lon="13.117834"><ele>1014.6666666666667</ele><time>2026-04-26T13:00:21.653Z</time></trkpt><trkpt lat="42.2678055" lon="13.1177321"><ele>1012.0</ele><time>2026-04-26T13:00:22.654Z</time></trkpt><trkpt lat="42.2678045" lon="13.1176254"><ele>1009.3333333333334</ele><time>2026-04-26T13:00:24.654Z</time></trkpt><trkpt lat="42.2678291" lon="13.1175256"><ele>1006.6666666666667</ele><time>2026-04-26T13:00:55.652Z</time></trkpt><trkpt lat="42.2679058" lon="13.1173748"><ele>1004.0</ele><time>2026-04-26T13:00:57.654Z</time></trkpt><trkpt lat="42.2679658" lon="13.1172769"><ele>1000.6</ele><time>2026-04-26T13:00:58.653Z</time></trkpt><trkpt lat="42.2680311" lon="13.1171764"><ele>997.2</ele><time>2026-04-26T13:00:59.653Z</time></trkpt><trkpt lat="42.2680984" lon="13.1170822"><ele>993.8000000000001</ele><time>2026-04-26T13:01:00.653Z</time></trkpt><trkpt lat="42.2681654" lon="13.1169949"><ele>990.4000000000001</ele><time>2026-04-26T13:01:01.652Z</time></trkpt><trkpt lat="42.268225" lon="13.1169103"><ele>987.0</ele><time>2026-04-26T13:01:02.653Z</time></trkpt><trkpt lat="42.2682834" lon="13.1168157"><ele>990.1666666666666</ele><time>2026-04-26T13:01:03.653Z</time></trkpt><trkpt lat="42.2683485" lon="13.1167212"><ele>993.3333333333333</ele><time>2026-04-26T13:01:04.653Z</time></trkpt><trkpt lat="42.2684127" lon="13.116633"><ele>996.5</ele><time>2026-04-26T13:01:05.653Z</time></trkpt><trkpt lat="42.2684635" lon="13.1165643"><ele>999.6666666666666</ele><time>2026-04-26T13:01:06.653Z</time></trkpt><trkpt lat="42.2685129" lon="13.1165094"><ele>1002.8333333333333</ele><time>2026-04-26T13:01:07.653Z</time></trkpt><trkpt lat="42.2685666" lon="13.1164647"><ele>1006.0</ele><time>2026-04-26T13:01:08.653Z</time></trkpt><trkpt lat="42.2686634" lon="13.1163864"><ele>1006.0</ele><time>2026-04-26T13:01:10.654Z</time></trkpt><trkpt lat="42.2687526" lon="13.1162954"><ele>1005.9999999999999</ele><time>2026-04-26T13:01:12.654Z</time></trkpt><trkpt lat="42.2688283" lon="13.1161761"><ele>1005.9999999999999</ele><time>2026-04-26T13:01:14.653Z</time></trkpt><trkpt lat="42.2688946" lon="13.1160409"><ele>1006.0</ele><time>2026-04-26T13:01:16.654Z</time></trkpt><trkpt lat="42.268935" lon="13.1159704"><ele>1006.0</ele><time>2026-04-26T13:01:17.653Z</time></trkpt><trkpt lat="42.2689714" lon="13.1159003"><ele>1009.2857142857143</ele><time>2026-04-26T13:01:18.652Z</time></trkpt><trkpt lat="42.26901" lon="13.1158299"><ele>1012.5714285714287</ele><time>2026-04-26T13:01:19.653Z</time></trkpt><trkpt lat="42.2690481" lon="13.1157613"><ele>1015.8571428571429</ele><time>2026-04-26T13:01:20.654Z</time></trkpt><trkpt lat="42.2690899" lon="13.1156971"><ele>1019.1428571428571</ele><time>2026-04-26T13:01:21.653Z</time></trkpt><trkpt lat="42.2691412" lon="13.1156351"><ele>1022.4285714285714</ele><time>2026-04-26T13:01:22.653Z</time></trkpt><trkpt lat="42.2691941" lon="13.1155752"><ele>1025.7142857142858</ele><time>2026-04-26T13:01:23.652Z</time></trkpt><trkpt lat="42.2692504" lon="13.1155137"><ele>1029.0</ele><time>2026-04-26T13:01:24.653Z</time></trkpt><trkpt lat="42.2692993" lon="13.1154487"><ele>1029.0</ele><time>2026-04-26T13:01:25.654Z</time></trkpt><trkpt lat="42.2693442" lon="13.1153864"><ele>1029.0</ele><time>2026-04-26T13:01:26.654Z</time></trkpt><trkpt lat="42.2694355" lon="13.1153012"><ele>1029.0</ele><time>2026-04-26T13:01:28.653Z</time></trkpt><trkpt lat="42.2695072" lon="13.115219"><ele>1029.0</ele><time>2026-04-26T13:01:30.652Z</time></trkpt><trkpt lat="42.2695553" lon="13.1151566"><ele>1029.0</ele><time>2026-04-26T13:01:32.653Z</time></trkpt><trkpt lat="42.2696324" lon="13.115101"><ele>1029.0</ele><time>2026-04-26T13:01:43.653Z</time></trkpt><trkpt lat="42.2697156" lon="13.1151389"><ele>1029.0</ele><time>2026-04-26T13:01:45.654Z</time></trkpt><trkpt lat="42.2697739" lon="13.1152136"><ele>1029.0</ele><time>2026-04-26T13:01:47.653Z</time></trkpt><trkpt lat="42.2698241" lon="13.1152882"><ele>1029.0</ele><time>2026-04-26T13:01:50.654Z</time></trkpt><trkpt lat="42.2697788" lon="13.1152155"><ele>1029.0</ele><time>2026-04-26T13:02:07.653Z</time></trkpt><trkpt lat="42.2697117" lon="13.115123"><ele>1029.0</ele><time>2026-04-26T13:02:09.653Z</time></trkpt><trkpt lat="42.2696442" lon="13.1150816"><ele>1029.0</ele><time>2026-04-26T13:02:11.653Z</time></trkpt><trkpt lat="42.2695751" lon="13.1151008"><ele>1029.0</ele><time>2026-04-26T13:02:13.652Z</time></trkpt><trkpt lat="42.2695133" lon="13.1151196"><ele>1029.0</ele><time>2026-04-26T13:03:16.652Z</time></trkpt><trkpt lat="42.2694463" lon="13.1151257"><ele>1029.0</ele><time>2026-04-26T13:03:19.653Z</time></trkpt><trkpt lat="42.2693803" lon="13.1151162"><ele>1029.0</ele><time>2026-04-26T13:03:22.651Z</time></trkpt><trkpt lat="42.269376" lon="13.1150244"><ele>1029.0</ele><time>2026-04-26T13:03:26.652Z</time></trkpt><trkpt lat="42.2693362" lon="13.1149573"><ele>1029.0</ele><time>2026-04-26T13:03:38.651Z</time></trkpt><trkpt lat="42.269298" lon="13.1150351"><ele>1029.0</ele><time>2026-04-26T13:04:08.652Z</time></trkpt><trkpt lat="42.2693586" lon="13.1150066"><ele>1029.0</ele><time>2026-04-26T13:04:25.652Z</time></trkpt><trkpt lat="42.2693955" lon="13.1150816"><ele>1029.0</ele><time>2026-04-26T13:15:36.647Z</time></trkpt><trkpt lat="42.2694644" lon="13.1150755"><ele>1029.0</ele><time>2026-04-26T13:15:44.647Z</time></trkpt><trkpt lat="42.2695321" lon="13.1150859"><ele>1029.0</ele><time>2026-04-26T13:15:50.647Z</time></trkpt><trkpt lat="42.2695068" lon="13.1152141"><ele>1029.0</ele><time>2026-04-26T13:19:19.645Z</time></trkpt><trkpt lat="42.2694561" lon="13.1152793"><ele>1029.0</ele><time>2026-04-26T13:19:21.645Z</time></trkpt><trkpt lat="42.2693851" lon="13.1153408"><ele>1029.0</ele><time>2026-04-26T13:19:23.645Z</time></trkpt><trkpt lat="42.2693148" lon="13.1154241"><ele>1029.0</ele><time>2026-04-26T13:19:25.644Z</time></trkpt><trkpt lat="42.2692392" lon="13.1155234"><ele>1029.0</ele><time>2026-04-26T13:19:27.645Z</time></trkpt><trkpt lat="42.2691477" lon="13.1156243"><ele>1029.0</ele><time>2026-04-26T13:19:29.644Z</time></trkpt><trkpt lat="42.2690635" lon="13.115732"><ele>1029.0</ele><time>2026-04-26T13:19:31.645Z</time></trkpt><trkpt lat="42.2689935" lon="13.1158647"><ele>1031.8</ele><time>2026-04-26T13:19:33.645Z</time></trkpt><trkpt lat="42.268956" lon="13.1159344"><ele>1034.6000000000001</ele><time>2026-04-26T13:19:34.646Z</time></trkpt><trkpt lat="42.2688871" lon="13.1160556"><ele>1037.4</ele><time>2026-04-26T13:19:36.644Z</time></trkpt><trkpt lat="42.2688324" lon="13.1161787"><ele>1040.2</ele><time>2026-04-26T13:19:38.645Z</time></trkpt><trkpt lat="42.2687771" lon="13.1162803"><ele>1043.0</ele><time>2026-04-26T13:19:40.644Z</time></trkpt><trkpt lat="42.2687047" lon="13.1163457"><ele>1039.6</ele><time>2026-04-26T13:19:43.645Z</time></trkpt><trkpt lat="42.2686468" lon="13.1164015"><ele>1036.1999999999998</ele><time>2026-04-26T13:19:45.645Z</time></trkpt><trkpt lat="42.2685606" lon="13.1164715"><ele>1032.8</ele><time>2026-04-26T13:19:47.644Z</time></trkpt><trkpt lat="42.2684637" lon="13.1165765"><ele>1029.3999999999999</ele><time>2026-04-26T13:19:49.644Z</time></trkpt><trkpt lat="42.268401" lon="13.1166544"><ele>1026.0</ele><time>2026-04-26T13:19:50.643Z</time></trkpt><trkpt lat="42.2683297" lon="13.1167425"><ele>1026.0</ele><time>2026-04-26T13:19:51.644Z</time></trkpt><trkpt lat="42.2682672" lon="13.1168308"><ele>1026.0</ele><time>2026-04-26T13:19:52.643Z</time></trkpt><trkpt lat="42.2682001" lon="13.1169266"><ele>1026.0</ele><time>2026-04-26T13:19:53.643Z</time></trkpt><trkpt lat="42.2681252" lon="13.1170331"><ele>1026.0</ele><time>2026-04-26T13:19:54.643Z</time></trkpt><trkpt lat="42.2680557" lon="13.1171306"><ele>1026.0</ele><time>2026-04-26T13:19:55.644Z</time></trkpt><trkpt lat="42.2679933" lon="13.1172254"><ele>1021.5999999999999</ele><time>2026-04-26T13:19:56.645Z</time></trkpt><trkpt lat="42.2679365" lon="13.1173145"><ele>1017.1999999999999</ele><time>2026-04-26T13:19:57.643Z</time></trkpt><trkpt lat="42.2678906" lon="13.1173999"><ele>1012.8000000000001</ele><time>2026-04-26T13:19:58.644Z</time></trkpt><trkpt lat="42.2678543" lon="13.1174742"><ele>1008.4000000000001</ele><time>2026-04-26T13:19:59.643Z</time></trkpt><trkpt lat="42.2678177" lon="13.117655"><ele>1004.0</ele><time>2026-04-26T13:20:01.644Z</time></trkpt><trkpt lat="42.2678106" lon="13.1177701"><ele>1004.0000000000001</ele><time>2026-04-26T13:20:02.645Z</time></trkpt><trkpt lat="42.2678095" lon="13.1178865"><ele>1004.0</ele><time>2026-04-26T13:20:03.645Z</time></trkpt><trkpt lat="42.2677921" lon="13.1180019"><ele>1004.0</ele><time>2026-04-26T13:20:04.645Z</time></trkpt><trkpt lat="42.2677558" lon="13.1180954"><ele>1004.0</ele><time>2026-04-26T13:20:05.644Z</time></trkpt><trkpt lat="42.2677012" lon="13.1181664"><ele>1004.0000000000001</ele><time>2026-04-26T13:20:06.644Z</time></trkpt><trkpt lat="42.2676268" lon="13.1182292"><ele>1004.0</ele><time>2026-04-26T13:20:07.643Z</time></trkpt><trkpt lat="42.2675329" lon="13.1182796"><ele>1001.4000000000001</ele><time>2026-04-26T13:20:08.644Z</time></trkpt><trkpt lat="42.2674323" lon="13.1183333"><ele>998.8000000000001</ele><time>2026-04-26T13:20:09.644Z</time></trkpt><trkpt lat="42.2673384" lon="13.1183924"><ele>996.1999999999999</ele><time>2026-04-26T13:20:10.645Z</time></trkpt><trkpt lat="42.2672519" lon="13.1184524"><ele>993.5999999999999</ele><time>2026-04-26T13:20:11.645Z</time></trkpt><trkpt lat="42.2671746" lon="13.1185258"><ele>991.0</ele><time>2026-04-26T13:20:12.645Z</time></trkpt><trkpt lat="42.2671097" lon="13.1186071"><ele>991.0</ele><time>2026-04-26T13:20:13.643Z</time></trkpt><trkpt lat="42.2670475" lon="13.1186918"><ele>990.9999999999999</ele><time>2026-04-26T13:20:14.643Z</time></trkpt><trkpt lat="42.2669794" lon="13.1187694"><ele>990.9999999999999</ele><time>2026-04-26T13:20:15.643Z</time></trkpt><trkpt lat="42.2669066" lon="13.118859"><ele>991.0</ele><time>2026-04-26T13:20:16.644Z</time></trkpt><trkpt lat="42.2668349" lon="13.1189497"><ele>991.0</ele><time>2026-04-26T13:20:17.645Z</time></trkpt><trkpt lat="42.2667639" lon="13.1190343"><ele>995.5999999999999</ele><time>2026-04-26T13:20:18.645Z</time></trkpt><trkpt lat="42.2666943" lon="13.1191201"><ele>1000.1999999999999</ele><time>2026-04-26T13:20:19.643Z</time></trkpt><trkpt lat="42.2666311" lon="13.1192147"><ele>1004.8000000000001</ele><time>2026-04-26T13:20:20.644Z</time></trkpt><trkpt lat="42.2665745" lon="13.1193167"><ele>1009.4000000000001</ele><time>2026-04-26T13:20:21.644Z</time></trkpt><trkpt lat="42.2665192" lon="13.1194285"><ele>1014.0</ele><time>2026-04-26T13:20:22.645Z</time></trkpt><trkpt lat="42.2664581" lon="13.1195501"><ele>1010.4000000000001</ele><time>2026-04-26T13:20:23.644Z</time></trkpt><trkpt lat="42.2663925" lon="13.1196733"><ele>1006.8000000000001</ele><time>2026-04-26T13:20:24.644Z</time></trkpt><trkpt lat="42.2663265" lon="13.1197947"><ele>1003.1999999999999</ele><time>2026-04-26T13:20:25.644Z</time></trkpt><trkpt lat="42.2662638" lon="13.1199064"><ele>999.5999999999999</ele><time>2026-04-26T13:20:26.643Z</time></trkpt><trkpt lat="42.2662139" lon="13.1200313"><ele>996.0</ele><time>2026-04-26T13:20:27.644Z</time></trkpt><trkpt lat="42.2661704" lon="13.1201727"><ele>996.0</ele><time>2026-04-26T13:20:28.644Z</time></trkpt><trkpt lat="42.2661261" lon="13.1203226"><ele>996.0</ele><time>2026-04-26T13:20:29.644Z</time></trkpt><trkpt lat="42.2660839" lon="13.1204761"><ele>996.0</ele><time>2026-04-26T13:20:30.645Z</time></trkpt><trkpt lat="42.2660459" lon="13.1206313"><ele>996.0</ele><time>2026-04-26T13:20:31.644Z</time></trkpt><trkpt lat="42.2660051" lon="13.1207792"><ele>997.5</ele><time>2026-04-26T13:20:32.645Z</time></trkpt><trkpt lat="42.2659572" lon="13.1209232"><ele>999.0</ele><time>2026-04-26T13:20:33.645Z</time></trkpt><trkpt lat="42.2658989" lon="13.121064"><ele>1000.5</ele><time>2026-04-26T13:20:34.644Z</time></trkpt><trkpt lat="42.2658285" lon="13.1211976"><ele>1002.0</ele><time>2026-04-26T13:20:35.643Z</time></trkpt><trkpt lat="42.2657515" lon="13.1213274"><ele>1002.0</ele><time>2026-04-26T13:20:36.643Z</time></trkpt><trkpt lat="42.2656735" lon="13.1214596"><ele>1002.0</ele><time>2026-04-26T13:20:37.643Z</time></trkpt><trkpt lat="42.2656002" lon="13.1215878"><ele>1002.0</ele><time>2026-04-26T13:20:38.644Z</time></trkpt><trkpt lat="42.2655332" lon="13.1217078"><ele>1002.0</ele><time>2026-04-26T13:20:39.643Z</time></trkpt><trkpt lat="42.2654713" lon="13.1218169"><ele>1001.2</ele><time>2026-04-26T13:20:40.644Z</time></trkpt><trkpt lat="42.2654176" lon="13.1219175"><ele>1000.4000000000001</ele><time>2026-04-26T13:20:41.644Z</time></trkpt><trkpt lat="42.2653682" lon="13.1220228"><ele>999.5999999999999</ele><time>2026-04-26T13:20:42.644Z</time></trkpt><trkpt lat="42.2653327" lon="13.1221422"><ele>998.8</ele><time>2026-04-26T13:20:43.645Z</time></trkpt><trkpt lat="42.265305" lon="13.1222713"><ele>998.0</ele><time>2026-04-26T13:20:44.644Z</time></trkpt><trkpt lat="42.2652846" lon="13.1224081"><ele>998.0</ele><time>2026-04-26T13:20:45.643Z</time></trkpt><trkpt lat="42.2652601" lon="13.1225419"><ele>998.0</ele><time>2026-04-26T13:20:46.645Z</time></trkpt><trkpt lat="42.2652384" lon="13.1226629"><ele>998.0</ele><time>2026-04-26T13:20:47.645Z</time></trkpt><trkpt lat="42.2652321" lon="13.1227819"><ele>998.0</ele><time>2026-04-26T13:20:48.643Z</time></trkpt><trkpt lat="42.2652415" lon="13.1229039"><ele>998.0</ele><time>2026-04-26T13:20:49.643Z</time></trkpt><trkpt lat="42.2652667" lon="13.1230283"><ele>998.0</ele><time>2026-04-26T13:20:50.644Z</time></trkpt><trkpt lat="42.2653019" lon="13.1231613"><ele>998.0</ele><time>2026-04-26T13:20:51.645Z</time></trkpt><trkpt lat="42.2653351" lon="13.1233054"><ele>998.0</ele><time>2026-04-26T13:20:52.644Z</time></trkpt><trkpt lat="42.2653641" lon="13.1234629"><ele>998.0</ele><time>2026-04-26T13:20:53.645Z</time></trkpt><trkpt lat="42.2653824" lon="13.12363"><ele>997.25</ele><time>2026-04-26T13:20:54.645Z</time></trkpt><trkpt lat="42.2653941" lon="13.1238062"><ele>996.5</ele><time>2026-04-26T13:20:55.645Z</time></trkpt><trkpt lat="42.2654093" lon="13.1239772"><ele>995.75</ele><time>2026-04-26T13:20:56.644Z</time></trkpt><trkpt lat="42.2654335" lon="13.1241392"><ele>995.0</ele><time>2026-04-26T13:20:57.644Z</time></trkpt><trkpt lat="42.2654608" lon="13.1242821"><ele>995.0</ele><time>2026-04-26T13:20:58.644Z</time></trkpt><trkpt lat="42.2654868" lon="13.1244104"><ele>995.0</ele><time>2026-04-26T13:20:59.644Z</time></trkpt><trkpt lat="42.2655116" lon="13.1245377"><ele>995.0</ele><time>2026-04-26T13:21:00.644Z</time></trkpt><trkpt lat="42.2655325" lon="13.1246647"><ele>995.0</ele><time>2026-04-26T13:21:01.644Z</time></trkpt><trkpt lat="42.26554" lon="13.1247888"><ele>995.0</ele><time>2026-04-26T13:21:02.643Z</time></trkpt><trkpt lat="42.2655612" lon="13.1249112"><ele>994.8</ele><time>2026-04-26T13:21:03.643Z</time></trkpt><trkpt lat="42.2656053" lon="13.1250342"><ele>994.6</ele><time>2026-04-26T13:21:04.644Z</time></trkpt><trkpt lat="42.2656668" lon="13.1251533"><ele>994.4000000000001</ele><time>2026-04-26T13:21:05.644Z</time></trkpt><trkpt lat="42.2657377" lon="13.1252726"><ele>994.2</ele><time>2026-04-26T13:21:06.645Z</time></trkpt><trkpt lat="42.2658082" lon="13.1253896"><ele>994.0</ele><time>2026-04-26T13:21:07.644Z</time></trkpt><trkpt lat="42.26588" lon="13.1255069"><ele>996.0</ele><time>2026-04-26T13:21:08.644Z</time></trkpt><trkpt lat="42.2659499" lon="13.1256209"><ele>998.0000000000001</ele><time>2026-04-26T13:21:09.645Z</time></trkpt><trkpt lat="42.2660172" lon="13.1257307"><ele>1000.0000000000001</ele><time>2026-04-26T13:21:10.645Z</time></trkpt><trkpt lat="42.2660831" lon="13.1258301"><ele>1002.0</ele><time>2026-04-26T13:21:11.645Z</time></trkpt><trkpt lat="42.2661426" lon="13.1259305"><ele>1004.0</ele><time>2026-04-26T13:21:12.643Z</time></trkpt><trkpt lat="42.2661918" lon="13.1260268"><ele>1004.0000000000001</ele><time>2026-04-26T13:21:13.643Z</time></trkpt><trkpt lat="42.2662308" lon="13.1261283"><ele>1004.0</ele><time>2026-04-26T13:21:14.645Z</time></trkpt><trkpt lat="42.2662556" lon="13.1262321"><ele>1004.0</ele><time>2026-04-26T13:21:15.644Z</time></trkpt><trkpt lat="42.2662674" lon="13.1263507"><ele>1004.0</ele><time>2026-04-26T13:21:16.644Z</time></trkpt><trkpt lat="42.2662617" lon="13.1264627"><ele>1004.0000000000001</ele><time>2026-04-26T13:21:17.643Z</time></trkpt><trkpt lat="42.2662541" lon="13.1265705"><ele>1004.0</ele><time>2026-04-26T13:21:18.644Z</time></trkpt><trkpt lat="42.2662485" lon="13.1266633"><ele>1002.9999999999999</ele><time>2026-04-26T13:21:19.645Z</time></trkpt><trkpt lat="42.266246" lon="13.1267486"><ele>1002.0</ele><time>2026-04-26T13:21:20.643Z</time></trkpt><trkpt lat="42.2662268" lon="13.1268337"><ele>1000.9999999999999</ele><time>2026-04-26T13:21:21.644Z</time></trkpt><trkpt lat="42.2661982" lon="13.1269226"><ele>999.9999999999999</ele><time>2026-04-26T13:21:22.645Z</time></trkpt><trkpt lat="42.266167" lon="13.1270137"><ele>999.0</ele><time>2026-04-26T13:21:23.644Z</time></trkpt><trkpt lat="42.2661333" lon="13.1271026"><ele>997.9999999999999</ele><time>2026-04-26T13:21:24.644Z</time></trkpt><trkpt lat="42.2660968" lon="13.1271883"><ele>996.9999999999999</ele><time>2026-04-26T13:21:25.643Z</time></trkpt><trkpt lat="42.266067" lon="13.1272705"><ele>997.0</ele><time>2026-04-26T13:21:26.645Z</time></trkpt><trkpt lat="42.2660085" lon="13.1273893"><ele>997.0</ele><time>2026-04-26T13:21:28.643Z</time></trkpt><trkpt lat="42.2659597" lon="13.1274565"><ele>997.0</ele><time>2026-04-26T13:21:30.645Z</time></trkpt><trkpt lat="42.2658899" lon="13.1274511"><ele>997.0</ele><time>2026-04-26T13:21:32.645Z</time></trkpt><trkpt lat="42.2657839" lon="13.1273575"><ele>997.0</ele><time>2026-04-26T13:21:34.644Z</time></trkpt><trkpt lat="42.2656933" lon="13.127316"><ele>997.0</ele><time>2026-04-26T13:21:36.644Z</time></trkpt><trkpt lat="42.2656256" lon="13.1273641"><ele>997.0</ele><time>2026-04-26T13:21:44.644Z</time></trkpt><trkpt lat="42.2656286" lon="13.1275054"><ele>997.0</ele><time>2026-04-26T13:21:46.643Z</time></trkpt><trkpt lat="42.265702" lon="13.1276333"><ele>997.0</ele><time>2026-04-26T13:21:47.643Z</time></trkpt><trkpt lat="42.2657469" lon="13.127766"><ele>997.0</ele><time>2026-04-26T13:21:48.642Z</time></trkpt><trkpt lat="42.2657978" lon="13.1279086"><ele>996.75</ele><time>2026-04-26T13:21:49.642Z</time></trkpt><trkpt lat="42.26586" lon="13.1280554"><ele>996.5</ele><time>2026-04-26T13:21:50.643Z</time></trkpt><trkpt lat="42.2659433" lon="13.1282008"><ele>996.25</ele><time>2026-04-26T13:21:51.643Z</time></trkpt><trkpt lat="42.2660346" lon="13.1283316"><ele>996.0</ele><time>2026-04-26T13:21:52.644Z</time></trkpt><trkpt lat="42.2661284" lon="13.1284652"><ele>994.5</ele><time>2026-04-26T13:21:53.642Z</time></trkpt><trkpt lat="42.2662102" lon="13.1286096"><ele>993.0</ele><time>2026-04-26T13:21:54.642Z</time></trkpt><trkpt lat="42.2662719" lon="13.1287631"><ele>991.5</ele><time>2026-04-26T13:21:55.642Z</time></trkpt><trkpt lat="42.2663121" lon="13.1289242"><ele>990.0</ele><time>2026-04-26T13:21:56.642Z</time></trkpt><trkpt lat="42.2663265" lon="13.1290929"><ele>987.0</ele><time>2026-04-26T13:21:57.643Z</time></trkpt><trkpt lat="42.266314" lon="13.1292651"><ele>984.0</ele><time>2026-04-26T13:21:58.644Z</time></trkpt><trkpt lat="42.2662891" lon="13.1294357"><ele>981.0</ele><time>2026-04-26T13:21:59.644Z</time></trkpt><trkpt lat="42.2662629" lon="13.1296045"><ele>978.0</ele><time>2026-04-26T13:22:00.643Z</time></trkpt><trkpt lat="42.2662568" lon="13.1297849"><ele>976.25</ele><time>2026-04-26T13:22:01.643Z</time></trkpt><trkpt lat="42.2662848" lon="13.1299739"><ele>974.5</ele><time>2026-04-26T13:22:02.643Z</time></trkpt><trkpt lat="42.2663361" lon="13.1301619"><ele>972.75</ele><time>2026-04-26T13:22:03.643Z</time></trkpt><trkpt lat="42.2663965" lon="13.1303407"><ele>971.0</ele><time>2026-04-26T13:22:04.644Z</time></trkpt><trkpt lat="42.266449" lon="13.1305238"><ele>969.75</ele><time>2026-04-26T13:22:05.643Z</time></trkpt><trkpt lat="42.2664778" lon="13.1307035"><ele>968.5</ele><time>2026-04-26T13:22:06.643Z</time></trkpt><trkpt lat="42.2664816" lon="13.130878"><ele>967.25</ele><time>2026-04-26T13:22:07.643Z</time></trkpt><trkpt lat="42.2664499" lon="13.1310517"><ele>966.0</ele><time>2026-04-26T13:22:08.644Z</time></trkpt><trkpt lat="42.2664059" lon="13.1312287"><ele>966.0</ele><time>2026-04-26T13:22:09.643Z</time></trkpt><trkpt lat="42.2663801" lon="13.1314197"><ele>966.0</ele><time>2026-04-26T13:22:10.643Z</time></trkpt><trkpt lat="42.2663722" lon="13.1316245"><ele>966.0</ele><time>2026-04-26T13:22:11.643Z</time></trkpt><trkpt lat="42.2663688" lon="13.1318354"><ele>966.3333333333333</ele><time>2026-04-26T13:22:12.643Z</time></trkpt><trkpt lat="42.266366" lon="13.132041"><ele>966.6666666666666</ele><time>2026-04-26T13:22:13.643Z</time></trkpt><trkpt lat="42.2663519" lon="13.1322411"><ele>967.0</ele><time>2026-04-26T13:22:14.643Z</time></trkpt><trkpt lat="42.2663329" lon="13.1324458"><ele>967.75</ele><time>2026-04-26T13:22:15.643Z</time></trkpt><trkpt lat="42.2662997" lon="13.1326405"><ele>968.5</ele><time>2026-04-26T13:22:16.643Z</time></trkpt><trkpt lat="42.2662599" lon="13.1328367"><ele>969.25</ele><time>2026-04-26T13:22:17.643Z</time></trkpt><trkpt lat="42.2662176" lon="13.1330255"><ele>970.0</ele><time>2026-04-26T13:22:18.643Z</time></trkpt><trkpt lat="42.2661639" lon="13.1332047"><ele>971.75</ele><time>2026-04-26T13:22:19.644Z</time></trkpt><trkpt lat="42.2660992" lon="13.1333694"><ele>973.5</ele><time>2026-04-26T13:22:20.642Z</time></trkpt><trkpt lat="42.2660244" lon="13.1335199"><ele>975.25</ele><time>2026-04-26T13:22:21.642Z</time></trkpt><trkpt lat="42.2659525" lon="13.133664"><ele>977.0</ele><time>2026-04-26T13:22:22.642Z</time></trkpt><trkpt lat="42.2659055" lon="13.1338225"><ele>977.0</ele><time>2026-04-26T13:22:23.642Z</time></trkpt><trkpt lat="42.2658782" lon="13.1340046"><ele>977.0</ele><time>2026-04-26T13:22:24.644Z</time></trkpt><trkpt lat="42.265866" lon="13.134198"><ele>977.0</ele><time>2026-04-26T13:22:25.644Z</time></trkpt><trkpt lat="42.2658593" lon="13.1343988"><ele>977.0</ele><time>2026-04-26T13:22:26.644Z</time></trkpt><trkpt lat="42.2658639" lon="13.1346079"><ele>976.3333333333334</ele><time>2026-04-26T13:22:27.642Z</time></trkpt><trkpt lat="42.2658847" lon="13.1348225"><ele>975.6666666666667</ele><time>2026-04-26T13:22:28.642Z</time></trkpt><trkpt lat="42.2659171" lon="13.1350367"><ele>975.0</ele><time>2026-04-26T13:22:29.644Z</time></trkpt><trkpt lat="42.2659511" lon="13.1352383"><ele>974.75</ele><time>2026-04-26T13:22:30.644Z</time></trkpt><trkpt lat="42.2659909" lon="13.1354228"><ele>974.5</ele><time>2026-04-26T13:22:31.643Z</time></trkpt><trkpt lat="42.2660274" lon="13.1356026"><ele>974.25</ele><time>2026-04-26T13:22:32.642Z</time></trkpt><trkpt lat="42.2660353" lon="13.1357976"><ele>974.0</ele><time>2026-04-26T13:22:33.644Z</time></trkpt><trkpt lat="42.2660108" lon="13.1359885"><ele>973.25</ele><time>2026-04-26T13:22:34.643Z</time></trkpt><trkpt lat="42.2659833" lon="13.1361818"><ele>972.5</ele><time>2026-04-26T13:22:35.643Z</time></trkpt><trkpt lat="42.2659748" lon="13.1363697"><ele>971.75</ele><time>2026-04-26T13:22:36.644Z</time></trkpt><trkpt lat="42.2659708" lon="13.1365552"><ele>971.0</ele><time>2026-04-26T13:22:37.642Z</time></trkpt><trkpt lat="42.2659694" lon="13.1367363"><ele>970.0</ele><time>2026-04-26T13:22:38.644Z</time></trkpt><trkpt lat="42.2659821" lon="13.136927"><ele>969.0</ele><time>2026-04-26T13:22:39.643Z</time></trkpt><trkpt lat="42.2660017" lon="13.1371223"><ele>968.0</ele><time>2026-04-26T13:22:40.644Z</time></trkpt><trkpt lat="42.2660287" lon="13.1373012"><ele>967.0</ele><time>2026-04-26T13:22:41.643Z</time></trkpt><trkpt lat="42.2661264" lon="13.1375142"><ele>963.6666666666666</ele><time>2026-04-26T13:22:42.643Z</time></trkpt><trkpt lat="42.2661613" lon="13.1377171"><ele>960.3333333333333</ele><time>2026-04-26T13:22:43.644Z</time></trkpt><trkpt lat="42.266181" lon="13.1379226"><ele>957.0</ele><time>2026-04-26T13:22:44.644Z</time></trkpt><trkpt lat="42.2661728" lon="13.1381341"><ele>956.0</ele><time>2026-04-26T13:22:45.642Z</time></trkpt><trkpt lat="42.2661375" lon="13.1383234"><ele>955.0</ele><time>2026-04-26T13:22:46.643Z</time></trkpt><trkpt lat="42.266118" lon="13.1385173"><ele>954.0</ele><time>2026-04-26T13:22:47.643Z</time></trkpt><trkpt lat="42.266131" lon="13.1387234"><ele>953.0</ele><time>2026-04-26T13:22:48.642Z</time></trkpt><trkpt lat="42.2661729" lon="13.1389366"><ele>952.0</ele><time>2026-04-26T13:22:49.644Z</time></trkpt><trkpt lat="42.2662224" lon="13.1391558"><ele>951.0</ele><time>2026-04-26T13:22:50.643Z</time></trkpt><trkpt lat="42.2662774" lon="13.1393618"><ele>950.0</ele><time>2026-04-26T13:22:51.643Z</time></trkpt><trkpt lat="42.2663098" lon="13.1395777"><ele>950.0</ele><time>2026-04-26T13:22:52.643Z</time></trkpt><trkpt lat="42.2663185" lon="13.1398019"><ele>950.0</ele><time>2026-04-26T13:22:53.643Z</time></trkpt><trkpt lat="42.2663185" lon="13.1400287"><ele>950.0</ele><time>2026-04-26T13:22:54.644Z</time></trkpt><trkpt lat="42.2663094" lon="13.1402475"><ele>949.0</ele><time>2026-04-26T13:22:55.643Z</time></trkpt><trkpt lat="42.2662944" lon="13.140459"><ele>948.0</ele><time>2026-04-26T13:22:56.642Z</time></trkpt><trkpt lat="42.2662792" lon="13.1406641"><ele>947.0</ele><time>2026-04-26T13:22:57.643Z</time></trkpt><trkpt lat="42.2662596" lon="13.1408557"><ele>945.75</ele><time>2026-04-26T13:22:58.643Z</time></trkpt><trkpt lat="42.26625" lon="13.1410303"><ele>944.5</ele><time>2026-04-26T13:22:59.643Z</time></trkpt><trkpt lat="42.2662664" lon="13.1411978"><ele>943.25</ele><time>2026-04-26T13:23:00.642Z</time></trkpt><trkpt lat="42.2663241" lon="13.1413559"><ele>942.0</ele><time>2026-04-26T13:23:01.644Z</time></trkpt><trkpt lat="42.2664147" lon="13.1415061"><ele>949.0</ele><time>2026-04-26T13:23:02.643Z</time></trkpt><trkpt lat="42.2664918" lon="13.1416809"><ele>956.0</ele><time>2026-04-26T13:23:03.643Z</time></trkpt><trkpt lat="42.2665541" lon="13.1418808"><ele>963.0</ele><time>2026-04-26T13:23:04.643Z</time></trkpt><trkpt lat="42.2666279" lon="13.142072"><ele>963.0</ele><time>2026-04-26T13:23:05.642Z</time></trkpt><trkpt lat="42.2667084" lon="13.1422584"><ele>963.0</ele><time>2026-04-26T13:23:06.643Z</time></trkpt><trkpt lat="42.2667885" lon="13.1424403"><ele>963.0</ele><time>2026-04-26T13:23:07.643Z</time></trkpt><trkpt lat="42.2668514" lon="13.1426271"><ele>958.6666666666667</ele><time>2026-04-26T13:23:08.644Z</time></trkpt><trkpt lat="42.2668919" lon="13.1428372"><ele>954.3333333333334</ele><time>2026-04-26T13:23:09.643Z</time></trkpt><trkpt lat="42.2669044" lon="13.1430589"><ele>950.0</ele><time>2026-04-26T13:23:10.644Z</time></trkpt><trkpt lat="42.2669022" lon="13.1432882"><ele>947.0</ele><time>2026-04-26T13:23:11.644Z</time></trkpt><trkpt lat="42.2669008" lon="13.1435241"><ele>944.0</ele><time>2026-04-26T13:23:12.643Z</time></trkpt><trkpt lat="42.266894" lon="13.1437597"><ele>941.0</ele><time>2026-04-26T13:23:13.643Z</time></trkpt><trkpt lat="42.2668859" lon="13.1439904"><ele>940.3333333333334</ele><time>2026-04-26T13:23:14.643Z</time></trkpt><trkpt lat="42.2668749" lon="13.1442164"><ele>939.6666666666667</ele><time>2026-04-26T13:23:15.642Z</time></trkpt><trkpt lat="42.2668653" lon="13.1444407"><ele>939.0</ele><time>2026-04-26T13:23:16.644Z</time></trkpt><trkpt lat="42.2668624" lon="13.1446667"><ele>938.0</ele><time>2026-04-26T13:23:17.643Z</time></trkpt><trkpt lat="42.2668621" lon="13.1448994"><ele>937.0</ele><time>2026-04-26T13:23:18.642Z</time></trkpt><trkpt lat="42.2668621" lon="13.1451411"><ele>936.0</ele><time>2026-04-26T13:23:19.643Z</time></trkpt><trkpt lat="42.2668657" lon="13.1453752"><ele>936.0</ele><time>2026-04-26T13:23:20.643Z</time></trkpt><trkpt lat="42.2668762" lon="13.1455991"><ele>936.0</ele><time>2026-04-26T13:23:21.643Z</time></trkpt><trkpt lat="42.2668685" lon="13.1458182"><ele>936.0</ele><time>2026-04-26T13:23:22.642Z</time></trkpt><trkpt lat="42.2668291" lon="13.1460322"><ele>936.0</ele><time>2026-04-26T13:23:23.642Z</time></trkpt><trkpt lat="42.2667679" lon="13.146224"><ele>936.0</ele><time>2026-04-26T13:23:24.642Z</time></trkpt><trkpt lat="42.2667132" lon="13.1464103"><ele>936.0</ele><time>2026-04-26T13:23:25.642Z</time></trkpt><trkpt lat="42.2666901" lon="13.1466086"><ele>936.0</ele><time>2026-04-26T13:23:26.644Z</time></trkpt><trkpt lat="42.2667095" lon="13.1468247"><ele>936.0</ele><time>2026-04-26T13:23:27.644Z</time></trkpt><trkpt lat="42.2667588" lon="13.1470427"><ele>936.0</ele><time>2026-04-26T13:23:28.642Z</time></trkpt><trkpt lat="42.2668033" lon="13.1472784"><ele>933.6666666666667</ele><time>2026-04-26T13:23:29.642Z</time></trkpt><trkpt lat="42.2668334" lon="13.1475281"><ele>931.3333333333334</ele><time>2026-04-26T13:23:30.643Z</time></trkpt><trkpt lat="42.2668503" lon="13.1477767"><ele>929.0</ele><time>2026-04-26T13:23:31.644Z</time></trkpt><trkpt lat="42.2668607" lon="13.1480185"><ele>927.6666666666667</ele><time>2026-04-26T13:23:32.643Z</time></trkpt><trkpt lat="42.2668592" lon="13.1482525"><ele>926.3333333333333</ele><time>2026-04-26T13:23:33.643Z</time></trkpt><trkpt lat="42.2668372" lon="13.1484858"><ele>925.0</ele><time>2026-04-26T13:23:34.642Z</time></trkpt><trkpt lat="42.2668035" lon="13.1487169"><ele>925.0</ele><time>2026-04-26T13:23:35.643Z</time></trkpt><trkpt lat="42.2667804" lon="13.1489494"><ele>925.0</ele><time>2026-04-26T13:23:36.643Z</time></trkpt><trkpt lat="42.2667727" lon="13.1491855"><ele>925.0</ele><time>2026-04-26T13:23:37.643Z</time></trkpt><trkpt lat="42.2667798" lon="13.1494219"><ele>925.0</ele><time>2026-04-26T13:23:38.642Z</time></trkpt><trkpt lat="42.266798" lon="13.1496578"><ele>925.0</ele><time>2026-04-26T13:23:39.643Z</time></trkpt><trkpt lat="42.266826" lon="13.1498825"><ele>925.0</ele><time>2026-04-26T13:23:40.642Z</time></trkpt><trkpt lat="42.266857" lon="13.1501009"><ele>923.75</ele><time>2026-04-26T13:23:41.643Z</time></trkpt><trkpt lat="42.2668949" lon="13.150308"><ele>922.5</ele><time>2026-04-26T13:23:42.643Z</time></trkpt><trkpt lat="42.2669472" lon="13.1504979"><ele>921.25</ele><time>2026-04-26T13:23:43.644Z</time></trkpt><trkpt lat="42.2670004" lon="13.1506604"><ele>920.0</ele><time>2026-04-26T13:23:44.642Z</time></trkpt><trkpt lat="42.2670308" lon="13.1508146"><ele>919.6</ele><time>2026-04-26T13:23:45.643Z</time></trkpt><trkpt lat="42.2670244" lon="13.1509514"><ele>919.2</ele><time>2026-04-26T13:23:46.643Z</time></trkpt><trkpt lat="42.266973" lon="13.1510739"><ele>918.8</ele><time>2026-04-26T13:23:47.643Z</time></trkpt><trkpt lat="42.2668894" lon="13.1511862"><ele>918.4</ele><time>2026-04-26T13:23:48.642Z</time></trkpt><trkpt lat="42.2668067" lon="13.1512859"><ele>918.0</ele><time>2026-04-26T13:23:49.643Z</time></trkpt><trkpt lat="42.2667273" lon="13.1513755"><ele>918.0</ele><time>2026-04-26T13:23:50.643Z</time></trkpt><trkpt lat="42.2666577" lon="13.1514465"><ele>918.0</ele><time>2026-04-26T13:23:51.643Z</time></trkpt><trkpt lat="42.266599" lon="13.1514981"><ele>918.0</ele><time>2026-04-26T13:23:52.643Z</time></trkpt><trkpt lat="42.2665298" lon="13.1515603"><ele>918.0</ele><time>2026-04-26T13:23:54.642Z</time></trkpt><trkpt lat="42.266473" lon="13.1516133"><ele>918.0</ele><time>2026-04-26T13:23:57.641Z</time></trkpt><trkpt lat="42.2663955" lon="13.1516798"><ele>918.0</ele><time>2026-04-26T13:23:59.643Z</time></trkpt><trkpt lat="42.2663756" lon="13.1518189"><ele>919.2</ele><time>2026-04-26T13:24:01.643Z</time></trkpt><trkpt lat="42.2664193" lon="13.1519764"><ele>920.4</ele><time>2026-04-26T13:24:03.641Z</time></trkpt><trkpt lat="42.2664499" lon="13.1520701"><ele>921.6000000000001</ele><time>2026-04-26T13:24:04.643Z</time></trkpt><trkpt lat="42.2664876" lon="13.1521626"><ele>922.8000000000001</ele><time>2026-04-26T13:24:05.642Z</time></trkpt><trkpt lat="42.2665248" lon="13.1522605"><ele>924.0</ele><time>2026-04-26T13:24:06.641Z</time></trkpt><trkpt lat="42.2665467" lon="13.1523818"><ele>924.0</ele><time>2026-04-26T13:24:07.643Z</time></trkpt><trkpt lat="42.2665645" lon="13.1525016"><ele>924.0</ele><time>2026-04-26T13:24:08.641Z</time></trkpt><trkpt lat="42.2665845" lon="13.152616"><ele>924.0</ele><time>2026-04-26T13:24:09.643Z</time></trkpt><trkpt lat="42.2666146" lon="13.1527129"><ele>924.0</ele><time>2026-04-26T13:24:10.641Z</time></trkpt><trkpt lat="42.2666574" lon="13.1527966"><ele>924.0</ele><time>2026-04-26T13:24:11.641Z</time></trkpt><trkpt lat="42.2667101" lon="13.1528738"><ele>924.0</ele><time>2026-04-26T13:24:12.642Z</time></trkpt><trkpt lat="42.2667621" lon="13.152944"><ele>924.0</ele><time>2026-04-26T13:24:13.642Z</time></trkpt><trkpt lat="42.2667982" lon="13.1530361"><ele>924.0000000000001</ele><time>2026-04-26T13:24:14.642Z</time></trkpt><trkpt lat="42.2668079" lon="13.1531484"><ele>924.0000000000001</ele><time>2026-04-26T13:24:15.643Z</time></trkpt><trkpt lat="42.266776" lon="13.1532649"><ele>924.0</ele><time>2026-04-26T13:24:16.642Z</time></trkpt><trkpt lat="42.2667231" lon="13.1533847"><ele>924.0</ele><time>2026-04-26T13:24:17.642Z</time></trkpt><trkpt lat="42.266683" lon="13.1535316"><ele>920.5</ele><time>2026-04-26T13:24:18.642Z</time></trkpt><trkpt lat="42.2666859" lon="13.1536884"><ele>917.0</ele><time>2026-04-26T13:24:19.643Z</time></trkpt><trkpt lat="42.2667238" lon="13.153852"><ele>913.5</ele><time>2026-04-26T13:24:20.642Z</time></trkpt><trkpt lat="42.2667806" lon="13.1540065"><ele>910.0</ele><time>2026-04-26T13:24:21.641Z</time></trkpt><trkpt lat="42.266841" lon="13.1541518"><ele>908.0</ele><time>2026-04-26T13:24:22.641Z</time></trkpt><trkpt lat="42.2668875" lon="13.1542957"><ele>906.0</ele><time>2026-04-26T13:24:23.643Z</time></trkpt><trkpt lat="42.2669004" lon="13.1544507"><ele>904.0</ele><time>2026-04-26T13:24:24.643Z</time></trkpt><trkpt lat="42.2668756" lon="13.1546117"><ele>902.0</ele><time>2026-04-26T13:24:25.642Z</time></trkpt><trkpt lat="42.2668425" lon="13.1547911"><ele>901.25</ele><time>2026-04-26T13:24:26.643Z</time></trkpt><trkpt lat="42.2668288" lon="13.1549845"><ele>900.5</ele><time>2026-04-26T13:24:27.642Z</time></trkpt><trkpt lat="42.2668282" lon="13.1551872"><ele>899.75</ele><time>2026-04-26T13:24:28.641Z</time></trkpt><trkpt lat="42.2668336" lon="13.1553848"><ele>899.0</ele><time>2026-04-26T13:24:29.642Z</time></trkpt><trkpt lat="42.2668326" lon="13.1555819"><ele>897.5</ele><time>2026-04-26T13:24:30.642Z</time></trkpt><trkpt lat="42.266825" lon="13.15578"><ele>896.0</ele><time>2026-04-26T13:24:31.643Z</time></trkpt><trkpt lat="42.2667972" lon="13.1559792"><ele>894.5</ele><time>2026-04-26T13:24:32.641Z</time></trkpt><trkpt lat="42.2667556" lon="13.1561753"><ele>893.0</ele><time>2026-04-26T13:24:33.642Z</time></trkpt><trkpt lat="42.2667053" lon="13.1563646"><ele>892.25</ele><time>2026-04-26T13:24:34.642Z</time></trkpt><trkpt lat="42.2666531" lon="13.1565519"><ele>891.5</ele><time>2026-04-26T13:24:35.641Z</time></trkpt><trkpt lat="42.2666118" lon="13.1567322"><ele>890.75</ele><time>2026-04-26T13:24:36.643Z</time></trkpt><trkpt lat="42.2666039" lon="13.1569087"><ele>890.0</ele><time>2026-04-26T13:24:37.643Z</time></trkpt><trkpt lat="42.266635" lon="13.1570772"><ele>890.0</ele><time>2026-04-26T13:24:38.642Z</time></trkpt><trkpt lat="42.2666941" lon="13.157224"><ele>890.0</ele><time>2026-04-26T13:24:39.642Z</time></trkpt><trkpt lat="42.266741" lon="13.1573614"><ele>890.0</ele><time>2026-04-26T13:24:40.643Z</time></trkpt><trkpt lat="42.266751" lon="13.1575091"><ele>890.0</ele><time>2026-04-26T13:24:41.643Z</time></trkpt><trkpt lat="42.2667256" lon="13.1576546"><ele>889.75</ele><time>2026-04-26T13:24:42.642Z</time></trkpt><trkpt lat="42.2666605" lon="13.1577933"><ele>889.5</ele><time>2026-04-26T13:24:43.643Z</time></trkpt><trkpt lat="42.2665908" lon="13.1579485"><ele>889.25</ele><time>2026-04-26T13:24:44.641Z</time></trkpt><trkpt lat="42.2665413" lon="13.1581244"><ele>889.0</ele><time>2026-04-26T13:24:45.642Z</time></trkpt><trkpt lat="42.2665196" lon="13.1583175"><ele>890.0</ele><time>2026-04-26T13:24:46.642Z</time></trkpt><trkpt lat="42.266531" lon="13.1585233"><ele>891.0</ele><time>2026-04-26T13:24:47.642Z</time></trkpt><trkpt lat="42.2665726" lon="13.1587228"><ele>892.0</ele><time>2026-04-26T13:24:48.642Z</time></trkpt><trkpt lat="42.2666312" lon="13.1589098"><ele>890.0</ele><time>2026-04-26T13:24:49.643Z</time></trkpt><trkpt lat="42.2666926" lon="13.1590881"><ele>888.0</ele><time>2026-04-26T13:24:50.642Z</time></trkpt><trkpt lat="42.266738" lon="13.1592704"><ele>886.0</ele><time>2026-04-26T13:24:51.643Z</time></trkpt><trkpt lat="42.2667595" lon="13.1594624"><ele>884.0</ele><time>2026-04-26T13:24:52.643Z</time></trkpt><trkpt lat="42.266753" lon="13.159652"><ele>884.0</ele><time>2026-04-26T13:24:53.643Z</time></trkpt><trkpt lat="42.2667353" lon="13.1598562"><ele>884.0</ele><time>2026-04-26T13:24:54.643Z</time></trkpt><trkpt lat="42.2667285" lon="13.1600554"><ele>884.0</ele><time>2026-04-26T13:24:55.641Z</time></trkpt><trkpt lat="42.2667367" lon="13.160249"><ele>884.0</ele><time>2026-04-26T13:24:56.643Z</time></trkpt><trkpt lat="42.2667545" lon="13.1604328"><ele>882.0</ele><time>2026-04-26T13:24:57.643Z</time></trkpt><trkpt lat="42.2667665" lon="13.1606227"><ele>880.0</ele><time>2026-04-26T13:24:58.641Z</time></trkpt><trkpt lat="42.2667622" lon="13.1608065"><ele>878.0</ele><time>2026-04-26T13:24:59.643Z</time></trkpt><trkpt lat="42.2667375" lon="13.1609873"><ele>876.0</ele><time>2026-04-26T13:25:00.643Z</time></trkpt><trkpt lat="42.2666939" lon="13.161164"><ele>875.0</ele><time>2026-04-26T13:25:01.643Z</time></trkpt><trkpt lat="42.266644" lon="13.1613431"><ele>874.0</ele><time>2026-04-26T13:25:02.643Z</time></trkpt><trkpt lat="42.2665923" lon="13.1615326"><ele>873.0</ele><time>2026-04-26T13:25:03.641Z</time></trkpt><trkpt lat="42.2665431" lon="13.1617293"><ele>872.0</ele><time>2026-04-26T13:25:04.641Z</time></trkpt><trkpt lat="42.2664935" lon="13.1619327"><ele>871.3333333333334</ele><time>2026-04-26T13:25:05.643Z</time></trkpt><trkpt lat="42.2664509" lon="13.162144"><ele>870.6666666666667</ele><time>2026-04-26T13:25:06.642Z</time></trkpt><trkpt lat="42.2664142" lon="13.1623587"><ele>870.0</ele><time>2026-04-26T13:25:07.641Z</time></trkpt><trkpt lat="42.2663852" lon="13.1625799"><ele>862.6666666666667</ele><time>2026-04-26T13:25:08.642Z</time></trkpt><trkpt lat="42.2663564" lon="13.1627997"><ele>855.3333333333334</ele><time>2026-04-26T13:25:09.643Z</time></trkpt><trkpt lat="42.2663265" lon="13.1630185"><ele>848.0</ele><time>2026-04-26T13:25:10.641Z</time></trkpt><trkpt lat="42.2662972" lon="13.1632154"><ele>848.0</ele><time>2026-04-26T13:25:11.641Z</time></trkpt><trkpt lat="42.266268" lon="13.1633867"><ele>848.0</ele><time>2026-04-26T13:25:12.641Z</time></trkpt><trkpt lat="42.2662382" lon="13.1635291"><ele>848.0</ele><time>2026-04-26T13:25:13.641Z</time></trkpt><trkpt lat="42.2662085" lon="13.163641"><ele>848.0</ele><time>2026-04-26T13:25:14.641Z</time></trkpt><trkpt lat="42.2661614" lon="13.163727"><ele>848.0</ele><time>2026-04-26T13:25:15.642Z</time></trkpt><trkpt lat="42.2660977" lon="13.1637784"><ele>848.0000000000001</ele><time>2026-04-26T13:25:16.642Z</time></trkpt><trkpt lat="42.2660276" lon="13.1637782"><ele>848.0</ele><time>2026-04-26T13:25:17.642Z</time></trkpt><trkpt lat="42.265971" lon="13.1637234"><ele>848.0</ele><time>2026-04-26T13:25:18.642Z</time></trkpt><trkpt lat="42.2659408" lon="13.1636346"><ele>848.0</ele><time>2026-04-26T13:25:19.642Z</time></trkpt><trkpt lat="42.2659321" lon="13.1635094"><ele>848.0000000000001</ele><time>2026-04-26T13:25:20.643Z</time></trkpt><trkpt lat="42.2659308" lon="13.163349"><ele>848.0</ele><time>2026-04-26T13:25:21.642Z</time></trkpt><trkpt lat="42.2659277" lon="13.1631763"><ele>847.75</ele><time>2026-04-26T13:25:22.643Z</time></trkpt><trkpt lat="42.2659272" lon="13.162996"><ele>847.5</ele><time>2026-04-26T13:25:23.643Z</time></trkpt><trkpt lat="42.2659284" lon="13.1628222"><ele>847.25</ele><time>2026-04-26T13:25:24.641Z</time></trkpt><trkpt lat="42.2659247" lon="13.1626529"><ele>847.0</ele><time>2026-04-26T13:25:25.643Z</time></trkpt><trkpt lat="42.2659073" lon="13.16249"><ele>848.0</ele><time>2026-04-26T13:25:26.643Z</time></trkpt><trkpt lat="42.265863" lon="13.1623295"><ele>849.0</ele><time>2026-04-26T13:25:27.643Z</time></trkpt><trkpt lat="42.2657996" lon="13.1621791"><ele>850.0</ele><time>2026-04-26T13:25:28.641Z</time></trkpt><trkpt lat="42.2657154" lon="13.1620383"><ele>851.0</ele><time>2026-04-26T13:25:29.642Z</time></trkpt><trkpt lat="42.2656258" lon="13.1619003"><ele>848.75</ele><time>2026-04-26T13:25:30.642Z</time></trkpt><trkpt lat="42.2655347" lon="13.1617637"><ele>846.5</ele><time>2026-04-26T13:25:31.643Z</time></trkpt><trkpt lat="42.2654457" lon="13.161634"><ele>844.25</ele><time>2026-04-26T13:25:32.643Z</time></trkpt><trkpt lat="42.2653581" lon="13.1615056"><ele>842.0</ele><time>2026-04-26T13:25:33.643Z</time></trkpt><trkpt lat="42.2652711" lon="13.1613857"><ele>842.0000000000001</ele><time>2026-04-26T13:25:34.642Z</time></trkpt><trkpt lat="42.2651901" lon="13.1612736"><ele>842.0</ele><time>2026-04-26T13:25:35.643Z</time></trkpt><trkpt lat="42.265118" lon="13.1611827"><ele>842.0</ele><time>2026-04-26T13:25:36.642Z</time></trkpt><trkpt lat="42.2650408" lon="13.1611318"><ele>842.0</ele><time>2026-04-26T13:25:37.643Z</time></trkpt><trkpt lat="42.2649663" lon="13.1611039"><ele>842.0000000000001</ele><time>2026-04-26T13:25:38.642Z</time></trkpt><trkpt lat="42.2648983" lon="13.1611181"><ele>842.0</ele><time>2026-04-26T13:25:39.642Z</time></trkpt><trkpt lat="42.2648374" lon="13.161175"><ele>842.0</ele><time>2026-04-26T13:25:40.643Z</time></trkpt><trkpt lat="42.2647881" lon="13.1612777"><ele>842.0</ele><time>2026-04-26T13:25:41.642Z</time></trkpt><trkpt lat="42.26476" lon="13.1614163"><ele>842.0</ele><time>2026-04-26T13:25:42.642Z</time></trkpt><trkpt lat="42.264757" lon="13.1615707"><ele>842.0</ele><time>2026-04-26T13:25:43.642Z</time></trkpt><trkpt lat="42.2647785" lon="13.1617275"><ele>842.0</ele><time>2026-04-26T13:25:44.642Z</time></trkpt><trkpt lat="42.2648203" lon="13.161877"><ele>841.2</ele><time>2026-04-26T13:25:45.642Z</time></trkpt><trkpt lat="42.2648744" lon="13.1620114"><ele>840.4000000000001</ele><time>2026-04-26T13:25:46.643Z</time></trkpt><trkpt lat="42.264919" lon="13.1621391"><ele>839.5999999999999</ele><time>2026-04-26T13:25:47.643Z</time></trkpt><trkpt lat="42.2649402" lon="13.1622673"><ele>838.8</ele><time>2026-04-26T13:25:48.643Z</time></trkpt><trkpt lat="42.2649331" lon="13.1624025"><ele>838.0</ele><time>2026-04-26T13:25:49.642Z</time></trkpt><trkpt lat="42.2648962" lon="13.1625377"><ele>837.2</ele><time>2026-04-26T13:25:50.642Z</time></trkpt><trkpt lat="42.2648575" lon="13.16268"><ele>836.4</ele><time>2026-04-26T13:25:51.641Z</time></trkpt><trkpt lat="42.2648142" lon="13.1628193"><ele>835.6</ele><time>2026-04-26T13:25:52.642Z</time></trkpt><trkpt lat="42.2647672" lon="13.1629604"><ele>834.8000000000001</ele><time>2026-04-26T13:25:53.643Z</time></trkpt><trkpt lat="42.2647254" lon="13.1630969"><ele>834.0</ele><time>2026-04-26T13:25:54.642Z</time></trkpt><trkpt lat="42.2646813" lon="13.1632359"><ele>831.8000000000001</ele><time>2026-04-26T13:25:55.643Z</time></trkpt><trkpt lat="42.2646373" lon="13.1633725"><ele>829.6</ele><time>2026-04-26T13:25:56.643Z</time></trkpt><trkpt lat="42.264595" lon="13.1634992"><ele>827.4</ele><time>2026-04-26T13:25:57.643Z</time></trkpt><trkpt lat="42.2645519" lon="13.1636154"><ele>825.2</ele><time>2026-04-26T13:25:58.643Z</time></trkpt><trkpt lat="42.2645156" lon="13.1637241"><ele>823.0</ele><time>2026-04-26T13:25:59.642Z</time></trkpt><trkpt lat="42.2644806" lon="13.1638233"><ele>822.9999999999999</ele><time>2026-04-26T13:26:00.642Z</time></trkpt><trkpt lat="42.2644574" lon="13.1639051"><ele>823.0</ele><time>2026-04-26T13:26:01.641Z</time></trkpt><trkpt lat="42.2644784" lon="13.1640635"><ele>823.0</ele><time>2026-04-26T13:26:03.643Z</time></trkpt><trkpt lat="42.2645265" lon="13.1641221"><ele>823.0</ele><time>2026-04-26T13:26:04.643Z</time></trkpt><trkpt lat="42.2645919" lon="13.1641349"><ele>822.9999999999999</ele><time>2026-04-26T13:26:05.642Z</time></trkpt><trkpt lat="42.2646709" lon="13.1641235"><ele>823.0</ele><time>2026-04-26T13:26:06.64Z</time></trkpt><trkpt lat="42.2647566" lon="13.1641249"><ele>823.4285714285714</ele><time>2026-04-26T13:26:07.64Z</time></trkpt><trkpt lat="42.2648304" lon="13.1641487"><ele>823.8571428571429</ele><time>2026-04-26T13:26:08.641Z</time></trkpt><trkpt lat="42.2648966" lon="13.1641925"><ele>824.2857142857142</ele><time>2026-04-26T13:26:09.641Z</time></trkpt><trkpt lat="42.2649522" lon="13.164258"><ele>824.7142857142858</ele><time>2026-04-26T13:26:10.641Z</time></trkpt><trkpt lat="42.2650088" lon="13.1643339"><ele>825.1428571428571</ele><time>2026-04-26T13:26:11.641Z</time></trkpt><trkpt lat="42.2650462" lon="13.1644213"><ele>825.5714285714286</ele><time>2026-04-26T13:26:12.641Z</time></trkpt><trkpt lat="42.2650582" lon="13.164508"><ele>826.0</ele><time>2026-04-26T13:26:13.641Z</time></trkpt><trkpt lat="42.2650306" lon="13.1646178"><ele>826.0</ele><time>2026-04-26T13:26:15.642Z</time></trkpt><trkpt lat="42.2649865" lon="13.1646898"><ele>826.0</ele><time>2026-04-26T13:26:18.641Z</time></trkpt><trkpt lat="42.2649583" lon="13.1648147"><ele>826.0</ele><time>2026-04-26T13:26:20.641Z</time></trkpt><trkpt lat="42.2649531" lon="13.164931"><ele>826.0</ele><time>2026-04-26T13:26:21.641Z</time></trkpt><trkpt lat="42.2649437" lon="13.1650655"><ele>826.0</ele><time>2026-04-26T13:26:22.64Z</time></trkpt><trkpt lat="42.2649195" lon="13.1652098"><ele>826.5</ele><time>2026-04-26T13:26:23.641Z</time></trkpt><trkpt lat="42.2648791" lon="13.1653528"><ele>827.0</ele><time>2026-04-26T13:26:24.641Z</time></trkpt><trkpt lat="42.2648275" lon="13.1654922"><ele>827.5</ele><time>2026-04-26T13:26:25.64Z</time></trkpt><trkpt lat="42.2647742" lon="13.1656341"><ele>828.0</ele><time>2026-04-26T13:26:26.641Z</time></trkpt><trkpt lat="42.2647255" lon="13.1657979"><ele>824.0</ele><time>2026-04-26T13:26:27.64Z</time></trkpt><trkpt lat="42.2646841" lon="13.1659852"><ele>820.0</ele><time>2026-04-26T13:26:28.641Z</time></trkpt><trkpt lat="42.2646578" lon="13.1661944"><ele>816.0</ele><time>2026-04-26T13:26:29.641Z</time></trkpt><trkpt lat="42.2646134" lon="13.1663762"><ele>812.0</ele><time>2026-04-26T13:26:30.641Z</time></trkpt><trkpt lat="42.2645662" lon="13.166544"><ele>812.0</ele><time>2026-04-26T13:26:31.64Z</time></trkpt><trkpt lat="42.2645225" lon="13.1666904"><ele>812.0</ele><time>2026-04-26T13:26:32.641Z</time></trkpt><trkpt lat="42.264491" lon="13.1668204"><ele>812.0</ele><time>2026-04-26T13:26:33.641Z</time></trkpt><trkpt lat="42.264475" lon="13.1669603"><ele>812.0</ele><time>2026-04-26T13:26:34.642Z</time></trkpt><trkpt lat="42.2644735" lon="13.1671282"><ele>812.0</ele><time>2026-04-26T13:26:35.641Z</time></trkpt><trkpt lat="42.2644704" lon="13.16731"><ele>815.0</ele><time>2026-04-26T13:26:36.641Z</time></trkpt><trkpt lat="42.2644651" lon="13.1674942"><ele>818.0</ele><time>2026-04-26T13:26:37.642Z</time></trkpt><trkpt lat="42.2644382" lon="13.1676808"><ele>821.0</ele><time>2026-04-26T13:26:38.642Z</time></trkpt><trkpt lat="42.2643965" lon="13.1678732"><ele>824.0</ele><time>2026-04-26T13:26:39.641Z</time></trkpt><trkpt lat="42.2643555" lon="13.1680675"><ele>826.0</ele><time>2026-04-26T13:26:40.642Z</time></trkpt><trkpt lat="42.2643209" lon="13.1682671"><ele>828.0</ele><time>2026-04-26T13:26:41.642Z</time></trkpt><trkpt lat="42.2642869" lon="13.1684628"><ele>830.0</ele><time>2026-04-26T13:26:42.641Z</time></trkpt><trkpt lat="42.2642576" lon="13.1686487"><ele>832.0</ele><time>2026-04-26T13:26:43.64Z</time></trkpt><trkpt lat="42.2642311" lon="13.1688211"><ele>832.0</ele><time>2026-04-26T13:26:44.641Z</time></trkpt><trkpt lat="42.2642165" lon="13.1689817"><ele>832.0</ele><time>2026-04-26T13:26:45.641Z</time></trkpt><trkpt lat="42.2642136" lon="13.1691447"><ele>832.0</ele><time>2026-04-26T13:26:46.642Z</time></trkpt><trkpt lat="42.2642261" lon="13.1693078"><ele>832.0</ele><time>2026-04-26T13:26:47.641Z</time></trkpt><trkpt lat="42.2642415" lon="13.1694673"><ele>832.75</ele><time>2026-04-26T13:26:48.641Z</time></trkpt><trkpt lat="42.2642416" lon="13.1696389"><ele>833.5</ele><time>2026-04-26T13:26:49.641Z</time></trkpt><trkpt lat="42.264242" lon="13.1698052"><ele>834.25</ele><time>2026-04-26T13:26:50.641Z</time></trkpt><trkpt lat="42.2642326" lon="13.1699738"><ele>835.0</ele><time>2026-04-26T13:26:51.641Z</time></trkpt><trkpt lat="42.2642228" lon="13.1701579"><ele>835.25</ele><time>2026-04-26T13:26:52.642Z</time></trkpt><trkpt lat="42.264228" lon="13.1703525"><ele>835.5</ele><time>2026-04-26T13:26:53.642Z</time></trkpt><trkpt lat="42.2642235" lon="13.1705437"><ele>835.75</ele><time>2026-04-26T13:26:54.641Z</time></trkpt><trkpt lat="42.2642335" lon="13.1707193"><ele>836.0</ele><time>2026-04-26T13:26:55.641Z</time></trkpt><trkpt lat="42.2642423" lon="13.1708924"><ele>836.75</ele><time>2026-04-26T13:26:56.641Z</time></trkpt><trkpt lat="42.2642445" lon="13.1710758"><ele>837.5</ele><time>2026-04-26T13:26:57.64Z</time></trkpt><trkpt lat="42.2642491" lon="13.1712574"><ele>838.25</ele><time>2026-04-26T13:26:58.642Z</time></trkpt><trkpt lat="42.2642584" lon="13.1714471"><ele>839.0</ele><time>2026-04-26T13:26:59.642Z</time></trkpt><trkpt lat="42.2642786" lon="13.171642"><ele>839.0</ele><time>2026-04-26T13:27:00.641Z</time></trkpt><trkpt lat="42.2643082" lon="13.1718256"><ele>839.0</ele><time>2026-04-26T13:27:01.641Z</time></trkpt><trkpt lat="42.2643373" lon="13.1720048"><ele>839.0</ele><time>2026-04-26T13:27:02.641Z</time></trkpt><trkpt lat="42.2643612" lon="13.1721823"><ele>839.0</ele><time>2026-04-26T13:27:03.641Z</time></trkpt><trkpt lat="42.2643993" lon="13.1723617"><ele>836.75</ele><time>2026-04-26T13:27:04.64Z</time></trkpt><trkpt lat="42.2644558" lon="13.1725395"><ele>834.5</ele><time>2026-04-26T13:27:05.64Z</time></trkpt><trkpt lat="42.2645358" lon="13.1726997"><ele>832.25</ele><time>2026-04-26T13:27:06.642Z</time></trkpt><trkpt lat="42.2646198" lon="13.172849"><ele>830.0</ele><time>2026-04-26T13:27:07.642Z</time></trkpt><trkpt lat="42.2647012" lon="13.1729845"><ele>830.0</ele><time>2026-04-26T13:27:08.64Z</time></trkpt><trkpt lat="42.2647705" lon="13.1731182"><ele>830.0</ele><time>2026-04-26T13:27:09.64Z</time></trkpt><trkpt lat="42.2648168" lon="13.1732752"><ele>830.0</ele><time>2026-04-26T13:27:10.642Z</time></trkpt><trkpt lat="42.2648285" lon="13.1734396"><ele>830.0</ele><time>2026-04-26T13:27:11.642Z</time></trkpt><trkpt lat="42.2648467" lon="13.1736202"><ele>836.75</ele><time>2026-04-26T13:27:12.64Z</time></trkpt><trkpt lat="42.2648836" lon="13.1738043"><ele>843.5</ele><time>2026-04-26T13:27:13.64Z</time></trkpt><trkpt lat="42.2649282" lon="13.1739826"><ele>850.25</ele><time>2026-04-26T13:27:14.641Z</time></trkpt><trkpt lat="42.2649698" lon="13.1741477"><ele>857.0</ele><time>2026-04-26T13:27:15.641Z</time></trkpt><trkpt lat="42.2650022" lon="13.174306"><ele>857.0</ele><time>2026-04-26T13:27:16.64Z</time></trkpt><trkpt lat="42.2650248" lon="13.1744598"><ele>857.0</ele><time>2026-04-26T13:27:17.64Z</time></trkpt><trkpt lat="42.2650429" lon="13.1745969"><ele>857.0</ele><time>2026-04-26T13:27:18.641Z</time></trkpt><trkpt lat="42.2650784" lon="13.1747176"><ele>857.0</ele><time>2026-04-26T13:27:19.64Z</time></trkpt><trkpt lat="42.2651368" lon="13.1748155"><ele>857.0</ele><time>2026-04-26T13:27:20.641Z</time></trkpt><trkpt lat="42.2652137" lon="13.1749108"><ele>858.4000000000001</ele><time>2026-04-26T13:27:21.641Z</time></trkpt><trkpt lat="42.2652978" lon="13.1750007"><ele>859.8000000000001</ele><time>2026-04-26T13:27:22.642Z</time></trkpt><trkpt lat="42.2653779" lon="13.1750819"><ele>861.2</ele><time>2026-04-26T13:27:23.642Z</time></trkpt><trkpt lat="42.2654536" lon="13.1751514"><ele>862.6</ele><time>2026-04-26T13:27:24.641Z</time></trkpt><trkpt lat="42.2655353" lon="13.1751759"><ele>864.0</ele><time>2026-04-26T13:27:25.641Z</time></trkpt><trkpt lat="42.2656205" lon="13.1751645"><ele>864.0</ele><time>2026-04-26T13:27:26.641Z</time></trkpt><trkpt lat="42.2657132" lon="13.1751491"><ele>864.0000000000001</ele><time>2026-04-26T13:27:27.641Z</time></trkpt><trkpt lat="42.2657931" lon="13.1751494"><ele>864.0000000000001</ele><time>2026-04-26T13:27:28.64Z</time></trkpt><trkpt lat="42.2658743" lon="13.1751853"><ele>864.0</ele><time>2026-04-26T13:27:29.641Z</time></trkpt><trkpt lat="42.2659471" lon="13.1752596"><ele>864.0</ele><time>2026-04-26T13:27:30.642Z</time></trkpt><trkpt lat="42.2660155" lon="13.1753777"><ele>864.0</ele><time>2026-04-26T13:27:31.64Z</time></trkpt><trkpt lat="42.2660896" lon="13.17552"><ele>864.0</ele><time>2026-04-26T13:27:32.641Z</time></trkpt><trkpt lat="42.2661641" lon="13.1756697"><ele>864.0</ele><time>2026-04-26T13:27:33.641Z</time></trkpt><trkpt lat="42.2662381" lon="13.1758387"><ele>864.0</ele><time>2026-04-26T13:27:34.641Z</time></trkpt><trkpt lat="42.2663035" lon="13.17602"><ele>860.5</ele><time>2026-04-26T13:27:35.641Z</time></trkpt><trkpt lat="42.266364" lon="13.1762049"><ele>857.0</ele><time>2026-04-26T13:27:36.64Z</time></trkpt><trkpt lat="42.2664039" lon="13.1763834"><ele>853.5</ele><time>2026-04-26T13:27:37.642Z</time></trkpt><trkpt lat="42.2664187" lon="13.1765766"><ele>850.0</ele><time>2026-04-26T13:27:38.642Z</time></trkpt><trkpt lat="42.2664126" lon="13.176785"><ele>847.0</ele><time>2026-04-26T13:27:39.64Z</time></trkpt><trkpt lat="42.2664085" lon="13.1770091"><ele>844.0</ele><time>2026-04-26T13:27:40.641Z</time></trkpt><trkpt lat="42.2664255" lon="13.1772442"><ele>841.0</ele><time>2026-04-26T13:27:41.641Z</time></trkpt><trkpt lat="42.2664566" lon="13.1774712"><ele>851.3333333333333</ele><time>2026-04-26T13:27:42.64Z</time></trkpt><trkpt lat="42.2664881" lon="13.1776915"><ele>861.6666666666667</ele><time>2026-04-26T13:27:43.641Z</time></trkpt><trkpt lat="42.2665016" lon="13.1779113"><ele>872.0</ele><time>2026-04-26T13:27:44.642Z</time></trkpt><trkpt lat="42.2664902" lon="13.178131"><ele>872.75</ele><time>2026-04-26T13:27:45.642Z</time></trkpt><trkpt lat="42.2664707" lon="13.1783403"><ele>873.5</ele><time>2026-04-26T13:27:46.641Z</time></trkpt><trkpt lat="42.2664515" lon="13.1785311"><ele>874.25</ele><time>2026-04-26T13:27:47.64Z</time></trkpt><trkpt lat="42.2664291" lon="13.1787314"><ele>875.0</ele><time>2026-04-26T13:27:48.641Z</time></trkpt><trkpt lat="42.266413" lon="13.1789025"><ele>875.6</ele><time>2026-04-26T13:27:49.641Z</time></trkpt><trkpt lat="42.2664151" lon="13.1790505"><ele>876.2</ele><time>2026-04-26T13:27:50.64Z</time></trkpt><trkpt lat="42.2664432" lon="13.1791818"><ele>876.8</ele><time>2026-04-26T13:27:51.642Z</time></trkpt><trkpt lat="42.2664993" lon="13.1792769"><ele>877.4</ele><time>2026-04-26T13:27:52.641Z</time></trkpt><trkpt lat="42.2665806" lon="13.1793405"><ele>878.0</ele><time>2026-04-26T13:27:53.642Z</time></trkpt><trkpt lat="42.2666807" lon="13.1793811"><ele>878.0</ele><time>2026-04-26T13:27:54.642Z</time></trkpt><trkpt lat="42.2667884" lon="13.1794172"><ele>878.0</ele><time>2026-04-26T13:27:55.642Z</time></trkpt><trkpt lat="42.2668954" lon="13.1794484"><ele>878.0</ele><time>2026-04-26T13:27:56.641Z</time></trkpt><trkpt lat="42.2670059" lon="13.179445"><ele>878.0</ele><time>2026-04-26T13:27:57.641Z</time></trkpt><trkpt lat="42.2671101" lon="13.1793927"><ele>878.0</ele><time>2026-04-26T13:27:58.641Z</time></trkpt><trkpt lat="42.2672149" lon="13.1792903"><ele>880.0</ele><time>2026-04-26T13:27:59.641Z</time></trkpt><trkpt lat="42.2673166" lon="13.1791556"><ele>882.0</ele><time>2026-04-26T13:28:00.641Z</time></trkpt><trkpt lat="42.2674278" lon="13.1790049"><ele>884.0</ele><time>2026-04-26T13:28:01.64Z</time></trkpt><trkpt lat="42.2675436" lon="13.1788486"><ele>884.0</ele><time>2026-04-26T13:28:02.641Z</time></trkpt><trkpt lat="42.2676434" lon="13.1786946"><ele>884.0</ele><time>2026-04-26T13:28:03.642Z</time></trkpt><trkpt lat="42.2677368" lon="13.1785358"><ele>884.0</ele><time>2026-04-26T13:28:04.642Z</time></trkpt><trkpt lat="42.2678405" lon="13.1783949"><ele>884.0</ele><time>2026-04-26T13:28:05.642Z</time></trkpt><trkpt lat="42.2679656" lon="13.1782831"><ele>884.0</ele><time>2026-04-26T13:28:06.642Z</time></trkpt><trkpt lat="42.2680883" lon="13.1781725"><ele>884.0</ele><time>2026-04-26T13:28:07.642Z</time></trkpt><trkpt lat="42.268196" lon="13.1780633"><ele>884.0</ele><time>2026-04-26T13:28:08.641Z</time></trkpt><trkpt lat="42.2682881" lon="13.1779474"><ele>884.0</ele><time>2026-04-26T13:28:09.642Z</time></trkpt><trkpt lat="42.2683631" lon="13.1778271"><ele>886.75</ele><time>2026-04-26T13:28:10.642Z</time></trkpt><trkpt lat="42.2684088" lon="13.1776851"><ele>889.5</ele><time>2026-04-26T13:28:11.642Z</time></trkpt><trkpt lat="42.2684205" lon="13.1775312"><ele>892.25</ele><time>2026-04-26T13:28:12.642Z</time></trkpt><trkpt lat="42.2683935" lon="13.1773607"><ele>895.0</ele><time>2026-04-26T13:28:13.641Z</time></trkpt><trkpt lat="42.2683465" lon="13.1771939"><ele>896.3333333333333</ele><time>2026-04-26T13:28:14.642Z</time></trkpt><trkpt lat="42.2682998" lon="13.1770097"><ele>897.6666666666667</ele><time>2026-04-26T13:28:15.641Z</time></trkpt><trkpt lat="42.268263" lon="13.1768039"><ele>899.0</ele><time>2026-04-26T13:28:16.641Z</time></trkpt><trkpt lat="42.2682443" lon="13.1765924"><ele>900.6666666666667</ele><time>2026-04-26T13:28:17.64Z</time></trkpt><trkpt lat="42.2682298" lon="13.1763688"><ele>902.3333333333333</ele><time>2026-04-26T13:28:18.639Z</time></trkpt><trkpt lat="42.2681923" lon="13.1761374"><ele>904.0</ele><time>2026-04-26T13:28:19.639Z</time></trkpt><trkpt lat="42.2681451" lon="13.175922"><ele>902.3333333333333</ele><time>2026-04-26T13:28:20.64Z</time></trkpt><trkpt lat="42.2680964" lon="13.1757252"><ele>900.6666666666667</ele><time>2026-04-26T13:28:21.64Z</time></trkpt><trkpt lat="42.2680551" lon="13.1755316"><ele>899.0</ele><time>2026-04-26T13:28:22.64Z</time></trkpt><trkpt lat="42.2680285" lon="13.1753325"><ele>899.0</ele><time>2026-04-26T13:28:23.639Z</time></trkpt><trkpt lat="42.268022" lon="13.1751233"><ele>899.0</ele><time>2026-04-26T13:28:24.639Z</time></trkpt><trkpt lat="42.2680288" lon="13.1749158"><ele>899.0</ele><time>2026-04-26T13:28:25.64Z</time></trkpt><trkpt lat="42.2680437" lon="13.1746924"><ele>899.6666666666667</ele><time>2026-04-26T13:28:26.64Z</time></trkpt><trkpt lat="42.2680639" lon="13.1744706"><ele>900.3333333333333</ele><time>2026-04-26T13:28:27.639Z</time></trkpt><trkpt lat="42.2680843" lon="13.1742531"><ele>901.0</ele><time>2026-04-26T13:28:28.639Z</time></trkpt><trkpt lat="42.2681086" lon="13.1740512"><ele>903.25</ele><time>2026-04-26T13:28:29.639Z</time></trkpt><trkpt lat="42.2681304" lon="13.1738635"><ele>905.5</ele><time>2026-04-26T13:28:30.64Z</time></trkpt><trkpt lat="42.2681456" lon="13.1736926"><ele>907.75</ele><time>2026-04-26T13:28:31.64Z</time></trkpt><trkpt lat="42.2681564" lon="13.1735376"><ele>910.0</ele><time>2026-04-26T13:28:32.64Z</time></trkpt><trkpt lat="42.2681662" lon="13.1733956"><ele>909.9999999999999</ele><time>2026-04-26T13:28:33.64Z</time></trkpt><trkpt lat="42.2681842" lon="13.1732708"><ele>910.0</ele><time>2026-04-26T13:28:34.641Z</time></trkpt><trkpt lat="42.2682227" lon="13.173165"><ele>910.0</ele><time>2026-04-26T13:28:35.64Z</time></trkpt><trkpt lat="42.2682834" lon="13.1730984"><ele>910.0</ele><time>2026-04-26T13:28:36.64Z</time></trkpt><trkpt lat="42.2683589" lon="13.1730699"><ele>909.9999999999999</ele><time>2026-04-26T13:28:37.64Z</time></trkpt><trkpt lat="42.2684254" lon="13.1730422"><ele>910.0</ele><time>2026-04-26T13:28:38.64Z</time></trkpt><trkpt lat="42.2684842" lon="13.1731586"><ele>910.0</ele><time>2026-04-26T13:28:39.641Z</time></trkpt><trkpt lat="42.2685335" lon="13.1732708"><ele>910.0</ele><time>2026-04-26T13:28:40.64Z</time></trkpt><trkpt lat="42.2685818" lon="13.1734211"><ele>910.0</ele><time>2026-04-26T13:28:41.64Z</time></trkpt><trkpt lat="42.2686375" lon="13.1735806"><ele>910.0</ele><time>2026-04-26T13:28:42.641Z</time></trkpt><trkpt lat="42.2687093" lon="13.1737291"><ele>910.0</ele><time>2026-04-26T13:28:43.641Z</time></trkpt><trkpt lat="42.2687848" lon="13.173886"><ele>910.0</ele><time>2026-04-26T13:28:44.64Z</time></trkpt><trkpt lat="42.2688429" lon="13.1740399"><ele>910.0</ele><time>2026-04-26T13:28:45.639Z</time></trkpt><trkpt lat="42.2688947" lon="13.1741868"><ele>910.0</ele><time>2026-04-26T13:28:46.64Z</time></trkpt><trkpt lat="42.2689451" lon="13.1743494"><ele>914.6666666666666</ele><time>2026-04-26T13:28:47.639Z</time></trkpt><trkpt lat="42.2689939" lon="13.1745286"><ele>919.3333333333333</ele><time>2026-04-26T13:28:48.64Z</time></trkpt><trkpt lat="42.2690425" lon="13.17473"><ele>924.0</ele><time>2026-04-26T13:28:49.639Z</time></trkpt><trkpt lat="42.2690853" lon="13.1749509"><ele>924.0</ele><time>2026-04-26T13:28:50.64Z</time></trkpt><trkpt lat="42.2691257" lon="13.1751775"><ele>924.0</ele><time>2026-04-26T13:28:51.639Z</time></trkpt><trkpt lat="42.2691818" lon="13.1753942"><ele>924.0</ele><time>2026-04-26T13:28:52.639Z</time></trkpt><trkpt lat="42.2692437" lon="13.1756055"><ele>924.3333333333333</ele><time>2026-04-26T13:28:53.639Z</time></trkpt><trkpt lat="42.2693025" lon="13.1758236"><ele>924.6666666666666</ele><time>2026-04-26T13:28:54.64Z</time></trkpt><trkpt lat="42.269347" lon="13.1760475"><ele>925.0</ele><time>2026-04-26T13:28:55.641Z</time></trkpt><trkpt lat="42.2693739" lon="13.1762944"><ele>924.6666666666666</ele><time>2026-04-26T13:28:56.64Z</time></trkpt><trkpt lat="42.2693924" lon="13.1765523"><ele>924.3333333333333</ele><time>2026-04-26T13:28:57.641Z</time></trkpt><trkpt lat="42.2694198" lon="13.176811"><ele>924.0</ele><time>2026-04-26T13:28:58.64Z</time></trkpt><trkpt lat="42.2694481" lon="13.1770681"><ele>924.0</ele><time>2026-04-26T13:28:59.64Z</time></trkpt><trkpt lat="42.2694728" lon="13.177316"><ele>924.0</ele><time>2026-04-26T13:29:00.64Z</time></trkpt><trkpt lat="42.2694963" lon="13.1775598"><ele>924.0</ele><time>2026-04-26T13:29:01.64Z</time></trkpt><trkpt lat="42.26952" lon="13.1777945"><ele>924.0</ele><time>2026-04-26T13:29:02.64Z</time></trkpt><trkpt lat="42.2695232" lon="13.1780305"><ele>924.0</ele><time>2026-04-26T13:29:03.641Z</time></trkpt><trkpt lat="42.269511" lon="13.1782618"><ele>924.0</ele><time>2026-04-26T13:29:04.64Z</time></trkpt><trkpt lat="42.2694894" lon="13.1785047"><ele>924.0</ele><time>2026-04-26T13:29:05.64Z</time></trkpt><trkpt lat="42.2694637" lon="13.1787518"><ele>924.0</ele><time>2026-04-26T13:29:06.64Z</time></trkpt><trkpt lat="42.2694283" lon="13.1789976"><ele>924.0</ele><time>2026-04-26T13:29:07.64Z</time></trkpt><trkpt lat="42.2693878" lon="13.1792305"><ele>927.0</ele><time>2026-04-26T13:29:08.641Z</time></trkpt><trkpt lat="42.2693537" lon="13.1794624"><ele>930.0</ele><time>2026-04-26T13:29:09.639Z</time></trkpt><trkpt lat="42.2693348" lon="13.1797102"><ele>933.0</ele><time>2026-04-26T13:29:10.64Z</time></trkpt><trkpt lat="42.2693263" lon="13.1799654"><ele>934.0</ele><time>2026-04-26T13:29:11.64Z</time></trkpt><trkpt lat="42.2693258" lon="13.1802172"><ele>935.0</ele><time>2026-04-26T13:29:12.639Z</time></trkpt><trkpt lat="42.269332" lon="13.1804611"><ele>936.0</ele><time>2026-04-26T13:29:13.641Z</time></trkpt><trkpt lat="42.2693271" lon="13.1806999"><ele>938.3333333333333</ele><time>2026-04-26T13:29:14.64Z</time></trkpt><trkpt lat="42.2693057" lon="13.1809349"><ele>940.6666666666666</ele><time>2026-04-26T13:29:15.64Z</time></trkpt><trkpt lat="42.2692761" lon="13.1811657"><ele>943.0</ele><time>2026-04-26T13:29:16.64Z</time></trkpt><trkpt lat="42.2692488" lon="13.1813955"><ele>945.3333333333333</ele><time>2026-04-26T13:29:17.639Z</time></trkpt><trkpt lat="42.2692396" lon="13.1816248"><ele>947.6666666666667</ele><time>2026-04-26T13:29:18.64Z</time></trkpt><trkpt lat="42.269248" lon="13.1818318"><ele>950.0</ele><time>2026-04-26T13:29:19.64Z</time></trkpt><trkpt lat="42.2692658" lon="13.1820317"><ele>950.0</ele><time>2026-04-26T13:29:20.64Z</time></trkpt><trkpt lat="42.269286" lon="13.1822179"><ele>950.0</ele><time>2026-04-26T13:29:21.639Z</time></trkpt><trkpt lat="42.2693014" lon="13.1823918"><ele>950.0</ele><time>2026-04-26T13:29:22.639Z</time></trkpt><trkpt lat="42.2692918" lon="13.1825587"><ele>950.0</ele><time>2026-04-26T13:29:23.639Z</time></trkpt><trkpt lat="42.2692616" lon="13.182702"><ele>950.6</ele><time>2026-04-26T13:29:24.639Z</time></trkpt><trkpt lat="42.2692124" lon="13.1828461"><ele>951.2</ele><time>2026-04-26T13:29:25.639Z</time></trkpt><trkpt lat="42.2691596" lon="13.1829671"><ele>951.8</ele><time>2026-04-26T13:29:26.639Z</time></trkpt><trkpt lat="42.269115" lon="13.1830686"><ele>952.4</ele><time>2026-04-26T13:29:27.64Z</time></trkpt><trkpt lat="42.2690718" lon="13.1831742"><ele>953.0</ele><time>2026-04-26T13:29:28.64Z</time></trkpt><trkpt lat="42.2690283" lon="13.1832633"><ele>954.8333333333334</ele><time>2026-04-26T13:29:29.64Z</time></trkpt><trkpt lat="42.2689895" lon="13.1833412"><ele>956.6666666666667</ele><time>2026-04-26T13:29:30.639Z</time></trkpt><trkpt lat="42.2689572" lon="13.1834149"><ele>958.5</ele><time>2026-04-26T13:29:31.639Z</time></trkpt><trkpt lat="42.2689434" lon="13.1835914"><ele>960.3333333333333</ele><time>2026-04-26T13:29:33.64Z</time></trkpt><trkpt lat="42.2689578" lon="13.1836968"><ele>962.1666666666666</ele><time>2026-04-26T13:29:34.64Z</time></trkpt><trkpt lat="42.2689889" lon="13.1838003"><ele>964.0</ele><time>2026-04-26T13:29:35.641Z</time></trkpt><trkpt lat="42.2690344" lon="13.183904"><ele>964.0</ele><time>2026-04-26T13:29:36.64Z</time></trkpt><trkpt lat="42.2690826" lon="13.1840107"><ele>964.0000000000001</ele><time>2026-04-26T13:29:37.641Z</time></trkpt><trkpt lat="42.2691378" lon="13.1841245"><ele>964.0000000000001</ele><time>2026-04-26T13:29:38.641Z</time></trkpt><trkpt lat="42.2691911" lon="13.1842452"><ele>964.0</ele><time>2026-04-26T13:29:39.641Z</time></trkpt><trkpt lat="42.2692299" lon="13.1843588"><ele>964.0</ele><time>2026-04-26T13:29:40.64Z</time></trkpt><trkpt lat="42.2692479" lon="13.1844642"><ele>964.8333333333333</ele><time>2026-04-26T13:29:41.641Z</time></trkpt><trkpt lat="42.2692497" lon="13.1845671"><ele>965.6666666666666</ele><time>2026-04-26T13:29:42.64Z</time></trkpt><trkpt lat="42.2692387" lon="13.1846556"><ele>966.5</ele><time>2026-04-26T13:29:43.641Z</time></trkpt><trkpt lat="42.2692087" lon="13.1848027"><ele>967.3333333333333</ele><time>2026-04-26T13:29:45.641Z</time></trkpt><trkpt lat="42.2691926" lon="13.1849388"><ele>968.1666666666666</ele><time>2026-04-26T13:29:47.641Z</time></trkpt><trkpt lat="42.2692061" lon="13.1850523"><ele>969.0</ele><time>2026-04-26T13:29:49.639Z</time></trkpt><trkpt lat="42.2692718" lon="13.1851667"><ele>966.6666666666666</ele><time>2026-04-26T13:30:03.64Z</time></trkpt><trkpt lat="42.2693107" lon="13.1852481"><ele>964.3333333333333</ele><time>2026-04-26T13:30:04.639Z</time></trkpt><trkpt lat="42.269338" lon="13.1853484"><ele>962.0</ele><time>2026-04-26T13:30:05.641Z</time></trkpt><trkpt lat="42.2693481" lon="13.1854623"><ele>959.6666666666666</ele><time>2026-04-26T13:30:06.641Z</time></trkpt><trkpt lat="42.2693491" lon="13.1855834"><ele>957.3333333333333</ele><time>2026-04-26T13:30:07.64Z</time></trkpt><trkpt lat="42.2693649" lon="13.1857013"><ele>955.0</ele><time>2026-04-26T13:30:08.641Z</time></trkpt><trkpt lat="42.2694043" lon="13.1858172"><ele>951.8</ele><time>2026-04-26T13:30:09.641Z</time></trkpt><trkpt lat="42.2694524" lon="13.1859027"><ele>948.6</ele><time>2026-04-26T13:30:10.64Z</time></trkpt><trkpt lat="42.2695064" lon="13.1859544"><ele>945.4000000000001</ele><time>2026-04-26T13:30:11.639Z</time></trkpt><trkpt lat="42.269634" lon="13.1859723"><ele>942.2</ele><time>2026-04-26T13:30:13.639Z</time></trkpt><trkpt lat="42.2697214" lon="13.185951"><ele>939.0</ele><time>2026-04-26T13:30:14.639Z</time></trkpt><trkpt lat="42.2698158" lon="13.1859265"><ele>947.4000000000001</ele><time>2026-04-26T13:30:15.641Z</time></trkpt><trkpt lat="42.2699055" lon="13.1859306"><ele>955.8000000000001</ele><time>2026-04-26T13:30:16.64Z</time></trkpt><trkpt lat="42.2699993" lon="13.1859454"><ele>964.1999999999999</ele><time>2026-04-26T13:30:17.641Z</time></trkpt><trkpt lat="42.2700878" lon="13.1859951"><ele>972.5999999999999</ele><time>2026-04-26T13:30:18.64Z</time></trkpt><trkpt lat="42.2701727" lon="13.1860791"><ele>981.0</ele><time>2026-04-26T13:30:19.639Z</time></trkpt><trkpt lat="42.2702573" lon="13.1861847"><ele>981.0</ele><time>2026-04-26T13:30:20.64Z</time></trkpt><trkpt lat="42.2703552" lon="13.1862824"><ele>981.0</ele><time>2026-04-26T13:30:21.639Z</time></trkpt><trkpt lat="42.270471" lon="13.186366"><ele>981.0</ele><time>2026-04-26T13:30:22.64Z</time></trkpt><trkpt lat="42.2705955" lon="13.1864389"><ele>981.0</ele><time>2026-04-26T13:30:23.641Z</time></trkpt><trkpt lat="42.2707033" lon="13.1865231"><ele>976.0</ele><time>2026-04-26T13:30:24.641Z</time></trkpt><trkpt lat="42.2708049" lon="13.1866097"><ele>971.0</ele><time>2026-04-26T13:30:25.641Z</time></trkpt><trkpt lat="42.2709037" lon="13.1866925"><ele>966.0</ele><time>2026-04-26T13:30:26.641Z</time></trkpt><trkpt lat="42.2710054" lon="13.1867553"><ele>961.0</ele><time>2026-04-26T13:30:27.64Z</time></trkpt><trkpt lat="42.2711038" lon="13.186801"><ele>961.0</ele><time>2026-04-26T13:30:28.639Z</time></trkpt><trkpt lat="42.2711941" lon="13.186866"><ele>960.9999999999999</ele><time>2026-04-26T13:30:29.639Z</time></trkpt><trkpt lat="42.2712695" lon="13.186948"><ele>960.9999999999999</ele><time>2026-04-26T13:30:30.639Z</time></trkpt><trkpt lat="42.2713362" lon="13.1870543"><ele>961.0</ele><time>2026-04-26T13:30:31.639Z</time></trkpt><trkpt lat="42.2713824" lon="13.1871795"><ele>961.0</ele><time>2026-04-26T13:30:32.641Z</time></trkpt><trkpt lat="42.2714107" lon="13.1873196"><ele>964.0</ele><time>2026-04-26T13:30:33.641Z</time></trkpt><trkpt lat="42.2714313" lon="13.1874601"><ele>966.9999999999999</ele><time>2026-04-26T13:30:34.641Z</time></trkpt><trkpt lat="42.2714462" lon="13.1876009"><ele>969.9999999999999</ele><time>2026-04-26T13:30:35.639Z</time></trkpt><trkpt lat="42.2714606" lon="13.1877379"><ele>973.0</ele><time>2026-04-26T13:30:36.639Z</time></trkpt><trkpt lat="42.2714581" lon="13.1878718"><ele>976.0</ele><time>2026-04-26T13:30:37.639Z</time></trkpt><trkpt lat="42.2714406" lon="13.1880202"><ele>971.5</ele><time>2026-04-26T13:30:38.64Z</time></trkpt><trkpt lat="42.2714417" lon="13.1881775"><ele>967.0</ele><time>2026-04-26T13:30:39.639Z</time></trkpt><trkpt lat="42.2714598" lon="13.1883502"><ele>962.5</ele><time>2026-04-26T13:30:40.639Z</time></trkpt><trkpt lat="42.2714942" lon="13.1885236"><ele>958.0</ele><time>2026-04-26T13:30:41.638Z</time></trkpt><trkpt lat="42.271543" lon="13.1886794"><ele>958.0</ele><time>2026-04-26T13:30:42.639Z</time></trkpt><trkpt lat="42.2716097" lon="13.1888316"><ele>958.0</ele><time>2026-04-26T13:30:43.639Z</time></trkpt><trkpt lat="42.2716935" lon="13.1889771"><ele>958.0</ele><time>2026-04-26T13:30:44.639Z</time></trkpt><trkpt lat="42.2717865" lon="13.1891185"><ele>958.0</ele><time>2026-04-26T13:30:45.64Z</time></trkpt><trkpt lat="42.271885" lon="13.1892527"><ele>952.0</ele><time>2026-04-26T13:30:46.639Z</time></trkpt><trkpt lat="42.2719793" lon="13.1893799"><ele>946.0</ele><time>2026-04-26T13:30:47.639Z</time></trkpt><trkpt lat="42.2720762" lon="13.1895019"><ele>940.0</ele><time>2026-04-26T13:30:48.64Z</time></trkpt><trkpt lat="42.2721668" lon="13.1896261"><ele>934.0</ele><time>2026-04-26T13:30:49.639Z</time></trkpt><trkpt lat="42.2722381" lon="13.1897577"><ele>936.8000000000001</ele><time>2026-04-26T13:30:50.638Z</time></trkpt><trkpt lat="42.2722884" lon="13.1898869"><ele>939.6000000000001</ele><time>2026-04-26T13:30:51.639Z</time></trkpt><trkpt lat="42.2723212" lon="13.1900205"><ele>942.4</ele><time>2026-04-26T13:30:52.638Z</time></trkpt><trkpt lat="42.2723597" lon="13.1901274"><ele>945.2</ele><time>2026-04-26T13:30:53.638Z</time></trkpt><trkpt lat="42.2724176" lon="13.1901975"><ele>948.0</ele><time>2026-04-26T13:30:54.639Z</time></trkpt><trkpt lat="42.272501" lon="13.1902612"><ele>948.0</ele><time>2026-04-26T13:30:55.64Z</time></trkpt><trkpt lat="42.2726102" lon="13.1903136"><ele>948.0</ele><time>2026-04-26T13:30:56.64Z</time></trkpt><trkpt lat="42.2727352" lon="13.1903845"><ele>948.0</ele><time>2026-04-26T13:30:57.639Z</time></trkpt><trkpt lat="42.2728485" lon="13.1904597"><ele>948.0</ele><time>2026-04-26T13:30:58.64Z</time></trkpt><trkpt lat="42.2729608" lon="13.1905323"><ele>948.0</ele><time>2026-04-26T13:30:59.64Z</time></trkpt><trkpt lat="42.2730615" lon="13.1906204"><ele>948.0</ele><time>2026-04-26T13:31:00.639Z</time></trkpt><trkpt lat="42.2731488" lon="13.190716"><ele>948.0</ele><time>2026-04-26T13:31:01.639Z</time></trkpt><trkpt lat="42.2732388" lon="13.1907782"><ele>948.0</ele><time>2026-04-26T13:31:02.64Z</time></trkpt><trkpt lat="42.2733347" lon="13.1907986"><ele>948.0</ele><time>2026-04-26T13:31:03.64Z</time></trkpt><trkpt lat="42.2734442" lon="13.1907879"><ele>946.25</ele><time>2026-04-26T13:31:04.639Z</time></trkpt><trkpt lat="42.2735698" lon="13.1907673"><ele>944.5</ele><time>2026-04-26T13:31:05.639Z</time></trkpt><trkpt lat="42.2737237" lon="13.1907575"><ele>942.75</ele><time>2026-04-26T13:31:06.639Z</time></trkpt><trkpt lat="42.2738918" lon="13.1907436"><ele>941.0</ele><time>2026-04-26T13:31:07.639Z</time></trkpt><trkpt lat="42.2740529" lon="13.1907034"><ele>956.0</ele><time>2026-04-26T13:31:08.638Z</time></trkpt><trkpt lat="42.2742143" lon="13.1906638"><ele>971.0</ele><time>2026-04-26T13:31:09.638Z</time></trkpt><trkpt lat="42.2743752" lon="13.1906524"><ele>986.0</ele><time>2026-04-26T13:31:10.639Z</time></trkpt><trkpt lat="42.2745291" lon="13.1906521"><ele>986.3333333333334</ele><time>2026-04-26T13:31:11.639Z</time></trkpt><trkpt lat="42.2746891" lon="13.1906844"><ele>986.6666666666667</ele><time>2026-04-26T13:31:12.64Z</time></trkpt><trkpt lat="42.2748341" lon="13.1906777"><ele>987.0</ele><time>2026-04-26T13:31:13.639Z</time></trkpt><trkpt lat="42.2749833" lon="13.1906362"><ele>987.0</ele><time>2026-04-26T13:31:14.64Z</time></trkpt><trkpt lat="42.2751379" lon="13.1905625"><ele>987.0</ele><time>2026-04-26T13:31:15.639Z</time></trkpt><trkpt lat="42.2753051" lon="13.1905003"><ele>987.0</ele><time>2026-04-26T13:31:16.64Z</time></trkpt><trkpt lat="42.2754828" lon="13.1904554"><ele>980.0</ele><time>2026-04-26T13:31:17.638Z</time></trkpt><trkpt lat="42.2756533" lon="13.1903875"><ele>973.0</ele><time>2026-04-26T13:31:18.638Z</time></trkpt><trkpt lat="42.2758031" lon="13.1903044"><ele>966.0</ele><time>2026-04-26T13:31:19.638Z</time></trkpt><trkpt lat="42.2759446" lon="13.1902205"><ele>966.0</ele><time>2026-04-26T13:31:20.638Z</time></trkpt><trkpt lat="42.2760813" lon="13.1901469"><ele>966.0</ele><time>2026-04-26T13:31:21.638Z</time></trkpt><trkpt lat="42.2762306" lon="13.1900912"><ele>966.0</ele><time>2026-04-26T13:31:22.638Z</time></trkpt><trkpt lat="42.2763924" lon="13.1900584"><ele>963.0</ele><time>2026-04-26T13:31:23.64Z</time></trkpt><trkpt lat="42.276562" lon="13.1900351"><ele>960.0</ele><time>2026-04-26T13:31:24.639Z</time></trkpt><trkpt lat="42.2767341" lon="13.1900187"><ele>957.0</ele><time>2026-04-26T13:31:25.639Z</time></trkpt><trkpt lat="42.2769049" lon="13.1900045"><ele>957.0</ele><time>2026-04-26T13:31:26.639Z</time></trkpt><trkpt lat="42.2770704" lon="13.1899833"><ele>957.0</ele><time>2026-04-26T13:31:27.639Z</time></trkpt><trkpt lat="42.2772316" lon="13.189931"><ele>957.0</ele><time>2026-04-26T13:31:28.639Z</time></trkpt><trkpt lat="42.2773869" lon="13.1898445"><ele>969.0</ele><time>2026-04-26T13:31:29.639Z</time></trkpt><trkpt lat="42.2775502" lon="13.1897505"><ele>981.0</ele><time>2026-04-26T13:31:30.639Z</time></trkpt><trkpt lat="42.2777028" lon="13.1896642"><ele>993.0</ele><time>2026-04-26T13:31:31.639Z</time></trkpt><trkpt lat="42.2778498" lon="13.1896001"><ele>993.0</ele><time>2026-04-26T13:31:32.639Z</time></trkpt><trkpt lat="42.2779837" lon="13.1895399"><ele>993.0</ele><time>2026-04-26T13:31:33.64Z</time></trkpt><trkpt lat="42.2781067" lon="13.1894929"><ele>993.0</ele><time>2026-04-26T13:31:34.639Z</time></trkpt><trkpt lat="42.2782076" lon="13.1894258"><ele>993.0</ele><time>2026-04-26T13:31:35.638Z</time></trkpt><trkpt lat="42.2782754" lon="13.189322"><ele>994.5</ele><time>2026-04-26T13:31:36.639Z</time></trkpt><trkpt lat="42.2783417" lon="13.1892297"><ele>996.0</ele><time>2026-04-26T13:31:37.64Z</time></trkpt><trkpt lat="42.278403" lon="13.1891481"><ele>997.5</ele><time>2026-04-26T13:31:38.639Z</time></trkpt><trkpt lat="42.2784502" lon="13.1890805"><ele>999.0</ele><time>2026-04-26T13:31:39.639Z</time></trkpt><trkpt lat="42.2785258" lon="13.1889989"><ele>1000.5</ele><time>2026-04-26T13:31:41.638Z</time></trkpt><trkpt lat="42.2785875" lon="13.1889661"><ele>1002.0</ele><time>2026-04-26T13:31:44.638Z</time></trkpt><trkpt lat="42.2786606" lon="13.1889842"><ele>995.3333333333334</ele><time>2026-04-26T13:33:20.638Z</time></trkpt><trkpt lat="42.2787249" lon="13.1890357"><ele>988.6666666666667</ele><time>2026-04-26T13:33:21.638Z</time></trkpt><trkpt lat="42.2787976" lon="13.1891074"><ele>982.0</ele><time>2026-04-26T13:33:22.638Z</time></trkpt><trkpt lat="42.2788724" lon="13.1891862"><ele>975.3333333333334</ele><time>2026-04-26T13:33:23.638Z</time></trkpt><trkpt lat="42.2789485" lon="13.1892533"><ele>968.6666666666667</ele><time>2026-04-26T13:33:24.637Z</time></trkpt><trkpt lat="42.2790232" lon="13.1893259"><ele>962.0</ele><time>2026-04-26T13:33:25.639Z</time></trkpt><trkpt lat="42.279073" lon="13.1894103"><ele>962.0</ele><time>2026-04-26T13:33:26.637Z</time></trkpt><trkpt lat="42.2791029" lon="13.189524"><ele>962.0</ele><time>2026-04-26T13:33:27.638Z</time></trkpt><trkpt lat="42.2791053" lon="13.1896591"><ele>962.0</ele><time>2026-04-26T13:33:28.638Z</time></trkpt><trkpt lat="42.2790926" lon="13.1898159"><ele>962.0</ele><time>2026-04-26T13:33:29.638Z</time></trkpt><trkpt lat="42.2790583" lon="13.1899794"><ele>962.0</ele><time>2026-04-26T13:33:30.639Z</time></trkpt><trkpt lat="42.2790008" lon="13.1901498"><ele>963.5</ele><time>2026-04-26T13:33:31.637Z</time></trkpt><trkpt lat="42.2789216" lon="13.1903049"><ele>965.0</ele><time>2026-04-26T13:33:32.638Z</time></trkpt><trkpt lat="42.2788224" lon="13.1904465"><ele>966.5</ele><time>2026-04-26T13:33:33.639Z</time></trkpt><trkpt lat="42.2786993" lon="13.1905745"><ele>968.0</ele><time>2026-04-26T13:33:34.638Z</time></trkpt><trkpt lat="42.2785664" lon="13.1906891"><ele>968.0</ele><time>2026-04-26T13:33:35.638Z</time></trkpt><trkpt lat="42.2784299" lon="13.1907991"><ele>968.0</ele><time>2026-04-26T13:33:36.638Z</time></trkpt><trkpt lat="42.2782947" lon="13.1908912"><ele>968.0</ele><time>2026-04-26T13:33:37.639Z</time></trkpt><trkpt lat="42.2781709" lon="13.1909716"><ele>968.0</ele><time>2026-04-26T13:33:38.638Z</time></trkpt><trkpt lat="42.2780647" lon="13.1910799"><ele>966.25</ele><time>2026-04-26T13:33:39.639Z</time></trkpt><trkpt lat="42.2779777" lon="13.1912057"><ele>964.5</ele><time>2026-04-26T13:33:40.638Z</time></trkpt><trkpt lat="42.2779163" lon="13.1913602"><ele>962.75</ele><time>2026-04-26T13:33:41.637Z</time></trkpt><trkpt lat="42.2778695" lon="13.1915311"><ele>961.0</ele><time>2026-04-26T13:33:42.639Z</time></trkpt><trkpt lat="42.2778174" lon="13.1917044"><ele>961.0</ele><time>2026-04-26T13:33:43.638Z</time></trkpt><trkpt lat="42.2777697" lon="13.1918817"><ele>961.0</ele><time>2026-04-26T13:33:44.638Z</time></trkpt><trkpt lat="42.2777538" lon="13.1920568"><ele>961.0</ele><time>2026-04-26T13:33:45.638Z</time></trkpt><trkpt lat="42.2777369" lon="13.1922181"><ele>961.0</ele><time>2026-04-26T13:33:46.637Z</time></trkpt><trkpt lat="42.2777084" lon="13.192355"><ele>966.1666666666666</ele><time>2026-04-26T13:33:47.637Z</time></trkpt><trkpt lat="42.2776661" lon="13.1924705"><ele>971.3333333333333</ele><time>2026-04-26T13:33:48.639Z</time></trkpt><trkpt lat="42.2776069" lon="13.1925503"><ele>976.5</ele><time>2026-04-26T13:33:49.638Z</time></trkpt><trkpt lat="42.2775368" lon="13.1925871"><ele>981.6666666666667</ele><time>2026-04-26T13:33:50.639Z</time></trkpt><trkpt lat="42.2774613" lon="13.1925651"><ele>986.8333333333334</ele><time>2026-04-26T13:33:51.638Z</time></trkpt><trkpt lat="42.2773757" lon="13.1925007"><ele>992.0</ele><time>2026-04-26T13:33:52.638Z</time></trkpt><trkpt lat="42.2772865" lon="13.192408"><ele>984.0</ele><time>2026-04-26T13:33:53.637Z</time></trkpt><trkpt lat="42.2772046" lon="13.1922918"><ele>976.0</ele><time>2026-04-26T13:33:54.638Z</time></trkpt><trkpt lat="42.2771404" lon="13.1921523"><ele>968.0</ele><time>2026-04-26T13:33:55.637Z</time></trkpt><trkpt lat="42.2770797" lon="13.1920407"><ele>960.0</ele><time>2026-04-26T13:33:56.639Z</time></trkpt><trkpt lat="42.2770059" lon="13.1919665"><ele>952.0</ele><time>2026-04-26T13:33:57.637Z</time></trkpt><trkpt lat="42.2769219" lon="13.1919403"><ele>952.0</ele><time>2026-04-26T13:33:58.639Z</time></trkpt><trkpt lat="42.276835" lon="13.1919216"><ele>952.0</ele><time>2026-04-26T13:33:59.638Z</time></trkpt><trkpt lat="42.2767022" lon="13.1919615"><ele>952.0</ele><time>2026-04-26T13:34:00.638Z</time></trkpt><trkpt lat="42.2765911" lon="13.1919808"><ele>952.0</ele><time>2026-04-26T13:34:01.638Z</time></trkpt><trkpt lat="42.2764741" lon="13.1920304"><ele>953.5</ele><time>2026-04-26T13:34:02.639Z</time></trkpt><trkpt lat="42.2763671" lon="13.1921242"><ele>955.0</ele><time>2026-04-26T13:34:03.639Z</time></trkpt><trkpt lat="42.2762708" lon="13.1922546"><ele>956.5</ele><time>2026-04-26T13:34:04.639Z</time></trkpt><trkpt lat="42.2762071" lon="13.1924123"><ele>958.0</ele><time>2026-04-26T13:34:05.638Z</time></trkpt><trkpt lat="42.2761558" lon="13.1925727"><ele>958.0</ele><time>2026-04-26T13:34:06.639Z</time></trkpt><trkpt lat="42.2760867" lon="13.1927023"><ele>958.0</ele><time>2026-04-26T13:34:07.639Z</time></trkpt><trkpt lat="42.2759938" lon="13.1928091"><ele>958.0</ele><time>2026-04-26T13:34:08.638Z</time></trkpt><trkpt lat="42.275883" lon="13.1929324"><ele>958.0</ele><time>2026-04-26T13:34:09.638Z</time></trkpt><trkpt lat="42.2757589" lon="13.1930649"><ele>960.0</ele><time>2026-04-26T13:34:10.638Z</time></trkpt><trkpt lat="42.2756258" lon="13.1931969"><ele>962.0</ele><time>2026-04-26T13:34:11.637Z</time></trkpt><trkpt lat="42.2754886" lon="13.1933265"><ele>964.0</ele><time>2026-04-26T13:34:12.638Z</time></trkpt><trkpt lat="42.2753521" lon="13.19346"><ele>964.0</ele><time>2026-04-26T13:34:13.638Z</time></trkpt><trkpt lat="42.275219" lon="13.1935887"><ele>964.0</ele><time>2026-04-26T13:34:14.638Z</time></trkpt><trkpt lat="42.2750945" lon="13.1937055"><ele>964.0</ele><time>2026-04-26T13:34:15.638Z</time></trkpt><trkpt lat="42.274974" lon="13.1938023"><ele>964.0</ele><time>2026-04-26T13:34:16.638Z</time></trkpt><trkpt lat="42.2748599" lon="13.1938848"><ele>964.0</ele><time>2026-04-26T13:34:17.637Z</time></trkpt><trkpt lat="42.2747388" lon="13.1939353"><ele>964.0</ele><time>2026-04-26T13:34:18.638Z</time></trkpt><trkpt lat="42.2746295" lon="13.1939483"><ele>964.0</ele><time>2026-04-26T13:34:19.637Z</time></trkpt><trkpt lat="42.2745319" lon="13.1939236"><ele>962.6</ele><time>2026-04-26T13:34:20.638Z</time></trkpt><trkpt lat="42.2744418" lon="13.1938696"><ele>961.2</ele><time>2026-04-26T13:34:21.638Z</time></trkpt><trkpt lat="42.2743525" lon="13.1937938"><ele>959.8000000000001</ele><time>2026-04-26T13:34:22.637Z</time></trkpt><trkpt lat="42.2742585" lon="13.1937347"><ele>958.4000000000001</ele><time>2026-04-26T13:34:23.638Z</time></trkpt><trkpt lat="42.2741446" lon="13.1937149"><ele>957.0</ele><time>2026-04-26T13:34:24.638Z</time></trkpt><trkpt lat="42.2740239" lon="13.1937324"><ele>956.0</ele><time>2026-04-26T13:34:25.638Z</time></trkpt><trkpt lat="42.2738966" lon="13.1937891"><ele>955.0</ele><time>2026-04-26T13:34:26.638Z</time></trkpt><trkpt lat="42.2737686" lon="13.1938783"><ele>954.0</ele><time>2026-04-26T13:34:27.638Z</time></trkpt><trkpt lat="42.2736556" lon="13.1939812"><ele>953.0</ele><time>2026-04-26T13:34:28.638Z</time></trkpt><trkpt lat="42.2735669" lon="13.1940839"><ele>957.4</ele><time>2026-04-26T13:34:29.638Z</time></trkpt><trkpt lat="42.2735102" lon="13.1941921"><ele>961.8</ele><time>2026-04-26T13:34:30.639Z</time></trkpt><trkpt lat="42.2734865" lon="13.1943219"><ele>966.2</ele><time>2026-04-26T13:34:31.638Z</time></trkpt><trkpt lat="42.2734893" lon="13.1944682"><ele>970.6</ele><time>2026-04-26T13:34:32.638Z</time></trkpt><trkpt lat="42.2734979" lon="13.1946337"><ele>975.0</ele><time>2026-04-26T13:34:33.639Z</time></trkpt><trkpt lat="42.2735175" lon="13.1948215"><ele>975.3333333333333</ele><time>2026-04-26T13:34:34.637Z</time></trkpt><trkpt lat="42.2735539" lon="13.1950359"><ele>975.6666666666666</ele><time>2026-04-26T13:34:35.638Z</time></trkpt><trkpt lat="42.2736081" lon="13.1952603"><ele>976.0</ele><time>2026-04-26T13:34:36.637Z</time></trkpt><trkpt lat="42.2736687" lon="13.1954936"><ele>976.0</ele><time>2026-04-26T13:34:37.638Z</time></trkpt><trkpt lat="42.2737241" lon="13.1957261"><ele>976.0</ele><time>2026-04-26T13:34:38.639Z</time></trkpt><trkpt lat="42.2737672" lon="13.1959705"><ele>976.0</ele><time>2026-04-26T13:34:39.639Z</time></trkpt><trkpt lat="42.2737923" lon="13.1962212"><ele>976.0</ele><time>2026-04-26T13:34:40.638Z</time></trkpt><trkpt lat="42.2737959" lon="13.1964769"><ele>976.0</ele><time>2026-04-26T13:34:41.638Z</time></trkpt><trkpt lat="42.2737772" lon="13.1967178"><ele>976.0</ele><time>2026-04-26T13:34:42.638Z</time></trkpt><trkpt lat="42.2737427" lon="13.1969387"><ele>976.5</ele><time>2026-04-26T13:34:43.637Z</time></trkpt><trkpt lat="42.2737076" lon="13.197144"><ele>977.0</ele><time>2026-04-26T13:34:44.639Z</time></trkpt><trkpt lat="42.2736942" lon="13.197334"><ele>977.5</ele><time>2026-04-26T13:34:45.638Z</time></trkpt><trkpt lat="42.2737149" lon="13.1975211"><ele>978.0</ele><time>2026-04-26T13:34:46.638Z</time></trkpt><trkpt lat="42.2737727" lon="13.1977091"><ele>979.3333333333333</ele><time>2026-04-26T13:34:47.637Z</time></trkpt><trkpt lat="42.2738434" lon="13.1979051"><ele>980.6666666666666</ele><time>2026-04-26T13:34:48.638Z</time></trkpt><trkpt lat="42.2739118" lon="13.1981193"><ele>982.0</ele><time>2026-04-26T13:34:49.639Z</time></trkpt><trkpt lat="42.2739607" lon="13.1983489"><ele>999.6666666666666</ele><time>2026-04-26T13:34:50.637Z</time></trkpt><trkpt lat="42.2739913" lon="13.1985795"><ele>1017.3333333333333</ele><time>2026-04-26T13:34:51.637Z</time></trkpt><trkpt lat="42.2740201" lon="13.1987927"><ele>1035.0</ele><time>2026-04-26T13:34:52.637Z</time></trkpt><trkpt lat="42.2740732" lon="13.1989985"><ele>1030.3333333333333</ele><time>2026-04-26T13:34:53.638Z</time></trkpt><trkpt lat="42.2741566" lon="13.1991786"><ele>1025.6666666666665</ele><time>2026-04-26T13:34:54.639Z</time></trkpt><trkpt lat="42.2742529" lon="13.1993573"><ele>1021.0</ele><time>2026-04-26T13:34:55.639Z</time></trkpt><trkpt lat="42.2743287" lon="13.199538"><ele>1021.0</ele><time>2026-04-26T13:34:56.638Z</time></trkpt><trkpt lat="42.2743961" lon="13.1997079"><ele>1021.0</ele><time>2026-04-26T13:34:57.638Z</time></trkpt><trkpt lat="42.2744557" lon="13.1998598"><ele>1021.0</ele><time>2026-04-26T13:34:58.638Z</time></trkpt><trkpt lat="42.274501" lon="13.1999926"><ele>1021.0</ele><time>2026-04-26T13:34:59.638Z</time></trkpt><trkpt lat="42.2745152" lon="13.2001055"><ele>1021.4999999999999</ele><time>2026-04-26T13:35:00.638Z</time></trkpt><trkpt lat="42.2744854" lon="13.2002046"><ele>1022.0</ele><time>2026-04-26T13:35:01.638Z</time></trkpt><trkpt lat="42.2744386" lon="13.2002889"><ele>1022.5</ele><time>2026-04-26T13:35:02.637Z</time></trkpt><trkpt lat="42.2743599" lon="13.2003223"><ele>1023.0</ele><time>2026-04-26T13:35:03.639Z</time></trkpt><trkpt lat="42.2742693" lon="13.2003131"><ele>1023.4999999999999</ele><time>2026-04-26T13:35:04.639Z</time></trkpt><trkpt lat="42.2741628" lon="13.2002582"><ele>1024.0</ele><time>2026-04-26T13:35:05.639Z</time></trkpt><trkpt lat="42.2740309" lon="13.2001943"><ele>1027.6666666666665</ele><time>2026-04-26T13:35:06.638Z</time></trkpt><trkpt lat="42.273887" lon="13.2001371"><ele>1031.3333333333333</ele><time>2026-04-26T13:35:07.637Z</time></trkpt><trkpt lat="42.273726" lon="13.2000715"><ele>1035.0</ele><time>2026-04-26T13:35:08.638Z</time></trkpt><trkpt lat="42.2735641" lon="13.1999983"><ele>1035.0</ele><time>2026-04-26T13:35:09.638Z</time></trkpt><trkpt lat="42.2734118" lon="13.1999006"><ele>1035.0</ele><time>2026-04-26T13:35:10.637Z</time></trkpt><trkpt lat="42.2732755" lon="13.1997912"><ele>1035.0</ele><time>2026-04-26T13:35:11.638Z</time></trkpt><trkpt lat="42.2731405" lon="13.1996858"><ele>1025.25</ele><time>2026-04-26T13:35:12.638Z</time></trkpt><trkpt lat="42.2730006" lon="13.1996077"><ele>1015.5</ele><time>2026-04-26T13:35:13.637Z</time></trkpt><trkpt lat="42.2728654" lon="13.1995667"><ele>1005.75</ele><time>2026-04-26T13:35:14.637Z</time></trkpt><trkpt lat="42.2727436" lon="13.1995613"><ele>996.0</ele><time>2026-04-26T13:35:15.637Z</time></trkpt><trkpt lat="42.2726406" lon="13.199595"><ele>996.0</ele><time>2026-04-26T13:35:16.638Z</time></trkpt><trkpt lat="42.2725474" lon="13.1996764"><ele>995.9999999999999</ele><time>2026-04-26T13:35:17.638Z</time></trkpt><trkpt lat="42.2724619" lon="13.1997812"><ele>995.9999999999999</ele><time>2026-04-26T13:35:18.638Z</time></trkpt><trkpt lat="42.272393" lon="13.1999007"><ele>996.0</ele><time>2026-04-26T13:35:19.638Z</time></trkpt><trkpt lat="42.272359" lon="13.2000253"><ele>996.0</ele><time>2026-04-26T13:35:20.638Z</time></trkpt><trkpt lat="42.2723565" lon="13.200163"><ele>1003.75</ele><time>2026-04-26T13:35:21.638Z</time></trkpt><trkpt lat="42.2723659" lon="13.2003278"><ele>1011.5</ele><time>2026-04-26T13:35:22.638Z</time></trkpt><trkpt lat="42.2723529" lon="13.2005112"><ele>1019.25</ele><time>2026-04-26T13:35:23.638Z</time></trkpt><trkpt lat="42.2723239" lon="13.2006751"><ele>1027.0</ele><time>2026-04-26T13:35:24.638Z</time></trkpt><trkpt lat="42.2723176" lon="13.2008258"><ele>1030.0</ele><time>2026-04-26T13:35:25.638Z</time></trkpt><trkpt lat="42.272346" lon="13.2009718"><ele>1033.0</ele><time>2026-04-26T13:35:26.638Z</time></trkpt><trkpt lat="42.2724066" lon="13.201105"><ele>1036.0</ele><time>2026-04-26T13:35:27.638Z</time></trkpt><trkpt lat="42.2724702" lon="13.2012512"><ele>1039.0</ele><time>2026-04-26T13:35:28.637Z</time></trkpt><trkpt lat="42.272514" lon="13.2014022"><ele>1036.5</ele><time>2026-04-26T13:35:29.637Z</time></trkpt><trkpt lat="42.2725904" lon="13.2015284"><ele>1034.0</ele><time>2026-04-26T13:35:30.636Z</time></trkpt><trkpt lat="42.2726896" lon="13.2016397"><ele>1031.5</ele><time>2026-04-26T13:35:31.637Z</time></trkpt><trkpt lat="42.2727841" lon="13.2017632"><ele>1029.0</ele><time>2026-04-26T13:35:32.638Z</time></trkpt><trkpt lat="42.2728563" lon="13.2018904"><ele>1029.0</ele><time>2026-04-26T13:35:33.638Z</time></trkpt><trkpt lat="42.2729015" lon="13.2020227"><ele>1029.0</ele><time>2026-04-26T13:35:34.637Z</time></trkpt><trkpt lat="42.2729148" lon="13.2021685"><ele>1029.0</ele><time>2026-04-26T13:35:35.638Z</time></trkpt><trkpt lat="42.2729255" lon="13.2023242"><ele>1029.0</ele><time>2026-04-26T13:35:36.637Z</time></trkpt><trkpt lat="42.2729616" lon="13.2024917"><ele>1024.75</ele><time>2026-04-26T13:35:37.637Z</time></trkpt><trkpt lat="42.2730199" lon="13.2026695"><ele>1020.5</ele><time>2026-04-26T13:35:38.638Z</time></trkpt><trkpt lat="42.2730953" lon="13.2028333"><ele>1016.25</ele><time>2026-04-26T13:35:39.638Z</time></trkpt><trkpt lat="42.2731884" lon="13.2029748"><ele>1012.0</ele><time>2026-04-26T13:35:40.637Z</time></trkpt><trkpt lat="42.2732908" lon="13.2030964"><ele>1020.0</ele><time>2026-04-26T13:35:41.636Z</time></trkpt><trkpt lat="42.2734192" lon="13.2031428"><ele>1028.0</ele><time>2026-04-26T13:35:42.638Z</time></trkpt><trkpt lat="42.273538" lon="13.2031897"><ele>1036.0</ele><time>2026-04-26T13:35:43.638Z</time></trkpt><trkpt lat="42.2736302" lon="13.2032556"><ele>1044.0</ele><time>2026-04-26T13:35:44.637Z</time></trkpt><trkpt lat="42.2736952" lon="13.203352"><ele>1044.0</ele><time>2026-04-26T13:35:45.636Z</time></trkpt><trkpt lat="42.2737427" lon="13.2034917"><ele>1044.0</ele><time>2026-04-26T13:35:46.637Z</time></trkpt><trkpt lat="42.2737944" lon="13.2036516"><ele>1044.0</ele><time>2026-04-26T13:35:47.637Z</time></trkpt><trkpt lat="42.2738493" lon="13.203824"><ele>1044.0</ele><time>2026-04-26T13:35:48.638Z</time></trkpt><trkpt lat="42.2739056" lon="13.2040118"><ele>1053.3333333333333</ele><time>2026-04-26T13:35:49.638Z</time></trkpt><trkpt lat="42.2739568" lon="13.204198"><ele>1062.6666666666665</ele><time>2026-04-26T13:35:50.637Z</time></trkpt><trkpt lat="42.2740179" lon="13.2043863"><ele>1072.0</ele><time>2026-04-26T13:35:51.638Z</time></trkpt><trkpt lat="42.2740921" lon="13.2045632"><ele>1072.0</ele><time>2026-04-26T13:35:52.637Z</time></trkpt><trkpt lat="42.2741731" lon="13.2047319"><ele>1072.0</ele><time>2026-04-26T13:35:53.637Z</time></trkpt><trkpt lat="42.2742371" lon="13.2049136"><ele>1072.0</ele><time>2026-04-26T13:35:54.636Z</time></trkpt><trkpt lat="42.2742735" lon="13.2051097"><ele>1072.0</ele><time>2026-04-26T13:35:55.637Z</time></trkpt><trkpt lat="42.2742862" lon="13.2053225"><ele>1067.6666666666665</ele><time>2026-04-26T13:35:56.637Z</time></trkpt><trkpt lat="42.2742942" lon="13.2055458"><ele>1063.3333333333333</ele><time>2026-04-26T13:35:57.637Z</time></trkpt><trkpt lat="42.2743158" lon="13.2057686"><ele>1059.0</ele><time>2026-04-26T13:35:58.638Z</time></trkpt><trkpt lat="42.2743377" lon="13.2059859"><ele>1057.6666666666667</ele><time>2026-04-26T13:35:59.637Z</time></trkpt><trkpt lat="42.2743502" lon="13.206199"><ele>1056.3333333333335</ele><time>2026-04-26T13:36:00.638Z</time></trkpt><trkpt lat="42.2743424" lon="13.2064056"><ele>1055.0</ele><time>2026-04-26T13:36:01.636Z</time></trkpt><trkpt lat="42.2743066" lon="13.2065962"><ele>1055.0</ele><time>2026-04-26T13:36:02.637Z</time></trkpt><trkpt lat="42.2742578" lon="13.2067598"><ele>1055.0</ele><time>2026-04-26T13:36:03.638Z</time></trkpt><trkpt lat="42.274229" lon="13.2069101"><ele>1055.0</ele><time>2026-04-26T13:36:04.637Z</time></trkpt><trkpt lat="42.2742315" lon="13.2070386"><ele>1055.0</ele><time>2026-04-26T13:36:05.637Z</time></trkpt><trkpt lat="42.2742728" lon="13.2071759"><ele>1055.0</ele><time>2026-04-26T13:36:06.638Z</time></trkpt><trkpt lat="42.2743438" lon="13.2073082"><ele>1055.0</ele><time>2026-04-26T13:36:07.637Z</time></trkpt><trkpt lat="42.274418" lon="13.2074466"><ele>1055.0</ele><time>2026-04-26T13:36:08.638Z</time></trkpt><trkpt lat="42.2744701" lon="13.2075922"><ele>1055.0</ele><time>2026-04-26T13:36:09.638Z</time></trkpt><trkpt lat="42.2745016" lon="13.2077392"><ele>1055.2</ele><time>2026-04-26T13:36:10.638Z</time></trkpt><trkpt lat="42.2745184" lon="13.2078917"><ele>1055.4</ele><time>2026-04-26T13:36:11.637Z</time></trkpt><trkpt lat="42.2745227" lon="13.208043"><ele>1055.6</ele><time>2026-04-26T13:36:12.638Z</time></trkpt><trkpt lat="42.2745171" lon="13.2081917"><ele>1055.8</ele><time>2026-04-26T13:36:13.638Z</time></trkpt><trkpt lat="42.2745065" lon="13.208344"><ele>1056.0</ele><time>2026-04-26T13:36:14.636Z</time></trkpt><trkpt lat="42.2744911" lon="13.2085026"><ele>1056.0</ele><time>2026-04-26T13:36:15.637Z</time></trkpt><trkpt lat="42.2744766" lon="13.2086685"><ele>1056.0</ele><time>2026-04-26T13:36:16.638Z</time></trkpt><trkpt lat="42.2744693" lon="13.2088477"><ele>1056.0</ele><time>2026-04-26T13:36:17.638Z</time></trkpt><trkpt lat="42.2744686" lon="13.209023"><ele>1056.0</ele><time>2026-04-26T13:36:18.638Z</time></trkpt><trkpt lat="42.2744742" lon="13.209201"><ele>1057.25</ele><time>2026-04-26T13:36:19.636Z</time></trkpt><trkpt lat="42.2744739" lon="13.2093817"><ele>1058.5</ele><time>2026-04-26T13:36:20.636Z</time></trkpt><trkpt lat="42.2744661" lon="13.2095652"><ele>1059.75</ele><time>2026-04-26T13:36:21.637Z</time></trkpt><trkpt lat="42.2744468" lon="13.2097449"><ele>1061.0</ele><time>2026-04-26T13:36:22.637Z</time></trkpt><trkpt lat="42.2744183" lon="13.2099229"><ele>1061.5</ele><time>2026-04-26T13:36:23.637Z</time></trkpt><trkpt lat="42.2743865" lon="13.2101016"><ele>1062.0</ele><time>2026-04-26T13:36:24.636Z</time></trkpt><trkpt lat="42.2743584" lon="13.2102806"><ele>1062.5</ele><time>2026-04-26T13:36:25.636Z</time></trkpt><trkpt lat="42.2743375" lon="13.2104582"><ele>1063.0</ele><time>2026-04-26T13:36:26.637Z</time></trkpt><trkpt lat="42.2743269" lon="13.2106244"><ele>1065.4</ele><time>2026-04-26T13:36:27.636Z</time></trkpt><trkpt lat="42.2743227" lon="13.2107764"><ele>1067.8</ele><time>2026-04-26T13:36:28.637Z</time></trkpt><trkpt lat="42.2742903" lon="13.210898"><ele>1070.2</ele><time>2026-04-26T13:36:29.636Z</time></trkpt><trkpt lat="42.2742383" lon="13.2110014"><ele>1072.6</ele><time>2026-04-26T13:36:30.638Z</time></trkpt><trkpt lat="42.2741678" lon="13.2111052"><ele>1075.0</ele><time>2026-04-26T13:36:31.637Z</time></trkpt><trkpt lat="42.2740758" lon="13.2112076"><ele>1075.0</ele><time>2026-04-26T13:36:32.638Z</time></trkpt><trkpt lat="42.2739662" lon="13.2113032"><ele>1075.0</ele><time>2026-04-26T13:36:33.638Z</time></trkpt><trkpt lat="42.2738437" lon="13.2113985"><ele>1075.0</ele><time>2026-04-26T13:36:34.638Z</time></trkpt><trkpt lat="42.2737125" lon="13.2114966"><ele>1075.0</ele><time>2026-04-26T13:36:35.637Z</time></trkpt><trkpt lat="42.2735994" lon="13.2115878"><ele>1075.2</ele><time>2026-04-26T13:36:36.637Z</time></trkpt><trkpt lat="42.2734968" lon="13.211684"><ele>1075.4</ele><time>2026-04-26T13:36:37.637Z</time></trkpt><trkpt lat="42.2734043" lon="13.2117742"><ele>1075.6</ele><time>2026-04-26T13:36:38.636Z</time></trkpt><trkpt lat="42.273318" lon="13.2118612"><ele>1075.8</ele><time>2026-04-26T13:36:39.637Z</time></trkpt><trkpt lat="42.2732466" lon="13.2119478"><ele>1076.0</ele><time>2026-04-26T13:36:40.637Z</time></trkpt><trkpt lat="42.2731934" lon="13.2120545"><ele>1076.0</ele><time>2026-04-26T13:36:41.636Z</time></trkpt><trkpt lat="42.2731628" lon="13.2121783"><ele>1076.0</ele><time>2026-04-26T13:36:42.636Z</time></trkpt><trkpt lat="42.2731445" lon="13.2123143"><ele>1076.0</ele><time>2026-04-26T13:36:43.636Z</time></trkpt><trkpt lat="42.2731304" lon="13.2124588"><ele>1076.0</ele><time>2026-04-26T13:36:44.637Z</time></trkpt><trkpt lat="42.2731101" lon="13.2126076"><ele>1076.0</ele><time>2026-04-26T13:36:45.637Z</time></trkpt><trkpt lat="42.2730851" lon="13.2127586"><ele>1082.0</ele><time>2026-04-26T13:36:46.637Z</time></trkpt><trkpt lat="42.2730507" lon="13.2129061"><ele>1088.0</ele><time>2026-04-26T13:36:47.637Z</time></trkpt><trkpt lat="42.2730224" lon="13.2130476"><ele>1094.0</ele><time>2026-04-26T13:36:48.637Z</time></trkpt><trkpt lat="42.2730092" lon="13.2131834"><ele>1100.0</ele><time>2026-04-26T13:36:49.638Z</time></trkpt><trkpt lat="42.2730186" lon="13.2133212"><ele>1106.0</ele><time>2026-04-26T13:36:50.636Z</time></trkpt><trkpt lat="42.2730509" lon="13.2134575"><ele>1106.0</ele><time>2026-04-26T13:36:51.636Z</time></trkpt><trkpt lat="42.273098" lon="13.2135977"><ele>1106.0</ele><time>2026-04-26T13:36:52.636Z</time></trkpt><trkpt lat="42.273149" lon="13.2137415"><ele>1106.0</ele><time>2026-04-26T13:36:53.638Z</time></trkpt><trkpt lat="42.2732015" lon="13.2138905"><ele>1106.0</ele><time>2026-04-26T13:36:54.637Z</time></trkpt><trkpt lat="42.2732585" lon="13.2140411"><ele>1105.75</ele><time>2026-04-26T13:36:55.638Z</time></trkpt><trkpt lat="42.2733183" lon="13.2141987"><ele>1105.5</ele><time>2026-04-26T13:36:56.637Z</time></trkpt><trkpt lat="42.2733806" lon="13.2143536"><ele>1105.25</ele><time>2026-04-26T13:36:57.637Z</time></trkpt><trkpt lat="42.2734483" lon="13.214507"><ele>1105.0</ele><time>2026-04-26T13:36:58.636Z</time></trkpt><trkpt lat="42.2735128" lon="13.2146497"><ele>1105.0</ele><time>2026-04-26T13:36:59.636Z</time></trkpt><trkpt lat="42.273568" lon="13.2147844"><ele>1105.0</ele><time>2026-04-26T13:37:00.638Z</time></trkpt><trkpt lat="42.2736057" lon="13.214932"><ele>1105.0</ele><time>2026-04-26T13:37:01.638Z</time></trkpt><trkpt lat="42.2736216" lon="13.2150959"><ele>1105.0</ele><time>2026-04-26T13:37:02.637Z</time></trkpt><trkpt lat="42.2736301" lon="13.2152781"><ele>1105.5</ele><time>2026-04-26T13:37:03.638Z</time></trkpt><trkpt lat="42.27364" lon="13.215462"><ele>1106.0</ele><time>2026-04-26T13:37:04.637Z</time></trkpt><trkpt lat="42.2736535" lon="13.2156437"><ele>1106.5</ele><time>2026-04-26T13:37:05.638Z</time></trkpt><trkpt lat="42.2736634" lon="13.2158081"><ele>1107.0</ele><time>2026-04-26T13:37:06.637Z</time></trkpt><trkpt lat="42.2736716" lon="13.2159615"><ele>1107.8</ele><time>2026-04-26T13:37:07.636Z</time></trkpt><trkpt lat="42.2736759" lon="13.2161036"><ele>1108.6</ele><time>2026-04-26T13:37:08.637Z</time></trkpt><trkpt lat="42.2736805" lon="13.2162558"><ele>1109.3999999999999</ele><time>2026-04-26T13:37:09.638Z</time></trkpt><trkpt lat="42.2736854" lon="13.216393"><ele>1110.2</ele><time>2026-04-26T13:37:10.636Z</time></trkpt><trkpt lat="42.2736955" lon="13.2165269"><ele>1111.0</ele><time>2026-04-26T13:37:11.636Z</time></trkpt><trkpt lat="42.2737221" lon="13.216665"><ele>1114.5</ele><time>2026-04-26T13:37:12.636Z</time></trkpt><trkpt lat="42.273762" lon="13.2168012"><ele>1118.0</ele><time>2026-04-26T13:37:13.637Z</time></trkpt><trkpt lat="42.2738046" lon="13.2169436"><ele>1121.5</ele><time>2026-04-26T13:37:14.637Z</time></trkpt><trkpt lat="42.2738501" lon="13.2170987"><ele>1125.0</ele><time>2026-04-26T13:37:15.638Z</time></trkpt><trkpt lat="42.2738843" lon="13.2172618"><ele>1127.25</ele><time>2026-04-26T13:37:16.637Z</time></trkpt><trkpt lat="42.2738863" lon="13.2174524"><ele>1129.5</ele><time>2026-04-26T13:37:17.637Z</time></trkpt><trkpt lat="42.2738679" lon="13.2176479"><ele>1131.75</ele><time>2026-04-26T13:37:18.638Z</time></trkpt><trkpt lat="42.2738259" lon="13.2178401"><ele>1134.0</ele><time>2026-04-26T13:37:19.637Z</time></trkpt><trkpt lat="42.273789" lon="13.2180462"><ele>1133.6666666666667</ele><time>2026-04-26T13:37:20.637Z</time></trkpt><trkpt lat="42.2737767" lon="13.2182708"><ele>1133.3333333333335</ele><time>2026-04-26T13:37:21.638Z</time></trkpt><trkpt lat="42.2737863" lon="13.2185064"><ele>1133.0</ele><time>2026-04-26T13:37:22.638Z</time></trkpt><trkpt lat="42.2737984" lon="13.2187372"><ele>1133.0</ele><time>2026-04-26T13:37:23.638Z</time></trkpt><trkpt lat="42.2738355" lon="13.2189718"><ele>1133.0</ele><time>2026-04-26T13:37:24.636Z</time></trkpt><trkpt lat="42.2738895" lon="13.2192068"><ele>1133.0</ele><time>2026-04-26T13:37:25.637Z</time></trkpt><trkpt lat="42.2739528" lon="13.2194342"><ele>1133.0</ele><time>2026-04-26T13:37:26.638Z</time></trkpt><trkpt lat="42.2740091" lon="13.2196581"><ele>1133.0</ele><time>2026-04-26T13:37:27.638Z</time></trkpt><trkpt lat="42.2740468" lon="13.2198815"><ele>1133.0</ele><time>2026-04-26T13:37:28.637Z</time></trkpt><trkpt lat="42.2740644" lon="13.2200946"><ele>1133.0</ele><time>2026-04-26T13:37:29.637Z</time></trkpt><trkpt lat="42.2740569" lon="13.2203004"><ele>1133.0</ele><time>2026-04-26T13:37:30.638Z</time></trkpt><trkpt lat="42.2740213" lon="13.2204975"><ele>1133.0</ele><time>2026-04-26T13:37:31.637Z</time></trkpt><trkpt lat="42.2739514" lon="13.2206777"><ele>1132.6666666666667</ele><time>2026-04-26T13:37:32.638Z</time></trkpt><trkpt lat="42.2738639" lon="13.2208446"><ele>1132.3333333333333</ele><time>2026-04-26T13:37:33.637Z</time></trkpt><trkpt lat="42.2737883" lon="13.2210182"><ele>1132.0</ele><time>2026-04-26T13:37:34.636Z</time></trkpt><trkpt lat="42.2737423" lon="13.2212162"><ele>1132.0</ele><time>2026-04-26T13:37:35.636Z</time></trkpt><trkpt lat="42.273721" lon="13.2214214"><ele>1132.0</ele><time>2026-04-26T13:37:36.637Z</time></trkpt><trkpt lat="42.2737304" lon="13.2216405"><ele>1132.0</ele><time>2026-04-26T13:37:37.637Z</time></trkpt><trkpt lat="42.2737724" lon="13.2218691"><ele>1132.0</ele><time>2026-04-26T13:37:38.638Z</time></trkpt><trkpt lat="42.273827" lon="13.2221114"><ele>1132.0</ele><time>2026-04-26T13:37:39.637Z</time></trkpt><trkpt lat="42.2738854" lon="13.2223621"><ele>1132.0</ele><time>2026-04-26T13:37:40.637Z</time></trkpt><trkpt lat="42.273942" lon="13.2226129"><ele>1137.0</ele><time>2026-04-26T13:37:41.638Z</time></trkpt><trkpt lat="42.2739953" lon="13.2228657"><ele>1142.0</ele><time>2026-04-26T13:37:42.638Z</time></trkpt><trkpt lat="42.2740371" lon="13.2231063"><ele>1147.0</ele><time>2026-04-26T13:37:43.637Z</time></trkpt><trkpt lat="42.2740798" lon="13.2233406"><ele>1147.0</ele><time>2026-04-26T13:37:44.638Z</time></trkpt><trkpt lat="42.2741256" lon="13.223572"><ele>1147.0</ele><time>2026-04-26T13:37:45.637Z</time></trkpt><trkpt lat="42.2741913" lon="13.2237916"><ele>1147.0</ele><time>2026-04-26T13:37:46.637Z</time></trkpt><trkpt lat="42.274271" lon="13.2239871"><ele>1148.75</ele><time>2026-04-26T13:37:47.636Z</time></trkpt><trkpt lat="42.2743452" lon="13.2241684"><ele>1150.5</ele><time>2026-04-26T13:37:48.637Z</time></trkpt><trkpt lat="42.2744129" lon="13.2243267"><ele>1152.25</ele><time>2026-04-26T13:37:49.636Z</time></trkpt><trkpt lat="42.2744781" lon="13.2244424"><ele>1154.0</ele><time>2026-04-26T13:37:50.637Z</time></trkpt><trkpt lat="42.2745545" lon="13.2245322"><ele>1154.0</ele><time>2026-04-26T13:37:51.637Z</time></trkpt><trkpt lat="42.2746656" lon="13.2245681"><ele>1154.0</ele><time>2026-04-26T13:37:52.637Z</time></trkpt><trkpt lat="42.274794" lon="13.2245994"><ele>1154.0</ele><time>2026-04-26T13:37:53.637Z</time></trkpt><trkpt lat="42.2749365" lon="13.2246582"><ele>1154.0</ele><time>2026-04-26T13:37:54.638Z</time></trkpt><trkpt lat="42.2750654" lon="13.2247474"><ele>1157.3333333333335</ele><time>2026-04-26T13:37:55.638Z</time></trkpt><trkpt lat="42.2751985" lon="13.2248772"><ele>1160.6666666666667</ele><time>2026-04-26T13:37:56.637Z</time></trkpt><trkpt lat="42.2753317" lon="13.2250351"><ele>1164.0</ele><time>2026-04-26T13:37:57.636Z</time></trkpt><trkpt lat="42.2754604" lon="13.2251887"><ele>1164.0</ele><time>2026-04-26T13:37:58.637Z</time></trkpt><trkpt lat="42.2755849" lon="13.2253339"><ele>1164.0</ele><time>2026-04-26T13:37:59.636Z</time></trkpt><trkpt lat="42.2756995" lon="13.2254901"><ele>1164.0</ele><time>2026-04-26T13:38:00.636Z</time></trkpt><trkpt lat="42.2757933" lon="13.2256536"><ele>1166.3333333333333</ele><time>2026-04-26T13:38:01.635Z</time></trkpt><trkpt lat="42.2758614" lon="13.2258342"><ele>1168.6666666666665</ele><time>2026-04-26T13:38:02.636Z</time></trkpt><trkpt lat="42.275904" lon="13.2260394"><ele>1171.0</ele><time>2026-04-26T13:38:03.637Z</time></trkpt><trkpt lat="42.2759379" lon="13.2262611"><ele>1173.0</ele><time>2026-04-26T13:38:04.636Z</time></trkpt><trkpt lat="42.2759726" lon="13.226492"><ele>1175.0</ele><time>2026-04-26T13:38:05.636Z</time></trkpt><trkpt lat="42.2760088" lon="13.226726"><ele>1177.0</ele><time>2026-04-26T13:38:06.637Z</time></trkpt><trkpt lat="42.2760471" lon="13.2269478"><ele>1177.0</ele><time>2026-04-26T13:38:07.636Z</time></trkpt><trkpt lat="42.2760943" lon="13.2271611"><ele>1177.0</ele><time>2026-04-26T13:38:08.636Z</time></trkpt><trkpt lat="42.2761722" lon="13.2273528"><ele>1177.0</ele><time>2026-04-26T13:38:09.636Z</time></trkpt><trkpt lat="42.2762755" lon="13.2275205"><ele>1180.0</ele><time>2026-04-26T13:38:10.636Z</time></trkpt><trkpt lat="42.2763885" lon="13.2276927"><ele>1183.0</ele><time>2026-04-26T13:38:11.636Z</time></trkpt><trkpt lat="42.2764819" lon="13.2279007"><ele>1186.0</ele><time>2026-04-26T13:38:12.637Z</time></trkpt><trkpt lat="42.2765622" lon="13.2281312"><ele>1182.3333333333333</ele><time>2026-04-26T13:38:13.636Z</time></trkpt><trkpt lat="42.2766313" lon="13.2283766"><ele>1178.6666666666667</ele><time>2026-04-26T13:38:14.636Z</time></trkpt><trkpt lat="42.2766882" lon="13.2286291"><ele>1175.0</ele><time>2026-04-26T13:38:15.636Z</time></trkpt><trkpt lat="42.2767295" lon="13.2288887"><ele>1173.3333333333335</ele><time>2026-04-26T13:38:16.636Z</time></trkpt><trkpt lat="42.2767725" lon="13.2291523"><ele>1171.6666666666667</ele><time>2026-04-26T13:38:17.637Z</time></trkpt><trkpt lat="42.2768263" lon="13.2294216"><ele>1170.0</ele><time>2026-04-26T13:38:18.637Z</time></trkpt><trkpt lat="42.2768843" lon="13.2296907"><ele>1171.0</ele><time>2026-04-26T13:38:19.636Z</time></trkpt><trkpt lat="42.2769392" lon="13.2299585"><ele>1172.0</ele><time>2026-04-26T13:38:20.637Z</time></trkpt><trkpt lat="42.2769896" lon="13.2302214"><ele>1173.0</ele><time>2026-04-26T13:38:21.636Z</time></trkpt><trkpt lat="42.2770528" lon="13.2304642"><ele>1174.3333333333333</ele><time>2026-04-26T13:38:22.636Z</time></trkpt><trkpt lat="42.2771258" lon="13.2306899"><ele>1175.6666666666665</ele><time>2026-04-26T13:38:23.636Z</time></trkpt><trkpt lat="42.2771918" lon="13.2309046"><ele>1177.0</ele><time>2026-04-26T13:38:24.636Z</time></trkpt><trkpt lat="42.2772435" lon="13.2311103"><ele>1177.0</ele><time>2026-04-26T13:38:25.635Z</time></trkpt><trkpt lat="42.2772639" lon="13.2313226"><ele>1177.0</ele><time>2026-04-26T13:38:26.636Z</time></trkpt><trkpt lat="42.2772553" lon="13.23155"><ele>1177.0</ele><time>2026-04-26T13:38:27.636Z</time></trkpt><trkpt lat="42.2772326" lon="13.2317825"><ele>1177.3333333333333</ele><time>2026-04-26T13:38:28.636Z</time></trkpt><trkpt lat="42.2772047" lon="13.2320095"><ele>1177.6666666666667</ele><time>2026-04-26T13:38:29.635Z</time></trkpt><trkpt lat="42.2771782" lon="13.2322288"><ele>1178.0</ele><time>2026-04-26T13:38:30.635Z</time></trkpt><trkpt lat="42.2771542" lon="13.2324362"><ele>1177.0</ele><time>2026-04-26T13:38:31.636Z</time></trkpt><trkpt lat="42.2771427" lon="13.2326346"><ele>1176.0</ele><time>2026-04-26T13:38:32.635Z</time></trkpt><trkpt lat="42.2771621" lon="13.2328355"><ele>1175.0</ele><time>2026-04-26T13:38:33.635Z</time></trkpt><trkpt lat="42.2772123" lon="13.2330232"><ele>1174.0</ele><time>2026-04-26T13:38:34.637Z</time></trkpt><trkpt lat="42.2772891" lon="13.2331891"><ele>1174.0</ele><time>2026-04-26T13:38:35.636Z</time></trkpt><trkpt lat="42.2773954" lon="13.2333329"><ele>1174.0</ele><time>2026-04-26T13:38:36.635Z</time></trkpt><trkpt lat="42.2775212" lon="13.2334613"><ele>1174.0</ele><time>2026-04-26T13:38:37.637Z</time></trkpt><trkpt lat="42.2776572" lon="13.2335788"><ele>1174.0</ele><time>2026-04-26T13:38:38.637Z</time></trkpt><trkpt lat="42.2777988" lon="13.233683"><ele>1174.0</ele><time>2026-04-26T13:38:39.637Z</time></trkpt><trkpt lat="42.2779376" lon="13.2337758"><ele>1174.0</ele><time>2026-04-26T13:38:40.637Z</time></trkpt><trkpt lat="42.2780722" lon="13.2338771"><ele>1175.3333333333333</ele><time>2026-04-26T13:38:41.637Z</time></trkpt><trkpt lat="42.2781936" lon="13.2340181"><ele>1176.6666666666667</ele><time>2026-04-26T13:38:42.637Z</time></trkpt><trkpt lat="42.2783024" lon="13.2341964"><ele>1178.0</ele><time>2026-04-26T13:38:43.636Z</time></trkpt><trkpt lat="42.2784014" lon="13.2343922"><ele>1178.0</ele><time>2026-04-26T13:38:44.637Z</time></trkpt><trkpt lat="42.2784913" lon="13.2346005"><ele>1178.0</ele><time>2026-04-26T13:38:45.637Z</time></trkpt><trkpt lat="42.2785718" lon="13.2348173"><ele>1178.0</ele><time>2026-04-26T13:38:46.637Z</time></trkpt><trkpt lat="42.27865" lon="13.2350354"><ele>1174.3333333333335</ele><time>2026-04-26T13:38:47.636Z</time></trkpt><trkpt lat="42.27873" lon="13.2352399"><ele>1170.6666666666667</ele><time>2026-04-26T13:38:48.636Z</time></trkpt><trkpt lat="42.278809" lon="13.2354417"><ele>1167.0</ele><time>2026-04-26T13:38:49.636Z</time></trkpt><trkpt lat="42.2788854" lon="13.2356398"><ele>1171.6666666666667</ele><time>2026-04-26T13:38:50.636Z</time></trkpt><trkpt lat="42.2789557" lon="13.2358313"><ele>1176.3333333333335</ele><time>2026-04-26T13:38:51.636Z</time></trkpt><trkpt lat="42.2790245" lon="13.236013"><ele>1181.0</ele><time>2026-04-26T13:38:52.635Z</time></trkpt><trkpt lat="42.2790919" lon="13.2361865"><ele>1181.0</ele><time>2026-04-26T13:38:53.635Z</time></trkpt><trkpt lat="42.279166" lon="13.2363465"><ele>1181.0</ele><time>2026-04-26T13:38:54.635Z</time></trkpt><trkpt lat="42.2792518" lon="13.236501"><ele>1181.0</ele><time>2026-04-26T13:38:55.635Z</time></trkpt><trkpt lat="42.2793488" lon="13.2366493"><ele>1181.0</ele><time>2026-04-26T13:38:56.637Z</time></trkpt><trkpt lat="42.279451" lon="13.2367905"><ele>1178.25</ele><time>2026-04-26T13:38:57.636Z</time></trkpt><trkpt lat="42.2795563" lon="13.2369312"><ele>1175.5</ele><time>2026-04-26T13:38:58.637Z</time></trkpt><trkpt lat="42.2796692" lon="13.2370656"><ele>1172.75</ele><time>2026-04-26T13:38:59.636Z</time></trkpt><trkpt lat="42.2797902" lon="13.2371837"><ele>1170.0</ele><time>2026-04-26T13:39:00.637Z</time></trkpt><trkpt lat="42.2799167" lon="13.2372842"><ele>1170.75</ele><time>2026-04-26T13:39:01.636Z</time></trkpt><trkpt lat="42.2800451" lon="13.2373674"><ele>1171.5</ele><time>2026-04-26T13:39:02.637Z</time></trkpt><trkpt lat="42.280157" lon="13.2374544"><ele>1172.25</ele><time>2026-04-26T13:39:03.635Z</time></trkpt><trkpt lat="42.2802535" lon="13.2375605"><ele>1173.0</ele><time>2026-04-26T13:39:04.636Z</time></trkpt><trkpt lat="42.2803246" lon="13.2376846"><ele>1173.0</ele><time>2026-04-26T13:39:05.636Z</time></trkpt><trkpt lat="42.2803698" lon="13.2378199"><ele>1173.0</ele><time>2026-04-26T13:39:06.636Z</time></trkpt><trkpt lat="42.2803855" lon="13.2379649"><ele>1173.0</ele><time>2026-04-26T13:39:07.636Z</time></trkpt><trkpt lat="42.2803724" lon="13.238113"><ele>1173.0</ele><time>2026-04-26T13:39:08.637Z</time></trkpt><trkpt lat="42.280353" lon="13.2382546"><ele>1173.0</ele><time>2026-04-26T13:39:09.637Z</time></trkpt><trkpt lat="42.2803591" lon="13.2383881"><ele>1172.0</ele><time>2026-04-26T13:39:10.636Z</time></trkpt><trkpt lat="42.2803957" lon="13.2385107"><ele>1171.0</ele><time>2026-04-26T13:39:11.636Z</time></trkpt><trkpt lat="42.280465" lon="13.2386326"><ele>1170.0</ele><time>2026-04-26T13:39:12.636Z</time></trkpt><trkpt lat="42.2805648" lon="13.2387477"><ele>1169.0</ele><time>2026-04-26T13:39:13.636Z</time></trkpt><trkpt lat="42.2806798" lon="13.23886"><ele>1173.0</ele><time>2026-04-26T13:39:14.635Z</time></trkpt><trkpt lat="42.280813" lon="13.2389851"><ele>1177.0</ele><time>2026-04-26T13:39:15.636Z</time></trkpt><trkpt lat="42.2809658" lon="13.2391085"><ele>1181.0</ele><time>2026-04-26T13:39:16.637Z</time></trkpt><trkpt lat="42.2811244" lon="13.2392331"><ele>1181.0</ele><time>2026-04-26T13:39:17.636Z</time></trkpt><trkpt lat="42.2812854" lon="13.2393689"><ele>1181.0</ele><time>2026-04-26T13:39:18.635Z</time></trkpt><trkpt lat="42.2814446" lon="13.2395165"><ele>1181.0</ele><time>2026-04-26T13:39:19.635Z</time></trkpt><trkpt lat="42.281599" lon="13.2396691"><ele>1183.3333333333335</ele><time>2026-04-26T13:39:20.636Z</time></trkpt><trkpt lat="42.2817437" lon="13.2398246"><ele>1185.6666666666667</ele><time>2026-04-26T13:39:21.636Z</time></trkpt><trkpt lat="42.2818725" lon="13.2399873"><ele>1188.0</ele><time>2026-04-26T13:39:22.636Z</time></trkpt><trkpt lat="42.2819911" lon="13.2401588"><ele>1188.0</ele><time>2026-04-26T13:39:23.635Z</time></trkpt><trkpt lat="42.2821054" lon="13.2403286"><ele>1188.0</ele><time>2026-04-26T13:39:24.636Z</time></trkpt><trkpt lat="42.282216" lon="13.2404964"><ele>1188.0</ele><time>2026-04-26T13:39:25.636Z</time></trkpt><trkpt lat="42.2823226" lon="13.2406592"><ele>1186.3333333333333</ele><time>2026-04-26T13:39:26.635Z</time></trkpt><trkpt lat="42.2824268" lon="13.2408212"><ele>1184.6666666666665</ele><time>2026-04-26T13:39:27.636Z</time></trkpt><trkpt lat="42.282527" lon="13.2409794"><ele>1183.0</ele><time>2026-04-26T13:39:28.636Z</time></trkpt><trkpt lat="42.2826232" lon="13.2411356"><ele>1183.0</ele><time>2026-04-26T13:39:29.636Z</time></trkpt><trkpt lat="42.2827195" lon="13.241288"><ele>1183.0</ele><time>2026-04-26T13:39:30.636Z</time></trkpt><trkpt lat="42.2828144" lon="13.2414299"><ele>1183.0</ele><time>2026-04-26T13:39:31.636Z</time></trkpt><trkpt lat="42.2829133" lon="13.2415475"><ele>1183.0</ele><time>2026-04-26T13:39:32.636Z</time></trkpt><trkpt lat="42.2830343" lon="13.2416339"><ele>1183.5</ele><time>2026-04-26T13:39:33.637Z</time></trkpt><trkpt lat="42.283172" lon="13.2416839"><ele>1184.0</ele><time>2026-04-26T13:39:34.637Z</time></trkpt><trkpt lat="42.2833129" lon="13.2417233"><ele>1184.5</ele><time>2026-04-26T13:39:35.636Z</time></trkpt><trkpt lat="42.2834513" lon="13.2417562"><ele>1185.0</ele><time>2026-04-26T13:39:36.636Z</time></trkpt><trkpt lat="42.2835804" lon="13.2417788"><ele>1185.0</ele><time>2026-04-26T13:39:37.636Z</time></trkpt><trkpt lat="42.2837056" lon="13.2417821"><ele>1185.0</ele><time>2026-04-26T13:39:38.636Z</time></trkpt><trkpt lat="42.2838364" lon="13.2417427"><ele>1185.0</ele><time>2026-04-26T13:39:39.637Z</time></trkpt><trkpt lat="42.283971" lon="13.2416753"><ele>1185.0</ele><time>2026-04-26T13:39:40.637Z</time></trkpt><trkpt lat="42.2841177" lon="13.2415873"><ele>1186.3333333333333</ele><time>2026-04-26T13:39:41.636Z</time></trkpt><trkpt lat="42.284272" lon="13.2414824"><ele>1187.6666666666665</ele><time>2026-04-26T13:39:42.636Z</time></trkpt><trkpt lat="42.2844271" lon="13.2413799"><ele>1189.0</ele><time>2026-04-26T13:39:43.636Z</time></trkpt><trkpt lat="42.2845782" lon="13.2412672"><ele>1189.6666666666665</ele><time>2026-04-26T13:39:44.635Z</time></trkpt><trkpt lat="42.2847175" lon="13.2411174"><ele>1190.3333333333333</ele><time>2026-04-26T13:39:45.636Z</time></trkpt><trkpt lat="42.2848507" lon="13.2409407"><ele>1191.0</ele><time>2026-04-26T13:39:46.636Z</time></trkpt><trkpt lat="42.2849814" lon="13.2407614"><ele>1199.3333333333333</ele><time>2026-04-26T13:39:47.637Z</time></trkpt><trkpt lat="42.2851225" lon="13.2406048"><ele>1207.6666666666665</ele><time>2026-04-26T13:39:48.635Z</time></trkpt><trkpt lat="42.2852734" lon="13.2404732"><ele>1216.0</ele><time>2026-04-26T13:39:49.635Z</time></trkpt><trkpt lat="42.2854366" lon="13.240366"><ele>1213.3333333333333</ele><time>2026-04-26T13:39:50.635Z</time></trkpt><trkpt lat="42.2856047" lon="13.2402624"><ele>1210.6666666666667</ele><time>2026-04-26T13:39:51.636Z</time></trkpt><trkpt lat="42.2857718" lon="13.2401492"><ele>1208.0</ele><time>2026-04-26T13:39:52.635Z</time></trkpt><trkpt lat="42.2859414" lon="13.240037"><ele>1208.0</ele><time>2026-04-26T13:39:53.636Z</time></trkpt><trkpt lat="42.2861127" lon="13.2399447"><ele>1208.0</ele><time>2026-04-26T13:39:54.636Z</time></trkpt><trkpt lat="42.2862707" lon="13.239866"><ele>1208.0</ele><time>2026-04-26T13:39:55.636Z</time></trkpt><trkpt lat="42.2864159" lon="13.2397768"><ele>1213.25</ele><time>2026-04-26T13:39:56.636Z</time></trkpt><trkpt lat="42.2865514" lon="13.239698"><ele>1218.5</ele><time>2026-04-26T13:39:57.635Z</time></trkpt><trkpt lat="42.2866841" lon="13.2396523"><ele>1223.75</ele><time>2026-04-26T13:39:58.636Z</time></trkpt><trkpt lat="42.2868138" lon="13.239646"><ele>1229.0</ele><time>2026-04-26T13:39:59.636Z</time></trkpt><trkpt lat="42.2869418" lon="13.2396726"><ele>1229.0</ele><time>2026-04-26T13:40:00.635Z</time></trkpt><trkpt lat="42.2870767" lon="13.239669"><ele>1229.0</ele><time>2026-04-26T13:40:01.635Z</time></trkpt><trkpt lat="42.2872135" lon="13.2396417"><ele>1229.0</ele><time>2026-04-26T13:40:02.635Z</time></trkpt><trkpt lat="42.2873467" lon="13.2396325"><ele>1229.0</ele><time>2026-04-26T13:40:03.636Z</time></trkpt><trkpt lat="42.2874737" lon="13.2396575"><ele>1228.0</ele><time>2026-04-26T13:40:04.635Z</time></trkpt><trkpt lat="42.2875829" lon="13.2397173"><ele>1227.0</ele><time>2026-04-26T13:40:05.635Z</time></trkpt><trkpt lat="42.2876755" lon="13.2398074"><ele>1226.0</ele><time>2026-04-26T13:40:06.635Z</time></trkpt><trkpt lat="42.287767" lon="13.2398711"><ele>1225.0</ele><time>2026-04-26T13:40:07.637Z</time></trkpt><trkpt lat="42.2878799" lon="13.2398816"><ele>1224.0</ele><time>2026-04-26T13:40:08.637Z</time></trkpt><trkpt lat="42.2880038" lon="13.2398558"><ele>1226.0</ele><time>2026-04-26T13:40:09.636Z</time></trkpt><trkpt lat="42.2881465" lon="13.2397582"><ele>1228.0</ele><time>2026-04-26T13:40:10.637Z</time></trkpt><trkpt lat="42.2882981" lon="13.2396665"><ele>1230.0</ele><time>2026-04-26T13:40:11.637Z</time></trkpt><trkpt lat="42.2884664" lon="13.2395856"><ele>1230.0</ele><time>2026-04-26T13:40:12.637Z</time></trkpt><trkpt lat="42.2886395" lon="13.2395159"><ele>1230.0</ele><time>2026-04-26T13:40:13.636Z</time></trkpt><trkpt lat="42.2888031" lon="13.2394502"><ele>1230.0</ele><time>2026-04-26T13:40:14.637Z</time></trkpt><trkpt lat="42.288958" lon="13.2393769"><ele>1229.3333333333333</ele><time>2026-04-26T13:40:15.636Z</time></trkpt><trkpt lat="42.2891156" lon="13.2393309"><ele>1228.6666666666665</ele><time>2026-04-26T13:40:16.637Z</time></trkpt><trkpt lat="42.289274" lon="13.2393174"><ele>1228.0</ele><time>2026-04-26T13:40:17.636Z</time></trkpt><trkpt lat="42.289428" lon="13.2393277"><ele>1228.0</ele><time>2026-04-26T13:40:18.636Z</time></trkpt><trkpt lat="42.2895732" lon="13.2393442"><ele>1228.0</ele><time>2026-04-26T13:40:19.636Z</time></trkpt><trkpt lat="42.2897205" lon="13.2393177"><ele>1228.0</ele><time>2026-04-26T13:40:20.637Z</time></trkpt><trkpt lat="42.289865" lon="13.2392518"><ele>1228.0</ele><time>2026-04-26T13:40:21.636Z</time></trkpt><trkpt lat="42.2900073" lon="13.239193"><ele>1229.0</ele><time>2026-04-26T13:40:22.636Z</time></trkpt><trkpt lat="42.2901536" lon="13.2391785"><ele>1230.0</ele><time>2026-04-26T13:40:23.635Z</time></trkpt><trkpt lat="42.2903046" lon="13.2392121"><ele>1231.0</ele><time>2026-04-26T13:40:24.637Z</time></trkpt><trkpt lat="42.2904398" lon="13.2392659"><ele>1232.0</ele><time>2026-04-26T13:40:25.635Z</time></trkpt><trkpt lat="42.2905778" lon="13.2392925"><ele>1232.3333333333335</ele><time>2026-04-26T13:40:26.636Z</time></trkpt><trkpt lat="42.2907246" lon="13.2392756"><ele>1232.6666666666667</ele><time>2026-04-26T13:40:27.636Z</time></trkpt><trkpt lat="42.290872" lon="13.2392101"><ele>1233.0</ele><time>2026-04-26T13:40:28.636Z</time></trkpt><trkpt lat="42.2910247" lon="13.2391164"><ele>1233.0</ele><time>2026-04-26T13:40:29.636Z</time></trkpt><trkpt lat="42.2911878" lon="13.2390359"><ele>1233.0</ele><time>2026-04-26T13:40:30.635Z</time></trkpt><trkpt lat="42.2913659" lon="13.2389795"><ele>1233.0</ele><time>2026-04-26T13:40:31.635Z</time></trkpt><trkpt lat="42.2915516" lon="13.2389504"><ele>1243.3333333333333</ele><time>2026-04-26T13:40:32.635Z</time></trkpt><trkpt lat="42.2917483" lon="13.2389044"><ele>1253.6666666666665</ele><time>2026-04-26T13:40:33.636Z</time></trkpt><trkpt lat="42.291938" lon="13.2388298"><ele>1264.0</ele><time>2026-04-26T13:40:34.636Z</time></trkpt><trkpt lat="42.2921286" lon="13.2387551"><ele>1262.3333333333333</ele><time>2026-04-26T13:40:35.635Z</time></trkpt><trkpt lat="42.2923235" lon="13.2387132"><ele>1260.6666666666667</ele><time>2026-04-26T13:40:36.635Z</time></trkpt><trkpt lat="42.2925064" lon="13.238692"><ele>1259.0</ele><time>2026-04-26T13:40:37.636Z</time></trkpt><trkpt lat="42.292678" lon="13.2386738"><ele>1259.0</ele><time>2026-04-26T13:40:38.635Z</time></trkpt><trkpt lat="42.2928422" lon="13.2386241"><ele>1259.0</ele><time>2026-04-26T13:40:39.635Z</time></trkpt><trkpt lat="42.2930071" lon="13.2385361"><ele>1259.0</ele><time>2026-04-26T13:40:40.636Z</time></trkpt><trkpt lat="42.2931729" lon="13.2384215"><ele>1255.3333333333335</ele><time>2026-04-26T13:40:41.636Z</time></trkpt><trkpt lat="42.2933357" lon="13.2383066"><ele>1251.6666666666667</ele><time>2026-04-26T13:40:42.636Z</time></trkpt><trkpt lat="42.293501" lon="13.2382045"><ele>1248.0</ele><time>2026-04-26T13:40:43.636Z</time></trkpt><trkpt lat="42.2936579" lon="13.2381139"><ele>1253.0</ele><time>2026-04-26T13:40:44.635Z</time></trkpt><trkpt lat="42.2938064" lon="13.2380305"><ele>1258.0</ele><time>2026-04-26T13:40:45.636Z</time></trkpt><trkpt lat="42.2939444" lon="13.2379576"><ele>1263.0</ele><time>2026-04-26T13:40:46.636Z</time></trkpt><trkpt lat="42.2940721" lon="13.2378873"><ele>1268.0</ele><time>2026-04-26T13:40:47.635Z</time></trkpt><trkpt lat="42.2941948" lon="13.2378185"><ele>1268.0</ele><time>2026-04-26T13:40:48.635Z</time></trkpt><trkpt lat="42.2943201" lon="13.2377368"><ele>1268.0</ele><time>2026-04-26T13:40:49.635Z</time></trkpt><trkpt lat="42.2944424" lon="13.237647"><ele>1268.0</ele><time>2026-04-26T13:40:50.635Z</time></trkpt><trkpt lat="42.2945582" lon="13.237568"><ele>1268.0</ele><time>2026-04-26T13:40:51.635Z</time></trkpt><trkpt lat="42.2946694" lon="13.2375118"><ele>1265.75</ele><time>2026-04-26T13:40:52.635Z</time></trkpt><trkpt lat="42.2947834" lon="13.2374772"><ele>1263.5</ele><time>2026-04-26T13:40:53.635Z</time></trkpt><trkpt lat="42.2949076" lon="13.2374475"><ele>1261.25</ele><time>2026-04-26T13:40:54.634Z</time></trkpt><trkpt lat="42.2950448" lon="13.2374185"><ele>1259.0</ele><time>2026-04-26T13:40:55.634Z</time></trkpt><trkpt lat="42.2951952" lon="13.2373826"><ele>1259.0</ele><time>2026-04-26T13:40:56.635Z</time></trkpt><trkpt lat="42.2953519" lon="13.2373433"><ele>1259.0</ele><time>2026-04-26T13:40:57.635Z</time></trkpt><trkpt lat="42.2955164" lon="13.2373047"><ele>1259.0</ele><time>2026-04-26T13:40:58.636Z</time></trkpt><trkpt lat="42.295678" lon="13.2372673"><ele>1271.0</ele><time>2026-04-26T13:40:59.634Z</time></trkpt><trkpt lat="42.2958391" lon="13.2372317"><ele>1283.0</ele><time>2026-04-26T13:41:00.635Z</time></trkpt><trkpt lat="42.2960049" lon="13.2372018"><ele>1295.0</ele><time>2026-04-26T13:41:01.635Z</time></trkpt><trkpt lat="42.2961725" lon="13.2371715"><ele>1295.0</ele><time>2026-04-26T13:41:02.634Z</time></trkpt><trkpt lat="42.2963389" lon="13.2371505"><ele>1295.0</ele><time>2026-04-26T13:41:03.635Z</time></trkpt><trkpt lat="42.2965037" lon="13.2371321"><ele>1295.0</ele><time>2026-04-26T13:41:04.635Z</time></trkpt><trkpt lat="42.2966751" lon="13.2371326"><ele>1292.3333333333335</ele><time>2026-04-26T13:41:05.635Z</time></trkpt><trkpt lat="42.296852" lon="13.2371545"><ele>1289.6666666666667</ele><time>2026-04-26T13:41:06.635Z</time></trkpt><trkpt lat="42.2970272" lon="13.2371883"><ele>1287.0</ele><time>2026-04-26T13:41:07.635Z</time></trkpt><trkpt lat="42.2972007" lon="13.2372201"><ele>1289.3333333333333</ele><time>2026-04-26T13:41:08.635Z</time></trkpt><trkpt lat="42.2973707" lon="13.2372471"><ele>1291.6666666666665</ele><time>2026-04-26T13:41:09.634Z</time></trkpt><trkpt lat="42.2975447" lon="13.2372822"><ele>1294.0</ele><time>2026-04-26T13:41:10.635Z</time></trkpt><trkpt lat="42.2977073" lon="13.2373329"><ele>1289.75</ele><time>2026-04-26T13:41:11.636Z</time></trkpt><trkpt lat="42.2978581" lon="13.2373954"><ele>1285.5</ele><time>2026-04-26T13:41:12.636Z</time></trkpt><trkpt lat="42.298" lon="13.2374567"><ele>1281.25</ele><time>2026-04-26T13:41:13.635Z</time></trkpt><trkpt lat="42.2981302" lon="13.2375221"><ele>1277.0</ele><time>2026-04-26T13:41:14.634Z</time></trkpt><trkpt lat="42.2982489" lon="13.2376067"><ele>1277.0</ele><time>2026-04-26T13:41:15.635Z</time></trkpt><trkpt lat="42.2983505" lon="13.237711"><ele>1277.0</ele><time>2026-04-26T13:41:16.635Z</time></trkpt><trkpt lat="42.2984458" lon="13.2378189"><ele>1277.0</ele><time>2026-04-26T13:41:17.636Z</time></trkpt><trkpt lat="42.2985406" lon="13.237904"><ele>1277.0</ele><time>2026-04-26T13:41:18.636Z</time></trkpt><trkpt lat="42.2986395" lon="13.2379682"><ele>1277.0</ele><time>2026-04-26T13:41:19.635Z</time></trkpt><trkpt lat="42.2987378" lon="13.2380036"><ele>1277.0</ele><time>2026-04-26T13:41:20.636Z</time></trkpt><trkpt lat="42.2988372" lon="13.2379965"><ele>1277.0</ele><time>2026-04-26T13:41:21.635Z</time></trkpt><trkpt lat="42.2989444" lon="13.2379622"><ele>1277.0</ele><time>2026-04-26T13:41:22.635Z</time></trkpt><trkpt lat="42.2990568" lon="13.237912"><ele>1277.0</ele><time>2026-04-26T13:41:23.635Z</time></trkpt><trkpt lat="42.299176" lon="13.2378617"><ele>1276.75</ele><time>2026-04-26T13:41:24.635Z</time></trkpt><trkpt lat="42.2993103" lon="13.2378219"><ele>1276.5</ele><time>2026-04-26T13:41:25.636Z</time></trkpt><trkpt lat="42.2994561" lon="13.2378031"><ele>1276.25</ele><time>2026-04-26T13:41:26.636Z</time></trkpt><trkpt lat="42.2996059" lon="13.2378133"><ele>1276.0</ele><time>2026-04-26T13:41:27.636Z</time></trkpt><trkpt lat="42.2997507" lon="13.2378669"><ele>1276.0</ele><time>2026-04-26T13:41:28.636Z</time></trkpt><trkpt lat="42.2999026" lon="13.2379356"><ele>1276.0</ele><time>2026-04-26T13:41:29.636Z</time></trkpt><trkpt lat="42.3000639" lon="13.2379692"><ele>1276.0</ele><time>2026-04-26T13:41:30.636Z</time></trkpt><trkpt lat="42.3002355" lon="13.2379705"><ele>1276.0</ele><time>2026-04-26T13:41:31.635Z</time></trkpt><trkpt lat="42.3003975" lon="13.2379238"><ele>1276.0</ele><time>2026-04-26T13:41:32.635Z</time></trkpt><trkpt lat="42.3005521" lon="13.2378484"><ele>1276.0</ele><time>2026-04-26T13:41:33.635Z</time></trkpt><trkpt lat="42.3007088" lon="13.2377702"><ele>1276.3333333333333</ele><time>2026-04-26T13:41:34.635Z</time></trkpt><trkpt lat="42.3008752" lon="13.2377299"><ele>1276.6666666666667</ele><time>2026-04-26T13:41:35.636Z</time></trkpt><trkpt lat="42.301047" lon="13.2377125"><ele>1277.0</ele><time>2026-04-26T13:41:36.636Z</time></trkpt><trkpt lat="42.3012299" lon="13.237716"><ele>1275.3333333333335</ele><time>2026-04-26T13:41:37.634Z</time></trkpt><trkpt lat="42.3014212" lon="13.2377218"><ele>1273.6666666666667</ele><time>2026-04-26T13:41:38.635Z</time></trkpt><trkpt lat="42.3016118" lon="13.2377281"><ele>1272.0</ele><time>2026-04-26T13:41:39.634Z</time></trkpt><trkpt lat="42.3018029" lon="13.2377289"><ele>1272.0</ele><time>2026-04-26T13:41:40.634Z</time></trkpt><trkpt lat="42.3019932" lon="13.2377153"><ele>1272.0</ele><time>2026-04-26T13:41:41.634Z</time></trkpt><trkpt lat="42.3021758" lon="13.2376871"><ele>1272.0</ele><time>2026-04-26T13:41:42.635Z</time></trkpt><trkpt lat="42.3023496" lon="13.2376702"><ele>1272.3333333333333</ele><time>2026-04-26T13:41:43.635Z</time></trkpt><trkpt lat="42.3025245" lon="13.2376828"><ele>1272.6666666666665</ele><time>2026-04-26T13:41:44.635Z</time></trkpt><trkpt lat="42.3027024" lon="13.237723"><ele>1273.0</ele><time>2026-04-26T13:41:45.635Z</time></trkpt><trkpt lat="42.3028792" lon="13.2377833"><ele>1273.0</ele><time>2026-04-26T13:41:46.634Z</time></trkpt><trkpt lat="42.3030498" lon="13.2378452"><ele>1273.0</ele><time>2026-04-26T13:41:47.634Z</time></trkpt><trkpt lat="42.30321" lon="13.2379047"><ele>1273.0</ele><time>2026-04-26T13:41:48.634Z</time></trkpt><trkpt lat="42.3033553" lon="13.2379758"><ele>1273.25</ele><time>2026-04-26T13:41:49.635Z</time></trkpt><trkpt lat="42.3034817" lon="13.2380675"><ele>1273.5</ele><time>2026-04-26T13:41:50.636Z</time></trkpt><trkpt lat="42.3035939" lon="13.2381926"><ele>1273.75</ele><time>2026-04-26T13:41:51.636Z</time></trkpt><trkpt lat="42.3036765" lon="13.2383406"><ele>1274.0</ele><time>2026-04-26T13:41:52.635Z</time></trkpt><trkpt lat="42.3037607" lon="13.2384928"><ele>1275.0</ele><time>2026-04-26T13:41:53.634Z</time></trkpt><trkpt lat="42.3038703" lon="13.2386178"><ele>1276.0</ele><time>2026-04-26T13:41:54.635Z</time></trkpt><trkpt lat="42.3040015" lon="13.2387126"><ele>1277.0</ele><time>2026-04-26T13:41:55.635Z</time></trkpt><trkpt lat="42.3041581" lon="13.2387728"><ele>1277.0</ele><time>2026-04-26T13:41:56.634Z</time></trkpt><trkpt lat="42.3043255" lon="13.2388141"><ele>1277.0</ele><time>2026-04-26T13:41:57.634Z</time></trkpt><trkpt lat="42.3044952" lon="13.2388579"><ele>1277.0</ele><time>2026-04-26T13:41:58.634Z</time></trkpt><trkpt lat="42.3046631" lon="13.2389111"><ele>1276.3333333333335</ele><time>2026-04-26T13:41:59.634Z</time></trkpt><trkpt lat="42.3048194" lon="13.238969"><ele>1275.6666666666667</ele><time>2026-04-26T13:42:00.634Z</time></trkpt><trkpt lat="42.3049801" lon="13.2390128"><ele>1275.0</ele><time>2026-04-26T13:42:01.634Z</time></trkpt><trkpt lat="42.3051497" lon="13.2390318"><ele>1275.0</ele><time>2026-04-26T13:42:02.635Z</time></trkpt><trkpt lat="42.305326" lon="13.2390345"><ele>1275.0</ele><time>2026-04-26T13:42:03.635Z</time></trkpt><trkpt lat="42.3055054" lon="13.2390225"><ele>1275.0</ele><time>2026-04-26T13:42:04.635Z</time></trkpt><trkpt lat="42.30569" lon="13.238984"><ele>1280.6666666666667</ele><time>2026-04-26T13:42:05.635Z</time></trkpt><trkpt lat="42.3058816" lon="13.2389118"><ele>1286.3333333333335</ele><time>2026-04-26T13:42:06.634Z</time></trkpt><trkpt lat="42.306078" lon="13.2388364"><ele>1292.0</ele><time>2026-04-26T13:42:07.636Z</time></trkpt><trkpt lat="42.3062757" lon="13.2387606"><ele>1290.6666666666667</ele><time>2026-04-26T13:42:08.636Z</time></trkpt><trkpt lat="42.3064708" lon="13.2386807"><ele>1289.3333333333333</ele><time>2026-04-26T13:42:09.636Z</time></trkpt><trkpt lat="42.3066578" lon="13.2385954"><ele>1288.0</ele><time>2026-04-26T13:42:10.635Z</time></trkpt><trkpt lat="42.3068383" lon="13.238516"><ele>1288.0</ele><time>2026-04-26T13:42:11.636Z</time></trkpt><trkpt lat="42.307013" lon="13.2384462"><ele>1288.0</ele><time>2026-04-26T13:42:12.636Z</time></trkpt><trkpt lat="42.3071782" lon="13.2383809"><ele>1288.0</ele><time>2026-04-26T13:42:13.636Z</time></trkpt><trkpt lat="42.3073317" lon="13.2383032"><ele>1288.0</ele><time>2026-04-26T13:42:14.635Z</time></trkpt><trkpt lat="42.3074571" lon="13.2381954"><ele>1288.0</ele><time>2026-04-26T13:42:15.636Z</time></trkpt><trkpt lat="42.3075611" lon="13.2380707"><ele>1288.0</ele><time>2026-04-26T13:42:16.636Z</time></trkpt><trkpt lat="42.3076643" lon="13.2379594"><ele>1288.0</ele><time>2026-04-26T13:42:17.635Z</time></trkpt><trkpt lat="42.3077643" lon="13.2378894"><ele>1289.0</ele><time>2026-04-26T13:42:18.635Z</time></trkpt><trkpt lat="42.3078788" lon="13.2378541"><ele>1290.0</ele><time>2026-04-26T13:42:19.635Z</time></trkpt><trkpt lat="42.3079935" lon="13.2378548"><ele>1291.0</ele><time>2026-04-26T13:42:20.636Z</time></trkpt><trkpt lat="42.3080925" lon="13.2378779"><ele>1292.0</ele><time>2026-04-26T13:42:21.636Z</time></trkpt><trkpt lat="42.3081758" lon="13.2379231"><ele>1293.0</ele><time>2026-04-26T13:42:22.636Z</time></trkpt><trkpt lat="42.3082406" lon="13.2379987"><ele>1292.6000000000001</ele><time>2026-04-26T13:42:23.636Z</time></trkpt><trkpt lat="42.3082866" lon="13.2381001"><ele>1292.2</ele><time>2026-04-26T13:42:24.636Z</time></trkpt><trkpt lat="42.3083106" lon="13.2382219"><ele>1291.8</ele><time>2026-04-26T13:42:25.636Z</time></trkpt><trkpt lat="42.3083145" lon="13.238354"><ele>1291.4</ele><time>2026-04-26T13:42:26.635Z</time></trkpt><trkpt lat="42.3083063" lon="13.2384783"><ele>1291.0</ele><time>2026-04-26T13:42:27.636Z</time></trkpt><trkpt lat="42.3082807" lon="13.2385843"><ele>1291.0</ele><time>2026-04-26T13:42:28.636Z</time></trkpt><trkpt lat="42.3082288" lon="13.2386837"><ele>1291.0</ele><time>2026-04-26T13:42:29.635Z</time></trkpt><trkpt lat="42.3081528" lon="13.238771"><ele>1291.0</ele><time>2026-04-26T13:42:30.636Z</time></trkpt><trkpt lat="42.3080478" lon="13.2388429"><ele>1291.0</ele><time>2026-04-26T13:42:31.635Z</time></trkpt><trkpt lat="42.3079248" lon="13.2389114"><ele>1291.0</ele><time>2026-04-26T13:42:32.636Z</time></trkpt><trkpt lat="42.3077902" lon="13.2389958"><ele>1291.6666666666665</ele><time>2026-04-26T13:42:33.636Z</time></trkpt><trkpt lat="42.307651" lon="13.2391121"><ele>1292.3333333333333</ele><time>2026-04-26T13:42:34.635Z</time></trkpt><trkpt lat="42.3075056" lon="13.2392458"><ele>1293.0</ele><time>2026-04-26T13:42:35.635Z</time></trkpt><trkpt lat="42.3073546" lon="13.2393831"><ele>1291.0</ele><time>2026-04-26T13:42:36.636Z</time></trkpt><trkpt lat="42.3072064" lon="13.2395131"><ele>1289.0</ele><time>2026-04-26T13:42:37.635Z</time></trkpt><trkpt lat="42.3070699" lon="13.2396261"><ele>1287.0</ele><time>2026-04-26T13:42:38.636Z</time></trkpt><trkpt lat="42.3069549" lon="13.2397275"><ele>1289.0</ele><time>2026-04-26T13:42:39.635Z</time></trkpt><trkpt lat="42.3068615" lon="13.2398284"><ele>1291.0</ele><time>2026-04-26T13:42:40.635Z</time></trkpt><trkpt lat="42.3068075" lon="13.2399514"><ele>1293.0</ele><time>2026-04-26T13:42:41.636Z</time></trkpt><trkpt lat="42.3067909" lon="13.2401007"><ele>1295.0</ele><time>2026-04-26T13:42:42.636Z</time></trkpt><trkpt lat="42.3068087" lon="13.2402486"><ele>1297.0</ele><time>2026-04-26T13:42:43.635Z</time></trkpt><trkpt lat="42.3068262" lon="13.2403836"><ele>1297.0</ele><time>2026-04-26T13:42:44.635Z</time></trkpt><trkpt lat="42.3068105" lon="13.240485"><ele>1297.0</ele><time>2026-04-26T13:42:45.635Z</time></trkpt><trkpt lat="42.3067591" lon="13.2405647"><ele>1297.0</ele><time>2026-04-26T13:42:46.635Z</time></trkpt><trkpt lat="42.3066732" lon="13.2406177"><ele>1297.0</ele><time>2026-04-26T13:42:47.636Z</time></trkpt><trkpt lat="42.306563" lon="13.2406266"><ele>1297.0</ele><time>2026-04-26T13:42:48.635Z</time></trkpt><trkpt lat="42.3064221" lon="13.240618"><ele>1294.6666666666665</ele><time>2026-04-26T13:42:49.636Z</time></trkpt><trkpt lat="42.3062654" lon="13.2406248"><ele>1292.3333333333333</ele><time>2026-04-26T13:42:50.635Z</time></trkpt><trkpt lat="42.3061127" lon="13.2406399"><ele>1290.0</ele><time>2026-04-26T13:42:51.636Z</time></trkpt><trkpt lat="42.3059704" lon="13.2406634"><ele>1291.0</ele><time>2026-04-26T13:42:52.636Z</time></trkpt><trkpt lat="42.3058315" lon="13.2407311"><ele>1292.0</ele><time>2026-04-26T13:42:53.636Z</time></trkpt><trkpt lat="42.3057102" lon="13.2408172"><ele>1293.0</ele><time>2026-04-26T13:42:54.636Z</time></trkpt><trkpt lat="42.3056016" lon="13.2409196"><ele>1294.0</ele><time>2026-04-26T13:42:55.634Z</time></trkpt><trkpt lat="42.3055193" lon="13.2410479"><ele>1294.0</ele><time>2026-04-26T13:42:56.634Z</time></trkpt><trkpt lat="42.3054628" lon="13.2412136"><ele>1294.0</ele><time>2026-04-26T13:42:57.635Z</time></trkpt><trkpt lat="42.3054277" lon="13.2414093"><ele>1294.0</ele><time>2026-04-26T13:42:58.634Z</time></trkpt><trkpt lat="42.305426" lon="13.2416011"><ele>1294.0</ele><time>2026-04-26T13:42:59.634Z</time></trkpt><trkpt lat="42.3054625" lon="13.2417885"><ele>1294.5</ele><time>2026-04-26T13:43:00.635Z</time></trkpt><trkpt lat="42.3055215" lon="13.2419747"><ele>1295.0</ele><time>2026-04-26T13:43:01.633Z</time></trkpt><trkpt lat="42.305562" lon="13.2421699"><ele>1295.5</ele><time>2026-04-26T13:43:02.634Z</time></trkpt><trkpt lat="42.3055753" lon="13.2423624"><ele>1296.0</ele><time>2026-04-26T13:43:03.635Z</time></trkpt><trkpt lat="42.3055599" lon="13.2425441"><ele>1296.0</ele><time>2026-04-26T13:43:04.635Z</time></trkpt><trkpt lat="42.3055125" lon="13.2427088"><ele>1296.0</ele><time>2026-04-26T13:43:05.635Z</time></trkpt><trkpt lat="42.3054882" lon="13.2428853"><ele>1296.0</ele><time>2026-04-26T13:43:06.634Z</time></trkpt><trkpt lat="42.3054991" lon="13.2430603"><ele>1296.0</ele><time>2026-04-26T13:43:07.634Z</time></trkpt><trkpt lat="42.3054937" lon="13.2432337"><ele>1300.5</ele><time>2026-04-26T13:43:08.635Z</time></trkpt><trkpt lat="42.3054528" lon="13.2433962"><ele>1305.0</ele><time>2026-04-26T13:43:09.635Z</time></trkpt><trkpt lat="42.305385" lon="13.2435294"><ele>1309.5</ele><time>2026-04-26T13:43:10.634Z</time></trkpt><trkpt lat="42.3052884" lon="13.2436331"><ele>1314.0</ele><time>2026-04-26T13:43:11.635Z</time></trkpt><trkpt lat="42.3051747" lon="13.2437"><ele>1314.0</ele><time>2026-04-26T13:43:12.635Z</time></trkpt><trkpt lat="42.3050573" lon="13.2437187"><ele>1314.0</ele><time>2026-04-26T13:43:13.633Z</time></trkpt><trkpt lat="42.3049516" lon="13.2437321"><ele>1314.0</ele><time>2026-04-26T13:43:14.634Z</time></trkpt><trkpt lat="42.3048631" lon="13.2437716"><ele>1314.0</ele><time>2026-04-26T13:43:15.634Z</time></trkpt><trkpt lat="42.3047778" lon="13.2438092"><ele>1314.0</ele><time>2026-04-26T13:43:16.633Z</time></trkpt><trkpt lat="42.3047729" lon="13.2439663"><ele>1312.8000000000002</ele><time>2026-04-26T13:43:17.634Z</time></trkpt><trkpt lat="42.3047697" lon="13.2441036"><ele>1311.6000000000001</ele><time>2026-04-26T13:43:18.633Z</time></trkpt><trkpt lat="42.3047926" lon="13.2442513"><ele>1310.4</ele><time>2026-04-26T13:43:19.634Z</time></trkpt><trkpt lat="42.3047916" lon="13.24441"><ele>1309.2</ele><time>2026-04-26T13:43:20.634Z</time></trkpt><trkpt lat="42.3047559" lon="13.244562"><ele>1308.0</ele><time>2026-04-26T13:43:21.634Z</time></trkpt><trkpt lat="42.3046949" lon="13.2446928"><ele>1313.25</ele><time>2026-04-26T13:43:22.634Z</time></trkpt><trkpt lat="42.3046062" lon="13.244798"><ele>1318.5</ele><time>2026-04-26T13:43:23.634Z</time></trkpt><trkpt lat="42.3044925" lon="13.2448612"><ele>1323.75</ele><time>2026-04-26T13:43:24.633Z</time></trkpt><trkpt lat="42.304365" lon="13.2449108"><ele>1329.0</ele><time>2026-04-26T13:43:25.634Z</time></trkpt><trkpt lat="42.3042405" lon="13.2450077"><ele>1329.0</ele><time>2026-04-26T13:43:26.634Z</time></trkpt><trkpt lat="42.3041186" lon="13.245154"><ele>1329.0</ele><time>2026-04-26T13:43:27.635Z</time></trkpt><trkpt lat="42.3040201" lon="13.2453186"><ele>1329.0</ele><time>2026-04-26T13:43:28.635Z</time></trkpt><trkpt lat="42.3039499" lon="13.245512"><ele>1326.25</ele><time>2026-04-26T13:43:29.633Z</time></trkpt><trkpt lat="42.3039091" lon="13.2457181"><ele>1323.5</ele><time>2026-04-26T13:43:30.633Z</time></trkpt><trkpt lat="42.30388" lon="13.245909"><ele>1320.75</ele><time>2026-04-26T13:43:31.634Z</time></trkpt><trkpt lat="42.3038382" lon="13.2460944"><ele>1318.0</ele><time>2026-04-26T13:43:32.634Z</time></trkpt><trkpt lat="42.3037567" lon="13.2462593"><ele>1318.0</ele><time>2026-04-26T13:43:33.635Z</time></trkpt><trkpt lat="42.3036507" lon="13.2464059"><ele>1318.0</ele><time>2026-04-26T13:43:34.634Z</time></trkpt><trkpt lat="42.3035338" lon="13.2465703"><ele>1318.0</ele><time>2026-04-26T13:43:35.634Z</time></trkpt><trkpt lat="42.3034167" lon="13.246756"><ele>1320.3333333333333</ele><time>2026-04-26T13:43:36.634Z</time></trkpt><trkpt lat="42.3032872" lon="13.2469383"><ele>1322.6666666666667</ele><time>2026-04-26T13:43:37.635Z</time></trkpt><trkpt lat="42.3031431" lon="13.2471133"><ele>1325.0</ele><time>2026-04-26T13:43:38.635Z</time></trkpt><trkpt lat="42.3029958" lon="13.2472788"><ele>1330.3333333333335</ele><time>2026-04-26T13:43:39.635Z</time></trkpt><trkpt lat="42.3028533" lon="13.2474282"><ele>1335.6666666666667</ele><time>2026-04-26T13:43:40.634Z</time></trkpt><trkpt lat="42.3027173" lon="13.2475693"><ele>1341.0</ele><time>2026-04-26T13:43:41.635Z</time></trkpt><trkpt lat="42.3025881" lon="13.2476978"><ele>1341.0</ele><time>2026-04-26T13:43:42.635Z</time></trkpt><trkpt lat="42.3024719" lon="13.2478178"><ele>1341.0</ele><time>2026-04-26T13:43:43.635Z</time></trkpt><trkpt lat="42.3023636" lon="13.2479265"><ele>1341.0</ele><time>2026-04-26T13:43:44.635Z</time></trkpt><trkpt lat="42.3022586" lon="13.2480282"><ele>1341.0</ele><time>2026-04-26T13:43:45.634Z</time></trkpt><trkpt lat="42.3021593" lon="13.2481238"><ele>1343.0</ele><time>2026-04-26T13:43:46.634Z</time></trkpt><trkpt lat="42.3020593" lon="13.2482218"><ele>1345.0</ele><time>2026-04-26T13:43:47.634Z</time></trkpt><trkpt lat="42.3019651" lon="13.2483123"><ele>1347.0</ele><time>2026-04-26T13:43:48.634Z</time></trkpt><trkpt lat="42.3018835" lon="13.2484012"><ele>1349.0</ele><time>2026-04-26T13:43:49.635Z</time></trkpt><trkpt lat="42.3018141" lon="13.2484781"><ele>1351.0</ele><time>2026-04-26T13:43:50.635Z</time></trkpt><trkpt lat="42.3017505" lon="13.2485357"><ele>1351.0</ele><time>2026-04-26T13:43:51.635Z</time></trkpt><trkpt lat="42.3016988" lon="13.2485856"><ele>1351.0</ele><time>2026-04-26T13:43:52.635Z</time></trkpt><trkpt lat="42.3016372" lon="13.2486774"><ele>1351.0</ele><time>2026-04-26T13:43:54.634Z</time></trkpt><trkpt lat="42.301568" lon="13.2487142"><ele>1351.0</ele><time>2026-04-26T13:43:57.634Z</time></trkpt><trkpt lat="42.3015009" lon="13.2486642"><ele>1351.0</ele><time>2026-04-26T13:44:00.634Z</time></trkpt><trkpt lat="42.3014217" lon="13.2486704"><ele>1351.0</ele><time>2026-04-26T13:44:02.634Z</time></trkpt><trkpt lat="42.3013976" lon="13.2485848"><ele>1351.0</ele><time>2026-04-26T13:44:06.635Z</time></trkpt><trkpt lat="42.3014666" lon="13.2485811"><ele>1351.0</ele><time>2026-04-26T13:44:18.634Z</time></trkpt><trkpt lat="42.3015152" lon="13.2486555"><ele>1351.0</ele><time>2026-04-26T13:44:21.633Z</time></trkpt><trkpt lat="42.301516" lon="13.2487441"><ele>1351.0</ele><time>2026-04-26T13:45:23.635Z</time></trkpt><trkpt lat="42.3015294" lon="13.2488455"><ele>1351.0</ele><time>2026-04-26T13:45:25.634Z</time></trkpt><trkpt lat="42.3015281" lon="13.2490266"><ele>1351.0</ele><time>2026-04-26T13:45:27.634Z</time></trkpt><trkpt lat="42.3015112" lon="13.2491456"><ele>1352.75</ele><time>2026-04-26T13:45:28.634Z</time></trkpt><trkpt lat="42.3014897" lon="13.2492864"><ele>1354.5</ele><time>2026-04-26T13:45:29.635Z</time></trkpt><trkpt lat="42.3014698" lon="13.2494296"><ele>1356.25</ele><time>2026-04-26T13:45:30.635Z</time></trkpt><trkpt lat="42.3014517" lon="13.2495881"><ele>1358.0</ele><time>2026-04-26T13:45:31.633Z</time></trkpt><trkpt lat="42.3014423" lon="13.2497473"><ele>1358.0</ele><time>2026-04-26T13:45:32.634Z</time></trkpt><trkpt lat="42.3014431" lon="13.2498989"><ele>1358.0</ele><time>2026-04-26T13:45:33.633Z</time></trkpt><trkpt lat="42.3014468" lon="13.2500487"><ele>1358.0</ele><time>2026-04-26T13:45:34.633Z</time></trkpt><trkpt lat="42.3014606" lon="13.2501969"><ele>1358.0</ele><time>2026-04-26T13:45:35.632Z</time></trkpt><trkpt lat="42.3014896" lon="13.2503487"><ele>1358.0</ele><time>2026-04-26T13:45:36.634Z</time></trkpt><trkpt lat="42.3015386" lon="13.2504987"><ele>1354.25</ele><time>2026-04-26T13:45:37.632Z</time></trkpt><trkpt lat="42.3015979" lon="13.2506519"><ele>1350.5</ele><time>2026-04-26T13:45:38.633Z</time></trkpt><trkpt lat="42.3016576" lon="13.2508024"><ele>1346.75</ele><time>2026-04-26T13:45:39.632Z</time></trkpt><trkpt lat="42.301719" lon="13.2509504"><ele>1343.0</ele><time>2026-04-26T13:45:40.632Z</time></trkpt><trkpt lat="42.3017761" lon="13.2510944"><ele>1343.0</ele><time>2026-04-26T13:45:41.633Z</time></trkpt><trkpt lat="42.3018353" lon="13.2512329"><ele>1343.0</ele><time>2026-04-26T13:45:42.634Z</time></trkpt><trkpt lat="42.3018985" lon="13.2513607"><ele>1343.0</ele><time>2026-04-26T13:45:43.632Z</time></trkpt><trkpt lat="42.3019693" lon="13.2514728"><ele>1343.0</ele><time>2026-04-26T13:45:44.633Z</time></trkpt><trkpt lat="42.302059" lon="13.2515824"><ele>1343.25</ele><time>2026-04-26T13:45:45.633Z</time></trkpt><trkpt lat="42.3021591" lon="13.2516945"><ele>1343.5</ele><time>2026-04-26T13:45:46.633Z</time></trkpt><trkpt lat="42.3022653" lon="13.2517783"><ele>1343.75</ele><time>2026-04-26T13:45:47.632Z</time></trkpt><trkpt lat="42.3023763" lon="13.251838"><ele>1344.0</ele><time>2026-04-26T13:45:48.632Z</time></trkpt><trkpt lat="42.3024918" lon="13.2518691"><ele>1344.0</ele><time>2026-04-26T13:45:49.633Z</time></trkpt><trkpt lat="42.302608" lon="13.2518723"><ele>1344.0</ele><time>2026-04-26T13:45:50.634Z</time></trkpt><trkpt lat="42.3027284" lon="13.2518623"><ele>1344.0</ele><time>2026-04-26T13:45:51.634Z</time></trkpt><trkpt lat="42.3028524" lon="13.2518472"><ele>1344.0</ele><time>2026-04-26T13:45:52.633Z</time></trkpt><trkpt lat="42.302978" lon="13.2518328"><ele>1345.5</ele><time>2026-04-26T13:45:53.632Z</time></trkpt><trkpt lat="42.3031063" lon="13.2518338"><ele>1347.0</ele><time>2026-04-26T13:45:54.632Z</time></trkpt><trkpt lat="42.3032309" lon="13.2518468"><ele>1348.5</ele><time>2026-04-26T13:45:55.633Z</time></trkpt><trkpt lat="42.3033533" lon="13.2518496"><ele>1350.0</ele><time>2026-04-26T13:45:56.634Z</time></trkpt><trkpt lat="42.3034705" lon="13.2518516"><ele>1350.0</ele><time>2026-04-26T13:45:57.633Z</time></trkpt><trkpt lat="42.3035946" lon="13.2518864"><ele>1350.0</ele><time>2026-04-26T13:45:58.633Z</time></trkpt><trkpt lat="42.3037125" lon="13.2519378"><ele>1350.0</ele><time>2026-04-26T13:45:59.633Z</time></trkpt><trkpt lat="42.3038199" lon="13.2520019"><ele>1350.0</ele><time>2026-04-26T13:46:00.632Z</time></trkpt><trkpt lat="42.3039138" lon="13.2520915"><ele>1347.25</ele><time>2026-04-26T13:46:01.633Z</time></trkpt><trkpt lat="42.3039991" lon="13.252198"><ele>1344.5</ele><time>2026-04-26T13:46:02.634Z</time></trkpt><trkpt lat="42.3040689" lon="13.2523268"><ele>1341.75</ele><time>2026-04-26T13:46:03.633Z</time></trkpt><trkpt lat="42.304125" lon="13.252475"><ele>1339.0</ele><time>2026-04-26T13:46:04.634Z</time></trkpt><trkpt lat="42.3041766" lon="13.2526349"><ele>1339.0</ele><time>2026-04-26T13:46:05.634Z</time></trkpt><trkpt lat="42.30423" lon="13.2528021"><ele>1339.0</ele><time>2026-04-26T13:46:06.634Z</time></trkpt><trkpt lat="42.3042829" lon="13.2529721"><ele>1339.0</ele><time>2026-04-26T13:46:07.632Z</time></trkpt><trkpt lat="42.304333" lon="13.2531458"><ele>1339.0</ele><time>2026-04-26T13:46:08.632Z</time></trkpt><trkpt lat="42.3043878" lon="13.2533273"><ele>1333.0</ele><time>2026-04-26T13:46:09.632Z</time></trkpt><trkpt lat="42.3044449" lon="13.2535117"><ele>1327.0</ele><time>2026-04-26T13:46:10.634Z</time></trkpt><trkpt lat="42.3045068" lon="13.2536987"><ele>1321.0</ele><time>2026-04-26T13:46:11.634Z</time></trkpt><trkpt lat="42.3045709" lon="13.2538779"><ele>1315.0</ele><time>2026-04-26T13:46:12.634Z</time></trkpt><trkpt lat="42.3046358" lon="13.2540482"><ele>1319.0</ele><time>2026-04-26T13:46:13.634Z</time></trkpt><trkpt lat="42.3046983" lon="13.2542143"><ele>1323.0</ele><time>2026-04-26T13:46:14.633Z</time></trkpt><trkpt lat="42.3047502" lon="13.2543636"><ele>1327.0</ele><time>2026-04-26T13:46:15.634Z</time></trkpt><trkpt lat="42.3048015" lon="13.2544855"><ele>1331.0</ele><time>2026-04-26T13:46:16.633Z</time></trkpt><trkpt lat="42.3048694" lon="13.2545695"><ele>1331.0</ele><time>2026-04-26T13:46:17.633Z</time></trkpt><trkpt lat="42.3049495" lon="13.2546049"><ele>1331.0</ele><time>2026-04-26T13:46:18.633Z</time></trkpt><trkpt lat="42.3050481" lon="13.2546058"><ele>1331.0</ele><time>2026-04-26T13:46:19.634Z</time></trkpt><trkpt lat="42.3051583" lon="13.2545763"><ele>1331.0</ele><time>2026-04-26T13:46:20.633Z</time></trkpt><trkpt lat="42.3052778" lon="13.2545296"><ele>1331.0</ele><time>2026-04-26T13:46:21.634Z</time></trkpt><trkpt lat="42.3054028" lon="13.2544716"><ele>1331.0</ele><time>2026-04-26T13:46:22.634Z</time></trkpt><trkpt lat="42.3055359" lon="13.2543985"><ele>1331.0</ele><time>2026-04-26T13:46:23.633Z</time></trkpt><trkpt lat="42.3056621" lon="13.2543094"><ele>1331.0</ele><time>2026-04-26T13:46:24.633Z</time></trkpt><trkpt lat="42.3057895" lon="13.2542225"><ele>1331.0</ele><time>2026-04-26T13:46:25.633Z</time></trkpt><trkpt lat="42.3059161" lon="13.254151"><ele>1329.0</ele><time>2026-04-26T13:46:26.633Z</time></trkpt><trkpt lat="42.3060648" lon="13.254127"><ele>1327.0</ele><time>2026-04-26T13:46:27.633Z</time></trkpt><trkpt lat="42.3062085" lon="13.2540892"><ele>1325.0</ele><time>2026-04-26T13:46:28.633Z</time></trkpt><trkpt lat="42.3063546" lon="13.2540454"><ele>1323.0</ele><time>2026-04-26T13:46:29.633Z</time></trkpt><trkpt lat="42.3064934" lon="13.2539998"><ele>1319.25</ele><time>2026-04-26T13:46:30.633Z</time></trkpt><trkpt lat="42.3066323" lon="13.2539686"><ele>1315.5</ele><time>2026-04-26T13:46:31.633Z</time></trkpt><trkpt lat="42.306777" lon="13.2539401"><ele>1311.75</ele><time>2026-04-26T13:46:32.632Z</time></trkpt><trkpt lat="42.3069272" lon="13.2539142"><ele>1308.0</ele><time>2026-04-26T13:46:33.634Z</time></trkpt><trkpt lat="42.3070697" lon="13.25387"><ele>1315.0</ele><time>2026-04-26T13:46:34.633Z</time></trkpt><trkpt lat="42.3072052" lon="13.2538196"><ele>1322.0</ele><time>2026-04-26T13:46:35.633Z</time></trkpt><trkpt lat="42.3073388" lon="13.2537743"><ele>1329.0</ele><time>2026-04-26T13:46:36.633Z</time></trkpt><trkpt lat="42.3074768" lon="13.2537494"><ele>1336.0</ele><time>2026-04-26T13:46:37.634Z</time></trkpt><trkpt lat="42.3076204" lon="13.2537422"><ele>1336.0</ele><time>2026-04-26T13:46:38.632Z</time></trkpt><trkpt lat="42.3077704" lon="13.2537532"><ele>1336.0</ele><time>2026-04-26T13:46:39.634Z</time></trkpt><trkpt lat="42.3079248" lon="13.2537681"><ele>1336.0</ele><time>2026-04-26T13:46:40.633Z</time></trkpt><trkpt lat="42.3080833" lon="13.2537794"><ele>1332.6666666666665</ele><time>2026-04-26T13:46:41.632Z</time></trkpt><trkpt lat="42.308246" lon="13.2537927"><ele>1329.3333333333333</ele><time>2026-04-26T13:46:42.634Z</time></trkpt><trkpt lat="42.3084058" lon="13.2538166"><ele>1326.0</ele><time>2026-04-26T13:46:43.632Z</time></trkpt><trkpt lat="42.3085621" lon="13.2538641"><ele>1326.0</ele><time>2026-04-26T13:46:44.633Z</time></trkpt><trkpt lat="42.3087195" lon="13.2539223"><ele>1326.0</ele><time>2026-04-26T13:46:45.633Z</time></trkpt><trkpt lat="42.3088713" lon="13.2539838"><ele>1326.0</ele><time>2026-04-26T13:46:46.632Z</time></trkpt><trkpt lat="42.309013" lon="13.2540375"><ele>1325.25</ele><time>2026-04-26T13:46:47.634Z</time></trkpt><trkpt lat="42.3091399" lon="13.254071"><ele>1324.5</ele><time>2026-04-26T13:46:48.634Z</time></trkpt><trkpt lat="42.3092597" lon="13.2540629"><ele>1323.75</ele><time>2026-04-26T13:46:49.632Z</time></trkpt><trkpt lat="42.3093788" lon="13.2540089"><ele>1323.0</ele><time>2026-04-26T13:46:50.634Z</time></trkpt><trkpt lat="42.3094951" lon="13.2539292"><ele>1323.0</ele><time>2026-04-26T13:46:51.634Z</time></trkpt><trkpt lat="42.3096151" lon="13.2538369"><ele>1323.0</ele><time>2026-04-26T13:46:52.633Z</time></trkpt><trkpt lat="42.3097486" lon="13.2537367"><ele>1323.0</ele><time>2026-04-26T13:46:53.632Z</time></trkpt><trkpt lat="42.3098891" lon="13.2536327"><ele>1317.6666666666667</ele><time>2026-04-26T13:46:54.634Z</time></trkpt><trkpt lat="42.310035" lon="13.2535187"><ele>1312.3333333333335</ele><time>2026-04-26T13:46:55.633Z</time></trkpt><trkpt lat="42.3101798" lon="13.2534012"><ele>1307.0</ele><time>2026-04-26T13:46:56.633Z</time></trkpt><trkpt lat="42.3103258" lon="13.2532871"><ele>1307.0</ele><time>2026-04-26T13:46:57.633Z</time></trkpt><trkpt lat="42.3104643" lon="13.25318"><ele>1307.0</ele><time>2026-04-26T13:46:58.632Z</time></trkpt><trkpt lat="42.3106025" lon="13.2530776"><ele>1307.0</ele><time>2026-04-26T13:46:59.634Z</time></trkpt><trkpt lat="42.3107444" lon="13.2530061"><ele>1309.6666666666667</ele><time>2026-04-26T13:47:00.633Z</time></trkpt><trkpt lat="42.310899" lon="13.252966"><ele>1312.3333333333333</ele><time>2026-04-26T13:47:01.633Z</time></trkpt><trkpt lat="42.3110628" lon="13.2529524"><ele>1315.0</ele><time>2026-04-26T13:47:02.633Z</time></trkpt><trkpt lat="42.3112253" lon="13.2529368"><ele>1315.0</ele><time>2026-04-26T13:47:03.633Z</time></trkpt><trkpt lat="42.3113812" lon="13.2528987"><ele>1315.0</ele><time>2026-04-26T13:47:04.633Z</time></trkpt><trkpt lat="42.3115324" lon="13.2528543"><ele>1315.0</ele><time>2026-04-26T13:47:05.634Z</time></trkpt><trkpt lat="42.3116848" lon="13.252829"><ele>1312.5</ele><time>2026-04-26T13:47:06.634Z</time></trkpt><trkpt lat="42.3118327" lon="13.2528315"><ele>1310.0</ele><time>2026-04-26T13:47:07.633Z</time></trkpt><trkpt lat="42.3119726" lon="13.2528615"><ele>1307.5</ele><time>2026-04-26T13:47:08.633Z</time></trkpt><trkpt lat="42.3120974" lon="13.2529105"><ele>1305.0</ele><time>2026-04-26T13:47:09.633Z</time></trkpt><trkpt lat="42.3122067" lon="13.2529305"><ele>1301.25</ele><time>2026-04-26T13:47:10.633Z</time></trkpt><trkpt lat="42.3123167" lon="13.2528939"><ele>1297.5</ele><time>2026-04-26T13:47:11.632Z</time></trkpt><trkpt lat="42.312423" lon="13.2528034"><ele>1293.75</ele><time>2026-04-26T13:47:12.633Z</time></trkpt><trkpt lat="42.3125322" lon="13.2526989"><ele>1290.0</ele><time>2026-04-26T13:47:13.633Z</time></trkpt><trkpt lat="42.3126491" lon="13.2526173"><ele>1290.0</ele><time>2026-04-26T13:47:14.633Z</time></trkpt><trkpt lat="42.3127588" lon="13.2525459"><ele>1290.0</ele><time>2026-04-26T13:47:15.633Z</time></trkpt><trkpt lat="42.3128425" lon="13.2524221"><ele>1290.0</ele><time>2026-04-26T13:47:16.633Z</time></trkpt><trkpt lat="42.3129004" lon="13.2522687"><ele>1290.0</ele><time>2026-04-26T13:47:17.634Z</time></trkpt><trkpt lat="42.3129545" lon="13.2521225"><ele>1288.5</ele><time>2026-04-26T13:47:18.633Z</time></trkpt><trkpt lat="42.3130334" lon="13.2519971"><ele>1287.0</ele><time>2026-04-26T13:47:19.634Z</time></trkpt><trkpt lat="42.3131307" lon="13.2519029"><ele>1285.5</ele><time>2026-04-26T13:47:20.634Z</time></trkpt><trkpt lat="42.3132456" lon="13.2518459"><ele>1284.0</ele><time>2026-04-26T13:47:21.632Z</time></trkpt><trkpt lat="42.3133612" lon="13.251798"><ele>1284.0</ele><time>2026-04-26T13:47:22.633Z</time></trkpt><trkpt lat="42.3134619" lon="13.25171"><ele>1284.0</ele><time>2026-04-26T13:47:23.633Z</time></trkpt><trkpt lat="42.3135408" lon="13.2515857"><ele>1284.0</ele><time>2026-04-26T13:47:24.632Z</time></trkpt><trkpt lat="42.3136119" lon="13.2514669"><ele>1284.0</ele><time>2026-04-26T13:47:25.634Z</time></trkpt><trkpt lat="42.3137108" lon="13.2513835"><ele>1287.0</ele><time>2026-04-26T13:47:26.634Z</time></trkpt><trkpt lat="42.3138294" lon="13.2513427"><ele>1290.0</ele><time>2026-04-26T13:47:27.633Z</time></trkpt><trkpt lat="42.3139628" lon="13.2512995"><ele>1293.0</ele><time>2026-04-26T13:47:28.632Z</time></trkpt><trkpt lat="42.3140862" lon="13.2512284"><ele>1296.0</ele><time>2026-04-26T13:47:29.633Z</time></trkpt><trkpt lat="42.3142069" lon="13.2511655"><ele>1296.0</ele><time>2026-04-26T13:47:30.633Z</time></trkpt><trkpt lat="42.3143244" lon="13.2511254"><ele>1296.0</ele><time>2026-04-26T13:47:31.633Z</time></trkpt><trkpt lat="42.3144358" lon="13.2511199"><ele>1296.0</ele><time>2026-04-26T13:47:32.634Z</time></trkpt><trkpt lat="42.3145385" lon="13.2511563"><ele>1296.0</ele><time>2026-04-26T13:47:33.632Z</time></trkpt><trkpt lat="42.3146403" lon="13.2512366"><ele>1297.0</ele><time>2026-04-26T13:47:34.633Z</time></trkpt><trkpt lat="42.3147507" lon="13.2513416"><ele>1298.0</ele><time>2026-04-26T13:47:35.634Z</time></trkpt><trkpt lat="42.3148674" lon="13.2514563"><ele>1299.0</ele><time>2026-04-26T13:47:36.634Z</time></trkpt><trkpt lat="42.3149872" lon="13.2515812"><ele>1300.0</ele><time>2026-04-26T13:47:37.633Z</time></trkpt><trkpt lat="42.3150966" lon="13.2517057"><ele>1293.25</ele><time>2026-04-26T13:47:38.633Z</time></trkpt><trkpt lat="42.3151965" lon="13.2518314"><ele>1286.5</ele><time>2026-04-26T13:47:39.634Z</time></trkpt><trkpt lat="42.3152812" lon="13.2519635"><ele>1279.75</ele><time>2026-04-26T13:47:40.633Z</time></trkpt><trkpt lat="42.315358" lon="13.252084"><ele>1273.0</ele><time>2026-04-26T13:47:41.632Z</time></trkpt><trkpt lat="42.3154527" lon="13.2521666"><ele>1278.5</ele><time>2026-04-26T13:47:42.633Z</time></trkpt><trkpt lat="42.3155715" lon="13.2522131"><ele>1284.0</ele><time>2026-04-26T13:47:43.633Z</time></trkpt><trkpt lat="42.3157076" lon="13.2522269"><ele>1289.5</ele><time>2026-04-26T13:47:44.633Z</time></trkpt><trkpt lat="42.3158478" lon="13.2522099"><ele>1295.0</ele><time>2026-04-26T13:47:45.632Z</time></trkpt><trkpt lat="42.3159793" lon="13.2521724"><ele>1295.0</ele><time>2026-04-26T13:47:46.633Z</time></trkpt><trkpt lat="42.316097" lon="13.2521333"><ele>1295.0</ele><time>2026-04-26T13:47:47.633Z</time></trkpt><trkpt lat="42.3161963" lon="13.2520962"><ele>1295.0</ele><time>2026-04-26T13:47:48.634Z</time></trkpt><trkpt lat="42.3162856" lon="13.2520596"><ele>1295.0</ele><time>2026-04-26T13:47:49.633Z</time></trkpt><trkpt lat="42.3163657" lon="13.2520273"><ele>1295.0</ele><time>2026-04-26T13:47:50.633Z</time></trkpt><trkpt lat="42.3164488" lon="13.2520205"><ele>1294.3333333333335</ele><time>2026-04-26T13:47:51.633Z</time></trkpt><trkpt lat="42.3165262" lon="13.2520428"><ele>1293.6666666666667</ele><time>2026-04-26T13:47:52.632Z</time></trkpt><trkpt lat="42.3165915" lon="13.2521105"><ele>1293.0</ele><time>2026-04-26T13:47:53.633Z</time></trkpt><trkpt lat="42.3166392" lon="13.2522048"><ele>1292.3333333333333</ele><time>2026-04-26T13:47:54.633Z</time></trkpt><trkpt lat="42.316654" lon="13.2523133"><ele>1291.6666666666665</ele><time>2026-04-26T13:47:55.633Z</time></trkpt><trkpt lat="42.3166416" lon="13.252436"><ele>1291.0</ele><time>2026-04-26T13:47:56.632Z</time></trkpt><trkpt lat="42.3165987" lon="13.2525536"><ele>1288.1666666666665</ele><time>2026-04-26T13:47:57.633Z</time></trkpt><trkpt lat="42.3165361" lon="13.2526587"><ele>1285.3333333333333</ele><time>2026-04-26T13:47:58.633Z</time></trkpt><trkpt lat="42.3164707" lon="13.2527554"><ele>1282.5</ele><time>2026-04-26T13:47:59.634Z</time></trkpt><trkpt lat="42.316429" lon="13.2528637"><ele>1279.6666666666667</ele><time>2026-04-26T13:48:00.633Z</time></trkpt><trkpt lat="42.3164253" lon="13.2529743"><ele>1276.8333333333335</ele><time>2026-04-26T13:48:01.632Z</time></trkpt><trkpt lat="42.3164591" lon="13.2530563"><ele>1274.0</ele><time>2026-04-26T13:48:02.632Z</time></trkpt><trkpt lat="42.3165289" lon="13.2530956"><ele>1274.0</ele><time>2026-04-26T13:48:03.631Z</time></trkpt><trkpt lat="42.3166242" lon="13.2530895"><ele>1274.0</ele><time>2026-04-26T13:48:04.631Z</time></trkpt><trkpt lat="42.3167415" lon="13.2530506"><ele>1274.0</ele><time>2026-04-26T13:48:05.633Z</time></trkpt><trkpt lat="42.3168714" lon="13.2530061"><ele>1274.0</ele><time>2026-04-26T13:48:06.632Z</time></trkpt><trkpt lat="42.3170087" lon="13.2529569"><ele>1274.0</ele><time>2026-04-26T13:48:07.632Z</time></trkpt><trkpt lat="42.3171521" lon="13.2529042"><ele>1274.0</ele><time>2026-04-26T13:48:08.632Z</time></trkpt><trkpt lat="42.3172997" lon="13.2528459"><ele>1274.0</ele><time>2026-04-26T13:48:09.631Z</time></trkpt><trkpt lat="42.3174482" lon="13.2527905"><ele>1274.6666666666667</ele><time>2026-04-26T13:48:10.632Z</time></trkpt><trkpt lat="42.3175982" lon="13.252738"><ele>1275.3333333333333</ele><time>2026-04-26T13:48:11.631Z</time></trkpt><trkpt lat="42.3177541" lon="13.2526862"><ele>1276.0</ele><time>2026-04-26T13:48:12.633Z</time></trkpt><trkpt lat="42.3179151" lon="13.2526419"><ele>1274.0</ele><time>2026-04-26T13:48:13.632Z</time></trkpt><trkpt lat="42.3180833" lon="13.2526121"><ele>1272.0</ele><time>2026-04-26T13:48:14.632Z</time></trkpt><trkpt lat="42.3182582" lon="13.2525918"><ele>1270.0</ele><time>2026-04-26T13:48:15.633Z</time></trkpt><trkpt lat="42.3184402" lon="13.2525789"><ele>1270.0</ele><time>2026-04-26T13:48:16.632Z</time></trkpt><trkpt lat="42.3186232" lon="13.2525564"><ele>1270.0</ele><time>2026-04-26T13:48:17.632Z</time></trkpt><trkpt lat="42.3188086" lon="13.2525263"><ele>1270.0</ele><time>2026-04-26T13:48:18.631Z</time></trkpt><trkpt lat="42.3189839" lon="13.2524904"><ele>1268.3333333333333</ele><time>2026-04-26T13:48:19.632Z</time></trkpt><trkpt lat="42.3191544" lon="13.252453"><ele>1266.6666666666667</ele><time>2026-04-26T13:48:20.632Z</time></trkpt><trkpt lat="42.3193176" lon="13.2524204"><ele>1265.0</ele><time>2026-04-26T13:48:21.633Z</time></trkpt><trkpt lat="42.3194643" lon="13.2523957"><ele>1265.0</ele><time>2026-04-26T13:48:22.633Z</time></trkpt><trkpt lat="42.3195943" lon="13.2523706"><ele>1265.0</ele><time>2026-04-26T13:48:23.631Z</time></trkpt><trkpt lat="42.3197022" lon="13.2523262"><ele>1265.0</ele><time>2026-04-26T13:48:24.631Z</time></trkpt><trkpt lat="42.3198085" lon="13.2522275"><ele>1265.0</ele><time>2026-04-26T13:48:25.633Z</time></trkpt><trkpt lat="42.319905" lon="13.2520971"><ele>1269.0</ele><time>2026-04-26T13:48:26.631Z</time></trkpt><trkpt lat="42.3199987" lon="13.2519496"><ele>1273.0</ele><time>2026-04-26T13:48:27.632Z</time></trkpt><trkpt lat="42.3200942" lon="13.2517979"><ele>1277.0</ele><time>2026-04-26T13:48:28.633Z</time></trkpt><trkpt lat="42.3201816" lon="13.2516347"><ele>1281.0</ele><time>2026-04-26T13:48:29.633Z</time></trkpt><trkpt lat="42.320252" lon="13.251464"><ele>1284.0</ele><time>2026-04-26T13:48:30.631Z</time></trkpt><trkpt lat="42.3203221" lon="13.2512985"><ele>1287.0</ele><time>2026-04-26T13:48:31.631Z</time></trkpt><trkpt lat="42.3203963" lon="13.2511395"><ele>1290.0</ele><time>2026-04-26T13:48:32.633Z</time></trkpt><trkpt lat="42.3204361" lon="13.2509767"><ele>1293.0</ele><time>2026-04-26T13:48:33.632Z</time></trkpt><trkpt lat="42.3204647" lon="13.2508255"><ele>1293.0</ele><time>2026-04-26T13:48:34.632Z</time></trkpt><trkpt lat="42.3204903" lon="13.2506806"><ele>1293.0</ele><time>2026-04-26T13:48:35.631Z</time></trkpt><trkpt lat="42.3205433" lon="13.2505774"><ele>1293.0</ele><time>2026-04-26T13:48:36.633Z</time></trkpt><trkpt lat="42.3206106" lon="13.2504819"><ele>1293.0</ele><time>2026-04-26T13:48:37.633Z</time></trkpt><trkpt lat="42.3207002" lon="13.2504138"><ele>1293.0</ele><time>2026-04-26T13:48:38.632Z</time></trkpt><trkpt lat="42.3208106" lon="13.2503859"><ele>1288.25</ele><time>2026-04-26T13:48:39.632Z</time></trkpt><trkpt lat="42.3209298" lon="13.2503961"><ele>1283.5</ele><time>2026-04-26T13:48:40.632Z</time></trkpt><trkpt lat="42.3210585" lon="13.2504389"><ele>1278.75</ele><time>2026-04-26T13:48:41.631Z</time></trkpt><trkpt lat="42.3211925" lon="13.2505015"><ele>1274.0</ele><time>2026-04-26T13:48:42.632Z</time></trkpt><trkpt lat="42.3213313" lon="13.2505728"><ele>1265.6666666666667</ele><time>2026-04-26T13:48:43.633Z</time></trkpt><trkpt lat="42.3214732" lon="13.2506471"><ele>1257.3333333333333</ele><time>2026-04-26T13:48:44.632Z</time></trkpt><trkpt lat="42.3216165" lon="13.2507239"><ele>1249.0</ele><time>2026-04-26T13:48:45.631Z</time></trkpt><trkpt lat="42.3217472" lon="13.2508073"><ele>1249.0</ele><time>2026-04-26T13:48:46.633Z</time></trkpt><trkpt lat="42.3218573" lon="13.2508897"><ele>1249.0</ele><time>2026-04-26T13:48:47.632Z</time></trkpt><trkpt lat="42.3219519" lon="13.2509745"><ele>1249.0</ele><time>2026-04-26T13:48:48.632Z</time></trkpt><trkpt lat="42.3220212" lon="13.2510613"><ele>1249.0</ele><time>2026-04-26T13:48:49.632Z</time></trkpt><trkpt lat="42.3220504" lon="13.2511525"><ele>1249.0</ele><time>2026-04-26T13:48:50.632Z</time></trkpt><trkpt lat="42.3219979" lon="13.2512887"><ele>1249.0</ele><time>2026-04-26T13:48:52.632Z</time></trkpt><trkpt lat="42.321929" lon="13.2513062"><ele>1249.0</ele><time>2026-04-26T13:48:53.632Z</time></trkpt><trkpt lat="42.3218289" lon="13.2512992"><ele>1249.0</ele><time>2026-04-26T13:48:54.632Z</time></trkpt><trkpt lat="42.3217198" lon="13.2512804"><ele>1249.0</ele><time>2026-04-26T13:48:55.632Z</time></trkpt><trkpt lat="42.3216113" lon="13.2512279"><ele>1249.0</ele><time>2026-04-26T13:48:56.632Z</time></trkpt><trkpt lat="42.321505" lon="13.2511334"><ele>1249.0</ele><time>2026-04-26T13:48:57.631Z</time></trkpt><trkpt lat="42.3214105" lon="13.2510067"><ele>1249.0</ele><time>2026-04-26T13:48:58.632Z</time></trkpt><trkpt lat="42.3213201" lon="13.2508823"><ele>1249.0</ele><time>2026-04-26T13:48:59.633Z</time></trkpt><trkpt lat="42.3212206" lon="13.2507765"><ele>1249.0</ele><time>2026-04-26T13:49:00.632Z</time></trkpt><trkpt lat="42.3211193" lon="13.2507053"><ele>1249.3333333333333</ele><time>2026-04-26T13:49:01.633Z</time></trkpt><trkpt lat="42.3210216" lon="13.2506582"><ele>1249.6666666666665</ele><time>2026-04-26T13:49:02.633Z</time></trkpt><trkpt lat="42.3209373" lon="13.2506315"><ele>1250.0</ele><time>2026-04-26T13:49:03.631Z</time></trkpt><trkpt lat="42.3208645" lon="13.2506336"><ele>1250.3333333333333</ele><time>2026-04-26T13:49:04.632Z</time></trkpt><trkpt lat="42.320803" lon="13.2506708"><ele>1250.6666666666667</ele><time>2026-04-26T13:49:05.632Z</time></trkpt><trkpt lat="42.3207587" lon="13.2507491"><ele>1251.0</ele><time>2026-04-26T13:49:06.631Z</time></trkpt><trkpt lat="42.3207325" lon="13.2508552"><ele>1251.0</ele><time>2026-04-26T13:49:07.632Z</time></trkpt><trkpt lat="42.3207109" lon="13.2509802"><ele>1251.0</ele><time>2026-04-26T13:49:08.631Z</time></trkpt><trkpt lat="42.3206674" lon="13.2511115"><ele>1251.0</ele><time>2026-04-26T13:49:09.632Z</time></trkpt><trkpt lat="42.3206111" lon="13.2512473"><ele>1251.0</ele><time>2026-04-26T13:49:10.633Z</time></trkpt><trkpt lat="42.320546" lon="13.2514013"><ele>1251.0</ele><time>2026-04-26T13:49:11.633Z</time></trkpt><trkpt lat="42.3204816" lon="13.2515646"><ele>1258.5</ele><time>2026-04-26T13:49:12.633Z</time></trkpt><trkpt lat="42.3204276" lon="13.2517228"><ele>1266.0</ele><time>2026-04-26T13:49:13.633Z</time></trkpt><trkpt lat="42.3203629" lon="13.251886"><ele>1273.5</ele><time>2026-04-26T13:49:14.633Z</time></trkpt><trkpt lat="42.320282" lon="13.2520398"><ele>1281.0</ele><time>2026-04-26T13:49:15.632Z</time></trkpt><trkpt lat="42.3202038" lon="13.2521904"><ele>1272.75</ele><time>2026-04-26T13:49:16.633Z</time></trkpt><trkpt lat="42.3201359" lon="13.252343"><ele>1264.5</ele><time>2026-04-26T13:49:17.631Z</time></trkpt><trkpt lat="42.3200853" lon="13.2524933"><ele>1256.25</ele><time>2026-04-26T13:49:18.632Z</time></trkpt><trkpt lat="42.3200191" lon="13.2526351"><ele>1248.0</ele><time>2026-04-26T13:49:19.631Z</time></trkpt><trkpt lat="42.319932" lon="13.2527531"><ele>1248.0</ele><time>2026-04-26T13:49:20.632Z</time></trkpt><trkpt lat="42.3198274" lon="13.252844"><ele>1248.0</ele><time>2026-04-26T13:49:21.631Z</time></trkpt><trkpt lat="42.3197026" lon="13.2529176"><ele>1248.0</ele><time>2026-04-26T13:49:22.633Z</time></trkpt><trkpt lat="42.3195622" lon="13.2529695"><ele>1248.0</ele><time>2026-04-26T13:49:23.633Z</time></trkpt><trkpt lat="42.3194128" lon="13.2530191"><ele>1253.6666666666667</ele><time>2026-04-26T13:49:24.632Z</time></trkpt><trkpt lat="42.3192602" lon="13.2530675"><ele>1259.3333333333335</ele><time>2026-04-26T13:49:25.633Z</time></trkpt><trkpt lat="42.3191128" lon="13.2531279"><ele>1265.0</ele><time>2026-04-26T13:49:26.632Z</time></trkpt><trkpt lat="42.3189664" lon="13.2531909"><ele>1254.6666666666667</ele><time>2026-04-26T13:49:27.632Z</time></trkpt><trkpt lat="42.3188134" lon="13.2532415"><ele>1244.3333333333333</ele><time>2026-04-26T13:49:28.633Z</time></trkpt><trkpt lat="42.3186548" lon="13.2532658"><ele>1234.0</ele><time>2026-04-26T13:49:29.632Z</time></trkpt><trkpt lat="42.3184919" lon="13.253282"><ele>1234.0</ele><time>2026-04-26T13:49:30.631Z</time></trkpt><trkpt lat="42.318327" lon="13.2533266"><ele>1234.0</ele><time>2026-04-26T13:49:31.632Z</time></trkpt><trkpt lat="42.3181599" lon="13.25339"><ele>1234.0</ele><time>2026-04-26T13:49:32.632Z</time></trkpt><trkpt lat="42.3179885" lon="13.2534615"><ele>1236.6666666666665</ele><time>2026-04-26T13:49:33.633Z</time></trkpt><trkpt lat="42.3178134" lon="13.2535327"><ele>1239.3333333333333</ele><time>2026-04-26T13:49:34.631Z</time></trkpt><trkpt lat="42.3176418" lon="13.253595"><ele>1242.0</ele><time>2026-04-26T13:49:35.633Z</time></trkpt><trkpt lat="42.3174739" lon="13.2536613"><ele>1242.0</ele><time>2026-04-26T13:49:36.632Z</time></trkpt><trkpt lat="42.3173091" lon="13.2537336"><ele>1242.0</ele><time>2026-04-26T13:49:37.632Z</time></trkpt><trkpt lat="42.3171505" lon="13.2538129"><ele>1242.0</ele><time>2026-04-26T13:49:38.632Z</time></trkpt><trkpt lat="42.3169967" lon="13.2538912"><ele>1234.0</ele><time>2026-04-26T13:49:39.632Z</time></trkpt><trkpt lat="42.3168461" lon="13.2539705"><ele>1226.0</ele><time>2026-04-26T13:49:40.631Z</time></trkpt><trkpt lat="42.3167082" lon="13.2540432"><ele>1218.0</ele><time>2026-04-26T13:49:41.632Z</time></trkpt><trkpt lat="42.3165772" lon="13.2541039"><ele>1210.0</ele><time>2026-04-26T13:49:42.633Z</time></trkpt><trkpt lat="42.3164628" lon="13.2541539"><ele>1208.75</ele><time>2026-04-26T13:49:43.632Z</time></trkpt><trkpt lat="42.3163536" lon="13.254184"><ele>1207.5</ele><time>2026-04-26T13:49:44.633Z</time></trkpt><trkpt lat="42.3162451" lon="13.2541727"><ele>1206.25</ele><time>2026-04-26T13:49:45.632Z</time></trkpt><trkpt lat="42.3161336" lon="13.2541228"><ele>1205.0</ele><time>2026-04-26T13:49:46.632Z</time></trkpt><trkpt lat="42.3160113" lon="13.2540442"><ele>1205.0</ele><time>2026-04-26T13:49:47.632Z</time></trkpt><trkpt lat="42.3158758" lon="13.2539719"><ele>1205.0</ele><time>2026-04-26T13:49:48.633Z</time></trkpt><trkpt lat="42.3157452" lon="13.2539217"><ele>1205.0</ele><time>2026-04-26T13:49:49.631Z</time></trkpt><trkpt lat="42.315621" lon="13.2538766"><ele>1205.0</ele><time>2026-04-26T13:49:50.632Z</time></trkpt><trkpt lat="42.3155077" lon="13.2538085"><ele>1205.75</ele><time>2026-04-26T13:49:51.632Z</time></trkpt><trkpt lat="42.3154178" lon="13.2537053"><ele>1206.5</ele><time>2026-04-26T13:49:52.633Z</time></trkpt><trkpt lat="42.3153513" lon="13.2535701"><ele>1207.25</ele><time>2026-04-26T13:49:53.631Z</time></trkpt><trkpt lat="42.3152887" lon="13.2534503"><ele>1208.0</ele><time>2026-04-26T13:49:54.632Z</time></trkpt><trkpt lat="42.3151941" lon="13.2533664"><ele>1208.0</ele><time>2026-04-26T13:49:55.633Z</time></trkpt><trkpt lat="42.315085" lon="13.2533197"><ele>1208.0</ele><time>2026-04-26T13:49:56.631Z</time></trkpt><trkpt lat="42.3149743" lon="13.2532702"><ele>1208.0</ele><time>2026-04-26T13:49:57.631Z</time></trkpt><trkpt lat="42.3148604" lon="13.2531869"><ele>1208.0</ele><time>2026-04-26T13:49:58.633Z</time></trkpt><trkpt lat="42.3147627" lon="13.2530879"><ele>1213.5</ele><time>2026-04-26T13:49:59.633Z</time></trkpt><trkpt lat="42.3146718" lon="13.2530147"><ele>1219.0</ele><time>2026-04-26T13:50:00.632Z</time></trkpt><trkpt lat="42.3145669" lon="13.2529819"><ele>1224.5</ele><time>2026-04-26T13:50:01.631Z</time></trkpt><trkpt lat="42.3144484" lon="13.2529911"><ele>1230.0</ele><time>2026-04-26T13:50:02.632Z</time></trkpt><trkpt lat="42.3143224" lon="13.2530396"><ele>1230.0</ele><time>2026-04-26T13:50:03.632Z</time></trkpt><trkpt lat="42.3142111" lon="13.2531004"><ele>1230.0</ele><time>2026-04-26T13:50:04.632Z</time></trkpt><trkpt lat="42.3141186" lon="13.2531659"><ele>1230.0</ele><time>2026-04-26T13:50:05.632Z</time></trkpt><trkpt lat="42.3140414" lon="13.2532517"><ele>1230.0</ele><time>2026-04-26T13:50:06.632Z</time></trkpt><trkpt lat="42.3139779" lon="13.2533765"><ele>1230.0</ele><time>2026-04-26T13:50:07.633Z</time></trkpt><trkpt lat="42.3139175" lon="13.2535193"><ele>1229.25</ele><time>2026-04-26T13:50:08.633Z</time></trkpt><trkpt lat="42.313838" lon="13.2536585"><ele>1228.5</ele><time>2026-04-26T13:50:09.632Z</time></trkpt><trkpt lat="42.3137483" lon="13.2537983"><ele>1227.75</ele><time>2026-04-26T13:50:10.631Z</time></trkpt><trkpt lat="42.313675" lon="13.2539532"><ele>1227.0</ele><time>2026-04-26T13:50:11.632Z</time></trkpt><trkpt lat="42.3136226" lon="13.2541236"><ele>1227.0</ele><time>2026-04-26T13:50:12.632Z</time></trkpt><trkpt lat="42.3135887" lon="13.2543057"><ele>1227.0</ele><time>2026-04-26T13:50:13.631Z</time></trkpt><trkpt lat="42.3135659" lon="13.2544953"><ele>1227.0</ele><time>2026-04-26T13:50:14.632Z</time></trkpt><trkpt lat="42.3135345" lon="13.2546842"><ele>1227.0</ele><time>2026-04-26T13:50:15.633Z</time></trkpt><trkpt lat="42.3134978" lon="13.2548613"><ele>1223.4</ele><time>2026-04-26T13:50:16.633Z</time></trkpt><trkpt lat="42.3134566" lon="13.2550174"><ele>1219.8000000000002</ele><time>2026-04-26T13:50:17.631Z</time></trkpt><trkpt lat="42.313405" lon="13.2551464"><ele>1216.2</ele><time>2026-04-26T13:50:18.633Z</time></trkpt><trkpt lat="42.3133418" lon="13.2552396"><ele>1212.6000000000001</ele><time>2026-04-26T13:50:19.631Z</time></trkpt><trkpt lat="42.3132749" lon="13.255302"><ele>1209.0</ele><time>2026-04-26T13:50:20.631Z</time></trkpt><trkpt lat="42.3132014" lon="13.2553259"><ele>1209.0</ele><time>2026-04-26T13:50:21.632Z</time></trkpt><trkpt lat="42.3131053" lon="13.2553138"><ele>1209.0</ele><time>2026-04-26T13:50:22.631Z</time></trkpt><trkpt lat="42.3129988" lon="13.2552718"><ele>1209.0</ele><time>2026-04-26T13:50:23.631Z</time></trkpt><trkpt lat="42.3128821" lon="13.255226"><ele>1209.0</ele><time>2026-04-26T13:50:24.632Z</time></trkpt><trkpt lat="42.3127634" lon="13.2551786"><ele>1211.8</ele><time>2026-04-26T13:50:25.633Z</time></trkpt><trkpt lat="42.3126474" lon="13.2551471"><ele>1214.6000000000001</ele><time>2026-04-26T13:50:26.633Z</time></trkpt><trkpt lat="42.3125411" lon="13.2551502"><ele>1217.4</ele><time>2026-04-26T13:50:27.632Z</time></trkpt><trkpt lat="42.3124416" lon="13.2551952"><ele>1220.2</ele><time>2026-04-26T13:50:28.631Z</time></trkpt><trkpt lat="42.3123546" lon="13.2552838"><ele>1223.0</ele><time>2026-04-26T13:50:29.632Z</time></trkpt><trkpt lat="42.3122944" lon="13.2553978"><ele>1223.0</ele><time>2026-04-26T13:50:30.632Z</time></trkpt><trkpt lat="42.3122667" lon="13.2555334"><ele>1223.0</ele><time>2026-04-26T13:50:31.632Z</time></trkpt><trkpt lat="42.3122682" lon="13.2556901"><ele>1223.0</ele><time>2026-04-26T13:50:32.631Z</time></trkpt><trkpt lat="42.3122851" lon="13.2558477"><ele>1223.0</ele><time>2026-04-26T13:50:33.631Z</time></trkpt><trkpt lat="42.3122986" lon="13.2559973"><ele>1223.0</ele><time>2026-04-26T13:50:34.632Z</time></trkpt><trkpt lat="42.3122999" lon="13.256146"><ele>1222.2</ele><time>2026-04-26T13:50:35.632Z</time></trkpt><trkpt lat="42.312277" lon="13.2562872"><ele>1221.4</ele><time>2026-04-26T13:50:36.632Z</time></trkpt><trkpt lat="42.312229" lon="13.2564108"><ele>1220.6000000000001</ele><time>2026-04-26T13:50:37.632Z</time></trkpt><trkpt lat="42.3121572" lon="13.2565231"><ele>1219.8</ele><time>2026-04-26T13:50:38.632Z</time></trkpt><trkpt lat="42.3120776" lon="13.2566142"><ele>1219.0</ele><time>2026-04-26T13:50:39.63Z</time></trkpt><trkpt lat="42.3119873" lon="13.2566749"><ele>1212.5</ele><time>2026-04-26T13:50:40.631Z</time></trkpt><trkpt lat="42.3118774" lon="13.2566897"><ele>1206.0</ele><time>2026-04-26T13:50:41.63Z</time></trkpt><trkpt lat="42.3117642" lon="13.2566643"><ele>1199.5</ele><time>2026-04-26T13:50:42.63Z</time></trkpt><trkpt lat="42.3116489" lon="13.2566052"><ele>1193.0</ele><time>2026-04-26T13:50:43.632Z</time></trkpt><trkpt lat="42.3115434" lon="13.2565378"><ele>1193.0</ele><time>2026-04-26T13:50:44.631Z</time></trkpt><trkpt lat="42.3114295" lon="13.2565124"><ele>1193.0</ele><time>2026-04-26T13:50:45.632Z</time></trkpt><trkpt lat="42.3113137" lon="13.25653"><ele>1193.0</ele><time>2026-04-26T13:50:46.631Z</time></trkpt><trkpt lat="42.3112068" lon="13.2566081"><ele>1193.0</ele><time>2026-04-26T13:50:47.632Z</time></trkpt><trkpt lat="42.311117" lon="13.2567369"><ele>1191.25</ele><time>2026-04-26T13:50:48.632Z</time></trkpt><trkpt lat="42.3110361" lon="13.2568972"><ele>1189.5</ele><time>2026-04-26T13:50:49.632Z</time></trkpt><trkpt lat="42.3109638" lon="13.2570711"><ele>1187.75</ele><time>2026-04-26T13:50:50.631Z</time></trkpt><trkpt lat="42.3109034" lon="13.2572498"><ele>1186.0</ele><time>2026-04-26T13:50:51.632Z</time></trkpt><trkpt lat="42.3108425" lon="13.2574226"><ele>1186.0</ele><time>2026-04-26T13:50:52.632Z</time></trkpt><trkpt lat="42.3107697" lon="13.2575826"><ele>1186.0</ele><time>2026-04-26T13:50:53.63Z</time></trkpt><trkpt lat="42.3106829" lon="13.2577217"><ele>1186.0</ele><time>2026-04-26T13:50:54.631Z</time></trkpt><trkpt lat="42.3105861" lon="13.257839"><ele>1186.0</ele><time>2026-04-26T13:50:55.632Z</time></trkpt><trkpt lat="42.310476" lon="13.2579255"><ele>1191.25</ele><time>2026-04-26T13:50:56.631Z</time></trkpt><trkpt lat="42.3103519" lon="13.2579689"><ele>1196.5</ele><time>2026-04-26T13:50:57.631Z</time></trkpt><trkpt lat="42.3102244" lon="13.2579734"><ele>1201.75</ele><time>2026-04-26T13:50:58.632Z</time></trkpt><trkpt lat="42.3100976" lon="13.2579824"><ele>1207.0</ele><time>2026-04-26T13:50:59.632Z</time></trkpt><trkpt lat="42.3099768" lon="13.258036"><ele>1204.5</ele><time>2026-04-26T13:51:00.631Z</time></trkpt><trkpt lat="42.3098695" lon="13.2581446"><ele>1202.0</ele><time>2026-04-26T13:51:01.632Z</time></trkpt><trkpt lat="42.3097828" lon="13.2582917"><ele>1199.5</ele><time>2026-04-26T13:51:02.631Z</time></trkpt><trkpt lat="42.3097047" lon="13.2584576"><ele>1197.0</ele><time>2026-04-26T13:51:03.631Z</time></trkpt><trkpt lat="42.3096211" lon="13.2586177"><ele>1197.0</ele><time>2026-04-26T13:51:04.631Z</time></trkpt><trkpt lat="42.3095296" lon="13.2587643"><ele>1197.0</ele><time>2026-04-26T13:51:05.631Z</time></trkpt><trkpt lat="42.3094254" lon="13.2588906"><ele>1197.0</ele><time>2026-04-26T13:51:06.631Z</time></trkpt><trkpt lat="42.3093087" lon="13.2589886"><ele>1197.0</ele><time>2026-04-26T13:51:07.631Z</time></trkpt><trkpt lat="42.3091756" lon="13.2590592"><ele>1190.6666666666667</ele><time>2026-04-26T13:51:08.631Z</time></trkpt><trkpt lat="42.3090297" lon="13.2591084"><ele>1184.3333333333335</ele><time>2026-04-26T13:51:09.631Z</time></trkpt><trkpt lat="42.3088758" lon="13.2591726"><ele>1178.0</ele><time>2026-04-26T13:51:10.631Z</time></trkpt><trkpt lat="42.3087216" lon="13.2592666"><ele>1178.0</ele><time>2026-04-26T13:51:11.631Z</time></trkpt><trkpt lat="42.308571" lon="13.2593732"><ele>1178.0</ele><time>2026-04-26T13:51:12.631Z</time></trkpt><trkpt lat="42.3084243" lon="13.2594802"><ele>1178.0</ele><time>2026-04-26T13:51:13.631Z</time></trkpt><trkpt lat="42.3082862" lon="13.2595899"><ele>1178.0</ele><time>2026-04-26T13:51:14.632Z</time></trkpt><trkpt lat="42.3081533" lon="13.2596894"><ele>1178.0</ele><time>2026-04-26T13:51:15.632Z</time></trkpt><trkpt lat="42.3080263" lon="13.2597858"><ele>1178.0</ele><time>2026-04-26T13:51:16.63Z</time></trkpt><trkpt lat="42.3079072" lon="13.2598688"><ele>1178.0</ele><time>2026-04-26T13:51:17.631Z</time></trkpt><trkpt lat="42.3077863" lon="13.259932"><ele>1172.5</ele><time>2026-04-26T13:51:18.632Z</time></trkpt><trkpt lat="42.3076603" lon="13.2599714"><ele>1167.0</ele><time>2026-04-26T13:51:19.631Z</time></trkpt><trkpt lat="42.3075379" lon="13.2599813"><ele>1161.5</ele><time>2026-04-26T13:51:20.631Z</time></trkpt><trkpt lat="42.3074275" lon="13.2599494"><ele>1156.0</ele><time>2026-04-26T13:51:21.631Z</time></trkpt><trkpt lat="42.3073259" lon="13.2598799"><ele>1153.5</ele><time>2026-04-26T13:51:22.63Z</time></trkpt><trkpt lat="42.3072274" lon="13.2597617"><ele>1151.0</ele><time>2026-04-26T13:51:23.632Z</time></trkpt><trkpt lat="42.307126" lon="13.2596175"><ele>1148.5</ele><time>2026-04-26T13:51:24.631Z</time></trkpt><trkpt lat="42.3070289" lon="13.259467"><ele>1146.0</ele><time>2026-04-26T13:51:25.632Z</time></trkpt><trkpt lat="42.3069358" lon="13.2593021"><ele>1146.0</ele><time>2026-04-26T13:51:26.632Z</time></trkpt><trkpt lat="42.3068616" lon="13.2591135"><ele>1146.0</ele><time>2026-04-26T13:51:27.631Z</time></trkpt><trkpt lat="42.3067995" lon="13.2589118"><ele>1146.0</ele><time>2026-04-26T13:51:28.631Z</time></trkpt><trkpt lat="42.3067411" lon="13.2587143"><ele>1149.0</ele><time>2026-04-26T13:51:29.631Z</time></trkpt><trkpt lat="42.3066743" lon="13.2585225"><ele>1152.0</ele><time>2026-04-26T13:51:30.631Z</time></trkpt><trkpt lat="42.3066011" lon="13.2583469"><ele>1155.0</ele><time>2026-04-26T13:51:31.631Z</time></trkpt><trkpt lat="42.3065134" lon="13.258189"><ele>1157.0</ele><time>2026-04-26T13:51:32.632Z</time></trkpt><trkpt lat="42.3064161" lon="13.2580564"><ele>1159.0</ele><time>2026-04-26T13:51:33.63Z</time></trkpt><trkpt lat="42.3063148" lon="13.2579403"><ele>1161.0</ele><time>2026-04-26T13:51:34.631Z</time></trkpt><trkpt lat="42.3061948" lon="13.2578566"><ele>1163.0</ele><time>2026-04-26T13:51:35.631Z</time></trkpt><trkpt lat="42.3060585" lon="13.2578159"><ele>1163.0</ele><time>2026-04-26T13:51:36.631Z</time></trkpt><trkpt lat="42.305907" lon="13.2578103"><ele>1163.0</ele><time>2026-04-26T13:51:37.631Z</time></trkpt><trkpt lat="42.3057594" lon="13.2578264"><ele>1163.0</ele><time>2026-04-26T13:51:38.632Z</time></trkpt><trkpt lat="42.3056155" lon="13.2578583"><ele>1163.0</ele><time>2026-04-26T13:51:39.631Z</time></trkpt><trkpt lat="42.3054755" lon="13.2578987"><ele>1161.75</ele><time>2026-04-26T13:51:40.631Z</time></trkpt><trkpt lat="42.3053371" lon="13.2579279"><ele>1160.5</ele><time>2026-04-26T13:51:41.632Z</time></trkpt><trkpt lat="42.3051877" lon="13.257927"><ele>1159.25</ele><time>2026-04-26T13:51:42.63Z</time></trkpt><trkpt lat="42.3050356" lon="13.2579011"><ele>1158.0</ele><time>2026-04-26T13:51:43.631Z</time></trkpt><trkpt lat="42.3048816" lon="13.2578745"><ele>1160.0</ele><time>2026-04-26T13:51:44.632Z</time></trkpt><trkpt lat="42.3047228" lon="13.2578762"><ele>1162.0</ele><time>2026-04-26T13:51:45.631Z</time></trkpt><trkpt lat="42.3045612" lon="13.2579112"><ele>1164.0</ele><time>2026-04-26T13:51:46.63Z</time></trkpt><trkpt lat="42.3043985" lon="13.2579656"><ele>1164.0</ele><time>2026-04-26T13:51:47.631Z</time></trkpt><trkpt lat="42.3042313" lon="13.2580286"><ele>1164.0</ele><time>2026-04-26T13:51:48.632Z</time></trkpt><trkpt lat="42.3040678" lon="13.2580887"><ele>1164.0</ele><time>2026-04-26T13:51:49.63Z</time></trkpt><trkpt lat="42.3039109" lon="13.2581452"><ele>1152.3333333333333</ele><time>2026-04-26T13:51:50.63Z</time></trkpt><trkpt lat="42.3037561" lon="13.2582074"><ele>1140.6666666666665</ele><time>2026-04-26T13:51:51.631Z</time></trkpt><trkpt lat="42.3036074" lon="13.2582687"><ele>1129.0</ele><time>2026-04-26T13:51:52.631Z</time></trkpt><trkpt lat="42.3034728" lon="13.258313"><ele>1129.0</ele><time>2026-04-26T13:51:53.631Z</time></trkpt><trkpt lat="42.3033542" lon="13.2583398"><ele>1129.0</ele><time>2026-04-26T13:51:54.632Z</time></trkpt><trkpt lat="42.3032444" lon="13.2583408"><ele>1129.0</ele><time>2026-04-26T13:51:55.632Z</time></trkpt><trkpt lat="42.3031397" lon="13.2582983"><ele>1129.0</ele><time>2026-04-26T13:51:56.632Z</time></trkpt><trkpt lat="42.3030389" lon="13.2582067"><ele>1130.0</ele><time>2026-04-26T13:51:57.631Z</time></trkpt><trkpt lat="42.3029345" lon="13.2580963"><ele>1131.0</ele><time>2026-04-26T13:51:58.63Z</time></trkpt><trkpt lat="42.3028232" lon="13.2579571"><ele>1132.0</ele><time>2026-04-26T13:51:59.632Z</time></trkpt><trkpt lat="42.3027121" lon="13.2578186"><ele>1133.0</ele><time>2026-04-26T13:52:00.631Z</time></trkpt><trkpt lat="42.3025964" lon="13.2576776"><ele>1133.0</ele><time>2026-04-26T13:52:01.631Z</time></trkpt><trkpt lat="42.302484" lon="13.2575312"><ele>1133.0</ele><time>2026-04-26T13:52:02.631Z</time></trkpt><trkpt lat="42.3023628" lon="13.2573951"><ele>1133.0</ele><time>2026-04-26T13:52:03.632Z</time></trkpt><trkpt lat="42.3022336" lon="13.2572712"><ele>1132.0</ele><time>2026-04-26T13:52:04.632Z</time></trkpt><trkpt lat="42.3020976" lon="13.2571644"><ele>1131.0</ele><time>2026-04-26T13:52:05.632Z</time></trkpt><trkpt lat="42.301963" lon="13.2570701"><ele>1130.0</ele><time>2026-04-26T13:52:06.631Z</time></trkpt><trkpt lat="42.3018315" lon="13.2569808"><ele>1130.0</ele><time>2026-04-26T13:52:07.631Z</time></trkpt><trkpt lat="42.301715" lon="13.2569019"><ele>1130.0</ele><time>2026-04-26T13:52:08.632Z</time></trkpt><trkpt lat="42.3016151" lon="13.25684"><ele>1130.0</ele><time>2026-04-26T13:52:09.632Z</time></trkpt><trkpt lat="42.3015186" lon="13.2568149"><ele>1130.0</ele><time>2026-04-26T13:52:10.632Z</time></trkpt><trkpt lat="42.301425" lon="13.2568395"><ele>1130.0</ele><time>2026-04-26T13:52:11.632Z</time></trkpt><trkpt lat="42.3013455" lon="13.256907"><ele>1135.25</ele><time>2026-04-26T13:52:12.631Z</time></trkpt><trkpt lat="42.3012769" lon="13.2570141"><ele>1140.5</ele><time>2026-04-26T13:52:13.632Z</time></trkpt><trkpt lat="42.3012196" lon="13.2571691"><ele>1145.75</ele><time>2026-04-26T13:52:14.631Z</time></trkpt><trkpt lat="42.3011775" lon="13.2573453"><ele>1151.0</ele><time>2026-04-26T13:52:15.632Z</time></trkpt><trkpt lat="42.3011418" lon="13.2575243"><ele>1151.0</ele><time>2026-04-26T13:52:16.631Z</time></trkpt><trkpt lat="42.3011067" lon="13.2577123"><ele>1151.0</ele><time>2026-04-26T13:52:17.632Z</time></trkpt><trkpt lat="42.3010808" lon="13.2579059"><ele>1151.0</ele><time>2026-04-26T13:52:18.63Z</time></trkpt><trkpt lat="42.3010525" lon="13.2581001"><ele>1151.0</ele><time>2026-04-26T13:52:19.631Z</time></trkpt><trkpt lat="42.3010245" lon="13.2582958"><ele>1147.0</ele><time>2026-04-26T13:52:20.63Z</time></trkpt><trkpt lat="42.3010009" lon="13.2584991"><ele>1143.0</ele><time>2026-04-26T13:52:21.631Z</time></trkpt><trkpt lat="42.3009765" lon="13.2586989"><ele>1139.0</ele><time>2026-04-26T13:52:22.631Z</time></trkpt><trkpt lat="42.3009655" lon="13.2589099"><ele>1137.6666666666667</ele><time>2026-04-26T13:52:23.63Z</time></trkpt><trkpt lat="42.3009732" lon="13.2591205"><ele>1136.3333333333333</ele><time>2026-04-26T13:52:24.631Z</time></trkpt><trkpt lat="42.3009757" lon="13.2593256"><ele>1135.0</ele><time>2026-04-26T13:52:25.632Z</time></trkpt><trkpt lat="42.3009846" lon="13.2595246"><ele>1135.0</ele><time>2026-04-26T13:52:26.632Z</time></trkpt><trkpt lat="42.3010003" lon="13.2597232"><ele>1135.0</ele><time>2026-04-26T13:52:27.632Z</time></trkpt><trkpt lat="42.3010281" lon="13.2599273"><ele>1135.0</ele><time>2026-04-26T13:52:28.632Z</time></trkpt><trkpt lat="42.3010674" lon="13.2601274"><ele>1134.25</ele><time>2026-04-26T13:52:29.63Z</time></trkpt><trkpt lat="42.3011026" lon="13.2603177"><ele>1133.5</ele><time>2026-04-26T13:52:30.63Z</time></trkpt><trkpt lat="42.3011336" lon="13.2605053"><ele>1132.75</ele><time>2026-04-26T13:52:31.631Z</time></trkpt><trkpt lat="42.3011571" lon="13.2606791"><ele>1132.0</ele><time>2026-04-26T13:52:32.631Z</time></trkpt><trkpt lat="42.3011618" lon="13.2608299"><ele>1129.4</ele><time>2026-04-26T13:52:33.632Z</time></trkpt><trkpt lat="42.3011487" lon="13.2609515"><ele>1126.8000000000002</ele><time>2026-04-26T13:52:34.632Z</time></trkpt><trkpt lat="42.3011116" lon="13.2610546"><ele>1124.2</ele><time>2026-04-26T13:52:35.631Z</time></trkpt><trkpt lat="42.3010419" lon="13.2611501"><ele>1121.6000000000001</ele><time>2026-04-26T13:52:36.632Z</time></trkpt><trkpt lat="42.3009515" lon="13.261246"><ele>1119.0</ele><time>2026-04-26T13:52:37.632Z</time></trkpt><trkpt lat="42.3008345" lon="13.2613377"><ele>1119.0</ele><time>2026-04-26T13:52:38.631Z</time></trkpt><trkpt lat="42.3007096" lon="13.2614081"><ele>1119.0</ele><time>2026-04-26T13:52:39.631Z</time></trkpt><trkpt lat="42.3005848" lon="13.2614605"><ele>1119.0</ele><time>2026-04-26T13:52:40.631Z</time></trkpt><trkpt lat="42.3004714" lon="13.2615294"><ele>1119.0</ele><time>2026-04-26T13:52:41.632Z</time></trkpt><trkpt lat="42.3003649" lon="13.2616431"><ele>1117.25</ele><time>2026-04-26T13:52:42.632Z</time></trkpt><trkpt lat="42.3002866" lon="13.2617863"><ele>1115.5</ele><time>2026-04-26T13:52:43.632Z</time></trkpt><trkpt lat="42.3002328" lon="13.2619388"><ele>1113.75</ele><time>2026-04-26T13:52:44.63Z</time></trkpt><trkpt lat="42.3001762" lon="13.2620742"><ele>1112.0</ele><time>2026-04-26T13:52:45.632Z</time></trkpt><trkpt lat="42.3001087" lon="13.2621832"><ele>1112.0</ele><time>2026-04-26T13:52:46.632Z</time></trkpt><trkpt lat="42.3000142" lon="13.2622704"><ele>1112.0</ele><time>2026-04-26T13:52:47.631Z</time></trkpt><trkpt lat="42.2998922" lon="13.2623369"><ele>1112.0</ele><time>2026-04-26T13:52:48.63Z</time></trkpt><trkpt lat="42.2997786" lon="13.2624203"><ele>1112.0</ele><time>2026-04-26T13:52:49.631Z</time></trkpt><trkpt lat="42.2996822" lon="13.2625207"><ele>1106.0</ele><time>2026-04-26T13:52:50.63Z</time></trkpt><trkpt lat="42.2995916" lon="13.2626077"><ele>1100.0</ele><time>2026-04-26T13:52:51.63Z</time></trkpt><trkpt lat="42.2995001" lon="13.2626618"><ele>1094.0</ele><time>2026-04-26T13:52:52.631Z</time></trkpt><trkpt lat="42.2994068" lon="13.2626667"><ele>1088.0</ele><time>2026-04-26T13:52:53.63Z</time></trkpt><trkpt lat="42.2993208" lon="13.2626178"><ele>1082.0</ele><time>2026-04-26T13:52:54.631Z</time></trkpt><trkpt lat="42.2992421" lon="13.2625132"><ele>1082.0</ele><time>2026-04-26T13:52:55.631Z</time></trkpt><trkpt lat="42.2991783" lon="13.262362"><ele>1082.0</ele><time>2026-04-26T13:52:56.632Z</time></trkpt><trkpt lat="42.2991271" lon="13.2621828"><ele>1082.0</ele><time>2026-04-26T13:52:57.631Z</time></trkpt><trkpt lat="42.2990851" lon="13.2620075"><ele>1082.0</ele><time>2026-04-26T13:52:58.63Z</time></trkpt><trkpt lat="42.2990436" lon="13.2618423"><ele>1085.0</ele><time>2026-04-26T13:52:59.63Z</time></trkpt><trkpt lat="42.299004" lon="13.2617082"><ele>1088.0</ele><time>2026-04-26T13:53:00.631Z</time></trkpt><trkpt lat="42.2989604" lon="13.2615976"><ele>1091.0</ele><time>2026-04-26T13:53:01.631Z</time></trkpt><trkpt lat="42.2988926" lon="13.2615266"><ele>1094.0</ele><time>2026-04-26T13:53:02.632Z</time></trkpt><trkpt lat="42.298813" lon="13.2615115"><ele>1097.0</ele><time>2026-04-26T13:53:03.631Z</time></trkpt><trkpt lat="42.2987289" lon="13.2615405"><ele>1097.0</ele><time>2026-04-26T13:53:04.631Z</time></trkpt><trkpt lat="42.2986398" lon="13.2616364"><ele>1097.0</ele><time>2026-04-26T13:53:05.63Z</time></trkpt><trkpt lat="42.2985511" lon="13.2617531"><ele>1097.0</ele><time>2026-04-26T13:53:06.631Z</time></trkpt><trkpt lat="42.2984539" lon="13.2618536"><ele>1097.0</ele><time>2026-04-26T13:53:07.63Z</time></trkpt><trkpt lat="42.2983475" lon="13.2619246"><ele>1097.0</ele><time>2026-04-26T13:53:08.632Z</time></trkpt><trkpt lat="42.2982354" lon="13.2619579"><ele>1097.0</ele><time>2026-04-26T13:53:09.632Z</time></trkpt><trkpt lat="42.2981231" lon="13.2619915"><ele>1097.0</ele><time>2026-04-26T13:53:10.63Z</time></trkpt><trkpt lat="42.2980211" lon="13.2620569"><ele>1097.0</ele><time>2026-04-26T13:53:11.631Z</time></trkpt><trkpt lat="42.2979414" lon="13.2621452"><ele>1097.0</ele><time>2026-04-26T13:53:12.631Z</time></trkpt><trkpt lat="42.2978941" lon="13.2622623"><ele>1096.5</ele><time>2026-04-26T13:53:13.631Z</time></trkpt><trkpt lat="42.2978812" lon="13.262416"><ele>1096.0</ele><time>2026-04-26T13:53:14.631Z</time></trkpt><trkpt lat="42.2978805" lon="13.2625866"><ele>1095.5</ele><time>2026-04-26T13:53:15.63Z</time></trkpt><trkpt lat="42.297857" lon="13.2627621"><ele>1095.0</ele><time>2026-04-26T13:53:16.632Z</time></trkpt><trkpt lat="42.2978144" lon="13.2629208"><ele>1095.0</ele><time>2026-04-26T13:53:17.632Z</time></trkpt><trkpt lat="42.2977659" lon="13.2630533"><ele>1095.0</ele><time>2026-04-26T13:53:18.631Z</time></trkpt><trkpt lat="42.2977009" lon="13.2631594"><ele>1095.0</ele><time>2026-04-26T13:53:19.632Z</time></trkpt><trkpt lat="42.2976116" lon="13.2632203"><ele>1095.0</ele><time>2026-04-26T13:53:20.631Z</time></trkpt><trkpt lat="42.2974922" lon="13.2632493"><ele>1095.0</ele><time>2026-04-26T13:53:21.631Z</time></trkpt><trkpt lat="42.2973676" lon="13.2632376"><ele>1093.4</ele><time>2026-04-26T13:53:22.631Z</time></trkpt><trkpt lat="42.2972542" lon="13.2631997"><ele>1091.8</ele><time>2026-04-26T13:53:23.631Z</time></trkpt><trkpt lat="42.2971457" lon="13.2631722"><ele>1090.2</ele><time>2026-04-26T13:53:24.631Z</time></trkpt><trkpt lat="42.2970407" lon="13.2631864"><ele>1088.6</ele><time>2026-04-26T13:53:25.632Z</time></trkpt><trkpt lat="42.2969424" lon="13.2632472"><ele>1087.0</ele><time>2026-04-26T13:53:26.631Z</time></trkpt><trkpt lat="42.2968523" lon="13.2633472"><ele>1087.0</ele><time>2026-04-26T13:53:27.631Z</time></trkpt><trkpt lat="42.2967876" lon="13.2634639"><ele>1087.0</ele><time>2026-04-26T13:53:28.63Z</time></trkpt><trkpt lat="42.2967544" lon="13.2635975"><ele>1087.0</ele><time>2026-04-26T13:53:29.629Z</time></trkpt><trkpt lat="42.2967555" lon="13.2637391"><ele>1087.0</ele><time>2026-04-26T13:53:30.629Z</time></trkpt><trkpt lat="42.2967728" lon="13.2638872"><ele>1087.0</ele><time>2026-04-26T13:53:31.63Z</time></trkpt><trkpt lat="42.2967714" lon="13.264038"><ele>1083.8</ele><time>2026-04-26T13:53:32.631Z</time></trkpt><trkpt lat="42.2967407" lon="13.2641778"><ele>1080.6</ele><time>2026-04-26T13:53:33.63Z</time></trkpt><trkpt lat="42.2966759" lon="13.2642979"><ele>1077.3999999999999</ele><time>2026-04-26T13:53:34.631Z</time></trkpt><trkpt lat="42.2965968" lon="13.2643994"><ele>1074.2</ele><time>2026-04-26T13:53:35.63Z</time></trkpt><trkpt lat="42.2965261" lon="13.2645118"><ele>1071.0</ele><time>2026-04-26T13:53:36.631Z</time></trkpt><trkpt lat="42.2964935" lon="13.2646535"><ele>1068.0</ele><time>2026-04-26T13:53:37.631Z</time></trkpt><trkpt lat="42.2964823" lon="13.2647924"><ele>1065.0</ele><time>2026-04-26T13:53:38.631Z</time></trkpt><trkpt lat="42.2964843" lon="13.2649263"><ele>1062.0</ele><time>2026-04-26T13:53:39.63Z</time></trkpt><trkpt lat="42.2964829" lon="13.2650422"><ele>1059.0</ele><time>2026-04-26T13:53:40.631Z</time></trkpt><trkpt lat="42.2964784" lon="13.2651399"><ele>1056.0</ele><time>2026-04-26T13:53:41.63Z</time></trkpt><trkpt lat="42.2964818" lon="13.2652711"><ele>1056.0</ele><time>2026-04-26T13:53:43.631Z</time></trkpt><trkpt lat="42.2964998" lon="13.2653538"><ele>1056.0</ele><time>2026-04-26T13:53:52.63Z</time></trkpt></trkseg></trk></gpx>